<?xml version='1.0' encoding='UTF-8'?><gpx version="1.1" creator="JPX - https://github.com/jenetics/jpx" xmlns="http://www.topografix.com/GPX/1/1"><trk><trkseg><trkpt lat="43.474590114014624" lon="11.592379026497513"><ele>260.0</ele><time>2026-05-02T06:13:46.972Z</time></trkpt><trkpt lat="43.47449005127298" lon="11.592388357636128"><ele>260.0</ele><time>2026-05-02T06:13:48.975Z</time></trkpt><trkpt lat="43.47436491871776" lon="11.592404707332701"><ele>260.0</ele><time>2026-05-02T06:13:50.979Z</time></trkpt><trkpt lat="43.47424322285064" lon="11.592387902401272"><ele>260.0</ele><time>2026-05-02T06:13:52.982Z</time></trkpt><trkpt lat="43.47416427088223" lon="11.592399911294759"><ele>260.0</ele><time>2026-05-02T06:13:54.984Z</time></trkpt><trkpt lat="43.47414992629552" lon="11.592601347447443"><ele>260.0</ele><time>2026-05-02T06:13:56.986Z</time></trkpt><trkpt lat="43.474136905707105" lon="11.592755912653224"><ele>260.0</ele><time>2026-05-02T06:13:58.988Z</time></trkpt><trkpt lat="43.47408570202669" lon="11.592884234602229"><ele>260.0</ele><time>2026-05-02T06:14:00.99Z</time></trkpt><trkpt lat="43.47399152894667" lon="11.592999939601691"><ele>260.0</ele><time>2026-05-02T06:14:02.991Z</time></trkpt><trkpt lat="43.473974110625775" lon="11.593093802641363"><ele>260.0</ele><time>2026-05-02T06:14:03.992Z</time></trkpt><trkpt lat="43.473918679865065" lon="11.593211666567775"><ele>259.6666666666667</ele><time>2026-05-02T06:14:05.993Z</time></trkpt><trkpt lat="43.47381569238059" lon="11.593248993112725"><ele>259.33333333333337</ele><time>2026-05-02T06:14:07.994Z</time></trkpt><trkpt lat="43.47374398999862" lon="11.59327933855975"><ele>259.0</ele><time>2026-05-02T06:14:08.995Z</time></trkpt><trkpt lat="43.47368353633549" lon="11.593326524112397"><ele>258.6666666666667</ele><time>2026-05-02T06:14:09.995Z</time></trkpt><trkpt lat="43.473615927385865" lon="11.59332845367754"><ele>258.3333333333333</ele><time>2026-05-02T06:14:10.996Z</time></trkpt><trkpt lat="43.47350359143108" lon="11.593370613585382"><ele>258.0</ele><time>2026-05-02T06:14:12.996Z</time></trkpt><trkpt lat="43.47341034024836" lon="11.59340087866081"><ele>258.0</ele><time>2026-05-02T06:14:14.997Z</time></trkpt><trkpt lat="43.47333723694405" lon="11.593432539635524"><ele>258.0</ele><time>2026-05-02T06:14:16.998Z</time></trkpt><trkpt lat="43.47330944195066" lon="11.593310525152967"><ele>258.0</ele><time>2026-05-02T06:14:18.998Z</time></trkpt><trkpt lat="43.47330738656293" lon="11.593150479254682"><ele>258.0</ele><time>2026-05-02T06:14:20.999Z</time></trkpt><trkpt lat="43.47329602614686" lon="11.593056202088903"><ele>258.0</ele><time>2026-05-02T06:14:21.999Z</time></trkpt><trkpt lat="43.47328218837789" lon="11.592946598087204"><ele>258.0</ele><time>2026-05-02T06:14:22.999Z</time></trkpt><trkpt lat="43.473271152345056" lon="11.592833519174091"><ele>258.1666666666667</ele><time>2026-05-02T06:14:23.999Z</time></trkpt><trkpt lat="43.47326073727382" lon="11.59271559232946"><ele>258.3333333333333</ele><time>2026-05-02T06:14:24.999Z</time></trkpt><trkpt lat="43.47325261548443" lon="11.592595833284145"><ele>258.5</ele><time>2026-05-02T06:14:26Z</time></trkpt><trkpt lat="43.47324416963237" lon="11.592472030422561"><ele>258.66666666666663</ele><time>2026-05-02T06:14:27Z</time></trkpt><trkpt lat="43.47323326435602" lon="11.592347121513065"><ele>258.8333333333333</ele><time>2026-05-02T06:14:28Z</time></trkpt><trkpt lat="43.47322064654876" lon="11.59222031389172"><ele>259.0</ele><time>2026-05-02T06:14:29Z</time></trkpt><trkpt lat="43.47321105389591" lon="11.592110750555134"><ele>259.0</ele><time>2026-05-02T06:14:30Z</time></trkpt><trkpt lat="43.47320344746453" lon="11.59202028860398"><ele>259.0</ele><time>2026-05-02T06:14:31Z</time></trkpt><trkpt lat="43.47319351871366" lon="11.591928940243797"><ele>259.0</ele><time>2026-05-02T06:14:32Z</time></trkpt><trkpt lat="43.47318423815842" lon="11.591828969208832"><ele>259.0</ele><time>2026-05-02T06:14:33.001Z</time></trkpt><trkpt lat="43.47317524533339" lon="11.591724668616397"><ele>259.0</ele><time>2026-05-02T06:14:34.001Z</time></trkpt><trkpt lat="43.47316383448943" lon="11.59161576555647"><ele>259.0</ele><time>2026-05-02T06:14:35.001Z</time></trkpt><trkpt lat="43.47315342776448" lon="11.591500099776331"><ele>259.0</ele><time>2026-05-02T06:14:36.001Z</time></trkpt><trkpt lat="43.47314223589456" lon="11.591384332019711"><ele>259.59999999999997</ele><time>2026-05-02T06:14:37.001Z</time></trkpt><trkpt lat="43.473130771616866" lon="11.591265847088504"><ele>260.2</ele><time>2026-05-02T06:14:38.001Z</time></trkpt><trkpt lat="43.47311963801715" lon="11.591139453093405"><ele>260.79999999999995</ele><time>2026-05-02T06:14:39.001Z</time></trkpt><trkpt lat="43.4731067020112" lon="11.59101587101187"><ele>261.4</ele><time>2026-05-02T06:14:40.001Z</time></trkpt><trkpt lat="43.473093495127436" lon="11.590887307305714"><ele>262.0</ele><time>2026-05-02T06:14:41.001Z</time></trkpt><trkpt lat="43.473082943708064" lon="11.590760583160744"><ele>262.6</ele><time>2026-05-02T06:14:42.001Z</time></trkpt><trkpt lat="43.473071602454596" lon="11.590629528688869"><ele>263.2</ele><time>2026-05-02T06:14:43.001Z</time></trkpt><trkpt lat="43.47306046665396" lon="11.590499067389182"><ele>263.8</ele><time>2026-05-02T06:14:44.001Z</time></trkpt><trkpt lat="43.473054150328664" lon="11.590365248395157"><ele>264.4</ele><time>2026-05-02T06:14:45.001Z</time></trkpt><trkpt lat="43.47304583842842" lon="11.590240262718186"><ele>265.0</ele><time>2026-05-02T06:14:46.001Z</time></trkpt><trkpt lat="43.473033957774255" lon="11.590137963864823"><ele>265.3333333333333</ele><time>2026-05-02T06:14:47.002Z</time></trkpt><trkpt lat="43.47302540779247" lon="11.590051616599023"><ele>265.66666666666663</ele><time>2026-05-02T06:14:48.002Z</time></trkpt><trkpt lat="43.473014555850796" lon="11.589898872308119"><ele>266.0</ele><time>2026-05-02T06:14:50.002Z</time></trkpt><trkpt lat="43.473002424873116" lon="11.589802834031156"><ele>266.3333333333333</ele><time>2026-05-02T06:14:51.002Z</time></trkpt><trkpt lat="43.472989232884395" lon="11.589691983711884"><ele>266.6666666666667</ele><time>2026-05-02T06:14:52.002Z</time></trkpt><trkpt lat="43.4729782647617" lon="11.589563221971396"><ele>267.0</ele><time>2026-05-02T06:14:53.002Z</time></trkpt><trkpt lat="43.47296696598434" lon="11.589420420852756"><ele>267.0</ele><time>2026-05-02T06:14:54.002Z</time></trkpt><trkpt lat="43.472955753330346" lon="11.589270439640934"><ele>267.0</ele><time>2026-05-02T06:14:55.002Z</time></trkpt><trkpt lat="43.47294525278873" lon="11.589109082966118"><ele>267.0</ele><time>2026-05-02T06:14:56.002Z</time></trkpt><trkpt lat="43.4729404213374" lon="11.588943054084453"><ele>267.0</ele><time>2026-05-02T06:14:57.002Z</time></trkpt><trkpt lat="43.472945128019404" lon="11.58876789433432"><ele>267.25</ele><time>2026-05-02T06:14:58.002Z</time></trkpt><trkpt lat="43.47295617761112" lon="11.588598231016295"><ele>267.5</ele><time>2026-05-02T06:14:59.002Z</time></trkpt><trkpt lat="43.47297434263288" lon="11.588430182859206"><ele>267.75</ele><time>2026-05-02T06:15:00.002Z</time></trkpt><trkpt lat="43.47299896480611" lon="11.588262547872361"><ele>268.0</ele><time>2026-05-02T06:15:01.002Z</time></trkpt><trkpt lat="43.47302765712514" lon="11.588095059022713"><ele>268.0</ele><time>2026-05-02T06:15:02.002Z</time></trkpt><trkpt lat="43.47306560502713" lon="11.587925204465845"><ele>268.0</ele><time>2026-05-02T06:15:03.002Z</time></trkpt><trkpt lat="43.473115358076676" lon="11.587759533016326"><ele>268.0</ele><time>2026-05-02T06:15:04.002Z</time></trkpt><trkpt lat="43.47316657568214" lon="11.587589930783576"><ele>268.0</ele><time>2026-05-02T06:15:05.002Z</time></trkpt><trkpt lat="43.47322434672776" lon="11.587422411589056"><ele>268.25</ele><time>2026-05-02T06:15:06.002Z</time></trkpt><trkpt lat="43.47328099495996" lon="11.587249125147617"><ele>268.5</ele><time>2026-05-02T06:15:07.002Z</time></trkpt><trkpt lat="43.47333892915853" lon="11.587073392645975"><ele>268.75</ele><time>2026-05-02T06:15:08.002Z</time></trkpt><trkpt lat="43.47339733484814" lon="11.586897941404796"><ele>269.0</ele><time>2026-05-02T06:15:09.002Z</time></trkpt><trkpt lat="43.47345709122143" lon="11.586717459682626"><ele>269.5</ele><time>2026-05-02T06:15:10.002Z</time></trkpt><trkpt lat="43.47351479360114" lon="11.586536470800453"><ele>270.0</ele><time>2026-05-02T06:15:11.002Z</time></trkpt><trkpt lat="43.47357374505245" lon="11.586350295176816"><ele>270.5</ele><time>2026-05-02T06:15:12.002Z</time></trkpt><trkpt lat="43.47363789869576" lon="11.586169220922201"><ele>271.0</ele><time>2026-05-02T06:15:13.002Z</time></trkpt><trkpt lat="43.473704286403475" lon="11.58598478498087"><ele>271.3333333333333</ele><time>2026-05-02T06:15:14.002Z</time></trkpt><trkpt lat="43.47376649588329" lon="11.585790783538034"><ele>271.6666666666667</ele><time>2026-05-02T06:15:15.002Z</time></trkpt><trkpt lat="43.47382868384886" lon="11.585599933962973"><ele>272.0</ele><time>2026-05-02T06:15:16.002Z</time></trkpt><trkpt lat="43.47389255293848" lon="11.585406649584801"><ele>270.6666666666667</ele><time>2026-05-02T06:15:17.002Z</time></trkpt><trkpt lat="43.47395863725309" lon="11.585209001324886"><ele>269.3333333333333</ele><time>2026-05-02T06:15:18.002Z</time></trkpt><trkpt lat="43.47402485295197" lon="11.585010400383611"><ele>268.0</ele><time>2026-05-02T06:15:19.002Z</time></trkpt><trkpt lat="43.47409211578299" lon="11.584816325569465"><ele>268.0</ele><time>2026-05-02T06:15:20.002Z</time></trkpt><trkpt lat="43.47416298865312" lon="11.584616568326274"><ele>268.0</ele><time>2026-05-02T06:15:21.002Z</time></trkpt><trkpt lat="43.4742374059185" lon="11.584422835381778"><ele>268.0</ele><time>2026-05-02T06:15:22.002Z</time></trkpt><trkpt lat="43.47431727450743" lon="11.584228243675827"><ele>268.3333333333333</ele><time>2026-05-02T06:15:23.002Z</time></trkpt><trkpt lat="43.474399448671555" lon="11.584040149890557"><ele>268.6666666666667</ele><time>2026-05-02T06:15:24.002Z</time></trkpt><trkpt lat="43.47448499671571" lon="11.583849951904961"><ele>269.0</ele><time>2026-05-02T06:15:25.002Z</time></trkpt><trkpt lat="43.474570639189025" lon="11.583659596943985"><ele>268.6666666666667</ele><time>2026-05-02T06:15:26.002Z</time></trkpt><trkpt lat="43.47465379907636" lon="11.58346753787975"><ele>268.3333333333333</ele><time>2026-05-02T06:15:27.002Z</time></trkpt><trkpt lat="43.4747423204222" lon="11.58327036023831"><ele>268.0</ele><time>2026-05-02T06:15:28.002Z</time></trkpt><trkpt lat="43.474833296904634" lon="11.583075498533491"><ele>268.0</ele><time>2026-05-02T06:15:29.002Z</time></trkpt><trkpt lat="43.47492191338108" lon="11.582880977498375"><ele>268.0</ele><time>2026-05-02T06:15:30.002Z</time></trkpt><trkpt lat="43.475012052094996" lon="11.582684585292773"><ele>268.0</ele><time>2026-05-02T06:15:31.002Z</time></trkpt><trkpt lat="43.47510412678502" lon="11.582485632177365"><ele>269.0</ele><time>2026-05-02T06:15:32.002Z</time></trkpt><trkpt lat="43.4751962894357" lon="11.582284921714141"><ele>270.0</ele><time>2026-05-02T06:15:33.002Z</time></trkpt><trkpt lat="43.47529005518858" lon="11.582080117880736"><ele>271.0</ele><time>2026-05-02T06:15:34.002Z</time></trkpt><trkpt lat="43.475383083170094" lon="11.581874263149055"><ele>269.66666666666663</ele><time>2026-05-02T06:15:35.002Z</time></trkpt><trkpt lat="43.475477553801866" lon="11.581664299164872"><ele>268.3333333333333</ele><time>2026-05-02T06:15:36.002Z</time></trkpt><trkpt lat="43.47557227310308" lon="11.581454304107407"><ele>267.0</ele><time>2026-05-02T06:15:37.002Z</time></trkpt><trkpt lat="43.47566819649869" lon="11.58124737393873"><ele>267.6666666666667</ele><time>2026-05-02T06:15:38.002Z</time></trkpt><trkpt lat="43.47576441432488" lon="11.581032132934878"><ele>268.33333333333337</ele><time>2026-05-02T06:15:39.002Z</time></trkpt><trkpt lat="43.47585904670172" lon="11.58082051018917"><ele>269.0</ele><time>2026-05-02T06:15:40.002Z</time></trkpt><trkpt lat="43.47595534375296" lon="11.580607134427472"><ele>269.0</ele><time>2026-05-02T06:15:41.002Z</time></trkpt><trkpt lat="43.47605642229785" lon="11.580388288943375"><ele>269.0</ele><time>2026-05-02T06:15:42.002Z</time></trkpt><trkpt lat="43.476156661559344" lon="11.580169191992333"><ele>269.0</ele><time>2026-05-02T06:15:43.002Z</time></trkpt><trkpt lat="43.47625847225303" lon="11.579949109762422"><ele>269.0</ele><time>2026-05-02T06:15:44.004Z</time></trkpt><trkpt lat="43.47636020631006" lon="11.579730614585353"><ele>269.0</ele><time>2026-05-02T06:15:45.004Z</time></trkpt><trkpt lat="43.47646407652454" lon="11.579506449636694"><ele>269.0</ele><time>2026-05-02T06:15:46.004Z</time></trkpt><trkpt lat="43.47656493598797" lon="11.579284695624565"><ele>268.6666666666667</ele><time>2026-05-02T06:15:47.003Z</time></trkpt><trkpt lat="43.47666756543014" lon="11.579061458253161"><ele>268.3333333333333</ele><time>2026-05-02T06:15:48.003Z</time></trkpt><trkpt lat="43.47677162960345" lon="11.578838143574485"><ele>268.0</ele><time>2026-05-02T06:15:49.003Z</time></trkpt><trkpt lat="43.47687578860471" lon="11.578613492096299"><ele>268.3333333333333</ele><time>2026-05-02T06:15:50.003Z</time></trkpt><trkpt lat="43.47697880333925" lon="11.578387056538324"><ele>268.6666666666667</ele><time>2026-05-02T06:15:51.003Z</time></trkpt><trkpt lat="43.47707652725841" lon="11.578160760452214"><ele>269.0</ele><time>2026-05-02T06:15:52.003Z</time></trkpt><trkpt lat="43.47717056697505" lon="11.577924573938981"><ele>269.33333333333337</ele><time>2026-05-02T06:15:53.003Z</time></trkpt><trkpt lat="43.477261657" lon="11.577687721398288"><ele>269.6666666666667</ele><time>2026-05-02T06:15:54.003Z</time></trkpt><trkpt lat="43.477315300928495" lon="11.577429462372825"><ele>270.0</ele><time>2026-05-02T06:15:55.002Z</time></trkpt><trkpt lat="43.47738659769189" lon="11.577182439696818"><ele>270.3333333333333</ele><time>2026-05-02T06:15:56.002Z</time></trkpt><trkpt lat="43.477429603225985" lon="11.576923419078643"><ele>270.66666666666663</ele><time>2026-05-02T06:15:57.002Z</time></trkpt><trkpt lat="43.47746042052127" lon="11.57666439082792"><ele>271.0</ele><time>2026-05-02T06:15:58.002Z</time></trkpt><trkpt lat="43.477477583414924" lon="11.576412602192969"><ele>270.3333333333333</ele><time>2026-05-02T06:15:59.002Z</time></trkpt><trkpt lat="43.477481822085714" lon="11.576154511548278"><ele>269.6666666666667</ele><time>2026-05-02T06:16:00.002Z</time></trkpt><trkpt lat="43.477459924626885" lon="11.575893288211065"><ele>269.0</ele><time>2026-05-02T06:16:01.002Z</time></trkpt><trkpt lat="43.4774540312936" lon="11.57562725127018"><ele>269.0</ele><time>2026-05-02T06:16:02.002Z</time></trkpt><trkpt lat="43.47745056774716" lon="11.575364392695064"><ele>269.0</ele><time>2026-05-02T06:16:03.002Z</time></trkpt><trkpt lat="43.47743905308536" lon="11.575096775070053"><ele>269.0</ele><time>2026-05-02T06:16:04.002Z</time></trkpt><trkpt lat="43.47743256431563" lon="11.574824882730473"><ele>268.0</ele><time>2026-05-02T06:16:05.002Z</time></trkpt><trkpt lat="43.47743101983031" lon="11.574555399935225"><ele>267.0</ele><time>2026-05-02T06:16:06.002Z</time></trkpt><trkpt lat="43.47744590229124" lon="11.574284853360652"><ele>266.0</ele><time>2026-05-02T06:16:07.002Z</time></trkpt><trkpt lat="43.47748158160479" lon="11.57401807648351"><ele>266.0</ele><time>2026-05-02T06:16:08.001Z</time></trkpt><trkpt lat="43.47754151842724" lon="11.573766247151914"><ele>266.0</ele><time>2026-05-02T06:16:09.001Z</time></trkpt><trkpt lat="43.477618453323075" lon="11.573518034708194"><ele>266.0</ele><time>2026-05-02T06:16:10.001Z</time></trkpt><trkpt lat="43.47770631821537" lon="11.573277593761132"><ele>266.0</ele><time>2026-05-02T06:16:11.001Z</time></trkpt><trkpt lat="43.4778006260626" lon="11.57304489220149"><ele>266.0</ele><time>2026-05-02T06:16:12.001Z</time></trkpt><trkpt lat="43.477888604648804" lon="11.572803719458737"><ele>266.0</ele><time>2026-05-02T06:16:13.001Z</time></trkpt><trkpt lat="43.47797363217117" lon="11.572561346854531"><ele>266.0</ele><time>2026-05-02T06:16:14.001Z</time></trkpt><trkpt lat="43.47805891431343" lon="11.572317290171753"><ele>266.0</ele><time>2026-05-02T06:16:15.001Z</time></trkpt><trkpt lat="43.47814339232489" lon="11.572075666266082"><ele>266.0</ele><time>2026-05-02T06:16:16.001Z</time></trkpt><trkpt lat="43.47822989029762" lon="11.571830596933262"><ele>266.0</ele><time>2026-05-02T06:16:17.001Z</time></trkpt><trkpt lat="43.478313215996806" lon="11.571589382676564"><ele>266.0</ele><time>2026-05-02T06:16:18.001Z</time></trkpt><trkpt lat="43.47839062638553" lon="11.571342551509277"><ele>266.0</ele><time>2026-05-02T06:16:19.001Z</time></trkpt><trkpt lat="43.478459847585064" lon="11.571098569242196"><ele>267.33333333333337</ele><time>2026-05-02T06:16:20.001Z</time></trkpt><trkpt lat="43.478518185792694" lon="11.57084031711458"><ele>268.6666666666667</ele><time>2026-05-02T06:16:21.001Z</time></trkpt><trkpt lat="43.47856437363749" lon="11.570583059264688"><ele>270.0</ele><time>2026-05-02T06:16:22.001Z</time></trkpt><trkpt lat="43.47859459304454" lon="11.57032806506816"><ele>270.0</ele><time>2026-05-02T06:16:23.001Z</time></trkpt><trkpt lat="43.47861543073753" lon="11.570066380327487"><ele>270.0</ele><time>2026-05-02T06:16:24.001Z</time></trkpt><trkpt lat="43.47862833071922" lon="11.569805947716828"><ele>270.0</ele><time>2026-05-02T06:16:25.001Z</time></trkpt><trkpt lat="43.47864041701095" lon="11.569546876059066"><ele>270.6666666666667</ele><time>2026-05-02T06:16:26.001Z</time></trkpt><trkpt lat="43.4786532261439" lon="11.569290868877607"><ele>271.33333333333337</ele><time>2026-05-02T06:16:27.001Z</time></trkpt><trkpt lat="43.478664229529045" lon="11.569032445886915"><ele>272.0</ele><time>2026-05-02T06:16:28.001Z</time></trkpt><trkpt lat="43.47867312282756" lon="11.56878029187023"><ele>272.6666666666667</ele><time>2026-05-02T06:16:29.001Z</time></trkpt><trkpt lat="43.47868628469676" lon="11.568531141812947"><ele>273.3333333333333</ele><time>2026-05-02T06:16:30.001Z</time></trkpt><trkpt lat="43.47870178126493" lon="11.568276264429304"><ele>274.0</ele><time>2026-05-02T06:16:31.001Z</time></trkpt><trkpt lat="43.47871190473475" lon="11.568019990644583"><ele>274.3333333333333</ele><time>2026-05-02T06:16:32.001Z</time></trkpt><trkpt lat="43.47871526432841" lon="11.567769032324346"><ele>274.6666666666667</ele><time>2026-05-02T06:16:33.001Z</time></trkpt><trkpt lat="43.47870462409229" lon="11.567524511632875"><ele>275.0</ele><time>2026-05-02T06:16:34.001Z</time></trkpt><trkpt lat="43.47868162294653" lon="11.567275790676376"><ele>275.0</ele><time>2026-05-02T06:16:35.001Z</time></trkpt><trkpt lat="43.478647907578726" lon="11.567033676148375"><ele>275.0</ele><time>2026-05-02T06:16:36.001Z</time></trkpt><trkpt lat="43.47860258903527" lon="11.56679255216129"><ele>275.0</ele><time>2026-05-02T06:16:37.001Z</time></trkpt><trkpt lat="43.47854372489076" lon="11.566561789883588"><ele>274.33333333333337</ele><time>2026-05-02T06:16:38.001Z</time></trkpt><trkpt lat="43.478468440722295" lon="11.566334070916541"><ele>273.6666666666667</ele><time>2026-05-02T06:16:39.001Z</time></trkpt><trkpt lat="43.47838502370541" lon="11.566107835804567"><ele>273.0</ele><time>2026-05-02T06:16:40.001Z</time></trkpt><trkpt lat="43.47829866117977" lon="11.565885551042387"><ele>272.0</ele><time>2026-05-02T06:16:41.001Z</time></trkpt><trkpt lat="43.47820948766596" lon="11.56565871066958"><ele>271.0</ele><time>2026-05-02T06:16:42.001Z</time></trkpt><trkpt lat="43.47812138791336" lon="11.56543180857029"><ele>270.0</ele><time>2026-05-02T06:16:43.001Z</time></trkpt><trkpt lat="43.47803332587494" lon="11.565200670238951"><ele>270.0</ele><time>2026-05-02T06:16:44.001Z</time></trkpt><trkpt lat="43.477946058127465" lon="11.564962717815218"><ele>270.0</ele><time>2026-05-02T06:16:45.001Z</time></trkpt><trkpt lat="43.47786120265346" lon="11.56471979481601"><ele>270.0</ele><time>2026-05-02T06:16:46.001Z</time></trkpt><trkpt lat="43.477777422806525" lon="11.564473870936688"><ele>270.0</ele><time>2026-05-02T06:16:47.001Z</time></trkpt><trkpt lat="43.47769485796282" lon="11.564229964242985"><ele>270.0</ele><time>2026-05-02T06:16:48.001Z</time></trkpt><trkpt lat="43.477612622923274" lon="11.563986657149885"><ele>270.0</ele><time>2026-05-02T06:16:49.001Z</time></trkpt><trkpt lat="43.477533727387566" lon="11.563749580730189"><ele>268.0</ele><time>2026-05-02T06:16:50.001Z</time></trkpt><trkpt lat="43.4774593226409" lon="11.563521264205448"><ele>266.0</ele><time>2026-05-02T06:16:51.001Z</time></trkpt><trkpt lat="43.47738772845578" lon="11.563290790127613"><ele>264.0</ele><time>2026-05-02T06:16:52.001Z</time></trkpt><trkpt lat="43.47732058631569" lon="11.563065717396658"><ele>263.3333333333333</ele><time>2026-05-02T06:16:53.001Z</time></trkpt><trkpt lat="43.47726241913589" lon="11.562839812084148"><ele>262.66666666666663</ele><time>2026-05-02T06:16:54.001Z</time></trkpt><trkpt lat="43.47721716801812" lon="11.562611768220746"><ele>262.0</ele><time>2026-05-02T06:16:55.001Z</time></trkpt><trkpt lat="43.47718756328802" lon="11.5623865717719"><ele>262.0</ele><time>2026-05-02T06:16:56.001Z</time></trkpt><trkpt lat="43.477176965817456" lon="11.562164483699334"><ele>262.0</ele><time>2026-05-02T06:16:57.001Z</time></trkpt><trkpt lat="43.47718300054091" lon="11.561946555157052"><ele>262.0</ele><time>2026-05-02T06:16:58.001Z</time></trkpt><trkpt lat="43.47720218441145" lon="11.561736879303906"><ele>262.0</ele><time>2026-05-02T06:16:59.001Z</time></trkpt><trkpt lat="43.47723305701032" lon="11.561529308201164"><ele>262.0</ele><time>2026-05-02T06:17:00.001Z</time></trkpt><trkpt lat="43.477270819612436" lon="11.561332011153548"><ele>262.0</ele><time>2026-05-02T06:17:01.001Z</time></trkpt><trkpt lat="43.47731492490918" lon="11.561149538804283"><ele>262.0</ele><time>2026-05-02T06:17:02.001Z</time></trkpt><trkpt lat="43.47736136105257" lon="11.560983698221262"><ele>262.0</ele><time>2026-05-02T06:17:03.001Z</time></trkpt><trkpt lat="43.47740830102135" lon="11.560856956296425"><ele>262.0</ele><time>2026-05-02T06:17:04.001Z</time></trkpt><trkpt lat="43.47745314698399" lon="11.560753916725732"><ele>262.0</ele><time>2026-05-02T06:17:05.001Z</time></trkpt><trkpt lat="43.477488834589245" lon="11.560673969139396"><ele>262.0</ele><time>2026-05-02T06:17:06.001Z</time></trkpt><trkpt lat="43.47746207333212" lon="11.560525343579544"><ele>262.0</ele><time>2026-05-02T06:17:08.001Z</time></trkpt><trkpt lat="43.477380492194705" lon="11.560478292603808"><ele>262.0</ele><time>2026-05-02T06:17:09.001Z</time></trkpt><trkpt lat="43.47728849453047" lon="11.560449071289073"><ele>262.0</ele><time>2026-05-02T06:17:10.001Z</time></trkpt><trkpt lat="43.477209926150955" lon="11.560353241211738"><ele>262.0</ele><time>2026-05-02T06:17:11Z</time></trkpt><trkpt lat="43.477133723590384" lon="11.560238975144651"><ele>262.0</ele><time>2026-05-02T06:17:12Z</time></trkpt><trkpt lat="43.47705825048915" lon="11.560113263901902"><ele>262.0</ele><time>2026-05-02T06:17:13Z</time></trkpt><trkpt lat="43.476980321352784" lon="11.559972299565864"><ele>262.0</ele><time>2026-05-02T06:17:14Z</time></trkpt><trkpt lat="43.47689512225213" lon="11.559827386629413"><ele>262.0</ele><time>2026-05-02T06:17:15Z</time></trkpt><trkpt lat="43.476799570177484" lon="11.559684893146462"><ele>262.0</ele><time>2026-05-02T06:17:16Z</time></trkpt><trkpt lat="43.476687461019786" lon="11.559551042085458"><ele>262.0</ele><time>2026-05-02T06:17:17Z</time></trkpt><trkpt lat="43.4765754102854" lon="11.559448620146638"><ele>262.3333333333333</ele><time>2026-05-02T06:17:18Z</time></trkpt><trkpt lat="43.47644763796658" lon="11.55934786170015"><ele>262.6666666666667</ele><time>2026-05-02T06:17:19Z</time></trkpt><trkpt lat="43.4763125534903" lon="11.559251538756133"><ele>263.0</ele><time>2026-05-02T06:17:20Z</time></trkpt><trkpt lat="43.476173181194056" lon="11.559156788393267"><ele>263.0</ele><time>2026-05-02T06:17:21Z</time></trkpt><trkpt lat="43.47603303685637" lon="11.559058884494908"><ele>263.0</ele><time>2026-05-02T06:17:22Z</time></trkpt><trkpt lat="43.47588958037795" lon="11.558956329577256"><ele>263.0</ele><time>2026-05-02T06:17:23Z</time></trkpt><trkpt lat="43.47574527293534" lon="11.558854697601356"><ele>263.0</ele><time>2026-05-02T06:17:24Z</time></trkpt><trkpt lat="43.47559853643183" lon="11.558753004130363"><ele>263.0</ele><time>2026-05-02T06:17:25Z</time></trkpt><trkpt lat="43.47544899480097" lon="11.558647844279006"><ele>263.0</ele><time>2026-05-02T06:17:26Z</time></trkpt><trkpt lat="43.47529949774606" lon="11.558541126457445"><ele>264.6666666666667</ele><time>2026-05-02T06:17:27Z</time></trkpt><trkpt lat="43.47514496728929" lon="11.55842947057907"><ele>266.3333333333333</ele><time>2026-05-02T06:17:28Z</time></trkpt><trkpt lat="43.47498583224912" lon="11.558312010048109"><ele>268.0</ele><time>2026-05-02T06:17:29Z</time></trkpt><trkpt lat="43.474854171565816" lon="11.558229232323264"><ele>268.0</ele><time>2026-05-02T06:17:30Z</time></trkpt><trkpt lat="43.474710405950695" lon="11.55812546482087"><ele>268.0</ele><time>2026-05-02T06:17:31Z</time></trkpt><trkpt lat="43.47457040223517" lon="11.558017013335228"><ele>268.0</ele><time>2026-05-02T06:17:32Z</time></trkpt><trkpt lat="43.474414403790696" lon="11.557936885390765"><ele>269.3333333333333</ele><time>2026-05-02T06:17:33Z</time></trkpt><trkpt lat="43.474240297344224" lon="11.557908531883957"><ele>270.6666666666667</ele><time>2026-05-02T06:17:34Z</time></trkpt><trkpt lat="43.47405048518417" lon="11.557919600336488"><ele>272.0</ele><time>2026-05-02T06:17:35Z</time></trkpt><trkpt lat="43.473846407988184" lon="11.557941516451951"><ele>271.6666666666667</ele><time>2026-05-02T06:17:36Z</time></trkpt><trkpt lat="43.47364649159537" lon="11.557946091761114"><ele>271.3333333333333</ele><time>2026-05-02T06:17:37Z</time></trkpt><trkpt lat="43.4734548067423" lon="11.557947484434939"><ele>271.0</ele><time>2026-05-02T06:17:38Z</time></trkpt><trkpt lat="43.47328131811259" lon="11.557924644524082"><ele>271.0</ele><time>2026-05-02T06:17:39Z</time></trkpt><trkpt lat="43.47313268634962" lon="11.557888178596183"><ele>271.0</ele><time>2026-05-02T06:17:40Z</time></trkpt><trkpt lat="43.4730009846033" lon="11.55779600412814"><ele>271.0</ele><time>2026-05-02T06:17:41Z</time></trkpt><trkpt lat="43.472844922177245" lon="11.557694206914515"><ele>271.0</ele><time>2026-05-02T06:17:42Z</time></trkpt><trkpt lat="43.47267543534399" lon="11.557600657509933"><ele>271.0</ele><time>2026-05-02T06:17:43Z</time></trkpt><trkpt lat="43.4725057121216" lon="11.557454587520256"><ele>271.0</ele><time>2026-05-02T06:17:44Z</time></trkpt><trkpt lat="43.47232760625531" lon="11.55729713483479"><ele>271.0</ele><time>2026-05-02T06:17:45Z</time></trkpt><trkpt lat="43.47215641393499" lon="11.557115611384777"><ele>271.0</ele><time>2026-05-02T06:17:46Z</time></trkpt><trkpt lat="43.47197752463079" lon="11.5569444957465"><ele>271.0</ele><time>2026-05-02T06:17:47Z</time></trkpt><trkpt lat="43.47181111234343" lon="11.556752305225748"><ele>272.3333333333333</ele><time>2026-05-02T06:17:48Z</time></trkpt><trkpt lat="43.471634842940716" lon="11.556561531465315"><ele>273.6666666666667</ele><time>2026-05-02T06:17:49Z</time></trkpt><trkpt lat="43.47146418164669" lon="11.55636813571208"><ele>275.0</ele><time>2026-05-02T06:17:50.001Z</time></trkpt><trkpt lat="43.47128920092549" lon="11.556180152396268"><ele>275.0</ele><time>2026-05-02T06:17:51.001Z</time></trkpt><trkpt lat="43.47112132356125" lon="11.556003401050006"><ele>275.0</ele><time>2026-05-02T06:17:52.001Z</time></trkpt><trkpt lat="43.47094899854849" lon="11.555846444061205"><ele>275.0</ele><time>2026-05-02T06:17:53.001Z</time></trkpt><trkpt lat="43.47076819555033" lon="11.555734405527694"><ele>275.0</ele><time>2026-05-02T06:17:54.001Z</time></trkpt><trkpt lat="43.47058496059422" lon="11.555660362307558"><ele>275.0</ele><time>2026-05-02T06:17:55.001Z</time></trkpt><trkpt lat="43.470404464803835" lon="11.555637807899158"><ele>275.0</ele><time>2026-05-02T06:17:56.001Z</time></trkpt><trkpt lat="43.47021577187366" lon="11.555659934873285"><ele>277.0</ele><time>2026-05-02T06:17:57.001Z</time></trkpt><trkpt lat="43.47002164486476" lon="11.555706171968751"><ele>279.0</ele><time>2026-05-02T06:17:58.001Z</time></trkpt><trkpt lat="43.46982438852055" lon="11.555747057862371"><ele>281.0</ele><time>2026-05-02T06:17:59.001Z</time></trkpt><trkpt lat="43.469619302766795" lon="11.555779426378656"><ele>282.6666666666667</ele><time>2026-05-02T06:18:00.001Z</time></trkpt><trkpt lat="43.469414640681315" lon="11.555809253180229"><ele>284.3333333333333</ele><time>2026-05-02T06:18:01.001Z</time></trkpt><trkpt lat="43.469205478545334" lon="11.555852596143295"><ele>286.0</ele><time>2026-05-02T06:18:02.001Z</time></trkpt><trkpt lat="43.468995276025105" lon="11.55591771356548"><ele>286.0</ele><time>2026-05-02T06:18:03.001Z</time></trkpt><trkpt lat="43.46878251400862" lon="11.555991099389718"><ele>286.0</ele><time>2026-05-02T06:18:04.001Z</time></trkpt><trkpt lat="43.46856369220399" lon="11.55606366481882"><ele>286.0</ele><time>2026-05-02T06:18:05.001Z</time></trkpt><trkpt lat="43.468336859128314" lon="11.556138330553093"><ele>285.0</ele><time>2026-05-02T06:18:06.001Z</time></trkpt><trkpt lat="43.46810580442392" lon="11.556214151010204"><ele>284.0</ele><time>2026-05-02T06:18:07.001Z</time></trkpt><trkpt lat="43.46788010446404" lon="11.556288858347445"><ele>284.0</ele><time>2026-05-02T06:18:08.001Z</time></trkpt><trkpt lat="43.46765380874023" lon="11.556356643879234"><ele>284.0</ele><time>2026-05-02T06:18:09.001Z</time></trkpt><trkpt lat="43.46743496341092" lon="11.556417653929145"><ele>284.0</ele><time>2026-05-02T06:18:10.001Z</time></trkpt><trkpt lat="43.467232746240164" lon="11.556498064589599"><ele>284.0</ele><time>2026-05-02T06:18:11.001Z</time></trkpt><trkpt lat="43.46705169856712" lon="11.556563621931675"><ele>284.0</ele><time>2026-05-02T06:18:12.001Z</time></trkpt><trkpt lat="43.46687462617726" lon="11.556609439957704"><ele>284.33333333333337</ele><time>2026-05-02T06:18:13.001Z</time></trkpt><trkpt lat="43.46670454594961" lon="11.556576994140988"><ele>284.6666666666667</ele><time>2026-05-02T06:18:14.001Z</time></trkpt><trkpt lat="43.46653236907776" lon="11.556540659299666"><ele>285.0</ele><time>2026-05-02T06:18:15.001Z</time></trkpt><trkpt lat="43.46636096883218" lon="11.556477719274787"><ele>285.6666666666667</ele><time>2026-05-02T06:18:16.001Z</time></trkpt><trkpt lat="43.46619645840019" lon="11.556386084673262"><ele>286.33333333333337</ele><time>2026-05-02T06:18:17.001Z</time></trkpt><trkpt lat="43.46603163487118" lon="11.556271730416283"><ele>287.0</ele><time>2026-05-02T06:18:18.001Z</time></trkpt><trkpt lat="43.46585512563172" lon="11.556169693552537"><ele>290.33333333333337</ele><time>2026-05-02T06:18:19.001Z</time></trkpt><trkpt lat="43.465681314116196" lon="11.556051750461133"><ele>293.6666666666667</ele><time>2026-05-02T06:18:20.001Z</time></trkpt><trkpt lat="43.46550073144168" lon="11.55594403007145"><ele>297.0</ele><time>2026-05-02T06:18:21.001Z</time></trkpt><trkpt lat="43.46531786057166" lon="11.555845377530236"><ele>297.0</ele><time>2026-05-02T06:18:22.001Z</time></trkpt><trkpt lat="43.465143838364526" lon="11.555763170274567"><ele>297.0</ele><time>2026-05-02T06:18:23.001Z</time></trkpt><trkpt lat="43.46498315480043" lon="11.555707554569711"><ele>297.0</ele><time>2026-05-02T06:18:24Z</time></trkpt><trkpt lat="43.46482949245779" lon="11.55569930289373"><ele>297.0</ele><time>2026-05-02T06:18:25Z</time></trkpt><trkpt lat="43.46467020470535" lon="11.55574064650981"><ele>297.0</ele><time>2026-05-02T06:18:26Z</time></trkpt><trkpt lat="43.46450973448328" lon="11.555814615142145"><ele>297.0</ele><time>2026-05-02T06:18:27Z</time></trkpt><trkpt lat="43.46434884153875" lon="11.555874781310026"><ele>296.3333333333333</ele><time>2026-05-02T06:18:28Z</time></trkpt><trkpt lat="43.464191000902986" lon="11.555889053686473"><ele>295.66666666666663</ele><time>2026-05-02T06:18:29Z</time></trkpt><trkpt lat="43.464041594143644" lon="11.555888520604789"><ele>295.0</ele><time>2026-05-02T06:18:30Z</time></trkpt><trkpt lat="43.463895455937404" lon="11.555856880578721"><ele>296.3333333333333</ele><time>2026-05-02T06:18:31Z</time></trkpt><trkpt lat="43.463749840152126" lon="11.55582186511954"><ele>297.6666666666667</ele><time>2026-05-02T06:18:32Z</time></trkpt><trkpt lat="43.46360017131327" lon="11.555781878759767"><ele>299.0</ele><time>2026-05-02T06:18:33Z</time></trkpt><trkpt lat="43.46344167857453" lon="11.555756756730812"><ele>299.0</ele><time>2026-05-02T06:18:34Z</time></trkpt><trkpt lat="43.46328200206091" lon="11.555706650921914"><ele>299.0</ele><time>2026-05-02T06:18:35Z</time></trkpt><trkpt lat="43.46311877518869" lon="11.555679434643519"><ele>299.0</ele><time>2026-05-02T06:18:36Z</time></trkpt><trkpt lat="43.462961318257165" lon="11.555679306445423"><ele>299.75</ele><time>2026-05-02T06:18:37Z</time></trkpt><trkpt lat="43.462805884214596" lon="11.555705282313962"><ele>300.5</ele><time>2026-05-02T06:18:38Z</time></trkpt><trkpt lat="43.46265983319582" lon="11.555697905630007"><ele>301.25</ele><time>2026-05-02T06:18:39Z</time></trkpt><trkpt lat="43.46253090327103" lon="11.555655525911543"><ele>302.0</ele><time>2026-05-02T06:18:40Z</time></trkpt><trkpt lat="43.46239535793956" lon="11.555573531641384"><ele>302.0</ele><time>2026-05-02T06:18:41Z</time></trkpt><trkpt lat="43.46225386885743" lon="11.555474710513916"><ele>302.0</ele><time>2026-05-02T06:18:42Z</time></trkpt><trkpt lat="43.46211112398629" lon="11.555374146683388"><ele>302.0</ele><time>2026-05-02T06:18:43Z</time></trkpt><trkpt lat="43.46198364425591" lon="11.555242717613627"><ele>304.33333333333337</ele><time>2026-05-02T06:18:44Z</time></trkpt><trkpt lat="43.46187395504654" lon="11.55506572981719"><ele>306.6666666666667</ele><time>2026-05-02T06:18:45Z</time></trkpt><trkpt lat="43.461750493165106" lon="11.55489396844293"><ele>309.0</ele><time>2026-05-02T06:18:46Z</time></trkpt><trkpt lat="43.461601740210355" lon="11.554750787112068"><ele>309.0</ele><time>2026-05-02T06:18:47Z</time></trkpt><trkpt lat="43.461443918245855" lon="11.55460736450792"><ele>309.0</ele><time>2026-05-02T06:18:48Z</time></trkpt><trkpt lat="43.46130438380309" lon="11.554430736570724"><ele>309.0</ele><time>2026-05-02T06:18:49Z</time></trkpt><trkpt lat="43.46116206764971" lon="11.554240147852461"><ele>310.3333333333333</ele><time>2026-05-02T06:18:50Z</time></trkpt><trkpt lat="43.46101030166745" lon="11.554071960847365"><ele>311.66666666666663</ele><time>2026-05-02T06:18:51Z</time></trkpt><trkpt lat="43.46087936881131" lon="11.553907429701797"><ele>313.0</ele><time>2026-05-02T06:18:52Z</time></trkpt><trkpt lat="43.460786489846136" lon="11.553730427017676"><ele>315.0</ele><time>2026-05-02T06:18:53Z</time></trkpt><trkpt lat="43.46072328562908" lon="11.55355768978537"><ele>317.0</ele><time>2026-05-02T06:18:54Z</time></trkpt><trkpt lat="43.460697058576656" lon="11.553360449640877"><ele>319.0</ele><time>2026-05-02T06:18:55Z</time></trkpt><trkpt lat="43.46067573186682" lon="11.553143851379929"><ele>321.0</ele><time>2026-05-02T06:18:56Z</time></trkpt><trkpt lat="43.460670572532166" lon="11.552915635572388"><ele>319.6666666666667</ele><time>2026-05-02T06:18:57Z</time></trkpt><trkpt lat="43.46061254554251" lon="11.552696529911183"><ele>318.33333333333337</ele><time>2026-05-02T06:18:58Z</time></trkpt><trkpt lat="43.46050774184135" lon="11.552510808378008"><ele>317.0</ele><time>2026-05-02T06:18:59Z</time></trkpt><trkpt lat="43.46035967189254" lon="11.552386821224855"><ele>317.0</ele><time>2026-05-02T06:19:00Z</time></trkpt><trkpt lat="43.46020392980528" lon="11.5522543808969"><ele>317.0</ele><time>2026-05-02T06:19:01Z</time></trkpt><trkpt lat="43.46008187495111" lon="11.55206020739159"><ele>317.0</ele><time>2026-05-02T06:19:02Z</time></trkpt><trkpt lat="43.459923830876676" lon="11.551930198002147"><ele>317.6666666666667</ele><time>2026-05-02T06:19:03Z</time></trkpt><trkpt lat="43.459760779561506" lon="11.55185120779767"><ele>318.3333333333333</ele><time>2026-05-02T06:19:04Z</time></trkpt><trkpt lat="43.45962024748206" lon="11.551759087770808"><ele>319.0</ele><time>2026-05-02T06:19:05Z</time></trkpt><trkpt lat="43.459522164519576" lon="11.551625985631176"><ele>319.0</ele><time>2026-05-02T06:19:06Z</time></trkpt><trkpt lat="43.45942204277004" lon="11.551469847233268"><ele>319.0</ele><time>2026-05-02T06:19:07Z</time></trkpt><trkpt lat="43.45930843125227" lon="11.55132024972511"><ele>319.0</ele><time>2026-05-02T06:19:08Z</time></trkpt><trkpt lat="43.459210264462946" lon="11.551182759993363"><ele>319.0</ele><time>2026-05-02T06:19:09Z</time></trkpt><trkpt lat="43.45909885911408" lon="11.551100421570919"><ele>319.3333333333333</ele><time>2026-05-02T06:19:10Z</time></trkpt><trkpt lat="43.45896125896584" lon="11.551093379953272"><ele>319.6666666666667</ele><time>2026-05-02T06:19:11Z</time></trkpt><trkpt lat="43.4588093417288" lon="11.551131432031616"><ele>320.0</ele><time>2026-05-02T06:19:12Z</time></trkpt><trkpt lat="43.4586471643681" lon="11.55113215538662"><ele>324.33333333333337</ele><time>2026-05-02T06:19:13Z</time></trkpt><trkpt lat="43.45850014154789" lon="11.55110280286516"><ele>328.6666666666667</ele><time>2026-05-02T06:19:14Z</time></trkpt><trkpt lat="43.45835103294151" lon="11.55103564509549"><ele>333.0</ele><time>2026-05-02T06:19:15Z</time></trkpt><trkpt lat="43.45819932416406" lon="11.550950325711998"><ele>333.0</ele><time>2026-05-02T06:19:16Z</time></trkpt><trkpt lat="43.458045658220655" lon="11.550882302506233"><ele>333.0</ele><time>2026-05-02T06:19:17Z</time></trkpt><trkpt lat="43.45790247967781" lon="11.550822795401917"><ele>333.0</ele><time>2026-05-02T06:19:18Z</time></trkpt><trkpt lat="43.45777246393274" lon="11.5507645361503"><ele>333.0</ele><time>2026-05-02T06:19:19Z</time></trkpt><trkpt lat="43.45765916431002" lon="11.550709661572391"><ele>333.4</ele><time>2026-05-02T06:19:20Z</time></trkpt><trkpt lat="43.457581608607086" lon="11.550625421464545"><ele>333.79999999999995</ele><time>2026-05-02T06:19:21Z</time></trkpt><trkpt lat="43.45750416373685" lon="11.550519360971242"><ele>334.2</ele><time>2026-05-02T06:19:22Z</time></trkpt><trkpt lat="43.45742198537394" lon="11.550416546821795"><ele>334.6</ele><time>2026-05-02T06:19:23Z</time></trkpt><trkpt lat="43.45736681378767" lon="11.550287810561757"><ele>335.0</ele><time>2026-05-02T06:19:24Z</time></trkpt><trkpt lat="43.457362666064" lon="11.550129458223601"><ele>336.0</ele><time>2026-05-02T06:19:25Z</time></trkpt><trkpt lat="43.457304576182416" lon="11.549991534818284"><ele>337.0</ele><time>2026-05-02T06:19:26Z</time></trkpt><trkpt lat="43.45719629269055" lon="11.549875241635428"><ele>338.0</ele><time>2026-05-02T06:19:27Z</time></trkpt><trkpt lat="43.457054926316935" lon="11.549795126098894"><ele>339.0</ele><time>2026-05-02T06:19:28Z</time></trkpt><trkpt lat="43.45691762864771" lon="11.549701852704668"><ele>339.0</ele><time>2026-05-02T06:19:29Z</time></trkpt><trkpt lat="43.456793690798705" lon="11.549587585226757"><ele>339.0</ele><time>2026-05-02T06:19:30Z</time></trkpt><trkpt lat="43.456673858899215" lon="11.54946112765061"><ele>339.0</ele><time>2026-05-02T06:19:31Z</time></trkpt><trkpt lat="43.45654276969883" lon="11.549361268134273"><ele>340.5</ele><time>2026-05-02T06:19:32Z</time></trkpt><trkpt lat="43.456408842786985" lon="11.549256880223012"><ele>342.0</ele><time>2026-05-02T06:19:33Z</time></trkpt><trkpt lat="43.456278561770205" lon="11.549153861490108"><ele>343.5</ele><time>2026-05-02T06:19:34Z</time></trkpt><trkpt lat="43.45617383918166" lon="11.549019349903121"><ele>345.0</ele><time>2026-05-02T06:19:35Z</time></trkpt><trkpt lat="43.45608123596441" lon="11.548878062393452"><ele>345.0</ele><time>2026-05-02T06:19:36Z</time></trkpt><trkpt lat="43.45599061190118" lon="11.548723743413985"><ele>345.0</ele><time>2026-05-02T06:19:37Z</time></trkpt><trkpt lat="43.45588745478806" lon="11.548583699842686"><ele>345.0</ele><time>2026-05-02T06:19:38Z</time></trkpt><trkpt lat="43.45578489352848" lon="11.548438260231379"><ele>345.0</ele><time>2026-05-02T06:19:39Z</time></trkpt><trkpt lat="43.45569334202831" lon="11.548285190141646"><ele>349.0</ele><time>2026-05-02T06:19:40Z</time></trkpt><trkpt lat="43.4555903112736" lon="11.5481373921088"><ele>353.0</ele><time>2026-05-02T06:19:41Z</time></trkpt><trkpt lat="43.45547589227025" lon="11.548004575901828"><ele>357.0</ele><time>2026-05-02T06:19:42Z</time></trkpt><trkpt lat="43.455336603390734" lon="11.547917817792731"><ele>363.0</ele><time>2026-05-02T06:19:43Z</time></trkpt><trkpt lat="43.45521477305841" lon="11.547792262169343"><ele>369.0</ele><time>2026-05-02T06:19:44Z</time></trkpt><trkpt lat="43.455095959967444" lon="11.547682116491282"><ele>375.0</ele><time>2026-05-02T06:19:45Z</time></trkpt><trkpt lat="43.45500226034624" lon="11.547556113386822"><ele>381.0</ele><time>2026-05-02T06:19:46Z</time></trkpt><trkpt lat="43.45493418356959" lon="11.54741366177551"><ele>381.0</ele><time>2026-05-02T06:19:47Z</time></trkpt><trkpt lat="43.45486834319433" lon="11.547256440808207"><ele>381.0</ele><time>2026-05-02T06:19:48Z</time></trkpt><trkpt lat="43.45474486630403" lon="11.547164898052072"><ele>381.0</ele><time>2026-05-02T06:19:49Z</time></trkpt><trkpt lat="43.454617160448834" lon="11.547088248987881"><ele>381.0</ele><time>2026-05-02T06:19:50Z</time></trkpt><trkpt lat="43.45451222390999" lon="11.54697779826235"><ele>382.75</ele><time>2026-05-02T06:19:51Z</time></trkpt><trkpt lat="43.45446246895789" lon="11.546841368928849"><ele>384.5</ele><time>2026-05-02T06:19:52Z</time></trkpt><trkpt lat="43.454456597541096" lon="11.546672420854684"><ele>386.25</ele><time>2026-05-02T06:19:53Z</time></trkpt><trkpt lat="43.45440546130321" lon="11.546495819046477"><ele>388.0</ele><time>2026-05-02T06:19:54Z</time></trkpt><trkpt lat="43.45432531577672" lon="11.546360173954072"><ele>388.0</ele><time>2026-05-02T06:19:55Z</time></trkpt><trkpt lat="43.454170564460746" lon="11.546321889868096"><ele>388.0</ele><time>2026-05-02T06:19:56Z</time></trkpt><trkpt lat="43.454061985239285" lon="11.546199039704797"><ele>388.0</ele><time>2026-05-02T06:19:57Z</time></trkpt><trkpt lat="43.453998610644" lon="11.546027735673954"><ele>388.0</ele><time>2026-05-02T06:19:58Z</time></trkpt><trkpt lat="43.453914714813806" lon="11.545858883480326"><ele>393.25</ele><time>2026-05-02T06:19:59Z</time></trkpt><trkpt lat="43.45383438520315" lon="11.545687989047696"><ele>398.5</ele><time>2026-05-02T06:20:00Z</time></trkpt><trkpt lat="43.45376270247878" lon="11.545515511390896"><ele>403.75</ele><time>2026-05-02T06:20:01Z</time></trkpt><trkpt lat="43.45368089292951" lon="11.545349751798023"><ele>409.0</ele><time>2026-05-02T06:20:02Z</time></trkpt><trkpt lat="43.45362595804859" lon="11.54517409855853"><ele>412.5</ele><time>2026-05-02T06:20:03Z</time></trkpt><trkpt lat="43.45355757437485" lon="11.54501417071411"><ele>416.0</ele><time>2026-05-02T06:20:04Z</time></trkpt><trkpt lat="43.453495339691266" lon="11.544854794654078"><ele>419.5</ele><time>2026-05-02T06:20:05Z</time></trkpt><trkpt lat="43.453431073114515" lon="11.544704361017512"><ele>423.0</ele><time>2026-05-02T06:20:06Z</time></trkpt><trkpt lat="43.453387665885025" lon="11.544571564440554"><ele>423.0</ele><time>2026-05-02T06:20:07Z</time></trkpt><trkpt lat="43.45332744596938" lon="11.544491723772246"><ele>423.0</ele><time>2026-05-02T06:20:08Z</time></trkpt><trkpt lat="43.453257892568274" lon="11.544422589283872"><ele>423.0</ele><time>2026-05-02T06:20:09Z</time></trkpt><trkpt lat="43.453162051286164" lon="11.544479856422877"><ele>423.0</ele><time>2026-05-02T06:20:10Z</time></trkpt><trkpt lat="43.453092823712616" lon="11.5446258723225"><ele>423.0</ele><time>2026-05-02T06:20:11Z</time></trkpt><trkpt lat="43.45305973036216" lon="11.544817318547441"><ele>423.0</ele><time>2026-05-02T06:20:12Z</time></trkpt><trkpt lat="43.45302123972878" lon="11.545040004863353"><ele>423.0</ele><time>2026-05-02T06:20:13Z</time></trkpt><trkpt lat="43.45298274527496" lon="11.545261476227884"><ele>423.0</ele><time>2026-05-02T06:20:14Z</time></trkpt><trkpt lat="43.45294494563167" lon="11.545448050763632"><ele>424.79999999999995</ele><time>2026-05-02T06:20:15Z</time></trkpt><trkpt lat="43.452912924684796" lon="11.545609506388598"><ele>426.6</ele><time>2026-05-02T06:20:16Z</time></trkpt><trkpt lat="43.45286596209409" lon="11.545721744280048"><ele>428.40000000000003</ele><time>2026-05-02T06:20:17Z</time></trkpt><trkpt lat="43.45277437246762" lon="11.545764939962538"><ele>430.20000000000005</ele><time>2026-05-02T06:20:18Z</time></trkpt><trkpt lat="43.45267252802936" lon="11.545794207440514"><ele>432.0</ele><time>2026-05-02T06:20:19Z</time></trkpt><trkpt lat="43.452560016671335" lon="11.54579381576897"><ele>432.0</ele><time>2026-05-02T06:20:20Z</time></trkpt><trkpt lat="43.45246107599918" lon="11.545729699614023"><ele>432.0</ele><time>2026-05-02T06:20:21Z</time></trkpt><trkpt lat="43.45232797266745" lon="11.54565483454588"><ele>432.0</ele><time>2026-05-02T06:20:22Z</time></trkpt><trkpt lat="43.452192818437055" lon="11.545670234188732"><ele>432.0</ele><time>2026-05-02T06:20:23Z</time></trkpt><trkpt lat="43.45206843204577" lon="11.545783246050702"><ele>434.25</ele><time>2026-05-02T06:20:24Z</time></trkpt><trkpt lat="43.45196944955689" lon="11.54587412560666"><ele>436.5</ele><time>2026-05-02T06:20:25Z</time></trkpt><trkpt lat="43.45185811302001" lon="11.545934670286156"><ele>438.75</ele><time>2026-05-02T06:20:26Z</time></trkpt><trkpt lat="43.451751135542565" lon="11.545909240540858"><ele>441.0</ele><time>2026-05-02T06:20:27Z</time></trkpt><trkpt lat="43.45164239311306" lon="11.545862492690802"><ele>441.0</ele><time>2026-05-02T06:20:28Z</time></trkpt><trkpt lat="43.45152685646474" lon="11.545781529489933"><ele>441.0</ele><time>2026-05-02T06:20:29Z</time></trkpt><trkpt lat="43.45148366671498" lon="11.5456997157515"><ele>441.0</ele><time>2026-05-02T06:20:30Z</time></trkpt><trkpt lat="43.451471697607005" lon="11.545612874350663"><ele>441.0</ele><time>2026-05-02T06:20:31Z</time></trkpt><trkpt lat="43.45154923713488" lon="11.545615847983159"><ele>441.0</ele><time>2026-05-02T06:20:32Z</time></trkpt><trkpt lat="43.451621659058105" lon="11.545618418396876"><ele>441.0</ele><time>2026-05-02T06:20:33Z</time></trkpt><trkpt lat="43.451746873305154" lon="11.54565169206702"><ele>441.0</ele><time>2026-05-02T06:20:34Z</time></trkpt><trkpt lat="43.45187996944991" lon="11.545633029238775"><ele>441.0</ele><time>2026-05-02T06:20:35Z</time></trkpt><trkpt lat="43.45198167515344" lon="11.545532095411996"><ele>441.0</ele><time>2026-05-02T06:20:36Z</time></trkpt><trkpt lat="43.45204756480477" lon="11.545383401618443"><ele>441.0</ele><time>2026-05-02T06:20:37Z</time></trkpt><trkpt lat="43.4520935932345" lon="11.54520888914445"><ele>443.6</ele><time>2026-05-02T06:20:38Z</time></trkpt><trkpt lat="43.45216064127571" lon="11.545081308352875"><ele>446.20000000000005</ele><time>2026-05-02T06:20:39Z</time></trkpt><trkpt lat="43.45227272323605" lon="11.545069992296101"><ele>448.79999999999995</ele><time>2026-05-02T06:20:40Z</time></trkpt><trkpt lat="43.45239091694082" lon="11.545042615659307"><ele>451.4</ele><time>2026-05-02T06:20:41Z</time></trkpt><trkpt lat="43.4524887383627" lon="11.545032102538137"><ele>454.0</ele><time>2026-05-02T06:20:42Z</time></trkpt><trkpt lat="43.45253798834586" lon="11.54495400747281"><ele>454.0</ele><time>2026-05-02T06:20:43Z</time></trkpt><trkpt lat="43.45252476684115" lon="11.54483684039238"><ele>454.0</ele><time>2026-05-02T06:20:44Z</time></trkpt><trkpt lat="43.45244262076446" lon="11.544754649812045"><ele>454.0</ele><time>2026-05-02T06:20:45Z</time></trkpt><trkpt lat="43.45232712289191" lon="11.544753256232429"><ele>454.0</ele><time>2026-05-02T06:20:46Z</time></trkpt><trkpt lat="43.45219392678447" lon="11.544782861479371"><ele>454.0</ele><time>2026-05-02T06:20:47Z</time></trkpt><trkpt lat="43.45205732794604" lon="11.544805820876537"><ele>456.75</ele><time>2026-05-02T06:20:48Z</time></trkpt><trkpt lat="43.45193152984152" lon="11.544862849163847"><ele>459.5</ele><time>2026-05-02T06:20:49Z</time></trkpt><trkpt lat="43.45182902738513" lon="11.54496583867053"><ele>462.25</ele><time>2026-05-02T06:20:50Z</time></trkpt><trkpt lat="43.4517116617264" lon="11.545036654794286"><ele>465.0</ele><time>2026-05-02T06:20:51Z</time></trkpt><trkpt lat="43.45161822915129" lon="11.545016866749622"><ele>465.0</ele><time>2026-05-02T06:20:52Z</time></trkpt><trkpt lat="43.45154988317182" lon="11.544977554934045"><ele>465.0</ele><time>2026-05-02T06:20:53Z</time></trkpt><trkpt lat="43.45152353469657" lon="11.544875904289796"><ele>465.0</ele><time>2026-05-02T06:20:54Z</time></trkpt><trkpt lat="43.45153462267497" lon="11.54477538875638"><ele>465.0</ele><time>2026-05-02T06:20:55Z</time></trkpt><trkpt lat="43.45162169340687" lon="11.544672210374205"><ele>465.0</ele><time>2026-05-02T06:20:56Z</time></trkpt><trkpt lat="43.451725527824124" lon="11.544573563129832"><ele>464.5</ele><time>2026-05-02T06:20:57Z</time></trkpt><trkpt lat="43.451865545525024" lon="11.544487291145805"><ele>464.0</ele><time>2026-05-02T06:20:58Z</time></trkpt><trkpt lat="43.451985372542" lon="11.544408621575759"><ele>463.5</ele><time>2026-05-02T06:20:59Z</time></trkpt><trkpt lat="43.45210890260673" lon="11.54429153112507"><ele>463.0</ele><time>2026-05-02T06:21:00Z</time></trkpt><trkpt lat="43.452176118852464" lon="11.544157042374495"><ele>463.0</ele><time>2026-05-02T06:21:01Z</time></trkpt><trkpt lat="43.452186855549144" lon="11.543988483640302"><ele>463.0</ele><time>2026-05-02T06:21:02Z</time></trkpt><trkpt lat="43.45217641239294" lon="11.543797905286297"><ele>463.0</ele><time>2026-05-02T06:21:03Z</time></trkpt><trkpt lat="43.452152638236775" lon="11.543604995903243"><ele>463.0</ele><time>2026-05-02T06:21:04Z</time></trkpt><trkpt lat="43.45209739844117" lon="11.543423271148686"><ele>473.75</ele><time>2026-05-02T06:21:05Z</time></trkpt><trkpt lat="43.45201534832687" lon="11.543246785592972"><ele>484.5</ele><time>2026-05-02T06:21:06Z</time></trkpt><trkpt lat="43.45196596987404" lon="11.543059922074981"><ele>495.25</ele><time>2026-05-02T06:21:07Z</time></trkpt><trkpt lat="43.45194129520022" lon="11.542898557878143"><ele>506.0</ele><time>2026-05-02T06:21:08Z</time></trkpt><trkpt lat="43.45194341485984" lon="11.542770079149332"><ele>508.25</ele><time>2026-05-02T06:21:09Z</time></trkpt><trkpt lat="43.45202510575776" lon="11.54266279888175"><ele>510.5</ele><time>2026-05-02T06:21:10Z</time></trkpt><trkpt lat="43.45210839195384" lon="11.542533620832966"><ele>512.75</ele><time>2026-05-02T06:21:11Z</time></trkpt><trkpt lat="43.45221888390935" lon="11.542394755004459"><ele>515.0</ele><time>2026-05-02T06:21:12Z</time></trkpt><trkpt lat="43.45229501734544" lon="11.542194450415202"><ele>513.75</ele><time>2026-05-02T06:21:13Z</time></trkpt><trkpt lat="43.45233671097555" lon="11.541991251222418"><ele>512.5</ele><time>2026-05-02T06:21:14Z</time></trkpt><trkpt lat="43.4523601667537" lon="11.541797244528137"><ele>511.25</ele><time>2026-05-02T06:21:15Z</time></trkpt><trkpt lat="43.45242756704131" lon="11.541655065049914"><ele>510.0</ele><time>2026-05-02T06:21:16Z</time></trkpt><trkpt lat="43.45250203316312" lon="11.541517666985834"><ele>510.0</ele><time>2026-05-02T06:21:17Z</time></trkpt><trkpt lat="43.45259122458572" lon="11.541417980212989"><ele>510.0</ele><time>2026-05-02T06:21:18Z</time></trkpt><trkpt lat="43.45268572781307" lon="11.54137736643542"><ele>510.0</ele><time>2026-05-02T06:21:19Z</time></trkpt><trkpt lat="43.452797624268776" lon="11.541411388914206"><ele>510.0</ele><time>2026-05-02T06:21:20Z</time></trkpt><trkpt lat="43.452921393811565" lon="11.541499378266968"><ele>509.25</ele><time>2026-05-02T06:21:21Z</time></trkpt><trkpt lat="43.453060486244894" lon="11.541597860149293"><ele>508.5</ele><time>2026-05-02T06:21:22Z</time></trkpt><trkpt lat="43.45319682150641" lon="11.541654260964856"><ele>507.75</ele><time>2026-05-02T06:21:23Z</time></trkpt><trkpt lat="43.453319532851246" lon="11.541646225808387"><ele>507.0</ele><time>2026-05-02T06:21:24Z</time></trkpt><trkpt lat="43.45341110192499" lon="11.541605929743216"><ele>507.0</ele><time>2026-05-02T06:21:25Z</time></trkpt><trkpt lat="43.453464634263696" lon="11.54152413768828"><ele>507.00000000000006</ele><time>2026-05-02T06:21:26Z</time></trkpt><trkpt lat="43.453466294830044" lon="11.541405384653228"><ele>507.00000000000006</ele><time>2026-05-02T06:21:27Z</time></trkpt><trkpt lat="43.45340731797002" lon="11.541287297048564"><ele>507.0</ele><time>2026-05-02T06:21:28Z</time></trkpt><trkpt lat="43.45330699004202" lon="11.541179970645832"><ele>507.0</ele><time>2026-05-02T06:21:29Z</time></trkpt><trkpt lat="43.453189623113424" lon="11.541062879553433"><ele>509.0</ele><time>2026-05-02T06:21:30Z</time></trkpt><trkpt lat="43.45309082402846" lon="11.540884863791597"><ele>511.0</ele><time>2026-05-02T06:21:31Z</time></trkpt><trkpt lat="43.45300490456054" lon="11.54070924010692"><ele>513.0</ele><time>2026-05-02T06:21:32Z</time></trkpt><trkpt lat="43.45294513366567" lon="11.540513313082442"><ele>519.4</ele><time>2026-05-02T06:21:33Z</time></trkpt><trkpt lat="43.45285615286583" lon="11.540368843267178"><ele>525.8</ele><time>2026-05-02T06:21:34Z</time></trkpt><trkpt lat="43.45279086428321" lon="11.54022892578122"><ele>532.2</ele><time>2026-05-02T06:21:35Z</time></trkpt><trkpt lat="43.452741894439775" lon="11.540117193309667"><ele>538.6</ele><time>2026-05-02T06:21:36Z</time></trkpt><trkpt lat="43.45275000726891" lon="11.540027715665195"><ele>545.0</ele><time>2026-05-02T06:21:37Z</time></trkpt><trkpt lat="43.45281337954383" lon="11.539885730394685"><ele>545.0</ele><time>2026-05-02T06:21:38Z</time></trkpt><trkpt lat="43.452866283938995" lon="11.539719856913125"><ele>545.0</ele><time>2026-05-02T06:21:39Z</time></trkpt><trkpt lat="43.4529131069465" lon="11.539554811233335"><ele>545.0</ele><time>2026-05-02T06:21:39.999Z</time></trkpt><trkpt lat="43.4529379740353" lon="11.539377547164259"><ele>545.0</ele><time>2026-05-02T06:21:40.999Z</time></trkpt><trkpt lat="43.45296255841839" lon="11.539208359926334"><ele>547.0</ele><time>2026-05-02T06:21:41.999Z</time></trkpt><trkpt lat="43.45296096263216" lon="11.539033269260795"><ele>549.0</ele><time>2026-05-02T06:21:42.999Z</time></trkpt><trkpt lat="43.45292684624193" lon="11.538848928473511"><ele>551.0</ele><time>2026-05-02T06:21:43.999Z</time></trkpt><trkpt lat="43.452861268703344" lon="11.538644976909886"><ele>553.0</ele><time>2026-05-02T06:21:44.999Z</time></trkpt><trkpt lat="43.45281572578106" lon="11.538451477813751"><ele>554.0</ele><time>2026-05-02T06:21:45.999Z</time></trkpt><trkpt lat="43.45275527078981" lon="11.538291402710659"><ele>555.0</ele><time>2026-05-02T06:21:46.999Z</time></trkpt><trkpt lat="43.45263213699785" lon="11.53816471824229"><ele>556.0</ele><time>2026-05-02T06:21:47.999Z</time></trkpt><trkpt lat="43.45251514106597" lon="11.538023691232516"><ele>557.0</ele><time>2026-05-02T06:21:48.999Z</time></trkpt><trkpt lat="43.45243626604556" lon="11.537873729533095"><ele>557.2</ele><time>2026-05-02T06:21:49.999Z</time></trkpt><trkpt lat="43.45240898677721" lon="11.537732655810016"><ele>557.4000000000001</ele><time>2026-05-02T06:21:50.999Z</time></trkpt><trkpt lat="43.45244095344832" lon="11.537616411677549"><ele>557.5999999999999</ele><time>2026-05-02T06:21:51.999Z</time></trkpt><trkpt lat="43.45248633459277" lon="11.53746902422526"><ele>557.8</ele><time>2026-05-02T06:21:52.999Z</time></trkpt><trkpt lat="43.4525330709633" lon="11.53731559545816"><ele>558.0</ele><time>2026-05-02T06:21:53.999Z</time></trkpt><trkpt lat="43.452506413182846" lon="11.537150421473871"><ele>558.3333333333334</ele><time>2026-05-02T06:21:54.999Z</time></trkpt><trkpt lat="43.452436827573706" lon="11.536973558262893"><ele>558.6666666666667</ele><time>2026-05-02T06:21:55.999Z</time></trkpt><trkpt lat="43.45237955692763" lon="11.536781245855629"><ele>559.0</ele><time>2026-05-02T06:21:56.999Z</time></trkpt><trkpt lat="43.452373558253164" lon="11.536567622362044"><ele>559.0</ele><time>2026-05-02T06:21:57.999Z</time></trkpt><trkpt lat="43.45230050355274" lon="11.536380435517144"><ele>559.0</ele><time>2026-05-02T06:21:58.999Z</time></trkpt><trkpt lat="43.4522043361942" lon="11.536185411537748"><ele>559.0</ele><time>2026-05-02T06:21:59.999Z</time></trkpt><trkpt lat="43.45208538661485" lon="11.5359742045831"><ele>563.3333333333334</ele><time>2026-05-02T06:22:00.999Z</time></trkpt><trkpt lat="43.45197844460928" lon="11.535736355130169"><ele>567.6666666666666</ele><time>2026-05-02T06:22:02Z</time></trkpt><trkpt lat="43.451896510759696" lon="11.535525224643338"><ele>572.0</ele><time>2026-05-02T06:22:03Z</time></trkpt><trkpt lat="43.45183269381939" lon="11.535357574048845"><ele>572.2</ele><time>2026-05-02T06:22:04Z</time></trkpt><trkpt lat="43.451803944858256" lon="11.535205802524281"><ele>572.4000000000001</ele><time>2026-05-02T06:22:05Z</time></trkpt><trkpt lat="43.45178288469277" lon="11.53506705341515"><ele>572.5999999999999</ele><time>2026-05-02T06:22:06Z</time></trkpt><trkpt lat="43.451787264047496" lon="11.53492271297633"><ele>572.8</ele><time>2026-05-02T06:22:07Z</time></trkpt><trkpt lat="43.451859451813434" lon="11.53478053632304"><ele>573.0</ele><time>2026-05-02T06:22:08Z</time></trkpt><trkpt lat="43.45197578000127" lon="11.534713821837405"><ele>573.0</ele><time>2026-05-02T06:22:09Z</time></trkpt><trkpt lat="43.452095691723414" lon="11.534638784029"><ele>573.0</ele><time>2026-05-02T06:22:10Z</time></trkpt><trkpt lat="43.45221692773749" lon="11.534597193393756"><ele>573.0</ele><time>2026-05-02T06:22:11Z</time></trkpt><trkpt lat="43.452292426934505" lon="11.534494124541954"><ele>573.0</ele><time>2026-05-02T06:22:12Z</time></trkpt><trkpt lat="43.45233736079018" lon="11.53434479448955"><ele>570.75</ele><time>2026-05-02T06:22:13Z</time></trkpt><trkpt lat="43.45234847957955" lon="11.534191828769721"><ele>568.5</ele><time>2026-05-02T06:22:14Z</time></trkpt><trkpt lat="43.45232767980439" lon="11.534033050436046"><ele>566.25</ele><time>2026-05-02T06:22:15Z</time></trkpt><trkpt lat="43.45227330740859" lon="11.533898576462674"><ele>564.0</ele><time>2026-05-02T06:22:16Z</time></trkpt><trkpt lat="43.45218348491714" lon="11.533772170237379"><ele>565.0</ele><time>2026-05-02T06:22:17Z</time></trkpt><trkpt lat="43.452103508306934" lon="11.533612774595099"><ele>566.0</ele><time>2026-05-02T06:22:18Z</time></trkpt><trkpt lat="43.45199495021141" lon="11.53347163050698"><ele>567.0</ele><time>2026-05-02T06:22:19Z</time></trkpt><trkpt lat="43.45187033612503" lon="11.533342351259765"><ele>568.0</ele><time>2026-05-02T06:22:20Z</time></trkpt><trkpt lat="43.451736921131214" lon="11.533211198477439"><ele>568.0</ele><time>2026-05-02T06:22:21Z</time></trkpt><trkpt lat="43.451608687436114" lon="11.53306919453896"><ele>568.0</ele><time>2026-05-02T06:22:22Z</time></trkpt><trkpt lat="43.45151874123224" lon="11.532891341457146"><ele>568.0</ele><time>2026-05-02T06:22:23Z</time></trkpt><trkpt lat="43.45143154390617" lon="11.532701514669032"><ele>566.3333333333334</ele><time>2026-05-02T06:22:24Z</time></trkpt><trkpt lat="43.451347953027" lon="11.53251442580155"><ele>564.6666666666666</ele><time>2026-05-02T06:22:25Z</time></trkpt><trkpt lat="43.451255147018735" lon="11.532342522934782"><ele>563.0</ele><time>2026-05-02T06:22:26Z</time></trkpt><trkpt lat="43.45115311506915" lon="11.53219389246589"><ele>563.0</ele><time>2026-05-02T06:22:27Z</time></trkpt><trkpt lat="43.451039005461716" lon="11.532081478981858"><ele>563.0</ele><time>2026-05-02T06:22:28Z</time></trkpt><trkpt lat="43.45095132170032" lon="11.53195974183617"><ele>563.0</ele><time>2026-05-02T06:22:29Z</time></trkpt><trkpt lat="43.45085562120975" lon="11.531860604886923"><ele>563.0</ele><time>2026-05-02T06:22:30Z</time></trkpt><trkpt lat="43.45076223520918" lon="11.531775260629459"><ele>562.25</ele><time>2026-05-02T06:22:31Z</time></trkpt><trkpt lat="43.450659708834515" lon="11.531714999047523"><ele>561.5</ele><time>2026-05-02T06:22:32Z</time></trkpt><trkpt lat="43.45055315223526" lon="11.531660495850703"><ele>560.75</ele><time>2026-05-02T06:22:33Z</time></trkpt><trkpt lat="43.450435116524105" lon="11.531615873839767"><ele>560.0</ele><time>2026-05-02T06:22:34Z</time></trkpt><trkpt lat="43.450328474060754" lon="11.531541586571935"><ele>559.4</ele><time>2026-05-02T06:22:35Z</time></trkpt><trkpt lat="43.450217836674135" lon="11.53150982735524"><ele>558.8</ele><time>2026-05-02T06:22:36Z</time></trkpt><trkpt lat="43.45012377974863" lon="11.531442227174352"><ele>558.2</ele><time>2026-05-02T06:22:37Z</time></trkpt><trkpt lat="43.45005343583398" lon="11.531356976110759"><ele>557.6</ele><time>2026-05-02T06:22:38Z</time></trkpt><trkpt lat="43.45002262145245" lon="11.531223279058727"><ele>557.0</ele><time>2026-05-02T06:22:39Z</time></trkpt><trkpt lat="43.450053477074995" lon="11.531054922319438"><ele>556.25</ele><time>2026-05-02T06:22:40Z</time></trkpt><trkpt lat="43.45004031278033" lon="11.530882223747078"><ele>555.5</ele><time>2026-05-02T06:22:41Z</time></trkpt><trkpt lat="43.45004375104522" lon="11.530696288772434"><ele>554.75</ele><time>2026-05-02T06:22:42Z</time></trkpt><trkpt lat="43.45003119968981" lon="11.530501377655646"><ele>554.0</ele><time>2026-05-02T06:22:43Z</time></trkpt><trkpt lat="43.45000581659397" lon="11.530301630520565"><ele>553.6666666666666</ele><time>2026-05-02T06:22:44Z</time></trkpt><trkpt lat="43.44997289907966" lon="11.530099055310549"><ele>553.3333333333334</ele><time>2026-05-02T06:22:45Z</time></trkpt><trkpt lat="43.449938360783726" lon="11.529881419073464"><ele>553.0</ele><time>2026-05-02T06:22:46Z</time></trkpt><trkpt lat="43.44991178780366" lon="11.529663921653023"><ele>554.0</ele><time>2026-05-02T06:22:47Z</time></trkpt><trkpt lat="43.449877182041405" lon="11.529449835505988"><ele>555.0</ele><time>2026-05-02T06:22:48Z</time></trkpt><trkpt lat="43.449820009612004" lon="11.529245142477038"><ele>556.0</ele><time>2026-05-02T06:22:49Z</time></trkpt><trkpt lat="43.44973382171964" lon="11.529053622972228"><ele>556.3333333333334</ele><time>2026-05-02T06:22:50Z</time></trkpt><trkpt lat="43.44962524369231" lon="11.528875240668809"><ele>556.6666666666666</ele><time>2026-05-02T06:22:51Z</time></trkpt><trkpt lat="43.449514868026675" lon="11.52868715833383"><ele>557.0</ele><time>2026-05-02T06:22:52Z</time></trkpt><trkpt lat="43.4494065678131" lon="11.528485914867789"><ele>560.3333333333333</ele><time>2026-05-02T06:22:53Z</time></trkpt><trkpt lat="43.44929499396687" lon="11.52828592623583"><ele>563.6666666666666</ele><time>2026-05-02T06:22:54Z</time></trkpt><trkpt lat="43.44917590289504" lon="11.528101964294391"><ele>567.0</ele><time>2026-05-02T06:22:55Z</time></trkpt><trkpt lat="43.44905547921545" lon="11.527921617897244"><ele>568.3333333333334</ele><time>2026-05-02T06:22:56Z</time></trkpt><trkpt lat="43.448898102088236" lon="11.527793463960215"><ele>569.6666666666667</ele><time>2026-05-02T06:22:57Z</time></trkpt><trkpt lat="43.44876229386595" lon="11.527627330903488"><ele>571.0</ele><time>2026-05-02T06:22:58Z</time></trkpt><trkpt lat="43.44862796219638" lon="11.527469991696632"><ele>573.6666666666667</ele><time>2026-05-02T06:22:59Z</time></trkpt><trkpt lat="43.4485013631738" lon="11.5273073164665"><ele>576.3333333333334</ele><time>2026-05-02T06:23:00Z</time></trkpt><trkpt lat="43.44839122019786" lon="11.5271320690861"><ele>579.0</ele><time>2026-05-02T06:23:01Z</time></trkpt><trkpt lat="43.44827980678733" lon="11.52695035234809"><ele>582.0</ele><time>2026-05-02T06:23:02Z</time></trkpt><trkpt lat="43.44816460931738" lon="11.526794572158822"><ele>585.0</ele><time>2026-05-02T06:23:03Z</time></trkpt><trkpt lat="43.44805181984648" lon="11.526656753381806"><ele>588.0</ele><time>2026-05-02T06:23:04Z</time></trkpt><trkpt lat="43.4479202658941" lon="11.52657670996376"><ele>590.0</ele><time>2026-05-02T06:23:05Z</time></trkpt><trkpt lat="43.447773548051046" lon="11.526573789715272"><ele>592.0</ele><time>2026-05-02T06:23:06Z</time></trkpt><trkpt lat="43.44762243281894" lon="11.526639485326726"><ele>594.0</ele><time>2026-05-02T06:23:07Z</time></trkpt><trkpt lat="43.44748410669425" lon="11.526681132217238"><ele>596.0</ele><time>2026-05-02T06:23:08Z</time></trkpt><trkpt lat="43.4473688181519" lon="11.526655453294886"><ele>596.0</ele><time>2026-05-02T06:23:09Z</time></trkpt><trkpt lat="43.44727604787729" lon="11.526574445744076"><ele>596.0</ele><time>2026-05-02T06:23:10Z</time></trkpt><trkpt lat="43.44716047125134" lon="11.52648613257016"><ele>596.0</ele><time>2026-05-02T06:23:11Z</time></trkpt><trkpt lat="43.44707212157824" lon="11.526398028672205"><ele>596.0</ele><time>2026-05-02T06:23:12Z</time></trkpt><trkpt lat="43.44701820114276" lon="11.526291930612766"><ele>596.0</ele><time>2026-05-02T06:23:13Z</time></trkpt><trkpt lat="43.44702363284546" lon="11.52616646108949"><ele>595.0</ele><time>2026-05-02T06:23:14Z</time></trkpt><trkpt lat="43.4470229435958" lon="11.526026941066283"><ele>594.0</ele><time>2026-05-02T06:23:15Z</time></trkpt><trkpt lat="43.447096376160516" lon="11.52591143091843"><ele>593.0</ele><time>2026-05-02T06:23:16Z</time></trkpt><trkpt lat="43.44719904350494" lon="11.525840423903743"><ele>592.0</ele><time>2026-05-02T06:23:17Z</time></trkpt><trkpt lat="43.44730941791596" lon="11.525840749912007"><ele>591.0</ele><time>2026-05-02T06:23:18Z</time></trkpt><trkpt lat="43.44741989005336" lon="11.525900485380566"><ele>595.75</ele><time>2026-05-02T06:23:19Z</time></trkpt><trkpt lat="43.447530940974" lon="11.52596299330071"><ele>600.5</ele><time>2026-05-02T06:23:20Z</time></trkpt><trkpt lat="43.44764028148561" lon="11.525962754795762"><ele>605.25</ele><time>2026-05-02T06:23:21Z</time></trkpt><trkpt lat="43.44774052635919" lon="11.525890974843218"><ele>610.0</ele><time>2026-05-02T06:23:22Z</time></trkpt><trkpt lat="43.447812582638704" lon="11.525731054343934"><ele>610.0</ele><time>2026-05-02T06:23:23Z</time></trkpt><trkpt lat="43.447846706402885" lon="11.525583756717559"><ele>610.0</ele><time>2026-05-02T06:23:24Z</time></trkpt><trkpt lat="43.447827039078234" lon="11.525419380975912"><ele>610.0</ele><time>2026-05-02T06:23:25Z</time></trkpt><trkpt lat="43.44779947113436" lon="11.525249026054281"><ele>610.0</ele><time>2026-05-02T06:23:26Z</time></trkpt><trkpt lat="43.44772366458434" lon="11.525087357294291"><ele>610.5</ele><time>2026-05-02T06:23:27Z</time></trkpt><trkpt lat="43.44769506022076" lon="11.52491967545665"><ele>611.0</ele><time>2026-05-02T06:23:28Z</time></trkpt><trkpt lat="43.447685503540086" lon="11.524750341633226"><ele>611.5</ele><time>2026-05-02T06:23:29Z</time></trkpt><trkpt lat="43.44774241269527" lon="11.52457544694445"><ele>612.0</ele><time>2026-05-02T06:23:29.999Z</time></trkpt><trkpt lat="43.447814636312366" lon="11.524400719739962"><ele>612.5</ele><time>2026-05-02T06:23:30.999Z</time></trkpt><trkpt lat="43.44787336467607" lon="11.524220024868615"><ele>613.0</ele><time>2026-05-02T06:23:31.999Z</time></trkpt><trkpt lat="43.447905252807715" lon="11.524038052481743"><ele>613.5</ele><time>2026-05-02T06:23:32.999Z</time></trkpt><trkpt lat="43.44793237264524" lon="11.523848841068938"><ele>614.0</ele><time>2026-05-02T06:23:33.999Z</time></trkpt><trkpt lat="43.44791785794272" lon="11.52364314042413"><ele>616.0</ele><time>2026-05-02T06:23:34.999Z</time></trkpt><trkpt lat="43.44788580030388" lon="11.523446122662302"><ele>618.0</ele><time>2026-05-02T06:23:35.999Z</time></trkpt><trkpt lat="43.4478616022109" lon="11.523253709812284"><ele>620.0</ele><time>2026-05-02T06:23:36.999Z</time></trkpt><trkpt lat="43.44784974976311" lon="11.523067772293146"><ele>622.0</ele><time>2026-05-02T06:23:37.999Z</time></trkpt><trkpt lat="43.44786085763742" lon="11.522890607298244"><ele>624.25</ele><time>2026-05-02T06:23:38.999Z</time></trkpt><trkpt lat="43.447848557491795" lon="11.522701333778274"><ele>626.5</ele><time>2026-05-02T06:23:39.999Z</time></trkpt><trkpt lat="43.44784573856434" lon="11.522507469344532"><ele>628.75</ele><time>2026-05-02T06:23:40.999Z</time></trkpt><trkpt lat="43.447810168903175" lon="11.522316525240086"><ele>631.0</ele><time>2026-05-02T06:23:41.999Z</time></trkpt><trkpt lat="43.44775388215383" lon="11.522138625017094"><ele>635.25</ele><time>2026-05-02T06:23:42.999Z</time></trkpt><trkpt lat="43.44768674920295" lon="11.521972925172582"><ele>639.5</ele><time>2026-05-02T06:23:43.999Z</time></trkpt><trkpt lat="43.44761701366492" lon="11.521813194250491"><ele>643.75</ele><time>2026-05-02T06:23:44.999Z</time></trkpt><trkpt lat="43.447542364433076" lon="11.521662585029244"><ele>648.0</ele><time>2026-05-02T06:23:45.999Z</time></trkpt><trkpt lat="43.447476856733296" lon="11.521514251035079"><ele>648.0</ele><time>2026-05-02T06:23:46.999Z</time></trkpt><trkpt lat="43.4474392643111" lon="11.521356111824653"><ele>648.0</ele><time>2026-05-02T06:23:47.999Z</time></trkpt><trkpt lat="43.44742735039033" lon="11.52118549728308"><ele>648.0</ele><time>2026-05-02T06:23:48.999Z</time></trkpt><trkpt lat="43.44743231415418" lon="11.52101336381796"><ele>648.0</ele><time>2026-05-02T06:23:49.999Z</time></trkpt><trkpt lat="43.447447345190625" lon="11.52083856003896"><ele>650.0</ele><time>2026-05-02T06:23:50.999Z</time></trkpt><trkpt lat="43.447474795362034" lon="11.520664695577285"><ele>652.0</ele><time>2026-05-02T06:23:51.999Z</time></trkpt><trkpt lat="43.447499748669365" lon="11.520483642988344"><ele>654.0</ele><time>2026-05-02T06:23:52.999Z</time></trkpt><trkpt lat="43.44754398630508" lon="11.520314847202192"><ele>656.0</ele><time>2026-05-02T06:23:53.999Z</time></trkpt><trkpt lat="43.44758605653546" lon="11.520145577867373"><ele>657.25</ele><time>2026-05-02T06:23:54.999Z</time></trkpt><trkpt lat="43.4476276202965" lon="11.51997967904245"><ele>658.5</ele><time>2026-05-02T06:23:55.999Z</time></trkpt><trkpt lat="43.44767581657098" lon="11.519816616622306"><ele>659.75</ele><time>2026-05-02T06:23:56.999Z</time></trkpt><trkpt lat="43.44772098895297" lon="11.519653664021172"><ele>661.0</ele><time>2026-05-02T06:23:57.999Z</time></trkpt><trkpt lat="43.44775349531398" lon="11.519489606350817"><ele>663.75</ele><time>2026-05-02T06:23:58.999Z</time></trkpt><trkpt lat="43.44777960789287" lon="11.51932180248747"><ele>666.5</ele><time>2026-05-02T06:23:59.999Z</time></trkpt><trkpt lat="43.447772281241576" lon="11.519141646807403"><ele>669.25</ele><time>2026-05-02T06:24:00.999Z</time></trkpt><trkpt lat="43.44773138533325" lon="11.518968733487718"><ele>672.0</ele><time>2026-05-02T06:24:01.999Z</time></trkpt><trkpt lat="43.44767735819122" lon="11.51879837382115"><ele>672.3333333333334</ele><time>2026-05-02T06:24:02.999Z</time></trkpt><trkpt lat="43.44760649270516" lon="11.518614207984706"><ele>672.6666666666667</ele><time>2026-05-02T06:24:03.999Z</time></trkpt><trkpt lat="43.447521570465156" lon="11.518408479835115"><ele>673.0</ele><time>2026-05-02T06:24:04.999Z</time></trkpt><trkpt lat="43.447435126611964" lon="11.518213022751338"><ele>673.0</ele><time>2026-05-02T06:24:05.999Z</time></trkpt><trkpt lat="43.447354257484726" lon="11.518031681350605"><ele>673.0</ele><time>2026-05-02T06:24:07Z</time></trkpt><trkpt lat="43.447286434206376" lon="11.517854281499023"><ele>673.0</ele><time>2026-05-02T06:24:08Z</time></trkpt><trkpt lat="43.447228714846915" lon="11.517675986241384"><ele>673.0</ele><time>2026-05-02T06:24:09Z</time></trkpt><trkpt lat="43.44718079145796" lon="11.517493755976885"><ele>672.75</ele><time>2026-05-02T06:24:10Z</time></trkpt><trkpt lat="43.44718878450383" lon="11.517295003605101"><ele>672.5</ele><time>2026-05-02T06:24:11Z</time></trkpt><trkpt lat="43.44718708573341" lon="11.517097168371537"><ele>672.25</ele><time>2026-05-02T06:24:12Z</time></trkpt><trkpt lat="43.447214156930336" lon="11.51690660329257"><ele>672.0</ele><time>2026-05-02T06:24:13Z</time></trkpt><trkpt lat="43.44723393198053" lon="11.516722526752782"><ele>672.5</ele><time>2026-05-02T06:24:14Z</time></trkpt><trkpt lat="43.44723947112178" lon="11.516537700886715"><ele>673.0</ele><time>2026-05-02T06:24:15Z</time></trkpt><trkpt lat="43.447178395837284" lon="11.516355547150747"><ele>673.5</ele><time>2026-05-02T06:24:16Z</time></trkpt><trkpt lat="43.44707275852968" lon="11.516205950685814"><ele>674.0</ele><time>2026-05-02T06:24:17Z</time></trkpt><trkpt lat="43.446945433950674" lon="11.51606721745584"><ele>684.6666666666666</ele><time>2026-05-02T06:24:18Z</time></trkpt><trkpt lat="43.44680566359724" lon="11.515924048603782"><ele>695.3333333333334</ele><time>2026-05-02T06:24:19Z</time></trkpt><trkpt lat="43.44665743020637" lon="11.51578370397799"><ele>706.0</ele><time>2026-05-02T06:24:20Z</time></trkpt><trkpt lat="43.44650465866046" lon="11.515660409535254"><ele>706.0</ele><time>2026-05-02T06:24:21Z</time></trkpt><trkpt lat="43.44635463358536" lon="11.515556949772895"><ele>706.0</ele><time>2026-05-02T06:24:22Z</time></trkpt><trkpt lat="43.446243098519" lon="11.51541382207689"><ele>706.0</ele><time>2026-05-02T06:24:23Z</time></trkpt><trkpt lat="43.44618292162087" lon="11.515244732855257"><ele>708.5</ele><time>2026-05-02T06:24:24Z</time></trkpt><trkpt lat="43.44616658571879" lon="11.515046456580096"><ele>711.0</ele><time>2026-05-02T06:24:25Z</time></trkpt><trkpt lat="43.44614069905872" lon="11.514839602640693"><ele>713.5</ele><time>2026-05-02T06:24:26Z</time></trkpt><trkpt lat="43.44607041358322" lon="11.514658438628206"><ele>716.0</ele><time>2026-05-02T06:24:27Z</time></trkpt><trkpt lat="43.445958951962325" lon="11.514509540067463"><ele>716.0</ele><time>2026-05-02T06:24:28Z</time></trkpt><trkpt lat="43.4458348857181" lon="11.514374023998474"><ele>716.0</ele><time>2026-05-02T06:24:29Z</time></trkpt><trkpt lat="43.44573277168416" lon="11.514230800293062"><ele>716.0</ele><time>2026-05-02T06:24:30Z</time></trkpt><trkpt lat="43.44568262978868" lon="11.514075973992139"><ele>716.0</ele><time>2026-05-02T06:24:31Z</time></trkpt><trkpt lat="43.44568069959631" lon="11.51391601792868"><ele>714.75</ele><time>2026-05-02T06:24:32Z</time></trkpt><trkpt lat="43.44569697079477" lon="11.513725567284173"><ele>713.5</ele><time>2026-05-02T06:24:33Z</time></trkpt><trkpt lat="43.445736792718066" lon="11.513528452241546"><ele>712.25</ele><time>2026-05-02T06:24:34Z</time></trkpt><trkpt lat="43.44578504576175" lon="11.513345768604022"><ele>711.0</ele><time>2026-05-02T06:24:35Z</time></trkpt><trkpt lat="43.445831152120164" lon="11.513169123536704"><ele>711.0</ele><time>2026-05-02T06:24:36Z</time></trkpt><trkpt lat="43.445846498294586" lon="11.512998198968921"><ele>711.0</ele><time>2026-05-02T06:24:37Z</time></trkpt><trkpt lat="43.44580453804095" lon="11.512834752620247"><ele>711.0</ele><time>2026-05-02T06:24:38Z</time></trkpt><trkpt lat="43.44571637927614" lon="11.512703817649337"><ele>711.0</ele><time>2026-05-02T06:24:39Z</time></trkpt><trkpt lat="43.44563715580197" lon="11.512555777740689"><ele>710.6666666666666</ele><time>2026-05-02T06:24:40Z</time></trkpt><trkpt lat="43.44557544927706" lon="11.512407540863432"><ele>710.3333333333333</ele><time>2026-05-02T06:24:41Z</time></trkpt><trkpt lat="43.445558402309366" lon="11.512152892297845"><ele>710.0</ele><time>2026-05-02T06:24:42Z</time></trkpt><trkpt lat="43.44556168225972" lon="11.511936124885814"><ele>712.6666666666666</ele><time>2026-05-02T06:24:43Z</time></trkpt><trkpt lat="43.44555438191727" lon="11.511710476276717"><ele>715.3333333333334</ele><time>2026-05-02T06:24:44Z</time></trkpt><trkpt lat="43.44557819258779" lon="11.51149015532416"><ele>718.0</ele><time>2026-05-02T06:24:45Z</time></trkpt><trkpt lat="43.44557008820737" lon="11.51128637158963"><ele>721.25</ele><time>2026-05-02T06:24:46Z</time></trkpt><trkpt lat="43.44558015660904" lon="11.511085532960626"><ele>724.5</ele><time>2026-05-02T06:24:47Z</time></trkpt><trkpt lat="43.445573739600704" lon="11.510893619729792"><ele>727.75</ele><time>2026-05-02T06:24:48Z</time></trkpt><trkpt lat="43.44554965669424" lon="11.510706197952935"><ele>731.0</ele><time>2026-05-02T06:24:49Z</time></trkpt><trkpt lat="43.445523294291114" lon="11.510507963663636"><ele>731.3333333333333</ele><time>2026-05-02T06:24:50Z</time></trkpt><trkpt lat="43.445480834135395" lon="11.510310078381416"><ele>731.6666666666666</ele><time>2026-05-02T06:24:51Z</time></trkpt><trkpt lat="43.44543959056329" lon="11.510110601475915"><ele>732.0</ele><time>2026-05-02T06:24:52Z</time></trkpt><trkpt lat="43.44540332638046" lon="11.50991085749807"><ele>732.0</ele><time>2026-05-02T06:24:53Z</time></trkpt><trkpt lat="43.44535752842249" lon="11.509707964716481"><ele>732.0</ele><time>2026-05-02T06:24:54Z</time></trkpt><trkpt lat="43.44527899002753" lon="11.509520088818164"><ele>732.0</ele><time>2026-05-02T06:24:55Z</time></trkpt><trkpt lat="43.44521037179557" lon="11.509320443194584"><ele>740.0</ele><time>2026-05-02T06:24:56Z</time></trkpt><trkpt lat="43.44512277863206" lon="11.509124457257272"><ele>748.0</ele><time>2026-05-02T06:24:57Z</time></trkpt><trkpt lat="43.445032702689694" lon="11.50893828980216"><ele>756.0</ele><time>2026-05-02T06:24:58Z</time></trkpt><trkpt lat="43.444932213188395" lon="11.508778608676861"><ele>762.75</ele><time>2026-05-02T06:24:59Z</time></trkpt><trkpt lat="43.44486711311272" lon="11.508625072600081"><ele>769.5</ele><time>2026-05-02T06:25:00Z</time></trkpt><trkpt lat="43.444784829649635" lon="11.508510397396424"><ele>776.25</ele><time>2026-05-02T06:25:01Z</time></trkpt><trkpt lat="43.44467703024334" lon="11.508429297805831"><ele>783.0</ele><time>2026-05-02T06:25:02Z</time></trkpt><trkpt lat="43.44452520033647" lon="11.508452394104957"><ele>783.0</ele><time>2026-05-02T06:25:03Z</time></trkpt><trkpt lat="43.444351569491126" lon="11.508459090657489"><ele>783.0</ele><time>2026-05-02T06:25:04Z</time></trkpt><trkpt lat="43.44420434328431" lon="11.508480416738108"><ele>783.0</ele><time>2026-05-02T06:25:05Z</time></trkpt><trkpt lat="43.44406120506619" lon="11.508476072797919"><ele>783.0</ele><time>2026-05-02T06:25:06Z</time></trkpt><trkpt lat="43.44393548517751" lon="11.508442205591912"><ele>783.0</ele><time>2026-05-02T06:25:07Z</time></trkpt><trkpt lat="43.443860768567106" lon="11.508368786331756"><ele>783.0</ele><time>2026-05-02T06:25:08Z</time></trkpt><trkpt lat="43.44379260172107" lon="11.50827785751374"><ele>783.0</ele><time>2026-05-02T06:25:09Z</time></trkpt><trkpt lat="43.44368385166742" lon="11.508195460387032"><ele>783.0</ele><time>2026-05-02T06:25:10Z</time></trkpt><trkpt lat="43.44357043601272" lon="11.508133447568712"><ele>780.5</ele><time>2026-05-02T06:25:11Z</time></trkpt><trkpt lat="43.4434405306457" lon="11.508082639053969"><ele>778.0</ele><time>2026-05-02T06:25:12Z</time></trkpt><trkpt lat="43.44331304731982" lon="11.508046879599986"><ele>775.5</ele><time>2026-05-02T06:25:13Z</time></trkpt><trkpt lat="43.44321040196392" lon="11.508003864301557"><ele>773.0</ele><time>2026-05-02T06:25:14Z</time></trkpt><trkpt lat="43.443136137738016" lon="11.50794522401381"><ele>776.2</ele><time>2026-05-02T06:25:15Z</time></trkpt><trkpt lat="43.4430632235798" lon="11.507869803979004"><ele>779.4</ele><time>2026-05-02T06:25:16Z</time></trkpt><trkpt lat="43.443002766284984" lon="11.507762107514388"><ele>782.6</ele><time>2026-05-02T06:25:17Z</time></trkpt><trkpt lat="43.442952601996424" lon="11.50761507488181"><ele>785.8000000000001</ele><time>2026-05-02T06:25:18Z</time></trkpt><trkpt lat="43.442900780090795" lon="11.507456241553927"><ele>789.0</ele><time>2026-05-02T06:25:19Z</time></trkpt><trkpt lat="43.44286155573636" lon="11.507260165399364"><ele>789.0</ele><time>2026-05-02T06:25:20Z</time></trkpt><trkpt lat="43.44281691282767" lon="11.507080158978502"><ele>789.0</ele><time>2026-05-02T06:25:21Z</time></trkpt><trkpt lat="43.44279344323619" lon="11.506893749118214"><ele>789.0</ele><time>2026-05-02T06:25:22Z</time></trkpt><trkpt lat="43.442793989212014" lon="11.506721761977987"><ele>789.0</ele><time>2026-05-02T06:25:23Z</time></trkpt><trkpt lat="43.442809626786556" lon="11.506575394201757"><ele>787.8000000000001</ele><time>2026-05-02T06:25:24Z</time></trkpt><trkpt lat="43.44284380209087" lon="11.50645352569409"><ele>786.6</ele><time>2026-05-02T06:25:25Z</time></trkpt><trkpt lat="43.44289925990827" lon="11.506352548666472"><ele>785.4</ele><time>2026-05-02T06:25:26Z</time></trkpt><trkpt lat="43.44297884397624" lon="11.50626790953385"><ele>784.2</ele><time>2026-05-02T06:25:27Z</time></trkpt><trkpt lat="43.44307290501399" lon="11.506192814998576"><ele>783.0</ele><time>2026-05-02T06:25:28Z</time></trkpt><trkpt lat="43.443184114901214" lon="11.506131966519327"><ele>783.0</ele><time>2026-05-02T06:25:29Z</time></trkpt><trkpt lat="43.4433113862056" lon="11.506062960662193"><ele>783.0</ele><time>2026-05-02T06:25:30Z</time></trkpt><trkpt lat="43.443425341772134" lon="11.505976755947875"><ele>783.0</ele><time>2026-05-02T06:25:31Z</time></trkpt><trkpt lat="43.44353842631585" lon="11.505872221816494"><ele>783.0</ele><time>2026-05-02T06:25:32Z</time></trkpt><trkpt lat="43.44364955039277" lon="11.505785445749245"><ele>783.0</ele><time>2026-05-02T06:25:33Z</time></trkpt><trkpt lat="43.44376376349586" lon="11.50576471256447"><ele>783.0</ele><time>2026-05-02T06:25:33.999Z</time></trkpt><trkpt lat="43.44388274048291" lon="11.505847562431718"><ele>783.0</ele><time>2026-05-02T06:25:34.999Z</time></trkpt><trkpt lat="43.44401143225547" lon="11.505912929584362"><ele>783.0</ele><time>2026-05-02T06:25:35.999Z</time></trkpt><trkpt lat="43.44413649867766" lon="11.506000812196062"><ele>782.25</ele><time>2026-05-02T06:25:36.999Z</time></trkpt><trkpt lat="43.4442625776584" lon="11.506050393466678"><ele>781.5</ele><time>2026-05-02T06:25:37.999Z</time></trkpt><trkpt lat="43.44438007959138" lon="11.506065745670048"><ele>780.75</ele><time>2026-05-02T06:25:38.999Z</time></trkpt><trkpt lat="43.44449071632713" lon="11.506011697991173"><ele>780.0</ele><time>2026-05-02T06:25:39.999Z</time></trkpt><trkpt lat="43.44459033344008" lon="11.505902403532875"><ele>778.75</ele><time>2026-05-02T06:25:40.999Z</time></trkpt><trkpt lat="43.444664201828964" lon="11.505754607202075"><ele>777.5</ele><time>2026-05-02T06:25:41.999Z</time></trkpt><trkpt lat="43.44472919632136" lon="11.505592232827206"><ele>776.25</ele><time>2026-05-02T06:25:42.999Z</time></trkpt><trkpt lat="43.44479923986761" lon="11.505422822754602"><ele>775.0</ele><time>2026-05-02T06:25:43.999Z</time></trkpt><trkpt lat="43.444885391480945" lon="11.505282117989685"><ele>775.0</ele><time>2026-05-02T06:25:44.999Z</time></trkpt><trkpt lat="43.44496018795765" lon="11.505149161362521"><ele>775.0</ele><time>2026-05-02T06:25:45.999Z</time></trkpt><trkpt lat="43.44508196929361" lon="11.50510187739222"><ele>775.0</ele><time>2026-05-02T06:25:46.999Z</time></trkpt><trkpt lat="43.445209989630186" lon="11.505061591143294"><ele>775.0</ele><time>2026-05-02T06:25:47.999Z</time></trkpt><trkpt lat="43.44534680594874" lon="11.505050250987667"><ele>779.5</ele><time>2026-05-02T06:25:48.999Z</time></trkpt><trkpt lat="43.4454902312811" lon="11.505055604665351"><ele>784.0</ele><time>2026-05-02T06:25:49.999Z</time></trkpt><trkpt lat="43.44562540356549" lon="11.505092394598295"><ele>788.5</ele><time>2026-05-02T06:25:50.999Z</time></trkpt><trkpt lat="43.445740176873514" lon="11.505114348737399"><ele>793.0</ele><time>2026-05-02T06:25:51.999Z</time></trkpt><trkpt lat="43.445832490497814" lon="11.505040863978198"><ele>793.0</ele><time>2026-05-02T06:25:52.999Z</time></trkpt><trkpt lat="43.44591558412838" lon="11.504897882598705"><ele>793.0</ele><time>2026-05-02T06:25:53.999Z</time></trkpt><trkpt lat="43.44597001406761" lon="11.50470635594601"><ele>793.0</ele><time>2026-05-02T06:25:54.999Z</time></trkpt><trkpt lat="43.44601755736157" lon="11.504506357714304"><ele>793.0</ele><time>2026-05-02T06:25:55.999Z</time></trkpt><trkpt lat="43.446059915994105" lon="11.504317555851465"><ele>794.25</ele><time>2026-05-02T06:25:56.999Z</time></trkpt><trkpt lat="43.4461296988823" lon="11.504168610813823"><ele>795.5</ele><time>2026-05-02T06:25:57.999Z</time></trkpt><trkpt lat="43.446242477356506" lon="11.504063410441441"><ele>796.75</ele><time>2026-05-02T06:25:58.999Z</time></trkpt><trkpt lat="43.446375255279335" lon="11.503981974726216"><ele>798.0</ele><time>2026-05-02T06:25:59.999Z</time></trkpt><trkpt lat="43.44649605384184" lon="11.503878686462992"><ele>792.5</ele><time>2026-05-02T06:26:00.999Z</time></trkpt><trkpt lat="43.44658814575079" lon="11.503726573539273"><ele>787.0</ele><time>2026-05-02T06:26:01.999Z</time></trkpt><trkpt lat="43.44664631018127" lon="11.503528966864023"><ele>781.5</ele><time>2026-05-02T06:26:02.999Z</time></trkpt><trkpt lat="43.44670946528084" lon="11.503356747675738"><ele>776.0</ele><time>2026-05-02T06:26:03.999Z</time></trkpt><trkpt lat="43.4467885055148" lon="11.503222773919497"><ele>776.0</ele><time>2026-05-02T06:26:04.999Z</time></trkpt><trkpt lat="43.446887442921394" lon="11.503119458710087"><ele>776.0</ele><time>2026-05-02T06:26:05.999Z</time></trkpt><trkpt lat="43.447001668937475" lon="11.503041396161665"><ele>776.0</ele><time>2026-05-02T06:26:06.999Z</time></trkpt><trkpt lat="43.44711797328524" lon="11.503004579923964"><ele>776.0</ele><time>2026-05-02T06:26:07.999Z</time></trkpt><trkpt lat="43.447236848185696" lon="11.503017740607042"><ele>777.75</ele><time>2026-05-02T06:26:08.999Z</time></trkpt><trkpt lat="43.44735846017998" lon="11.503065285205347"><ele>779.5</ele><time>2026-05-02T06:26:09.999Z</time></trkpt><trkpt lat="43.447474082174246" lon="11.503136936283031"><ele>781.25</ele><time>2026-05-02T06:26:10.999Z</time></trkpt><trkpt lat="43.44760351284378" lon="11.503227212149497"><ele>783.0</ele><time>2026-05-02T06:26:11.999Z</time></trkpt><trkpt lat="43.44773571915702" lon="11.50330697188388"><ele>783.0</ele><time>2026-05-02T06:26:13Z</time></trkpt><trkpt lat="43.44787581330697" lon="11.50336292933017"><ele>783.0</ele><time>2026-05-02T06:26:14Z</time></trkpt><trkpt lat="43.448021677652065" lon="11.503395035381384"><ele>783.0</ele><time>2026-05-02T06:26:15Z</time></trkpt><trkpt lat="43.4481619887605" lon="11.503421117021139"><ele>783.0</ele><time>2026-05-02T06:26:16Z</time></trkpt><trkpt lat="43.44829523997233" lon="11.503434899287793"><ele>781.0</ele><time>2026-05-02T06:26:17Z</time></trkpt><trkpt lat="43.448417563354376" lon="11.503396319244228"><ele>779.0</ele><time>2026-05-02T06:26:18Z</time></trkpt><trkpt lat="43.448520406781526" lon="11.50328425139464"><ele>777.0</ele><time>2026-05-02T06:26:19Z</time></trkpt><trkpt lat="43.44860400185352" lon="11.503116775738668"><ele>775.0</ele><time>2026-05-02T06:26:20Z</time></trkpt><trkpt lat="43.44868021283405" lon="11.502945950663142"><ele>769.75</ele><time>2026-05-02T06:26:21Z</time></trkpt><trkpt lat="43.44879781017994" lon="11.502836994279301"><ele>764.5</ele><time>2026-05-02T06:26:22Z</time></trkpt><trkpt lat="43.44891407835483" lon="11.502760816756886"><ele>759.25</ele><time>2026-05-02T06:26:23Z</time></trkpt><trkpt lat="43.44904356815646" lon="11.50266355949893"><ele>754.0</ele><time>2026-05-02T06:26:24Z</time></trkpt><trkpt lat="43.44918703447392" lon="11.50258612002026"><ele>754.0</ele><time>2026-05-02T06:26:25Z</time></trkpt><trkpt lat="43.44932904543954" lon="11.502503054975513"><ele>754.0</ele><time>2026-05-02T06:26:26Z</time></trkpt><trkpt lat="43.44947341700496" lon="11.502420336406702"><ele>754.0</ele><time>2026-05-02T06:26:27Z</time></trkpt><trkpt lat="43.44961092584175" lon="11.502344598246104"><ele>753.0</ele><time>2026-05-02T06:26:28Z</time></trkpt><trkpt lat="43.449740454710245" lon="11.50227247532435"><ele>752.0</ele><time>2026-05-02T06:26:29Z</time></trkpt><trkpt lat="43.44986570318627" lon="11.50219903364688"><ele>751.0</ele><time>2026-05-02T06:26:30Z</time></trkpt><trkpt lat="43.449981776819584" lon="11.502125148811198"><ele>750.0</ele><time>2026-05-02T06:26:31Z</time></trkpt><trkpt lat="43.4500708347873" lon="11.502044735126534"><ele>750.0</ele><time>2026-05-02T06:26:32Z</time></trkpt><trkpt lat="43.450120085736046" lon="11.501924828660316"><ele>750.0</ele><time>2026-05-02T06:26:33Z</time></trkpt><trkpt lat="43.45012005499324" lon="11.50177427023543"><ele>750.0</ele><time>2026-05-02T06:26:34Z</time></trkpt><trkpt lat="43.45007294434429" lon="11.501611394171137"><ele>750.0</ele><time>2026-05-02T06:26:35Z</time></trkpt><trkpt lat="43.45001827182662" lon="11.501451674512364"><ele>750.0</ele><time>2026-05-02T06:26:36Z</time></trkpt><trkpt lat="43.45002904950991" lon="11.501277739122925"><ele>750.0</ele><time>2026-05-02T06:26:37Z</time></trkpt><trkpt lat="43.450070924133655" lon="11.50111766252967"><ele>750.0</ele><time>2026-05-02T06:26:38Z</time></trkpt><trkpt lat="43.45011989542029" lon="11.500961023429301"><ele>750.0</ele><time>2026-05-02T06:26:39Z</time></trkpt><trkpt lat="43.450181214238505" lon="11.500821682141455"><ele>748.6</ele><time>2026-05-02T06:26:40Z</time></trkpt><trkpt lat="43.45021201833008" lon="11.500694797286776"><ele>747.2</ele><time>2026-05-02T06:26:41Z</time></trkpt><trkpt lat="43.45019420320902" lon="11.500584604883528"><ele>745.8</ele><time>2026-05-02T06:26:42Z</time></trkpt><trkpt lat="43.45014258748505" lon="11.500475445533231"><ele>744.4</ele><time>2026-05-02T06:26:43Z</time></trkpt><trkpt lat="43.45006288976311" lon="11.500374492515501"><ele>743.0</ele><time>2026-05-02T06:26:44Z</time></trkpt><trkpt lat="43.4499654208019" lon="11.500273869768957"><ele>743.0</ele><time>2026-05-02T06:26:45Z</time></trkpt><trkpt lat="43.449891011602276" lon="11.50014771068782"><ele>743.0</ele><time>2026-05-02T06:26:46Z</time></trkpt><trkpt lat="43.44981773007799" lon="11.500038076946604"><ele>743.0</ele><time>2026-05-02T06:26:47Z</time></trkpt><trkpt lat="43.449762137934506" lon="11.499923427438938"><ele>743.0</ele><time>2026-05-02T06:26:48Z</time></trkpt><trkpt lat="43.449721894017934" lon="11.499794488935699"><ele>743.0</ele><time>2026-05-02T06:26:49Z</time></trkpt><trkpt lat="43.449716454535526" lon="11.499653421763552"><ele>743.5</ele><time>2026-05-02T06:26:50Z</time></trkpt><trkpt lat="43.44969110604882" lon="11.499491871888305"><ele>744.0</ele><time>2026-05-02T06:26:51Z</time></trkpt><trkpt lat="43.449693369868086" lon="11.49931314403048"><ele>744.5</ele><time>2026-05-02T06:26:52Z</time></trkpt><trkpt lat="43.4496901047575" lon="11.499139083730547"><ele>745.0</ele><time>2026-05-02T06:26:53Z</time></trkpt><trkpt lat="43.44969226543919" lon="11.498975753609312"><ele>745.0</ele><time>2026-05-02T06:26:54Z</time></trkpt><trkpt lat="43.4497352099832" lon="11.498819995781526"><ele>745.0</ele><time>2026-05-02T06:26:55Z</time></trkpt><trkpt lat="43.44976858589513" lon="11.498645196399764"><ele>745.0</ele><time>2026-05-02T06:26:56Z</time></trkpt><trkpt lat="43.44982563818995" lon="11.49847127453544"><ele>745.0</ele><time>2026-05-02T06:26:57Z</time></trkpt><trkpt lat="43.4498617764838" lon="11.498300627290778"><ele>742.75</ele><time>2026-05-02T06:26:58Z</time></trkpt><trkpt lat="43.44984001869972" lon="11.498136340042254"><ele>740.5</ele><time>2026-05-02T06:26:59Z</time></trkpt><trkpt lat="43.4497716045482" lon="11.497996721976357"><ele>738.25</ele><time>2026-05-02T06:27:00Z</time></trkpt><trkpt lat="43.44966868549283" lon="11.49787620851998"><ele>736.0</ele><time>2026-05-02T06:27:01Z</time></trkpt><trkpt lat="43.449547310245315" lon="11.497773433748616"><ele>728.5</ele><time>2026-05-02T06:27:02Z</time></trkpt><trkpt lat="43.4494712274518" lon="11.497636228272244"><ele>721.0</ele><time>2026-05-02T06:27:03Z</time></trkpt><trkpt lat="43.4494108057284" lon="11.497484000397757"><ele>713.5</ele><time>2026-05-02T06:27:04Z</time></trkpt><trkpt lat="43.44937770657348" lon="11.49729254338285"><ele>706.0</ele><time>2026-05-02T06:27:05Z</time></trkpt><trkpt lat="43.44932533989686" lon="11.497087503486071"><ele>706.6666666666667</ele><time>2026-05-02T06:27:06Z</time></trkpt><trkpt lat="43.44927938122272" lon="11.496869446139174"><ele>707.3333333333334</ele><time>2026-05-02T06:27:07Z</time></trkpt><trkpt lat="43.4492139615299" lon="11.496641289541545"><ele>708.0</ele><time>2026-05-02T06:27:08Z</time></trkpt><trkpt lat="43.449128324197865" lon="11.496379329384457"><ele>706.6666666666666</ele><time>2026-05-02T06:27:09Z</time></trkpt><trkpt lat="43.44905770465666" lon="11.496102036733754"><ele>705.3333333333333</ele><time>2026-05-02T06:27:10Z</time></trkpt><trkpt lat="43.44899610257787" lon="11.495859180698648"><ele>704.0</ele><time>2026-05-02T06:27:11Z</time></trkpt><trkpt lat="43.448948751275026" lon="11.495632545523097"><ele>702.0</ele><time>2026-05-02T06:27:12Z</time></trkpt><trkpt lat="43.448963749599706" lon="11.495403005783603"><ele>700.0</ele><time>2026-05-02T06:27:13Z</time></trkpt><trkpt lat="43.448965815778216" lon="11.495162483838753"><ele>698.0</ele><time>2026-05-02T06:27:14Z</time></trkpt><trkpt lat="43.44898559549747" lon="11.494921222917524"><ele>698.0</ele><time>2026-05-02T06:27:15Z</time></trkpt><trkpt lat="43.44900330323284" lon="11.49468329421365"><ele>698.0</ele><time>2026-05-02T06:27:16Z</time></trkpt><trkpt lat="43.44901410802362" lon="11.494443525982543"><ele>698.0</ele><time>2026-05-02T06:27:17Z</time></trkpt><trkpt lat="43.44902958132468" lon="11.494211054125781"><ele>697.75</ele><time>2026-05-02T06:27:18Z</time></trkpt><trkpt lat="43.44905465179507" lon="11.49399284267854"><ele>697.5</ele><time>2026-05-02T06:27:19Z</time></trkpt><trkpt lat="43.44909470518494" lon="11.493792637524145"><ele>697.25</ele><time>2026-05-02T06:27:20Z</time></trkpt><trkpt lat="43.449112997436515" lon="11.493609942018612"><ele>697.0</ele><time>2026-05-02T06:27:21Z</time></trkpt><trkpt lat="43.44908997467328" lon="11.493421152822439"><ele>697.0</ele><time>2026-05-02T06:27:22Z</time></trkpt><trkpt lat="43.44902152774241" lon="11.49324435831402"><ele>697.0</ele><time>2026-05-02T06:27:23Z</time></trkpt><trkpt lat="43.44892747726025" lon="11.493069508981044"><ele>697.0</ele><time>2026-05-02T06:27:24Z</time></trkpt><trkpt lat="43.4488216421083" lon="11.492890562009142"><ele>697.0</ele><time>2026-05-02T06:27:25Z</time></trkpt><trkpt lat="43.44872540335569" lon="11.492692134539828"><ele>697.0</ele><time>2026-05-02T06:27:26Z</time></trkpt><trkpt lat="43.4486509694955" lon="11.492464027976611"><ele>697.0</ele><time>2026-05-02T06:27:27Z</time></trkpt><trkpt lat="43.44859789522437" lon="11.492219257426397"><ele>694.0</ele><time>2026-05-02T06:27:28Z</time></trkpt><trkpt lat="43.44854947599231" lon="11.491977730461732"><ele>691.0</ele><time>2026-05-02T06:27:29Z</time></trkpt><trkpt lat="43.448504529255345" lon="11.491755838412951"><ele>688.0</ele><time>2026-05-02T06:27:30Z</time></trkpt><trkpt lat="43.44848511854017" lon="11.49155557771823"><ele>688.0</ele><time>2026-05-02T06:27:31Z</time></trkpt><trkpt lat="43.44850640493122" lon="11.491360215977952"><ele>688.0</ele><time>2026-05-02T06:27:32Z</time></trkpt><trkpt lat="43.44854708333425" lon="11.491150322663882"><ele>688.0</ele><time>2026-05-02T06:27:33Z</time></trkpt><trkpt lat="43.44858150201665" lon="11.49092642203076"><ele>687.6666666666667</ele><time>2026-05-02T06:27:34Z</time></trkpt><trkpt lat="43.448592431819065" lon="11.490693733826687"><ele>687.3333333333334</ele><time>2026-05-02T06:27:35Z</time></trkpt><trkpt lat="43.44858563844256" lon="11.4904464416428"><ele>687.0</ele><time>2026-05-02T06:27:35.999Z</time></trkpt><trkpt lat="43.44857221624903" lon="11.490200803610424"><ele>687.0</ele><time>2026-05-02T06:27:36.999Z</time></trkpt><trkpt lat="43.44856007221183" lon="11.489951442184882"><ele>687.0</ele><time>2026-05-02T06:27:37.999Z</time></trkpt><trkpt lat="43.448552088217625" lon="11.489700407422404"><ele>687.0</ele><time>2026-05-02T06:27:38.999Z</time></trkpt><trkpt lat="43.44855100216641" lon="11.48945037661432"><ele>689.0</ele><time>2026-05-02T06:27:39.999Z</time></trkpt><trkpt lat="43.44855099933796" lon="11.489207351290688"><ele>691.0</ele><time>2026-05-02T06:27:40.999Z</time></trkpt><trkpt lat="43.44854779871296" lon="11.488984483427688"><ele>693.0</ele><time>2026-05-02T06:27:41.999Z</time></trkpt><trkpt lat="43.44853195418657" lon="11.48879666970292"><ele>694.0</ele><time>2026-05-02T06:27:42.999Z</time></trkpt><trkpt lat="43.44848973021759" lon="11.488619028981049"><ele>695.0</ele><time>2026-05-02T06:27:43.999Z</time></trkpt><trkpt lat="43.448405326365936" lon="11.488451482158949"><ele>696.0</ele><time>2026-05-02T06:27:44.999Z</time></trkpt><trkpt lat="43.44830969307979" lon="11.488267246476282"><ele>697.0</ele><time>2026-05-02T06:27:45.999Z</time></trkpt><trkpt lat="43.44824902115357" lon="11.488050917613297"><ele>691.3333333333334</ele><time>2026-05-02T06:27:46.999Z</time></trkpt><trkpt lat="43.44816246382275" lon="11.487850089147413"><ele>685.6666666666666</ele><time>2026-05-02T06:27:47.999Z</time></trkpt><trkpt lat="43.4480878411161" lon="11.487664347449757"><ele>680.0</ele><time>2026-05-02T06:27:48.999Z</time></trkpt><trkpt lat="43.447992891017336" lon="11.487512451158608"><ele>683.75</ele><time>2026-05-02T06:27:49.999Z</time></trkpt><trkpt lat="43.447884674907485" lon="11.487390096287966"><ele>687.5</ele><time>2026-05-02T06:27:50.999Z</time></trkpt><trkpt lat="43.44776655280263" lon="11.487289514858915"><ele>691.25</ele><time>2026-05-02T06:27:51.999Z</time></trkpt><trkpt lat="43.44764777611557" lon="11.487200993182809"><ele>695.0</ele><time>2026-05-02T06:27:52.999Z</time></trkpt><trkpt lat="43.44749811981932" lon="11.487214778193367"><ele>695.0</ele><time>2026-05-02T06:27:53.999Z</time></trkpt><trkpt lat="43.4473329088078" lon="11.487216431620393"><ele>695.0</ele><time>2026-05-02T06:27:54.999Z</time></trkpt><trkpt lat="43.447166556384516" lon="11.487141779437087"><ele>695.0</ele><time>2026-05-02T06:27:55.999Z</time></trkpt><trkpt lat="43.44702767841848" lon="11.486996629444468"><ele>691.0</ele><time>2026-05-02T06:27:56.999Z</time></trkpt><trkpt lat="43.446908293367166" lon="11.486810545415153"><ele>687.0</ele><time>2026-05-02T06:27:58.999Z</time></trkpt><trkpt lat="43.44682439076395" lon="11.486623722714752"><ele>683.0</ele><time>2026-05-02T06:27:59.999Z</time></trkpt><trkpt lat="43.44673335410461" lon="11.48642332963631"><ele>680.3333333333333</ele><time>2026-05-02T06:28:00.999Z</time></trkpt><trkpt lat="43.44662791351892" lon="11.486229738906388"><ele>677.6666666666666</ele><time>2026-05-02T06:28:01.999Z</time></trkpt><trkpt lat="43.4465376466711" lon="11.486019344124921"><ele>675.0</ele><time>2026-05-02T06:28:02.999Z</time></trkpt><trkpt lat="43.44644444491919" lon="11.485804821191454"><ele>675.0</ele><time>2026-05-02T06:28:03.999Z</time></trkpt><trkpt lat="43.446377762351815" lon="11.485572239120986"><ele>675.0</ele><time>2026-05-02T06:28:04.999Z</time></trkpt><trkpt lat="43.44632435135041" lon="11.48534413475738"><ele>675.0</ele><time>2026-05-02T06:28:05.999Z</time></trkpt><trkpt lat="43.446303698234125" lon="11.485137742605009"><ele>672.6666666666666</ele><time>2026-05-02T06:28:06.999Z</time></trkpt><trkpt lat="43.4463068558603" lon="11.484945035995546"><ele>670.3333333333333</ele><time>2026-05-02T06:28:07.999Z</time></trkpt><trkpt lat="43.44632010928849" lon="11.484739088688041"><ele>668.0</ele><time>2026-05-02T06:28:08.999Z</time></trkpt><trkpt lat="43.446318883224635" lon="11.484514633373534"><ele>668.0</ele><time>2026-05-02T06:28:09.999Z</time></trkpt><trkpt lat="43.4463206254103" lon="11.484296757603515"><ele>668.0</ele><time>2026-05-02T06:28:10.999Z</time></trkpt><trkpt lat="43.446283928694214" lon="11.484087506275687"><ele>668.0</ele><time>2026-05-02T06:28:11.999Z</time></trkpt><trkpt lat="43.44622286533603" lon="11.483865000044782"><ele>665.6666666666666</ele><time>2026-05-02T06:28:12.999Z</time></trkpt><trkpt lat="43.44614097912602" lon="11.483637048941274"><ele>663.3333333333334</ele><time>2026-05-02T06:28:13.999Z</time></trkpt><trkpt lat="43.44604663504584" lon="11.48339878581247"><ele>661.0</ele><time>2026-05-02T06:28:14.999Z</time></trkpt><trkpt lat="43.44596018528425" lon="11.483162187195585"><ele>659.3333333333334</ele><time>2026-05-02T06:28:15.999Z</time></trkpt><trkpt lat="43.44588097602476" lon="11.48292455676342"><ele>657.6666666666666</ele><time>2026-05-02T06:28:16.999Z</time></trkpt><trkpt lat="43.44580512584296" lon="11.482685408156824"><ele>656.0</ele><time>2026-05-02T06:28:17.999Z</time></trkpt><trkpt lat="43.445724780870364" lon="11.482441681942785"><ele>656.0</ele><time>2026-05-02T06:28:19Z</time></trkpt><trkpt lat="43.44564314829531" lon="11.48220551682735"><ele>656.0</ele><time>2026-05-02T06:28:20Z</time></trkpt><trkpt lat="43.44556615904975" lon="11.481970061576547"><ele>656.0</ele><time>2026-05-02T06:28:21Z</time></trkpt><trkpt lat="43.44548640059429" lon="11.481748252905156"><ele>656.6666666666666</ele><time>2026-05-02T06:28:22Z</time></trkpt><trkpt lat="43.445411753848184" lon="11.481529118679065"><ele>657.3333333333334</ele><time>2026-05-02T06:28:23Z</time></trkpt><trkpt lat="43.44534324508896" lon="11.481329274896815"><ele>658.0</ele><time>2026-05-02T06:28:24Z</time></trkpt><trkpt lat="43.445280663144665" lon="11.481174211929828"><ele>658.0</ele><time>2026-05-02T06:28:25Z</time></trkpt><trkpt lat="43.445199282533935" lon="11.481076543582518"><ele>658.0</ele><time>2026-05-02T06:28:26Z</time></trkpt><trkpt lat="43.44507128263784" lon="11.481002664884093"><ele>658.0</ele><time>2026-05-02T06:28:27Z</time></trkpt><trkpt lat="43.44492395213858" lon="11.480951958144551"><ele>658.0</ele><time>2026-05-02T06:28:28Z</time></trkpt><trkpt lat="43.44477279215414" lon="11.480894468578828"><ele>654.0</ele><time>2026-05-02T06:28:29Z</time></trkpt><trkpt lat="43.44462256649735" lon="11.480807587660188"><ele>650.0</ele><time>2026-05-02T06:28:30Z</time></trkpt><trkpt lat="43.444459999683346" lon="11.48072457178955"><ele>646.0</ele><time>2026-05-02T06:28:31Z</time></trkpt><trkpt lat="43.44429339785402" lon="11.480644280211276"><ele>646.0</ele><time>2026-05-02T06:28:32Z</time></trkpt><trkpt lat="43.444126031445904" lon="11.48056625759267"><ele>646.0</ele><time>2026-05-02T06:28:33Z</time></trkpt><trkpt lat="43.44397777824412" lon="11.48047521298145"><ele>646.0</ele><time>2026-05-02T06:28:34Z</time></trkpt><trkpt lat="43.443840913348815" lon="11.480387211391616"><ele>643.5</ele><time>2026-05-02T06:28:35Z</time></trkpt><trkpt lat="43.44373025241968" lon="11.480284537028444"><ele>641.0</ele><time>2026-05-02T06:28:36Z</time></trkpt><trkpt lat="43.4436444778407" lon="11.480149593196563"><ele>638.5</ele><time>2026-05-02T06:28:37Z</time></trkpt><trkpt lat="43.44358967020259" lon="11.479991060842059"><ele>636.0</ele><time>2026-05-02T06:28:38Z</time></trkpt><trkpt lat="43.44355486962988" lon="11.479803094276026"><ele>636.0</ele><time>2026-05-02T06:28:39Z</time></trkpt><trkpt lat="43.44355392504817" lon="11.479621056198797"><ele>636.0</ele><time>2026-05-02T06:28:40Z</time></trkpt><trkpt lat="43.443584213429546" lon="11.479437134023133"><ele>636.0</ele><time>2026-05-02T06:28:41Z</time></trkpt><trkpt lat="43.44363419292432" lon="11.479255435815373"><ele>636.0</ele><time>2026-05-02T06:28:42Z</time></trkpt><trkpt lat="43.44368157324085" lon="11.479059627479359"><ele>635.75</ele><time>2026-05-02T06:28:43Z</time></trkpt><trkpt lat="43.443744550366745" lon="11.47886763956595"><ele>635.5</ele><time>2026-05-02T06:28:44Z</time></trkpt><trkpt lat="43.44379846795809" lon="11.478678465718477"><ele>635.25</ele><time>2026-05-02T06:28:45Z</time></trkpt><trkpt lat="43.44384920781551" lon="11.478499075246352"><ele>635.0</ele><time>2026-05-02T06:28:46Z</time></trkpt><trkpt lat="43.443900608779316" lon="11.47833272139945"><ele>638.25</ele><time>2026-05-02T06:28:47Z</time></trkpt><trkpt lat="43.443976465730806" lon="11.478194634931592"><ele>641.5</ele><time>2026-05-02T06:28:48Z</time></trkpt><trkpt lat="43.44409359888239" lon="11.478127852948367"><ele>644.75</ele><time>2026-05-02T06:28:49Z</time></trkpt><trkpt lat="43.44420062939642" lon="11.478060852635998"><ele>648.0</ele><time>2026-05-02T06:28:50Z</time></trkpt><trkpt lat="43.44431461995921" lon="11.478025886378378"><ele>648.0</ele><time>2026-05-02T06:28:51Z</time></trkpt><trkpt lat="43.44440811110861" lon="11.477935937926983"><ele>648.0</ele><time>2026-05-02T06:28:52Z</time></trkpt><trkpt lat="43.444455947173644" lon="11.477789270754307"><ele>648.0</ele><time>2026-05-02T06:28:53Z</time></trkpt><trkpt lat="43.444440687672376" lon="11.477623770516342"><ele>648.0</ele><time>2026-05-02T06:28:54Z</time></trkpt><trkpt lat="43.444378620374536" lon="11.477483952788894"><ele>646.25</ele><time>2026-05-02T06:28:55Z</time></trkpt><trkpt lat="43.44427230975625" lon="11.477393497692615"><ele>644.5</ele><time>2026-05-02T06:28:56Z</time></trkpt><trkpt lat="43.444149001257756" lon="11.47736306181668"><ele>642.75</ele><time>2026-05-02T06:28:57Z</time></trkpt><trkpt lat="43.44401728805825" lon="11.477398577807676"><ele>641.0</ele><time>2026-05-02T06:28:58Z</time></trkpt><trkpt lat="43.44388673214212" lon="11.477427276538464"><ele>639.1999999999999</ele><time>2026-05-02T06:28:59Z</time></trkpt><trkpt lat="43.443778619846306" lon="11.477357909566653"><ele>637.4</ele><time>2026-05-02T06:29:00Z</time></trkpt><trkpt lat="43.44370489631647" lon="11.477281515767555"><ele>635.6</ele><time>2026-05-02T06:29:01Z</time></trkpt><trkpt lat="43.44370465003829" lon="11.477114244096526"><ele>633.8</ele><time>2026-05-02T06:29:02Z</time></trkpt><trkpt lat="43.44363886235538" lon="11.476994368893422"><ele>632.0</ele><time>2026-05-02T06:29:03Z</time></trkpt><trkpt lat="43.443567756852204" lon="11.47690855204657"><ele>632.0</ele><time>2026-05-02T06:29:04Z</time></trkpt><trkpt lat="43.44345539784322" lon="11.476921558283031"><ele>632.0</ele><time>2026-05-02T06:29:05Z</time></trkpt><trkpt lat="43.44336903485139" lon="11.477060265417304"><ele>632.0</ele><time>2026-05-02T06:29:06Z</time></trkpt><trkpt lat="43.4433369209367" lon="11.477196067710455"><ele>632.0</ele><time>2026-05-02T06:29:07Z</time></trkpt><trkpt lat="43.44338682342966" lon="11.477341409016791"><ele>629.8000000000001</ele><time>2026-05-02T06:29:08Z</time></trkpt><trkpt lat="43.4434752497652" lon="11.477464698471438"><ele>627.6</ele><time>2026-05-02T06:29:09Z</time></trkpt><trkpt lat="43.4435822511663" lon="11.477555072139879"><ele>625.4000000000001</ele><time>2026-05-02T06:29:10Z</time></trkpt><trkpt lat="43.443665412276864" lon="11.47762882358015"><ele>623.2</ele><time>2026-05-02T06:29:11Z</time></trkpt><trkpt lat="43.4437083631625" lon="11.477709079343663"><ele>621.0</ele><time>2026-05-02T06:29:12Z</time></trkpt><trkpt lat="43.44370116682658" lon="11.477814212510953"><ele>621.0</ele><time>2026-05-02T06:29:13Z</time></trkpt><trkpt lat="43.44364909666761" lon="11.47791432898842"><ele>621.0</ele><time>2026-05-02T06:29:14Z</time></trkpt><trkpt lat="43.44356306659336" lon="11.4779654724193"><ele>621.0</ele><time>2026-05-02T06:29:15Z</time></trkpt><trkpt lat="43.44346761025425" lon="11.47794187349798"><ele>621.0</ele><time>2026-05-02T06:29:16Z</time></trkpt><trkpt lat="43.44341234171212" lon="11.47780631965016"><ele>621.0</ele><time>2026-05-02T06:29:17Z</time></trkpt><trkpt lat="43.44338055049306" lon="11.477659040833212"><ele>621.0</ele><time>2026-05-02T06:29:18Z</time></trkpt><trkpt lat="43.443316255128835" lon="11.477515899989926"><ele>621.0</ele><time>2026-05-02T06:29:19Z</time></trkpt><trkpt lat="43.44326943112752" lon="11.477399652617272"><ele>621.0</ele><time>2026-05-02T06:29:20Z</time></trkpt><trkpt lat="43.44315843039725" lon="11.477323671412629"><ele>621.0</ele><time>2026-05-02T06:29:21Z</time></trkpt><trkpt lat="43.44302883387674" lon="11.477252259334307"><ele>617.25</ele><time>2026-05-02T06:29:22Z</time></trkpt><trkpt lat="43.442900029041674" lon="11.477173163249953"><ele>613.5</ele><time>2026-05-02T06:29:23Z</time></trkpt><trkpt lat="43.44278358457617" lon="11.477086705832061"><ele>609.75</ele><time>2026-05-02T06:29:24Z</time></trkpt><trkpt lat="43.44269562143552" lon="11.476976104611518"><ele>606.0</ele><time>2026-05-02T06:29:25Z</time></trkpt><trkpt lat="43.44264553662045" lon="11.476833018000757"><ele>606.0</ele><time>2026-05-02T06:29:26Z</time></trkpt><trkpt lat="43.44262391455382" lon="11.47667226815032"><ele>606.0</ele><time>2026-05-02T06:29:27Z</time></trkpt><trkpt lat="43.44259730845222" lon="11.476493205472744"><ele>606.0</ele><time>2026-05-02T06:29:28Z</time></trkpt><trkpt lat="43.44256634991976" lon="11.47631048983972"><ele>606.0</ele><time>2026-05-02T06:29:29Z</time></trkpt><trkpt lat="43.44248276894158" lon="11.476137278114901"><ele>607.6666666666666</ele><time>2026-05-02T06:29:30Z</time></trkpt><trkpt lat="43.44237186310743" lon="11.475974630896172"><ele>609.3333333333333</ele><time>2026-05-02T06:29:31Z</time></trkpt><trkpt lat="43.44224004774661" lon="11.47583398536595"><ele>611.0</ele><time>2026-05-02T06:29:31.999Z</time></trkpt><trkpt lat="43.442128376253855" lon="11.475669185521316"><ele>605.0</ele><time>2026-05-02T06:29:32.999Z</time></trkpt><trkpt lat="43.44202461895938" lon="11.475510473418826"><ele>599.0</ele><time>2026-05-02T06:29:33.999Z</time></trkpt><trkpt lat="43.44194973265583" lon="11.4753533206739"><ele>593.0</ele><time>2026-05-02T06:29:34.999Z</time></trkpt><trkpt lat="43.441919275761215" lon="11.475184968197308"><ele>587.0</ele><time>2026-05-02T06:29:35.999Z</time></trkpt><trkpt lat="43.4419412466345" lon="11.475015218919479"><ele>587.0</ele><time>2026-05-02T06:29:36.999Z</time></trkpt><trkpt lat="43.44196645508741" lon="11.474820862588947"><ele>587.0</ele><time>2026-05-02T06:29:37.999Z</time></trkpt><trkpt lat="43.44198756773776" lon="11.474626233837666"><ele>587.0</ele><time>2026-05-02T06:29:38.999Z</time></trkpt><trkpt lat="43.44195372117857" lon="11.474441093963414"><ele>587.0</ele><time>2026-05-02T06:29:39.999Z</time></trkpt><trkpt lat="43.4418695001697" lon="11.474281521370004"><ele>588.6666666666666</ele><time>2026-05-02T06:29:40.999Z</time></trkpt><trkpt lat="43.44174558464677" lon="11.474150880327048"><ele>590.3333333333334</ele><time>2026-05-02T06:29:41.999Z</time></trkpt><trkpt lat="43.44161479117699" lon="11.474021975297273"><ele>592.0</ele><time>2026-05-02T06:29:42.999Z</time></trkpt><trkpt lat="43.44155247874794" lon="11.473852752879003"><ele>591.3333333333334</ele><time>2026-05-02T06:29:43.999Z</time></trkpt><trkpt lat="43.44151485817018" lon="11.473658031401717"><ele>590.6666666666666</ele><time>2026-05-02T06:29:44.999Z</time></trkpt><trkpt lat="43.44149923312564" lon="11.473440662398648"><ele>590.0</ele><time>2026-05-02T06:29:45.999Z</time></trkpt><trkpt lat="43.44147504123574" lon="11.473224651400335"><ele>590.0</ele><time>2026-05-02T06:29:46.999Z</time></trkpt><trkpt lat="43.44148505117182" lon="11.47304098808812"><ele>590.0</ele><time>2026-05-02T06:29:47.999Z</time></trkpt><trkpt lat="43.44151228876046" lon="11.472867342654506"><ele>590.0</ele><time>2026-05-02T06:29:48.999Z</time></trkpt><trkpt lat="43.4415696751076" lon="11.472724843964626"><ele>590.0</ele><time>2026-05-02T06:29:49.999Z</time></trkpt><trkpt lat="43.44166038095194" lon="11.472647663394484"><ele>587.75</ele><time>2026-05-02T06:29:50.999Z</time></trkpt><trkpt lat="43.44177253816413" lon="11.472679724756615"><ele>585.5</ele><time>2026-05-02T06:29:51.999Z</time></trkpt><trkpt lat="43.44188948528053" lon="11.47269212115354"><ele>583.25</ele><time>2026-05-02T06:29:52.999Z</time></trkpt><trkpt lat="43.44199747898019" lon="11.47268869515469"><ele>581.0</ele><time>2026-05-02T06:29:53.999Z</time></trkpt><trkpt lat="43.44207649275492" lon="11.47257440130388"><ele>581.0</ele><time>2026-05-02T06:29:54.999Z</time></trkpt><trkpt lat="43.44209450322043" lon="11.472370908985532"><ele>581.0</ele><time>2026-05-02T06:29:55.999Z</time></trkpt><trkpt lat="43.44206602336509" lon="11.472159274860005"><ele>581.0</ele><time>2026-05-02T06:29:56.999Z</time></trkpt><trkpt lat="43.442033157157326" lon="11.471930221777159"><ele>577.0</ele><time>2026-05-02T06:29:57.999Z</time></trkpt><trkpt lat="43.44203734574164" lon="11.471685538039218"><ele>573.0</ele><time>2026-05-02T06:29:58.999Z</time></trkpt><trkpt lat="43.44204820238803" lon="11.471437209891784"><ele>569.0</ele><time>2026-05-02T06:29:59.999Z</time></trkpt><trkpt lat="43.442060326590976" lon="11.471183585749193"><ele>565.6666666666666</ele><time>2026-05-02T06:30:00.999Z</time></trkpt><trkpt lat="43.44206995500668" lon="11.470942213307065"><ele>562.3333333333334</ele><time>2026-05-02T06:30:01.999Z</time></trkpt><trkpt lat="43.442084289494524" lon="11.47071060596705"><ele>559.0</ele><time>2026-05-02T06:30:02.999Z</time></trkpt><trkpt lat="43.44213146429016" lon="11.470505223432362"><ele>560.5</ele><time>2026-05-02T06:30:03.999Z</time></trkpt><trkpt lat="43.442192761308384" lon="11.47032535204951"><ele>562.0</ele><time>2026-05-02T06:30:04.999Z</time></trkpt><trkpt lat="43.44225656098507" lon="11.470172456095844"><ele>563.5</ele><time>2026-05-02T06:30:05.999Z</time></trkpt><trkpt lat="43.44232607491827" lon="11.470045057854154"><ele>565.0</ele><time>2026-05-02T06:30:06.999Z</time></trkpt><trkpt lat="43.44240360488426" lon="11.469958663005807"><ele>565.0</ele><time>2026-05-02T06:30:07.999Z</time></trkpt><trkpt lat="43.44251799598724" lon="11.469966058992881"><ele>565.0</ele><time>2026-05-02T06:30:08.999Z</time></trkpt><trkpt lat="43.44261481095626" lon="11.470075717341107"><ele>565.0</ele><time>2026-05-02T06:30:09.999Z</time></trkpt><trkpt lat="43.44273048684478" lon="11.47017173443724"><ele>565.0</ele><time>2026-05-02T06:30:10.999Z</time></trkpt><trkpt lat="43.44284424708708" lon="11.47025505647917"><ele>565.0</ele><time>2026-05-02T06:30:11.999Z</time></trkpt><trkpt lat="43.44296206660509" lon="11.47024551109851"><ele>565.0</ele><time>2026-05-02T06:30:12.999Z</time></trkpt><trkpt lat="43.44308077413442" lon="11.47013305579737"><ele>565.0</ele><time>2026-05-02T06:30:13.999Z</time></trkpt><trkpt lat="43.44316912748494" lon="11.469948878016535"><ele>565.0</ele><time>2026-05-02T06:30:14.999Z</time></trkpt><trkpt lat="43.44322252792746" lon="11.469741495126575"><ele>562.5</ele><time>2026-05-02T06:30:15.999Z</time></trkpt><trkpt lat="43.44330538588607" lon="11.46959952933039"><ele>560.0</ele><time>2026-05-02T06:30:16.999Z</time></trkpt><trkpt lat="43.4434106216877" lon="11.469537824673456"><ele>557.5</ele><time>2026-05-02T06:30:17.999Z</time></trkpt><trkpt lat="43.44352427887702" lon="11.469434606720027"><ele>555.0</ele><time>2026-05-02T06:30:18.999Z</time></trkpt><trkpt lat="43.4435963165245" lon="11.46932067685567"><ele>555.0</ele><time>2026-05-02T06:30:19.999Z</time></trkpt><trkpt lat="43.443596555499845" lon="11.469154125289538"><ele>555.0</ele><time>2026-05-02T06:30:20.999Z</time></trkpt><trkpt lat="43.443528229775225" lon="11.468970680894843"><ele>555.0</ele><time>2026-05-02T06:30:21.999Z</time></trkpt><trkpt lat="43.44347628972763" lon="11.468803749258848"><ele>555.0</ele><time>2026-05-02T06:30:22.999Z</time></trkpt><trkpt lat="43.44345923877577" lon="11.468651254928645"><ele>553.75</ele><time>2026-05-02T06:30:23.999Z</time></trkpt><trkpt lat="43.443505477598684" lon="11.468498400682961"><ele>552.5</ele><time>2026-05-02T06:30:25Z</time></trkpt><trkpt lat="43.443501636657984" lon="11.468296478282832"><ele>551.25</ele><time>2026-05-02T06:30:26Z</time></trkpt><trkpt lat="43.44346614599608" lon="11.468105042909325"><ele>550.0</ele><time>2026-05-02T06:30:27Z</time></trkpt><trkpt lat="43.44334188652228" lon="11.46789980484702"><ele>550.0</ele><time>2026-05-02T06:30:28Z</time></trkpt><trkpt lat="43.44322673673182" lon="11.467657630704643"><ele>550.0</ele><time>2026-05-02T06:30:29Z</time></trkpt><trkpt lat="43.4431064317471" lon="11.467446944712481"><ele>550.0</ele><time>2026-05-02T06:30:30Z</time></trkpt><trkpt lat="43.44296458315397" lon="11.467290234482745"><ele>545.25</ele><time>2026-05-02T06:30:31Z</time></trkpt><trkpt lat="43.44283086807137" lon="11.467159752463257"><ele>540.5</ele><time>2026-05-02T06:30:32Z</time></trkpt><trkpt lat="43.44271681712001" lon="11.467049240849585"><ele>535.75</ele><time>2026-05-02T06:30:33Z</time></trkpt><trkpt lat="43.442625931688546" lon="11.466951731809996"><ele>531.0</ele><time>2026-05-02T06:30:34Z</time></trkpt><trkpt lat="43.442556113185304" lon="11.466851738619038"><ele>531.0</ele><time>2026-05-02T06:30:35Z</time></trkpt><trkpt lat="43.44253087316635" lon="11.466735412005136"><ele>531.0</ele><time>2026-05-02T06:30:36Z</time></trkpt><trkpt lat="43.44255145743097" lon="11.466607119864848"><ele>531.0</ele><time>2026-05-02T06:30:37Z</time></trkpt><trkpt lat="43.442645171869096" lon="11.466500278287567"><ele>531.0</ele><time>2026-05-02T06:30:38Z</time></trkpt><trkpt lat="43.442775429507776" lon="11.466449970480822"><ele>531.0</ele><time>2026-05-02T06:30:39Z</time></trkpt><trkpt lat="43.44289864658096" lon="11.466340881190723"><ele>530.0</ele><time>2026-05-02T06:30:40Z</time></trkpt><trkpt lat="43.44300041547863" lon="11.466181786748546"><ele>529.0</ele><time>2026-05-02T06:30:41Z</time></trkpt><trkpt lat="43.443102135117044" lon="11.466029249419467"><ele>528.0</ele><time>2026-05-02T06:30:42Z</time></trkpt><trkpt lat="43.44319971860787" lon="11.465915304452206"><ele>527.0</ele><time>2026-05-02T06:30:43Z</time></trkpt><trkpt lat="43.443315790669" lon="11.465909805464106"><ele>527.0</ele><time>2026-05-02T06:30:44Z</time></trkpt><trkpt lat="43.44345768614212" lon="11.465878367313413"><ele>527.0</ele><time>2026-05-02T06:30:45Z</time></trkpt><trkpt lat="43.443605080089576" lon="11.465858642340086"><ele>527.0</ele><time>2026-05-02T06:30:46Z</time></trkpt><trkpt lat="43.44375877731061" lon="11.46586333415189"><ele>527.0</ele><time>2026-05-02T06:30:47Z</time></trkpt><trkpt lat="43.443914558368284" lon="11.465902329058933"><ele>526.5</ele><time>2026-05-02T06:30:48Z</time></trkpt><trkpt lat="43.44405784606776" lon="11.465965037790514"><ele>526.0</ele><time>2026-05-02T06:30:49Z</time></trkpt><trkpt lat="43.4441841437611" lon="11.466002680506271"><ele>525.5</ele><time>2026-05-02T06:30:50Z</time></trkpt><trkpt lat="43.444283917359485" lon="11.465964979763918"><ele>525.0</ele><time>2026-05-02T06:30:51Z</time></trkpt><trkpt lat="43.444369474803004" lon="11.46585564341726"><ele>525.0</ele><time>2026-05-02T06:30:52Z</time></trkpt><trkpt lat="43.444409154330074" lon="11.46568085025491"><ele>525.0</ele><time>2026-05-02T06:30:53Z</time></trkpt><trkpt lat="43.44438024227478" lon="11.465515252698061"><ele>525.0</ele><time>2026-05-02T06:30:54Z</time></trkpt><trkpt lat="43.4443027043108" lon="11.465364028039183"><ele>525.0</ele><time>2026-05-02T06:30:55Z</time></trkpt><trkpt lat="43.44420037541686" lon="11.465209856470807"><ele>522.75</ele><time>2026-05-02T06:30:56Z</time></trkpt><trkpt lat="43.44413024126008" lon="11.465040032893162"><ele>520.5</ele><time>2026-05-02T06:30:57Z</time></trkpt><trkpt lat="43.444147845054175" lon="11.464841719293442"><ele>518.25</ele><time>2026-05-02T06:30:58Z</time></trkpt><trkpt lat="43.444127137817745" lon="11.464620498161924"><ele>516.0</ele><time>2026-05-02T06:30:59Z</time></trkpt><trkpt lat="43.44409884109015" lon="11.464429245833214"><ele>515.0</ele><time>2026-05-02T06:31:00Z</time></trkpt><trkpt lat="43.444083125220885" lon="11.4642895088875"><ele>514.0</ele><time>2026-05-02T06:31:01Z</time></trkpt><trkpt lat="43.44410124011498" lon="11.464170284608212"><ele>513.0</ele><time>2026-05-02T06:31:02Z</time></trkpt><trkpt lat="43.44418162955758" lon="11.464077311686905"><ele>512.0</ele><time>2026-05-02T06:31:03Z</time></trkpt><trkpt lat="43.444273288798044" lon="11.46395621474386"><ele>511.0</ele><time>2026-05-02T06:31:04Z</time></trkpt><trkpt lat="43.444355720473716" lon="11.463815200746167"><ele>509.5</ele><time>2026-05-02T06:31:05Z</time></trkpt><trkpt lat="43.44443043717042" lon="11.46368561974658"><ele>508.0</ele><time>2026-05-02T06:31:06Z</time></trkpt><trkpt lat="43.44444887051142" lon="11.463532766688287"><ele>506.5</ele><time>2026-05-02T06:31:07Z</time></trkpt><trkpt lat="43.444404561426374" lon="11.463373823272883"><ele>505.0</ele><time>2026-05-02T06:31:08Z</time></trkpt><trkpt lat="43.444300738502825" lon="11.463253063767661"><ele>505.0</ele><time>2026-05-02T06:31:09Z</time></trkpt><trkpt lat="43.44415854354274" lon="11.463186558722649"><ele>505.0</ele><time>2026-05-02T06:31:10Z</time></trkpt><trkpt lat="43.443993815135904" lon="11.463139004727955"><ele>505.0</ele><time>2026-05-02T06:31:11Z</time></trkpt><trkpt lat="43.44385396709505" lon="11.46308994705356"><ele>504.6</ele><time>2026-05-02T06:31:12Z</time></trkpt><trkpt lat="43.4437573508956" lon="11.462988815314707"><ele>504.2</ele><time>2026-05-02T06:31:13Z</time></trkpt><trkpt lat="43.443736065513676" lon="11.462886236003053"><ele>503.79999999999995</ele><time>2026-05-02T06:31:14Z</time></trkpt><trkpt lat="43.443727604626915" lon="11.462739368822993"><ele>503.4</ele><time>2026-05-02T06:31:15Z</time></trkpt><trkpt lat="43.44380705987312" lon="11.462604643742585"><ele>503.0</ele><time>2026-05-02T06:31:16Z</time></trkpt><trkpt lat="43.44385215289306" lon="11.462457080231442"><ele>503.0</ele><time>2026-05-02T06:31:17Z</time></trkpt><trkpt lat="43.44388509223771" lon="11.46231066292459"><ele>503.0</ele><time>2026-05-02T06:31:18Z</time></trkpt><trkpt lat="43.44386596188611" lon="11.462152183439342"><ele>503.0</ele><time>2026-05-02T06:31:19Z</time></trkpt><trkpt lat="43.44383096070087" lon="11.461980703414884"><ele>503.0</ele><time>2026-05-02T06:31:20Z</time></trkpt><trkpt lat="43.44380356080181" lon="11.461795660192905"><ele>501.0</ele><time>2026-05-02T06:31:21Z</time></trkpt><trkpt lat="43.443805252035" lon="11.461618980695947"><ele>499.0</ele><time>2026-05-02T06:31:22Z</time></trkpt><trkpt lat="43.44386807331057" lon="11.461438318225806"><ele>497.0</ele><time>2026-05-02T06:31:23Z</time></trkpt><trkpt lat="43.44391867754424" lon="11.461219599506743"><ele>495.0</ele><time>2026-05-02T06:31:24Z</time></trkpt><trkpt lat="43.44398599810762" lon="11.461015103467966"><ele>493.25</ele><time>2026-05-02T06:31:25Z</time></trkpt><trkpt lat="43.4440208781466" lon="11.460825211750159"><ele>491.5</ele><time>2026-05-02T06:31:26Z</time></trkpt><trkpt lat="43.44401214502539" lon="11.460643097380853"><ele>489.75</ele><time>2026-05-02T06:31:27Z</time></trkpt><trkpt lat="43.443934914145686" lon="11.460485724736085"><ele>488.0</ele><time>2026-05-02T06:31:28Z</time></trkpt><trkpt lat="43.44382871000962" lon="11.460351059224562"><ele>490.66666666666663</ele><time>2026-05-02T06:31:29Z</time></trkpt><trkpt lat="43.44368877490564" lon="11.460275005579028"><ele>493.33333333333337</ele><time>2026-05-02T06:31:30Z</time></trkpt><trkpt lat="43.443540777228954" lon="11.460267957644248"><ele>496.0</ele><time>2026-05-02T06:31:31Z</time></trkpt><trkpt lat="43.4433949978461" lon="11.460336475916518"><ele>496.0</ele><time>2026-05-02T06:31:32Z</time></trkpt><trkpt lat="43.44324707457595" lon="11.460441299103715"><ele>496.0</ele><time>2026-05-02T06:31:32.999Z</time></trkpt><trkpt lat="43.443109703488425" lon="11.46045967739152"><ele>496.0</ele><time>2026-05-02T06:31:33.999Z</time></trkpt><trkpt lat="43.443004699085144" lon="11.460401502722853"><ele>496.0</ele><time>2026-05-02T06:31:34.999Z</time></trkpt><trkpt lat="43.44293418230468" lon="11.46027162461268"><ele>494.6666666666667</ele><time>2026-05-02T06:31:35.999Z</time></trkpt><trkpt lat="43.44288389286247" lon="11.460111473893903"><ele>493.33333333333337</ele><time>2026-05-02T06:31:36.999Z</time></trkpt><trkpt lat="43.442814508152246" lon="11.45990657140672"><ele>492.0</ele><time>2026-05-02T06:31:37.999Z</time></trkpt><trkpt lat="43.44273326564786" lon="11.459670409824653"><ele>494.0</ele><time>2026-05-02T06:31:38.999Z</time></trkpt><trkpt lat="43.44262429521455" lon="11.459462495605896"><ele>496.0</ele><time>2026-05-02T06:31:39.999Z</time></trkpt><trkpt lat="43.44250042403159" lon="11.459332344133196"><ele>498.0</ele><time>2026-05-02T06:31:40.999Z</time></trkpt><trkpt lat="43.442379420688056" lon="11.459257274327436"><ele>498.0</ele><time>2026-05-02T06:31:41.999Z</time></trkpt><trkpt lat="43.44223561359647" lon="11.459251876506547"><ele>498.0</ele><time>2026-05-02T06:31:42.999Z</time></trkpt><trkpt lat="43.44208997163006" lon="11.459287875531171"><ele>498.0</ele><time>2026-05-02T06:31:43.999Z</time></trkpt><trkpt lat="43.44194380039028" lon="11.459351489810263"><ele>498.0</ele><time>2026-05-02T06:31:44.999Z</time></trkpt><trkpt lat="43.441813016507986" lon="11.459357843762103"><ele>500.25</ele><time>2026-05-02T06:31:45.999Z</time></trkpt><trkpt lat="43.44170162359656" lon="11.459334818734838"><ele>502.5</ele><time>2026-05-02T06:31:46.999Z</time></trkpt><trkpt lat="43.44159820138483" lon="11.459266124452693"><ele>504.75</ele><time>2026-05-02T06:31:47.999Z</time></trkpt><trkpt lat="43.441506153764884" lon="11.459171514866378"><ele>507.0</ele><time>2026-05-02T06:31:48.999Z</time></trkpt><trkpt lat="43.44140982323472" lon="11.459058069803502"><ele>507.0</ele><time>2026-05-02T06:31:49.999Z</time></trkpt><trkpt lat="43.44131547836927" lon="11.458953838056612"><ele>507.0</ele><time>2026-05-02T06:31:50.999Z</time></trkpt><trkpt lat="43.44125851045499" lon="11.458850531110388"><ele>507.0</ele><time>2026-05-02T06:31:51.999Z</time></trkpt><trkpt lat="43.441244996444496" lon="11.458745859296718"><ele>507.0</ele><time>2026-05-02T06:31:52.999Z</time></trkpt><trkpt lat="43.44123635828354" lon="11.45865258527427"><ele>507.0</ele><time>2026-05-02T06:31:53.999Z</time></trkpt><trkpt lat="43.44125650093885" lon="11.45856165535045"><ele>507.0</ele><time>2026-05-02T06:31:54.999Z</time></trkpt><trkpt lat="43.44128084879806" lon="11.458477100648498"><ele>508.6</ele><time>2026-05-02T06:31:55.999Z</time></trkpt><trkpt lat="43.4413530903983" lon="11.458350558868645"><ele>510.20000000000005</ele><time>2026-05-02T06:31:57.999Z</time></trkpt><trkpt lat="43.441461634800305" lon="11.45826139251427"><ele>511.8</ele><time>2026-05-02T06:31:59.999Z</time></trkpt><trkpt lat="43.44151856695197" lon="11.458219117057377"><ele>513.4</ele><time>2026-05-02T06:32:00.999Z</time></trkpt><trkpt lat="43.44157547727506" lon="11.45818115682364"><ele>515.0</ele><time>2026-05-02T06:32:01.999Z</time></trkpt><trkpt lat="43.44166472323987" lon="11.458139127419344"><ele>515.0</ele><time>2026-05-02T06:32:03.999Z</time></trkpt><trkpt lat="43.44175271156013" lon="11.458111001602973"><ele>515.0</ele><time>2026-05-02T06:32:07.999Z</time></trkpt><trkpt lat="43.44177140284019" lon="11.458025440743242"><ele>515.0</ele><time>2026-05-02T06:33:02Z</time></trkpt><trkpt lat="43.44183731686587" lon="11.457928754721994"><ele>515.0</ele><time>2026-05-02T06:34:18.999Z</time></trkpt><trkpt lat="43.44192090792178" lon="11.457825147021179"><ele>515.0</ele><time>2026-05-02T06:34:20.999Z</time></trkpt><trkpt lat="43.44195428450103" lon="11.45774785455985"><ele>515.0</ele><time>2026-05-02T06:34:21.999Z</time></trkpt><trkpt lat="43.44198174789504" lon="11.457664011899144"><ele>514.4285714285714</ele><time>2026-05-02T06:34:22.999Z</time></trkpt><trkpt lat="43.44200691006411" lon="11.45758116357142"><ele>513.8571428571429</ele><time>2026-05-02T06:34:23.999Z</time></trkpt><trkpt lat="43.44202938800628" lon="11.457491913292928"><ele>513.2857142857142</ele><time>2026-05-02T06:34:24.999Z</time></trkpt><trkpt lat="43.442048115166955" lon="11.45739441334263"><ele>512.7142857142858</ele><time>2026-05-02T06:34:25.999Z</time></trkpt><trkpt lat="43.44205648295041" lon="11.45729837684919"><ele>512.1428571428571</ele><time>2026-05-02T06:34:26.999Z</time></trkpt><trkpt lat="43.44206425226806" lon="11.45719463055193"><ele>511.57142857142856</ele><time>2026-05-02T06:34:27.999Z</time></trkpt><trkpt lat="43.44207400007683" lon="11.45709827022714"><ele>511.0</ele><time>2026-05-02T06:34:28.999Z</time></trkpt><trkpt lat="43.442085019240125" lon="11.457004166106602"><ele>510.7142857142857</ele><time>2026-05-02T06:34:29.999Z</time></trkpt><trkpt lat="43.44209602281869" lon="11.456909567171305"><ele>510.42857142857144</ele><time>2026-05-02T06:34:30.999Z</time></trkpt><trkpt lat="43.442106715036665" lon="11.456804727742414"><ele>510.1428571428571</ele><time>2026-05-02T06:34:31.999Z</time></trkpt><trkpt lat="43.44211338511468" lon="11.456698438233934"><ele>509.85714285714283</ele><time>2026-05-02T06:34:32.999Z</time></trkpt><trkpt lat="43.44212081815403" lon="11.456598533230341"><ele>509.57142857142856</ele><time>2026-05-02T06:34:33.999Z</time></trkpt><trkpt lat="43.442119614170764" lon="11.456507613919385"><ele>509.2857142857142</ele><time>2026-05-02T06:34:34.999Z</time></trkpt><trkpt lat="43.44212030077361" lon="11.456415042230441"><ele>508.99999999999994</ele><time>2026-05-02T06:34:35.999Z</time></trkpt><trkpt lat="43.44213045937675" lon="11.456315966625091"><ele>507.4</ele><time>2026-05-02T06:34:37Z</time></trkpt><trkpt lat="43.4421386329125" lon="11.456226151132324"><ele>505.79999999999995</ele><time>2026-05-02T06:34:38Z</time></trkpt><trkpt lat="43.442157604326695" lon="11.456070297671541"><ele>504.20000000000005</ele><time>2026-05-02T06:34:40Z</time></trkpt><trkpt lat="43.4421761888886" lon="11.455927604700197"><ele>502.6</ele><time>2026-05-02T06:34:42Z</time></trkpt><trkpt lat="43.442195283812715" lon="11.455788369213936"><ele>501.0</ele><time>2026-05-02T06:34:44Z</time></trkpt><trkpt lat="43.4422151453988" lon="11.455647000768264"><ele>501.0</ele><time>2026-05-02T06:34:46Z</time></trkpt><trkpt lat="43.44223272744103" lon="11.455542884102584"><ele>501.0</ele><time>2026-05-02T06:34:48Z</time></trkpt><trkpt lat="43.442247826836265" lon="11.455388417661393"><ele>501.0</ele><time>2026-05-02T06:35:29Z</time></trkpt><trkpt lat="43.442249543281505" lon="11.455282242939546"><ele>501.0</ele><time>2026-05-02T06:35:30Z</time></trkpt><trkpt lat="43.442252782117315" lon="11.455176482774121"><ele>501.0</ele><time>2026-05-02T06:35:31Z</time></trkpt><trkpt lat="43.442253205217646" lon="11.455061063401967"><ele>501.0</ele><time>2026-05-02T06:35:32Z</time></trkpt><trkpt lat="43.44225145084254" lon="11.454942948524542"><ele>500.8</ele><time>2026-05-02T06:35:33Z</time></trkpt><trkpt lat="43.44225192929667" lon="11.45482643490629"><ele>500.6</ele><time>2026-05-02T06:35:34Z</time></trkpt><trkpt lat="43.44225257066844" lon="11.454701782788835"><ele>500.4</ele><time>2026-05-02T06:35:35Z</time></trkpt><trkpt lat="43.442252842577304" lon="11.454572706468657"><ele>500.2</ele><time>2026-05-02T06:35:36Z</time></trkpt><trkpt lat="43.44225580968165" lon="11.454440777028845"><ele>500.0</ele><time>2026-05-02T06:35:37Z</time></trkpt><trkpt lat="43.442260781617" lon="11.454306096382624"><ele>500.2</ele><time>2026-05-02T06:35:38Z</time></trkpt><trkpt lat="43.442266126904165" lon="11.454173748200962"><ele>500.4</ele><time>2026-05-02T06:35:39Z</time></trkpt><trkpt lat="43.44228085165106" lon="11.454038817778345"><ele>500.6</ele><time>2026-05-02T06:35:40Z</time></trkpt><trkpt lat="43.442302528625156" lon="11.453902664746355"><ele>500.8</ele><time>2026-05-02T06:35:41Z</time></trkpt><trkpt lat="43.442327902410014" lon="11.45376546681366"><ele>501.0</ele><time>2026-05-02T06:35:42Z</time></trkpt><trkpt lat="43.44234960736498" lon="11.453619853562865"><ele>501.0</ele><time>2026-05-02T06:35:43Z</time></trkpt><trkpt lat="43.44237518200686" lon="11.45347215908548"><ele>501.0</ele><time>2026-05-02T06:35:44Z</time></trkpt><trkpt lat="43.44235909390941" lon="11.45331898983448"><ele>501.0</ele><time>2026-05-02T06:35:45Z</time></trkpt><trkpt lat="43.44233524742576" lon="11.453172464268803"><ele>501.0</ele><time>2026-05-02T06:35:46Z</time></trkpt><trkpt lat="43.44232058435674" lon="11.45302596535397"><ele>501.0</ele><time>2026-05-02T06:35:47Z</time></trkpt><trkpt lat="43.44230815165102" lon="11.452883485939102"><ele>500.6</ele><time>2026-05-02T06:35:48Z</time></trkpt><trkpt lat="43.442299734434776" lon="11.4527478070946"><ele>500.20000000000005</ele><time>2026-05-02T06:35:49Z</time></trkpt><trkpt lat="43.442284380066795" lon="11.452612015188356"><ele>499.79999999999995</ele><time>2026-05-02T06:35:50Z</time></trkpt><trkpt lat="43.4423080724297" lon="11.452484485344108"><ele>499.4</ele><time>2026-05-02T06:35:51Z</time></trkpt><trkpt lat="43.44236007485223" lon="11.45236125709474"><ele>499.0</ele><time>2026-05-02T06:35:52Z</time></trkpt><trkpt lat="43.44241886227251" lon="11.452233528405607"><ele>496.5</ele><time>2026-05-02T06:35:53Z</time></trkpt><trkpt lat="43.44248596378549" lon="11.45210117326353"><ele>494.0</ele><time>2026-05-02T06:35:54Z</time></trkpt><trkpt lat="43.44256203164596" lon="11.451958261664617"><ele>491.5</ele><time>2026-05-02T06:35:55Z</time></trkpt><trkpt lat="43.44263864747111" lon="11.45181391505927"><ele>489.0</ele><time>2026-05-02T06:35:56Z</time></trkpt><trkpt lat="43.44271787740941" lon="11.451661558361454"><ele>489.0</ele><time>2026-05-02T06:35:57Z</time></trkpt><trkpt lat="43.44279700261936" lon="11.451499288501418"><ele>489.0</ele><time>2026-05-02T06:35:58Z</time></trkpt><trkpt lat="43.442872712272674" lon="11.451328574854005"><ele>489.0</ele><time>2026-05-02T06:35:59Z</time></trkpt><trkpt lat="43.44283043051233" lon="11.451097058745278"><ele>487.0</ele><time>2026-05-02T06:36:01Z</time></trkpt><trkpt lat="43.44278675891818" lon="11.450929480496802"><ele>485.0</ele><time>2026-05-02T06:36:02Z</time></trkpt><trkpt lat="43.44273704565388" lon="11.450755199454193"><ele>483.0</ele><time>2026-05-02T06:36:02.999Z</time></trkpt><trkpt lat="43.44267654687355" lon="11.450584488270362"><ele>481.0</ele><time>2026-05-02T06:36:03.999Z</time></trkpt><trkpt lat="43.4426134780445" lon="11.450412931296357"><ele>480.5</ele><time>2026-05-02T06:36:04.999Z</time></trkpt><trkpt lat="43.442548624969085" lon="11.45023993939576"><ele>480.0</ele><time>2026-05-02T06:36:05.999Z</time></trkpt><trkpt lat="43.44248412508983" lon="11.450068542640269"><ele>479.5</ele><time>2026-05-02T06:36:06.999Z</time></trkpt><trkpt lat="43.44241964256918" lon="11.449897191974461"><ele>479.0</ele><time>2026-05-02T06:36:07.999Z</time></trkpt><trkpt lat="43.442356130166104" lon="11.449728419026089"><ele>479.0</ele><time>2026-05-02T06:36:08.999Z</time></trkpt><trkpt lat="43.44229502854597" lon="11.449561844446924"><ele>479.0</ele><time>2026-05-02T06:36:09.999Z</time></trkpt><trkpt lat="43.44223975929027" lon="11.449401002314989"><ele>479.0</ele><time>2026-05-02T06:36:10.999Z</time></trkpt><trkpt lat="43.442189399715886" lon="11.44924743154413"><ele>479.0</ele><time>2026-05-02T06:36:11.999Z</time></trkpt><trkpt lat="43.44215443416218" lon="11.449102756519606"><ele>479.0</ele><time>2026-05-02T06:36:12.999Z</time></trkpt><trkpt lat="43.44215591432729" lon="11.448962925542801"><ele>479.0</ele><time>2026-05-02T06:36:13.999Z</time></trkpt><trkpt lat="43.44216956598751" lon="11.448825755667478"><ele>479.0</ele><time>2026-05-02T06:36:14.999Z</time></trkpt><trkpt lat="43.44222620768734" lon="11.448694958627142"><ele>479.0</ele><time>2026-05-02T06:36:15.999Z</time></trkpt><trkpt lat="43.44229345757013" lon="11.448555473151545"><ele>479.0</ele><time>2026-05-02T06:36:16.999Z</time></trkpt><trkpt lat="43.44237227622275" lon="11.448406965507628"><ele>479.0</ele><time>2026-05-02T06:36:17.999Z</time></trkpt><trkpt lat="43.44245318977763" lon="11.44824883625067"><ele>479.0</ele><time>2026-05-02T06:36:18.999Z</time></trkpt><trkpt lat="43.44253124347029" lon="11.448086121715836"><ele>479.0</ele><time>2026-05-02T06:36:19.999Z</time></trkpt><trkpt lat="43.44260415761602" lon="11.447932275058598"><ele>479.0</ele><time>2026-05-02T06:36:20.999Z</time></trkpt><trkpt lat="43.442659740759694" lon="11.44778062261879"><ele>477.75</ele><time>2026-05-02T06:36:21.999Z</time></trkpt><trkpt lat="43.44270622768149" lon="11.44763064109913"><ele>476.5</ele><time>2026-05-02T06:36:22.999Z</time></trkpt><trkpt lat="43.442687051743135" lon="11.447467232418605"><ele>475.25</ele><time>2026-05-02T06:36:23.999Z</time></trkpt><trkpt lat="43.442644525856885" lon="11.447314259054979"><ele>474.0</ele><time>2026-05-02T06:36:24.999Z</time></trkpt><trkpt lat="43.44258006771796" lon="11.447175022047567"><ele>471.5</ele><time>2026-05-02T06:36:25.999Z</time></trkpt><trkpt lat="43.44248876949471" lon="11.447043287045435"><ele>469.0</ele><time>2026-05-02T06:36:26.999Z</time></trkpt><trkpt lat="43.442380286689996" lon="11.446917828818718"><ele>466.5</ele><time>2026-05-02T06:36:27.999Z</time></trkpt><trkpt lat="43.44226872758191" lon="11.446798222833229"><ele>464.0</ele><time>2026-05-02T06:36:28.999Z</time></trkpt><trkpt lat="43.4421731804258" lon="11.446662589563786"><ele>462.75</ele><time>2026-05-02T06:36:29.999Z</time></trkpt><trkpt lat="43.4420693834294" lon="11.446549263516266"><ele>461.5</ele><time>2026-05-02T06:36:30.999Z</time></trkpt><trkpt lat="43.44197203387719" lon="11.446440907274177"><ele>460.25</ele><time>2026-05-02T06:36:31.999Z</time></trkpt><trkpt lat="43.44188327732866" lon="11.446325404718587"><ele>459.0</ele><time>2026-05-02T06:36:32.999Z</time></trkpt><trkpt lat="43.441809837173246" lon="11.446188511354094"><ele>459.0</ele><time>2026-05-02T06:36:33.999Z</time></trkpt><trkpt lat="43.44174979006149" lon="11.446022823403359"><ele>459.0</ele><time>2026-05-02T06:36:34.999Z</time></trkpt><trkpt lat="43.441708710527195" lon="11.445854217988881"><ele>459.0</ele><time>2026-05-02T06:36:35.999Z</time></trkpt><trkpt lat="43.441674117712935" lon="11.445681389464553"><ele>459.0</ele><time>2026-05-02T06:36:36.999Z</time></trkpt><trkpt lat="43.441678593913" lon="11.445498752319647"><ele>458.0</ele><time>2026-05-02T06:36:37.999Z</time></trkpt><trkpt lat="43.44170638178738" lon="11.445318854225007"><ele>457.0</ele><time>2026-05-02T06:36:38.999Z</time></trkpt><trkpt lat="43.44175832347871" lon="11.445149973193109"><ele>456.0</ele><time>2026-05-02T06:36:39.999Z</time></trkpt><trkpt lat="43.44184269723585" lon="11.44499375944498"><ele>455.0</ele><time>2026-05-02T06:36:40.999Z</time></trkpt><trkpt lat="43.441930625461715" lon="11.444872029187085"><ele>455.0</ele><time>2026-05-02T06:36:41.999Z</time></trkpt><trkpt lat="43.44204516013974" lon="11.44472189472032"><ele>455.0</ele><time>2026-05-02T06:36:43Z</time></trkpt><trkpt lat="43.442155541509216" lon="11.444568385835035"><ele>455.0</ele><time>2026-05-02T06:36:44Z</time></trkpt><trkpt lat="43.442271269921186" lon="11.444423217682997"><ele>453.0</ele><time>2026-05-02T06:36:45Z</time></trkpt><trkpt lat="43.44238961134262" lon="11.444272504784848"><ele>451.0</ele><time>2026-05-02T06:36:46Z</time></trkpt><trkpt lat="43.44250980463943" lon="11.444120169862863"><ele>449.0</ele><time>2026-05-02T06:36:47Z</time></trkpt><trkpt lat="43.44262330137123" lon="11.443966406792988"><ele>448.3333333333333</ele><time>2026-05-02T06:36:48Z</time></trkpt><trkpt lat="43.442708336986136" lon="11.443769587100428"><ele>447.66666666666663</ele><time>2026-05-02T06:36:49Z</time></trkpt><trkpt lat="43.44276042848568" lon="11.443514037173209"><ele>447.0</ele><time>2026-05-02T06:36:50Z</time></trkpt><trkpt lat="43.4428081838832" lon="11.44325913703761"><ele>447.0</ele><time>2026-05-02T06:36:51Z</time></trkpt><trkpt lat="43.4428611561444" lon="11.443049843512894"><ele>447.0</ele><time>2026-05-02T06:36:52Z</time></trkpt><trkpt lat="43.44287970636373" lon="11.442838350547516"><ele>447.0</ele><time>2026-05-02T06:36:53Z</time></trkpt><trkpt lat="43.44285925654253" lon="11.44260457804031"><ele>447.33333333333337</ele><time>2026-05-02T06:36:54Z</time></trkpt><trkpt lat="43.44281235104139" lon="11.442377955402694"><ele>447.6666666666667</ele><time>2026-05-02T06:36:55Z</time></trkpt><trkpt lat="43.44276507556394" lon="11.442159245793434"><ele>448.0</ele><time>2026-05-02T06:36:56Z</time></trkpt><trkpt lat="43.44275360864448" lon="11.44195425791407"><ele>448.0</ele><time>2026-05-02T06:36:57Z</time></trkpt><trkpt lat="43.44274496606209" lon="11.441776558187373"><ele>448.0</ele><time>2026-05-02T06:36:58Z</time></trkpt><trkpt lat="43.44275801413059" lon="11.441609008078313"><ele>448.0</ele><time>2026-05-02T06:36:59Z</time></trkpt><trkpt lat="43.442801366823154" lon="11.44145375172151"><ele>448.0</ele><time>2026-05-02T06:37:00Z</time></trkpt><trkpt lat="43.44286799550075" lon="11.441310193356358"><ele>446.0</ele><time>2026-05-02T06:37:01Z</time></trkpt><trkpt lat="43.44295134195037" lon="11.441184906997428"><ele>444.0</ele><time>2026-05-02T06:37:02Z</time></trkpt><trkpt lat="43.443042683219275" lon="11.441058010356892"><ele>442.0</ele><time>2026-05-02T06:37:03Z</time></trkpt><trkpt lat="43.4431304147901" lon="11.440922338499044"><ele>440.0</ele><time>2026-05-02T06:37:04Z</time></trkpt><trkpt lat="43.443232349607534" lon="11.440801879511808"><ele>443.25</ele><time>2026-05-02T06:37:05Z</time></trkpt><trkpt lat="43.4433392192883" lon="11.440675916180147"><ele>446.5</ele><time>2026-05-02T06:37:06Z</time></trkpt><trkpt lat="43.44344120172312" lon="11.44054607939676"><ele>449.75</ele><time>2026-05-02T06:37:07Z</time></trkpt><trkpt lat="43.443531155144065" lon="11.440406432768649"><ele>453.0</ele><time>2026-05-02T06:37:08Z</time></trkpt><trkpt lat="43.44360498646175" lon="11.440250988636983"><ele>453.0</ele><time>2026-05-02T06:37:09Z</time></trkpt><trkpt lat="43.443654304167545" lon="11.440077066063537"><ele>453.0</ele><time>2026-05-02T06:37:10Z</time></trkpt><trkpt lat="43.44367867784303" lon="11.439890363984306"><ele>453.0</ele><time>2026-05-02T06:37:11Z</time></trkpt><trkpt lat="43.44367319057138" lon="11.439695505745728"><ele>453.0</ele><time>2026-05-02T06:37:12Z</time></trkpt><trkpt lat="43.44363371235707" lon="11.439505043007928"><ele>454.0</ele><time>2026-05-02T06:37:13Z</time></trkpt><trkpt lat="43.44354831256612" lon="11.439345846894996"><ele>455.0</ele><time>2026-05-02T06:37:14Z</time></trkpt><trkpt lat="43.44349328342476" lon="11.439185112022578"><ele>456.0</ele><time>2026-05-02T06:37:15Z</time></trkpt><trkpt lat="43.44344826856392" lon="11.439043412356705"><ele>457.0</ele><time>2026-05-02T06:37:16Z</time></trkpt><trkpt lat="43.44341827458665" lon="11.438914712304289"><ele>456.20000000000005</ele><time>2026-05-02T06:37:17Z</time></trkpt><trkpt lat="43.44341905026801" lon="11.438789933504909"><ele>455.40000000000003</ele><time>2026-05-02T06:37:18Z</time></trkpt><trkpt lat="43.44344608886895" lon="11.438663532685382"><ele>454.59999999999997</ele><time>2026-05-02T06:37:19Z</time></trkpt><trkpt lat="43.44353878277619" lon="11.438554350405093"><ele>453.79999999999995</ele><time>2026-05-02T06:37:20Z</time></trkpt><trkpt lat="43.44363455959092" lon="11.438443704229668"><ele>453.0</ele><time>2026-05-02T06:37:21Z</time></trkpt><trkpt lat="43.44371978946536" lon="11.438328888288016"><ele>453.75</ele><time>2026-05-02T06:37:22Z</time></trkpt><trkpt lat="43.443810096003375" lon="11.438249281718983"><ele>454.5</ele><time>2026-05-02T06:37:23Z</time></trkpt><trkpt lat="43.443930040498046" lon="11.438209297793286"><ele>455.25</ele><time>2026-05-02T06:37:24Z</time></trkpt><trkpt lat="43.444067086088616" lon="11.4381780240775"><ele>456.0</ele><time>2026-05-02T06:37:25Z</time></trkpt><trkpt lat="43.44420686510498" lon="11.438122994227827"><ele>456.0</ele><time>2026-05-02T06:37:26Z</time></trkpt><trkpt lat="43.44435317997146" lon="11.43805837597208"><ele>456.0</ele><time>2026-05-02T06:37:27Z</time></trkpt><trkpt lat="43.44450094711481" lon="11.43799378756303"><ele>456.0</ele><time>2026-05-02T06:37:28Z</time></trkpt><trkpt lat="43.44464185050467" lon="11.437934070162312"><ele>453.0</ele><time>2026-05-02T06:37:29Z</time></trkpt><trkpt lat="43.44476830388494" lon="11.437882131890348"><ele>450.0</ele><time>2026-05-02T06:37:30Z</time></trkpt><trkpt lat="43.44489076833056" lon="11.437824353524118"><ele>447.0</ele><time>2026-05-02T06:37:31Z</time></trkpt><trkpt lat="43.44501707046112" lon="11.437738785984799"><ele>444.0</ele><time>2026-05-02T06:37:32Z</time></trkpt><trkpt lat="43.44513838294957" lon="11.437623282998553"><ele>444.0</ele><time>2026-05-02T06:37:33Z</time></trkpt><trkpt lat="43.44524809992072" lon="11.437496810532394"><ele>444.0</ele><time>2026-05-02T06:37:34Z</time></trkpt><trkpt lat="43.44536121953181" lon="11.437367924581748"><ele>444.0</ele><time>2026-05-02T06:37:35Z</time></trkpt><trkpt lat="43.44546842444114" lon="11.437226459840026"><ele>444.0</ele><time>2026-05-02T06:37:36Z</time></trkpt><trkpt lat="43.44556658955372" lon="11.437065543350627"><ele>445.0</ele><time>2026-05-02T06:37:37Z</time></trkpt><trkpt lat="43.44565611032629" lon="11.43689295973508"><ele>446.0</ele><time>2026-05-02T06:37:38Z</time></trkpt><trkpt lat="43.44574923515562" lon="11.436726869616527"><ele>447.0</ele><time>2026-05-02T06:37:39Z</time></trkpt><trkpt lat="43.44584464819779" lon="11.436567633501937"><ele>447.0</ele><time>2026-05-02T06:37:40Z</time></trkpt><trkpt lat="43.445944090269755" lon="11.436400406507031"><ele>447.0</ele><time>2026-05-02T06:37:41Z</time></trkpt><trkpt lat="43.446044386171764" lon="11.43623240495388"><ele>447.0</ele><time>2026-05-02T06:37:42Z</time></trkpt><trkpt lat="43.44614385798094" lon="11.43606463885937"><ele>446.66666666666663</ele><time>2026-05-02T06:37:43Z</time></trkpt><trkpt lat="43.4462452356444" lon="11.435890109157063"><ele>446.3333333333333</ele><time>2026-05-02T06:37:44Z</time></trkpt><trkpt lat="43.44634888917003" lon="11.435714233508731"><ele>446.0</ele><time>2026-05-02T06:37:45Z</time></trkpt><trkpt lat="43.4464501812782" lon="11.435537070592417"><ele>443.3333333333333</ele><time>2026-05-02T06:37:46Z</time></trkpt><trkpt lat="43.446549300769625" lon="11.43536846352373"><ele>440.66666666666663</ele><time>2026-05-02T06:37:47Z</time></trkpt><trkpt lat="43.44664510179296" lon="11.43520582371439"><ele>438.0</ele><time>2026-05-02T06:37:48Z</time></trkpt><trkpt lat="43.446738470877115" lon="11.435049452556465"><ele>438.0</ele><time>2026-05-02T06:37:49Z</time></trkpt><trkpt lat="43.44684077293047" lon="11.434910869162763"><ele>438.0</ele><time>2026-05-02T06:37:50Z</time></trkpt><trkpt lat="43.44697206895026" lon="11.434825058227052"><ele>438.0</ele><time>2026-05-02T06:37:51Z</time></trkpt><trkpt lat="43.44711294907069" lon="11.43476771360774"><ele>438.0</ele><time>2026-05-02T06:37:52Z</time></trkpt><trkpt lat="43.44726463136069" lon="11.434703509690936"><ele>436.66666666666663</ele><time>2026-05-02T06:37:53Z</time></trkpt><trkpt lat="43.447424957435366" lon="11.434664274155505"><ele>435.3333333333333</ele><time>2026-05-02T06:37:54Z</time></trkpt><trkpt lat="43.44758783024252" lon="11.4346171215235"><ele>434.0</ele><time>2026-05-02T06:37:55Z</time></trkpt><trkpt lat="43.44775307666467" lon="11.434567418772366"><ele>434.0</ele><time>2026-05-02T06:37:56Z</time></trkpt><trkpt lat="43.44791673326137" lon="11.43451401553817"><ele>434.0</ele><time>2026-05-02T06:37:57Z</time></trkpt><trkpt lat="43.448070978048754" lon="11.434463769926412"><ele>434.0</ele><time>2026-05-02T06:37:58Z</time></trkpt><trkpt lat="43.44822163937313" lon="11.434415273029199"><ele>431.75</ele><time>2026-05-02T06:37:59Z</time></trkpt><trkpt lat="43.44836365388614" lon="11.43435577763002"><ele>429.5</ele><time>2026-05-02T06:37:59.999Z</time></trkpt><trkpt lat="43.44849159132206" lon="11.434243853015872"><ele>427.25</ele><time>2026-05-02T06:38:00.999Z</time></trkpt><trkpt lat="43.44859144547283" lon="11.434093356764253"><ele>425.0</ele><time>2026-05-02T06:38:01.999Z</time></trkpt><trkpt lat="43.44869135664417" lon="11.433967753907623"><ele>425.0</ele><time>2026-05-02T06:38:02.999Z</time></trkpt><trkpt lat="43.4487820317946" lon="11.433873511832859"><ele>425.0</ele><time>2026-05-02T06:38:03.999Z</time></trkpt><trkpt lat="43.448884341622204" lon="11.433826090432675"><ele>425.0</ele><time>2026-05-02T06:38:04.999Z</time></trkpt><trkpt lat="43.448997270883225" lon="11.433881632288987"><ele>425.0</ele><time>2026-05-02T06:38:05.999Z</time></trkpt><trkpt lat="43.44908782532423" lon="11.434010008744105"><ele>421.75</ele><time>2026-05-02T06:38:06.999Z</time></trkpt><trkpt lat="43.44913991649764" lon="11.434176150289904"><ele>418.5</ele><time>2026-05-02T06:38:07.999Z</time></trkpt><trkpt lat="43.44913280550399" lon="11.434357355047064"><ele>415.25</ele><time>2026-05-02T06:38:08.999Z</time></trkpt><trkpt lat="43.44906577492693" lon="11.434530963100022"><ele>412.0</ele><time>2026-05-02T06:38:09.999Z</time></trkpt><trkpt lat="43.448973815779325" lon="11.434712286048303"><ele>410.6666666666667</ele><time>2026-05-02T06:38:10.999Z</time></trkpt><trkpt lat="43.448889306181925" lon="11.434900023683403"><ele>409.33333333333337</ele><time>2026-05-02T06:38:11.999Z</time></trkpt><trkpt lat="43.448793822568845" lon="11.435073225857302"><ele>408.0</ele><time>2026-05-02T06:38:12.999Z</time></trkpt><trkpt lat="43.448676871517065" lon="11.435210254827584"><ele>408.5</ele><time>2026-05-02T06:38:13.999Z</time></trkpt><trkpt lat="43.448568023699124" lon="11.435335256371348"><ele>409.0</ele><time>2026-05-02T06:38:14.999Z</time></trkpt><trkpt lat="43.44847375355667" lon="11.435454126335165"><ele>409.5</ele><time>2026-05-02T06:38:15.999Z</time></trkpt><trkpt lat="43.448401822564705" lon="11.435566394154739"><ele>410.0</ele><time>2026-05-02T06:38:16.999Z</time></trkpt><trkpt lat="43.44836989319662" lon="11.435686028051084"><ele>410.0</ele><time>2026-05-02T06:38:17.999Z</time></trkpt><trkpt lat="43.44839074732591" lon="11.435804278849242"><ele>410.0</ele><time>2026-05-02T06:38:18.999Z</time></trkpt><trkpt lat="43.44847815438573" lon="11.435896500218146"><ele>410.0</ele><time>2026-05-02T06:38:19.999Z</time></trkpt><trkpt lat="43.448597757811655" lon="11.435953093413094"><ele>410.0</ele><time>2026-05-02T06:38:20.999Z</time></trkpt><trkpt lat="43.448733019162" lon="11.43597433089005"><ele>407.75</ele><time>2026-05-02T06:38:21.999Z</time></trkpt><trkpt lat="43.44887623325523" lon="11.435984442094489"><ele>405.5</ele><time>2026-05-02T06:38:22.999Z</time></trkpt><trkpt lat="43.44902328927907" lon="11.435993871820678"><ele>403.25</ele><time>2026-05-02T06:38:23.999Z</time></trkpt><trkpt lat="43.44916670669652" lon="11.436015008834973"><ele>401.0</ele><time>2026-05-02T06:38:24.999Z</time></trkpt><trkpt lat="43.449304949888145" lon="11.436023760761994"><ele>401.0</ele><time>2026-05-02T06:38:25.999Z</time></trkpt><trkpt lat="43.449434934984694" lon="11.435995570998717"><ele>401.0</ele><time>2026-05-02T06:38:26.999Z</time></trkpt><trkpt lat="43.449547819321594" lon="11.435920411495555"><ele>401.0</ele><time>2026-05-02T06:38:27.999Z</time></trkpt><trkpt lat="43.44964062462738" lon="11.435792610825763"><ele>401.0</ele><time>2026-05-02T06:38:28.999Z</time></trkpt><trkpt lat="43.44972471003529" lon="11.435622831241508"><ele>399.0</ele><time>2026-05-02T06:38:29.999Z</time></trkpt><trkpt lat="43.44982854504418" lon="11.43545620599721"><ele>397.0</ele><time>2026-05-02T06:38:30.999Z</time></trkpt><trkpt lat="43.449930983222664" lon="11.435287455144591"><ele>395.0</ele><time>2026-05-02T06:38:31.999Z</time></trkpt><trkpt lat="43.45003417696197" lon="11.435128039021134"><ele>395.0</ele><time>2026-05-02T06:38:32.999Z</time></trkpt><trkpt lat="43.45014106054892" lon="11.434988981483263"><ele>395.0</ele><time>2026-05-02T06:38:33.999Z</time></trkpt><trkpt lat="43.45024628896008" lon="11.434852580092667"><ele>395.0</ele><time>2026-05-02T06:38:34.999Z</time></trkpt><trkpt lat="43.45036091597063" lon="11.434753327803136"><ele>395.0</ele><time>2026-05-02T06:38:35.999Z</time></trkpt><trkpt lat="43.45046218022322" lon="11.434657682108169"><ele>392.25</ele><time>2026-05-02T06:38:36.999Z</time></trkpt><trkpt lat="43.450539346882735" lon="11.434553448432412"><ele>389.5</ele><time>2026-05-02T06:38:37.999Z</time></trkpt><trkpt lat="43.45061278799331" lon="11.434471433681582"><ele>386.75</ele><time>2026-05-02T06:38:38.999Z</time></trkpt><trkpt lat="43.450569868691126" lon="11.434262392111885"><ele>384.0</ele><time>2026-05-02T06:38:39.999Z</time></trkpt><trkpt lat="43.45049332158618" lon="11.434099609165868"><ele>387.5</ele><time>2026-05-02T06:38:40.999Z</time></trkpt><trkpt lat="43.4504263514855" lon="11.433915393222815"><ele>391.0</ele><time>2026-05-02T06:38:41.999Z</time></trkpt><trkpt lat="43.45037674441532" lon="11.433728777634034"><ele>394.5</ele><time>2026-05-02T06:38:42.999Z</time></trkpt><trkpt lat="43.45034535152558" lon="11.433530196796701"><ele>398.0</ele><time>2026-05-02T06:38:43.999Z</time></trkpt><trkpt lat="43.45033852598776" lon="11.433316549078532"><ele>398.0</ele><time>2026-05-02T06:38:44.999Z</time></trkpt><trkpt lat="43.45034534713792" lon="11.43308257144218"><ele>398.0</ele><time>2026-05-02T06:38:45.999Z</time></trkpt><trkpt lat="43.45035110737181" lon="11.432851581596449"><ele>398.0</ele><time>2026-05-02T06:38:46.999Z</time></trkpt><trkpt lat="43.45036712314361" lon="11.432626851879366"><ele>397.0</ele><time>2026-05-02T06:38:48Z</time></trkpt><trkpt lat="43.45039904935769" lon="11.432411499110902"><ele>396.0</ele><time>2026-05-02T06:38:49Z</time></trkpt><trkpt lat="43.45042839077476" lon="11.432202425552482"><ele>395.0</ele><time>2026-05-02T06:38:50Z</time></trkpt><trkpt lat="43.45047404004433" lon="11.432005949075675"><ele>388.3333333333333</ele><time>2026-05-02T06:38:51Z</time></trkpt><trkpt lat="43.450570442508436" lon="11.431840479157017"><ele>381.66666666666663</ele><time>2026-05-02T06:38:52Z</time></trkpt><trkpt lat="43.45067907880515" lon="11.431668270234901"><ele>375.0</ele><time>2026-05-02T06:38:53Z</time></trkpt><trkpt lat="43.45075655782337" lon="11.431479608556353"><ele>375.0</ele><time>2026-05-02T06:38:54Z</time></trkpt><trkpt lat="43.45083922650821" lon="11.431313546033907"><ele>375.0</ele><time>2026-05-02T06:38:55Z</time></trkpt><trkpt lat="43.45085327810103" lon="11.431115473236662"><ele>375.0</ele><time>2026-05-02T06:38:56Z</time></trkpt><trkpt lat="43.45083609848003" lon="11.430921431632315"><ele>375.0</ele><time>2026-05-02T06:38:57Z</time></trkpt><trkpt lat="43.45079475849514" lon="11.43072200152829"><ele>374.75</ele><time>2026-05-02T06:38:58Z</time></trkpt><trkpt lat="43.450753107442054" lon="11.430521619529262"><ele>374.5</ele><time>2026-05-02T06:38:59Z</time></trkpt><trkpt lat="43.45074824407392" lon="11.430318998222814"><ele>374.25</ele><time>2026-05-02T06:39:00Z</time></trkpt><trkpt lat="43.45080602042441" lon="11.4301369712616"><ele>374.0</ele><time>2026-05-02T06:39:01Z</time></trkpt><trkpt lat="43.45086225417032" lon="11.429956916831655"><ele>373.25</ele><time>2026-05-02T06:39:02Z</time></trkpt><trkpt lat="43.45092520094789" lon="11.429777465154885"><ele>372.5</ele><time>2026-05-02T06:39:03Z</time></trkpt><trkpt lat="43.45101727882924" lon="11.429631566603614"><ele>371.75</ele><time>2026-05-02T06:39:04Z</time></trkpt><trkpt lat="43.45107486025616" lon="11.429481871172284"><ele>371.0</ele><time>2026-05-02T06:39:05Z</time></trkpt><trkpt lat="43.4510822621799" lon="11.42929700615744"><ele>370.75</ele><time>2026-05-02T06:39:06Z</time></trkpt><trkpt lat="43.45103992512134" lon="11.42909825854035"><ele>370.5</ele><time>2026-05-02T06:39:07Z</time></trkpt><trkpt lat="43.45097642112129" lon="11.42890369431288"><ele>370.25</ele><time>2026-05-02T06:39:08Z</time></trkpt><trkpt lat="43.45095783821354" lon="11.428716569474302"><ele>370.0</ele><time>2026-05-02T06:39:09Z</time></trkpt><trkpt lat="43.45095314296591" lon="11.428547433600563"><ele>369.75</ele><time>2026-05-02T06:39:10Z</time></trkpt><trkpt lat="43.45099969477284" lon="11.428391603578138"><ele>369.5</ele><time>2026-05-02T06:39:11Z</time></trkpt><trkpt lat="43.45108057534438" lon="11.428223412813004"><ele>369.25</ele><time>2026-05-02T06:39:12Z</time></trkpt><trkpt lat="43.45120086369013" lon="11.42809025347055"><ele>369.0</ele><time>2026-05-02T06:39:13Z</time></trkpt><trkpt lat="43.45133967999592" lon="11.427987810306789"><ele>365.0</ele><time>2026-05-02T06:39:14Z</time></trkpt><trkpt lat="43.45149748373222" lon="11.427914876278788"><ele>361.0</ele><time>2026-05-02T06:39:15Z</time></trkpt><trkpt lat="43.45167868534097" lon="11.427833323546784"><ele>357.0</ele><time>2026-05-02T06:39:16Z</time></trkpt><trkpt lat="43.451859496703804" lon="11.427741420042398"><ele>357.0</ele><time>2026-05-02T06:39:17Z</time></trkpt><trkpt lat="43.45202735924422" lon="11.427654629854393"><ele>357.0</ele><time>2026-05-02T06:39:18Z</time></trkpt><trkpt lat="43.452183922921755" lon="11.427573257911757"><ele>357.0</ele><time>2026-05-02T06:39:19Z</time></trkpt><trkpt lat="43.45233126781843" lon="11.427492249616833"><ele>353.6666666666667</ele><time>2026-05-02T06:39:20Z</time></trkpt><trkpt lat="43.45246169776249" lon="11.427393019234227"><ele>350.33333333333337</ele><time>2026-05-02T06:39:21Z</time></trkpt><trkpt lat="43.45258096201125" lon="11.427257226718433"><ele>347.0</ele><time>2026-05-02T06:39:22Z</time></trkpt><trkpt lat="43.45269162447549" lon="11.427073302109843"><ele>347.0</ele><time>2026-05-02T06:39:23Z</time></trkpt><trkpt lat="43.45282384963308" lon="11.426900391683324"><ele>347.0</ele><time>2026-05-02T06:39:24Z</time></trkpt><trkpt lat="43.45295525140477" lon="11.426708076856759"><ele>347.0</ele><time>2026-05-02T06:39:25Z</time></trkpt><trkpt lat="43.45308982329468" lon="11.426509286159122"><ele>344.33333333333337</ele><time>2026-05-02T06:39:26Z</time></trkpt><trkpt lat="43.453220460201486" lon="11.426295848531806"><ele>341.6666666666667</ele><time>2026-05-02T06:39:27Z</time></trkpt><trkpt lat="43.45336190255067" lon="11.426089906841272"><ele>339.0</ele><time>2026-05-02T06:39:28Z</time></trkpt><trkpt lat="43.453505454337105" lon="11.425873933263299"><ele>339.0</ele><time>2026-05-02T06:39:29Z</time></trkpt><trkpt lat="43.45365031031301" lon="11.425663747496081"><ele>339.0</ele><time>2026-05-02T06:39:30Z</time></trkpt><trkpt lat="43.453810603245586" lon="11.425475351221637"><ele>339.0</ele><time>2026-05-02T06:39:31Z</time></trkpt><trkpt lat="43.453953187639584" lon="11.425269488881375"><ele>336.6666666666667</ele><time>2026-05-02T06:39:32Z</time></trkpt><trkpt lat="43.454074459453764" lon="11.42505367541756"><ele>334.33333333333337</ele><time>2026-05-02T06:39:33Z</time></trkpt><trkpt lat="43.454200474341235" lon="11.424860984018196"><ele>332.0</ele><time>2026-05-02T06:39:34Z</time></trkpt><trkpt lat="43.45431433464749" lon="11.424669308098709"><ele>331.75</ele><time>2026-05-02T06:39:35Z</time></trkpt><trkpt lat="43.45441735393245" lon="11.424486255977671"><ele>331.5</ele><time>2026-05-02T06:39:36Z</time></trkpt><trkpt lat="43.45452278644756" lon="11.424335346798598"><ele>331.25</ele><time>2026-05-02T06:39:37Z</time></trkpt><trkpt lat="43.45459931134534" lon="11.424207871219433"><ele>331.0</ele><time>2026-05-02T06:39:38Z</time></trkpt><trkpt lat="43.454653396787855" lon="11.424117796745566"><ele>331.4</ele><time>2026-05-02T06:39:39Z</time></trkpt><trkpt lat="43.45470750733515" lon="11.424027089152716"><ele>331.8</ele><time>2026-05-02T06:39:41Z</time></trkpt><trkpt lat="43.454789789578285" lon="11.423995681752192"><ele>332.2</ele><time>2026-05-02T06:39:43.999Z</time></trkpt><trkpt lat="43.45486550879388" lon="11.424102425006861"><ele>332.59999999999997</ele><time>2026-05-02T06:39:44.999Z</time></trkpt><trkpt lat="43.454937282868364" lon="11.424190657897626"><ele>333.0</ele><time>2026-05-02T06:39:45.999Z</time></trkpt><trkpt lat="43.455042432400354" lon="11.42430632144854"><ele>333.0</ele><time>2026-05-02T06:39:46.999Z</time></trkpt><trkpt lat="43.45517123329783" lon="11.424437710698506"><ele>333.0</ele><time>2026-05-02T06:39:47.999Z</time></trkpt><trkpt lat="43.455324520536" lon="11.42459214618065"><ele>333.0</ele><time>2026-05-02T06:39:48.999Z</time></trkpt><trkpt lat="43.45548590395614" lon="11.424755413877179"><ele>334.3333333333333</ele><time>2026-05-02T06:39:49.999Z</time></trkpt><trkpt lat="43.45564655823004" lon="11.424922012630487"><ele>335.66666666666663</ele><time>2026-05-02T06:39:50.999Z</time></trkpt><trkpt lat="43.45579973878423" lon="11.425080540999513"><ele>337.0</ele><time>2026-05-02T06:39:51.999Z</time></trkpt><trkpt lat="43.45593501713872" lon="11.425212843382901"><ele>337.0</ele><time>2026-05-02T06:39:52.999Z</time></trkpt><trkpt lat="43.45609362327984" lon="11.425380953209933"><ele>337.0</ele><time>2026-05-02T06:39:53.999Z</time></trkpt><trkpt lat="43.45625136630872" lon="11.425486983295334"><ele>337.0</ele><time>2026-05-02T06:39:54.999Z</time></trkpt><trkpt lat="43.45642654290363" lon="11.42553109975283"><ele>338.66666666666663</ele><time>2026-05-02T06:39:55.999Z</time></trkpt><trkpt lat="43.4566277369934" lon="11.425538394495804"><ele>340.3333333333333</ele><time>2026-05-02T06:39:56.999Z</time></trkpt><trkpt lat="43.45685737624398" lon="11.42557519887556"><ele>342.0</ele><time>2026-05-02T06:39:57.999Z</time></trkpt><trkpt lat="43.45708523566285" lon="11.425647820721863"><ele>339.0</ele><time>2026-05-02T06:39:58.999Z</time></trkpt><trkpt lat="43.457302121430374" lon="11.425743304256772"><ele>336.0</ele><time>2026-05-02T06:39:59.999Z</time></trkpt><trkpt lat="43.4575191031239" lon="11.42583852897362"><ele>336.0</ele><time>2026-05-02T06:40:00.999Z</time></trkpt><trkpt lat="43.457735547953135" lon="11.425926572091145"><ele>336.0</ele><time>2026-05-02T06:40:01.999Z</time></trkpt><trkpt lat="43.4579484436885" lon="11.426021017435183"><ele>336.0</ele><time>2026-05-02T06:40:02.999Z</time></trkpt><trkpt lat="43.458155108422446" lon="11.426114368091257"><ele>336.0</ele><time>2026-05-02T06:40:03.999Z</time></trkpt><trkpt lat="43.45836209389557" lon="11.42620314962704"><ele>336.0</ele><time>2026-05-02T06:40:04.999Z</time></trkpt><trkpt lat="43.45856656234466" lon="11.426293507038041"><ele>336.0</ele><time>2026-05-02T06:40:05.999Z</time></trkpt><trkpt lat="43.45876798655578" lon="11.426384089556244"><ele>337.0</ele><time>2026-05-02T06:40:06.999Z</time></trkpt><trkpt lat="43.45896700502122" lon="11.426472924296476"><ele>338.0</ele><time>2026-05-02T06:40:07.999Z</time></trkpt><trkpt lat="43.459165586942376" lon="11.426558445066908"><ele>339.0</ele><time>2026-05-02T06:40:08.999Z</time></trkpt><trkpt lat="43.45936144754152" lon="11.426643838008433"><ele>339.0</ele><time>2026-05-02T06:40:09.999Z</time></trkpt><trkpt lat="43.45955549156029" lon="11.426731301830426"><ele>339.0</ele><time>2026-05-02T06:40:10.999Z</time></trkpt><trkpt lat="43.45974716799712" lon="11.426816689978578"><ele>339.0</ele><time>2026-05-02T06:40:11.999Z</time></trkpt><trkpt lat="43.45993731771368" lon="11.426900748982085"><ele>339.3333333333333</ele><time>2026-05-02T06:40:12.999Z</time></trkpt><trkpt lat="43.46013002216565" lon="11.426985712741548"><ele>339.66666666666663</ele><time>2026-05-02T06:40:13.999Z</time></trkpt><trkpt lat="43.460323161983304" lon="11.427070106233414"><ele>340.0</ele><time>2026-05-02T06:40:14.999Z</time></trkpt><trkpt lat="43.46052379745268" lon="11.427164205575854"><ele>340.0</ele><time>2026-05-02T06:40:15.999Z</time></trkpt><trkpt lat="43.46067360370138" lon="11.427287545629747"><ele>340.0</ele><time>2026-05-02T06:40:16.999Z</time></trkpt><trkpt lat="43.46083190755798" lon="11.42744146291025"><ele>340.0</ele><time>2026-05-02T06:40:17.999Z</time></trkpt><trkpt lat="43.46098791717314" lon="11.427607686141585"><ele>340.0</ele><time>2026-05-02T06:40:18.999Z</time></trkpt><trkpt lat="43.461150766633025" lon="11.427760860902662"><ele>340.0</ele><time>2026-05-02T06:40:19.999Z</time></trkpt><trkpt lat="43.46130426589442" lon="11.427937906032982"><ele>340.0</ele><time>2026-05-02T06:40:20.999Z</time></trkpt><trkpt lat="43.461466191532324" lon="11.42810764288378"><ele>340.66666666666663</ele><time>2026-05-02T06:40:21.999Z</time></trkpt><trkpt lat="43.4616273655532" lon="11.428280683137109"><ele>341.3333333333333</ele><time>2026-05-02T06:40:22.999Z</time></trkpt><trkpt lat="43.46178763309269" lon="11.428452305204132"><ele>342.0</ele><time>2026-05-02T06:40:23.999Z</time></trkpt><trkpt lat="43.461943398186726" lon="11.428634306166206"><ele>342.6666666666667</ele><time>2026-05-02T06:40:24.999Z</time></trkpt><trkpt lat="43.46209378792637" lon="11.428820486248512"><ele>343.33333333333337</ele><time>2026-05-02T06:40:25.999Z</time></trkpt><trkpt lat="43.46224359525872" lon="11.429010719308852"><ele>344.0</ele><time>2026-05-02T06:40:26.999Z</time></trkpt><trkpt lat="43.46239171858092" lon="11.429195371077471"><ele>344.6666666666667</ele><time>2026-05-02T06:40:27.999Z</time></trkpt><trkpt lat="43.46253419137094" lon="11.429384127011332"><ele>345.3333333333333</ele><time>2026-05-02T06:40:28.999Z</time></trkpt><trkpt lat="43.46267845414327" lon="11.429566848148502"><ele>346.0</ele><time>2026-05-02T06:40:29.999Z</time></trkpt><trkpt lat="43.462819316334205" lon="11.42974222919445"><ele>346.0</ele><time>2026-05-02T06:40:30.999Z</time></trkpt><trkpt lat="43.462932665937544" lon="11.429942951139589"><ele>346.0</ele><time>2026-05-02T06:40:31.999Z</time></trkpt><trkpt lat="43.4630363545558" lon="11.430133199225578"><ele>346.0</ele><time>2026-05-02T06:40:32.999Z</time></trkpt><trkpt lat="43.46313696475804" lon="11.430318909691522"><ele>346.3333333333333</ele><time>2026-05-02T06:40:33.999Z</time></trkpt><trkpt lat="43.463243959520526" lon="11.430491774549598"><ele>346.6666666666667</ele><time>2026-05-02T06:40:34.999Z</time></trkpt><trkpt lat="43.46336456835983" lon="11.43064334311818"><ele>347.0</ele><time>2026-05-02T06:40:35.999Z</time></trkpt><trkpt lat="43.4634684740174" lon="11.43081420481982"><ele>347.0</ele><time>2026-05-02T06:40:36.999Z</time></trkpt><trkpt lat="43.46357306048327" lon="11.430990412500226"><ele>347.0</ele><time>2026-05-02T06:40:37.999Z</time></trkpt><trkpt lat="43.46366803117653" lon="11.43117959652058"><ele>347.0</ele><time>2026-05-02T06:40:38.999Z</time></trkpt><trkpt lat="43.463750440718535" lon="11.431380621117729"><ele>349.6666666666667</ele><time>2026-05-02T06:40:39.999Z</time></trkpt><trkpt lat="43.4638262880064" lon="11.431593932075286"><ele>352.3333333333333</ele><time>2026-05-02T06:40:40.999Z</time></trkpt><trkpt lat="43.46389940442748" lon="11.431808650087493"><ele>355.0</ele><time>2026-05-02T06:40:41.999Z</time></trkpt><trkpt lat="43.46397796878262" lon="11.432018532682514"><ele>353.0</ele><time>2026-05-02T06:40:42.999Z</time></trkpt><trkpt lat="43.464046744003774" lon="11.432219759459137"><ele>351.0</ele><time>2026-05-02T06:40:43.999Z</time></trkpt><trkpt lat="43.464110681896116" lon="11.43240975310031"><ele>349.0</ele><time>2026-05-02T06:40:44.999Z</time></trkpt><trkpt lat="43.4641754204753" lon="11.432578782009212"><ele>349.0</ele><time>2026-05-02T06:40:45.999Z</time></trkpt><trkpt lat="43.46424834903503" lon="11.432723518207156"><ele>349.0</ele><time>2026-05-02T06:40:46.999Z</time></trkpt><trkpt lat="43.46432864983446" lon="11.432838972829346"><ele>349.0</ele><time>2026-05-02T06:40:47.999Z</time></trkpt><trkpt lat="43.46442877674275" lon="11.432938531395692"><ele>349.0</ele><time>2026-05-02T06:40:48.999Z</time></trkpt><trkpt lat="43.464541024768884" lon="11.433032761981304"><ele>348.75</ele><time>2026-05-02T06:40:49.999Z</time></trkpt><trkpt lat="43.46466401597103" lon="11.433114397128765"><ele>348.5</ele><time>2026-05-02T06:40:50.999Z</time></trkpt><trkpt lat="43.46478445888215" lon="11.433186107423143"><ele>348.25</ele><time>2026-05-02T06:40:51.999Z</time></trkpt><trkpt lat="43.464901149591704" lon="11.433262466989031"><ele>348.0</ele><time>2026-05-02T06:40:52.999Z</time></trkpt><trkpt lat="43.465011446219876" lon="11.4333412544695"><ele>348.0</ele><time>2026-05-02T06:40:54Z</time></trkpt><trkpt lat="43.465101650826114" lon="11.43346715780548"><ele>348.0</ele><time>2026-05-02T06:40:55Z</time></trkpt><trkpt lat="43.46519361162443" lon="11.433596357875754"><ele>348.0</ele><time>2026-05-02T06:40:56Z</time></trkpt><trkpt lat="43.465286344491865" lon="11.433721551669667"><ele>348.0</ele><time>2026-05-02T06:40:57Z</time></trkpt><trkpt lat="43.46536290025804" lon="11.433859051365268"><ele>348.0</ele><time>2026-05-02T06:40:58Z</time></trkpt><trkpt lat="43.465450476411185" lon="11.43397465330911"><ele>348.0</ele><time>2026-05-02T06:40:59Z</time></trkpt><trkpt lat="43.46554390239186" lon="11.434076172987288"><ele>348.0</ele><time>2026-05-02T06:41:00Z</time></trkpt><trkpt lat="43.46564415918604" lon="11.434151885417748"><ele>348.0</ele><time>2026-05-02T06:41:01Z</time></trkpt><trkpt lat="43.46574840530936" lon="11.434204685442063"><ele>348.0</ele><time>2026-05-02T06:41:02Z</time></trkpt><trkpt lat="43.46585596057033" lon="11.434245722722974"><ele>348.0</ele><time>2026-05-02T06:41:03Z</time></trkpt><trkpt lat="43.46596082460995" lon="11.434278531488554"><ele>348.0</ele><time>2026-05-02T06:41:04Z</time></trkpt><trkpt lat="43.46606417871929" lon="11.434310174985816"><ele>348.0</ele><time>2026-05-02T06:41:05Z</time></trkpt><trkpt lat="43.46616757737206" lon="11.434341911779441"><ele>348.0</ele><time>2026-05-02T06:41:06Z</time></trkpt><trkpt lat="43.46626506645733" lon="11.434362774137211"><ele>348.42857142857144</ele><time>2026-05-02T06:41:07Z</time></trkpt><trkpt lat="43.466350629131135" lon="11.434370744536727"><ele>348.8571428571429</ele><time>2026-05-02T06:41:08Z</time></trkpt><trkpt lat="43.46642975665254" lon="11.43437466443087"><ele>349.28571428571433</ele><time>2026-05-02T06:41:09Z</time></trkpt><trkpt lat="43.466504064553234" lon="11.43437814996495"><ele>349.7142857142857</ele><time>2026-05-02T06:41:10Z</time></trkpt><trkpt lat="43.46657205498652" lon="11.434380225986242"><ele>350.14285714285717</ele><time>2026-05-02T06:41:11Z</time></trkpt><trkpt lat="43.46664229148028" lon="11.434379706066387"><ele>350.5714285714286</ele><time>2026-05-02T06:41:12Z</time></trkpt><trkpt lat="43.46671032985588" lon="11.43437969062462"><ele>351.0</ele><time>2026-05-02T06:41:13Z</time></trkpt><trkpt lat="43.466784605950885" lon="11.434375432367455"><ele>351.0</ele><time>2026-05-02T06:41:14Z</time></trkpt><trkpt lat="43.46685834138724" lon="11.434362861078784"><ele>351.0</ele><time>2026-05-02T06:41:15Z</time></trkpt><trkpt lat="43.466932342138975" lon="11.434344538588906"><ele>351.0</ele><time>2026-05-02T06:41:16Z</time></trkpt><trkpt lat="43.46700450868649" lon="11.434328242500847"><ele>351.0</ele><time>2026-05-02T06:41:17Z</time></trkpt><trkpt lat="43.467074140532546" lon="11.434314400901465"><ele>351.0</ele><time>2026-05-02T06:41:18Z</time></trkpt><trkpt lat="43.467142884171594" lon="11.434299262658305"><ele>351.0</ele><time>2026-05-02T06:41:19Z</time></trkpt><trkpt lat="43.46725457376376" lon="11.434268621797834"><ele>351.5</ele><time>2026-05-02T06:41:21Z</time></trkpt><trkpt lat="43.46733920374062" lon="11.43421991534088"><ele>352.0</ele><time>2026-05-02T06:41:23Z</time></trkpt><trkpt lat="43.46742018933969" lon="11.434207542421989"><ele>352.5</ele><time>2026-05-02T06:41:25Z</time></trkpt><trkpt lat="43.467493041385005" lon="11.434264473052345"><ele>353.0</ele><time>2026-05-02T06:41:27Z</time></trkpt><trkpt lat="43.467504865391646" lon="11.434376657990656"><ele>353.5</ele><time>2026-05-02T06:41:28.999Z</time></trkpt><trkpt lat="43.46756226717229" lon="11.434326864908956"><ele>354.0</ele><time>2026-05-02T06:41:30.999Z</time></trkpt><trkpt lat="43.46746989429914" lon="11.434283651262707"><ele>354.0</ele><time>2026-05-02T06:41:34.999Z</time></trkpt><trkpt lat="43.467478708311766" lon="11.434183018546657"><ele>354.0</ele><time>2026-05-02T06:44:17.999Z</time></trkpt><trkpt lat="43.467438652519554" lon="11.43425628209114"><ele>354.0</ele><time>2026-05-02T06:44:45.999Z</time></trkpt><trkpt lat="43.46733912169547" lon="11.434174884158875"><ele>354.0</ele><time>2026-05-02T06:48:16Z</time></trkpt><trkpt lat="43.46724282512703" lon="11.434207150418986"><ele>354.0</ele><time>2026-05-02T06:48:17Z</time></trkpt><trkpt lat="43.46712722483321" lon="11.434267921938995"><ele>353.0</ele><time>2026-05-02T06:48:18Z</time></trkpt><trkpt lat="43.46698299169185" lon="11.434313162569289"><ele>352.0</ele><time>2026-05-02T06:48:19Z</time></trkpt><trkpt lat="43.46682363431484" lon="11.434342737670999"><ele>351.0</ele><time>2026-05-02T06:48:20Z</time></trkpt><trkpt lat="43.466657531346954" lon="11.434352969629451"><ele>351.0</ele><time>2026-05-02T06:48:21Z</time></trkpt><trkpt lat="43.466497207025895" lon="11.43435107059717"><ele>351.0</ele><time>2026-05-02T06:48:22Z</time></trkpt><trkpt lat="43.466339798871246" lon="11.434342880221823"><ele>351.0</ele><time>2026-05-02T06:48:23Z</time></trkpt><trkpt lat="43.4661914975208" lon="11.434321532141414"><ele>350.0</ele><time>2026-05-02T06:48:24Z</time></trkpt><trkpt lat="43.46604337632237" lon="11.434283266123337"><ele>349.0</ele><time>2026-05-02T06:48:25Z</time></trkpt><trkpt lat="43.465893581589235" lon="11.434225597975601"><ele>348.0</ele><time>2026-05-02T06:48:26Z</time></trkpt><trkpt lat="43.46574984165021" lon="11.434163999078494"><ele>348.0</ele><time>2026-05-02T06:48:27Z</time></trkpt><trkpt lat="43.46561310133168" lon="11.434093733233036"><ele>348.0</ele><time>2026-05-02T06:48:28Z</time></trkpt><trkpt lat="43.46550064279131" lon="11.433964176184777"><ele>348.0</ele><time>2026-05-02T06:48:29Z</time></trkpt><trkpt lat="43.46537857036151" lon="11.433840049873018"><ele>348.0</ele><time>2026-05-02T06:48:30Z</time></trkpt><trkpt lat="43.46527117288502" lon="11.433674218119254"><ele>348.0</ele><time>2026-05-02T06:48:31Z</time></trkpt><trkpt lat="43.4651626492834" lon="11.43350120356242"><ele>348.0</ele><time>2026-05-02T06:48:32Z</time></trkpt><trkpt lat="43.465042273099144" lon="11.433342279159454"><ele>348.0</ele><time>2026-05-02T06:48:33Z</time></trkpt><trkpt lat="43.4649012836101" lon="11.433215900656412"><ele>348.0</ele><time>2026-05-02T06:48:34Z</time></trkpt><trkpt lat="43.46474892376843" lon="11.433102644360408"><ele>348.0</ele><time>2026-05-02T06:48:35Z</time></trkpt><trkpt lat="43.46460158463544" lon="11.432988285827324"><ele>348.0</ele><time>2026-05-02T06:48:36Z</time></trkpt><trkpt lat="43.464461299073044" lon="11.432855962474074"><ele>348.3333333333333</ele><time>2026-05-02T06:48:37Z</time></trkpt><trkpt lat="43.4643365788273" lon="11.432705142049405"><ele>348.66666666666663</ele><time>2026-05-02T06:48:38Z</time></trkpt><trkpt lat="43.46422603774324" lon="11.432531330963"><ele>349.0</ele><time>2026-05-02T06:48:39Z</time></trkpt><trkpt lat="43.46412688916532" lon="11.432334212835205"><ele>351.0</ele><time>2026-05-02T06:48:40Z</time></trkpt><trkpt lat="43.464043868060074" lon="11.432127813043774"><ele>353.0</ele><time>2026-05-02T06:48:41Z</time></trkpt><trkpt lat="43.463964109644095" lon="11.431921435828542"><ele>355.0</ele><time>2026-05-02T06:48:42Z</time></trkpt><trkpt lat="43.46388537043616" lon="11.431709492376838"><ele>355.0</ele><time>2026-05-02T06:48:43Z</time></trkpt><trkpt lat="43.46380656628283" lon="11.431501592025914"><ele>355.0</ele><time>2026-05-02T06:48:44Z</time></trkpt><trkpt lat="43.463722644893714" lon="11.43129770017804"><ele>355.0</ele><time>2026-05-02T06:48:45Z</time></trkpt><trkpt lat="43.463634680797064" lon="11.431098350126167"><ele>352.3333333333333</ele><time>2026-05-02T06:48:46Z</time></trkpt><trkpt lat="43.4635329483272" lon="11.430879503467196"><ele>349.6666666666667</ele><time>2026-05-02T06:48:47Z</time></trkpt><trkpt lat="43.46344232167522" lon="11.43071874900739"><ele>347.0</ele><time>2026-05-02T06:48:48Z</time></trkpt><trkpt lat="43.46332444031206" lon="11.43053830668616"><ele>349.0</ele><time>2026-05-02T06:48:49Z</time></trkpt><trkpt lat="43.463205871665195" lon="11.430360294568702"><ele>351.0</ele><time>2026-05-02T06:48:50Z</time></trkpt><trkpt lat="43.46309142661495" lon="11.430170511093802"><ele>353.0</ele><time>2026-05-02T06:48:51Z</time></trkpt><trkpt lat="43.46298536622192" lon="11.42996896443486"><ele>350.6666666666667</ele><time>2026-05-02T06:48:52Z</time></trkpt><trkpt lat="43.46287244589212" lon="11.429772918444488"><ele>348.3333333333333</ele><time>2026-05-02T06:48:53Z</time></trkpt><trkpt lat="43.462747129362405" lon="11.429588211510836"><ele>346.0</ele><time>2026-05-02T06:48:54Z</time></trkpt><trkpt lat="43.462613669589246" lon="11.429417170490469"><ele>346.0</ele><time>2026-05-02T06:48:55Z</time></trkpt><trkpt lat="43.462484669836634" lon="11.429259095920576"><ele>346.0</ele><time>2026-05-02T06:48:56Z</time></trkpt><trkpt lat="43.46235463369899" lon="11.429108443977123"><ele>346.0</ele><time>2026-05-02T06:48:57Z</time></trkpt><trkpt lat="43.46222891028714" lon="11.428955221656397"><ele>344.66666666666663</ele><time>2026-05-02T06:48:58Z</time></trkpt><trkpt lat="43.462106408436135" lon="11.42879930994411"><ele>343.3333333333333</ele><time>2026-05-02T06:48:59Z</time></trkpt><trkpt lat="43.46197982807211" lon="11.428645644084993"><ele>342.0</ele><time>2026-05-02T06:49:00Z</time></trkpt><trkpt lat="43.46184905006692" lon="11.428491262008226"><ele>342.0</ele><time>2026-05-02T06:49:01Z</time></trkpt><trkpt lat="43.46172033878545" lon="11.428344871875709"><ele>342.0</ele><time>2026-05-02T06:49:02Z</time></trkpt><trkpt lat="43.46159378156032" lon="11.428204078391978"><ele>342.0</ele><time>2026-05-02T06:49:03Z</time></trkpt><trkpt lat="43.4614634032759" lon="11.428066950387105"><ele>341.3333333333333</ele><time>2026-05-02T06:49:04Z</time></trkpt><trkpt lat="43.4613327970683" lon="11.427924375427883"><ele>340.66666666666663</ele><time>2026-05-02T06:49:05Z</time></trkpt><trkpt lat="43.461203557285366" lon="11.427790649943924"><ele>340.0</ele><time>2026-05-02T06:49:06Z</time></trkpt><trkpt lat="43.46107892537479" lon="11.42765723545709"><ele>340.0</ele><time>2026-05-02T06:49:07Z</time></trkpt><trkpt lat="43.46095724569452" lon="11.427531367671804"><ele>340.0</ele><time>2026-05-02T06:49:08Z</time></trkpt><trkpt lat="43.4608414625864" lon="11.427402613364295"><ele>340.0</ele><time>2026-05-02T06:49:08.999Z</time></trkpt><trkpt lat="43.460732048884296" lon="11.427287478610998"><ele>340.0</ele><time>2026-05-02T06:49:09.999Z</time></trkpt><trkpt lat="43.460617150687675" lon="11.427188842432535"><ele>340.75</ele><time>2026-05-02T06:49:10.999Z</time></trkpt><trkpt lat="43.46049145142304" lon="11.427110216445156"><ele>341.5</ele><time>2026-05-02T06:49:11.999Z</time></trkpt><trkpt lat="43.46035489035983" lon="11.427042894314924"><ele>342.25</ele><time>2026-05-02T06:49:12.999Z</time></trkpt><trkpt lat="43.46021298163207" lon="11.42698617778199"><ele>343.0</ele><time>2026-05-02T06:49:13.999Z</time></trkpt><trkpt lat="43.46006777418567" lon="11.426930720054909"><ele>343.0</ele><time>2026-05-02T06:49:14.999Z</time></trkpt><trkpt lat="43.459924339150795" lon="11.426867144558363"><ele>343.0</ele><time>2026-05-02T06:49:15.999Z</time></trkpt><trkpt lat="43.45977737796673" lon="11.426798930933806"><ele>343.0</ele><time>2026-05-02T06:49:17Z</time></trkpt><trkpt lat="43.45962881271069" lon="11.426733506475882"><ele>341.66666666666663</ele><time>2026-05-02T06:49:18Z</time></trkpt><trkpt lat="43.45947886799877" lon="11.426665555507029"><ele>340.3333333333333</ele><time>2026-05-02T06:49:19Z</time></trkpt><trkpt lat="43.45932967499656" lon="11.426596703230075"><ele>339.0</ele><time>2026-05-02T06:49:20Z</time></trkpt><trkpt lat="43.459177396277525" lon="11.426526830732941"><ele>339.0</ele><time>2026-05-02T06:49:21Z</time></trkpt><trkpt lat="43.45902280699954" lon="11.426460990598427"><ele>339.0</ele><time>2026-05-02T06:49:22Z</time></trkpt><trkpt lat="43.45887125861985" lon="11.426394987843487"><ele>339.0</ele><time>2026-05-02T06:49:23Z</time></trkpt><trkpt lat="43.45871930826867" lon="11.4263255198413"><ele>338.0</ele><time>2026-05-02T06:49:24Z</time></trkpt><trkpt lat="43.45856775509963" lon="11.42625762158378"><ele>337.0</ele><time>2026-05-02T06:49:25Z</time></trkpt><trkpt lat="43.45842007350755" lon="11.426190158501702"><ele>336.0</ele><time>2026-05-02T06:49:26Z</time></trkpt><trkpt lat="43.45827304190425" lon="11.426124756539878"><ele>336.0</ele><time>2026-05-02T06:49:27Z</time></trkpt><trkpt lat="43.458124466658674" lon="11.426062740008742"><ele>336.0</ele><time>2026-05-02T06:49:28Z</time></trkpt><trkpt lat="43.45797623479743" lon="11.4259990956121"><ele>336.0</ele><time>2026-05-02T06:49:29Z</time></trkpt><trkpt lat="43.45782700348747" lon="11.425932687523629"><ele>336.0</ele><time>2026-05-02T06:49:30Z</time></trkpt><trkpt lat="43.45767605723438" lon="11.425867460140386"><ele>336.0</ele><time>2026-05-02T06:49:31Z</time></trkpt><trkpt lat="43.457525229361394" lon="11.425799491763323"><ele>336.0</ele><time>2026-05-02T06:49:32Z</time></trkpt><trkpt lat="43.457376144272814" lon="11.425727869780612"><ele>336.0</ele><time>2026-05-02T06:49:33Z</time></trkpt><trkpt lat="43.4572251912101" lon="11.425666904380638"><ele>336.0</ele><time>2026-05-02T06:49:34Z</time></trkpt><trkpt lat="43.457073363103675" lon="11.425615826680856"><ele>336.0</ele><time>2026-05-02T06:49:35Z</time></trkpt><trkpt lat="43.45692205758879" lon="11.42557616565329"><ele>338.0</ele><time>2026-05-02T06:49:36Z</time></trkpt><trkpt lat="43.456772341230774" lon="11.425539433186357"><ele>340.0</ele><time>2026-05-02T06:49:37Z</time></trkpt><trkpt lat="43.45662396083752" lon="11.425504841357244"><ele>342.0</ele><time>2026-05-02T06:49:38Z</time></trkpt><trkpt lat="43.456475422674664" lon="11.425489132894716"><ele>342.0</ele><time>2026-05-02T06:49:39Z</time></trkpt><trkpt lat="43.45633151460286" lon="11.425483423359525"><ele>342.0</ele><time>2026-05-02T06:49:40Z</time></trkpt><trkpt lat="43.45620580096325" lon="11.425422072599895"><ele>342.0</ele><time>2026-05-02T06:49:41Z</time></trkpt><trkpt lat="43.456081850488125" lon="11.425330031987006"><ele>342.0</ele><time>2026-05-02T06:49:42Z</time></trkpt><trkpt lat="43.455951472192396" lon="11.425223639148177"><ele>340.3333333333333</ele><time>2026-05-02T06:49:43Z</time></trkpt><trkpt lat="43.45583133245057" lon="11.425079039990855"><ele>338.66666666666663</ele><time>2026-05-02T06:49:44Z</time></trkpt><trkpt lat="43.455701472214585" lon="11.424939910015203"><ele>337.0</ele><time>2026-05-02T06:49:45Z</time></trkpt><trkpt lat="43.4555643841279" lon="11.424798010911003"><ele>335.66666666666663</ele><time>2026-05-02T06:49:46Z</time></trkpt><trkpt lat="43.45542085058352" lon="11.424653608740684"><ele>334.3333333333333</ele><time>2026-05-02T06:49:47Z</time></trkpt><trkpt lat="43.45527857150179" lon="11.424501892566578"><ele>333.0</ele><time>2026-05-02T06:49:48Z</time></trkpt><trkpt lat="43.4551340185797" lon="11.424354313029545"><ele>333.0</ele><time>2026-05-02T06:49:49Z</time></trkpt><trkpt lat="43.45499187495342" lon="11.42420602036679"><ele>333.0</ele><time>2026-05-02T06:49:50Z</time></trkpt><trkpt lat="43.454851434219414" lon="11.424060001545154"><ele>333.0</ele><time>2026-05-02T06:49:51Z</time></trkpt><trkpt lat="43.45471054556161" lon="11.423916674212157"><ele>332.3333333333333</ele><time>2026-05-02T06:49:52Z</time></trkpt><trkpt lat="43.454574134256475" lon="11.423768475480786"><ele>331.66666666666663</ele><time>2026-05-02T06:49:53Z</time></trkpt><trkpt lat="43.454431123503525" lon="11.423633684664054"><ele>331.0</ele><time>2026-05-02T06:49:54Z</time></trkpt><trkpt lat="43.454298286732964" lon="11.423478054773026"><ele>331.0</ele><time>2026-05-02T06:49:55Z</time></trkpt><trkpt lat="43.45418848127538" lon="11.423281016393052"><ele>331.0</ele><time>2026-05-02T06:49:56Z</time></trkpt><trkpt lat="43.45405413208068" lon="11.423095655829135"><ele>331.0</ele><time>2026-05-02T06:49:57Z</time></trkpt><trkpt lat="43.45392934583902" lon="11.422890077470438"><ele>332.3333333333333</ele><time>2026-05-02T06:49:58Z</time></trkpt><trkpt lat="43.4537999198662" lon="11.422688764754032"><ele>333.6666666666667</ele><time>2026-05-02T06:49:59Z</time></trkpt><trkpt lat="43.453673861542406" lon="11.42249590588417"><ele>335.0</ele><time>2026-05-02T06:50:00Z</time></trkpt><trkpt lat="43.45355116948578" lon="11.422311547794145"><ele>334.0</ele><time>2026-05-02T06:50:01Z</time></trkpt><trkpt lat="43.45343163555799" lon="11.422126565309185"><ele>333.0</ele><time>2026-05-02T06:50:02Z</time></trkpt><trkpt lat="43.45331650261968" lon="11.421942701152778"><ele>332.0</ele><time>2026-05-02T06:50:03Z</time></trkpt><trkpt lat="43.45319942048133" lon="11.421764499929862"><ele>332.0</ele><time>2026-05-02T06:50:04Z</time></trkpt><trkpt lat="43.4530828892349" lon="11.421592296984"><ele>332.0</ele><time>2026-05-02T06:50:05Z</time></trkpt><trkpt lat="43.45295058724246" lon="11.421450266433327"><ele>332.0</ele><time>2026-05-02T06:50:06Z</time></trkpt><trkpt lat="43.452795101600856" lon="11.421340169398576"><ele>333.0</ele><time>2026-05-02T06:50:07Z</time></trkpt><trkpt lat="43.45263897464213" lon="11.421232817022638"><ele>334.0</ele><time>2026-05-02T06:50:08Z</time></trkpt><trkpt lat="43.45251147747512" lon="11.421081593331245"><ele>335.0</ele><time>2026-05-02T06:50:09Z</time></trkpt><trkpt lat="43.452389865019605" lon="11.420927652852768"><ele>335.0</ele><time>2026-05-02T06:50:10Z</time></trkpt><trkpt lat="43.452266889126655" lon="11.420773254965301"><ele>335.0</ele><time>2026-05-02T06:50:11Z</time></trkpt><trkpt lat="43.45215216901344" lon="11.420592573560208"><ele>335.0</ele><time>2026-05-02T06:50:12Z</time></trkpt><trkpt lat="43.45203865664438" lon="11.420417195243083"><ele>333.6666666666667</ele><time>2026-05-02T06:50:13Z</time></trkpt><trkpt lat="43.45192822287208" lon="11.420238524477998"><ele>332.3333333333333</ele><time>2026-05-02T06:50:14Z</time></trkpt><trkpt lat="43.451822623686965" lon="11.42006101841172"><ele>331.0</ele><time>2026-05-02T06:50:15Z</time></trkpt><trkpt lat="43.45172367209035" lon="11.419894617372304"><ele>331.0</ele><time>2026-05-02T06:50:16Z</time></trkpt><trkpt lat="43.451617351911224" lon="11.419729183810945"><ele>331.0</ele><time>2026-05-02T06:50:17Z</time></trkpt><trkpt lat="43.45149878256479" lon="11.419580091884859"><ele>331.0</ele><time>2026-05-02T06:50:18Z</time></trkpt><trkpt lat="43.45136283909265" lon="11.419446497651421"><ele>329.3333333333333</ele><time>2026-05-02T06:50:19Z</time></trkpt><trkpt lat="43.45121951296149" lon="11.419320768207506"><ele>327.6666666666667</ele><time>2026-05-02T06:50:20Z</time></trkpt><trkpt lat="43.451079830893285" lon="11.419211331889981"><ele>326.0</ele><time>2026-05-02T06:50:21Z</time></trkpt><trkpt lat="43.45093584881945" lon="11.419121685605475"><ele>326.0</ele><time>2026-05-02T06:50:22Z</time></trkpt><trkpt lat="43.45077747100608" lon="11.419062438720534"><ele>326.0</ele><time>2026-05-02T06:50:23Z</time></trkpt><trkpt lat="43.45062020558194" lon="11.419025569466497"><ele>326.0</ele><time>2026-05-02T06:50:24Z</time></trkpt><trkpt lat="43.450476989907926" lon="11.418993410942345"><ele>325.5</ele><time>2026-05-02T06:50:25Z</time></trkpt><trkpt lat="43.450336237827976" lon="11.418975908224287"><ele>325.0</ele><time>2026-05-02T06:50:26Z</time></trkpt><trkpt lat="43.450202858583864" lon="11.418950693173379"><ele>324.5</ele><time>2026-05-02T06:50:27Z</time></trkpt><trkpt lat="43.45007483968938" lon="11.418922945662894"><ele>324.0</ele><time>2026-05-02T06:50:28Z</time></trkpt><trkpt lat="43.44993043851735" lon="11.418928764359384"><ele>324.0</ele><time>2026-05-02T06:50:29Z</time></trkpt><trkpt lat="43.44978908033352" lon="11.418842206988607"><ele>324.0</ele><time>2026-05-02T06:50:30Z</time></trkpt><trkpt lat="43.44964125032772" lon="11.418744614762696"><ele>324.0</ele><time>2026-05-02T06:50:31Z</time></trkpt><trkpt lat="43.44948666931372" lon="11.418667754202366"><ele>326.3333333333333</ele><time>2026-05-02T06:50:32Z</time></trkpt><trkpt lat="43.44932642142071" lon="11.418605614343905"><ele>328.66666666666663</ele><time>2026-05-02T06:50:33Z</time></trkpt><trkpt lat="43.4491608850396" lon="11.418564711635145"><ele>331.0</ele><time>2026-05-02T06:50:34Z</time></trkpt><trkpt lat="43.44899283032135" lon="11.418542116283787"><ele>331.0</ele><time>2026-05-02T06:50:35Z</time></trkpt><trkpt lat="43.44882749345306" lon="11.418528912871162"><ele>331.0</ele><time>2026-05-02T06:50:36Z</time></trkpt><trkpt lat="43.44866269308642" lon="11.418519298498449"><ele>331.0</ele><time>2026-05-02T06:50:37Z</time></trkpt><trkpt lat="43.44849755009452" lon="11.418504328677049"><ele>331.0</ele><time>2026-05-02T06:50:38Z</time></trkpt><trkpt lat="43.44833955410621" lon="11.418452822675782"><ele>331.0</ele><time>2026-05-02T06:50:39Z</time></trkpt><trkpt lat="43.448202430522436" lon="11.418334521160132"><ele>331.0</ele><time>2026-05-02T06:50:40Z</time></trkpt><trkpt lat="43.448060231499895" lon="11.418202843324435"><ele>329.0</ele><time>2026-05-02T06:50:41Z</time></trkpt><trkpt lat="43.447910750779585" lon="11.418076479290903"><ele>327.0</ele><time>2026-05-02T06:50:42Z</time></trkpt><trkpt lat="43.44777160075105" lon="11.417932489281101"><ele>325.0</ele><time>2026-05-02T06:50:43Z</time></trkpt><trkpt lat="43.447624451733915" lon="11.417814988503169"><ele>329.3333333333333</ele><time>2026-05-02T06:50:44Z</time></trkpt><trkpt lat="43.447456647771574" lon="11.417743192652951"><ele>333.6666666666667</ele><time>2026-05-02T06:50:45Z</time></trkpt><trkpt lat="43.44728170317798" lon="11.417693964501572"><ele>338.0</ele><time>2026-05-02T06:50:46Z</time></trkpt><trkpt lat="43.44710851009628" lon="11.417653479632202"><ele>338.6666666666667</ele><time>2026-05-02T06:50:47Z</time></trkpt><trkpt lat="43.44693340183148" lon="11.417621234247909"><ele>339.3333333333333</ele><time>2026-05-02T06:50:48Z</time></trkpt><trkpt lat="43.446767534523524" lon="11.417579856575745"><ele>340.0</ele><time>2026-05-02T06:50:49Z</time></trkpt><trkpt lat="43.44660979312716" lon="11.417542632014575"><ele>340.0</ele><time>2026-05-02T06:50:50Z</time></trkpt><trkpt lat="43.44645908552729" lon="11.417506451994855"><ele>340.0</ele><time>2026-05-02T06:50:51Z</time></trkpt><trkpt lat="43.446313282716936" lon="11.417475028339858"><ele>340.0</ele><time>2026-05-02T06:50:52Z</time></trkpt><trkpt lat="43.44617199463113" lon="11.417471175263355"><ele>340.0</ele><time>2026-05-02T06:50:53Z</time></trkpt><trkpt lat="43.44603467048612" lon="11.41752923079541"><ele>340.66666666666663</ele><time>2026-05-02T06:50:54Z</time></trkpt><trkpt lat="43.445912645694676" lon="11.417657560028864"><ele>341.3333333333333</ele><time>2026-05-02T06:50:55Z</time></trkpt><trkpt lat="43.445818889140064" lon="11.417845473999217"><ele>342.0</ele><time>2026-05-02T06:50:56Z</time></trkpt><trkpt lat="43.445744887705345" lon="11.418063197024232"><ele>342.0</ele><time>2026-05-02T06:50:57Z</time></trkpt><trkpt lat="43.445692430584764" lon="11.418303312739345"><ele>342.0</ele><time>2026-05-02T06:50:58Z</time></trkpt><trkpt lat="43.445652840507584" lon="11.418543688898247"><ele>342.0</ele><time>2026-05-02T06:50:59Z</time></trkpt><trkpt lat="43.44563055113583" lon="11.418777086805557"><ele>340.0</ele><time>2026-05-02T06:51:00Z</time></trkpt><trkpt lat="43.44562689128967" lon="11.41899848235302"><ele>338.0</ele><time>2026-05-02T06:51:01Z</time></trkpt><trkpt lat="43.445632500928326" lon="11.419207031569483"><ele>336.0</ele><time>2026-05-02T06:51:02Z</time></trkpt><trkpt lat="43.44563631385881" lon="11.419392084663697"><ele>334.0</ele><time>2026-05-02T06:51:03Z</time></trkpt><trkpt lat="43.445594942186396" lon="11.419554440671916"><ele>335.25</ele><time>2026-05-02T06:51:04Z</time></trkpt><trkpt lat="43.4455177954696" lon="11.419671737984483"><ele>336.5</ele><time>2026-05-02T06:51:05Z</time></trkpt><trkpt lat="43.44540785294838" lon="11.419752537297077"><ele>337.75</ele><time>2026-05-02T06:51:06Z</time></trkpt><trkpt lat="43.445272691456275" lon="11.419824581746289"><ele>339.0</ele><time>2026-05-02T06:51:07Z</time></trkpt><trkpt lat="43.44513272394996" lon="11.419909170215229"><ele>339.0</ele><time>2026-05-02T06:51:07.999Z</time></trkpt><trkpt lat="43.4449888639829" lon="11.419985585272135"><ele>339.0</ele><time>2026-05-02T06:51:08.999Z</time></trkpt><trkpt lat="43.444847459462174" lon="11.42007124050263"><ele>339.0</ele><time>2026-05-02T06:51:09.999Z</time></trkpt><trkpt lat="43.4447093529096" lon="11.420162253951252"><ele>338.3333333333333</ele><time>2026-05-02T06:51:10.999Z</time></trkpt><trkpt lat="43.444574859534164" lon="11.420281716067201"><ele>337.66666666666663</ele><time>2026-05-02T06:51:11.999Z</time></trkpt><trkpt lat="43.44445958152834" lon="11.420443794635442"><ele>337.0</ele><time>2026-05-02T06:51:12.999Z</time></trkpt><trkpt lat="43.44435825009982" lon="11.420623980413925"><ele>337.0</ele><time>2026-05-02T06:51:13.999Z</time></trkpt><trkpt lat="43.44425192581062" lon="11.42079339333835"><ele>337.0</ele><time>2026-05-02T06:51:14.999Z</time></trkpt><trkpt lat="43.444113988049786" lon="11.420907465115434"><ele>337.0</ele><time>2026-05-02T06:51:15.999Z</time></trkpt><trkpt lat="43.4439777902113" lon="11.421041457493418"><ele>337.0</ele><time>2026-05-02T06:51:16.999Z</time></trkpt><trkpt lat="43.44382172500452" lon="11.421131974541352"><ele>337.0</ele><time>2026-05-02T06:51:17.999Z</time></trkpt><trkpt lat="43.4436778066414" lon="11.421229631894702"><ele>337.0</ele><time>2026-05-02T06:51:18.999Z</time></trkpt><trkpt lat="43.44354643882533" lon="11.42133411575709"><ele>334.0</ele><time>2026-05-02T06:51:19.999Z</time></trkpt><trkpt lat="43.44341835876686" lon="11.4214381639335"><ele>331.0</ele><time>2026-05-02T06:51:20.999Z</time></trkpt><trkpt lat="43.443274653319456" lon="11.421514423636712"><ele>328.0</ele><time>2026-05-02T06:51:22Z</time></trkpt><trkpt lat="43.44311522203394" lon="11.42156020651157"><ele>328.0</ele><time>2026-05-02T06:51:23Z</time></trkpt><trkpt lat="43.44294856710285" lon="11.421578868763921"><ele>328.0</ele><time>2026-05-02T06:51:24Z</time></trkpt><trkpt lat="43.44278175124772" lon="11.421574543171172"><ele>328.0</ele><time>2026-05-02T06:51:25Z</time></trkpt><trkpt lat="43.442608533915795" lon="11.4215674612871"><ele>328.0</ele><time>2026-05-02T06:51:26Z</time></trkpt><trkpt lat="43.442432188383584" lon="11.421547483611356"><ele>328.0</ele><time>2026-05-02T06:51:27Z</time></trkpt><trkpt lat="43.44225434245344" lon="11.421519112874066"><ele>328.0</ele><time>2026-05-02T06:51:28Z</time></trkpt><trkpt lat="43.44207678428413" lon="11.421491054315872"><ele>326.3333333333333</ele><time>2026-05-02T06:51:29Z</time></trkpt><trkpt lat="43.44189910197244" lon="11.42146533457392"><ele>324.6666666666667</ele><time>2026-05-02T06:51:30Z</time></trkpt><trkpt lat="43.441721833197434" lon="11.421442208411891"><ele>323.0</ele><time>2026-05-02T06:51:31Z</time></trkpt><trkpt lat="43.441541712037875" lon="11.4214137352784"><ele>323.0</ele><time>2026-05-02T06:51:32Z</time></trkpt><trkpt lat="43.44136071022591" lon="11.421381490179883"><ele>323.0</ele><time>2026-05-02T06:51:33Z</time></trkpt><trkpt lat="43.44118268082908" lon="11.421332684619369"><ele>323.0</ele><time>2026-05-02T06:51:34Z</time></trkpt><trkpt lat="43.44101034898178" lon="11.421238128729055"><ele>325.33333333333337</ele><time>2026-05-02T06:51:35Z</time></trkpt><trkpt lat="43.44085250385826" lon="11.42111299225978"><ele>327.6666666666667</ele><time>2026-05-02T06:51:36Z</time></trkpt><trkpt lat="43.440680427861516" lon="11.420992958672327"><ele>330.0</ele><time>2026-05-02T06:51:37Z</time></trkpt><trkpt lat="43.44051541947361" lon="11.42084611159927"><ele>329.6666666666667</ele><time>2026-05-02T06:51:38Z</time></trkpt><trkpt lat="43.44035125643936" lon="11.4207052656487"><ele>329.33333333333337</ele><time>2026-05-02T06:51:39Z</time></trkpt><trkpt lat="43.4401895980272" lon="11.420565928921926"><ele>329.0</ele><time>2026-05-02T06:51:40Z</time></trkpt><trkpt lat="43.44002681624211" lon="11.420428044186364"><ele>329.0</ele><time>2026-05-02T06:51:41Z</time></trkpt><trkpt lat="43.43986528425912" lon="11.420291015428093"><ele>329.0</ele><time>2026-05-02T06:51:42Z</time></trkpt><trkpt lat="43.43970648407336" lon="11.420150307524915"><ele>329.0</ele><time>2026-05-02T06:51:43Z</time></trkpt><trkpt lat="43.439553444051825" lon="11.420016268775488"><ele>325.33333333333337</ele><time>2026-05-02T06:51:44Z</time></trkpt><trkpt lat="43.43939502155765" lon="11.419883565632224"><ele>321.6666666666667</ele><time>2026-05-02T06:51:45Z</time></trkpt><trkpt lat="43.43923019553831" lon="11.419773659691563"><ele>318.0</ele><time>2026-05-02T06:51:46Z</time></trkpt><trkpt lat="43.43905385751455" lon="11.419690398466738"><ele>321.3333333333333</ele><time>2026-05-02T06:51:47Z</time></trkpt><trkpt lat="43.43886859157855" lon="11.419631932679765"><ele>324.66666666666663</ele><time>2026-05-02T06:51:48Z</time></trkpt><trkpt lat="43.43867033746781" lon="11.41960491003548"><ele>328.0</ele><time>2026-05-02T06:51:49Z</time></trkpt><trkpt lat="43.43847226514955" lon="11.419593684276164"><ele>328.0</ele><time>2026-05-02T06:51:50Z</time></trkpt><trkpt lat="43.438265146047016" lon="11.419579658918636"><ele>328.0</ele><time>2026-05-02T06:51:51Z</time></trkpt><trkpt lat="43.43806450839246" lon="11.419558831250406"><ele>328.0</ele><time>2026-05-02T06:51:52Z</time></trkpt><trkpt lat="43.43787020350214" lon="11.419527084206132"><ele>326.3333333333333</ele><time>2026-05-02T06:51:53Z</time></trkpt><trkpt lat="43.437674182302345" lon="11.41949435258615"><ele>324.6666666666667</ele><time>2026-05-02T06:51:54Z</time></trkpt><trkpt lat="43.4374788082098" lon="11.419457667010503"><ele>323.0</ele><time>2026-05-02T06:51:55Z</time></trkpt><trkpt lat="43.437287424669094" lon="11.41942236965485"><ele>322.0</ele><time>2026-05-02T06:51:56Z</time></trkpt><trkpt lat="43.43709101229444" lon="11.419386279480452"><ele>321.0</ele><time>2026-05-02T06:51:57Z</time></trkpt><trkpt lat="43.43689170799035" lon="11.419351472841628"><ele>320.0</ele><time>2026-05-02T06:51:58Z</time></trkpt><trkpt lat="43.43670778323168" lon="11.41932161982244"><ele>320.0</ele><time>2026-05-02T06:51:59Z</time></trkpt><trkpt lat="43.43652539960998" lon="11.419289566328573"><ele>320.0</ele><time>2026-05-02T06:52:00Z</time></trkpt><trkpt lat="43.43635335533438" lon="11.419237085282786"><ele>320.0</ele><time>2026-05-02T06:52:01Z</time></trkpt><trkpt lat="43.43618190445777" lon="11.419222092718353"><ele>318.6666666666667</ele><time>2026-05-02T06:52:02Z</time></trkpt><trkpt lat="43.43600939104769" lon="11.419184743180692"><ele>317.3333333333333</ele><time>2026-05-02T06:52:03Z</time></trkpt><trkpt lat="43.43583790756043" lon="11.41914775133501"><ele>316.0</ele><time>2026-05-02T06:52:04Z</time></trkpt><trkpt lat="43.43567960353662" lon="11.419118352927295"><ele>316.0</ele><time>2026-05-02T06:52:05Z</time></trkpt><trkpt lat="43.43553035247546" lon="11.419091279994282"><ele>316.0</ele><time>2026-05-02T06:52:06Z</time></trkpt><trkpt lat="43.43538673294352" lon="11.419077911789161"><ele>316.0</ele><time>2026-05-02T06:52:07Z</time></trkpt><trkpt lat="43.435241061641634" lon="11.419097780306561"><ele>316.0</ele><time>2026-05-02T06:52:08Z</time></trkpt><trkpt lat="43.435096044866526" lon="11.419165678266388"><ele>317.0</ele><time>2026-05-02T06:52:09Z</time></trkpt><trkpt lat="43.43495508890591" lon="11.419280036176328"><ele>318.0</ele><time>2026-05-02T06:52:10Z</time></trkpt><trkpt lat="43.43481034977371" lon="11.41941452652654"><ele>319.0</ele><time>2026-05-02T06:52:11Z</time></trkpt><trkpt lat="43.43466513684783" lon="11.419553851073474"><ele>318.0</ele><time>2026-05-02T06:52:12Z</time></trkpt><trkpt lat="43.434519804155364" lon="11.419708941213525"><ele>317.0</ele><time>2026-05-02T06:52:13Z</time></trkpt><trkpt lat="43.43437595609394" lon="11.419877205208335"><ele>316.0</ele><time>2026-05-02T06:52:14Z</time></trkpt><trkpt lat="43.434235041542635" lon="11.42004368411844"><ele>316.0</ele><time>2026-05-02T06:52:15Z</time></trkpt><trkpt lat="43.434092518169855" lon="11.420207702785508"><ele>316.0</ele><time>2026-05-02T06:52:16Z</time></trkpt><trkpt lat="43.43395569626227" lon="11.420363230277664"><ele>316.0</ele><time>2026-05-02T06:52:17Z</time></trkpt><trkpt lat="43.43383129994378" lon="11.420517093288357"><ele>312.75</ele><time>2026-05-02T06:52:18Z</time></trkpt><trkpt lat="43.433725277821516" lon="11.420673254659226"><ele>309.5</ele><time>2026-05-02T06:52:19Z</time></trkpt><trkpt lat="43.43360902575632" lon="11.420784358460207"><ele>306.25</ele><time>2026-05-02T06:52:20Z</time></trkpt><trkpt lat="43.433502402589845" lon="11.420875190449024"><ele>303.0</ele><time>2026-05-02T06:52:21Z</time></trkpt><trkpt lat="43.43338686741721" lon="11.420875151195345"><ele>303.0</ele><time>2026-05-02T06:52:22Z</time></trkpt><trkpt lat="43.43326987973085" lon="11.420806329007938"><ele>303.0</ele><time>2026-05-02T06:52:23Z</time></trkpt><trkpt lat="43.43316332556798" lon="11.420677181690438"><ele>303.0</ele><time>2026-05-02T06:52:24Z</time></trkpt><trkpt lat="43.43307164807083" lon="11.420516489420864"><ele>303.0</ele><time>2026-05-02T06:52:25Z</time></trkpt><trkpt lat="43.43300111183292" lon="11.42032129217763"><ele>302.3333333333333</ele><time>2026-05-02T06:52:26Z</time></trkpt><trkpt lat="43.43292784920156" lon="11.420105906608871"><ele>301.66666666666663</ele><time>2026-05-02T06:52:27Z</time></trkpt><trkpt lat="43.432845671728636" lon="11.419902772494893"><ele>301.0</ele><time>2026-05-02T06:52:28Z</time></trkpt><trkpt lat="43.43275326188979" lon="11.419700681472678"><ele>302.0</ele><time>2026-05-02T06:52:29Z</time></trkpt><trkpt lat="43.432644660631745" lon="11.419510691033357"><ele>303.0</ele><time>2026-05-02T06:52:30Z</time></trkpt><trkpt lat="43.4325217276484" lon="11.41932965155209"><ele>304.0</ele><time>2026-05-02T06:52:31Z</time></trkpt><trkpt lat="43.432391894797604" lon="11.419149437390159"><ele>304.0</ele><time>2026-05-02T06:52:32Z</time></trkpt><trkpt lat="43.432267358700244" lon="11.418962773659484"><ele>304.0</ele><time>2026-05-02T06:52:33Z</time></trkpt><trkpt lat="43.432142051459856" lon="11.418771239653836"><ele>304.0</ele><time>2026-05-02T06:52:34Z</time></trkpt><trkpt lat="43.43201711191469" lon="11.418586684999426"><ele>302.3333333333333</ele><time>2026-05-02T06:52:35Z</time></trkpt><trkpt lat="43.43189299779723" lon="11.418407428285727"><ele>300.6666666666667</ele><time>2026-05-02T06:52:36Z</time></trkpt><trkpt lat="43.43177515520276" lon="11.418233559434519"><ele>299.0</ele><time>2026-05-02T06:52:37Z</time></trkpt><trkpt lat="43.4316670211008" lon="11.418072396020133"><ele>301.75</ele><time>2026-05-02T06:52:38Z</time></trkpt><trkpt lat="43.43156639357735" lon="11.417922215184516"><ele>304.5</ele><time>2026-05-02T06:52:39Z</time></trkpt><trkpt lat="43.43147798783213" lon="11.417788423412183"><ele>307.25</ele><time>2026-05-02T06:52:40Z</time></trkpt><trkpt lat="43.431402874932424" lon="11.417683178660557"><ele>310.0</ele><time>2026-05-02T06:52:41Z</time></trkpt><trkpt lat="43.431348583726106" lon="11.4175815096041"><ele>307.0</ele><time>2026-05-02T06:52:42Z</time></trkpt><trkpt lat="43.43130250450897" lon="11.417512466671724"><ele>304.0</ele><time>2026-05-02T06:52:43Z</time></trkpt><trkpt lat="43.43107203993483" lon="11.41766819152083"><ele>301.0</ele><time>2026-05-02T06:52:45Z</time></trkpt><trkpt lat="43.4309635962332" lon="11.417766579756849"><ele>301.0</ele><time>2026-05-02T06:52:46Z</time></trkpt><trkpt lat="43.43084888854507" lon="11.41786051739431"><ele>301.0</ele><time>2026-05-02T06:52:47Z</time></trkpt><trkpt lat="43.430719760379446" lon="11.417955197455672"><ele>301.0</ele><time>2026-05-02T06:52:48Z</time></trkpt><trkpt lat="43.43057974198655" lon="11.41805402743114"><ele>301.0</ele><time>2026-05-02T06:52:49Z</time></trkpt><trkpt lat="43.43042717817571" lon="11.418162562439129"><ele>301.3333333333333</ele><time>2026-05-02T06:52:50Z</time></trkpt><trkpt lat="43.430260296172726" lon="11.41828512492717"><ele>301.6666666666667</ele><time>2026-05-02T06:52:51Z</time></trkpt><trkpt lat="43.430066574950814" lon="11.418422408597891"><ele>302.0</ele><time>2026-05-02T06:52:52Z</time></trkpt><trkpt lat="43.429846576953004" lon="11.418595498871507"><ele>303.0</ele><time>2026-05-02T06:52:53Z</time></trkpt><trkpt lat="43.42961704392429" lon="11.418745068447018"><ele>304.0</ele><time>2026-05-02T06:52:54Z</time></trkpt><trkpt lat="43.42942325503856" lon="11.41890681241699"><ele>306.0</ele><time>2026-05-02T06:52:55Z</time></trkpt><trkpt lat="43.429220136510615" lon="11.418990480307873"><ele>308.0</ele><time>2026-05-02T06:52:56Z</time></trkpt><trkpt lat="43.429007123232154" lon="11.4190696789049"><ele>310.0</ele><time>2026-05-02T06:52:57Z</time></trkpt><trkpt lat="43.4287913584756" lon="11.41914161957497"><ele>310.3333333333333</ele><time>2026-05-02T06:52:58Z</time></trkpt><trkpt lat="43.42858446985309" lon="11.419183859290364"><ele>310.6666666666667</ele><time>2026-05-02T06:52:59Z</time></trkpt><trkpt lat="43.428398888716224" lon="11.419255907959382"><ele>311.0</ele><time>2026-05-02T06:53:00Z</time></trkpt><trkpt lat="43.42822487526045" lon="11.419381280765574"><ele>311.0</ele><time>2026-05-02T06:53:01Z</time></trkpt><trkpt lat="43.4280646315419" lon="11.41954624131735"><ele>311.0</ele><time>2026-05-02T06:53:02Z</time></trkpt><trkpt lat="43.4279285403606" lon="11.419718808183287"><ele>311.0</ele><time>2026-05-02T06:53:03Z</time></trkpt><trkpt lat="43.42782144589603" lon="11.41988887734157"><ele>311.0</ele><time>2026-05-02T06:53:04Z</time></trkpt><trkpt lat="43.42773566117566" lon="11.42005782100704"><ele>311.0</ele><time>2026-05-02T06:53:05Z</time></trkpt><trkpt lat="43.42769043711934" lon="11.420234729760482"><ele>311.0</ele><time>2026-05-02T06:53:06Z</time></trkpt><trkpt lat="43.42769689548045" lon="11.420435276668028"><ele>311.0</ele><time>2026-05-02T06:53:07Z</time></trkpt><trkpt lat="43.42775111662158" lon="11.420668400919647"><ele>311.0</ele><time>2026-05-02T06:53:08Z</time></trkpt><trkpt lat="43.42781949632159" lon="11.420936021820403"><ele>311.0</ele><time>2026-05-02T06:53:09Z</time></trkpt><trkpt lat="43.42783467570756" lon="11.421228463060059"><ele>311.0</ele><time>2026-05-02T06:53:09.999Z</time></trkpt><trkpt lat="43.42782867843319" lon="11.421512832098188"><ele>310.6666666666667</ele><time>2026-05-02T06:53:10.999Z</time></trkpt><trkpt lat="43.42780003532296" lon="11.421788288511822"><ele>310.3333333333333</ele><time>2026-05-02T06:53:11.999Z</time></trkpt><trkpt lat="43.42775359301779" lon="11.422040052828574"><ele>310.0</ele><time>2026-05-02T06:53:12.999Z</time></trkpt><trkpt lat="43.427693287651195" lon="11.42225681994379"><ele>312.0</ele><time>2026-05-02T06:53:13.999Z</time></trkpt><trkpt lat="43.42761365123336" lon="11.422453807498401"><ele>314.0</ele><time>2026-05-02T06:53:14.999Z</time></trkpt><trkpt lat="43.427527937887945" lon="11.422596779760033"><ele>316.0</ele><time>2026-05-02T06:53:15.999Z</time></trkpt><trkpt lat="43.42741643953735" lon="11.422677715097672"><ele>318.0</ele><time>2026-05-02T06:53:16.999Z</time></trkpt><trkpt lat="43.42727054644536" lon="11.422716807931824"><ele>316.6666666666667</ele><time>2026-05-02T06:53:17.999Z</time></trkpt><trkpt lat="43.427083835201906" lon="11.422762237348724"><ele>315.33333333333337</ele><time>2026-05-02T06:53:18.999Z</time></trkpt><trkpt lat="43.426879966682826" lon="11.422825504847248"><ele>314.0</ele><time>2026-05-02T06:53:19.999Z</time></trkpt><trkpt lat="43.42669719049186" lon="11.422853871497109"><ele>314.0</ele><time>2026-05-02T06:53:20.999Z</time></trkpt><trkpt lat="43.42654488062821" lon="11.422886827530425"><ele>314.0</ele><time>2026-05-02T06:53:21.999Z</time></trkpt><trkpt lat="43.426411310644326" lon="11.422925305777198"><ele>314.0</ele><time>2026-05-02T06:53:22.999Z</time></trkpt><trkpt lat="43.42629646824194" lon="11.422974896798733"><ele>314.0</ele><time>2026-05-02T06:53:23.999Z</time></trkpt><trkpt lat="43.4262022932699" lon="11.42305419587663"><ele>314.25</ele><time>2026-05-02T06:53:24.999Z</time></trkpt><trkpt lat="43.426139283534674" lon="11.423172157805903"><ele>314.5</ele><time>2026-05-02T06:53:25.999Z</time></trkpt><trkpt lat="43.42611414029027" lon="11.42333535494275"><ele>314.75</ele><time>2026-05-02T06:53:27Z</time></trkpt><trkpt lat="43.426138441845126" lon="11.423515073076885"><ele>315.0</ele><time>2026-05-02T06:53:28Z</time></trkpt><trkpt lat="43.42619224434953" lon="11.423701185730227"><ele>316.0</ele><time>2026-05-02T06:53:29Z</time></trkpt><trkpt lat="43.42626763913145" lon="11.423914352108017"><ele>317.0</ele><time>2026-05-02T06:53:30Z</time></trkpt><trkpt lat="43.426311891493754" lon="11.42418557689573"><ele>318.0</ele><time>2026-05-02T06:53:31Z</time></trkpt><trkpt lat="43.42638162297821" lon="11.424502634157628"><ele>323.5</ele><time>2026-05-02T06:53:32Z</time></trkpt><trkpt lat="43.426450698069154" lon="11.424831704946152"><ele>329.0</ele><time>2026-05-02T06:53:33Z</time></trkpt><trkpt lat="43.426528857781925" lon="11.425161743976306"><ele>329.5</ele><time>2026-05-02T06:53:34Z</time></trkpt><trkpt lat="43.426547749342824" lon="11.425488390922922"><ele>330.0</ele><time>2026-05-02T06:53:35Z</time></trkpt><trkpt lat="43.42653249158968" lon="11.42580682194238"><ele>330.0</ele><time>2026-05-02T06:53:36Z</time></trkpt><trkpt lat="43.42650000008321" lon="11.426118137469244"><ele>330.0</ele><time>2026-05-02T06:53:37Z</time></trkpt><trkpt lat="43.426445878909306" lon="11.426413163223074"><ele>330.0</ele><time>2026-05-02T06:53:38Z</time></trkpt><trkpt lat="43.42637147357253" lon="11.426688643770058"><ele>330.3333333333333</ele><time>2026-05-02T06:53:39Z</time></trkpt><trkpt lat="43.426280938202666" lon="11.426939399830664"><ele>330.66666666666663</ele><time>2026-05-02T06:53:40Z</time></trkpt><trkpt lat="43.42616004538545" lon="11.427129780951166"><ele>331.0</ele><time>2026-05-02T06:53:41Z</time></trkpt><trkpt lat="43.42604416168528" lon="11.42731487077382"><ele>329.66666666666663</ele><time>2026-05-02T06:53:42Z</time></trkpt><trkpt lat="43.42592763087198" lon="11.427463218588334"><ele>328.3333333333333</ele><time>2026-05-02T06:53:43Z</time></trkpt><trkpt lat="43.42587108560646" lon="11.427649479354555"><ele>327.0</ele><time>2026-05-02T06:53:44Z</time></trkpt><trkpt lat="43.42586733074922" lon="11.427901042872765"><ele>327.5</ele><time>2026-05-02T06:53:45Z</time></trkpt><trkpt lat="43.42589181463052" lon="11.428212749941181"><ele>328.0</ele><time>2026-05-02T06:53:46Z</time></trkpt><trkpt lat="43.425913431516086" lon="11.428532566440003"><ele>330.0</ele><time>2026-05-02T06:53:47Z</time></trkpt><trkpt lat="43.425918367561806" lon="11.42886246408531"><ele>332.0</ele><time>2026-05-02T06:53:48Z</time></trkpt><trkpt lat="43.42591658038287" lon="11.42919815937747"><ele>332.0</ele><time>2026-05-02T06:53:49Z</time></trkpt><trkpt lat="43.425914922819366" lon="11.429526768400693"><ele>332.0</ele><time>2026-05-02T06:53:50Z</time></trkpt><trkpt lat="43.425918567439666" lon="11.429834722792165"><ele>332.0</ele><time>2026-05-02T06:53:51Z</time></trkpt><trkpt lat="43.42592108948512" lon="11.430116131908214"><ele>332.0</ele><time>2026-05-02T06:53:52Z</time></trkpt><trkpt lat="43.42588757497321" lon="11.430369867439298"><ele>332.0</ele><time>2026-05-02T06:53:53Z</time></trkpt><trkpt lat="43.42583658532727" lon="11.430604955756126"><ele>332.6666666666667</ele><time>2026-05-02T06:53:54Z</time></trkpt><trkpt lat="43.42575665162377" lon="11.430832082637153"><ele>333.3333333333333</ele><time>2026-05-02T06:53:55Z</time></trkpt><trkpt lat="43.42568777629846" lon="11.431063044450198"><ele>334.0</ele><time>2026-05-02T06:53:56Z</time></trkpt><trkpt lat="43.425606880647074" lon="11.43125930372549"><ele>335.5</ele><time>2026-05-02T06:53:57Z</time></trkpt><trkpt lat="43.42553854434654" lon="11.431439712911438"><ele>337.0</ele><time>2026-05-02T06:53:58Z</time></trkpt><trkpt lat="43.42547983127134" lon="11.431610876523324"><ele>338.5</ele><time>2026-05-02T06:53:59Z</time></trkpt><trkpt lat="43.425427018097665" lon="11.431765569257843"><ele>340.0</ele><time>2026-05-02T06:54:00Z</time></trkpt><trkpt lat="43.42538021340005" lon="11.431907729981845"><ele>340.0</ele><time>2026-05-02T06:54:01Z</time></trkpt><trkpt lat="43.42533989815271" lon="11.432035766806676"><ele>340.0</ele><time>2026-05-02T06:54:02Z</time></trkpt><trkpt lat="43.42528847352862" lon="11.432149017416972"><ele>340.0</ele><time>2026-05-02T06:54:03Z</time></trkpt><trkpt lat="43.425202010086664" lon="11.432229859546538"><ele>340.0</ele><time>2026-05-02T06:54:04Z</time></trkpt><trkpt lat="43.42508330503165" lon="11.432221599269166"><ele>340.0</ele><time>2026-05-02T06:54:05Z</time></trkpt><trkpt lat="43.424981941847925" lon="11.432299367058505"><ele>340.0</ele><time>2026-05-02T06:54:06Z</time></trkpt><trkpt lat="43.42489853935012" lon="11.432428537377453"><ele>340.0</ele><time>2026-05-02T06:54:07Z</time></trkpt><trkpt lat="43.42484367682494" lon="11.432617222448023"><ele>340.0</ele><time>2026-05-02T06:54:08Z</time></trkpt><trkpt lat="43.42478769198571" lon="11.43283674234707"><ele>340.0</ele><time>2026-05-02T06:54:09Z</time></trkpt><trkpt lat="43.42471025551856" lon="11.433038684411343"><ele>348.0</ele><time>2026-05-02T06:54:10Z</time></trkpt><trkpt lat="43.42463289569663" lon="11.4332362252591"><ele>356.0</ele><time>2026-05-02T06:54:11Z</time></trkpt><trkpt lat="43.42455650984688" lon="11.433436335151685"><ele>364.0</ele><time>2026-05-02T06:54:12Z</time></trkpt><trkpt lat="43.42448175494707" lon="11.433636808660111"><ele>359.66666666666663</ele><time>2026-05-02T06:54:13Z</time></trkpt><trkpt lat="43.42441904413645" lon="11.433853314834886"><ele>355.3333333333333</ele><time>2026-05-02T06:54:14Z</time></trkpt><trkpt lat="43.42437832455041" lon="11.434068074783646"><ele>351.0</ele><time>2026-05-02T06:54:15Z</time></trkpt><trkpt lat="43.424354868788576" lon="11.434281084188948"><ele>351.0</ele><time>2026-05-02T06:54:16Z</time></trkpt><trkpt lat="43.42434465379853" lon="11.434474752027246"><ele>351.0</ele><time>2026-05-02T06:54:17Z</time></trkpt><trkpt lat="43.42437133825601" lon="11.43466016734401"><ele>351.0</ele><time>2026-05-02T06:54:18Z</time></trkpt><trkpt lat="43.42443887991901" lon="11.434834394974775"><ele>351.0</ele><time>2026-05-02T06:54:19Z</time></trkpt><trkpt lat="43.42454130129267" lon="11.434982634346023"><ele>348.3333333333333</ele><time>2026-05-02T06:54:20Z</time></trkpt><trkpt lat="43.42467415547816" lon="11.43510499571212"><ele>345.66666666666663</ele><time>2026-05-02T06:54:21Z</time></trkpt><trkpt lat="43.42482462979789" lon="11.435205481801388"><ele>343.0</ele><time>2026-05-02T06:54:22Z</time></trkpt><trkpt lat="43.424980051490564" lon="11.435289458645723"><ele>343.0</ele><time>2026-05-02T06:54:23Z</time></trkpt><trkpt lat="43.42512309242671" lon="11.435382381814202"><ele>343.0</ele><time>2026-05-02T06:54:24Z</time></trkpt><trkpt lat="43.42524506699395" lon="11.435483610378292"><ele>343.0</ele><time>2026-05-02T06:54:25Z</time></trkpt><trkpt lat="43.42532434257585" lon="11.435636990471776"><ele>343.0</ele><time>2026-05-02T06:54:26Z</time></trkpt><trkpt lat="43.42536666831153" lon="11.435766028732475"><ele>345.25</ele><time>2026-05-02T06:54:27Z</time></trkpt><trkpt lat="43.425324270777104" lon="11.435912572622524"><ele>347.5</ele><time>2026-05-02T06:54:28Z</time></trkpt><trkpt lat="43.42523701019354" lon="11.436001650269395"><ele>349.75</ele><time>2026-05-02T06:54:29Z</time></trkpt><trkpt lat="43.425139989132255" lon="11.436132897453064"><ele>352.0</ele><time>2026-05-02T06:54:30Z</time></trkpt><trkpt lat="43.42504998920794" lon="11.436283520519812"><ele>353.0</ele><time>2026-05-02T06:54:31Z</time></trkpt><trkpt lat="43.42498654735627" lon="11.436504689721849"><ele>354.0</ele><time>2026-05-02T06:54:32Z</time></trkpt><trkpt lat="43.42494792548049" lon="11.436733628365612"><ele>355.0</ele><time>2026-05-02T06:54:33Z</time></trkpt><trkpt lat="43.42493235626771" lon="11.436972009009633"><ele>355.0</ele><time>2026-05-02T06:54:34Z</time></trkpt><trkpt lat="43.42492842300901" lon="11.437209236017706"><ele>355.0</ele><time>2026-05-02T06:54:35Z</time></trkpt><trkpt lat="43.42493370017611" lon="11.437441967823425"><ele>355.0</ele><time>2026-05-02T06:54:36Z</time></trkpt><trkpt lat="43.42495327050729" lon="11.437679195483067"><ele>355.0</ele><time>2026-05-02T06:54:37Z</time></trkpt><trkpt lat="43.424995050600735" lon="11.437914165846854"><ele>355.0</ele><time>2026-05-02T06:54:38Z</time></trkpt><trkpt lat="43.42504804334078" lon="11.438149225684485"><ele>355.0</ele><time>2026-05-02T06:54:39Z</time></trkpt><trkpt lat="43.4251038473867" lon="11.438385618431344"><ele>361.5</ele><time>2026-05-02T06:54:40Z</time></trkpt><trkpt lat="43.42521572414344" lon="11.43884104949359"><ele>368.0</ele><time>2026-05-02T06:54:42Z</time></trkpt><trkpt lat="43.425263863648986" lon="11.439032195888865"><ele>368.0</ele><time>2026-05-02T06:54:43Z</time></trkpt><trkpt lat="43.42531305419685" lon="11.439202970781253"><ele>368.0</ele><time>2026-05-02T06:54:44Z</time></trkpt><trkpt lat="43.425390115929524" lon="11.439340443447469"><ele>368.0</ele><time>2026-05-02T06:54:45Z</time></trkpt><trkpt lat="43.425506840199304" lon="11.439412384600109"><ele>368.0</ele><time>2026-05-02T06:54:46Z</time></trkpt><trkpt lat="43.42564660824981" lon="11.439413210425432"><ele>366.25</ele><time>2026-05-02T06:54:47Z</time></trkpt><trkpt lat="43.42578703634144" lon="11.439358676123124"><ele>364.5</ele><time>2026-05-02T06:54:48Z</time></trkpt><trkpt lat="43.425918265886395" lon="11.439351926872135"><ele>362.75</ele><time>2026-05-02T06:54:49Z</time></trkpt><trkpt lat="43.42600795728918" lon="11.439499792054647"><ele>361.0</ele><time>2026-05-02T06:54:50Z</time></trkpt><trkpt lat="43.4260745654044" lon="11.439670952234152"><ele>361.0</ele><time>2026-05-02T06:54:51Z</time></trkpt><trkpt lat="43.426090012639676" lon="11.43987783595961"><ele>361.0</ele><time>2026-05-02T06:54:52Z</time></trkpt><trkpt lat="43.42610418129473" lon="11.440126118617004"><ele>361.0</ele><time>2026-05-02T06:54:53Z</time></trkpt><trkpt lat="43.42611581152672" lon="11.440385293811074"><ele>362.66666666666663</ele><time>2026-05-02T06:54:54Z</time></trkpt><trkpt lat="43.42614006186185" lon="11.44063340078759"><ele>364.3333333333333</ele><time>2026-05-02T06:54:55Z</time></trkpt><trkpt lat="43.426137656730795" lon="11.440871297218544"><ele>366.0</ele><time>2026-05-02T06:54:56Z</time></trkpt><trkpt lat="43.426161525865886" lon="11.441073369243554"><ele>366.0</ele><time>2026-05-02T06:54:57Z</time></trkpt><trkpt lat="43.42615668528227" lon="11.441258117023926"><ele>366.0</ele><time>2026-05-02T06:54:58Z</time></trkpt><trkpt lat="43.426103645848954" lon="11.441407501634481"><ele>366.0</ele><time>2026-05-02T06:54:59Z</time></trkpt><trkpt lat="43.42598803579488" lon="11.441496318816625"><ele>366.0</ele><time>2026-05-02T06:55:00Z</time></trkpt><trkpt lat="43.42585616953087" lon="11.441560912742482"><ele>365.3333333333333</ele><time>2026-05-02T06:55:01Z</time></trkpt><trkpt lat="43.425711625622206" lon="11.441638405636827"><ele>364.66666666666663</ele><time>2026-05-02T06:55:02Z</time></trkpt><trkpt lat="43.425551807197145" lon="11.441709319810384"><ele>364.0</ele><time>2026-05-02T06:55:03Z</time></trkpt><trkpt lat="43.425386724885854" lon="11.44179633563755"><ele>365.66666666666663</ele><time>2026-05-02T06:55:04Z</time></trkpt><trkpt lat="43.4252338676596" lon="11.441903152299997"><ele>367.3333333333333</ele><time>2026-05-02T06:55:05Z</time></trkpt><trkpt lat="43.425108321756404" lon="11.442067853315537"><ele>369.0</ele><time>2026-05-02T06:55:06Z</time></trkpt><trkpt lat="43.425017224193546" lon="11.44229032543189"><ele>369.0</ele><time>2026-05-02T06:55:07Z</time></trkpt><trkpt lat="43.4249430899831" lon="11.442551647400707"><ele>369.0</ele><time>2026-05-02T06:55:08Z</time></trkpt><trkpt lat="43.424878042688704" lon="11.442818052241286"><ele>369.0</ele><time>2026-05-02T06:55:09Z</time></trkpt><trkpt lat="43.42483868031863" lon="11.44308335746577"><ele>368.6666666666667</ele><time>2026-05-02T06:55:10Z</time></trkpt><trkpt lat="43.42483624682565" lon="11.443347363910776"><ele>368.33333333333337</ele><time>2026-05-02T06:55:11Z</time></trkpt><trkpt lat="43.42483429598452" lon="11.443591546864827"><ele>368.0</ele><time>2026-05-02T06:55:11.999Z</time></trkpt><trkpt lat="43.424782364238375" lon="11.443795685604846"><ele>367.33333333333337</ele><time>2026-05-02T06:55:12.999Z</time></trkpt><trkpt lat="43.42470362141597" lon="11.443975068694272"><ele>366.6666666666667</ele><time>2026-05-02T06:55:13.999Z</time></trkpt><trkpt lat="43.4245811314141" lon="11.444134454088388"><ele>366.0</ele><time>2026-05-02T06:55:14.999Z</time></trkpt><trkpt lat="43.424457770213024" lon="11.44432398673364"><ele>370.6666666666667</ele><time>2026-05-02T06:55:15.999Z</time></trkpt><trkpt lat="43.42432809701498" lon="11.444516162427265"><ele>375.33333333333337</ele><time>2026-05-02T06:55:16.999Z</time></trkpt><trkpt lat="43.4242277862596" lon="11.444741236273948"><ele>380.0</ele><time>2026-05-02T06:55:17.999Z</time></trkpt><trkpt lat="43.42413968338676" lon="11.44496976208812"><ele>380.0</ele><time>2026-05-02T06:55:18.999Z</time></trkpt><trkpt lat="43.42405426948567" lon="11.445178485591697"><ele>380.0</ele><time>2026-05-02T06:55:19.999Z</time></trkpt><trkpt lat="43.423974159541295" lon="11.445365746614177"><ele>380.0</ele><time>2026-05-02T06:55:20.999Z</time></trkpt><trkpt lat="43.42390790817443" lon="11.445539115043267"><ele>380.0</ele><time>2026-05-02T06:55:21.999Z</time></trkpt><trkpt lat="43.42385776262704" lon="11.445709182564455"><ele>380.0</ele><time>2026-05-02T06:55:22.999Z</time></trkpt><trkpt lat="43.42384507152347" lon="11.44588022216577"><ele>380.0</ele><time>2026-05-02T06:55:23.999Z</time></trkpt><trkpt lat="43.42388829961807" lon="11.446035892572352"><ele>380.0</ele><time>2026-05-02T06:55:24.999Z</time></trkpt><trkpt lat="43.42399434165125" lon="11.446156941053292"><ele>380.0</ele><time>2026-05-02T06:55:25.999Z</time></trkpt><trkpt lat="43.42413400429139" lon="11.446212153271464"><ele>380.0</ele><time>2026-05-02T06:55:26.999Z</time></trkpt><trkpt lat="43.42428323008293" lon="11.446236353141119"><ele>380.0</ele><time>2026-05-02T06:55:27.999Z</time></trkpt><trkpt lat="43.42440231535622" lon="11.446332921861298"><ele>380.0</ele><time>2026-05-02T06:55:28.999Z</time></trkpt><trkpt lat="43.42447557992211" lon="11.446506231185364"><ele>382.5</ele><time>2026-05-02T06:55:29.999Z</time></trkpt><trkpt lat="43.42450164500563" lon="11.446715361622173"><ele>385.0</ele><time>2026-05-02T06:55:30.999Z</time></trkpt><trkpt lat="43.42445925822553" lon="11.446913942920093"><ele>387.5</ele><time>2026-05-02T06:55:31.999Z</time></trkpt><trkpt lat="43.42443318202373" lon="11.447101313296065"><ele>390.0</ele><time>2026-05-02T06:55:33Z</time></trkpt><trkpt lat="43.424395859922136" lon="11.44727549181372"><ele>391.0</ele><time>2026-05-02T06:55:34Z</time></trkpt><trkpt lat="43.42432985861097" lon="11.447445648778023"><ele>392.0</ele><time>2026-05-02T06:55:35Z</time></trkpt><trkpt lat="43.4242382358495" lon="11.447589648415002"><ele>393.0</ele><time>2026-05-02T06:55:36Z</time></trkpt><trkpt lat="43.42413606418183" lon="11.447716193128809"><ele>394.0</ele><time>2026-05-02T06:55:37Z</time></trkpt><trkpt lat="43.42401732800265" lon="11.447813387353872"><ele>394.0</ele><time>2026-05-02T06:55:38Z</time></trkpt><trkpt lat="43.42391343524349" lon="11.447922815246104"><ele>394.0</ele><time>2026-05-02T06:55:39Z</time></trkpt><trkpt lat="43.42383312041884" lon="11.448061537417406"><ele>394.0</ele><time>2026-05-02T06:55:40Z</time></trkpt><trkpt lat="43.42379364398981" lon="11.448240004240425"><ele>394.0</ele><time>2026-05-02T06:55:41Z</time></trkpt><trkpt lat="43.42380596348469" lon="11.448427718247801"><ele>393.5</ele><time>2026-05-02T06:55:42Z</time></trkpt><trkpt lat="43.42385648493884" lon="11.44860168796785"><ele>393.0</ele><time>2026-05-02T06:55:43Z</time></trkpt><trkpt lat="43.423915048471365" lon="11.448766646624845"><ele>392.5</ele><time>2026-05-02T06:55:44Z</time></trkpt><trkpt lat="43.4239649458893" lon="11.448932863576564"><ele>392.0</ele><time>2026-05-02T06:55:45Z</time></trkpt><trkpt lat="43.423997598885315" lon="11.449103347565693"><ele>392.0</ele><time>2026-05-02T06:55:46Z</time></trkpt><trkpt lat="43.42399125863338" lon="11.449274925471643"><ele>392.0</ele><time>2026-05-02T06:55:47Z</time></trkpt><trkpt lat="43.42396389021671" lon="11.449438120699384"><ele>392.0</ele><time>2026-05-02T06:55:48Z</time></trkpt><trkpt lat="43.423938257072244" lon="11.449610304569749"><ele>392.0</ele><time>2026-05-02T06:55:49Z</time></trkpt><trkpt lat="43.42387308764156" lon="11.449758155191418"><ele>397.0</ele><time>2026-05-02T06:55:50Z</time></trkpt><trkpt lat="43.42380050363482" lon="11.449913311558563"><ele>402.0</ele><time>2026-05-02T06:55:51Z</time></trkpt><trkpt lat="43.42371010849982" lon="11.450048842332519"><ele>407.0</ele><time>2026-05-02T06:55:52Z</time></trkpt><trkpt lat="43.4236224721565" lon="11.450183238132643"><ele>412.0</ele><time>2026-05-02T06:55:53Z</time></trkpt><trkpt lat="43.423529185642245" lon="11.45031677563312"><ele>412.0</ele><time>2026-05-02T06:55:54Z</time></trkpt><trkpt lat="43.423432308482234" lon="11.450456517659118"><ele>412.0</ele><time>2026-05-02T06:55:55Z</time></trkpt><trkpt lat="43.42333661577496" lon="11.45059156548527"><ele>412.0</ele><time>2026-05-02T06:55:56Z</time></trkpt><trkpt lat="43.42323077573921" lon="11.450714080832713"><ele>412.0</ele><time>2026-05-02T06:55:57Z</time></trkpt><trkpt lat="43.423111619500126" lon="11.450827125013841"><ele>414.0</ele><time>2026-05-02T06:55:58Z</time></trkpt><trkpt lat="43.42298886074254" lon="11.450929551792528"><ele>416.0</ele><time>2026-05-02T06:55:59Z</time></trkpt><trkpt lat="43.42286381007615" lon="11.451037346597525"><ele>418.0</ele><time>2026-05-02T06:56:00Z</time></trkpt><trkpt lat="43.42274219236165" lon="11.45114725188913"><ele>420.0</ele><time>2026-05-02T06:56:01Z</time></trkpt><trkpt lat="43.42261001153928" lon="11.4512371185346"><ele>422.0</ele><time>2026-05-02T06:56:02Z</time></trkpt><trkpt lat="43.42247274773235" lon="11.45130063921038"><ele>424.0</ele><time>2026-05-02T06:56:03Z</time></trkpt><trkpt lat="43.42232536727322" lon="11.451328626995084"><ele>426.0</ele><time>2026-05-02T06:56:04Z</time></trkpt><trkpt lat="43.42217549413136" lon="11.45133020569385"><ele>428.0</ele><time>2026-05-02T06:56:05Z</time></trkpt><trkpt lat="43.422037599148965" lon="11.451329194158543"><ele>428.0</ele><time>2026-05-02T06:56:06Z</time></trkpt><trkpt lat="43.42192868246682" lon="11.451364590995572"><ele>428.0</ele><time>2026-05-02T06:56:07Z</time></trkpt><trkpt lat="43.42183578345866" lon="11.451464913607618"><ele>428.0</ele><time>2026-05-02T06:56:08Z</time></trkpt><trkpt lat="43.42176990699885" lon="11.4516166330008"><ele>428.0</ele><time>2026-05-02T06:56:09Z</time></trkpt><trkpt lat="43.42175276308596" lon="11.451794517002401"><ele>428.0</ele><time>2026-05-02T06:56:10Z</time></trkpt><trkpt lat="43.42177449328972" lon="11.451978226754273"><ele>428.0</ele><time>2026-05-02T06:56:11Z</time></trkpt><trkpt lat="43.42176007311702" lon="11.452150329069088"><ele>428.0</ele><time>2026-05-02T06:56:12Z</time></trkpt><trkpt lat="43.421713779480775" lon="11.452296333454793"><ele>428.0</ele><time>2026-05-02T06:56:13Z</time></trkpt><trkpt lat="43.421663562811716" lon="11.452447638369007"><ele>425.75</ele><time>2026-05-02T06:56:14Z</time></trkpt><trkpt lat="43.42162185139379" lon="11.452601441378807"><ele>423.5</ele><time>2026-05-02T06:56:15Z</time></trkpt><trkpt lat="43.421573093324774" lon="11.452751045473438"><ele>421.25</ele><time>2026-05-02T06:56:16Z</time></trkpt><trkpt lat="43.42153699413284" lon="11.452906673998752"><ele>419.0</ele><time>2026-05-02T06:56:17Z</time></trkpt><trkpt lat="43.42158379556548" lon="11.453076395410331"><ele>418.0</ele><time>2026-05-02T06:56:18Z</time></trkpt><trkpt lat="43.421655673142595" lon="11.453222232814829"><ele>417.0</ele><time>2026-05-02T06:56:19Z</time></trkpt><trkpt lat="43.421744290570736" lon="11.453345947264806"><ele>416.0</ele><time>2026-05-02T06:56:20Z</time></trkpt><trkpt lat="43.42180644647862" lon="11.453488441030025"><ele>415.0</ele><time>2026-05-02T06:56:21Z</time></trkpt><trkpt lat="43.42182454713343" lon="11.45363636938612"><ele>414.5</ele><time>2026-05-02T06:56:22Z</time></trkpt><trkpt lat="43.42182000835029" lon="11.453798636925358"><ele>414.0</ele><time>2026-05-02T06:56:23Z</time></trkpt><trkpt lat="43.42177007626418" lon="11.453955667923333"><ele>413.5</ele><time>2026-05-02T06:56:24Z</time></trkpt><trkpt lat="43.42169206433732" lon="11.45409908275415"><ele>413.0</ele><time>2026-05-02T06:56:25Z</time></trkpt><trkpt lat="43.421588921700895" lon="11.454213934935494"><ele>413.0</ele><time>2026-05-02T06:56:26Z</time></trkpt><trkpt lat="43.42148511400234" lon="11.454334648168437"><ele>413.0</ele><time>2026-05-02T06:56:27Z</time></trkpt><trkpt lat="43.421361630117154" lon="11.45441792594652"><ele>413.0</ele><time>2026-05-02T06:56:28Z</time></trkpt><trkpt lat="43.42124120869152" lon="11.454499520536324"><ele>413.0</ele><time>2026-05-02T06:56:29Z</time></trkpt><trkpt lat="43.42115058172861" lon="11.454570691072972"><ele>416.0</ele><time>2026-05-02T06:56:30Z</time></trkpt><trkpt lat="43.42103675249552" lon="11.454675877028059"><ele>419.0</ele><time>2026-05-02T06:56:31Z</time></trkpt><trkpt lat="43.420929301143005" lon="11.454855206732093"><ele>422.0</ele><time>2026-05-02T06:56:32Z</time></trkpt><trkpt lat="43.420844954404146" lon="11.455035092134114"><ele>422.0</ele><time>2026-05-02T06:56:33Z</time></trkpt><trkpt lat="43.42073848169925" lon="11.455189056590083"><ele>422.0</ele><time>2026-05-02T06:56:34Z</time></trkpt><trkpt lat="43.42062931067046" lon="11.455336743221062"><ele>422.0</ele><time>2026-05-02T06:56:35Z</time></trkpt><trkpt lat="43.42052517711901" lon="11.455509875102544"><ele>424.0</ele><time>2026-05-02T06:56:36Z</time></trkpt><trkpt lat="43.42040936446459" lon="11.455656443103369"><ele>426.0</ele><time>2026-05-02T06:56:37Z</time></trkpt><trkpt lat="43.420299268087426" lon="11.455815453533775"><ele>428.0</ele><time>2026-05-02T06:56:38Z</time></trkpt><trkpt lat="43.420190136737006" lon="11.455982945323493"><ele>428.0</ele><time>2026-05-02T06:56:39Z</time></trkpt><trkpt lat="43.42007877848214" lon="11.456151015417639"><ele>428.0</ele><time>2026-05-02T06:56:40Z</time></trkpt><trkpt lat="43.419965289220684" lon="11.456316178273319"><ele>428.0</ele><time>2026-05-02T06:56:41Z</time></trkpt><trkpt lat="43.419850044020244" lon="11.45648204773015"><ele>426.3333333333333</ele><time>2026-05-02T06:56:42Z</time></trkpt><trkpt lat="43.419737220806816" lon="11.456633317059884"><ele>424.66666666666663</ele><time>2026-05-02T06:56:43Z</time></trkpt><trkpt lat="43.419616708972384" lon="11.456758517428746"><ele>423.0</ele><time>2026-05-02T06:56:44Z</time></trkpt><trkpt lat="43.41946853890453" lon="11.456821418387179"><ele>425.5</ele><time>2026-05-02T06:56:45Z</time></trkpt><trkpt lat="43.41931907134369" lon="11.456843522950575"><ele>428.0</ele><time>2026-05-02T06:56:46Z</time></trkpt><trkpt lat="43.41918390086077" lon="11.45688259302069"><ele>430.5</ele><time>2026-05-02T06:56:47Z</time></trkpt><trkpt lat="43.419071939045104" lon="11.456965090101692"><ele>433.0</ele><time>2026-05-02T06:56:48Z</time></trkpt><trkpt lat="43.41900574861086" lon="11.457126776074352"><ele>433.0</ele><time>2026-05-02T06:56:49Z</time></trkpt><trkpt lat="43.418979029931386" lon="11.457323608339296"><ele>433.0</ele><time>2026-05-02T06:56:50Z</time></trkpt><trkpt lat="43.41897392462884" lon="11.457523760299829"><ele>433.0</ele><time>2026-05-02T06:56:51Z</time></trkpt><trkpt lat="43.41890186316855" lon="11.45768020948075"><ele>433.0</ele><time>2026-05-02T06:56:52Z</time></trkpt><trkpt lat="43.418793961263034" lon="11.457786995085105"><ele>433.0</ele><time>2026-05-02T06:56:53Z</time></trkpt><trkpt lat="43.41866491104874" lon="11.457889156439672"><ele>433.0</ele><time>2026-05-02T06:56:54Z</time></trkpt><trkpt lat="43.41853850371997" lon="11.457998011817192"><ele>433.0</ele><time>2026-05-02T06:56:55Z</time></trkpt><trkpt lat="43.418405145605384" lon="11.458087120399037"><ele>433.0</ele><time>2026-05-02T06:56:56Z</time></trkpt><trkpt lat="43.4182793083118" lon="11.458189793932274"><ele>433.0</ele><time>2026-05-02T06:56:57Z</time></trkpt><trkpt lat="43.418156450955436" lon="11.45829875621898"><ele>433.0</ele><time>2026-05-02T06:56:58Z</time></trkpt><trkpt lat="43.41802823436614" lon="11.458383286028301"><ele>433.0</ele><time>2026-05-02T06:56:59Z</time></trkpt><trkpt lat="43.41788808179572" lon="11.458415701907978"><ele>433.0</ele><time>2026-05-02T06:57:00Z</time></trkpt><trkpt lat="43.41774731091684" lon="11.458389349320749"><ele>434.5</ele><time>2026-05-02T06:57:01Z</time></trkpt><trkpt lat="43.4176141394009" lon="11.4583120897701"><ele>436.0</ele><time>2026-05-02T06:57:02Z</time></trkpt><trkpt lat="43.4174853834714" lon="11.45820269987357"><ele>437.5</ele><time>2026-05-02T06:57:03Z</time></trkpt><trkpt lat="43.41736660541995" lon="11.458101753664517"><ele>439.0</ele><time>2026-05-02T06:57:04Z</time></trkpt><trkpt lat="43.41725042063229" lon="11.458027939464676"><ele>439.4</ele><time>2026-05-02T06:57:05Z</time></trkpt><trkpt lat="43.4171308310101" lon="11.457994731384956"><ele>439.79999999999995</ele><time>2026-05-02T06:57:06Z</time></trkpt><trkpt lat="43.41701711521162" lon="11.457990125900821"><ele>440.20000000000005</ele><time>2026-05-02T06:57:07Z</time></trkpt><trkpt lat="43.41691948519219" lon="11.457986879745535"><ele>440.6</ele><time>2026-05-02T06:57:08Z</time></trkpt><trkpt lat="43.41682964780746" lon="11.457975997268253"><ele>441.0</ele><time>2026-05-02T06:57:09Z</time></trkpt><trkpt lat="43.41674775503742" lon="11.457968509063102"><ele>441.0</ele><time>2026-05-02T06:57:10Z</time></trkpt><trkpt lat="43.41667621449746" lon="11.457960212653873"><ele>441.0</ele><time>2026-05-02T06:57:10.999Z</time></trkpt><trkpt lat="43.416608786985165" lon="11.457961918044147"><ele>441.0</ele><time>2026-05-02T06:57:11.999Z</time></trkpt><trkpt lat="43.41653768495237" lon="11.457972159609438"><ele>441.0</ele><time>2026-05-02T06:57:12.999Z</time></trkpt><trkpt lat="43.4164602458826" lon="11.457994816236006"><ele>441.0</ele><time>2026-05-02T06:57:13.999Z</time></trkpt><trkpt lat="43.41639565371791" lon="11.45803400917081"><ele>441.0</ele><time>2026-05-02T06:57:14.999Z</time></trkpt><trkpt lat="43.416297402347865" lon="11.458112941528078"><ele>441.8333333333333</ele><time>2026-05-02T06:57:16.999Z</time></trkpt><trkpt lat="43.41621989820494" lon="11.458188327978176"><ele>442.66666666666663</ele><time>2026-05-02T06:57:18.999Z</time></trkpt><trkpt lat="43.41614591266309" lon="11.45823907613983"><ele>443.5</ele><time>2026-05-02T06:57:20.999Z</time></trkpt><trkpt lat="43.41610337402443" lon="11.458323111263175"><ele>444.3333333333333</ele><time>2026-05-02T06:57:23.999Z</time></trkpt><trkpt lat="43.41604138334195" lon="11.458391042674466"><ele>445.16666666666663</ele><time>2026-05-02T06:57:50Z</time></trkpt><trkpt lat="43.41598986436351" lon="11.458469219946961"><ele>446.0</ele><time>2026-05-02T06:57:52Z</time></trkpt><trkpt lat="43.415953507395834" lon="11.458559189985595"><ele>445.99999999999994</ele><time>2026-05-02T06:57:54Z</time></trkpt><trkpt lat="43.415918354485704" lon="11.458654784021046"><ele>446.0</ele><time>2026-05-02T06:57:56Z</time></trkpt><trkpt lat="43.415890846027416" lon="11.4587467945722"><ele>446.0</ele><time>2026-05-02T06:57:58Z</time></trkpt><trkpt lat="43.4158770972262" lon="11.458831584227207"><ele>446.0</ele><time>2026-05-02T06:58:00Z</time></trkpt><trkpt lat="43.41585720475741" lon="11.458950185666067"><ele>445.99999999999994</ele><time>2026-05-02T06:58:03Z</time></trkpt><trkpt lat="43.41584468085911" lon="11.459075333289633"><ele>446.0</ele><time>2026-05-02T06:58:06Z</time></trkpt><trkpt lat="43.41583168647812" lon="11.459194915785949"><ele>446.66666666666663</ele><time>2026-05-02T06:58:09Z</time></trkpt><trkpt lat="43.41582957024272" lon="11.459297636465145"><ele>447.3333333333333</ele><time>2026-05-02T06:58:12Z</time></trkpt><trkpt lat="43.415829295101794" lon="11.459389543622223"><ele>448.0</ele><time>2026-05-02T06:58:15Z</time></trkpt><trkpt lat="43.415875794155575" lon="11.459480800844231"><ele>448.66666666666663</ele><time>2026-05-02T07:15:43.999Z</time></trkpt><trkpt lat="43.41588626187347" lon="11.459652265425827"><ele>449.3333333333333</ele><time>2026-05-02T07:15:45.999Z</time></trkpt><trkpt lat="43.41588445513286" lon="11.459758713538086"><ele>450.0</ele><time>2026-05-02T07:15:46.999Z</time></trkpt><trkpt lat="43.41589002495277" lon="11.459854599119742"><ele>451.1666666666667</ele><time>2026-05-02T07:15:47.999Z</time></trkpt><trkpt lat="43.41589106285337" lon="11.45997129634167"><ele>452.33333333333337</ele><time>2026-05-02T07:15:48.999Z</time></trkpt><trkpt lat="43.41588891125594" lon="11.460083132103302"><ele>453.5</ele><time>2026-05-02T07:15:49.999Z</time></trkpt><trkpt lat="43.41588768358441" lon="11.460195704462077"><ele>454.6666666666667</ele><time>2026-05-02T07:15:50.999Z</time></trkpt><trkpt lat="43.41588816546028" lon="11.460307095881683"><ele>455.83333333333337</ele><time>2026-05-02T07:15:51.999Z</time></trkpt><trkpt lat="43.41588331623995" lon="11.460416327542234"><ele>457.0</ele><time>2026-05-02T07:15:52.999Z</time></trkpt><trkpt lat="43.41589637219958" lon="11.460528736169378"><ele>459.33333333333337</ele><time>2026-05-02T07:15:53.999Z</time></trkpt><trkpt lat="43.41591326665585" lon="11.460642522558643"><ele>461.6666666666667</ele><time>2026-05-02T07:15:54.999Z</time></trkpt><trkpt lat="43.41593830044231" lon="11.460747017529101"><ele>464.0</ele><time>2026-05-02T07:15:55.999Z</time></trkpt><trkpt lat="43.41598527393299" lon="11.460840746916881"><ele>466.33333333333337</ele><time>2026-05-02T07:15:56.999Z</time></trkpt><trkpt lat="43.416040917958036" lon="11.46091765647788"><ele>468.6666666666667</ele><time>2026-05-02T07:15:57.999Z</time></trkpt><trkpt lat="43.41607935823121" lon="11.461006438483523"><ele>471.0</ele><time>2026-05-02T07:15:58.999Z</time></trkpt><trkpt lat="43.41611655756163" lon="11.461099400488814"><ele>471.0</ele><time>2026-05-02T07:15:59.999Z</time></trkpt><trkpt lat="43.41614565404796" lon="11.461236701044426"><ele>471.0</ele><time>2026-05-02T07:16:01.999Z</time></trkpt><trkpt lat="43.41609116385634" lon="11.461322107910755"><ele>471.0</ele><time>2026-05-02T07:16:02.999Z</time></trkpt><trkpt lat="43.41601649445985" lon="11.461392067445058"><ele>471.0</ele><time>2026-05-02T07:16:03.999Z</time></trkpt><trkpt lat="43.41592847267743" lon="11.46141286225527"><ele>471.0</ele><time>2026-05-02T07:16:04.999Z</time></trkpt><trkpt lat="43.415847966823605" lon="11.461423041631111"><ele>471.0</ele><time>2026-05-02T07:16:05.999Z</time></trkpt><trkpt lat="43.41578677925954" lon="11.461379635157513"><ele>471.0</ele><time>2026-05-02T07:16:06.999Z</time></trkpt><trkpt lat="43.41573352802722" lon="11.461312045333074"><ele>471.0</ele><time>2026-05-02T07:16:07.999Z</time></trkpt><trkpt lat="43.41569429451695" lon="11.461209953875624"><ele>471.0</ele><time>2026-05-02T07:16:08.999Z</time></trkpt><trkpt lat="43.41567761525738" lon="11.461111458074326"><ele>471.0</ele><time>2026-05-02T07:16:09.999Z</time></trkpt><trkpt lat="43.41563166983611" lon="11.460986706042807"><ele>471.0</ele><time>2026-05-02T07:16:10.999Z</time></trkpt><trkpt lat="43.41561043796586" lon="11.460879597805"><ele>471.0</ele><time>2026-05-02T07:16:11.999Z</time></trkpt><trkpt lat="43.415575217977626" lon="11.460796653604879"><ele>471.0</ele><time>2026-05-02T07:16:12.999Z</time></trkpt><trkpt lat="43.41550406798239" lon="11.460699871436265"><ele>471.0</ele><time>2026-05-02T07:16:13.999Z</time></trkpt><trkpt lat="43.41541555966479" lon="11.46063237599644"><ele>471.0</ele><time>2026-05-02T07:16:14.999Z</time></trkpt><trkpt lat="43.41533229818166" lon="11.460578545908442"><ele>471.0</ele><time>2026-05-02T07:16:15.999Z</time></trkpt><trkpt lat="43.41527022331301" lon="11.460552346394143"><ele>471.0</ele><time>2026-05-02T07:16:16.999Z</time></trkpt><trkpt lat="43.41516913226167" lon="11.460643188530913"><ele>472.5</ele><time>2026-05-02T07:16:18.999Z</time></trkpt><trkpt lat="43.41526769029133" lon="11.460747088157094"><ele>474.0</ele><time>2026-05-02T07:16:19.999Z</time></trkpt><trkpt lat="43.41532321542223" lon="11.460817068847325"><ele>475.5</ele><time>2026-05-02T07:16:20.999Z</time></trkpt><trkpt lat="43.41538705221254" lon="11.460887395927692"><ele>477.0</ele><time>2026-05-02T07:16:21.999Z</time></trkpt><trkpt lat="43.4154349110042" lon="11.460954897226722"><ele>478.5</ele><time>2026-05-02T07:16:22.999Z</time></trkpt><trkpt lat="43.415469004207495" lon="11.461031954590576"><ele>480.0</ele><time>2026-05-02T07:16:23.999Z</time></trkpt><trkpt lat="43.41547951283653" lon="11.46113933480644"><ele>480.0</ele><time>2026-05-02T07:16:24.999Z</time></trkpt><trkpt lat="43.41546606321219" lon="11.461246514322111"><ele>480.0</ele><time>2026-05-02T07:16:25.999Z</time></trkpt><trkpt lat="43.415408034318084" lon="11.46136104829037"><ele>480.0</ele><time>2026-05-02T07:16:26.999Z</time></trkpt><trkpt lat="43.41539321624629" lon="11.461507102491224"><ele>480.0</ele><time>2026-05-02T07:16:27.999Z</time></trkpt><trkpt lat="43.41536727370478" lon="11.461612511293579"><ele>480.0</ele><time>2026-05-02T07:16:28.999Z</time></trkpt><trkpt lat="43.415373347188996" lon="11.461702260774423"><ele>480.0</ele><time>2026-05-02T07:16:29.999Z</time></trkpt><trkpt lat="43.41529585030563" lon="11.46174144357434"><ele>482.0</ele><time>2026-05-02T07:16:32Z</time></trkpt><trkpt lat="43.41525760247737" lon="11.461660981590406"><ele>484.0</ele><time>2026-05-02T07:16:34Z</time></trkpt><trkpt lat="43.41521380090547" lon="11.461463859213305"><ele>486.0</ele><time>2026-05-02T07:16:36Z</time></trkpt><trkpt lat="43.415176429135755" lon="11.461367269503903"><ele>488.0</ele><time>2026-05-02T07:16:37Z</time></trkpt><trkpt lat="43.4151200035474" lon="11.461323347608436"><ele>490.0</ele><time>2026-05-02T07:16:38Z</time></trkpt><trkpt lat="43.4150140993108" lon="11.461368415807785"><ele>490.0</ele><time>2026-05-02T07:16:40Z</time></trkpt><trkpt lat="43.414967413831604" lon="11.461542650953973"><ele>490.0</ele><time>2026-05-02T07:16:42Z</time></trkpt><trkpt lat="43.41496283025755" lon="11.461666809651677"><ele>490.0</ele><time>2026-05-02T07:16:43Z</time></trkpt><trkpt lat="43.41493077752322" lon="11.461789988462156"><ele>490.0</ele><time>2026-05-02T07:16:44Z</time></trkpt><trkpt lat="43.41490188458074" lon="11.46190587081602"><ele>490.0</ele><time>2026-05-02T07:16:45Z</time></trkpt><trkpt lat="43.41487219213372" lon="11.462008114427451"><ele>490.00000000000006</ele><time>2026-05-02T07:16:46Z</time></trkpt><trkpt lat="43.41479580969696" lon="11.462095800162372"><ele>490.0</ele><time>2026-05-02T07:16:47Z</time></trkpt><trkpt lat="43.41472786619671" lon="11.462191710748455"><ele>490.0</ele><time>2026-05-02T07:16:48Z</time></trkpt><trkpt lat="43.414693700336535" lon="11.462282701161026"><ele>490.0</ele><time>2026-05-02T07:16:49Z</time></trkpt><trkpt lat="43.41469923233696" lon="11.462375900101172"><ele>490.00000000000006</ele><time>2026-05-02T07:16:50Z</time></trkpt><trkpt lat="43.41467067345813" lon="11.462490990267597"><ele>490.0</ele><time>2026-05-02T07:16:51Z</time></trkpt><trkpt lat="43.414636525515455" lon="11.462593558121839"><ele>494.0</ele><time>2026-05-02T07:16:52Z</time></trkpt><trkpt lat="43.41458460825863" lon="11.462682667204723"><ele>498.0</ele><time>2026-05-02T07:16:53Z</time></trkpt><trkpt lat="43.41456388027572" lon="11.462818928440557"><ele>502.0</ele><time>2026-05-02T07:16:54Z</time></trkpt><trkpt lat="43.41452951626188" lon="11.462945615973076"><ele>506.0</ele><time>2026-05-02T07:16:55Z</time></trkpt><trkpt lat="43.41454492013524" lon="11.463113499441786"><ele>510.0</ele><time>2026-05-02T07:16:56Z</time></trkpt><trkpt lat="43.41456177097538" lon="11.463308881568238"><ele>512.8</ele><time>2026-05-02T07:16:57Z</time></trkpt><trkpt lat="43.41458471291237" lon="11.463471276970612"><ele>515.6</ele><time>2026-05-02T07:16:58Z</time></trkpt><trkpt lat="43.414585129947014" lon="11.46360369096838"><ele>518.4</ele><time>2026-05-02T07:16:59Z</time></trkpt><trkpt lat="43.41456648051373" lon="11.463741180525536"><ele>521.2</ele><time>2026-05-02T07:17:00Z</time></trkpt><trkpt lat="43.41452407124923" lon="11.463871586269432"><ele>524.0</ele><time>2026-05-02T07:17:01Z</time></trkpt><trkpt lat="43.41448193876591" lon="11.46400475584706"><ele>524.0</ele><time>2026-05-02T07:17:02Z</time></trkpt><trkpt lat="43.41441611248537" lon="11.46410066505588"><ele>524.0</ele><time>2026-05-02T07:17:03Z</time></trkpt><trkpt lat="43.41432928639892" lon="11.464179371289765"><ele>524.0</ele><time>2026-05-02T07:17:04Z</time></trkpt><trkpt lat="43.41423110634198" lon="11.46425907432125"><ele>524.0</ele><time>2026-05-02T07:17:05Z</time></trkpt><trkpt lat="43.414108776417905" lon="11.464379281487792"><ele>524.0</ele><time>2026-05-02T07:17:06Z</time></trkpt><trkpt lat="43.41399054745356" lon="11.46447605062874"><ele>524.0</ele><time>2026-05-02T07:17:07Z</time></trkpt><trkpt lat="43.41388237650929" lon="11.464536762763087"><ele>524.0</ele><time>2026-05-02T07:17:08Z</time></trkpt><trkpt lat="43.41374802183868" lon="11.46459373856297"><ele>524.0</ele><time>2026-05-02T07:17:09Z</time></trkpt><trkpt lat="43.413587415520155" lon="11.464615444008938"><ele>522.6</ele><time>2026-05-02T07:17:10Z</time></trkpt><trkpt lat="43.413462996915655" lon="11.464626172261852"><ele>521.2</ele><time>2026-05-02T07:17:11Z</time></trkpt><trkpt lat="43.41336289511434" lon="11.464619845405805"><ele>519.8000000000001</ele><time>2026-05-02T07:17:12Z</time></trkpt><trkpt lat="43.41326478865079" lon="11.464579021275876"><ele>518.4</ele><time>2026-05-02T07:17:13Z</time></trkpt><trkpt lat="43.41319637018817" lon="11.464523671518805"><ele>517.0</ele><time>2026-05-02T07:17:14Z</time></trkpt><trkpt lat="43.413077413908596" lon="11.464410116638085"><ele>516.4</ele><time>2026-05-02T07:17:16Z</time></trkpt><trkpt lat="43.413001639843685" lon="11.464364158309493"><ele>515.8000000000001</ele><time>2026-05-02T07:17:16.999Z</time></trkpt><trkpt lat="43.41291357235809" lon="11.464358904188337"><ele>515.2</ele><time>2026-05-02T07:17:17.999Z</time></trkpt><trkpt lat="43.412815527621554" lon="11.464368442280545"><ele>514.6</ele><time>2026-05-02T07:17:18.999Z</time></trkpt><trkpt lat="43.41272625809079" lon="11.464357400967218"><ele>514.0</ele><time>2026-05-02T07:17:19.999Z</time></trkpt><trkpt lat="43.412635122529394" lon="11.464349398724982"><ele>514.0</ele><time>2026-05-02T07:17:20.999Z</time></trkpt><trkpt lat="43.41253528868278" lon="11.46432634686965"><ele>514.0</ele><time>2026-05-02T07:17:21.999Z</time></trkpt><trkpt lat="43.4124460439564" lon="11.464345017795889"><ele>514.0</ele><time>2026-05-02T07:17:22.999Z</time></trkpt><trkpt lat="43.412363252284564" lon="11.46440156457338"><ele>514.0</ele><time>2026-05-02T07:17:23.999Z</time></trkpt><trkpt lat="43.41228214789057" lon="11.464456762224057"><ele>514.0</ele><time>2026-05-02T07:17:24.999Z</time></trkpt><trkpt lat="43.41220879948431" lon="11.464530480821818"><ele>512.1666666666667</ele><time>2026-05-02T07:17:25.999Z</time></trkpt><trkpt lat="43.41213158704913" lon="11.464573344861732"><ele>510.33333333333337</ele><time>2026-05-02T07:17:26.999Z</time></trkpt><trkpt lat="43.4120469640292" lon="11.464625366078387"><ele>508.5</ele><time>2026-05-02T07:17:27.999Z</time></trkpt><trkpt lat="43.411964564417964" lon="11.464685527567834"><ele>506.66666666666663</ele><time>2026-05-02T07:17:28.999Z</time></trkpt><trkpt lat="43.41188791150233" lon="11.4647417177636"><ele>504.8333333333333</ele><time>2026-05-02T07:17:29.999Z</time></trkpt><trkpt lat="43.41180899120777" lon="11.464758247402159"><ele>503.0</ele><time>2026-05-02T07:17:30.999Z</time></trkpt><trkpt lat="43.41173324680921" lon="11.46478878680124"><ele>503.0</ele><time>2026-05-02T07:17:31.999Z</time></trkpt><trkpt lat="43.411665513057365" lon="11.464824342400634"><ele>502.99999999999994</ele><time>2026-05-02T07:17:32.999Z</time></trkpt><trkpt lat="43.41158341970014" lon="11.464803339436191"><ele>502.99999999999994</ele><time>2026-05-02T07:17:33.999Z</time></trkpt><trkpt lat="43.411493372261745" lon="11.464760734490637"><ele>503.0</ele><time>2026-05-02T07:17:34.999Z</time></trkpt><trkpt lat="43.41138861050747" lon="11.464694965124101"><ele>503.0</ele><time>2026-05-02T07:17:35.999Z</time></trkpt><trkpt lat="43.41129583030731" lon="11.46463132829955"><ele>501.49999999999994</ele><time>2026-05-02T07:17:36.999Z</time></trkpt><trkpt lat="43.411209599902705" lon="11.464568138785536"><ele>500.0</ele><time>2026-05-02T07:17:37.999Z</time></trkpt><trkpt lat="43.411135249541275" lon="11.464512718242188"><ele>498.5</ele><time>2026-05-02T07:17:38.999Z</time></trkpt><trkpt lat="43.411061992394714" lon="11.464455002399525"><ele>497.0</ele><time>2026-05-02T07:17:39.999Z</time></trkpt><trkpt lat="43.41098792764279" lon="11.46442813476131"><ele>495.49999999999994</ele><time>2026-05-02T07:17:40.999Z</time></trkpt><trkpt lat="43.410903352609026" lon="11.464428244057414"><ele>494.0</ele><time>2026-05-02T07:17:41.999Z</time></trkpt><trkpt lat="43.410803189925254" lon="11.464420357844375"><ele>494.0</ele><time>2026-05-02T07:17:42.999Z</time></trkpt><trkpt lat="43.41070398426859" lon="11.464435541346726"><ele>494.0</ele><time>2026-05-02T07:17:43.999Z</time></trkpt><trkpt lat="43.410604121028186" lon="11.464446468477766"><ele>494.0</ele><time>2026-05-02T07:17:44.999Z</time></trkpt><trkpt lat="43.41049989008467" lon="11.464464410640577"><ele>494.0</ele><time>2026-05-02T07:17:45.999Z</time></trkpt><trkpt lat="43.410396983912285" lon="11.464471705656095"><ele>494.0</ele><time>2026-05-02T07:17:46.999Z</time></trkpt><trkpt lat="43.41029385566061" lon="11.464464070932868"><ele>493.6</ele><time>2026-05-02T07:17:47.999Z</time></trkpt><trkpt lat="43.41019046411148" lon="11.464468025839288"><ele>493.2</ele><time>2026-05-02T07:17:48.999Z</time></trkpt><trkpt lat="43.41008878964289" lon="11.464474654849308"><ele>492.80000000000007</ele><time>2026-05-02T07:17:49.999Z</time></trkpt><trkpt lat="43.40998857940766" lon="11.464476519817476"><ele>492.40000000000003</ele><time>2026-05-02T07:17:50.999Z</time></trkpt><trkpt lat="43.40989026532405" lon="11.464481290892806"><ele>492.0</ele><time>2026-05-02T07:17:51.999Z</time></trkpt><trkpt lat="43.409792279917866" lon="11.464479435580317"><ele>492.0</ele><time>2026-05-02T07:17:52.999Z</time></trkpt><trkpt lat="43.40969019004791" lon="11.464488808384678"><ele>492.00000000000006</ele><time>2026-05-02T07:17:53.999Z</time></trkpt><trkpt lat="43.40958708597111" lon="11.464493200304048"><ele>492.00000000000006</ele><time>2026-05-02T07:17:54.999Z</time></trkpt><trkpt lat="43.40948646904804" lon="11.464500969135823"><ele>492.0</ele><time>2026-05-02T07:17:55.999Z</time></trkpt><trkpt lat="43.40938534491728" lon="11.464505849561583"><ele>492.0</ele><time>2026-05-02T07:17:56.999Z</time></trkpt><trkpt lat="43.40929363672611" lon="11.464515460091974"><ele>492.1666666666667</ele><time>2026-05-02T07:17:57.999Z</time></trkpt><trkpt lat="43.40921222338103" lon="11.464505017307271"><ele>492.33333333333337</ele><time>2026-05-02T07:17:58.999Z</time></trkpt><trkpt lat="43.40914579208943" lon="11.464534618677124"><ele>492.5</ele><time>2026-05-02T07:17:59.999Z</time></trkpt><trkpt lat="43.40904319964815" lon="11.464531006777952"><ele>492.6666666666667</ele><time>2026-05-02T07:18:01.999Z</time></trkpt><trkpt lat="43.40896287517014" lon="11.464543162264937"><ele>492.83333333333337</ele><time>2026-05-02T07:18:10.999Z</time></trkpt><trkpt lat="43.40888278086654" lon="11.464553293941202"><ele>493.0</ele><time>2026-05-02T07:18:11.999Z</time></trkpt><trkpt lat="43.40879729214448" lon="11.464562584426357"><ele>492.0</ele><time>2026-05-02T07:18:12.999Z</time></trkpt><trkpt lat="43.40870057818093" lon="11.464568606890817"><ele>491.0</ele><time>2026-05-02T07:18:13.999Z</time></trkpt><trkpt lat="43.408586746295676" lon="11.464564430713665"><ele>490.0</ele><time>2026-05-02T07:18:14.999Z</time></trkpt><trkpt lat="43.408462221485095" lon="11.464531370223632"><ele>489.0</ele><time>2026-05-02T07:18:15.999Z</time></trkpt><trkpt lat="43.40834099972564" lon="11.464542818772632"><ele>489.0</ele><time>2026-05-02T07:18:16.999Z</time></trkpt><trkpt lat="43.408224300043784" lon="11.46453646077536"><ele>489.0</ele><time>2026-05-02T07:18:17.999Z</time></trkpt><trkpt lat="43.40811160938541" lon="11.464541457118417"><ele>489.0</ele><time>2026-05-02T07:18:18.999Z</time></trkpt><trkpt lat="43.40800072616904" lon="11.464553796674496"><ele>489.0</ele><time>2026-05-02T07:18:19.999Z</time></trkpt><trkpt lat="43.40788369853516" lon="11.464557616144374"><ele>486.5</ele><time>2026-05-02T07:18:20.999Z</time></trkpt><trkpt lat="43.40776408310164" lon="11.464561598564915"><ele>484.0</ele><time>2026-05-02T07:18:21.999Z</time></trkpt><trkpt lat="43.407644160254186" lon="11.464580662930743"><ele>481.5</ele><time>2026-05-02T07:18:22.999Z</time></trkpt><trkpt lat="43.407525284367345" lon="11.464592451355543"><ele>479.0</ele><time>2026-05-02T07:18:23.999Z</time></trkpt><trkpt lat="43.40740558735983" lon="11.464608043686896"><ele>478.75</ele><time>2026-05-02T07:18:24.999Z</time></trkpt><trkpt lat="43.40728522398402" lon="11.464627601512845"><ele>478.5</ele><time>2026-05-02T07:18:25.999Z</time></trkpt><trkpt lat="43.407171839927365" lon="11.464647775527727"><ele>478.25</ele><time>2026-05-02T07:18:26.999Z</time></trkpt><trkpt lat="43.40706311197619" lon="11.46465372155313"><ele>478.0</ele><time>2026-05-02T07:18:27.999Z</time></trkpt><trkpt lat="43.406954020025125" lon="11.464647615746074"><ele>477.2</ele><time>2026-05-02T07:18:28.999Z</time></trkpt><trkpt lat="43.4068540509414" lon="11.464599111756437"><ele>476.4</ele><time>2026-05-02T07:18:29.999Z</time></trkpt><trkpt lat="43.40674577586218" lon="11.46458059301237"><ele>475.59999999999997</ele><time>2026-05-02T07:18:30.999Z</time></trkpt><trkpt lat="43.406646237643166" lon="11.46454590388749"><ele>474.79999999999995</ele><time>2026-05-02T07:18:31.999Z</time></trkpt><trkpt lat="43.40655517522835" lon="11.464516081568703"><ele>474.0</ele><time>2026-05-02T07:18:32.999Z</time></trkpt><trkpt lat="43.4064703816733" lon="11.464485049611115"><ele>474.0</ele><time>2026-05-02T07:18:33.999Z</time></trkpt><trkpt lat="43.406397011818726" lon="11.464461846538907"><ele>474.0</ele><time>2026-05-02T07:18:34.999Z</time></trkpt><trkpt lat="43.40631946249878" lon="11.464436513219496"><ele>474.0</ele><time>2026-05-02T07:18:35.999Z</time></trkpt><trkpt lat="43.40623895732663" lon="11.464407243457865"><ele>474.0</ele><time>2026-05-02T07:18:36.999Z</time></trkpt><trkpt lat="43.40616224654108" lon="11.46437880309301"><ele>474.0</ele><time>2026-05-02T07:18:38Z</time></trkpt><trkpt lat="43.40608494937854" lon="11.464345937945454"><ele>474.0</ele><time>2026-05-02T07:18:39Z</time></trkpt><trkpt lat="43.40602140148155" lon="11.46428280748158"><ele>473.0</ele><time>2026-05-02T07:18:40Z</time></trkpt><trkpt lat="43.40594522496392" lon="11.464254566845394"><ele>472.0</ele><time>2026-05-02T07:18:41Z</time></trkpt><trkpt lat="43.40588387764369" lon="11.464188589857914"><ele>471.0</ele><time>2026-05-02T07:18:42Z</time></trkpt><trkpt lat="43.40581136168344" lon="11.464151132532658"><ele>470.0</ele><time>2026-05-02T07:18:43Z</time></trkpt><trkpt lat="43.40574057503386" lon="11.464090244555475"><ele>469.0</ele><time>2026-05-02T07:18:44Z</time></trkpt><trkpt lat="43.40566466607486" lon="11.464019765505496"><ele>468.0</ele><time>2026-05-02T07:18:45Z</time></trkpt><trkpt lat="43.4055940077617" lon="11.463955156588797"><ele>468.0</ele><time>2026-05-02T07:18:46Z</time></trkpt><trkpt lat="43.40552347409805" lon="11.463892329460323"><ele>468.0</ele><time>2026-05-02T07:18:47Z</time></trkpt><trkpt lat="43.40545593108306" lon="11.463831281974544"><ele>468.0</ele><time>2026-05-02T07:18:48Z</time></trkpt><trkpt lat="43.40538694679925" lon="11.463760474080745"><ele>468.0</ele><time>2026-05-02T07:18:49Z</time></trkpt><trkpt lat="43.40532078537393" lon="11.463678382620158"><ele>468.0</ele><time>2026-05-02T07:18:50Z</time></trkpt><trkpt lat="43.40525618097773" lon="11.463597417575764"><ele>468.0</ele><time>2026-05-02T07:18:51Z</time></trkpt><trkpt lat="43.40519386620446" lon="11.463514595946979"><ele>465.5</ele><time>2026-05-02T07:18:52Z</time></trkpt><trkpt lat="43.405137830453604" lon="11.463437286928189"><ele>463.0</ele><time>2026-05-02T07:18:53Z</time></trkpt><trkpt lat="43.40507956886414" lon="11.463363438821371"><ele>460.5</ele><time>2026-05-02T07:18:54Z</time></trkpt><trkpt lat="43.40501969759725" lon="11.46328067866395"><ele>458.0</ele><time>2026-05-02T07:18:55Z</time></trkpt><trkpt lat="43.404974858995786" lon="11.463178685311599"><ele>455.5</ele><time>2026-05-02T07:18:56Z</time></trkpt><trkpt lat="43.404926759814145" lon="11.463088272779142"><ele>453.0</ele><time>2026-05-02T07:18:57Z</time></trkpt><trkpt lat="43.40487419877434" lon="11.462994497020345"><ele>452.3333333333333</ele><time>2026-05-02T07:18:58Z</time></trkpt><trkpt lat="43.40482484591129" lon="11.462899534817145"><ele>451.66666666666663</ele><time>2026-05-02T07:18:59Z</time></trkpt><trkpt lat="43.40477657773306" lon="11.462797418024449"><ele>451.0</ele><time>2026-05-02T07:19:00Z</time></trkpt><trkpt lat="43.404731516541105" lon="11.462698766874048"><ele>450.3333333333333</ele><time>2026-05-02T07:19:01Z</time></trkpt><trkpt lat="43.404711828065906" lon="11.46257879053846"><ele>449.66666666666663</ele><time>2026-05-02T07:19:02Z</time></trkpt><trkpt lat="43.404692519947716" lon="11.462453345240199"><ele>449.0</ele><time>2026-05-02T07:19:03Z</time></trkpt><trkpt lat="43.404675407821074" lon="11.462323855549077"><ele>449.4</ele><time>2026-05-02T07:19:04Z</time></trkpt><trkpt lat="43.40465498563658" lon="11.462190726745572"><ele>449.79999999999995</ele><time>2026-05-02T07:19:05Z</time></trkpt><trkpt lat="43.404629015281735" lon="11.462054286366316"><ele>450.20000000000005</ele><time>2026-05-02T07:19:06Z</time></trkpt><trkpt lat="43.40460649549584" lon="11.461923313760606"><ele>450.6</ele><time>2026-05-02T07:19:07Z</time></trkpt><trkpt lat="43.40458990284082" lon="11.461792038282203"><ele>451.0</ele><time>2026-05-02T07:19:08Z</time></trkpt><trkpt lat="43.40455736703431" lon="11.461664980907583"><ele>452.0</ele><time>2026-05-02T07:19:09Z</time></trkpt><trkpt lat="43.404533735573416" lon="11.461534460895363"><ele>453.0</ele><time>2026-05-02T07:19:10Z</time></trkpt><trkpt lat="43.404476283193304" lon="11.46141326966413"><ele>454.0</ele><time>2026-05-02T07:19:11Z</time></trkpt><trkpt lat="43.404421013831126" lon="11.461298181507212"><ele>455.0</ele><time>2026-05-02T07:19:12Z</time></trkpt><trkpt lat="43.40435290762266" lon="11.461197404109683"><ele>456.0</ele><time>2026-05-02T07:19:13Z</time></trkpt><trkpt lat="43.404301982826176" lon="11.461080859688522"><ele>456.4</ele><time>2026-05-02T07:19:14Z</time></trkpt><trkpt lat="43.40424925505073" lon="11.460967353751244"><ele>456.8</ele><time>2026-05-02T07:19:15Z</time></trkpt><trkpt lat="43.40420006791082" lon="11.46085556400157"><ele>457.19999999999993</ele><time>2026-05-02T07:19:16Z</time></trkpt><trkpt lat="43.40414975759338" lon="11.460749040826697"><ele>457.59999999999997</ele><time>2026-05-02T07:19:17Z</time></trkpt><trkpt lat="43.404118815762004" lon="11.460633362464648"><ele>458.0</ele><time>2026-05-02T07:19:18Z</time></trkpt><trkpt lat="43.404096869338915" lon="11.460513403107168"><ele>457.59999999999997</ele><time>2026-05-02T07:19:19Z</time></trkpt><trkpt lat="43.40409070939109" lon="11.460394145784296"><ele>457.19999999999993</ele><time>2026-05-02T07:19:20Z</time></trkpt><trkpt lat="43.40409815700427" lon="11.460268805929088"><ele>456.8</ele><time>2026-05-02T07:19:20.999Z</time></trkpt><trkpt lat="43.404107908979505" lon="11.46013923783058"><ele>456.4</ele><time>2026-05-02T07:19:21.999Z</time></trkpt><trkpt lat="43.4041410733417" lon="11.460015983340682"><ele>456.0</ele><time>2026-05-02T07:19:22.999Z</time></trkpt><trkpt lat="43.404145926788864" lon="11.459890116497927"><ele>456.0</ele><time>2026-05-02T07:19:23.999Z</time></trkpt><trkpt lat="43.404167316988314" lon="11.459773601979132"><ele>456.0</ele><time>2026-05-02T07:19:24.999Z</time></trkpt><trkpt lat="43.40418896688679" lon="11.459659492200856"><ele>456.0</ele><time>2026-05-02T07:19:25.999Z</time></trkpt><trkpt lat="43.404221060206616" lon="11.459553162988215"><ele>456.0</ele><time>2026-05-02T07:19:26.999Z</time></trkpt><trkpt lat="43.4042622456597" lon="11.459452571752042"><ele>456.0</ele><time>2026-05-02T07:19:27.999Z</time></trkpt><trkpt lat="43.404310325065445" lon="11.459358066437188"><ele>456.0</ele><time>2026-05-02T07:19:28.999Z</time></trkpt><trkpt lat="43.40436208042194" lon="11.459268963981172"><ele>455.8333333333333</ele><time>2026-05-02T07:19:29.999Z</time></trkpt><trkpt lat="43.40441472357002" lon="11.459178066518602"><ele>455.66666666666663</ele><time>2026-05-02T07:19:30.999Z</time></trkpt><trkpt lat="43.40446823377954" lon="11.459096804351177"><ele>455.5</ele><time>2026-05-02T07:19:31.999Z</time></trkpt><trkpt lat="43.40452153811845" lon="11.45902105012595"><ele>455.3333333333333</ele><time>2026-05-02T07:19:32.999Z</time></trkpt><trkpt lat="43.40457630658226" lon="11.458947197347287"><ele>455.16666666666663</ele><time>2026-05-02T07:19:33.999Z</time></trkpt><trkpt lat="43.404624487605254" lon="11.458888988258675"><ele>455.0</ele><time>2026-05-02T07:19:34.999Z</time></trkpt><trkpt lat="43.404694576063825" lon="11.458795043191062"><ele>454.3333333333333</ele><time>2026-05-02T07:19:36.999Z</time></trkpt><trkpt lat="43.40474396529009" lon="11.458718545820654"><ele>453.66666666666663</ele><time>2026-05-02T07:19:38.999Z</time></trkpt><trkpt lat="43.404794997310496" lon="11.45861983686984"><ele>453.0</ele><time>2026-05-02T07:20:18.999Z</time></trkpt><trkpt lat="43.40481830329487" lon="11.458519914861236"><ele>452.33333333333337</ele><time>2026-05-02T07:20:19.999Z</time></trkpt><trkpt lat="43.40484005199531" lon="11.458422285441097"><ele>451.6666666666667</ele><time>2026-05-02T07:20:20.999Z</time></trkpt><trkpt lat="43.404860273070796" lon="11.458331518971397"><ele>451.0</ele><time>2026-05-02T07:20:21.999Z</time></trkpt><trkpt lat="43.404896190521335" lon="11.458170062348636"><ele>451.0</ele><time>2026-05-02T07:20:23.999Z</time></trkpt><trkpt lat="43.40497873396378" lon="11.45804507996157"><ele>451.0</ele><time>2026-05-02T07:20:25.999Z</time></trkpt><trkpt lat="43.405049917005314" lon="11.45790185307116"><ele>451.0</ele><time>2026-05-02T07:20:27.999Z</time></trkpt><trkpt lat="43.40502946959076" lon="11.457798156302468"><ele>451.0</ele><time>2026-05-02T07:20:28.999Z</time></trkpt><trkpt lat="43.40502458197192" lon="11.457691526256458"><ele>451.0</ele><time>2026-05-02T07:20:29.999Z</time></trkpt><trkpt lat="43.40503439252722" lon="11.457564513748597"><ele>449.4</ele><time>2026-05-02T07:20:30.999Z</time></trkpt><trkpt lat="43.40502562931532" lon="11.457422428829304"><ele>447.8</ele><time>2026-05-02T07:20:31.999Z</time></trkpt><trkpt lat="43.405011235068" lon="11.457282601430196"><ele>446.19999999999993</ele><time>2026-05-02T07:20:32.999Z</time></trkpt><trkpt lat="43.40498032597882" lon="11.457156657934057"><ele>444.59999999999997</ele><time>2026-05-02T07:20:33.999Z</time></trkpt><trkpt lat="43.4049741422879" lon="11.457028529542345"><ele>443.0</ele><time>2026-05-02T07:20:34.999Z</time></trkpt><trkpt lat="43.404947853091905" lon="11.456915472760137"><ele>442.0</ele><time>2026-05-02T07:20:35.999Z</time></trkpt><trkpt lat="43.40491580337041" lon="11.456819279490592"><ele>441.0</ele><time>2026-05-02T07:20:36.999Z</time></trkpt><trkpt lat="43.40488167889415" lon="11.456725707236"><ele>440.0</ele><time>2026-05-02T07:20:37.999Z</time></trkpt><trkpt lat="43.40485094952446" lon="11.45663522787604"><ele>439.0</ele><time>2026-05-02T07:20:38.999Z</time></trkpt><trkpt lat="43.404825426260366" lon="11.456553367370613"><ele>438.0</ele><time>2026-05-02T07:20:39.999Z</time></trkpt><trkpt lat="43.40480655124584" lon="11.456437208605799"><ele>437.0</ele><time>2026-05-02T07:20:41.999Z</time></trkpt><trkpt lat="43.4048319450633" lon="11.45634619012591"><ele>436.0</ele><time>2026-05-02T07:20:44Z</time></trkpt><trkpt lat="43.40493771718029" lon="11.45636080726981"><ele>436.00000000000006</ele><time>2026-05-02T07:20:45Z</time></trkpt><trkpt lat="43.40502176191095" lon="11.456348944880066"><ele>436.0</ele><time>2026-05-02T07:20:46Z</time></trkpt><trkpt lat="43.405112930285654" lon="11.456361343299289"><ele>436.0</ele><time>2026-05-02T07:20:47Z</time></trkpt><trkpt lat="43.40519921048704" lon="11.456376209127399"><ele>436.0</ele><time>2026-05-02T07:20:48Z</time></trkpt><trkpt lat="43.4052786342457" lon="11.456387987298271"><ele>436.00000000000006</ele><time>2026-05-02T07:20:49Z</time></trkpt><trkpt lat="43.405353280438746" lon="11.456398867290575"><ele>436.0</ele><time>2026-05-02T07:20:50Z</time></trkpt><trkpt lat="43.4054251253742" lon="11.456405438128888"><ele>436.0</ele><time>2026-05-02T07:20:51Z</time></trkpt><trkpt lat="43.40549500173623" lon="11.45641051637201"><ele>436.0</ele><time>2026-05-02T07:20:52Z</time></trkpt><trkpt lat="43.40556653244822" lon="11.456403625187097"><ele>436.0</ele><time>2026-05-02T07:20:53Z</time></trkpt><trkpt lat="43.40563348639941" lon="11.456378020415814"><ele>436.0</ele><time>2026-05-02T07:20:54Z</time></trkpt><trkpt lat="43.40569957809487" lon="11.4563356000712"><ele>436.0</ele><time>2026-05-02T07:20:55Z</time></trkpt><trkpt lat="43.405761775117526" lon="11.456269375016811"><ele>436.0</ele><time>2026-05-02T07:20:56Z</time></trkpt><trkpt lat="43.405833057884315" lon="11.456210302390527"><ele>436.0</ele><time>2026-05-02T07:20:57Z</time></trkpt><trkpt lat="43.40589145210172" lon="11.456121023955605"><ele>434.0</ele><time>2026-05-02T07:20:58Z</time></trkpt><trkpt lat="43.405932993624916" lon="11.456021404993761"><ele>432.0</ele><time>2026-05-02T07:20:59Z</time></trkpt><trkpt lat="43.405977899698605" lon="11.45592477116658"><ele>430.0</ele><time>2026-05-02T07:21:00Z</time></trkpt><trkpt lat="43.40602669990948" lon="11.45580920067566"><ele>428.0</ele><time>2026-05-02T07:21:01Z</time></trkpt><trkpt lat="43.40605568886966" lon="11.455661351621048"><ele>426.0</ele><time>2026-05-02T07:21:02Z</time></trkpt><trkpt lat="43.40607859188732" lon="11.455472566152379"><ele>425.0</ele><time>2026-05-02T07:21:03Z</time></trkpt><trkpt lat="43.40610903789837" lon="11.4552962677315"><ele>424.0</ele><time>2026-05-02T07:21:04Z</time></trkpt><trkpt lat="43.40614185640009" lon="11.455144460717756"><ele>423.0</ele><time>2026-05-02T07:21:05Z</time></trkpt><trkpt lat="43.406160986182854" lon="11.454999054523382"><ele>422.0</ele><time>2026-05-02T07:21:06Z</time></trkpt><trkpt lat="43.40619082807809" lon="11.454871241360124"><ele>422.0</ele><time>2026-05-02T07:21:07Z</time></trkpt><trkpt lat="43.4062278030973" lon="11.454754398544651"><ele>422.0</ele><time>2026-05-02T07:21:08Z</time></trkpt><trkpt lat="43.40628351787264" lon="11.454637701690883"><ele>422.0</ele><time>2026-05-02T07:21:09Z</time></trkpt><trkpt lat="43.40635441103818" lon="11.45453313728412"><ele>422.0</ele><time>2026-05-02T07:21:10Z</time></trkpt><trkpt lat="43.406419586376956" lon="11.454423828445528"><ele>422.0</ele><time>2026-05-02T07:21:11Z</time></trkpt><trkpt lat="43.4064780066137" lon="11.454288041198474"><ele>420.0</ele><time>2026-05-02T07:21:12Z</time></trkpt><trkpt lat="43.40652056889478" lon="11.45413360908152"><ele>418.0</ele><time>2026-05-02T07:21:13Z</time></trkpt><trkpt lat="43.406553966391606" lon="11.453985604461597"><ele>416.0</ele><time>2026-05-02T07:21:14Z</time></trkpt><trkpt lat="43.406569674744254" lon="11.453841912416513"><ele>414.0</ele><time>2026-05-02T07:21:15Z</time></trkpt><trkpt lat="43.406566238428894" lon="11.453707403832786"><ele>412.0</ele><time>2026-05-02T07:21:16Z</time></trkpt><trkpt lat="43.40653875138433" lon="11.453579802743743"><ele>412.0</ele><time>2026-05-02T07:21:17Z</time></trkpt><trkpt lat="43.40648815318938" lon="11.453436040497891"><ele>412.0</ele><time>2026-05-02T07:21:18Z</time></trkpt><trkpt lat="43.406449988364834" lon="11.453284394882338"><ele>412.0</ele><time>2026-05-02T07:21:19Z</time></trkpt><trkpt lat="43.40644174566022" lon="11.45314488750576"><ele>412.0</ele><time>2026-05-02T07:21:20Z</time></trkpt><trkpt lat="43.40644381941357" lon="11.453003006487611"><ele>412.0</ele><time>2026-05-02T07:21:21Z</time></trkpt><trkpt lat="43.40646966170872" lon="11.452863469592714"><ele>411.25</ele><time>2026-05-02T07:21:22Z</time></trkpt><trkpt lat="43.40649903151577" lon="11.452712013098758"><ele>410.5</ele><time>2026-05-02T07:21:23Z</time></trkpt><trkpt lat="43.40651418539086" lon="11.452548750548189"><ele>409.75</ele><time>2026-05-02T07:21:24Z</time></trkpt><trkpt lat="43.40652201307962" lon="11.45239032426286"><ele>409.0</ele><time>2026-05-02T07:21:24.999Z</time></trkpt><trkpt lat="43.40652301023385" lon="11.452234314991198"><ele>407.5</ele><time>2026-05-02T07:21:25.999Z</time></trkpt><trkpt lat="43.406507358098104" lon="11.45207838209841"><ele>406.0</ele><time>2026-05-02T07:21:26.999Z</time></trkpt><trkpt lat="43.40647344429452" lon="11.451925790228598"><ele>404.5</ele><time>2026-05-02T07:21:27.999Z</time></trkpt><trkpt lat="43.40642379608934" lon="11.45177910146126"><ele>403.0</ele><time>2026-05-02T07:21:28.999Z</time></trkpt><trkpt lat="43.40636420385937" lon="11.451642864933003"><ele>404.59999999999997</ele><time>2026-05-02T07:21:29.999Z</time></trkpt><trkpt lat="43.40631197816721" lon="11.451504441052878"><ele>406.2</ele><time>2026-05-02T07:21:30.999Z</time></trkpt><trkpt lat="43.406248365427956" lon="11.451379648409587"><ele>407.8</ele><time>2026-05-02T07:21:31.999Z</time></trkpt><trkpt lat="43.406180452766975" lon="11.451268445140037"><ele>409.4</ele><time>2026-05-02T07:21:32.999Z</time></trkpt><trkpt lat="43.40610634544283" lon="11.451170667529354"><ele>411.0</ele><time>2026-05-02T07:21:33.999Z</time></trkpt><trkpt lat="43.40606051248838" lon="11.45104121830109"><ele>411.0</ele><time>2026-05-02T07:21:34.999Z</time></trkpt><trkpt lat="43.40599402048266" lon="11.450928911044082"><ele>411.0</ele><time>2026-05-02T07:21:35.999Z</time></trkpt><trkpt lat="43.4059542895822" lon="11.450792485493075"><ele>411.0</ele><time>2026-05-02T07:21:36.999Z</time></trkpt><trkpt lat="43.40592071479278" lon="11.450653063235656"><ele>411.0</ele><time>2026-05-02T07:21:37.999Z</time></trkpt><trkpt lat="43.405890281430004" lon="11.450514930616816"><ele>411.0</ele><time>2026-05-02T07:21:38.999Z</time></trkpt><trkpt lat="43.405853895535785" lon="11.45037468302361"><ele>410.25</ele><time>2026-05-02T07:21:39.999Z</time></trkpt><trkpt lat="43.405802520279124" lon="11.450238629654974"><ele>409.5</ele><time>2026-05-02T07:21:40.999Z</time></trkpt><trkpt lat="43.405747146356504" lon="11.450102963278509"><ele>408.75</ele><time>2026-05-02T07:21:41.999Z</time></trkpt><trkpt lat="43.40569177346835" lon="11.44996658704024"><ele>408.0</ele><time>2026-05-02T07:21:42.999Z</time></trkpt><trkpt lat="43.40562744654358" lon="11.449833099497912"><ele>408.0</ele><time>2026-05-02T07:21:43.999Z</time></trkpt><trkpt lat="43.40556016884262" lon="11.449701874270655"><ele>408.0</ele><time>2026-05-02T07:21:44.999Z</time></trkpt><trkpt lat="43.40548507547336" lon="11.44957006340619"><ele>408.0</ele><time>2026-05-02T07:21:45.999Z</time></trkpt><trkpt lat="43.40540439566149" lon="11.449444585571316"><ele>408.0</ele><time>2026-05-02T07:21:46.999Z</time></trkpt><trkpt lat="43.405326465228" lon="11.449327077839595"><ele>406.59999999999997</ele><time>2026-05-02T07:21:47.999Z</time></trkpt><trkpt lat="43.40525796628109" lon="11.449209598166775"><ele>405.2</ele><time>2026-05-02T07:21:48.999Z</time></trkpt><trkpt lat="43.40520165529535" lon="11.449108460935944"><ele>403.8</ele><time>2026-05-02T07:21:49.999Z</time></trkpt><trkpt lat="43.40515891596129" lon="11.449030633941128"><ele>402.4</ele><time>2026-05-02T07:21:50.999Z</time></trkpt><trkpt lat="43.40510765611411" lon="11.448876942877819"><ele>401.0</ele><time>2026-05-02T07:21:52.999Z</time></trkpt><trkpt lat="43.40508706594315" lon="11.448795053239955"><ele>400.5</ele><time>2026-05-02T07:21:53.999Z</time></trkpt><trkpt lat="43.40501961363714" lon="11.448678055640599"><ele>400.0</ele><time>2026-05-02T07:21:55.999Z</time></trkpt><trkpt lat="43.40490624619111" lon="11.448593884085446"><ele>399.5</ele><time>2026-05-02T07:21:57.999Z</time></trkpt><trkpt lat="43.404829023152935" lon="11.448506093853894"><ele>399.0</ele><time>2026-05-02T07:21:58.999Z</time></trkpt><trkpt lat="43.40471832545037" lon="11.448415759808524"><ele>398.66666666666663</ele><time>2026-05-02T07:21:59.999Z</time></trkpt><trkpt lat="43.40457178219663" lon="11.448315760635767"><ele>398.3333333333333</ele><time>2026-05-02T07:22:00.999Z</time></trkpt><trkpt lat="43.40439868906873" lon="11.448193930440556"><ele>398.0</ele><time>2026-05-02T07:22:01.999Z</time></trkpt><trkpt lat="43.404223349761665" lon="11.448050736116118"><ele>398.3333333333333</ele><time>2026-05-02T07:22:02.999Z</time></trkpt><trkpt lat="43.404042230300135" lon="11.447912502862716"><ele>398.66666666666663</ele><time>2026-05-02T07:22:03.999Z</time></trkpt><trkpt lat="43.4038231957195" lon="11.447806859640938"><ele>399.0</ele><time>2026-05-02T07:22:04.999Z</time></trkpt><trkpt lat="43.40358073601156" lon="11.447711186126094"><ele>399.0</ele><time>2026-05-02T07:22:05.999Z</time></trkpt><trkpt lat="43.403359540899395" lon="11.447615470457771"><ele>399.0</ele><time>2026-05-02T07:22:06.999Z</time></trkpt><trkpt lat="43.40316302614244" lon="11.447508660221175"><ele>399.0</ele><time>2026-05-02T07:22:07.999Z</time></trkpt><trkpt lat="43.40298408721432" lon="11.447403135518694"><ele>399.0</ele><time>2026-05-02T07:22:08.999Z</time></trkpt><trkpt lat="43.40280573444216" lon="11.447302825199522"><ele>399.0</ele><time>2026-05-02T07:22:09.999Z</time></trkpt><trkpt lat="43.40262908769989" lon="11.447199263375758"><ele>399.0</ele><time>2026-05-02T07:22:10.999Z</time></trkpt><trkpt lat="43.402454876454215" lon="11.447093922104502"><ele>399.0</ele><time>2026-05-02T07:22:11.999Z</time></trkpt><trkpt lat="43.40227663958041" lon="11.44698614007983"><ele>399.0</ele><time>2026-05-02T07:22:12.999Z</time></trkpt><trkpt lat="43.40211179441399" lon="11.446869809456382"><ele>399.0</ele><time>2026-05-02T07:22:13.999Z</time></trkpt><trkpt lat="43.401961376016644" lon="11.446745540159341"><ele>396.0</ele><time>2026-05-02T07:22:14.999Z</time></trkpt><trkpt lat="43.40183517165911" lon="11.446583850515173"><ele>393.0</ele><time>2026-05-02T07:22:15.999Z</time></trkpt><trkpt lat="43.401689086970954" lon="11.446439031255794"><ele>390.0</ele><time>2026-05-02T07:22:16.999Z</time></trkpt><trkpt lat="43.40155311704362" lon="11.446263008988243"><ele>390.0</ele><time>2026-05-02T07:22:17.999Z</time></trkpt><trkpt lat="43.401421638796705" lon="11.446097447838135"><ele>390.0</ele><time>2026-05-02T07:22:18.999Z</time></trkpt><trkpt lat="43.40131356868696" lon="11.445902118208844"><ele>390.0</ele><time>2026-05-02T07:22:19.999Z</time></trkpt><trkpt lat="43.401196518793306" lon="11.445706309486837"><ele>387.6666666666667</ele><time>2026-05-02T07:22:20.999Z</time></trkpt><trkpt lat="43.401064374847756" lon="11.445518793992457"><ele>385.33333333333337</ele><time>2026-05-02T07:22:21.999Z</time></trkpt><trkpt lat="43.40094679062676" lon="11.445319291409614"><ele>383.0</ele><time>2026-05-02T07:22:22.999Z</time></trkpt><trkpt lat="43.4008111484135" lon="11.445122359280571"><ele>382.6666666666667</ele><time>2026-05-02T07:22:23.999Z</time></trkpt><trkpt lat="43.40066173209967" lon="11.444929457795777"><ele>382.3333333333333</ele><time>2026-05-02T07:22:24.999Z</time></trkpt><trkpt lat="43.40049919615726" lon="11.444720134121805"><ele>382.0</ele><time>2026-05-02T07:22:25.999Z</time></trkpt><trkpt lat="43.40034532740114" lon="11.444521389625882"><ele>380.3333333333333</ele><time>2026-05-02T07:22:26.999Z</time></trkpt><trkpt lat="43.400204214718755" lon="11.444331791783725"><ele>378.6666666666667</ele><time>2026-05-02T07:22:27.999Z</time></trkpt><trkpt lat="43.40006534787433" lon="11.444146103775308"><ele>377.0</ele><time>2026-05-02T07:22:28.999Z</time></trkpt><trkpt lat="43.39993408880869" lon="11.443972153430911"><ele>377.0</ele><time>2026-05-02T07:22:29.999Z</time></trkpt><trkpt lat="43.399810037342746" lon="11.443816258767948"><ele>377.0</ele><time>2026-05-02T07:22:30.999Z</time></trkpt><trkpt lat="43.39968183733988" lon="11.443692597432932"><ele>377.0</ele><time>2026-05-02T07:22:31.999Z</time></trkpt><trkpt lat="43.39952991783929" lon="11.443628446599785"><ele>376.75</ele><time>2026-05-02T07:22:32.999Z</time></trkpt><trkpt lat="43.3993783879187" lon="11.443579653498139"><ele>376.5</ele><time>2026-05-02T07:22:33.999Z</time></trkpt><trkpt lat="43.39924973133725" lon="11.443518780267558"><ele>376.25</ele><time>2026-05-02T07:22:34.999Z</time></trkpt><trkpt lat="43.39913140183309" lon="11.443465968312122"><ele>376.0</ele><time>2026-05-02T07:22:35.999Z</time></trkpt><trkpt lat="43.39900415357418" lon="11.443437647314711"><ele>376.0</ele><time>2026-05-02T07:22:36.999Z</time></trkpt><trkpt lat="43.398870261123434" lon="11.44344081429133"><ele>376.0</ele><time>2026-05-02T07:22:37.999Z</time></trkpt><trkpt lat="43.398729719777386" lon="11.443473208157645"><ele>376.0</ele><time>2026-05-02T07:22:38.999Z</time></trkpt><trkpt lat="43.39858295749808" lon="11.443511655254758"><ele>376.0</ele><time>2026-05-02T07:22:39.999Z</time></trkpt><trkpt lat="43.398434711416094" lon="11.443541478806868"><ele>376.0</ele><time>2026-05-02T07:22:40.999Z</time></trkpt><trkpt lat="43.39828777544294" lon="11.443570328610098"><ele>376.0</ele><time>2026-05-02T07:22:41.999Z</time></trkpt><trkpt lat="43.398136307955404" lon="11.443601953760766"><ele>376.0</ele><time>2026-05-02T07:22:42.999Z</time></trkpt><trkpt lat="43.39798769182529" lon="11.443634414920629"><ele>375.25</ele><time>2026-05-02T07:22:43.999Z</time></trkpt><trkpt lat="43.39784662763399" lon="11.443648043964767"><ele>374.5</ele><time>2026-05-02T07:22:44.999Z</time></trkpt><trkpt lat="43.397720474255365" lon="11.443569597277499"><ele>373.75</ele><time>2026-05-02T07:22:45.999Z</time></trkpt><trkpt lat="43.39757324936182" lon="11.443529871415738"><ele>373.0</ele><time>2026-05-02T07:22:46.999Z</time></trkpt><trkpt lat="43.39741956487413" lon="11.443457962248745"><ele>373.0</ele><time>2026-05-02T07:22:47.999Z</time></trkpt><trkpt lat="43.39725627079653" lon="11.443394597086451"><ele>373.0</ele><time>2026-05-02T07:22:48.999Z</time></trkpt><trkpt lat="43.39708847844715" lon="11.44333116703984"><ele>373.0</ele><time>2026-05-02T07:22:50Z</time></trkpt><trkpt lat="43.39692011986096" lon="11.443269462596858"><ele>372.3333333333333</ele><time>2026-05-02T07:22:51Z</time></trkpt><trkpt lat="43.39674822871401" lon="11.44320368956331"><ele>371.6666666666667</ele><time>2026-05-02T07:22:52Z</time></trkpt><trkpt lat="43.396577130945815" lon="11.44313515384546"><ele>371.0</ele><time>2026-05-02T07:22:53Z</time></trkpt><trkpt lat="43.396406723276556" lon="11.443067188469898"><ele>369.6666666666667</ele><time>2026-05-02T07:22:54Z</time></trkpt><trkpt lat="43.39623553231313" lon="11.443003752631562"><ele>368.3333333333333</ele><time>2026-05-02T07:22:55Z</time></trkpt><trkpt lat="43.396065892452405" lon="11.442937317987658"><ele>367.0</ele><time>2026-05-02T07:22:56Z</time></trkpt><trkpt lat="43.395900410017425" lon="11.442869229053699"><ele>367.0</ele><time>2026-05-02T07:22:57Z</time></trkpt><trkpt lat="43.39573421944582" lon="11.442803701828531"><ele>367.0</ele><time>2026-05-02T07:22:58Z</time></trkpt><trkpt lat="43.39557256477994" lon="11.442742612432259"><ele>367.0</ele><time>2026-05-02T07:22:59Z</time></trkpt><trkpt lat="43.395408936568764" lon="11.442690529569155"><ele>367.3333333333333</ele><time>2026-05-02T07:23:00Z</time></trkpt><trkpt lat="43.39525040747494" lon="11.442663487205422"><ele>367.6666666666667</ele><time>2026-05-02T07:23:01Z</time></trkpt><trkpt lat="43.39508444477556" lon="11.442665426820279"><ele>368.0</ele><time>2026-05-02T07:23:02Z</time></trkpt><trkpt lat="43.39491600889109" lon="11.442683993094063"><ele>368.0</ele><time>2026-05-02T07:23:03Z</time></trkpt><trkpt lat="43.39474844117264" lon="11.44270143288558"><ele>368.0</ele><time>2026-05-02T07:23:04Z</time></trkpt><trkpt lat="43.39458979538186" lon="11.442701259769612"><ele>368.0</ele><time>2026-05-02T07:23:05Z</time></trkpt><trkpt lat="43.3944281858752" lon="11.442687524364532"><ele>368.0</ele><time>2026-05-02T07:23:06Z</time></trkpt><trkpt lat="43.3942626701131" lon="11.442671741179753"><ele>368.0</ele><time>2026-05-02T07:23:07Z</time></trkpt><trkpt lat="43.394091789480385" lon="11.442643911848403"><ele>368.0</ele><time>2026-05-02T07:23:08Z</time></trkpt><trkpt lat="43.39392556283611" lon="11.442619756829005"><ele>368.0</ele><time>2026-05-02T07:23:09Z</time></trkpt><trkpt lat="43.393756190346956" lon="11.44259211686685"><ele>368.0</ele><time>2026-05-02T07:23:10Z</time></trkpt><trkpt lat="43.39358699354614" lon="11.442558029567893"><ele>368.0</ele><time>2026-05-02T07:23:11Z</time></trkpt><trkpt lat="43.39344598439314" lon="11.442475161283852"><ele>368.0</ele><time>2026-05-02T07:23:12Z</time></trkpt><trkpt lat="43.393288967041" lon="11.442393579866916"><ele>368.0</ele><time>2026-05-02T07:23:13Z</time></trkpt><trkpt lat="43.39312845978959" lon="11.442334591338494"><ele>368.0</ele><time>2026-05-02T07:23:14Z</time></trkpt><trkpt lat="43.39302590525843" lon="11.442302106192813"><ele>368.0</ele><time>2026-05-02T07:23:15Z</time></trkpt><trkpt lat="43.392945203676646" lon="11.442290234488398"><ele>368.2</ele><time>2026-05-02T07:23:16Z</time></trkpt><trkpt lat="43.3928650111871" lon="11.442286086864527"><ele>368.4</ele><time>2026-05-02T07:23:17Z</time></trkpt><trkpt lat="43.39277734355936" lon="11.442285899949056"><ele>368.59999999999997</ele><time>2026-05-02T07:23:18Z</time></trkpt><trkpt lat="43.39268987490293" lon="11.442298942434704"><ele>368.79999999999995</ele><time>2026-05-02T07:23:19Z</time></trkpt><trkpt lat="43.392599268161945" lon="11.442331820432218"><ele>369.0</ele><time>2026-05-02T07:23:20Z</time></trkpt><trkpt lat="43.39249388937131" lon="11.442363545705831"><ele>369.0</ele><time>2026-05-02T07:23:21Z</time></trkpt><trkpt lat="43.392377295922266" lon="11.44240899260895"><ele>369.0</ele><time>2026-05-02T07:23:22Z</time></trkpt><trkpt lat="43.39225831790939" lon="11.442482584039702"><ele>369.0</ele><time>2026-05-02T07:23:23Z</time></trkpt><trkpt lat="43.39213006149765" lon="11.44256070282863"><ele>369.0</ele><time>2026-05-02T07:23:24Z</time></trkpt><trkpt lat="43.392000165997196" lon="11.442645061316014"><ele>368.25</ele><time>2026-05-02T07:23:25Z</time></trkpt><trkpt lat="43.39186991714843" lon="11.442727119781443"><ele>367.5</ele><time>2026-05-02T07:23:26Z</time></trkpt><trkpt lat="43.39174292661509" lon="11.442813140606"><ele>366.75</ele><time>2026-05-02T07:23:27Z</time></trkpt><trkpt lat="43.391606220272486" lon="11.442828527336726"><ele>366.0</ele><time>2026-05-02T07:23:27.999Z</time></trkpt><trkpt lat="43.391471827620435" lon="11.442830595207665"><ele>366.6666666666667</ele><time>2026-05-02T07:23:28.999Z</time></trkpt><trkpt lat="43.3913270460829" lon="11.442832912421961"><ele>367.33333333333337</ele><time>2026-05-02T07:23:29.999Z</time></trkpt><trkpt lat="43.391176602709294" lon="11.442850426298897"><ele>368.0</ele><time>2026-05-02T07:23:30.999Z</time></trkpt><trkpt lat="43.39101843977717" lon="11.44286936231768"><ele>368.0</ele><time>2026-05-02T07:23:31.999Z</time></trkpt><trkpt lat="43.39086251133474" lon="11.442905425246941"><ele>368.0</ele><time>2026-05-02T07:23:32.999Z</time></trkpt><trkpt lat="43.39071322374493" lon="11.442948011986871"><ele>368.0</ele><time>2026-05-02T07:23:33.999Z</time></trkpt><trkpt lat="43.39056498513787" lon="11.442940837888576"><ele>367.25</ele><time>2026-05-02T07:23:34.999Z</time></trkpt><trkpt lat="43.390414807476404" lon="11.442929054112671"><ele>366.5</ele><time>2026-05-02T07:23:35.999Z</time></trkpt><trkpt lat="43.39026736086067" lon="11.442920359807937"><ele>365.75</ele><time>2026-05-02T07:23:36.999Z</time></trkpt><trkpt lat="43.39013281246473" lon="11.442896623507282"><ele>365.0</ele><time>2026-05-02T07:23:37.999Z</time></trkpt><trkpt lat="43.390009037386854" lon="11.442885555871655"><ele>365.0</ele><time>2026-05-02T07:23:38.999Z</time></trkpt><trkpt lat="43.38989785110672" lon="11.442846969243824"><ele>365.0</ele><time>2026-05-02T07:23:39.999Z</time></trkpt><trkpt lat="43.389799543345056" lon="11.442764980772926"><ele>365.0</ele><time>2026-05-02T07:23:40.999Z</time></trkpt><trkpt lat="43.38975233399575" lon="11.442601565477341"><ele>365.0</ele><time>2026-05-02T07:23:41.999Z</time></trkpt><trkpt lat="43.38968170900939" lon="11.442433649898112"><ele>362.33333333333337</ele><time>2026-05-02T07:23:42.999Z</time></trkpt><trkpt lat="43.389598038199466" lon="11.442260952194195"><ele>359.6666666666667</ele><time>2026-05-02T07:23:43.999Z</time></trkpt><trkpt lat="43.38951381609994" lon="11.442086858475708"><ele>357.0</ele><time>2026-05-02T07:23:44.999Z</time></trkpt><trkpt lat="43.38940729308148" lon="11.441932084216976"><ele>357.0</ele><time>2026-05-02T07:23:45.999Z</time></trkpt><trkpt lat="43.38930122116817" lon="11.441776419228415"><ele>357.0</ele><time>2026-05-02T07:23:46.999Z</time></trkpt><trkpt lat="43.3892002166549" lon="11.441619792069215"><ele>357.0</ele><time>2026-05-02T07:23:47.999Z</time></trkpt><trkpt lat="43.38909934299441" lon="11.441463096850216"><ele>357.0</ele><time>2026-05-02T07:23:48.999Z</time></trkpt><trkpt lat="43.388997342144386" lon="11.441310214425682"><ele>357.0</ele><time>2026-05-02T07:23:49.999Z</time></trkpt><trkpt lat="43.38889295727722" lon="11.441153226451819"><ele>357.0</ele><time>2026-05-02T07:23:50.999Z</time></trkpt><trkpt lat="43.388781659734505" lon="11.440998390888424"><ele>356.0</ele><time>2026-05-02T07:23:51.999Z</time></trkpt><trkpt lat="43.38865689908856" lon="11.440852776203009"><ele>355.0</ele><time>2026-05-02T07:23:52.999Z</time></trkpt><trkpt lat="43.38852653851111" lon="11.44071426345283"><ele>354.0</ele><time>2026-05-02T07:23:53.999Z</time></trkpt><trkpt lat="43.38839903173704" lon="11.440572196499314"><ele>351.0</ele><time>2026-05-02T07:23:54.999Z</time></trkpt><trkpt lat="43.38828101245721" lon="11.440415024838007"><ele>348.0</ele><time>2026-05-02T07:23:55.999Z</time></trkpt><trkpt lat="43.38817011040059" lon="11.440250029850121"><ele>345.0</ele><time>2026-05-02T07:23:56.999Z</time></trkpt><trkpt lat="43.38805795780298" lon="11.440083481660642"><ele>345.3333333333333</ele><time>2026-05-02T07:23:57.999Z</time></trkpt><trkpt lat="43.38795141900919" lon="11.43991435661645"><ele>345.66666666666663</ele><time>2026-05-02T07:23:58.999Z</time></trkpt><trkpt lat="43.38785301482034" lon="11.439733227342085"><ele>346.0</ele><time>2026-05-02T07:23:59.999Z</time></trkpt><trkpt lat="43.3877586163081" lon="11.439549763257192"><ele>344.66666666666663</ele><time>2026-05-02T07:24:00.999Z</time></trkpt><trkpt lat="43.387659207653556" lon="11.439369865035113"><ele>343.3333333333333</ele><time>2026-05-02T07:24:01.999Z</time></trkpt><trkpt lat="43.387552756331466" lon="11.439196574751112"><ele>342.0</ele><time>2026-05-02T07:24:02.999Z</time></trkpt><trkpt lat="43.38743999502916" lon="11.439024651632403"><ele>342.0</ele><time>2026-05-02T07:24:03.999Z</time></trkpt><trkpt lat="43.38733971455761" lon="11.438829026927387"><ele>342.0</ele><time>2026-05-02T07:24:04.999Z</time></trkpt><trkpt lat="43.387234903137134" lon="11.438646603152979"><ele>342.0</ele><time>2026-05-02T07:24:05.999Z</time></trkpt><trkpt lat="43.38714921331238" lon="11.438464311720718"><ele>342.3333333333333</ele><time>2026-05-02T07:24:06.999Z</time></trkpt><trkpt lat="43.38708383329194" lon="11.438265070797685"><ele>342.66666666666663</ele><time>2026-05-02T07:24:07.999Z</time></trkpt><trkpt lat="43.387030705372894" lon="11.438049332134963"><ele>343.0</ele><time>2026-05-02T07:24:08.999Z</time></trkpt><trkpt lat="43.38696664734114" lon="11.437827488889123"><ele>343.3333333333333</ele><time>2026-05-02T07:24:09.999Z</time></trkpt><trkpt lat="43.38692758255192" lon="11.437604145479076"><ele>343.6666666666667</ele><time>2026-05-02T07:24:10.999Z</time></trkpt><trkpt lat="43.386870873710365" lon="11.437400185710013"><ele>344.0</ele><time>2026-05-02T07:24:11.999Z</time></trkpt><trkpt lat="43.38679644705068" lon="11.43722918092737"><ele>341.33333333333337</ele><time>2026-05-02T07:24:12.999Z</time></trkpt><trkpt lat="43.38673537176956" lon="11.437052239156879"><ele>338.6666666666667</ele><time>2026-05-02T07:24:13.999Z</time></trkpt><trkpt lat="43.38663912226196" lon="11.43689873892707"><ele>336.0</ele><time>2026-05-02T07:24:14.999Z</time></trkpt><trkpt lat="43.38650884742206" lon="11.436764010021438"><ele>336.0</ele><time>2026-05-02T07:24:15.999Z</time></trkpt><trkpt lat="43.3863699240088" lon="11.436625254106616"><ele>336.0</ele><time>2026-05-02T07:24:16.999Z</time></trkpt><trkpt lat="43.38623739863636" lon="11.436489403847629"><ele>336.0</ele><time>2026-05-02T07:24:17.999Z</time></trkpt><trkpt lat="43.38612014107146" lon="11.436349335952064"><ele>336.0</ele><time>2026-05-02T07:24:18.999Z</time></trkpt><trkpt lat="43.38601865265713" lon="11.436216707222954"><ele>336.0</ele><time>2026-05-02T07:24:19.999Z</time></trkpt><trkpt lat="43.38593454413849" lon="11.436085634345522"><ele>336.0</ele><time>2026-05-02T07:24:20.999Z</time></trkpt><trkpt lat="43.38585432156107" lon="11.435966101556264"><ele>336.0</ele><time>2026-05-02T07:24:21.999Z</time></trkpt><trkpt lat="43.38575119689663" lon="11.4358587330031"><ele>336.0</ele><time>2026-05-02T07:24:22.999Z</time></trkpt><trkpt lat="43.38562806098322" lon="11.435764871038524"><ele>336.0</ele><time>2026-05-02T07:24:23.999Z</time></trkpt><trkpt lat="43.385497119430774" lon="11.435670846092489"><ele>336.0</ele><time>2026-05-02T07:24:24.999Z</time></trkpt><trkpt lat="43.385358435114064" lon="11.435560200108053"><ele>336.0</ele><time>2026-05-02T07:24:25.999Z</time></trkpt><trkpt lat="43.38521268263351" lon="11.4354361101853"><ele>333.6666666666667</ele><time>2026-05-02T07:24:26.999Z</time></trkpt><trkpt lat="43.385059970867324" lon="11.435318875510868"><ele>331.33333333333337</ele><time>2026-05-02T07:24:27.999Z</time></trkpt><trkpt lat="43.38489952739519" lon="11.435220867678995"><ele>329.0</ele><time>2026-05-02T07:24:28.999Z</time></trkpt><trkpt lat="43.384726287386314" lon="11.435157306152865"><ele>327.6666666666667</ele><time>2026-05-02T07:24:29.999Z</time></trkpt><trkpt lat="43.384548941682304" lon="11.435123580791897"><ele>326.3333333333333</ele><time>2026-05-02T07:24:30.999Z</time></trkpt><trkpt lat="43.384375565081925" lon="11.435092122146894"><ele>325.0</ele><time>2026-05-02T07:24:31.999Z</time></trkpt><trkpt lat="43.38421092376171" lon="11.435054283330098"><ele>325.0</ele><time>2026-05-02T07:24:32.999Z</time></trkpt><trkpt lat="43.384039475443544" lon="11.435013712886102"><ele>325.0</ele><time>2026-05-02T07:24:33.999Z</time></trkpt><trkpt lat="43.3838721222806" lon="11.434968988078015"><ele>325.0</ele><time>2026-05-02T07:24:34.999Z</time></trkpt><trkpt lat="43.38370684002824" lon="11.434893112066085"><ele>324.66666666666663</ele><time>2026-05-02T07:24:35.999Z</time></trkpt><trkpt lat="43.38354091849407" lon="11.434820671282516"><ele>324.3333333333333</ele><time>2026-05-02T07:24:36.999Z</time></trkpt><trkpt lat="43.38338763879824" lon="11.434718788033223"><ele>324.0</ele><time>2026-05-02T07:24:37.999Z</time></trkpt><trkpt lat="43.38323862096286" lon="11.434599073581934"><ele>325.0</ele><time>2026-05-02T07:24:38.999Z</time></trkpt><trkpt lat="43.38310194153859" lon="11.434466013734486"><ele>326.0</ele><time>2026-05-02T07:24:39.999Z</time></trkpt><trkpt lat="43.38295571260018" lon="11.434349586228354"><ele>327.0</ele><time>2026-05-02T07:24:40.999Z</time></trkpt><trkpt lat="43.38282250615716" lon="11.434224313457074"><ele>327.0</ele><time>2026-05-02T07:24:41.999Z</time></trkpt><trkpt lat="43.38268365181525" lon="11.434138806920496"><ele>327.0</ele><time>2026-05-02T07:24:42.999Z</time></trkpt><trkpt lat="43.382534457915035" lon="11.434085924598653"><ele>327.0</ele><time>2026-05-02T07:24:43.999Z</time></trkpt><trkpt lat="43.38238346809902" lon="11.43404905038287"><ele>327.0</ele><time>2026-05-02T07:24:44.999Z</time></trkpt><trkpt lat="43.382232647723775" lon="11.434019669387453"><ele>327.0</ele><time>2026-05-02T07:24:45.999Z</time></trkpt><trkpt lat="43.38208424719776" lon="11.433999124066288"><ele>327.0</ele><time>2026-05-02T07:24:46.999Z</time></trkpt><trkpt lat="43.38194428584497" lon="11.433988133115069"><ele>327.0</ele><time>2026-05-02T07:24:47.999Z</time></trkpt><trkpt lat="43.381818953560966" lon="11.433981962579972"><ele>326.5</ele><time>2026-05-02T07:24:48.999Z</time></trkpt><trkpt lat="43.38170649867879" lon="11.433932539145836"><ele>326.0</ele><time>2026-05-02T07:24:49.999Z</time></trkpt><trkpt lat="43.38159405658816" lon="11.433861461042905"><ele>325.5</ele><time>2026-05-02T07:24:50.999Z</time></trkpt><trkpt lat="43.3814640401902" lon="11.433775545359353"><ele>325.0</ele><time>2026-05-02T07:24:51.999Z</time></trkpt><trkpt lat="43.38131550560974" lon="11.433702406451713"><ele>323.0</ele><time>2026-05-02T07:24:52.999Z</time></trkpt><trkpt lat="43.38118468370834" lon="11.433592715388402"><ele>321.0</ele><time>2026-05-02T07:24:53.999Z</time></trkpt><trkpt lat="43.38105515340785" lon="11.433494651751035"><ele>319.0</ele><time>2026-05-02T07:24:55Z</time></trkpt><trkpt lat="43.38094156473016" lon="11.433372688857645"><ele>317.0</ele><time>2026-05-02T07:24:56Z</time></trkpt><trkpt lat="43.380839656493265" lon="11.433227763595552"><ele>317.0</ele><time>2026-05-02T07:24:57Z</time></trkpt><trkpt lat="43.38076257292641" lon="11.433061744436722"><ele>317.0</ele><time>2026-05-02T07:24:58Z</time></trkpt><trkpt lat="43.380678271700084" lon="11.432912238223924"><ele>317.0</ele><time>2026-05-02T07:24:59Z</time></trkpt><trkpt lat="43.38061124495382" lon="11.432768516084716"><ele>317.0</ele><time>2026-05-02T07:25:00Z</time></trkpt><trkpt lat="43.380485149696696" lon="11.432711160376709"><ele>318.0</ele><time>2026-05-02T07:25:01Z</time></trkpt><trkpt lat="43.38035953296062" lon="11.432672279278771"><ele>319.0</ele><time>2026-05-02T07:25:02Z</time></trkpt><trkpt lat="43.38023375258374" lon="11.432649265819125"><ele>320.0</ele><time>2026-05-02T07:25:03Z</time></trkpt><trkpt lat="43.380106573463934" lon="11.432610995373688"><ele>321.0</ele><time>2026-05-02T07:25:04Z</time></trkpt><trkpt lat="43.379968760636466" lon="11.432594356190364"><ele>321.0</ele><time>2026-05-02T07:25:05Z</time></trkpt><trkpt lat="43.37982848670549" lon="11.432576239804641"><ele>321.0</ele><time>2026-05-02T07:25:06Z</time></trkpt><trkpt lat="43.37968419826033" lon="11.432564650521673"><ele>321.0</ele><time>2026-05-02T07:25:07Z</time></trkpt><trkpt lat="43.37954428876435" lon="11.432507990678983"><ele>321.0</ele><time>2026-05-02T07:25:08Z</time></trkpt><trkpt lat="43.37940517157526" lon="11.432435945200057"><ele>320.0</ele><time>2026-05-02T07:25:09Z</time></trkpt><trkpt lat="43.37925595793561" lon="11.432359053759598"><ele>319.0</ele><time>2026-05-02T07:25:10Z</time></trkpt><trkpt lat="43.37910165738415" lon="11.432284888411573"><ele>318.0</ele><time>2026-05-02T07:25:11Z</time></trkpt><trkpt lat="43.37894321512109" lon="11.432214096722713"><ele>317.6666666666667</ele><time>2026-05-02T07:25:12Z</time></trkpt><trkpt lat="43.3787820938505" lon="11.432141427352912"><ele>317.33333333333337</ele><time>2026-05-02T07:25:13Z</time></trkpt><trkpt lat="43.378618668790494" lon="11.432060940943945"><ele>317.0</ele><time>2026-05-02T07:25:14Z</time></trkpt><trkpt lat="43.37845447068067" lon="11.431977647478071"><ele>317.0</ele><time>2026-05-02T07:25:15Z</time></trkpt><trkpt lat="43.378288653493414" lon="11.43189089490123"><ele>317.0</ele><time>2026-05-02T07:25:16Z</time></trkpt><trkpt lat="43.37812191511219" lon="11.43180148165172"><ele>317.0</ele><time>2026-05-02T07:25:17Z</time></trkpt><trkpt lat="43.37795276071652" lon="11.431712005458051"><ele>317.6666666666667</ele><time>2026-05-02T07:25:18Z</time></trkpt><trkpt lat="43.37778455813329" lon="11.43162847287748"><ele>318.3333333333333</ele><time>2026-05-02T07:25:19Z</time></trkpt><trkpt lat="43.37761655227596" lon="11.431543383783367"><ele>319.0</ele><time>2026-05-02T07:25:20Z</time></trkpt><trkpt lat="43.377453255688394" lon="11.431463510798826"><ele>319.0</ele><time>2026-05-02T07:25:21Z</time></trkpt><trkpt lat="43.377288370041114" lon="11.431403008684"><ele>319.0</ele><time>2026-05-02T07:25:22Z</time></trkpt><trkpt lat="43.37711463885325" lon="11.43137121701095"><ele>319.0</ele><time>2026-05-02T07:25:23Z</time></trkpt><trkpt lat="43.37693858210519" lon="11.431326451289872"><ele>318.0</ele><time>2026-05-02T07:25:24Z</time></trkpt><trkpt lat="43.37676691753643" lon="11.431327016765206"><ele>317.0</ele><time>2026-05-02T07:25:24.999Z</time></trkpt><trkpt lat="43.37660430644563" lon="11.431300056050699"><ele>316.0</ele><time>2026-05-02T07:25:25.999Z</time></trkpt><trkpt lat="43.37645100120778" lon="11.431290801759138"><ele>315.25</ele><time>2026-05-02T07:25:26.999Z</time></trkpt><trkpt lat="43.37630583024206" lon="11.431246762791918"><ele>314.5</ele><time>2026-05-02T07:25:27.999Z</time></trkpt><trkpt lat="43.37616104600844" lon="11.431222647177398"><ele>313.75</ele><time>2026-05-02T07:25:28.999Z</time></trkpt><trkpt lat="43.37601139399658" lon="11.43119452837076"><ele>313.0</ele><time>2026-05-02T07:25:29.999Z</time></trkpt><trkpt lat="43.375859375165454" lon="11.431156361109618"><ele>313.0</ele><time>2026-05-02T07:25:30.999Z</time></trkpt><trkpt lat="43.37570273661948" lon="11.431087821550104"><ele>313.0</ele><time>2026-05-02T07:25:31.999Z</time></trkpt><trkpt lat="43.37555230118631" lon="11.430982629712949"><ele>313.0</ele><time>2026-05-02T07:25:32.999Z</time></trkpt><trkpt lat="43.375399046669884" lon="11.430858095267967"><ele>310.0</ele><time>2026-05-02T07:25:33.999Z</time></trkpt><trkpt lat="43.3752358195372" lon="11.430755179937428"><ele>307.0</ele><time>2026-05-02T07:25:34.999Z</time></trkpt><trkpt lat="43.37507833917797" lon="11.430635054807606"><ele>304.0</ele><time>2026-05-02T07:25:35.999Z</time></trkpt><trkpt lat="43.3749175596893" lon="11.43054104006839"><ele>304.3333333333333</ele><time>2026-05-02T07:25:36.999Z</time></trkpt><trkpt lat="43.3747486709613" lon="11.430471891627217"><ele>304.6666666666667</ele><time>2026-05-02T07:25:37.999Z</time></trkpt><trkpt lat="43.37458167589078" lon="11.430397167410783"><ele>305.0</ele><time>2026-05-02T07:25:38.999Z</time></trkpt><trkpt lat="43.37441669576207" lon="11.430344777235987"><ele>305.0</ele><time>2026-05-02T07:25:39.999Z</time></trkpt><trkpt lat="43.374248511530766" lon="11.43029209696312"><ele>305.0</ele><time>2026-05-02T07:25:40.999Z</time></trkpt><trkpt lat="43.374080306805865" lon="11.430239897631779"><ele>305.0</ele><time>2026-05-02T07:25:41.999Z</time></trkpt><trkpt lat="43.37390842135448" lon="11.43020259100115"><ele>304.6666666666667</ele><time>2026-05-02T07:25:42.999Z</time></trkpt><trkpt lat="43.37374154990018" lon="11.430123990923754"><ele>304.3333333333333</ele><time>2026-05-02T07:25:43.999Z</time></trkpt><trkpt lat="43.37357287682125" lon="11.430042692393071"><ele>304.0</ele><time>2026-05-02T07:25:44.999Z</time></trkpt><trkpt lat="43.373404922416114" lon="11.429957573106668"><ele>304.0</ele><time>2026-05-02T07:25:45.999Z</time></trkpt><trkpt lat="43.37323440110339" lon="11.429862833394745"><ele>304.0</ele><time>2026-05-02T07:25:46.999Z</time></trkpt><trkpt lat="43.37306838414049" lon="11.429764451531618"><ele>304.0</ele><time>2026-05-02T07:25:47.999Z</time></trkpt><trkpt lat="43.37289891629245" lon="11.429665549006653"><ele>301.66666666666663</ele><time>2026-05-02T07:25:48.999Z</time></trkpt><trkpt lat="43.37272474937998" lon="11.429565945032389"><ele>299.3333333333333</ele><time>2026-05-02T07:25:49.999Z</time></trkpt><trkpt lat="43.37255324256193" lon="11.429465705275858"><ele>297.0</ele><time>2026-05-02T07:25:50.999Z</time></trkpt><trkpt lat="43.37237955263556" lon="11.429364807631899"><ele>297.0</ele><time>2026-05-02T07:25:51.999Z</time></trkpt><trkpt lat="43.372206880820336" lon="11.429267882091233"><ele>297.0</ele><time>2026-05-02T07:25:52.999Z</time></trkpt><trkpt lat="43.372037338464345" lon="11.42917349074294"><ele>297.0</ele><time>2026-05-02T07:25:53.999Z</time></trkpt><trkpt lat="43.371870751688775" lon="11.42907903691923"><ele>295.6666666666667</ele><time>2026-05-02T07:25:54.999Z</time></trkpt><trkpt lat="43.371710653373675" lon="11.428985113698321"><ele>294.33333333333337</ele><time>2026-05-02T07:25:55.999Z</time></trkpt><trkpt lat="43.3715539451499" lon="11.428898485668089"><ele>293.0</ele><time>2026-05-02T07:25:56.999Z</time></trkpt><trkpt lat="43.37139417394044" lon="11.428821351097136"><ele>293.33333333333337</ele><time>2026-05-02T07:25:57.999Z</time></trkpt><trkpt lat="43.371233688737306" lon="11.428770213754904"><ele>293.6666666666667</ele><time>2026-05-02T07:25:58.999Z</time></trkpt><trkpt lat="43.37106557317342" lon="11.428728299358667"><ele>294.0</ele><time>2026-05-02T07:25:59.999Z</time></trkpt><trkpt lat="43.370907190129785" lon="11.428673847991083"><ele>294.0</ele><time>2026-05-02T07:26:00.999Z</time></trkpt><trkpt lat="43.37074929531425" lon="11.428643060178938"><ele>294.0</ele><time>2026-05-02T07:26:01.999Z</time></trkpt><trkpt lat="43.370595986311116" lon="11.428617737254228"><ele>294.0</ele><time>2026-05-02T07:26:02.999Z</time></trkpt><trkpt lat="43.37037341431273" lon="11.428596797538088"><ele>291.6666666666667</ele><time>2026-05-02T07:26:03.999Z</time></trkpt><trkpt lat="43.37019561164727" lon="11.428572865116841"><ele>289.33333333333337</ele><time>2026-05-02T07:26:04.999Z</time></trkpt><trkpt lat="43.37002128532577" lon="11.42855380442183"><ele>287.0</ele><time>2026-05-02T07:26:05.999Z</time></trkpt><trkpt lat="43.36984590620693" lon="11.428529786832645"><ele>285.33333333333337</ele><time>2026-05-02T07:26:06.999Z</time></trkpt><trkpt lat="43.36966889632893" lon="11.42850801574051"><ele>283.6666666666667</ele><time>2026-05-02T07:26:07.999Z</time></trkpt><trkpt lat="43.36949116539004" lon="11.428498048819431"><ele>282.0</ele><time>2026-05-02T07:26:08.999Z</time></trkpt><trkpt lat="43.369317752545406" lon="11.428484745640969"><ele>282.0</ele><time>2026-05-02T07:26:09.999Z</time></trkpt><trkpt lat="43.36914694350144" lon="11.428479101518242"><ele>282.0</ele><time>2026-05-02T07:26:10.999Z</time></trkpt><trkpt lat="43.36898499520728" lon="11.428480218979074"><ele>282.0</ele><time>2026-05-02T07:26:11.999Z</time></trkpt><trkpt lat="43.368835686836185" lon="11.428450416617984"><ele>282.6666666666667</ele><time>2026-05-02T07:26:12.999Z</time></trkpt><trkpt lat="43.368694255030285" lon="11.428402011908268"><ele>283.33333333333337</ele><time>2026-05-02T07:26:13.999Z</time></trkpt><trkpt lat="43.368551958561525" lon="11.428320976668887"><ele>284.0</ele><time>2026-05-02T07:26:14.999Z</time></trkpt><trkpt lat="43.36841884594236" lon="11.428218675426573"><ele>284.0</ele><time>2026-05-02T07:26:15.999Z</time></trkpt><trkpt lat="43.368305425056015" lon="11.428099428619532"><ele>284.0</ele><time>2026-05-02T07:26:16.999Z</time></trkpt><trkpt lat="43.3682079746926" lon="11.427955354087176"><ele>284.0</ele><time>2026-05-02T07:26:17.999Z</time></trkpt><trkpt lat="43.368126604018784" lon="11.427786903029187"><ele>284.0</ele><time>2026-05-02T07:26:18.999Z</time></trkpt><trkpt lat="43.3680681811119" lon="11.427596993721783"><ele>284.0</ele><time>2026-05-02T07:26:19.999Z</time></trkpt><trkpt lat="43.36801134565927" lon="11.427390185135692"><ele>284.0</ele><time>2026-05-02T07:26:20.999Z</time></trkpt><trkpt lat="43.36794797076679" lon="11.427186082443349"><ele>284.0</ele><time>2026-05-02T07:26:21.999Z</time></trkpt><trkpt lat="43.36788532892237" lon="11.426991926290986"><ele>284.0</ele><time>2026-05-02T07:26:22.999Z</time></trkpt><trkpt lat="43.36779377791281" lon="11.426837356129564"><ele>284.0</ele><time>2026-05-02T07:26:23.999Z</time></trkpt><trkpt lat="43.36765937919484" lon="11.426755337280342"><ele>284.0</ele><time>2026-05-02T07:26:24.999Z</time></trkpt><trkpt lat="43.367518659309184" lon="11.42666832432504"><ele>284.0</ele><time>2026-05-02T07:26:25.999Z</time></trkpt><trkpt lat="43.36735599665668" lon="11.426626735376862"><ele>285.6666666666667</ele><time>2026-05-02T07:26:26.999Z</time></trkpt><trkpt lat="43.36719151029039" lon="11.426577415354277"><ele>287.3333333333333</ele><time>2026-05-02T07:26:27.999Z</time></trkpt><trkpt lat="43.36702857091669" lon="11.42651529693593"><ele>289.0</ele><time>2026-05-02T07:26:28.999Z</time></trkpt><trkpt lat="43.366869714334555" lon="11.426441279120155"><ele>289.0</ele><time>2026-05-02T07:26:29.999Z</time></trkpt><trkpt lat="43.36671222273266" lon="11.426378004935312"><ele>289.0</ele><time>2026-05-02T07:26:30.999Z</time></trkpt><trkpt lat="43.366560473666595" lon="11.426329778473322"><ele>289.0</ele><time>2026-05-02T07:26:31.999Z</time></trkpt><trkpt lat="43.36640740054579" lon="11.426307380149249"><ele>288.5</ele><time>2026-05-02T07:26:32.999Z</time></trkpt><trkpt lat="43.36625265293625" lon="11.426337199628946"><ele>288.0</ele><time>2026-05-02T07:26:33.999Z</time></trkpt><trkpt lat="43.36610640685598" lon="11.426376112097968"><ele>287.5</ele><time>2026-05-02T07:26:34.999Z</time></trkpt><trkpt lat="43.36596472752408" lon="11.426397574804662"><ele>287.0</ele><time>2026-05-02T07:26:35.999Z</time></trkpt><trkpt lat="43.36584386562153" lon="11.426332381911378"><ele>287.75</ele><time>2026-05-02T07:26:36.999Z</time></trkpt><trkpt lat="43.36575665997025" lon="11.426214585914193"><ele>288.5</ele><time>2026-05-02T07:26:37.999Z</time></trkpt><trkpt lat="43.365659435813555" lon="11.426064915970297"><ele>289.25</ele><time>2026-05-02T07:26:38.999Z</time></trkpt><trkpt lat="43.36554899990407" lon="11.425906188892085"><ele>290.0</ele><time>2026-05-02T07:26:39.999Z</time></trkpt><trkpt lat="43.36544601270969" lon="11.425731804426801"><ele>287.33333333333337</ele><time>2026-05-02T07:26:40.999Z</time></trkpt><trkpt lat="43.3653339928576" lon="11.425553766712456"><ele>284.6666666666667</ele><time>2026-05-02T07:26:41.999Z</time></trkpt><trkpt lat="43.36522197378764" lon="11.425372952953138"><ele>282.0</ele><time>2026-05-02T07:26:42.999Z</time></trkpt><trkpt lat="43.36511473709156" lon="11.425178770330746"><ele>281.6666666666667</ele><time>2026-05-02T07:26:43.999Z</time></trkpt><trkpt lat="43.364990104809735" lon="11.425005409841537"><ele>281.33333333333337</ele><time>2026-05-02T07:26:44.999Z</time></trkpt><trkpt lat="43.36487858644697" lon="11.424810076493152"><ele>281.0</ele><time>2026-05-02T07:26:45.999Z</time></trkpt><trkpt lat="43.364787924347205" lon="11.424604315941552"><ele>280.33333333333337</ele><time>2026-05-02T07:26:46.999Z</time></trkpt><trkpt lat="43.36470650189256" lon="11.424405368685214"><ele>279.6666666666667</ele><time>2026-05-02T07:26:47.999Z</time></trkpt><trkpt lat="43.36464312237923" lon="11.424199991752635"><ele>279.0</ele><time>2026-05-02T07:26:48.999Z</time></trkpt><trkpt lat="43.36457904631229" lon="11.423979609621929"><ele>276.3333333333333</ele><time>2026-05-02T07:26:49.999Z</time></trkpt><trkpt lat="43.364545812582676" lon="11.423739925462641"><ele>273.66666666666663</ele><time>2026-05-02T07:26:50.999Z</time></trkpt><trkpt lat="43.36452548075078" lon="11.423493294306075"><ele>271.0</ele><time>2026-05-02T07:26:51.999Z</time></trkpt><trkpt lat="43.36451188451431" lon="11.423232615145082"><ele>268.66666666666663</ele><time>2026-05-02T07:26:52.999Z</time></trkpt><trkpt lat="43.36450058946967" lon="11.42297553151742"><ele>266.3333333333333</ele><time>2026-05-02T07:26:53.999Z</time></trkpt><trkpt lat="43.3644887378321" lon="11.42271228885551"><ele>264.0</ele><time>2026-05-02T07:26:54.999Z</time></trkpt><trkpt lat="43.364478324084565" lon="11.422457022997433"><ele>264.0</ele><time>2026-05-02T07:26:55.999Z</time></trkpt><trkpt lat="43.36446913884156" lon="11.422205004725635"><ele>264.0</ele><time>2026-05-02T07:26:56.999Z</time></trkpt><trkpt lat="43.36445834235877" lon="11.421969672172214"><ele>264.0</ele><time>2026-05-02T07:26:57.998Z</time></trkpt><trkpt lat="43.36444716080278" lon="11.421740836237975"><ele>261.6666666666667</ele><time>2026-05-02T07:26:58.998Z</time></trkpt><trkpt lat="43.36443068924765" lon="11.421525555260992"><ele>259.33333333333337</ele><time>2026-05-02T07:26:59.998Z</time></trkpt><trkpt lat="43.36439700210135" lon="11.421316687291755"><ele>257.0</ele><time>2026-05-02T07:27:01Z</time></trkpt><trkpt lat="43.36433926797848" lon="11.421108907560864"><ele>256.6666666666667</ele><time>2026-05-02T07:27:02Z</time></trkpt><trkpt lat="43.364269785287526" lon="11.420914248773807"><ele>256.3333333333333</ele><time>2026-05-02T07:27:03Z</time></trkpt><trkpt lat="43.36420234233285" lon="11.420724864053499"><ele>256.0</ele><time>2026-05-02T07:27:04Z</time></trkpt><trkpt lat="43.36414840140959" lon="11.420541179596308"><ele>255.5</ele><time>2026-05-02T07:27:05Z</time></trkpt><trkpt lat="43.364112085453655" lon="11.420364704328982"><ele>255.0</ele><time>2026-05-02T07:27:06Z</time></trkpt><trkpt lat="43.3640949872394" lon="11.420190216582858"><ele>254.5</ele><time>2026-05-02T07:27:07Z</time></trkpt><trkpt lat="43.364080278305224" lon="11.4199983893559"><ele>254.0</ele><time>2026-05-02T07:27:08Z</time></trkpt><trkpt lat="43.36406265727141" lon="11.419808947019087"><ele>253.0</ele><time>2026-05-02T07:27:09Z</time></trkpt><trkpt lat="43.36404688804206" lon="11.419626588520025"><ele>252.0</ele><time>2026-05-02T07:27:10Z</time></trkpt><trkpt lat="43.36403288711056" lon="11.419452111187486"><ele>251.0</ele><time>2026-05-02T07:27:11Z</time></trkpt><trkpt lat="43.36402317731934" lon="11.419283275324696"><ele>250.0</ele><time>2026-05-02T07:27:12Z</time></trkpt><trkpt lat="43.36402435594988" lon="11.419119993103628"><ele>249.99999999999997</ele><time>2026-05-02T07:27:13Z</time></trkpt><trkpt lat="43.364023667502835" lon="11.41896502106118"><ele>250.0</ele><time>2026-05-02T07:27:14Z</time></trkpt><trkpt lat="43.36402107872879" lon="11.418831210239874"><ele>250.0</ele><time>2026-05-02T07:27:15Z</time></trkpt><trkpt lat="43.364013714622196" lon="11.418721328847765"><ele>250.0</ele><time>2026-05-02T07:27:16Z</time></trkpt><trkpt lat="43.36404788614352" lon="11.418644727412651"><ele>249.99999999999997</ele><time>2026-05-02T07:27:17Z</time></trkpt><trkpt lat="43.36407055866994" lon="11.418545103645224"><ele>250.0</ele><time>2026-05-02T07:27:19Z</time></trkpt><trkpt lat="43.36405353564453" lon="11.418429237695564"><ele>248.5</ele><time>2026-05-02T07:27:26.999Z</time></trkpt><trkpt lat="43.36389768543383" lon="11.418428056162384"><ele>247.0</ele><time>2026-05-02T07:27:27.999Z</time></trkpt><trkpt lat="43.363788861898605" lon="11.41844581600533"><ele>245.5</ele><time>2026-05-02T07:27:28.999Z</time></trkpt><trkpt lat="43.36366751062264" lon="11.418458335369388"><ele>244.0</ele><time>2026-05-02T07:27:29.999Z</time></trkpt><trkpt lat="43.36353069756376" lon="11.41845723696922"><ele>242.66666666666666</ele><time>2026-05-02T07:27:30.999Z</time></trkpt><trkpt lat="43.36337836619518" lon="11.418453400218379"><ele>241.33333333333331</ele><time>2026-05-02T07:27:31.999Z</time></trkpt><trkpt lat="43.363221589215335" lon="11.418453323234148"><ele>240.0</ele><time>2026-05-02T07:27:32.999Z</time></trkpt><trkpt lat="43.363060452629334" lon="11.418444582554617"><ele>239.0</ele><time>2026-05-02T07:27:33.999Z</time></trkpt><trkpt lat="43.36289497437454" lon="11.41840912525722"><ele>238.0</ele><time>2026-05-02T07:27:34.999Z</time></trkpt><trkpt lat="43.36273589927612" lon="11.418346094533073"><ele>237.0</ele><time>2026-05-02T07:27:35.999Z</time></trkpt><trkpt lat="43.36258272783031" lon="11.418282217544418"><ele>237.0</ele><time>2026-05-02T07:27:36.999Z</time></trkpt><trkpt lat="43.3624478435325" lon="11.418236069851769"><ele>237.0</ele><time>2026-05-02T07:27:37.999Z</time></trkpt><trkpt lat="43.36232085805967" lon="11.418218050295144"><ele>237.0</ele><time>2026-05-02T07:27:38.999Z</time></trkpt><trkpt lat="43.36219818914022" lon="11.418250435060191"><ele>237.0</ele><time>2026-05-02T07:27:39.999Z</time></trkpt><trkpt lat="43.36208850963171" lon="11.418337795210764"><ele>237.25</ele><time>2026-05-02T07:27:40.999Z</time></trkpt><trkpt lat="43.361989440059816" lon="11.418471804177706"><ele>237.5</ele><time>2026-05-02T07:27:41.999Z</time></trkpt><trkpt lat="43.361894248467095" lon="11.41862476402404"><ele>237.75</ele><time>2026-05-02T07:27:42.999Z</time></trkpt><trkpt lat="43.3618021476921" lon="11.418794429629154"><ele>238.0</ele><time>2026-05-02T07:27:43.999Z</time></trkpt><trkpt lat="43.36170220190692" lon="11.41896321193761"><ele>238.0</ele><time>2026-05-02T07:27:44.999Z</time></trkpt><trkpt lat="43.36158523496117" lon="11.419102770469735"><ele>238.0</ele><time>2026-05-02T07:27:45.999Z</time></trkpt><trkpt lat="43.361432211537014" lon="11.419150662587295"><ele>238.0</ele><time>2026-05-02T07:27:46.999Z</time></trkpt><trkpt lat="43.36127515058746" lon="11.419228338171973"><ele>236.0</ele><time>2026-05-02T07:27:47.999Z</time></trkpt><trkpt lat="43.361096305744134" lon="11.419272813994954"><ele>234.0</ele><time>2026-05-02T07:27:48.999Z</time></trkpt><trkpt lat="43.36091137300716" lon="11.41933846541114"><ele>232.0</ele><time>2026-05-02T07:27:49.999Z</time></trkpt><trkpt lat="43.36072170183315" lon="11.419412646658072"><ele>231.33333333333331</ele><time>2026-05-02T07:27:50.999Z</time></trkpt><trkpt lat="43.36052951873864" lon="11.419483504646944"><ele>230.66666666666669</ele><time>2026-05-02T07:27:51.999Z</time></trkpt><trkpt lat="43.36033992861857" lon="11.419551635834617"><ele>230.0</ele><time>2026-05-02T07:27:52.999Z</time></trkpt><trkpt lat="43.36014974202528" lon="11.419621103191167"><ele>230.66666666666669</ele><time>2026-05-02T07:27:53.999Z</time></trkpt><trkpt lat="43.359961504768" lon="11.419690920561417"><ele>231.33333333333331</ele><time>2026-05-02T07:27:54.999Z</time></trkpt><trkpt lat="43.35977345503158" lon="11.419760462593503"><ele>232.0</ele><time>2026-05-02T07:27:55.999Z</time></trkpt><trkpt lat="43.3595898109502" lon="11.41982730187127"><ele>230.66666666666666</ele><time>2026-05-02T07:27:56.999Z</time></trkpt><trkpt lat="43.359420645348266" lon="11.419893166211505"><ele>229.33333333333331</ele><time>2026-05-02T07:27:57.999Z</time></trkpt><trkpt lat="43.35926957376083" lon="11.419950534718096"><ele>228.0</ele><time>2026-05-02T07:27:58.999Z</time></trkpt><trkpt lat="43.35913810720342" lon="11.419961137081385"><ele>228.0</ele><time>2026-05-02T07:27:59.999Z</time></trkpt><trkpt lat="43.35901989819888" lon="11.419914912926513"><ele>228.0</ele><time>2026-05-02T07:28:00.999Z</time></trkpt><trkpt lat="43.35891330666597" lon="11.419813799098696"><ele>228.0</ele><time>2026-05-02T07:28:01.999Z</time></trkpt><trkpt lat="43.35883217324147" lon="11.419647640405508"><ele>228.0</ele><time>2026-05-02T07:28:02.999Z</time></trkpt><trkpt lat="43.35872673590356" lon="11.419492754406544"><ele>226.0</ele><time>2026-05-02T07:28:03.999Z</time></trkpt><trkpt lat="43.358623704180076" lon="11.41932305905247"><ele>224.0</ele><time>2026-05-02T07:28:04.999Z</time></trkpt><trkpt lat="43.35850939491231" lon="11.419151954728333"><ele>222.0</ele><time>2026-05-02T07:28:05.999Z</time></trkpt><trkpt lat="43.35839350837576" lon="11.41897399140443"><ele>221.66666666666669</ele><time>2026-05-02T07:28:07Z</time></trkpt><trkpt lat="43.35827787528902" lon="11.418797304217106"><ele>221.33333333333334</ele><time>2026-05-02T07:28:08Z</time></trkpt><trkpt lat="43.35816280617627" lon="11.418619087457373"><ele>221.0</ele><time>2026-05-02T07:28:09Z</time></trkpt><trkpt lat="43.358048432219036" lon="11.418444169852636"><ele>220.66666666666669</ele><time>2026-05-02T07:28:10Z</time></trkpt><trkpt lat="43.3579354412791" lon="11.418274451242423"><ele>220.33333333333331</ele><time>2026-05-02T07:28:11Z</time></trkpt><trkpt lat="43.357824261029755" lon="11.418111565577798"><ele>220.0</ele><time>2026-05-02T07:28:12Z</time></trkpt><trkpt lat="43.35771277851275" lon="11.417946560832162"><ele>220.0</ele><time>2026-05-02T07:28:13Z</time></trkpt><trkpt lat="43.357606946341136" lon="11.417785429767388"><ele>220.0</ele><time>2026-05-02T07:28:14Z</time></trkpt><trkpt lat="43.357502769034156" lon="11.41762423634946"><ele>220.0</ele><time>2026-05-02T07:28:15Z</time></trkpt><trkpt lat="43.357400844840704" lon="11.417464367906359"><ele>220.0</ele><time>2026-05-02T07:28:16Z</time></trkpt><trkpt lat="43.35729809868853" lon="11.417305166483931"><ele>220.0</ele><time>2026-05-02T07:28:17Z</time></trkpt><trkpt lat="43.357193063662244" lon="11.417144380952072"><ele>220.0</ele><time>2026-05-02T07:28:18Z</time></trkpt><trkpt lat="43.357088614949255" lon="11.416982575623747"><ele>219.66666666666666</ele><time>2026-05-02T07:28:19Z</time></trkpt><trkpt lat="43.356986006427334" lon="11.41682137464479"><ele>219.33333333333331</ele><time>2026-05-02T07:28:20Z</time></trkpt><trkpt lat="43.356885680717326" lon="11.416663176611257"><ele>219.0</ele><time>2026-05-02T07:28:21Z</time></trkpt><trkpt lat="43.35679079216534" lon="11.4165073053543"><ele>219.0</ele><time>2026-05-02T07:28:22Z</time></trkpt><trkpt lat="43.35669384903497" lon="11.416350032929786"><ele>219.0</ele><time>2026-05-02T07:28:23Z</time></trkpt><trkpt lat="43.35660232488262" lon="11.416197482039383"><ele>219.0</ele><time>2026-05-02T07:28:24Z</time></trkpt><trkpt lat="43.35651500597563" lon="11.416054327289263"><ele>219.0</ele><time>2026-05-02T07:28:25Z</time></trkpt><trkpt lat="43.35643119342217" lon="11.415931609235754"><ele>219.75</ele><time>2026-05-02T07:28:26Z</time></trkpt><trkpt lat="43.35633552986198" lon="11.415843170996883"><ele>220.5</ele><time>2026-05-02T07:28:27Z</time></trkpt><trkpt lat="43.35621954032563" lon="11.415809762085926"><ele>221.25</ele><time>2026-05-02T07:28:28Z</time></trkpt><trkpt lat="43.35608612395576" lon="11.41583365261877"><ele>222.0</ele><time>2026-05-02T07:28:29Z</time></trkpt><trkpt lat="43.35594395911108" lon="11.415899909667784"><ele>222.0</ele><time>2026-05-02T07:28:30Z</time></trkpt><trkpt lat="43.355807030772574" lon="11.415992731551206"><ele>222.0</ele><time>2026-05-02T07:28:31Z</time></trkpt><trkpt lat="43.3556758037296" lon="11.416102273454149"><ele>222.0</ele><time>2026-05-02T07:28:32Z</time></trkpt><trkpt lat="43.355544313301685" lon="11.416199221299182"><ele>223.25</ele><time>2026-05-02T07:28:33Z</time></trkpt><trkpt lat="43.35540541326773" lon="11.416263863308792"><ele>224.5</ele><time>2026-05-02T07:28:34Z</time></trkpt><trkpt lat="43.355262868583324" lon="11.41623288092493"><ele>225.75</ele><time>2026-05-02T07:28:35Z</time></trkpt><trkpt lat="43.355107503105714" lon="11.416233882026171"><ele>227.0</ele><time>2026-05-02T07:28:36Z</time></trkpt><trkpt lat="43.35494833150801" lon="11.416199566966569"><ele>227.0</ele><time>2026-05-02T07:28:37Z</time></trkpt><trkpt lat="43.35478424883867" lon="11.416177658579402"><ele>227.0</ele><time>2026-05-02T07:28:38Z</time></trkpt><trkpt lat="43.35461681435111" lon="11.416157518939368"><ele>227.0</ele><time>2026-05-02T07:28:39Z</time></trkpt><trkpt lat="43.3544484645326" lon="11.416139487507726"><ele>226.33333333333334</ele><time>2026-05-02T07:28:40Z</time></trkpt><trkpt lat="43.354283909472166" lon="11.41612077235344"><ele>225.66666666666669</ele><time>2026-05-02T07:28:41Z</time></trkpt><trkpt lat="43.35412117890763" lon="11.41610232140314"><ele>225.0</ele><time>2026-05-02T07:28:42Z</time></trkpt><trkpt lat="43.35395882481823" lon="11.41608509213245"><ele>224.33333333333331</ele><time>2026-05-02T07:28:43Z</time></trkpt><trkpt lat="43.353796701678945" lon="11.416068034911788"><ele>223.66666666666666</ele><time>2026-05-02T07:28:44Z</time></trkpt><trkpt lat="43.353634649271804" lon="11.416037423621383"><ele>223.0</ele><time>2026-05-02T07:28:45Z</time></trkpt><trkpt lat="43.35347511163975" lon="11.415992375297751"><ele>223.0</ele><time>2026-05-02T07:28:46Z</time></trkpt><trkpt lat="43.353320443537086" lon="11.415942715415648"><ele>223.0</ele><time>2026-05-02T07:28:47Z</time></trkpt><trkpt lat="43.353169794862026" lon="11.415892388343408"><ele>223.0</ele><time>2026-05-02T07:28:48Z</time></trkpt><trkpt lat="43.35301698763058" lon="11.415846045845836"><ele>223.0</ele><time>2026-05-02T07:28:49Z</time></trkpt><trkpt lat="43.35286787700005" lon="11.415801449262059"><ele>223.0</ele><time>2026-05-02T07:28:50Z</time></trkpt><trkpt lat="43.35272743698844" lon="11.415758876097133"><ele>223.0</ele><time>2026-05-02T07:28:51Z</time></trkpt><trkpt lat="43.35259784470501" lon="11.4157204386028"><ele>223.0</ele><time>2026-05-02T07:28:52Z</time></trkpt><trkpt lat="43.35247756500981" lon="11.415684802783751"><ele>222.99999999999997</ele><time>2026-05-02T07:28:53Z</time></trkpt><trkpt lat="43.352362072353785" lon="11.415654747989219"><ele>223.0</ele><time>2026-05-02T07:28:54Z</time></trkpt><trkpt lat="43.35225665197234" lon="11.415627958344071"><ele>223.0</ele><time>2026-05-02T07:28:55Z</time></trkpt><trkpt lat="43.352181974064955" lon="11.415609569145161"><ele>223.0</ele><time>2026-05-02T07:28:56Z</time></trkpt><trkpt lat="43.35210763344212" lon="11.415589863591128"><ele>222.99999999999997</ele><time>2026-05-02T07:28:56.999Z</time></trkpt><trkpt lat="43.35203821904089" lon="11.415571952603562"><ele>223.0</ele><time>2026-05-02T07:28:57.999Z</time></trkpt><trkpt lat="43.351966242536726" lon="11.415552894103394"><ele>222.66666666666666</ele><time>2026-05-02T07:28:59.999Z</time></trkpt><trkpt lat="43.35186370635484" lon="11.41552080437514"><ele>222.33333333333331</ele><time>2026-05-02T07:29:02.999Z</time></trkpt><trkpt lat="43.35178430637318" lon="11.41549728373838"><ele>222.0</ele><time>2026-05-02T07:29:04.999Z</time></trkpt><trkpt lat="43.35169057351971" lon="11.41547659590633"><ele>221.66666666666669</ele><time>2026-05-02T07:29:07.001Z</time></trkpt><trkpt lat="43.351591883253576" lon="11.415460844138039"><ele>221.33333333333334</ele><time>2026-05-02T07:29:09.001Z</time></trkpt><trkpt lat="43.3515354420516" lon="11.41541882167751"><ele>221.0</ele><time>2026-05-02T07:29:10.001Z</time></trkpt><trkpt lat="43.35147112778837" lon="11.415399146200997"><ele>221.0</ele><time>2026-05-02T07:29:11.001Z</time></trkpt><trkpt lat="43.35140114000985" lon="11.415400499850684"><ele>221.0</ele><time>2026-05-02T07:29:12.001Z</time></trkpt><trkpt lat="43.35131299178841" lon="11.415354534514085"><ele>221.0</ele><time>2026-05-02T07:29:13.001Z</time></trkpt><trkpt lat="43.351194080503205" lon="11.415319480202154"><ele>221.0</ele><time>2026-05-02T07:29:14.001Z</time></trkpt><trkpt lat="43.35102408928573" lon="11.415271636017902"><ele>220.66666666666669</ele><time>2026-05-02T07:29:15.001Z</time></trkpt><trkpt lat="43.35083425357257" lon="11.415232608268305"><ele>220.33333333333331</ele><time>2026-05-02T07:29:16.001Z</time></trkpt><trkpt lat="43.35064280336637" lon="11.415168619231244"><ele>220.0</ele><time>2026-05-02T07:29:17.001Z</time></trkpt><trkpt lat="43.35046130751581" lon="11.415121884551478"><ele>222.0</ele><time>2026-05-02T07:29:18.001Z</time></trkpt><trkpt lat="43.35030085390494" lon="11.41507057766216"><ele>224.0</ele><time>2026-05-02T07:29:19.001Z</time></trkpt><trkpt lat="43.3501614257398" lon="11.414988410558545"><ele>226.0</ele><time>2026-05-02T07:29:20.001Z</time></trkpt><trkpt lat="43.35003615357544" lon="11.414852405745018"><ele>226.0</ele><time>2026-05-02T07:29:21Z</time></trkpt><trkpt lat="43.34992606884777" lon="11.414668996894422"><ele>226.0</ele><time>2026-05-02T07:29:22Z</time></trkpt><trkpt lat="43.34981423279559" lon="11.414452377758879"><ele>226.0</ele><time>2026-05-02T07:29:23Z</time></trkpt><trkpt lat="43.34969063588831" lon="11.414224108679345"><ele>226.5</ele><time>2026-05-02T07:29:24Z</time></trkpt><trkpt lat="43.349563469284874" lon="11.413960498705517"><ele>227.0</ele><time>2026-05-02T07:29:25Z</time></trkpt><trkpt lat="43.349456331172455" lon="11.413651938779068"><ele>227.0</ele><time>2026-05-02T07:29:26Z</time></trkpt><trkpt lat="43.3493497883583" lon="11.413323866695906"><ele>227.0</ele><time>2026-05-02T07:29:27Z</time></trkpt><trkpt lat="43.349260430925206" lon="11.413178756338148"><ele>227.0</ele><time>2026-05-02T07:29:28Z</time></trkpt><trkpt lat="43.34911723190932" lon="11.412951021053688"><ele>226.33333333333334</ele><time>2026-05-02T07:29:29Z</time></trkpt><trkpt lat="43.34896709832124" lon="11.412752155891969"><ele>225.66666666666669</ele><time>2026-05-02T07:29:30Z</time></trkpt><trkpt lat="43.348822580993485" lon="11.412546781061852"><ele>225.0</ele><time>2026-05-02T07:29:31Z</time></trkpt><trkpt lat="43.34872771698095" lon="11.412310693017243"><ele>227.33333333333331</ele><time>2026-05-02T07:29:32Z</time></trkpt><trkpt lat="43.34864601107193" lon="11.412070150300423"><ele>229.66666666666666</ele><time>2026-05-02T07:29:33Z</time></trkpt><trkpt lat="43.348577966180684" lon="11.411822269989099"><ele>232.0</ele><time>2026-05-02T07:29:34Z</time></trkpt><trkpt lat="43.3485472852486" lon="11.411565076579265"><ele>234.0</ele><time>2026-05-02T07:29:35Z</time></trkpt><trkpt lat="43.348530106539194" lon="11.41127766668615"><ele>236.0</ele><time>2026-05-02T07:29:36Z</time></trkpt><trkpt lat="43.348508995077324" lon="11.410987105220087"><ele>238.0</ele><time>2026-05-02T07:29:37Z</time></trkpt><trkpt lat="43.348464317876385" lon="11.410681548122271"><ele>239.0</ele><time>2026-05-02T07:29:38Z</time></trkpt><trkpt lat="43.34840840000229" lon="11.410367730924891"><ele>240.0</ele><time>2026-05-02T07:29:39Z</time></trkpt><trkpt lat="43.348330993615676" lon="11.410055828953627"><ele>240.0</ele><time>2026-05-02T07:29:40Z</time></trkpt><trkpt lat="43.34824691962382" lon="11.409749698661333"><ele>240.0</ele><time>2026-05-02T07:29:41Z</time></trkpt><trkpt lat="43.34816597501332" lon="11.409448174554642"><ele>240.0</ele><time>2026-05-02T07:29:42Z</time></trkpt><trkpt lat="43.34809044485352" lon="11.409155008384626"><ele>240.0</ele><time>2026-05-02T07:29:43Z</time></trkpt><trkpt lat="43.348055078154495" lon="11.408863662764618"><ele>240.0</ele><time>2026-05-02T07:29:44Z</time></trkpt><trkpt lat="43.34803930886808" lon="11.408563293506708"><ele>252.0</ele><time>2026-05-02T07:29:45Z</time></trkpt><trkpt lat="43.34803078686619" lon="11.408261534642683"><ele>264.0</ele><time>2026-05-02T07:29:46Z</time></trkpt><trkpt lat="43.34801372529127" lon="11.407944928924408"><ele>267.0</ele><time>2026-05-02T07:29:47Z</time></trkpt><trkpt lat="43.348038653615376" lon="11.407631229220575"><ele>270.0</ele><time>2026-05-02T07:29:48Z</time></trkpt><trkpt lat="43.34805289317547" lon="11.407311821312238"><ele>263.0</ele><time>2026-05-02T07:29:49Z</time></trkpt><trkpt lat="43.34805642273695" lon="11.4070012080071"><ele>256.0</ele><time>2026-05-02T07:29:50Z</time></trkpt><trkpt lat="43.348078657330376" lon="11.40670520042976"><ele>249.0</ele><time>2026-05-02T07:29:51Z</time></trkpt><trkpt lat="43.34813591475732" lon="11.406429270766036"><ele>251.33333333333331</ele><time>2026-05-02T07:29:52Z</time></trkpt><trkpt lat="43.348206070105306" lon="11.406168401115352"><ele>253.66666666666666</ele><time>2026-05-02T07:29:53Z</time></trkpt><trkpt lat="43.34829055519856" lon="11.405898726333746"><ele>256.0</ele><time>2026-05-02T07:29:54Z</time></trkpt><trkpt lat="43.3483521175241" lon="11.40563523952621"><ele>259.66666666666663</ele><time>2026-05-02T07:29:55Z</time></trkpt><trkpt lat="43.3484156178878" lon="11.405374181777802"><ele>263.3333333333333</ele><time>2026-05-02T07:29:56Z</time></trkpt><trkpt lat="43.348459729646294" lon="11.4050978559603"><ele>267.0</ele><time>2026-05-02T07:29:57Z</time></trkpt><trkpt lat="43.34847910395466" lon="11.404810011293494"><ele>267.6666666666667</ele><time>2026-05-02T07:29:58Z</time></trkpt><trkpt lat="43.34853247500034" lon="11.404542904100113"><ele>268.33333333333337</ele><time>2026-05-02T07:29:59Z</time></trkpt><trkpt lat="43.348614830996276" lon="11.404318624975733"><ele>269.0</ele><time>2026-05-02T07:30:00Z</time></trkpt><trkpt lat="43.34872141507124" lon="11.404130889247172"><ele>269.0</ele><time>2026-05-02T07:30:01Z</time></trkpt><trkpt lat="43.34885575734998" lon="11.403938767131736"><ele>269.0</ele><time>2026-05-02T07:30:02Z</time></trkpt><trkpt lat="43.348980066953104" lon="11.403734628009724"><ele>269.0</ele><time>2026-05-02T07:30:03Z</time></trkpt><trkpt lat="43.349091507052634" lon="11.403550896906397"><ele>270.0</ele><time>2026-05-02T07:30:04Z</time></trkpt><trkpt lat="43.3492095156042" lon="11.403397660873308"><ele>271.0</ele><time>2026-05-02T07:30:05Z</time></trkpt><trkpt lat="43.34918368849014" lon="11.40309054357959"><ele>272.0</ele><time>2026-05-02T07:30:06Z</time></trkpt><trkpt lat="43.3491866726896" lon="11.402820612940308"><ele>274.33333333333337</ele><time>2026-05-02T07:30:07Z</time></trkpt><trkpt lat="43.349189815084145" lon="11.402543908687313"><ele>276.6666666666667</ele><time>2026-05-02T07:30:08Z</time></trkpt><trkpt lat="43.349197813698964" lon="11.40228518050416"><ele>279.0</ele><time>2026-05-02T07:30:09Z</time></trkpt><trkpt lat="43.349217753996015" lon="11.40206338286544"><ele>281.0</ele><time>2026-05-02T07:30:10Z</time></trkpt><trkpt lat="43.34925211529347" lon="11.40186858490871"><ele>283.0</ele><time>2026-05-02T07:30:11Z</time></trkpt><trkpt lat="43.349302213103485" lon="11.40170291537811"><ele>285.0</ele><time>2026-05-02T07:30:12Z</time></trkpt><trkpt lat="43.34937580695619" lon="11.401572930556416"><ele>287.0</ele><time>2026-05-02T07:30:13Z</time></trkpt><trkpt lat="43.34948266924223" lon="11.401479923065978"><ele>287.0</ele><time>2026-05-02T07:30:14Z</time></trkpt><trkpt lat="43.34961570383413" lon="11.40144161797706"><ele>287.0</ele><time>2026-05-02T07:30:15Z</time></trkpt><trkpt lat="43.34975739713836" lon="11.401491839621194"><ele>287.0</ele><time>2026-05-02T07:30:16Z</time></trkpt><trkpt lat="43.349889876447854" lon="11.401587212400823"><ele>287.0</ele><time>2026-05-02T07:30:17Z</time></trkpt><trkpt lat="43.3500120720145" lon="11.401657652165673"><ele>285.75</ele><time>2026-05-02T07:30:18Z</time></trkpt><trkpt lat="43.35012814544871" lon="11.401661032940497"><ele>284.5</ele><time>2026-05-02T07:30:19Z</time></trkpt><trkpt lat="43.35023311375203" lon="11.401578968029296"><ele>283.25</ele><time>2026-05-02T07:30:20Z</time></trkpt><trkpt lat="43.35028697849177" lon="11.401412256778533"><ele>282.0</ele><time>2026-05-02T07:30:21Z</time></trkpt><trkpt lat="43.350274325540084" lon="11.401218573008599"><ele>285.3333333333333</ele><time>2026-05-02T07:30:22Z</time></trkpt><trkpt lat="43.35019054506614" lon="11.40104942741146"><ele>288.66666666666663</ele><time>2026-05-02T07:30:23Z</time></trkpt><trkpt lat="43.35005827158899" lon="11.400904506427938"><ele>292.0</ele><time>2026-05-02T07:30:24Z</time></trkpt><trkpt lat="43.349907975803404" lon="11.40073936641418"><ele>292.0</ele><time>2026-05-02T07:30:25Z</time></trkpt><trkpt lat="43.349751109809915" lon="11.400592661957504"><ele>292.0</ele><time>2026-05-02T07:30:26Z</time></trkpt><trkpt lat="43.34957910334119" lon="11.40053782161472"><ele>292.0</ele><time>2026-05-02T07:30:27Z</time></trkpt><trkpt lat="43.34939011854348" lon="11.400642514111075"><ele>292.66666666666663</ele><time>2026-05-02T07:30:28Z</time></trkpt><trkpt lat="43.34919722672531" lon="11.400774750586859"><ele>293.3333333333333</ele><time>2026-05-02T07:30:29Z</time></trkpt><trkpt lat="43.34899904586604" lon="11.400904002243182"><ele>294.0</ele><time>2026-05-02T07:30:30Z</time></trkpt><trkpt lat="43.34882554825194" lon="11.401015654609106"><ele>295.5</ele><time>2026-05-02T07:30:31Z</time></trkpt><trkpt lat="43.34868828587914" lon="11.40107946652449"><ele>297.0</ele><time>2026-05-02T07:30:32Z</time></trkpt><trkpt lat="43.348574844074086" lon="11.401069914601813"><ele>298.5</ele><time>2026-05-02T07:30:33Z</time></trkpt><trkpt lat="43.34847323404041" lon="11.400986562548463"><ele>300.0</ele><time>2026-05-02T07:30:34Z</time></trkpt><trkpt lat="43.34837329412767" lon="11.400831838907935"><ele>300.0</ele><time>2026-05-02T07:30:35Z</time></trkpt><trkpt lat="43.34826225106973" lon="11.400661852162534"><ele>300.0</ele><time>2026-05-02T07:30:36Z</time></trkpt><trkpt lat="43.34813704108043" lon="11.400516074876494"><ele>300.0</ele><time>2026-05-02T07:30:37Z</time></trkpt><trkpt lat="43.34799704245701" lon="11.400397618362078"><ele>301.75</ele><time>2026-05-02T07:30:38Z</time></trkpt><trkpt lat="43.34784800201298" lon="11.400306880298247"><ele>303.5</ele><time>2026-05-02T07:30:39Z</time></trkpt><trkpt lat="43.34770157990837" lon="11.400230219489861"><ele>305.25</ele><time>2026-05-02T07:30:40Z</time></trkpt><trkpt lat="43.34758160297258" lon="11.400164600196417"><ele>307.0</ele><time>2026-05-02T07:30:41Z</time></trkpt><trkpt lat="43.34749196448366" lon="11.400074823779338"><ele>307.0</ele><time>2026-05-02T07:30:42Z</time></trkpt><trkpt lat="43.34743143559713" lon="11.399957272738037"><ele>307.0</ele><time>2026-05-02T07:30:43Z</time></trkpt><trkpt lat="43.34740064078523" lon="11.399829383056996"><ele>307.0</ele><time>2026-05-02T07:30:44Z</time></trkpt><trkpt lat="43.34739925011611" lon="11.399702329466978"><ele>307.0</ele><time>2026-05-02T07:30:45Z</time></trkpt><trkpt lat="43.347430789450414" lon="11.399572697395156"><ele>307.0</ele><time>2026-05-02T07:30:46Z</time></trkpt><trkpt lat="43.34749462117192" lon="11.39945969738238"><ele>307.2</ele><time>2026-05-02T07:30:47Z</time></trkpt><trkpt lat="43.34757481764573" lon="11.399359235705305"><ele>307.4</ele><time>2026-05-02T07:30:48Z</time></trkpt><trkpt lat="43.34766154594345" lon="11.399273997733758"><ele>307.6</ele><time>2026-05-02T07:30:49Z</time></trkpt><trkpt lat="43.34776005242665" lon="11.399208692116245"><ele>307.8</ele><time>2026-05-02T07:30:50Z</time></trkpt><trkpt lat="43.34786503992394" lon="11.399148291009164"><ele>308.0</ele><time>2026-05-02T07:30:51Z</time></trkpt><trkpt lat="43.3479684591224" lon="11.399092661669272"><ele>308.4</ele><time>2026-05-02T07:30:52Z</time></trkpt><trkpt lat="43.34807315511354" lon="11.399056952238725"><ele>308.8</ele><time>2026-05-02T07:30:53Z</time></trkpt><trkpt lat="43.348177739345374" lon="11.399034493524335"><ele>309.2</ele><time>2026-05-02T07:30:53.999Z</time></trkpt><trkpt lat="43.34827730384014" lon="11.399012715795333"><ele>309.6</ele><time>2026-05-02T07:30:54.999Z</time></trkpt><trkpt lat="43.34835863639983" lon="11.398999903630818"><ele>310.0</ele><time>2026-05-02T07:30:55.999Z</time></trkpt><trkpt lat="43.34843833812257" lon="11.398950868052543"><ele>309.16666666666663</ele><time>2026-05-02T07:30:57.999Z</time></trkpt><trkpt lat="43.348399492264654" lon="11.398817358691124"><ele>308.3333333333333</ele><time>2026-05-02T07:30:59.999Z</time></trkpt><trkpt lat="43.34835764785165" lon="11.398728807380676"><ele>307.5</ele><time>2026-05-02T07:31:00.999Z</time></trkpt><trkpt lat="43.34830837522343" lon="11.398633450482052"><ele>306.6666666666667</ele><time>2026-05-02T07:31:01.999Z</time></trkpt><trkpt lat="43.348253214411045" lon="11.398542082221505"><ele>305.83333333333337</ele><time>2026-05-02T07:31:02.999Z</time></trkpt><trkpt lat="43.34818622548855" lon="11.398477164229702"><ele>305.0</ele><time>2026-05-02T07:31:03.999Z</time></trkpt><trkpt lat="43.34811292579536" lon="11.3984577656679"><ele>303.8</ele><time>2026-05-02T07:31:04.999Z</time></trkpt><trkpt lat="43.348036421307086" lon="11.398476768698975"><ele>302.6</ele><time>2026-05-02T07:31:05.999Z</time></trkpt><trkpt lat="43.347951945761" lon="11.398527399764744"><ele>301.4</ele><time>2026-05-02T07:31:06.999Z</time></trkpt><trkpt lat="43.34785327103437" lon="11.398589312606866"><ele>300.2</ele><time>2026-05-02T07:31:07.999Z</time></trkpt><trkpt lat="43.34773866919291" lon="11.398643611701319"><ele>299.0</ele><time>2026-05-02T07:31:08.999Z</time></trkpt><trkpt lat="43.34760881274696" lon="11.398643218007402"><ele>299.0</ele><time>2026-05-02T07:31:09.999Z</time></trkpt><trkpt lat="43.34746958245107" lon="11.398665379972734"><ele>299.0</ele><time>2026-05-02T07:31:11Z</time></trkpt><trkpt lat="43.34732375121789" lon="11.398688869480543"><ele>299.0</ele><time>2026-05-02T07:31:12Z</time></trkpt><trkpt lat="43.34717826211855" lon="11.398713363884077"><ele>299.0</ele><time>2026-05-02T07:31:13Z</time></trkpt><trkpt lat="43.3470450965876" lon="11.398756056013848"><ele>299.75</ele><time>2026-05-02T07:31:14Z</time></trkpt><trkpt lat="43.3469296569337" lon="11.398793604291173"><ele>300.5</ele><time>2026-05-02T07:31:15Z</time></trkpt><trkpt lat="43.346827571172504" lon="11.39886272974886"><ele>301.25</ele><time>2026-05-02T07:31:16Z</time></trkpt><trkpt lat="43.34673131456045" lon="11.398970280782127"><ele>302.0</ele><time>2026-05-02T07:31:17Z</time></trkpt><trkpt lat="43.34664105720032" lon="11.39910907124935"><ele>302.0</ele><time>2026-05-02T07:31:18Z</time></trkpt><trkpt lat="43.34654749464055" lon="11.39926014884895"><ele>302.0</ele><time>2026-05-02T07:31:19Z</time></trkpt><trkpt lat="43.346437911927296" lon="11.399406214774322"><ele>302.0</ele><time>2026-05-02T07:31:20Z</time></trkpt><trkpt lat="43.34633891715051" lon="11.399564046303734"><ele>302.0</ele><time>2026-05-02T07:31:21Z</time></trkpt><trkpt lat="43.346236421325294" lon="11.399726162468081"><ele>301.0</ele><time>2026-05-02T07:31:22Z</time></trkpt><trkpt lat="43.3461320051484" lon="11.399888741211115"><ele>300.0</ele><time>2026-05-02T07:31:23Z</time></trkpt><trkpt lat="43.34602743219443" lon="11.400050857632545"><ele>299.0</ele><time>2026-05-02T07:31:24Z</time></trkpt><trkpt lat="43.3459248845644" lon="11.400209834201089"><ele>299.0</ele><time>2026-05-02T07:31:25Z</time></trkpt><trkpt lat="43.345828749709376" lon="11.400358869285142"><ele>299.0</ele><time>2026-05-02T07:31:26Z</time></trkpt><trkpt lat="43.34573540097838" lon="11.400500652801139"><ele>299.0</ele><time>2026-05-02T07:31:27Z</time></trkpt><trkpt lat="43.34564746939685" lon="11.400633433034933"><ele>299.0</ele><time>2026-05-02T07:31:28Z</time></trkpt><trkpt lat="43.34558028278325" lon="11.400769760144923"><ele>299.0</ele><time>2026-05-02T07:31:29Z</time></trkpt><trkpt lat="43.34550819809971" lon="11.400877957486129"><ele>299.0</ele><time>2026-05-02T07:31:30Z</time></trkpt><trkpt lat="43.34543161778082" lon="11.400978089145992"><ele>299.0</ele><time>2026-05-02T07:31:31Z</time></trkpt><trkpt lat="43.345343731825054" lon="11.401041822737987"><ele>299.0</ele><time>2026-05-02T07:31:32Z</time></trkpt><trkpt lat="43.345265550883646" lon="11.401128556194434"><ele>299.0</ele><time>2026-05-02T07:31:33Z</time></trkpt><trkpt lat="43.34515355004354" lon="11.401175719102813"><ele>299.0</ele><time>2026-05-02T07:31:34Z</time></trkpt><trkpt lat="43.34503019711041" lon="11.401222231986171"><ele>299.0</ele><time>2026-05-02T07:31:35Z</time></trkpt><trkpt lat="43.34490172774643" lon="11.401274269152472"><ele>299.0</ele><time>2026-05-02T07:31:36Z</time></trkpt><trkpt lat="43.34477230940244" lon="11.40131572704474"><ele>299.0</ele><time>2026-05-02T07:31:37Z</time></trkpt><trkpt lat="43.34464306460572" lon="11.401310643525461"><ele>298.5</ele><time>2026-05-02T07:31:38Z</time></trkpt><trkpt lat="43.34451442948238" lon="11.401307749073407"><ele>298.0</ele><time>2026-05-02T07:31:39Z</time></trkpt><trkpt lat="43.34438113623241" lon="11.401335036114572"><ele>297.5</ele><time>2026-05-02T07:31:40Z</time></trkpt><trkpt lat="43.34425510993166" lon="11.401331529868688"><ele>297.0</ele><time>2026-05-02T07:31:41Z</time></trkpt><trkpt lat="43.34413804636689" lon="11.401361321744544"><ele>296.0</ele><time>2026-05-02T07:31:42Z</time></trkpt><trkpt lat="43.34402347256784" lon="11.401392957858612"><ele>295.0</ele><time>2026-05-02T07:31:43Z</time></trkpt><trkpt lat="43.34390915696218" lon="11.401447269709115"><ele>294.0</ele><time>2026-05-02T07:31:44Z</time></trkpt><trkpt lat="43.343788062244144" lon="11.401519033434491"><ele>293.0</ele><time>2026-05-02T07:31:45Z</time></trkpt><trkpt lat="43.34366999389032" lon="11.401596543340352"><ele>292.8</ele><time>2026-05-02T07:31:46Z</time></trkpt><trkpt lat="43.34356273782417" lon="11.401663788821239"><ele>292.6</ele><time>2026-05-02T07:31:47Z</time></trkpt><trkpt lat="43.343464664434414" lon="11.401720598348446"><ele>292.4</ele><time>2026-05-02T07:31:48Z</time></trkpt><trkpt lat="43.34337606605464" lon="11.401787891513113"><ele>292.2</ele><time>2026-05-02T07:31:49Z</time></trkpt><trkpt lat="43.34329440441394" lon="11.401879648850574"><ele>292.0</ele><time>2026-05-02T07:31:50Z</time></trkpt><trkpt lat="43.34322102475719" lon="11.401993302593384"><ele>292.0</ele><time>2026-05-02T07:31:51Z</time></trkpt><trkpt lat="43.34314402936348" lon="11.40211456481477"><ele>292.0</ele><time>2026-05-02T07:31:52Z</time></trkpt><trkpt lat="43.34311601271148" lon="11.40229081094492"><ele>292.0</ele><time>2026-05-02T07:31:53Z</time></trkpt><trkpt lat="43.34307991891243" lon="11.402449937701316"><ele>292.0</ele><time>2026-05-02T07:31:54Z</time></trkpt><trkpt lat="43.34306797991729" lon="11.40260571999976"><ele>291.4</ele><time>2026-05-02T07:31:55Z</time></trkpt><trkpt lat="43.343066422392745" lon="11.402746854720544"><ele>290.79999999999995</ele><time>2026-05-02T07:31:56Z</time></trkpt><trkpt lat="43.34304072119444" lon="11.402871062467492"><ele>290.2</ele><time>2026-05-02T07:31:57Z</time></trkpt><trkpt lat="43.3430146420741" lon="11.40300125528957"><ele>289.59999999999997</ele><time>2026-05-02T07:31:58Z</time></trkpt><trkpt lat="43.34298588961288" lon="11.403128864728973"><ele>289.0</ele><time>2026-05-02T07:31:59Z</time></trkpt><trkpt lat="43.34290290066975" lon="11.40321825388785"><ele>289.0</ele><time>2026-05-02T07:32:00Z</time></trkpt><trkpt lat="43.34281993844858" lon="11.403284413459154"><ele>289.0</ele><time>2026-05-02T07:32:01Z</time></trkpt><trkpt lat="43.34272019166471" lon="11.403290831908098"><ele>289.0</ele><time>2026-05-02T07:32:02Z</time></trkpt><trkpt lat="43.34260457558497" lon="11.403308222925457"><ele>289.0</ele><time>2026-05-02T07:32:03Z</time></trkpt><trkpt lat="43.3424900876285" lon="11.403338757075959"><ele>289.0</ele><time>2026-05-02T07:32:04Z</time></trkpt><trkpt lat="43.34238627879179" lon="11.403381877360994"><ele>289.0</ele><time>2026-05-02T07:32:05Z</time></trkpt><trkpt lat="43.34229008820161" lon="11.403458756628513"><ele>289.0</ele><time>2026-05-02T07:32:06Z</time></trkpt><trkpt lat="43.34219601808078" lon="11.403572412215295"><ele>289.0</ele><time>2026-05-02T07:32:07Z</time></trkpt><trkpt lat="43.34209473243102" lon="11.403695824573367"><ele>289.0</ele><time>2026-05-02T07:32:08Z</time></trkpt><trkpt lat="43.34198752298819" lon="11.40381522775719"><ele>287.75</ele><time>2026-05-02T07:32:09Z</time></trkpt><trkpt lat="43.341880340589555" lon="11.403934942655585"><ele>286.5</ele><time>2026-05-02T07:32:10Z</time></trkpt><trkpt lat="43.341778212939175" lon="11.404054671041813"><ele>285.25</ele><time>2026-05-02T07:32:11Z</time></trkpt><trkpt lat="43.341675856184665" lon="11.404172445833355"><ele>284.0</ele><time>2026-05-02T07:32:12Z</time></trkpt><trkpt lat="43.34157092560005" lon="11.404279207172337"><ele>284.0</ele><time>2026-05-02T07:32:13Z</time></trkpt><trkpt lat="43.341476573409025" lon="11.404392464267184"><ele>284.0</ele><time>2026-05-02T07:32:14Z</time></trkpt><trkpt lat="43.34138722348971" lon="11.404505388466836"><ele>284.0</ele><time>2026-05-02T07:32:15Z</time></trkpt><trkpt lat="43.341307386315655" lon="11.4046307742687"><ele>284.0</ele><time>2026-05-02T07:32:16Z</time></trkpt><trkpt lat="43.34123550544524" lon="11.404757148156376"><ele>285.5</ele><time>2026-05-02T07:32:17Z</time></trkpt><trkpt lat="43.3411633877639" lon="11.404880691833332"><ele>287.0</ele><time>2026-05-02T07:32:18Z</time></trkpt><trkpt lat="43.3410862825199" lon="11.404996501717042"><ele>288.5</ele><time>2026-05-02T07:32:19Z</time></trkpt><trkpt lat="43.341011479335386" lon="11.405109393999176"><ele>290.0</ele><time>2026-05-02T07:32:20Z</time></trkpt><trkpt lat="43.340927437296685" lon="11.405211750217013"><ele>290.0</ele><time>2026-05-02T07:32:21Z</time></trkpt><trkpt lat="43.34082407582822" lon="11.40527788910286"><ele>290.0</ele><time>2026-05-02T07:32:22Z</time></trkpt><trkpt lat="43.34073142914359" lon="11.405371053824753"><ele>290.0</ele><time>2026-05-02T07:32:23Z</time></trkpt><trkpt lat="43.34062418339129" lon="11.405435687562308"><ele>290.0</ele><time>2026-05-02T07:32:24Z</time></trkpt><trkpt lat="43.340519405611275" lon="11.405500806072583"><ele>290.0</ele><time>2026-05-02T07:32:25Z</time></trkpt><trkpt lat="43.340411766582335" lon="11.405570274621724"><ele>290.0</ele><time>2026-05-02T07:32:26Z</time></trkpt><trkpt lat="43.34030027983132" lon="11.405638059632468"><ele>290.0</ele><time>2026-05-02T07:32:27Z</time></trkpt><trkpt lat="43.340189269781675" lon="11.405704828027197"><ele>290.0</ele><time>2026-05-02T07:32:28Z</time></trkpt><trkpt lat="43.34007594924122" lon="11.40577118243684"><ele>290.0</ele><time>2026-05-02T07:32:29Z</time></trkpt><trkpt lat="43.339962946647454" lon="11.40583948080731"><ele>290.0</ele><time>2026-05-02T07:32:30Z</time></trkpt><trkpt lat="43.339854941410984" lon="11.405907849521302"><ele>290.0</ele><time>2026-05-02T07:32:31Z</time></trkpt><trkpt lat="43.33975474987284" lon="11.405970103924465"><ele>290.0</ele><time>2026-05-02T07:32:32Z</time></trkpt><trkpt lat="43.33967376972216" lon="11.4060334890438"><ele>290.0</ele><time>2026-05-02T07:32:33Z</time></trkpt><trkpt lat="43.33960244365052" lon="11.406104679663223"><ele>289.4</ele><time>2026-05-02T07:32:34Z</time></trkpt><trkpt lat="43.339541304298706" lon="11.406200334625913"><ele>288.8</ele><time>2026-05-02T07:32:35Z</time></trkpt><trkpt lat="43.33949744581171" lon="11.406330764008567"><ele>288.2</ele><time>2026-05-02T07:32:36Z</time></trkpt><trkpt lat="43.33945024945672" lon="11.40646881798913"><ele>287.6</ele><time>2026-05-02T07:32:37Z</time></trkpt><trkpt lat="43.33938114215145" lon="11.406602487160251"><ele>287.0</ele><time>2026-05-02T07:32:38Z</time></trkpt><trkpt lat="43.339289317853016" lon="11.406728580022007"><ele>287.0</ele><time>2026-05-02T07:32:39Z</time></trkpt><trkpt lat="43.339183043809385" lon="11.406859747304807"><ele>287.0</ele><time>2026-05-02T07:32:40Z</time></trkpt><trkpt lat="43.33906197201162" lon="11.407004189094312"><ele>287.0</ele><time>2026-05-02T07:32:41Z</time></trkpt><trkpt lat="43.338944527667174" lon="11.40714445625487"><ele>287.5</ele><time>2026-05-02T07:32:42Z</time></trkpt><trkpt lat="43.33883190300022" lon="11.407284480731871"><ele>288.0</ele><time>2026-05-02T07:32:43Z</time></trkpt><trkpt lat="43.33871294619078" lon="11.407398470558185"><ele>288.5</ele><time>2026-05-02T07:32:44Z</time></trkpt><trkpt lat="43.338606766245675" lon="11.407506412231983"><ele>289.0</ele><time>2026-05-02T07:32:45Z</time></trkpt><trkpt lat="43.338493811820456" lon="11.407604817488572"><ele>289.0</ele><time>2026-05-02T07:32:46Z</time></trkpt><trkpt lat="43.338386955333085" lon="11.40770529859817"><ele>289.0</ele><time>2026-05-02T07:32:47Z</time></trkpt><trkpt lat="43.33828799287941" lon="11.407771200796311"><ele>289.0</ele><time>2026-05-02T07:32:48Z</time></trkpt><trkpt lat="43.33820336292722" lon="11.4078144406686"><ele>289.0</ele><time>2026-05-02T07:32:49Z</time></trkpt><trkpt lat="43.33812271389453" lon="11.407807340275625"><ele>289.0</ele><time>2026-05-02T07:32:50Z</time></trkpt><trkpt lat="43.33805072520256" lon="11.407815957267239"><ele>289.4</ele><time>2026-05-02T07:32:51Z</time></trkpt><trkpt lat="43.337971428506535" lon="11.407763075754126"><ele>289.79999999999995</ele><time>2026-05-02T07:32:52Z</time></trkpt><trkpt lat="43.33789747113014" lon="11.407656282510214"><ele>290.20000000000005</ele><time>2026-05-02T07:32:52.999Z</time></trkpt><trkpt lat="43.33780707679869" lon="11.407566709759024"><ele>290.6</ele><time>2026-05-02T07:32:53.999Z</time></trkpt><trkpt lat="43.33770287471477" lon="11.407485140408982"><ele>291.0</ele><time>2026-05-02T07:32:54.999Z</time></trkpt><trkpt lat="43.33760576345382" lon="11.407385566147498"><ele>291.0</ele><time>2026-05-02T07:32:55.999Z</time></trkpt><trkpt lat="43.33751224340851" lon="11.407277749859194"><ele>291.0</ele><time>2026-05-02T07:32:56.999Z</time></trkpt><trkpt lat="43.33741402850289" lon="11.407207440971023"><ele>291.0</ele><time>2026-05-02T07:32:57.999Z</time></trkpt><trkpt lat="43.337323637984724" lon="11.407126829814104"><ele>291.0</ele><time>2026-05-02T07:32:58.999Z</time></trkpt><trkpt lat="43.337232674223" lon="11.407045741095835"><ele>291.0</ele><time>2026-05-02T07:32:59.999Z</time></trkpt><trkpt lat="43.337127326073734" lon="11.406982304842508"><ele>291.25</ele><time>2026-05-02T07:33:00.999Z</time></trkpt><trkpt lat="43.337016387744356" lon="11.406931847455766"><ele>291.5</ele><time>2026-05-02T07:33:01.999Z</time></trkpt><trkpt lat="43.336897993011014" lon="11.406877457212644"><ele>291.75</ele><time>2026-05-02T07:33:02.999Z</time></trkpt><trkpt lat="43.336786429916145" lon="11.406824073727888"><ele>292.0</ele><time>2026-05-02T07:33:03.999Z</time></trkpt><trkpt lat="43.33667807126626" lon="11.406775849403475"><ele>292.0</ele><time>2026-05-02T07:33:04.999Z</time></trkpt><trkpt lat="43.336571777590294" lon="11.40672670809298"><ele>292.0</ele><time>2026-05-02T07:33:05.999Z</time></trkpt><trkpt lat="43.33647175210318" lon="11.40668996517745"><ele>292.0</ele><time>2026-05-02T07:33:06.999Z</time></trkpt><trkpt lat="43.33637979529486" lon="11.406662395798369"><ele>292.0</ele><time>2026-05-02T07:33:07.999Z</time></trkpt><trkpt lat="43.336296194109934" lon="11.406648519887717"><ele>292.0</ele><time>2026-05-02T07:33:08.999Z</time></trkpt><trkpt lat="43.33619952954745" lon="11.406651032300337"><ele>293.4</ele><time>2026-05-02T07:33:09.999Z</time></trkpt><trkpt lat="43.33610185824006" lon="11.40668686231671"><ele>294.79999999999995</ele><time>2026-05-02T07:33:10.999Z</time></trkpt><trkpt lat="43.33601247472931" lon="11.406743597136144"><ele>296.2</ele><time>2026-05-02T07:33:11.999Z</time></trkpt><trkpt lat="43.33592114110448" lon="11.406820923240774"><ele>297.59999999999997</ele><time>2026-05-02T07:33:12.999Z</time></trkpt><trkpt lat="43.33582798453169" lon="11.40692962830115"><ele>299.0</ele><time>2026-05-02T07:33:13.999Z</time></trkpt><trkpt lat="43.33571756391286" lon="11.407037776057198"><ele>299.0</ele><time>2026-05-02T07:33:14.999Z</time></trkpt><trkpt lat="43.335621686522984" lon="11.40715553849042"><ele>299.0</ele><time>2026-05-02T07:33:15.999Z</time></trkpt><trkpt lat="43.33553058902552" lon="11.40726239232865"><ele>299.0</ele><time>2026-05-02T07:33:17Z</time></trkpt><trkpt lat="43.335440399140786" lon="11.407338069204064"><ele>299.0</ele><time>2026-05-02T07:33:18Z</time></trkpt><trkpt lat="43.33535467015471" lon="11.407371693609914"><ele>299.0</ele><time>2026-05-02T07:33:19Z</time></trkpt><trkpt lat="43.335267183241406" lon="11.40737474390507"><ele>298.5</ele><time>2026-05-02T07:33:20Z</time></trkpt><trkpt lat="43.33516661770556" lon="11.407369038575583"><ele>298.0</ele><time>2026-05-02T07:33:21Z</time></trkpt><trkpt lat="43.33505063425295" lon="11.407401841829229"><ele>297.5</ele><time>2026-05-02T07:33:22Z</time></trkpt><trkpt lat="43.33493907656327" lon="11.407434174067845"><ele>297.0</ele><time>2026-05-02T07:33:23Z</time></trkpt><trkpt lat="43.33482294860558" lon="11.407452996608146"><ele>295.6</ele><time>2026-05-02T07:33:24Z</time></trkpt><trkpt lat="43.334707461316036" lon="11.407461742643921"><ele>294.2</ele><time>2026-05-02T07:33:25Z</time></trkpt><trkpt lat="43.33459896298915" lon="11.407462011020668"><ele>292.8</ele><time>2026-05-02T07:33:26Z</time></trkpt><trkpt lat="43.334511586076644" lon="11.407461064434353"><ele>291.4</ele><time>2026-05-02T07:33:27Z</time></trkpt><trkpt lat="43.33444362136552" lon="11.407457242887702"><ele>290.0</ele><time>2026-05-02T07:33:28Z</time></trkpt><trkpt lat="43.33437196141354" lon="11.40744811898461"><ele>290.0</ele><time>2026-05-02T07:33:29Z</time></trkpt><trkpt lat="43.3343054533145" lon="11.407423712543098"><ele>290.0</ele><time>2026-05-02T07:33:30Z</time></trkpt><trkpt lat="43.334259649187324" lon="11.407356998875672"><ele>290.0</ele><time>2026-05-02T07:33:31Z</time></trkpt><trkpt lat="43.3342347826054" lon="11.407241875216872"><ele>290.0</ele><time>2026-05-02T07:33:32Z</time></trkpt><trkpt lat="43.33422560484054" lon="11.407076185729094"><ele>290.0</ele><time>2026-05-02T07:33:33Z</time></trkpt><trkpt lat="43.33421231313553" lon="11.406898262293062"><ele>289.75</ele><time>2026-05-02T07:33:34Z</time></trkpt><trkpt lat="43.33418938136462" lon="11.406711736102745"><ele>289.5</ele><time>2026-05-02T07:33:35Z</time></trkpt><trkpt lat="43.33416347626261" lon="11.406518712324306"><ele>289.25</ele><time>2026-05-02T07:33:36Z</time></trkpt><trkpt lat="43.33413535872053" lon="11.406323203678701"><ele>289.0</ele><time>2026-05-02T07:33:37Z</time></trkpt><trkpt lat="43.33410905988747" lon="11.40614508618214"><ele>288.25</ele><time>2026-05-02T07:33:38Z</time></trkpt><trkpt lat="43.3340857428217" lon="11.405983524064062"><ele>287.5</ele><time>2026-05-02T07:33:39Z</time></trkpt><trkpt lat="43.33407845039199" lon="11.405831731873464"><ele>286.75</ele><time>2026-05-02T07:33:40Z</time></trkpt><trkpt lat="43.33409301140405" lon="11.405672613971719"><ele>286.0</ele><time>2026-05-02T07:33:41Z</time></trkpt><trkpt lat="43.334112792164355" lon="11.405499902221576"><ele>285.0</ele><time>2026-05-02T07:33:42Z</time></trkpt><trkpt lat="43.33413179272992" lon="11.405315774579837"><ele>284.0</ele><time>2026-05-02T07:33:43Z</time></trkpt><trkpt lat="43.33414939804602" lon="11.405129107539986"><ele>283.0</ele><time>2026-05-02T07:33:44Z</time></trkpt><trkpt lat="43.33416344316917" lon="11.40494592960732"><ele>282.0</ele><time>2026-05-02T07:33:45Z</time></trkpt><trkpt lat="43.334178081511496" lon="11.404772591407893"><ele>282.0</ele><time>2026-05-02T07:33:46Z</time></trkpt><trkpt lat="43.334190506069" lon="11.404613637585351"><ele>282.0</ele><time>2026-05-02T07:33:47Z</time></trkpt><trkpt lat="43.33420082794799" lon="11.404475304660277"><ele>282.0</ele><time>2026-05-02T07:33:48Z</time></trkpt><trkpt lat="43.33420769621718" lon="11.404351153005772"><ele>282.0</ele><time>2026-05-02T07:33:49Z</time></trkpt><trkpt lat="43.33421057729947" lon="11.404238954833081"><ele>282.0</ele><time>2026-05-02T07:33:50Z</time></trkpt><trkpt lat="43.334207595084465" lon="11.404136664750846"><ele>282.0</ele><time>2026-05-02T07:33:51Z</time></trkpt><trkpt lat="43.33414358631806" lon="11.40399124336803"><ele>282.0</ele><time>2026-05-02T07:33:53Z</time></trkpt><trkpt lat="43.33407400727229" lon="11.403964463430489"><ele>282.0</ele><time>2026-05-02T07:33:54Z</time></trkpt><trkpt lat="43.33399371494011" lon="11.404020955487047"><ele>282.0</ele><time>2026-05-02T07:33:55Z</time></trkpt><trkpt lat="43.333908757390894" lon="11.404076192050677"><ele>282.0</ele><time>2026-05-02T07:33:56Z</time></trkpt><trkpt lat="43.33380649937157" lon="11.404150162618732"><ele>281.3333333333333</ele><time>2026-05-02T07:33:57Z</time></trkpt><trkpt lat="43.33367864578282" lon="11.404190865910094"><ele>280.66666666666663</ele><time>2026-05-02T07:33:58Z</time></trkpt><trkpt lat="43.33353578501199" lon="11.404263766107604"><ele>280.0</ele><time>2026-05-02T07:33:59Z</time></trkpt><trkpt lat="43.33338186528679" lon="11.404356849554825"><ele>280.0</ele><time>2026-05-02T07:34:00Z</time></trkpt><trkpt lat="43.333219304470525" lon="11.404441206895639"><ele>280.0</ele><time>2026-05-02T07:34:01Z</time></trkpt><trkpt lat="43.333058241536435" lon="11.404523460812076"><ele>280.0</ele><time>2026-05-02T07:34:02Z</time></trkpt><trkpt lat="43.332896982367195" lon="11.404588135109021"><ele>279.0</ele><time>2026-05-02T07:34:03Z</time></trkpt><trkpt lat="43.33275038076689" lon="11.404688591378397"><ele>278.0</ele><time>2026-05-02T07:34:04Z</time></trkpt><trkpt lat="43.33260059095361" lon="11.404774219893264"><ele>277.0</ele><time>2026-05-02T07:34:05Z</time></trkpt><trkpt lat="43.332441378842425" lon="11.404838930260164"><ele>277.0</ele><time>2026-05-02T07:34:06Z</time></trkpt><trkpt lat="43.33229173940098" lon="11.404919839302538"><ele>277.0</ele><time>2026-05-02T07:34:07Z</time></trkpt><trkpt lat="43.33216421669892" lon="11.404987885622011"><ele>277.0</ele><time>2026-05-02T07:34:08Z</time></trkpt><trkpt lat="43.33202766859597" lon="11.405060695765947"><ele>277.0</ele><time>2026-05-02T07:34:09Z</time></trkpt><trkpt lat="43.33189640051418" lon="11.405128341618092"><ele>277.3333333333333</ele><time>2026-05-02T07:34:10Z</time></trkpt><trkpt lat="43.33175831813377" lon="11.405202040325477"><ele>277.6666666666667</ele><time>2026-05-02T07:34:11Z</time></trkpt><trkpt lat="43.33160957967832" lon="11.405236458453231"><ele>278.0</ele><time>2026-05-02T07:34:12Z</time></trkpt><trkpt lat="43.331453596988226" lon="11.405272754598261"><ele>276.0</ele><time>2026-05-02T07:34:13Z</time></trkpt><trkpt lat="43.33128615985508" lon="11.405313254044655"><ele>274.0</ele><time>2026-05-02T07:34:14Z</time></trkpt><trkpt lat="43.331135482336265" lon="11.405351214093734"><ele>272.0</ele><time>2026-05-02T07:34:15Z</time></trkpt><trkpt lat="43.330988952487715" lon="11.405394155917701"><ele>272.0</ele><time>2026-05-02T07:34:16Z</time></trkpt><trkpt lat="43.33084869637472" lon="11.405435333958081"><ele>272.0</ele><time>2026-05-02T07:34:17Z</time></trkpt><trkpt lat="43.33071586185493" lon="11.40547848899847"><ele>272.0</ele><time>2026-05-02T07:34:18Z</time></trkpt><trkpt lat="43.33058372424277" lon="11.405500894675788"><ele>272.0</ele><time>2026-05-02T07:34:19Z</time></trkpt><trkpt lat="43.330459897439724" lon="11.405565870349475"><ele>270.0</ele><time>2026-05-02T07:34:20Z</time></trkpt><trkpt lat="43.33033377769907" lon="11.405591784706559"><ele>268.0</ele><time>2026-05-02T07:34:21Z</time></trkpt><trkpt lat="43.330214845547715" lon="11.405646652865448"><ele>266.0</ele><time>2026-05-02T07:34:22Z</time></trkpt><trkpt lat="43.33010861428614" lon="11.405726713781288"><ele>264.0</ele><time>2026-05-02T07:34:23Z</time></trkpt><trkpt lat="43.33000091816737" lon="11.405786808661587"><ele>264.0</ele><time>2026-05-02T07:34:24Z</time></trkpt><trkpt lat="43.329896934774844" lon="11.405855184363809"><ele>264.0</ele><time>2026-05-02T07:34:25Z</time></trkpt><trkpt lat="43.32979320874411" lon="11.40593009364207"><ele>264.0</ele><time>2026-05-02T07:34:26Z</time></trkpt><trkpt lat="43.329690227087156" lon="11.406011401783843"><ele>264.0</ele><time>2026-05-02T07:34:27Z</time></trkpt><trkpt lat="43.3295919825481" lon="11.406092986062118"><ele>262.75</ele><time>2026-05-02T07:34:28Z</time></trkpt><trkpt lat="43.32950186516846" lon="11.406185590797499"><ele>261.5</ele><time>2026-05-02T07:34:29Z</time></trkpt><trkpt lat="43.329409796107555" lon="11.406288768082256"><ele>260.25</ele><time>2026-05-02T07:34:30Z</time></trkpt><trkpt lat="43.32931525444213" lon="11.406404613082257"><ele>259.0</ele><time>2026-05-02T07:34:31Z</time></trkpt><trkpt lat="43.3292201232743" lon="11.406524038485236"><ele>258.75</ele><time>2026-05-02T07:34:32Z</time></trkpt><trkpt lat="43.329119942957774" lon="11.406648749417569"><ele>258.5</ele><time>2026-05-02T07:34:33Z</time></trkpt><trkpt lat="43.329015972942656" lon="11.406774245559616"><ele>258.25</ele><time>2026-05-02T07:34:34Z</time></trkpt><trkpt lat="43.32890520431496" lon="11.406877605376678"><ele>258.0</ele><time>2026-05-02T07:34:35Z</time></trkpt><trkpt lat="43.32881093771081" lon="11.40699023460642"><ele>257.75</ele><time>2026-05-02T07:34:36Z</time></trkpt><trkpt lat="43.3287212607211" lon="11.407097285502132"><ele>257.5</ele><time>2026-05-02T07:34:37Z</time></trkpt><trkpt lat="43.328635931344465" lon="11.407198972593086"><ele>257.25</ele><time>2026-05-02T07:34:38Z</time></trkpt><trkpt lat="43.328553022618905" lon="11.407297775337357"><ele>257.0</ele><time>2026-05-02T07:34:39Z</time></trkpt><trkpt lat="43.328467011329884" lon="11.407400275422804"><ele>256.2</ele><time>2026-05-02T07:34:40Z</time></trkpt><trkpt lat="43.32838060120239" lon="11.40750325080665"><ele>255.39999999999998</ele><time>2026-05-02T07:34:41Z</time></trkpt><trkpt lat="43.32829421078273" lon="11.407606202709818"><ele>254.60000000000002</ele><time>2026-05-02T07:34:42Z</time></trkpt><trkpt lat="43.328210216112055" lon="11.407706297141866"><ele>253.8</ele><time>2026-05-02T07:34:43Z</time></trkpt><trkpt lat="43.32813314103631" lon="11.407798847648877"><ele>253.0</ele><time>2026-05-02T07:34:44Z</time></trkpt><trkpt lat="43.328069260891596" lon="11.407890601205875"><ele>252.99999999999997</ele><time>2026-05-02T07:34:45Z</time></trkpt><trkpt lat="43.32800589830677" lon="11.40796726685497"><ele>253.0</ele><time>2026-05-02T07:34:46Z</time></trkpt><trkpt lat="43.327939897728925" lon="11.408049404265698"><ele>253.0</ele><time>2026-05-02T07:34:47Z</time></trkpt><trkpt lat="43.327875339275906" lon="11.408131485714108"><ele>253.0</ele><time>2026-05-02T07:34:48Z</time></trkpt><trkpt lat="43.32780809503527" lon="11.408210433809298"><ele>252.99999999999997</ele><time>2026-05-02T07:34:48.999Z</time></trkpt><trkpt lat="43.327740908930394" lon="11.40828876790179"><ele>253.0</ele><time>2026-05-02T07:34:49.999Z</time></trkpt><trkpt lat="43.327663768817324" lon="11.408351144648117"><ele>253.0</ele><time>2026-05-02T07:34:50.999Z</time></trkpt><trkpt lat="43.32760499992886" lon="11.40844694459316"><ele>253.0</ele><time>2026-05-02T07:34:51.999Z</time></trkpt><trkpt lat="43.32753428668507" lon="11.408526717598969"><ele>253.0</ele><time>2026-05-02T07:34:52.999Z</time></trkpt><trkpt lat="43.32746053505873" lon="11.408606267251336"><ele>253.0</ele><time>2026-05-02T07:34:53.999Z</time></trkpt><trkpt lat="43.32738123897281" lon="11.408692089395927"><ele>253.0</ele><time>2026-05-02T07:34:54.999Z</time></trkpt><trkpt lat="43.32729900616715" lon="11.408784414152674"><ele>251.60000000000002</ele><time>2026-05-02T07:34:55.999Z</time></trkpt><trkpt lat="43.32721728419089" lon="11.408878379434064"><ele>250.20000000000002</ele><time>2026-05-02T07:34:56.999Z</time></trkpt><trkpt lat="43.32713217312224" lon="11.408974420752099"><ele>248.8</ele><time>2026-05-02T07:34:57.999Z</time></trkpt><trkpt lat="43.32705589477312" lon="11.409069510578494"><ele>247.4</ele><time>2026-05-02T07:34:58.999Z</time></trkpt><trkpt lat="43.32698647912343" lon="11.409170645226585"><ele>246.0</ele><time>2026-05-02T07:34:59.999Z</time></trkpt><trkpt lat="43.32692116453029" lon="11.409280722035888"><ele>246.0</ele><time>2026-05-02T07:35:00.999Z</time></trkpt><trkpt lat="43.32686225546264" lon="11.409397515785127"><ele>246.00000000000003</ele><time>2026-05-02T07:35:01.999Z</time></trkpt><trkpt lat="43.326794506702086" lon="11.409511093237615"><ele>246.00000000000003</ele><time>2026-05-02T07:35:02.999Z</time></trkpt><trkpt lat="43.326718757118954" lon="11.409621295989881"><ele>246.0</ele><time>2026-05-02T07:35:03.999Z</time></trkpt><trkpt lat="43.326633303179555" lon="11.409719736847084"><ele>246.0</ele><time>2026-05-02T07:35:04.999Z</time></trkpt><trkpt lat="43.326543433053175" lon="11.40980409270637"><ele>245.5</ele><time>2026-05-02T07:35:05.999Z</time></trkpt><trkpt lat="43.32646206277654" lon="11.409880685012801"><ele>245.0</ele><time>2026-05-02T07:35:06.999Z</time></trkpt><trkpt lat="43.326389279909066" lon="11.40996138556886"><ele>244.5</ele><time>2026-05-02T07:35:07.999Z</time></trkpt><trkpt lat="43.32632780862409" lon="11.410042509873739"><ele>244.0</ele><time>2026-05-02T07:35:08.999Z</time></trkpt><trkpt lat="43.326265046301714" lon="11.410115441327134"><ele>243.5</ele><time>2026-05-02T07:35:09.999Z</time></trkpt><trkpt lat="43.32620490896574" lon="11.410183813301733"><ele>243.0</ele><time>2026-05-02T07:35:10.999Z</time></trkpt><trkpt lat="43.32614841096477" lon="11.410246258943571"><ele>243.0</ele><time>2026-05-02T07:35:11.999Z</time></trkpt><trkpt lat="43.32608416213911" lon="11.410299318889633"><ele>243.0</ele><time>2026-05-02T07:35:12.999Z</time></trkpt><trkpt lat="43.32602199147956" lon="11.410333442950671"><ele>243.0</ele><time>2026-05-02T07:35:13.999Z</time></trkpt><trkpt lat="43.325917945752124" lon="11.410188732873799"><ele>243.0</ele><time>2026-05-02T07:35:15.999Z</time></trkpt><trkpt lat="43.325870334150885" lon="11.410059696053796"><ele>243.0</ele><time>2026-05-02T07:35:16.999Z</time></trkpt><trkpt lat="43.325810484002275" lon="11.409908185020864"><ele>243.0</ele><time>2026-05-02T07:35:17.999Z</time></trkpt><trkpt lat="43.325811599207256" lon="11.409711790690066"><ele>243.0</ele><time>2026-05-02T07:35:18.999Z</time></trkpt><trkpt lat="43.325831868108864" lon="11.409495914672336"><ele>243.0</ele><time>2026-05-02T07:35:19.999Z</time></trkpt><trkpt lat="43.32583851982571" lon="11.409233682277028"><ele>240.33333333333331</ele><time>2026-05-02T07:35:20.999Z</time></trkpt><trkpt lat="43.32582212101734" lon="11.40892993907307"><ele>237.66666666666666</ele><time>2026-05-02T07:35:21.999Z</time></trkpt><trkpt lat="43.32579007972606" lon="11.408635885279953"><ele>235.0</ele><time>2026-05-02T07:35:23Z</time></trkpt><trkpt lat="43.32575650186826" lon="11.408355401174257"><ele>233.66666666666666</ele><time>2026-05-02T07:35:24Z</time></trkpt><trkpt lat="43.32572692647083" lon="11.408086784497668"><ele>232.33333333333331</ele><time>2026-05-02T07:35:25Z</time></trkpt><trkpt lat="43.32570232748191" lon="11.407823594543101"><ele>231.0</ele><time>2026-05-02T07:35:26Z</time></trkpt><trkpt lat="43.325679167396764" lon="11.407571533523535"><ele>229.66666666666669</ele><time>2026-05-02T07:35:27Z</time></trkpt><trkpt lat="43.32565644646588" lon="11.407329230322677"><ele>228.33333333333334</ele><time>2026-05-02T07:35:28Z</time></trkpt><trkpt lat="43.32562821484437" lon="11.407102195776062"><ele>227.0</ele><time>2026-05-02T07:35:29Z</time></trkpt><trkpt lat="43.325592564230824" lon="11.406891647573312"><ele>226.0</ele><time>2026-05-02T07:35:30Z</time></trkpt><trkpt lat="43.325553513370295" lon="11.406694931377473"><ele>225.0</ele><time>2026-05-02T07:35:31Z</time></trkpt><trkpt lat="43.32547691829833" lon="11.406518270113414"><ele>224.0</ele><time>2026-05-02T07:35:32Z</time></trkpt><trkpt lat="43.32539867380818" lon="11.406358275285566"><ele>223.0</ele><time>2026-05-02T07:35:33Z</time></trkpt><trkpt lat="43.325305743571136" lon="11.406211096036417"><ele>221.5</ele><time>2026-05-02T07:35:34Z</time></trkpt><trkpt lat="43.325236671691286" lon="11.40604321730138"><ele>220.0</ele><time>2026-05-02T07:35:35Z</time></trkpt><trkpt lat="43.32517389113294" lon="11.405866023620238"><ele>218.5</ele><time>2026-05-02T07:35:36Z</time></trkpt><trkpt lat="43.32511752773972" lon="11.405685983386752"><ele>217.0</ele><time>2026-05-02T07:35:37Z</time></trkpt><trkpt lat="43.325064581718436" lon="11.40550427971349"><ele>216.5</ele><time>2026-05-02T07:35:38Z</time></trkpt><trkpt lat="43.32502229570911" lon="11.405316027704462"><ele>216.0</ele><time>2026-05-02T07:35:39Z</time></trkpt><trkpt lat="43.32499319554975" lon="11.405118300318216"><ele>215.5</ele><time>2026-05-02T07:35:40Z</time></trkpt><trkpt lat="43.32497186656532" lon="11.40491096362687"><ele>215.0</ele><time>2026-05-02T07:35:41Z</time></trkpt><trkpt lat="43.32495593817463" lon="11.404699084449774"><ele>214.66666666666669</ele><time>2026-05-02T07:35:42Z</time></trkpt><trkpt lat="43.32494713059946" lon="11.404486070939482"><ele>214.33333333333331</ele><time>2026-05-02T07:35:43Z</time></trkpt><trkpt lat="43.32494170680651" lon="11.404273747776529"><ele>214.0</ele><time>2026-05-02T07:35:44Z</time></trkpt><trkpt lat="43.32493989159416" lon="11.404057165549036"><ele>214.0</ele><time>2026-05-02T07:35:45Z</time></trkpt><trkpt lat="43.324941233907964" lon="11.403842123324843"><ele>214.0</ele><time>2026-05-02T07:35:46Z</time></trkpt><trkpt lat="43.324947845007955" lon="11.403626067787707"><ele>214.0</ele><time>2026-05-02T07:35:47Z</time></trkpt><trkpt lat="43.32496201528725" lon="11.403408063474634"><ele>213.33333333333331</ele><time>2026-05-02T07:35:48Z</time></trkpt><trkpt lat="43.32497933542948" lon="11.403191560097522"><ele>212.66666666666669</ele><time>2026-05-02T07:35:49Z</time></trkpt><trkpt lat="43.32499764406666" lon="11.40297326907779"><ele>212.0</ele><time>2026-05-02T07:35:50Z</time></trkpt><trkpt lat="43.325019521495896" lon="11.402755430282301"><ele>213.33333333333334</ele><time>2026-05-02T07:35:51Z</time></trkpt><trkpt lat="43.32504082900692" lon="11.402543043643819"><ele>214.66666666666669</ele><time>2026-05-02T07:35:52Z</time></trkpt><trkpt lat="43.325061837503064" lon="11.402330776344803"><ele>216.0</ele><time>2026-05-02T07:35:53Z</time></trkpt><trkpt lat="43.32507966872053" lon="11.402116873842278"><ele>219.33333333333331</ele><time>2026-05-02T07:35:54Z</time></trkpt><trkpt lat="43.325090452413555" lon="11.401898853818318"><ele>222.66666666666666</ele><time>2026-05-02T07:35:55Z</time></trkpt><trkpt lat="43.32509184764386" lon="11.40168653398665"><ele>226.0</ele><time>2026-05-02T07:35:56Z</time></trkpt><trkpt lat="43.32508771477239" lon="11.401478346048574"><ele>227.25</ele><time>2026-05-02T07:35:57Z</time></trkpt><trkpt lat="43.32507890344792" lon="11.401276962656416"><ele>228.5</ele><time>2026-05-02T07:35:58Z</time></trkpt><trkpt lat="43.32507130338164" lon="11.401085422950871"><ele>229.75</ele><time>2026-05-02T07:35:59Z</time></trkpt><trkpt lat="43.32507372427235" lon="11.400899787525073"><ele>231.0</ele><time>2026-05-02T07:36:00Z</time></trkpt><trkpt lat="43.325093237101356" lon="11.400715453676385"><ele>231.0</ele><time>2026-05-02T07:36:01Z</time></trkpt><trkpt lat="43.32511959148819" lon="11.400527895489075"><ele>231.0</ele><time>2026-05-02T07:36:02Z</time></trkpt><trkpt lat="43.32514901906821" lon="11.400344014230503"><ele>231.0</ele><time>2026-05-02T07:36:03Z</time></trkpt><trkpt lat="43.32516587819466" lon="11.400153836013674"><ele>231.0</ele><time>2026-05-02T07:36:04Z</time></trkpt><trkpt lat="43.325169475757875" lon="11.399962666213268"><ele>232.25</ele><time>2026-05-02T07:36:05Z</time></trkpt><trkpt lat="43.325163564793044" lon="11.399768541049447"><ele>233.5</ele><time>2026-05-02T07:36:06Z</time></trkpt><trkpt lat="43.325150170019455" lon="11.399574978297425"><ele>234.75</ele><time>2026-05-02T07:36:07Z</time></trkpt><trkpt lat="43.32513564636161" lon="11.399381301715886"><ele>236.0</ele><time>2026-05-02T07:36:08Z</time></trkpt><trkpt lat="43.32512318939759" lon="11.399185606300177"><ele>237.25</ele><time>2026-05-02T07:36:09Z</time></trkpt><trkpt lat="43.32511271238938" lon="11.398990288537929"><ele>238.5</ele><time>2026-05-02T07:36:10Z</time></trkpt><trkpt lat="43.3251012538557" lon="11.398797205871372"><ele>239.75</ele><time>2026-05-02T07:36:11Z</time></trkpt><trkpt lat="43.32509202924504" lon="11.398605228369846"><ele>241.0</ele><time>2026-05-02T07:36:12Z</time></trkpt><trkpt lat="43.32508477682564" lon="11.39841622214026"><ele>242.5</ele><time>2026-05-02T07:36:13Z</time></trkpt><trkpt lat="43.32507912548589" lon="11.398234908928814"><ele>244.0</ele><time>2026-05-02T07:36:14Z</time></trkpt><trkpt lat="43.32507913552067" lon="11.39805669677669"><ele>245.5</ele><time>2026-05-02T07:36:15Z</time></trkpt><trkpt lat="43.325094353152075" lon="11.397884017770956"><ele>247.0</ele><time>2026-05-02T07:36:16Z</time></trkpt><trkpt lat="43.32512985952475" lon="11.397714662726854"><ele>247.0</ele><time>2026-05-02T07:36:17Z</time></trkpt><trkpt lat="43.32518590051374" lon="11.397549715083903"><ele>247.0</ele><time>2026-05-02T07:36:18Z</time></trkpt><trkpt lat="43.32524669011953" lon="11.397386183338208"><ele>247.0</ele><time>2026-05-02T07:36:19Z</time></trkpt><trkpt lat="43.325308816425654" lon="11.39721542855212"><ele>247.0</ele><time>2026-05-02T07:36:20Z</time></trkpt><trkpt lat="43.325365388295054" lon="11.397030551736055"><ele>247.0</ele><time>2026-05-02T07:36:21Z</time></trkpt><trkpt lat="43.32542026189108" lon="11.396837598292644"><ele>247.0</ele><time>2026-05-02T07:36:22Z</time></trkpt><trkpt lat="43.32547655563125" lon="11.39663806447949"><ele>247.0</ele><time>2026-05-02T07:36:23Z</time></trkpt><trkpt lat="43.32553466448198" lon="11.3964365560193"><ele>248.0</ele><time>2026-05-02T07:36:24Z</time></trkpt><trkpt lat="43.32559470542978" lon="11.39623850107845"><ele>249.0</ele><time>2026-05-02T07:36:25Z</time></trkpt><trkpt lat="43.3256515064098" lon="11.3960426061508"><ele>250.0</ele><time>2026-05-02T07:36:26Z</time></trkpt><trkpt lat="43.32568582604087" lon="11.395834689141882"><ele>250.0</ele><time>2026-05-02T07:36:27Z</time></trkpt><trkpt lat="43.3257126862368" lon="11.395614307373176"><ele>250.0</ele><time>2026-05-02T07:36:28Z</time></trkpt><trkpt lat="43.32569553647051" lon="11.39539214371198"><ele>250.0</ele><time>2026-05-02T07:36:29Z</time></trkpt><trkpt lat="43.32569877773813" lon="11.395171791196649"><ele>250.66666666666666</ele><time>2026-05-02T07:36:30Z</time></trkpt><trkpt lat="43.32570049329224" lon="11.394950488224216"><ele>251.33333333333331</ele><time>2026-05-02T07:36:31Z</time></trkpt><trkpt lat="43.325691367885156" lon="11.394735041585596"><ele>252.0</ele><time>2026-05-02T07:36:32Z</time></trkpt><trkpt lat="43.325667518671466" lon="11.394521077858373"><ele>253.0</ele><time>2026-05-02T07:36:33Z</time></trkpt><trkpt lat="43.3256222121365" lon="11.394310592720903"><ele>254.0</ele><time>2026-05-02T07:36:34Z</time></trkpt><trkpt lat="43.3255611079011" lon="11.394106915221599"><ele>255.0</ele><time>2026-05-02T07:36:35Z</time></trkpt><trkpt lat="43.325500524728255" lon="11.393904539598235"><ele>256.6666666666667</ele><time>2026-05-02T07:36:36Z</time></trkpt><trkpt lat="43.325439183601254" lon="11.393702982654778"><ele>258.33333333333337</ele><time>2026-05-02T07:36:37Z</time></trkpt><trkpt lat="43.32538024090837" lon="11.39350774092352"><ele>260.0</ele><time>2026-05-02T07:36:38Z</time></trkpt><trkpt lat="43.325323222594925" lon="11.393322231467776"><ele>260.0</ele><time>2026-05-02T07:36:39Z</time></trkpt><trkpt lat="43.325266090333685" lon="11.393141471344034"><ele>260.0</ele><time>2026-05-02T07:36:40Z</time></trkpt><trkpt lat="43.32521069191873" lon="11.392971716332003"><ele>260.0</ele><time>2026-05-02T07:36:41Z</time></trkpt><trkpt lat="43.32515616568288" lon="11.39281098259187"><ele>260.0</ele><time>2026-05-02T07:36:42Z</time></trkpt><trkpt lat="43.32510305784214" lon="11.392667628494314"><ele>260.8</ele><time>2026-05-02T07:36:43Z</time></trkpt><trkpt lat="43.32504087088597" lon="11.392553092705855"><ele>261.6</ele><time>2026-05-02T07:36:44Z</time></trkpt><trkpt lat="43.32495111145311" lon="11.392497938512482"><ele>262.4</ele><time>2026-05-02T07:36:45Z</time></trkpt><trkpt lat="43.32484772551422" lon="11.392501644807579"><ele>263.2</ele><time>2026-05-02T07:36:46Z</time></trkpt><trkpt lat="43.324738256706716" lon="11.392539516279886"><ele>264.0</ele><time>2026-05-02T07:36:47Z</time></trkpt><trkpt lat="43.32462545906172" lon="11.39254459110157"><ele>264.25</ele><time>2026-05-02T07:36:48Z</time></trkpt><trkpt lat="43.32450739519715" lon="11.392558403406044"><ele>264.5</ele><time>2026-05-02T07:36:49Z</time></trkpt><trkpt lat="43.324389031556144" lon="11.39251049172911"><ele>264.75</ele><time>2026-05-02T07:36:50Z</time></trkpt><trkpt lat="43.324270799640914" lon="11.392450672796917"><ele>265.0</ele><time>2026-05-02T07:36:50.999Z</time></trkpt><trkpt lat="43.3241436290807" lon="11.39238756317608"><ele>265.0</ele><time>2026-05-02T07:36:51.999Z</time></trkpt><trkpt lat="43.32401126472129" lon="11.392340001290746"><ele>265.0</ele><time>2026-05-02T07:36:52.999Z</time></trkpt><trkpt lat="43.3238740330286" lon="11.392308203179791"><ele>265.0</ele><time>2026-05-02T07:36:53.999Z</time></trkpt><trkpt lat="43.32373804112399" lon="11.39227440107475"><ele>265.0</ele><time>2026-05-02T07:36:54.999Z</time></trkpt><trkpt lat="43.32361127285672" lon="11.392241683691777"><ele>264.75</ele><time>2026-05-02T07:36:55.999Z</time></trkpt><trkpt lat="43.3234880995384" lon="11.392212058437753"><ele>264.5</ele><time>2026-05-02T07:36:56.999Z</time></trkpt><trkpt lat="43.32336651673491" lon="11.392165649381209"><ele>264.25</ele><time>2026-05-02T07:36:57.999Z</time></trkpt><trkpt lat="43.323241825725454" lon="11.39213836242964"><ele>264.0</ele><time>2026-05-02T07:36:58.999Z</time></trkpt><trkpt lat="43.32311754872707" lon="11.392129520132913"><ele>262.25</ele><time>2026-05-02T07:36:59.999Z</time></trkpt><trkpt lat="43.32299633209517" lon="11.392092339629944"><ele>260.5</ele><time>2026-05-02T07:37:00.999Z</time></trkpt><trkpt lat="43.32288624763057" lon="11.392047173126297"><ele>258.75</ele><time>2026-05-02T07:37:01.999Z</time></trkpt><trkpt lat="43.32277900699318" lon="11.392015710666382"><ele>257.0</ele><time>2026-05-02T07:37:02.999Z</time></trkpt><trkpt lat="43.322672741176675" lon="11.391999322406875"><ele>257.0</ele><time>2026-05-02T07:37:03.999Z</time></trkpt><trkpt lat="43.32256137979738" lon="11.391974760959469"><ele>257.0</ele><time>2026-05-02T07:37:04.999Z</time></trkpt><trkpt lat="43.32245198055339" lon="11.391919245565754"><ele>257.0</ele><time>2026-05-02T07:37:05.999Z</time></trkpt><trkpt lat="43.32233500314656" lon="11.391906744027224"><ele>257.0</ele><time>2026-05-02T07:37:06.999Z</time></trkpt><trkpt lat="43.32221646713899" lon="11.391871070098269"><ele>256.0</ele><time>2026-05-02T07:37:07.999Z</time></trkpt><trkpt lat="43.32209435383663" lon="11.391835724316726"><ele>255.0</ele><time>2026-05-02T07:37:08.999Z</time></trkpt><trkpt lat="43.321966141542596" lon="11.39180596498028"><ele>254.0</ele><time>2026-05-02T07:37:09.999Z</time></trkpt><trkpt lat="43.32183372964883" lon="11.39176841339553"><ele>253.0</ele><time>2026-05-02T07:37:10.999Z</time></trkpt><trkpt lat="43.321699809549536" lon="11.391721788806633"><ele>253.0</ele><time>2026-05-02T07:37:11.999Z</time></trkpt><trkpt lat="43.321566717430144" lon="11.391661753024588"><ele>253.0</ele><time>2026-05-02T07:37:12.999Z</time></trkpt><trkpt lat="43.32143789875574" lon="11.39158952134278"><ele>253.0</ele><time>2026-05-02T07:37:13.999Z</time></trkpt><trkpt lat="43.32131074108219" lon="11.391508642955786"><ele>253.0</ele><time>2026-05-02T07:37:14.999Z</time></trkpt><trkpt lat="43.32119480776297" lon="11.391402166169152"><ele>251.5</ele><time>2026-05-02T07:37:15.999Z</time></trkpt><trkpt lat="43.32106657747023" lon="11.39133350654064"><ele>250.0</ele><time>2026-05-02T07:37:16.999Z</time></trkpt><trkpt lat="43.32094818681732" lon="11.391247746892384"><ele>248.5</ele><time>2026-05-02T07:37:17.999Z</time></trkpt><trkpt lat="43.32083075239427" lon="11.391168617274456"><ele>247.0</ele><time>2026-05-02T07:37:18.999Z</time></trkpt><trkpt lat="43.320719586828304" lon="11.391096785124947"><ele>247.0</ele><time>2026-05-02T07:37:19.999Z</time></trkpt><trkpt lat="43.320618274981236" lon="11.391031493409846"><ele>247.0</ele><time>2026-05-02T07:37:20.999Z</time></trkpt><trkpt lat="43.32051888504198" lon="11.390984725648305"><ele>247.0</ele><time>2026-05-02T07:37:21.999Z</time></trkpt><trkpt lat="43.32042332087875" lon="11.390954417594008"><ele>247.0</ele><time>2026-05-02T07:37:22.999Z</time></trkpt><trkpt lat="43.320336843039826" lon="11.39093638980481"><ele>247.0</ele><time>2026-05-02T07:37:23.999Z</time></trkpt><trkpt lat="43.32025614338007" lon="11.390917931300583"><ele>246.99999999999997</ele><time>2026-05-02T07:37:24.999Z</time></trkpt><trkpt lat="43.32019295115342" lon="11.39088146584669"><ele>247.0</ele><time>2026-05-02T07:37:25.999Z</time></trkpt><trkpt lat="43.320143047232214" lon="11.390824061487187"><ele>247.0</ele><time>2026-05-02T07:37:26.999Z</time></trkpt><trkpt lat="43.320090873081796" lon="11.390638124649069"><ele>247.0</ele><time>2026-05-02T07:37:29Z</time></trkpt><trkpt lat="43.32007986492384" lon="11.390531468168692"><ele>246.99999999999997</ele><time>2026-05-02T07:37:30Z</time></trkpt><trkpt lat="43.32006495045604" lon="11.390420486769568"><ele>247.0</ele><time>2026-05-02T07:37:31Z</time></trkpt><trkpt lat="43.32004828671327" lon="11.390312586148534"><ele>246.99999999999997</ele><time>2026-05-02T07:37:32Z</time></trkpt><trkpt lat="43.320030313728815" lon="11.390214420129228"><ele>247.0</ele><time>2026-05-02T07:37:33Z</time></trkpt><trkpt lat="43.32001442917213" lon="11.390124295322494"><ele>247.0</ele><time>2026-05-02T07:37:34Z</time></trkpt><trkpt lat="43.31999581733126" lon="11.390038093299339"><ele>247.0</ele><time>2026-05-02T07:37:35Z</time></trkpt><trkpt lat="43.31996835278096" lon="11.389932968773254"><ele>246.99999999999997</ele><time>2026-05-02T07:37:36Z</time></trkpt><trkpt lat="43.319937259524785" lon="11.389805471263617"><ele>247.0</ele><time>2026-05-02T07:37:37Z</time></trkpt><trkpt lat="43.31990283272407" lon="11.389670684069399"><ele>246.2</ele><time>2026-05-02T07:37:38Z</time></trkpt><trkpt lat="43.31986590256075" lon="11.389532396176444"><ele>245.39999999999998</ele><time>2026-05-02T07:37:39Z</time></trkpt><trkpt lat="43.31982584101778" lon="11.3893980441285"><ele>244.60000000000002</ele><time>2026-05-02T07:37:40Z</time></trkpt><trkpt lat="43.31978314752032" lon="11.389266624155324"><ele>243.8</ele><time>2026-05-02T07:37:41Z</time></trkpt><trkpt lat="43.31973861555821" lon="11.389119739427864"><ele>243.0</ele><time>2026-05-02T07:37:42Z</time></trkpt><trkpt lat="43.31971696256097" lon="11.388950057433462"><ele>239.5</ele><time>2026-05-02T07:37:43Z</time></trkpt><trkpt lat="43.319678276408666" lon="11.388785124247004"><ele>236.0</ele><time>2026-05-02T07:37:44Z</time></trkpt><trkpt lat="43.31963953846971" lon="11.388622644122604"><ele>232.5</ele><time>2026-05-02T07:37:45Z</time></trkpt><trkpt lat="43.31958999521017" lon="11.388466356717176"><ele>229.0</ele><time>2026-05-02T07:37:46Z</time></trkpt><trkpt lat="43.31956696856107" lon="11.388303559774036"><ele>229.0</ele><time>2026-05-02T07:37:47Z</time></trkpt><trkpt lat="43.31954364840018" lon="11.388143988695056"><ele>229.0</ele><time>2026-05-02T07:37:48Z</time></trkpt><trkpt lat="43.31952140662302" lon="11.387991186119029"><ele>229.0</ele><time>2026-05-02T07:37:49Z</time></trkpt><trkpt lat="43.3194984068924" lon="11.387843414554537"><ele>229.0</ele><time>2026-05-02T07:37:50Z</time></trkpt><trkpt lat="43.31947089155876" lon="11.387696463152814"><ele>229.0</ele><time>2026-05-02T07:37:51Z</time></trkpt><trkpt lat="43.31941884411225" lon="11.38755624890633"><ele>229.0</ele><time>2026-05-02T07:37:52Z</time></trkpt><trkpt lat="43.319327740698" lon="11.387449350542264"><ele>229.0</ele><time>2026-05-02T07:37:53Z</time></trkpt><trkpt lat="43.31922324392881" lon="11.387377119437021"><ele>229.0</ele><time>2026-05-02T07:37:54Z</time></trkpt><trkpt lat="43.31912413109934" lon="11.387323886057588"><ele>229.0</ele><time>2026-05-02T07:37:55Z</time></trkpt><trkpt lat="43.319051124207355" lon="11.387242255675458"><ele>228.99999999999997</ele><time>2026-05-02T07:37:56Z</time></trkpt><trkpt lat="43.31902446973854" lon="11.387098502512169"><ele>228.99999999999997</ele><time>2026-05-02T07:37:57Z</time></trkpt><trkpt lat="43.31903964213559" lon="11.386945143617528"><ele>229.0</ele><time>2026-05-02T07:37:58Z</time></trkpt><trkpt lat="43.31908340957782" lon="11.38679851947923"><ele>229.0</ele><time>2026-05-02T07:37:59Z</time></trkpt><trkpt lat="43.31912695989657" lon="11.38666718776493"><ele>228.6</ele><time>2026-05-02T07:38:00Z</time></trkpt><trkpt lat="43.31919459977316" lon="11.386563639202354"><ele>228.2</ele><time>2026-05-02T07:38:01Z</time></trkpt><trkpt lat="43.31927538336085" lon="11.386492203717125"><ele>227.79999999999998</ele><time>2026-05-02T07:38:02Z</time></trkpt><trkpt lat="43.3193592593537" lon="11.3864283859752"><ele>227.39999999999998</ele><time>2026-05-02T07:38:03Z</time></trkpt><trkpt lat="43.319448051195145" lon="11.386371350172958"><ele>227.0</ele><time>2026-05-02T07:38:04Z</time></trkpt><trkpt lat="43.31953922858083" lon="11.386316001609687"><ele>226.2</ele><time>2026-05-02T07:38:05Z</time></trkpt><trkpt lat="43.31962716949782" lon="11.386258816684052"><ele>225.39999999999998</ele><time>2026-05-02T07:38:06Z</time></trkpt><trkpt lat="43.319712589081476" lon="11.386203059379422"><ele>224.60000000000002</ele><time>2026-05-02T07:38:07Z</time></trkpt><trkpt lat="43.31981224903746" lon="11.386152038444747"><ele>223.8</ele><time>2026-05-02T07:38:08Z</time></trkpt><trkpt lat="43.31991581920646" lon="11.386094274924092"><ele>223.0</ele><time>2026-05-02T07:38:09Z</time></trkpt><trkpt lat="43.31999711922975" lon="11.386010176846918"><ele>222.8</ele><time>2026-05-02T07:38:10Z</time></trkpt><trkpt lat="43.32005643018542" lon="11.385898709710094"><ele>222.60000000000002</ele><time>2026-05-02T07:38:11Z</time></trkpt><trkpt lat="43.32009619832815" lon="11.385776375941626"><ele>222.39999999999998</ele><time>2026-05-02T07:38:12Z</time></trkpt><trkpt lat="43.32010443535977" lon="11.385637240151556"><ele>222.2</ele><time>2026-05-02T07:38:13Z</time></trkpt><trkpt lat="43.32008945961034" lon="11.385495902602086"><ele>222.0</ele><time>2026-05-02T07:38:14Z</time></trkpt><trkpt lat="43.32011709245888" lon="11.38535400777063"><ele>221.0</ele><time>2026-05-02T07:38:15Z</time></trkpt><trkpt lat="43.320113580097406" lon="11.385221038712338"><ele>220.0</ele><time>2026-05-02T07:38:16Z</time></trkpt><trkpt lat="43.32012028548432" lon="11.385073443403043"><ele>219.0</ele><time>2026-05-02T07:38:17Z</time></trkpt><trkpt lat="43.32017686610131" lon="11.384946081699596"><ele>218.0</ele><time>2026-05-02T07:38:18Z</time></trkpt><trkpt lat="43.320221695665374" lon="11.384809398311686"><ele>217.0</ele><time>2026-05-02T07:38:19Z</time></trkpt><trkpt lat="43.32031116073988" lon="11.384718101998724"><ele>216.0</ele><time>2026-05-02T07:38:20Z</time></trkpt><trkpt lat="43.3203939835509" lon="11.384613539921705"><ele>215.0</ele><time>2026-05-02T07:38:21Z</time></trkpt><trkpt lat="43.32049591501207" lon="11.384495021951743"><ele>214.0</ele><time>2026-05-02T07:38:22Z</time></trkpt><trkpt lat="43.320594210559" lon="11.384380879231282"><ele>213.0</ele><time>2026-05-02T07:38:23Z</time></trkpt><trkpt lat="43.320675047626075" lon="11.384259598871797"><ele>212.4</ele><time>2026-05-02T07:38:24Z</time></trkpt><trkpt lat="43.320751483917" lon="11.384146582483549"><ele>211.8</ele><time>2026-05-02T07:38:25Z</time></trkpt><trkpt lat="43.32079190808538" lon="11.384012103891838"><ele>211.2</ele><time>2026-05-02T07:38:26Z</time></trkpt><trkpt lat="43.320802558267644" lon="11.383866729137452"><ele>210.6</ele><time>2026-05-02T07:38:27Z</time></trkpt><trkpt lat="43.320785188228264" lon="11.383729641344491"><ele>210.0</ele><time>2026-05-02T07:38:28Z</time></trkpt><trkpt lat="43.320738224718596" lon="11.383594242758953"><ele>208.0</ele><time>2026-05-02T07:38:29Z</time></trkpt><trkpt lat="43.320676862863074" lon="11.383450059534647"><ele>206.0</ele><time>2026-05-02T07:38:30Z</time></trkpt><trkpt lat="43.32063462243977" lon="11.383275118685178"><ele>204.0</ele><time>2026-05-02T07:38:31Z</time></trkpt><trkpt lat="43.32060881278547" lon="11.383089744869887"><ele>202.0</ele><time>2026-05-02T07:38:32Z</time></trkpt><trkpt lat="43.32059276603231" lon="11.38289471541372"><ele>201.25</ele><time>2026-05-02T07:38:33Z</time></trkpt><trkpt lat="43.32057205433331" lon="11.382691429582007"><ele>200.5</ele><time>2026-05-02T07:38:34Z</time></trkpt><trkpt lat="43.32054587897161" lon="11.382488635890054"><ele>199.75</ele><time>2026-05-02T07:38:35Z</time></trkpt><trkpt lat="43.320515017286134" lon="11.382289523840516"><ele>199.0</ele><time>2026-05-02T07:38:36Z</time></trkpt><trkpt lat="43.32048599929999" lon="11.382094461608771"><ele>198.75</ele><time>2026-05-02T07:38:37Z</time></trkpt><trkpt lat="43.32045604389182" lon="11.381902728150411"><ele>198.5</ele><time>2026-05-02T07:38:38Z</time></trkpt><trkpt lat="43.320428376325545" lon="11.381716048141476"><ele>198.25</ele><time>2026-05-02T07:38:39Z</time></trkpt><trkpt lat="43.32039408777597" lon="11.381533607199842"><ele>198.0</ele><time>2026-05-02T07:38:40Z</time></trkpt><trkpt lat="43.32035982538754" lon="11.381357638984618"><ele>197.75</ele><time>2026-05-02T07:38:41Z</time></trkpt><trkpt lat="43.32033094378277" lon="11.38117581784454"><ele>197.5</ele><time>2026-05-02T07:38:42Z</time></trkpt><trkpt lat="43.32031077502712" lon="11.380999116674287"><ele>197.25</ele><time>2026-05-02T07:38:43Z</time></trkpt><trkpt lat="43.320310674854476" lon="11.38082454552832"><ele>197.0</ele><time>2026-05-02T07:38:44Z</time></trkpt><trkpt lat="43.32032943208731" lon="11.380641892386024"><ele>197.0</ele><time>2026-05-02T07:38:45Z</time></trkpt><trkpt lat="43.32035811965305" lon="11.380443629706384"><ele>197.0</ele><time>2026-05-02T07:38:46Z</time></trkpt><trkpt lat="43.32038997782187" lon="11.380244285981997"><ele>197.0</ele><time>2026-05-02T07:38:47Z</time></trkpt><trkpt lat="43.320415152276965" lon="11.38004461438746"><ele>197.0</ele><time>2026-05-02T07:38:48Z</time></trkpt><trkpt lat="43.320436513846744" lon="11.379849112646164"><ele>197.75</ele><time>2026-05-02T07:38:49Z</time></trkpt><trkpt lat="43.320470775508376" lon="11.379654397164677"><ele>198.5</ele><time>2026-05-02T07:38:49.999Z</time></trkpt><trkpt lat="43.32049438353419" lon="11.379452971408494"><ele>199.25</ele><time>2026-05-02T07:38:50.999Z</time></trkpt><trkpt lat="43.32052351256756" lon="11.379258324368948"><ele>200.0</ele><time>2026-05-02T07:38:51.999Z</time></trkpt><trkpt lat="43.32055104238395" lon="11.379073292118388"><ele>199.75</ele><time>2026-05-02T07:38:52.999Z</time></trkpt><trkpt lat="43.32057345101142" lon="11.378885447786699"><ele>199.5</ele><time>2026-05-02T07:38:53.999Z</time></trkpt><trkpt lat="43.320588824558094" lon="11.378692137965656"><ele>199.25</ele><time>2026-05-02T07:38:54.999Z</time></trkpt><trkpt lat="43.32059901556301" lon="11.378494344746574"><ele>199.0</ele><time>2026-05-02T07:38:55.999Z</time></trkpt><trkpt lat="43.320595690397056" lon="11.378290823033538"><ele>200.75</ele><time>2026-05-02T07:38:56.999Z</time></trkpt><trkpt lat="43.32057525100471" lon="11.378090477016784"><ele>202.5</ele><time>2026-05-02T07:38:57.999Z</time></trkpt><trkpt lat="43.32054749306708" lon="11.377893239061011"><ele>204.25</ele><time>2026-05-02T07:38:58.999Z</time></trkpt><trkpt lat="43.320520197185" lon="11.377692826197737"><ele>206.0</ele><time>2026-05-02T07:38:59.999Z</time></trkpt><trkpt lat="43.320494018521664" lon="11.377488692476483"><ele>208.0</ele><time>2026-05-02T07:39:00.999Z</time></trkpt><trkpt lat="43.32046700909717" lon="11.377290510987034"><ele>210.0</ele><time>2026-05-02T07:39:01.999Z</time></trkpt><trkpt lat="43.32045013252169" lon="11.37709629908822"><ele>212.0</ele><time>2026-05-02T07:39:02.999Z</time></trkpt><trkpt lat="43.320440688366666" lon="11.376900667866602"><ele>214.0</ele><time>2026-05-02T07:39:03.999Z</time></trkpt><trkpt lat="43.32044450581407" lon="11.376706084250173"><ele>215.75</ele><time>2026-05-02T07:39:04.999Z</time></trkpt><trkpt lat="43.320458113296304" lon="11.37650987529124"><ele>217.5</ele><time>2026-05-02T07:39:05.999Z</time></trkpt><trkpt lat="43.32047603651703" lon="11.376316263406794"><ele>219.25</ele><time>2026-05-02T07:39:06.999Z</time></trkpt><trkpt lat="43.32049699624828" lon="11.376133333089381"><ele>221.0</ele><time>2026-05-02T07:39:07.999Z</time></trkpt><trkpt lat="43.32050734242865" lon="11.375961386717409"><ele>221.0</ele><time>2026-05-02T07:39:08.999Z</time></trkpt><trkpt lat="43.32051083897827" lon="11.375795797699167"><ele>221.00000000000003</ele><time>2026-05-02T07:39:09.999Z</time></trkpt><trkpt lat="43.32050071840356" lon="11.375642488199269"><ele>221.00000000000003</ele><time>2026-05-02T07:39:10.999Z</time></trkpt><trkpt lat="43.32047933347118" lon="11.375490858885996"><ele>221.0</ele><time>2026-05-02T07:39:11.999Z</time></trkpt><trkpt lat="43.3204145628956" lon="11.375379255354694"><ele>221.0</ele><time>2026-05-02T07:39:12.999Z</time></trkpt><trkpt lat="43.32033724716752" lon="11.375272969472766"><ele>220.60000000000002</ele><time>2026-05-02T07:39:13.999Z</time></trkpt><trkpt lat="43.320267489634325" lon="11.375186457834937"><ele>220.20000000000002</ele><time>2026-05-02T07:39:14.999Z</time></trkpt><trkpt lat="43.32022362938022" lon="11.37508926146196"><ele>219.79999999999998</ele><time>2026-05-02T07:39:15.999Z</time></trkpt><trkpt lat="43.32020312138639" lon="11.374967279942458"><ele>219.39999999999998</ele><time>2026-05-02T07:39:16.999Z</time></trkpt><trkpt lat="43.32022088217169" lon="11.374830731568245"><ele>219.0</ele><time>2026-05-02T07:39:17.999Z</time></trkpt><trkpt lat="43.320261895146444" lon="11.374698642695874"><ele>219.39999999999998</ele><time>2026-05-02T07:39:18.999Z</time></trkpt><trkpt lat="43.320302383244" lon="11.37456700273255"><ele>219.79999999999998</ele><time>2026-05-02T07:39:19.999Z</time></trkpt><trkpt lat="43.320337173797306" lon="11.374433130416922"><ele>220.20000000000002</ele><time>2026-05-02T07:39:20.999Z</time></trkpt><trkpt lat="43.3203745589144" lon="11.37429263802825"><ele>220.60000000000002</ele><time>2026-05-02T07:39:21.999Z</time></trkpt><trkpt lat="43.320410551099876" lon="11.37414948737489"><ele>221.0</ele><time>2026-05-02T07:39:22.999Z</time></trkpt><trkpt lat="43.320451845270405" lon="11.37400952556746"><ele>221.0</ele><time>2026-05-02T07:39:23.999Z</time></trkpt><trkpt lat="43.320493578147854" lon="11.373871735164768"><ele>221.00000000000003</ele><time>2026-05-02T07:39:24.999Z</time></trkpt><trkpt lat="43.320538838349336" lon="11.373733843447802"><ele>221.00000000000003</ele><time>2026-05-02T07:39:25.999Z</time></trkpt><trkpt lat="43.32058964482111" lon="11.373597216319139"><ele>221.0</ele><time>2026-05-02T07:39:26.999Z</time></trkpt><trkpt lat="43.32064779179284" lon="11.373460800947342"><ele>221.0</ele><time>2026-05-02T07:39:27.999Z</time></trkpt><trkpt lat="43.320711849041366" lon="11.373325637213606"><ele>223.0</ele><time>2026-05-02T07:39:28.999Z</time></trkpt><trkpt lat="43.32077792497325" lon="11.373194506092034"><ele>225.0</ele><time>2026-05-02T07:39:29.999Z</time></trkpt><trkpt lat="43.320843047004736" lon="11.373067394795857"><ele>227.0</ele><time>2026-05-02T07:39:30.999Z</time></trkpt><trkpt lat="43.32091200264351" lon="11.372946272050415"><ele>229.0</ele><time>2026-05-02T07:39:31.999Z</time></trkpt><trkpt lat="43.32097663878968" lon="11.372826451136552"><ele>231.25</ele><time>2026-05-02T07:39:32.999Z</time></trkpt><trkpt lat="43.32102395061631" lon="11.372684000404435"><ele>233.5</ele><time>2026-05-02T07:39:34Z</time></trkpt><trkpt lat="43.32105098088087" lon="11.372525362329979"><ele>235.75</ele><time>2026-05-02T07:39:35Z</time></trkpt><trkpt lat="43.32106858256216" lon="11.37236146015088"><ele>238.0</ele><time>2026-05-02T07:39:36Z</time></trkpt><trkpt lat="43.321088022299094" lon="11.372200669383954"><ele>240.25</ele><time>2026-05-02T07:39:37Z</time></trkpt><trkpt lat="43.32110991892635" lon="11.372042913819282"><ele>242.5</ele><time>2026-05-02T07:39:38Z</time></trkpt><trkpt lat="43.321137294851056" lon="11.371881350351712"><ele>244.75</ele><time>2026-05-02T07:39:39Z</time></trkpt><trkpt lat="43.32116066506563" lon="11.371715436440292"><ele>247.0</ele><time>2026-05-02T07:39:40Z</time></trkpt><trkpt lat="43.32117713121212" lon="11.371542412569633"><ele>247.0</ele><time>2026-05-02T07:39:41Z</time></trkpt><trkpt lat="43.321197504431154" lon="11.371364325157758"><ele>247.0</ele><time>2026-05-02T07:39:42Z</time></trkpt><trkpt lat="43.32122069597722" lon="11.371185442153324"><ele>247.0</ele><time>2026-05-02T07:39:43Z</time></trkpt><trkpt lat="43.321250099900915" lon="11.37101195990743"><ele>247.0</ele><time>2026-05-02T07:39:44Z</time></trkpt><trkpt lat="43.32129441845939" lon="11.37084283537632"><ele>246.5</ele><time>2026-05-02T07:39:45Z</time></trkpt><trkpt lat="43.32135597586285" lon="11.370681866478819"><ele>246.0</ele><time>2026-05-02T07:39:46Z</time></trkpt><trkpt lat="43.32142980144073" lon="11.370529623843742"><ele>245.5</ele><time>2026-05-02T07:39:47Z</time></trkpt><trkpt lat="43.321511411190116" lon="11.370376938523782"><ele>245.0</ele><time>2026-05-02T07:39:48Z</time></trkpt><trkpt lat="43.32159180392265" lon="11.370215143255326"><ele>246.75</ele><time>2026-05-02T07:39:49Z</time></trkpt><trkpt lat="43.32167376122371" lon="11.370054165900203"><ele>248.5</ele><time>2026-05-02T07:39:50Z</time></trkpt><trkpt lat="43.3217514966265" lon="11.369897002878746"><ele>250.25</ele><time>2026-05-02T07:39:51Z</time></trkpt><trkpt lat="43.321828503183816" lon="11.369739336059043"><ele>252.0</ele><time>2026-05-02T07:39:52Z</time></trkpt><trkpt lat="43.321900894534814" lon="11.369595221044767"><ele>253.5</ele><time>2026-05-02T07:39:53Z</time></trkpt><trkpt lat="43.321962076638506" lon="11.369475413759641"><ele>255.0</ele><time>2026-05-02T07:39:54Z</time></trkpt><trkpt lat="43.32201561752288" lon="11.369371898321953"><ele>256.5</ele><time>2026-05-02T07:39:55Z</time></trkpt><trkpt lat="43.32204578165844" lon="11.369283641837015"><ele>258.0</ele><time>2026-05-02T07:39:56Z</time></trkpt><trkpt lat="43.32203475335726" lon="11.369198063720859"><ele>259.5</ele><time>2026-05-02T07:39:57Z</time></trkpt><trkpt lat="43.32197736548293" lon="11.369139009565412"><ele>261.0</ele><time>2026-05-02T07:39:58Z</time></trkpt><trkpt lat="43.32189770436856" lon="11.36911972961808"><ele>261.0</ele><time>2026-05-02T07:39:59Z</time></trkpt><trkpt lat="43.32181267353167" lon="11.369176035640285"><ele>261.0</ele><time>2026-05-02T07:40:00Z</time></trkpt><trkpt lat="43.32172943870466" lon="11.369279320751646"><ele>261.0</ele><time>2026-05-02T07:40:01Z</time></trkpt><trkpt lat="43.321646905610855" lon="11.369382431892342"><ele>261.0</ele><time>2026-05-02T07:40:02Z</time></trkpt><trkpt lat="43.32155182258633" lon="11.36945310821338"><ele>261.0</ele><time>2026-05-02T07:40:03Z</time></trkpt><trkpt lat="43.32144415071691" lon="11.36942501292687"><ele>261.40000000000003</ele><time>2026-05-02T07:40:04Z</time></trkpt><trkpt lat="43.32135292854805" lon="11.369357051454063"><ele>261.8</ele><time>2026-05-02T07:40:05Z</time></trkpt><trkpt lat="43.32126214573366" lon="11.369273187838928"><ele>262.20000000000005</ele><time>2026-05-02T07:40:06Z</time></trkpt><trkpt lat="43.32118606018675" lon="11.369164867392717"><ele>262.6</ele><time>2026-05-02T07:40:07Z</time></trkpt><trkpt lat="43.321109441160296" lon="11.369072930641147"><ele>263.0</ele><time>2026-05-02T07:40:08Z</time></trkpt><trkpt lat="43.32103708990114" lon="11.368994749092774"><ele>263.0</ele><time>2026-05-02T07:40:09Z</time></trkpt><trkpt lat="43.320970628876836" lon="11.368921890588155"><ele>263.0</ele><time>2026-05-02T07:40:10Z</time></trkpt><trkpt lat="43.320932238938724" lon="11.368843800145896"><ele>263.0</ele><time>2026-05-02T07:40:11Z</time></trkpt><trkpt lat="43.32095301209809" lon="11.3687376177939"><ele>263.0</ele><time>2026-05-02T07:40:13Z</time></trkpt><trkpt lat="43.320980046089105" lon="11.368615067954185"><ele>263.0</ele><time>2026-05-02T07:40:18Z</time></trkpt><trkpt lat="43.32101261590567" lon="11.368470295396603"><ele>263.0</ele><time>2026-05-02T07:40:20Z</time></trkpt><trkpt lat="43.32104182996793" lon="11.368348852345559"><ele>263.0</ele><time>2026-05-02T07:40:22Z</time></trkpt><trkpt lat="43.32106570955099" lon="11.368219452644201"><ele>263.0</ele><time>2026-05-02T07:40:24Z</time></trkpt><trkpt lat="43.321074497464245" lon="11.368072600459353"><ele>263.0</ele><time>2026-05-02T07:40:26Z</time></trkpt><trkpt lat="43.321081620171334" lon="11.367986269485977"><ele>263.0</ele><time>2026-05-02T07:40:27Z</time></trkpt><trkpt lat="43.32109198798843" lon="11.367889331101674"><ele>263.0</ele><time>2026-05-02T07:40:28Z</time></trkpt><trkpt lat="43.32109835944947" lon="11.367785426350817"><ele>263.0</ele><time>2026-05-02T07:40:29Z</time></trkpt><trkpt lat="43.321102697329906" lon="11.367676074679148"><ele>263.8</ele><time>2026-05-02T07:40:30Z</time></trkpt><trkpt lat="43.32110678255893" lon="11.367562459726336"><ele>264.6</ele><time>2026-05-02T07:40:31Z</time></trkpt><trkpt lat="43.32111407052893" lon="11.367441853215905"><ele>265.4</ele><time>2026-05-02T07:40:32Z</time></trkpt><trkpt lat="43.32111460234847" lon="11.367313662039432"><ele>266.2</ele><time>2026-05-02T07:40:33Z</time></trkpt><trkpt lat="43.32111818852163" lon="11.367177277657495"><ele>267.0</ele><time>2026-05-02T07:40:34Z</time></trkpt><trkpt lat="43.32111563310336" lon="11.367039038786006"><ele>267.8</ele><time>2026-05-02T07:40:35Z</time></trkpt><trkpt lat="43.32111674303399" lon="11.366899022724107"><ele>268.6</ele><time>2026-05-02T07:40:36Z</time></trkpt><trkpt lat="43.32111374633895" lon="11.366755832003834"><ele>269.40000000000003</ele><time>2026-05-02T07:40:37Z</time></trkpt><trkpt lat="43.32110319064514" lon="11.366612397490819"><ele>270.2</ele><time>2026-05-02T07:40:38Z</time></trkpt><trkpt lat="43.321082222004804" lon="11.366468066251876"><ele>271.0</ele><time>2026-05-02T07:40:39Z</time></trkpt><trkpt lat="43.321055599507176" lon="11.366325425829368"><ele>271.0</ele><time>2026-05-02T07:40:40Z</time></trkpt><trkpt lat="43.321031617954574" lon="11.366180353775963"><ele>271.0</ele><time>2026-05-02T07:40:41Z</time></trkpt><trkpt lat="43.321005439229125" lon="11.366029444954833"><ele>271.0</ele><time>2026-05-02T07:40:42Z</time></trkpt><trkpt lat="43.32097721246114" lon="11.365865582072722"><ele>271.0</ele><time>2026-05-02T07:40:43Z</time></trkpt><trkpt lat="43.32094230885473" lon="11.365698187200218"><ele>271.0</ele><time>2026-05-02T07:40:44Z</time></trkpt><trkpt lat="43.32089198730999" lon="11.36553202986037"><ele>271.0</ele><time>2026-05-02T07:40:45Z</time></trkpt><trkpt lat="43.320833115942186" lon="11.365367938263201"><ele>271.0</ele><time>2026-05-02T07:40:46Z</time></trkpt><trkpt lat="43.320769518808795" lon="11.365203332549557"><ele>271.0</ele><time>2026-05-02T07:40:47Z</time></trkpt><trkpt lat="43.320701714846464" lon="11.365038451820451"><ele>271.25</ele><time>2026-05-02T07:40:48Z</time></trkpt><trkpt lat="43.32062898529027" lon="11.364876424061094"><ele>271.5</ele><time>2026-05-02T07:40:49Z</time></trkpt><trkpt lat="43.32055262615362" lon="11.364719347838559"><ele>271.75</ele><time>2026-05-02T07:40:50Z</time></trkpt><trkpt lat="43.320470329610096" lon="11.364571645488395"><ele>272.0</ele><time>2026-05-02T07:40:51Z</time></trkpt><trkpt lat="43.32038880707804" lon="11.364434998223171"><ele>272.5</ele><time>2026-05-02T07:40:52Z</time></trkpt><trkpt lat="43.320308493161484" lon="11.364302386637142"><ele>273.0</ele><time>2026-05-02T07:40:53Z</time></trkpt><trkpt lat="43.320233688063" lon="11.364173061929117"><ele>273.5</ele><time>2026-05-02T07:40:53.999Z</time></trkpt><trkpt lat="43.32015529566143" lon="11.364042086622197"><ele>274.0</ele><time>2026-05-02T07:40:54.999Z</time></trkpt><trkpt lat="43.3200766294158" lon="11.36391309531264"><ele>274.59999999999997</ele><time>2026-05-02T07:40:55.999Z</time></trkpt><trkpt lat="43.32000207888394" lon="11.363789804510791"><ele>275.2</ele><time>2026-05-02T07:40:56.999Z</time></trkpt><trkpt lat="43.319926195113574" lon="11.363677224572736"><ele>275.79999999999995</ele><time>2026-05-02T07:40:57.999Z</time></trkpt><trkpt lat="43.3198495794215" lon="11.363572011882406"><ele>276.4</ele><time>2026-05-02T07:40:58.999Z</time></trkpt><trkpt lat="43.31976987767422" lon="11.363467328881228"><ele>277.0</ele><time>2026-05-02T07:40:59.999Z</time></trkpt><trkpt lat="43.31968416486215" lon="11.363369084882866"><ele>277.0</ele><time>2026-05-02T07:41:00.999Z</time></trkpt><trkpt lat="43.31960158050173" lon="11.363256973417405"><ele>277.0</ele><time>2026-05-02T07:41:01.999Z</time></trkpt><trkpt lat="43.31952933009092" lon="11.363138307843782"><ele>277.0</ele><time>2026-05-02T07:41:02.999Z</time></trkpt><trkpt lat="43.31947071069271" lon="11.362998609810145"><ele>277.0</ele><time>2026-05-02T07:41:03.999Z</time></trkpt><trkpt lat="43.319433021167775" lon="11.362845494326068"><ele>275.25</ele><time>2026-05-02T07:41:04.999Z</time></trkpt><trkpt lat="43.31940006551195" lon="11.362691570994093"><ele>273.5</ele><time>2026-05-02T07:41:05.999Z</time></trkpt><trkpt lat="43.319346876663246" lon="11.362551740601337"><ele>271.75</ele><time>2026-05-02T07:41:06.999Z</time></trkpt><trkpt lat="43.31926900281894" lon="11.362428628342"><ele>270.0</ele><time>2026-05-02T07:41:07.999Z</time></trkpt><trkpt lat="43.31918832910336" lon="11.362310869651544"><ele>269.0</ele><time>2026-05-02T07:41:08.999Z</time></trkpt><trkpt lat="43.31910842288241" lon="11.36219581621818"><ele>268.0</ele><time>2026-05-02T07:41:09.999Z</time></trkpt><trkpt lat="43.31902639782493" lon="11.362076239034675"><ele>267.0</ele><time>2026-05-02T07:41:10.999Z</time></trkpt><trkpt lat="43.3189502839604" lon="11.36195642881788"><ele>266.0</ele><time>2026-05-02T07:41:11.999Z</time></trkpt><trkpt lat="43.31887703110842" lon="11.361838240980882"><ele>266.0</ele><time>2026-05-02T07:41:12.999Z</time></trkpt><trkpt lat="43.318805983351936" lon="11.361718916444453"><ele>266.0</ele><time>2026-05-02T07:41:13.999Z</time></trkpt><trkpt lat="43.31873927163728" lon="11.361597225803377"><ele>266.0</ele><time>2026-05-02T07:41:14.999Z</time></trkpt><trkpt lat="43.318680488908576" lon="11.361470061084352"><ele>266.0</ele><time>2026-05-02T07:41:15.999Z</time></trkpt><trkpt lat="43.318633234025" lon="11.361337150275517"><ele>266.0</ele><time>2026-05-02T07:41:16.999Z</time></trkpt><trkpt lat="43.318594732128396" lon="11.361202124900908"><ele>264.40000000000003</ele><time>2026-05-02T07:41:17.999Z</time></trkpt><trkpt lat="43.31855721774337" lon="11.361071191869033"><ele>262.8</ele><time>2026-05-02T07:41:18.999Z</time></trkpt><trkpt lat="43.318512234802" lon="11.360945056721459"><ele>261.20000000000005</ele><time>2026-05-02T07:41:19.999Z</time></trkpt><trkpt lat="43.318460797774875" lon="11.360824800215251"><ele>259.6</ele><time>2026-05-02T07:41:20.999Z</time></trkpt><trkpt lat="43.318406561205045" lon="11.36070796755172"><ele>258.0</ele><time>2026-05-02T07:41:21.999Z</time></trkpt><trkpt lat="43.31835316954582" lon="11.360595308600955"><ele>256.6</ele><time>2026-05-02T07:41:22.999Z</time></trkpt><trkpt lat="43.318304930276355" lon="11.360478831533268"><ele>255.20000000000002</ele><time>2026-05-02T07:41:23.999Z</time></trkpt><trkpt lat="43.31825880530284" lon="11.360364676489286"><ele>253.8</ele><time>2026-05-02T07:41:24.999Z</time></trkpt><trkpt lat="43.31820506052336" lon="11.360247867389813"><ele>252.4</ele><time>2026-05-02T07:41:25.999Z</time></trkpt><trkpt lat="43.31814609546962" lon="11.36013087636108"><ele>251.0</ele><time>2026-05-02T07:41:26.999Z</time></trkpt><trkpt lat="43.31808053861052" lon="11.360022946783468"><ele>251.0</ele><time>2026-05-02T07:41:27.999Z</time></trkpt><trkpt lat="43.31800714971881" lon="11.359916888184932"><ele>251.00000000000003</ele><time>2026-05-02T07:41:28.999Z</time></trkpt><trkpt lat="43.31794040399463" lon="11.359808192059175"><ele>251.00000000000003</ele><time>2026-05-02T07:41:29.999Z</time></trkpt><trkpt lat="43.317883895138515" lon="11.359689954367648"><ele>251.0</ele><time>2026-05-02T07:41:30.999Z</time></trkpt><trkpt lat="43.31783738785521" lon="11.359559869819902"><ele>251.0</ele><time>2026-05-02T07:41:31.999Z</time></trkpt><trkpt lat="43.31779658093951" lon="11.359423402379694"><ele>249.0</ele><time>2026-05-02T07:41:32.999Z</time></trkpt><trkpt lat="43.31776643464059" lon="11.359286376340151"><ele>247.00000000000003</ele><time>2026-05-02T07:41:33.999Z</time></trkpt><trkpt lat="43.31775134309957" lon="11.359148740883422"><ele>245.00000000000003</ele><time>2026-05-02T07:41:34.999Z</time></trkpt><trkpt lat="43.317727249138514" lon="11.35901100190347"><ele>243.0</ele><time>2026-05-02T07:41:35.999Z</time></trkpt><trkpt lat="43.317699151523506" lon="11.358889014605362"><ele>241.0</ele><time>2026-05-02T07:41:36.999Z</time></trkpt><trkpt lat="43.317660602900716" lon="11.358757466103402"><ele>240.20000000000002</ele><time>2026-05-02T07:41:37.999Z</time></trkpt><trkpt lat="43.31760999430675" lon="11.358633260261012"><ele>239.40000000000003</ele><time>2026-05-02T07:41:38.999Z</time></trkpt><trkpt lat="43.317551066337266" lon="11.358507740030579"><ele>238.6</ele><time>2026-05-02T07:41:40Z</time></trkpt><trkpt lat="43.31746784701414" lon="11.358414488143902"><ele>237.8</ele><time>2026-05-02T07:41:41Z</time></trkpt><trkpt lat="43.31737843181149" lon="11.358344018819192"><ele>237.0</ele><time>2026-05-02T07:41:42Z</time></trkpt><trkpt lat="43.31728489019093" lon="11.35830926789554"><ele>235.6</ele><time>2026-05-02T07:41:43Z</time></trkpt><trkpt lat="43.3171796891558" lon="11.358294257343683"><ele>234.2</ele><time>2026-05-02T07:41:44Z</time></trkpt><trkpt lat="43.31707469905859" lon="11.358298549652355"><ele>232.8</ele><time>2026-05-02T07:41:45Z</time></trkpt><trkpt lat="43.31697092461612" lon="11.358309931239708"><ele>231.4</ele><time>2026-05-02T07:41:46Z</time></trkpt><trkpt lat="43.31686980162379" lon="11.358302747206828"><ele>230.0</ele><time>2026-05-02T07:41:47Z</time></trkpt><trkpt lat="43.31676892542801" lon="11.358274502912321"><ele>230.0</ele><time>2026-05-02T07:41:48Z</time></trkpt><trkpt lat="43.31668488037185" lon="11.358189241763334"><ele>230.0</ele><time>2026-05-02T07:41:49Z</time></trkpt><trkpt lat="43.3166051640307" lon="11.358092715750795"><ele>230.0</ele><time>2026-05-02T07:41:50Z</time></trkpt><trkpt lat="43.31652062288489" lon="11.357994162938958"><ele>230.0</ele><time>2026-05-02T07:41:51Z</time></trkpt><trkpt lat="43.31646032996843" lon="11.357861683300472"><ele>230.0</ele><time>2026-05-02T07:41:52Z</time></trkpt><trkpt lat="43.31639969523584" lon="11.357739511153916"><ele>229.4</ele><time>2026-05-02T07:41:53Z</time></trkpt><trkpt lat="43.31633959635829" lon="11.357631420067527"><ele>228.8</ele><time>2026-05-02T07:41:54Z</time></trkpt><trkpt lat="43.316276276343196" lon="11.357536220224885"><ele>228.2</ele><time>2026-05-02T07:41:55Z</time></trkpt><trkpt lat="43.31621531999489" lon="11.357449246710155"><ele>227.6</ele><time>2026-05-02T07:41:56Z</time></trkpt><trkpt lat="43.31615460204767" lon="11.35735531063053"><ele>227.0</ele><time>2026-05-02T07:41:57Z</time></trkpt><trkpt lat="43.31610625552272" lon="11.35723372774265"><ele>226.8</ele><time>2026-05-02T07:41:58Z</time></trkpt><trkpt lat="43.31607260810367" lon="11.357100271233811"><ele>226.6</ele><time>2026-05-02T07:41:59Z</time></trkpt><trkpt lat="43.316050085265466" lon="11.356956116737317"><ele>226.40000000000003</ele><time>2026-05-02T07:42:00Z</time></trkpt><trkpt lat="43.316038903578686" lon="11.356806162213518"><ele>226.20000000000002</ele><time>2026-05-02T07:42:01Z</time></trkpt><trkpt lat="43.31603398589723" lon="11.356671861937468"><ele>226.0</ele><time>2026-05-02T07:42:02Z</time></trkpt><trkpt lat="43.31603839399547" lon="11.35658044587884"><ele>225.99999999999997</ele><time>2026-05-02T07:42:03Z</time></trkpt><trkpt lat="43.3160317517772" lon="11.356426951073406"><ele>226.0</ele><time>2026-05-02T07:42:05Z</time></trkpt><trkpt lat="43.316019301934396" lon="11.356328729612228"><ele>226.0</ele><time>2026-05-02T07:42:07Z</time></trkpt><trkpt lat="43.31602066376891" lon="11.356223596242058"><ele>226.0</ele><time>2026-05-02T07:42:10Z</time></trkpt><trkpt lat="43.316041896171605" lon="11.356107721110078"><ele>225.99999999999997</ele><time>2026-05-02T07:42:13Z</time></trkpt><trkpt lat="43.31609536372995" lon="11.356006735041792"><ele>226.0</ele><time>2026-05-02T07:42:15Z</time></trkpt><trkpt lat="43.31615898187116" lon="11.355910978963037"><ele>225.75</ele><time>2026-05-02T07:42:17Z</time></trkpt><trkpt lat="43.31623062857801" lon="11.355800972458042"><ele>225.5</ele><time>2026-05-02T07:42:19Z</time></trkpt><trkpt lat="43.31630310336796" lon="11.355682190640279"><ele>225.25</ele><time>2026-05-02T07:42:21Z</time></trkpt><trkpt lat="43.31637366873559" lon="11.355541872917195"><ele>225.0</ele><time>2026-05-02T07:42:23Z</time></trkpt><trkpt lat="43.31638917902573" lon="11.355384344650899"><ele>225.4</ele><time>2026-05-02T07:42:25Z</time></trkpt><trkpt lat="43.316314245149876" lon="11.355252599701753"><ele>225.8</ele><time>2026-05-02T07:42:27Z</time></trkpt><trkpt lat="43.316249032971136" lon="11.355224741467335"><ele>226.2</ele><time>2026-05-02T07:42:28Z</time></trkpt><trkpt lat="43.316132356744134" lon="11.355277722611431"><ele>226.6</ele><time>2026-05-02T07:42:30Z</time></trkpt><trkpt lat="43.31609427474285" lon="11.355362428173516"><ele>227.0</ele><time>2026-05-02T07:42:31Z</time></trkpt><trkpt lat="43.31607251199366" lon="11.355472212334963"><ele>226.71428571428572</ele><time>2026-05-02T07:42:32Z</time></trkpt><trkpt lat="43.31606841959718" lon="11.355578294823614"><ele>226.42857142857144</ele><time>2026-05-02T07:42:33Z</time></trkpt><trkpt lat="43.31606408017373" lon="11.355680103012482"><ele>226.14285714285717</ele><time>2026-05-02T07:42:34Z</time></trkpt><trkpt lat="43.31603877520488" lon="11.355772225807781"><ele>225.8571428571429</ele><time>2026-05-02T07:42:35Z</time></trkpt><trkpt lat="43.31599190361009" lon="11.355858505662415"><ele>225.57142857142858</ele><time>2026-05-02T07:42:36Z</time></trkpt><trkpt lat="43.31593684684934" lon="11.355933830410965"><ele>225.28571428571433</ele><time>2026-05-02T07:42:37Z</time></trkpt><trkpt lat="43.31588184074501" lon="11.355985360358599"><ele>225.00000000000003</ele><time>2026-05-02T07:42:38Z</time></trkpt><trkpt lat="43.31581370549948" lon="11.356061214728053"><ele>225.0</ele><time>2026-05-02T07:42:40Z</time></trkpt><trkpt lat="43.315706522503795" lon="11.35593049470172"><ele>225.0</ele><time>2026-05-02T07:42:41Z</time></trkpt><trkpt lat="43.31564705560895" lon="11.3558737070964"><ele>225.0</ele><time>2026-05-02T07:42:42Z</time></trkpt><trkpt lat="43.315578348689094" lon="11.355840093979989"><ele>225.0</ele><time>2026-05-02T07:42:43Z</time></trkpt><trkpt lat="43.315505307439864" lon="11.35581997317058"><ele>225.0</ele><time>2026-05-02T07:42:44Z</time></trkpt><trkpt lat="43.315434200593394" lon="11.3558017373277"><ele>225.0</ele><time>2026-05-02T07:42:45Z</time></trkpt><trkpt lat="43.31535990560998" lon="11.35578943747499"><ele>225.66666666666666</ele><time>2026-05-02T07:42:46Z</time></trkpt><trkpt lat="43.31528228055984" lon="11.355781003255856"><ele>226.33333333333331</ele><time>2026-05-02T07:42:47Z</time></trkpt><trkpt lat="43.315205190753375" lon="11.355795057222348"><ele>227.0</ele><time>2026-05-02T07:42:48Z</time></trkpt><trkpt lat="43.315127490162055" lon="11.355837931888374"><ele>227.66666666666666</ele><time>2026-05-02T07:42:49Z</time></trkpt><trkpt lat="43.31505318348231" lon="11.355911515754217"><ele>228.33333333333331</ele><time>2026-05-02T07:42:50Z</time></trkpt><trkpt lat="43.31498472326263" lon="11.355994252237606"><ele>229.0</ele><time>2026-05-02T07:42:51Z</time></trkpt><trkpt lat="43.31490400980644" lon="11.356044562453043"><ele>228.99999999999997</ele><time>2026-05-02T07:42:52Z</time></trkpt><trkpt lat="43.31484056331867" lon="11.356129417826718"><ele>229.0</ele><time>2026-05-02T07:42:53Z</time></trkpt><trkpt lat="43.31476872466739" lon="11.356194070292178"><ele>229.0</ele><time>2026-05-02T07:42:54Z</time></trkpt><trkpt lat="43.31469885175117" lon="11.356257664206925"><ele>229.0</ele><time>2026-05-02T07:42:55Z</time></trkpt><trkpt lat="43.31462922406192" lon="11.35632287272994"><ele>228.99999999999997</ele><time>2026-05-02T07:42:55.999Z</time></trkpt><trkpt lat="43.31457310074373" lon="11.35637463145108"><ele>229.0</ele><time>2026-05-02T07:42:56.999Z</time></trkpt><trkpt lat="43.31446357461684" lon="11.356399552110437"><ele>231.33333333333331</ele><time>2026-05-02T07:42:58.999Z</time></trkpt><trkpt lat="43.31442670134139" lon="11.356325113644552"><ele>233.66666666666666</ele><time>2026-05-02T07:42:59.999Z</time></trkpt><trkpt lat="43.31442107946417" lon="11.356210862187945"><ele>236.0</ele><time>2026-05-02T07:43:00.999Z</time></trkpt><trkpt lat="43.31445355126278" lon="11.356091158724462"><ele>238.33333333333331</ele><time>2026-05-02T07:43:01.999Z</time></trkpt><trkpt lat="43.31451134247064" lon="11.355989436522885"><ele>240.66666666666666</ele><time>2026-05-02T07:43:02.999Z</time></trkpt><trkpt lat="43.31455854068376" lon="11.355879472458868"><ele>243.0</ele><time>2026-05-02T07:43:03.999Z</time></trkpt><trkpt lat="43.314590905256104" lon="11.355759367567325"><ele>243.0</ele><time>2026-05-02T07:43:04.999Z</time></trkpt><trkpt lat="43.314619323660004" lon="11.355631903534071"><ele>243.0</ele><time>2026-05-02T07:43:05.999Z</time></trkpt><trkpt lat="43.31463869335146" lon="11.355504445252405"><ele>243.0</ele><time>2026-05-02T07:43:06.999Z</time></trkpt><trkpt lat="43.31465260077894" lon="11.355380079621058"><ele>243.0</ele><time>2026-05-02T07:43:07.999Z</time></trkpt><trkpt lat="43.31466527113106" lon="11.355256829920641"><ele>243.0</ele><time>2026-05-02T07:43:08.999Z</time></trkpt><trkpt lat="43.31467149928235" lon="11.355134914722004"><ele>244.83333333333334</ele><time>2026-05-02T07:43:09.999Z</time></trkpt><trkpt lat="43.314675495385124" lon="11.355012917190598"><ele>246.66666666666669</ele><time>2026-05-02T07:43:10.999Z</time></trkpt><trkpt lat="43.31467613945021" lon="11.354892248807737"><ele>248.5</ele><time>2026-05-02T07:43:11.999Z</time></trkpt><trkpt lat="43.314666399382226" lon="11.354776205041459"><ele>250.33333333333334</ele><time>2026-05-02T07:43:12.999Z</time></trkpt><trkpt lat="43.31465127805698" lon="11.354664785669042"><ele>252.16666666666669</ele><time>2026-05-02T07:43:13.999Z</time></trkpt><trkpt lat="43.314626479583836" lon="11.354555948945322"><ele>254.0</ele><time>2026-05-02T07:43:14.999Z</time></trkpt><trkpt lat="43.31458850805891" lon="11.35445186709224"><ele>254.16666666666669</ele><time>2026-05-02T07:43:15.999Z</time></trkpt><trkpt lat="43.31453629032955" lon="11.354362906940043"><ele>254.33333333333334</ele><time>2026-05-02T07:43:16.999Z</time></trkpt><trkpt lat="43.314467878326006" lon="11.354287870618293"><ele>254.5</ele><time>2026-05-02T07:43:17.999Z</time></trkpt><trkpt lat="43.31440265396403" lon="11.354206093171864"><ele>254.66666666666669</ele><time>2026-05-02T07:43:18.999Z</time></trkpt><trkpt lat="43.314338756647565" lon="11.35411486417086"><ele>254.83333333333334</ele><time>2026-05-02T07:43:19.999Z</time></trkpt><trkpt lat="43.31429832229517" lon="11.353995227670636"><ele>255.0</ele><time>2026-05-02T07:43:20.999Z</time></trkpt><trkpt lat="43.31425932662033" lon="11.353871211297431"><ele>255.0</ele><time>2026-05-02T07:43:21.999Z</time></trkpt><trkpt lat="43.31420231480974" lon="11.35376849092132"><ele>255.0</ele><time>2026-05-02T07:43:22.999Z</time></trkpt><trkpt lat="43.314150798153" lon="11.353668868504052"><ele>255.0</ele><time>2026-05-02T07:43:23.999Z</time></trkpt><trkpt lat="43.314081592298265" lon="11.353583562959892"><ele>255.0</ele><time>2026-05-02T07:43:24.999Z</time></trkpt><trkpt lat="43.31400825499997" lon="11.353499632272115"><ele>255.0</ele><time>2026-05-02T07:43:25.999Z</time></trkpt><trkpt lat="43.31392847856166" lon="11.353415875489116"><ele>257.8</ele><time>2026-05-02T07:43:26.999Z</time></trkpt><trkpt lat="43.31384717884567" lon="11.35332518465503"><ele>260.6</ele><time>2026-05-02T07:43:27.999Z</time></trkpt><trkpt lat="43.31377425717013" lon="11.353207356258707"><ele>263.4</ele><time>2026-05-02T07:43:28.999Z</time></trkpt><trkpt lat="43.31368242021605" lon="11.353117149836818"><ele>266.2</ele><time>2026-05-02T07:43:29.999Z</time></trkpt><trkpt lat="43.31360848263696" lon="11.353011276706427"><ele>269.0</ele><time>2026-05-02T07:43:30.999Z</time></trkpt><trkpt lat="43.31353274403677" lon="11.352907995637993"><ele>269.0</ele><time>2026-05-02T07:43:31.999Z</time></trkpt><trkpt lat="43.31346259942683" lon="11.3528062175094"><ele>269.0</ele><time>2026-05-02T07:43:32.999Z</time></trkpt><trkpt lat="43.31339537068973" lon="11.352700374555079"><ele>269.0</ele><time>2026-05-02T07:43:33.999Z</time></trkpt><trkpt lat="43.31333477817295" lon="11.352595420737813"><ele>269.0</ele><time>2026-05-02T07:43:34.999Z</time></trkpt><trkpt lat="43.313274411347514" lon="11.352486212977281"><ele>269.0</ele><time>2026-05-02T07:43:35.999Z</time></trkpt><trkpt lat="43.31322070762593" lon="11.352373411849142"><ele>269.0</ele><time>2026-05-02T07:43:36.999Z</time></trkpt><trkpt lat="43.31316575047744" lon="11.35226597741609"><ele>269.0</ele><time>2026-05-02T07:43:37.999Z</time></trkpt><trkpt lat="43.31310963509579" lon="11.352163286958667"><ele>269.0</ele><time>2026-05-02T07:43:38.999Z</time></trkpt><trkpt lat="43.313056598815166" lon="11.352052735680115"><ele>269.0</ele><time>2026-05-02T07:43:39.999Z</time></trkpt><trkpt lat="43.313005403888035" lon="11.351935937658093"><ele>269.0</ele><time>2026-05-02T07:43:40.999Z</time></trkpt><trkpt lat="43.312957119905704" lon="11.351805241048288"><ele>270.4</ele><time>2026-05-02T07:43:41.999Z</time></trkpt><trkpt lat="43.3129129576103" lon="11.351666016167298"><ele>271.79999999999995</ele><time>2026-05-02T07:43:42.999Z</time></trkpt><trkpt lat="43.312883991941085" lon="11.351516082478875"><ele>273.20000000000005</ele><time>2026-05-02T07:43:43.999Z</time></trkpt><trkpt lat="43.31285109349782" lon="11.351369205151132"><ele>274.6</ele><time>2026-05-02T07:43:44.999Z</time></trkpt><trkpt lat="43.312819025108084" lon="11.351220847356204"><ele>276.0</ele><time>2026-05-02T07:43:46Z</time></trkpt><trkpt lat="43.312796573861114" lon="11.351073908213209"><ele>276.6</ele><time>2026-05-02T07:43:47Z</time></trkpt><trkpt lat="43.312765611123055" lon="11.350933029794101"><ele>277.20000000000005</ele><time>2026-05-02T07:43:48Z</time></trkpt><trkpt lat="43.31272844500042" lon="11.350790873039866"><ele>277.79999999999995</ele><time>2026-05-02T07:43:49Z</time></trkpt><trkpt lat="43.312690601101764" lon="11.350645086912598"><ele>278.4</ele><time>2026-05-02T07:43:50Z</time></trkpt><trkpt lat="43.31264249063883" lon="11.350525713671345"><ele>279.0</ele><time>2026-05-02T07:43:51Z</time></trkpt><trkpt lat="43.31260654740307" lon="11.350411991126318"><ele>278.99999999999994</ele><time>2026-05-02T07:43:52Z</time></trkpt><trkpt lat="43.3125699051666" lon="11.350301025338842"><ele>279.0</ele><time>2026-05-02T07:43:53Z</time></trkpt><trkpt lat="43.31253179802677" lon="11.350210352548617"><ele>279.0</ele><time>2026-05-02T07:43:54Z</time></trkpt><trkpt lat="43.312504426778204" lon="11.35012493035422"><ele>279.0</ele><time>2026-05-02T07:43:55Z</time></trkpt><trkpt lat="43.312482795953365" lon="11.350030206743662"><ele>279.0</ele><time>2026-05-02T07:43:56Z</time></trkpt><trkpt lat="43.312477383529675" lon="11.34993935741642"><ele>278.99999999999994</ele><time>2026-05-02T07:43:57Z</time></trkpt><trkpt lat="43.31248786737057" lon="11.349845978948348"><ele>279.0</ele><time>2026-05-02T07:43:58Z</time></trkpt><trkpt lat="43.31251551110611" lon="11.349765829780642"><ele>278.1666666666667</ele><time>2026-05-02T07:43:59Z</time></trkpt><trkpt lat="43.31254752639669" lon="11.349682596841285"><ele>277.3333333333333</ele><time>2026-05-02T07:44:00Z</time></trkpt><trkpt lat="43.3125936676653" lon="11.349601599488084"><ele>276.5</ele><time>2026-05-02T07:44:01Z</time></trkpt><trkpt lat="43.31264293463532" lon="11.349502514629295"><ele>275.66666666666663</ele><time>2026-05-02T07:44:02Z</time></trkpt><trkpt lat="43.31268313270901" lon="11.349395088342773"><ele>274.8333333333333</ele><time>2026-05-02T07:44:03Z</time></trkpt><trkpt lat="43.31271135583185" lon="11.349295141304026"><ele>274.0</ele><time>2026-05-02T07:44:04Z</time></trkpt><trkpt lat="43.31273860878611" lon="11.349195592008675"><ele>274.0</ele><time>2026-05-02T07:44:05Z</time></trkpt><trkpt lat="43.312760569483224" lon="11.349105055664964"><ele>274.0</ele><time>2026-05-02T07:44:06Z</time></trkpt><trkpt lat="43.312758387635945" lon="11.349013459517213"><ele>274.0</ele><time>2026-05-02T07:44:07Z</time></trkpt><trkpt lat="43.312733287282086" lon="11.348922742142808"><ele>274.0</ele><time>2026-05-02T07:44:08Z</time></trkpt><trkpt lat="43.31272770665314" lon="11.348810473896098"><ele>274.0</ele><time>2026-05-02T07:44:09Z</time></trkpt><trkpt lat="43.312697916407714" lon="11.348685395195856"><ele>274.0</ele><time>2026-05-02T07:44:10Z</time></trkpt><trkpt lat="43.312647623190756" lon="11.348572863430789"><ele>273.3333333333333</ele><time>2026-05-02T07:44:11Z</time></trkpt><trkpt lat="43.312608173105595" lon="11.348462400090924"><ele>272.66666666666663</ele><time>2026-05-02T07:44:12Z</time></trkpt><trkpt lat="43.31256090533411" lon="11.348374922021113"><ele>272.0</ele><time>2026-05-02T07:44:13Z</time></trkpt><trkpt lat="43.3125078353332" lon="11.348284108275603"><ele>271.3333333333333</ele><time>2026-05-02T07:44:14Z</time></trkpt><trkpt lat="43.312453559544224" lon="11.348203948965066"><ele>270.6666666666667</ele><time>2026-05-02T07:44:15Z</time></trkpt><trkpt lat="43.31240420665762" lon="11.348123881551386"><ele>270.0</ele><time>2026-05-02T07:44:16Z</time></trkpt><trkpt lat="43.312349287159236" lon="11.348039572501346"><ele>269.1666666666667</ele><time>2026-05-02T07:44:18Z</time></trkpt><trkpt lat="43.31229716317853" lon="11.347957040484129"><ele>268.3333333333333</ele><time>2026-05-02T07:44:21Z</time></trkpt><trkpt lat="43.312210444606905" lon="11.348118987186755"><ele>267.5</ele><time>2026-05-02T07:44:23Z</time></trkpt><trkpt lat="43.31216883670723" lon="11.34819321688339"><ele>266.66666666666663</ele><time>2026-05-02T07:44:24Z</time></trkpt><trkpt lat="43.31213425504301" lon="11.348278180376603"><ele>265.8333333333333</ele><time>2026-05-02T07:44:25Z</time></trkpt><trkpt lat="43.31211053877949" lon="11.348374501502633"><ele>265.0</ele><time>2026-05-02T07:44:26Z</time></trkpt><trkpt lat="43.312073431766734" lon="11.34846907969919"><ele>265.0</ele><time>2026-05-02T07:44:27Z</time></trkpt><trkpt lat="43.312037103233166" lon="11.348577904605035"><ele>265.0</ele><time>2026-05-02T07:44:28Z</time></trkpt><trkpt lat="43.312010849837726" lon="11.34869059491932"><ele>265.0</ele><time>2026-05-02T07:44:29Z</time></trkpt><trkpt lat="43.311984992153405" lon="11.348816185499363"><ele>265.0</ele><time>2026-05-02T07:44:30Z</time></trkpt><trkpt lat="43.31195364017883" lon="11.348943757937258"><ele>265.0</ele><time>2026-05-02T07:44:31Z</time></trkpt><trkpt lat="43.311919269568165" lon="11.349074635994132"><ele>264.4</ele><time>2026-05-02T07:44:32Z</time></trkpt><trkpt lat="43.31187518416811" lon="11.349208852206285"><ele>263.8</ele><time>2026-05-02T07:44:33Z</time></trkpt><trkpt lat="43.311826000902336" lon="11.349338453439437"><ele>263.2</ele><time>2026-05-02T07:44:34Z</time></trkpt><trkpt lat="43.31176356354334" lon="11.349466371970644"><ele>262.6</ele><time>2026-05-02T07:44:35Z</time></trkpt><trkpt lat="43.31168900786421" lon="11.349577176679128"><ele>262.0</ele><time>2026-05-02T07:44:36Z</time></trkpt><trkpt lat="43.31159752387359" lon="11.349674494204645"><ele>262.0</ele><time>2026-05-02T07:44:37Z</time></trkpt><trkpt lat="43.31149933901656" lon="11.34974841521865"><ele>262.0</ele><time>2026-05-02T07:44:38Z</time></trkpt><trkpt lat="43.31139952494571" lon="11.349807296228764"><ele>262.0</ele><time>2026-05-02T07:44:39Z</time></trkpt><trkpt lat="43.31130563862276" lon="11.349855515431203"><ele>262.0</ele><time>2026-05-02T07:44:40Z</time></trkpt><trkpt lat="43.31121012900517" lon="11.349872487861283"><ele>262.0</ele><time>2026-05-02T07:44:41Z</time></trkpt><trkpt lat="43.311122813601216" lon="11.34990290825802"><ele>262.0</ele><time>2026-05-02T07:44:42Z</time></trkpt><trkpt lat="43.3110396150397" lon="11.349927821065112"><ele>262.0</ele><time>2026-05-02T07:44:43Z</time></trkpt><trkpt lat="43.310956695087796" lon="11.349952656711173"><ele>262.0</ele><time>2026-05-02T07:44:44Z</time></trkpt><trkpt lat="43.3108854098227" lon="11.349976677809286"><ele>262.0</ele><time>2026-05-02T07:44:45Z</time></trkpt><trkpt lat="43.310817689476316" lon="11.35002051575042"><ele>262.0</ele><time>2026-05-02T07:44:46Z</time></trkpt><trkpt lat="43.31074588355358" lon="11.350044660718691"><ele>262.0</ele><time>2026-05-02T07:44:47Z</time></trkpt><trkpt lat="43.31067440287112" lon="11.350077330756536"><ele>262.0</ele><time>2026-05-02T07:44:48Z</time></trkpt><trkpt lat="43.310601002200144" lon="11.350114482285223"><ele>262.0</ele><time>2026-05-02T07:44:49Z</time></trkpt><trkpt lat="43.310530417919644" lon="11.350155862769135"><ele>262.0</ele><time>2026-05-02T07:44:50Z</time></trkpt><trkpt lat="43.31047382588999" lon="11.35020432249961"><ele>262.0</ele><time>2026-05-02T07:44:51Z</time></trkpt><trkpt lat="43.31041755718773" lon="11.350250475742804"><ele>262.0</ele><time>2026-05-02T07:44:52Z</time></trkpt><trkpt lat="43.310359103458644" lon="11.350300250570303"><ele>262.0</ele><time>2026-05-02T07:44:53Z</time></trkpt><trkpt lat="43.310298790107616" lon="11.350365122190922"><ele>262.0</ele><time>2026-05-02T07:44:54Z</time></trkpt><trkpt lat="43.31023395225196" lon="11.350436591720088"><ele>262.0</ele><time>2026-05-02T07:44:55Z</time></trkpt><trkpt lat="43.31017106407455" lon="11.35052425248082"><ele>262.0</ele><time>2026-05-02T07:44:56Z</time></trkpt><trkpt lat="43.31011521987018" lon="11.35060650046443"><ele>262.0</ele><time>2026-05-02T07:44:57Z</time></trkpt><trkpt lat="43.310061530689154" lon="11.350681734077005"><ele>262.0</ele><time>2026-05-02T07:44:57.999Z</time></trkpt><trkpt lat="43.31000100930592" lon="11.350751280288554"><ele>262.0</ele><time>2026-05-02T07:44:58.999Z</time></trkpt><trkpt lat="43.309945087512155" lon="11.350833363215546"><ele>262.0</ele><time>2026-05-02T07:44:59.999Z</time></trkpt><trkpt lat="43.30989276638712" lon="11.350920916505695"><ele>261.8</ele><time>2026-05-02T07:45:00.999Z</time></trkpt><trkpt lat="43.30983943462269" lon="11.35101243838406"><ele>261.6</ele><time>2026-05-02T07:45:01.999Z</time></trkpt><trkpt lat="43.309788416656126" lon="11.351120290366607"><ele>261.40000000000003</ele><time>2026-05-02T07:45:02.999Z</time></trkpt><trkpt lat="43.30973803051966" lon="11.35123333570257"><ele>261.2</ele><time>2026-05-02T07:45:03.999Z</time></trkpt><trkpt lat="43.30969043028389" lon="11.351353359837992"><ele>261.0</ele><time>2026-05-02T07:45:04.999Z</time></trkpt><trkpt lat="43.309648303184545" lon="11.351474945282057"><ele>261.8</ele><time>2026-05-02T07:45:05.999Z</time></trkpt><trkpt lat="43.30961280226617" lon="11.351605424832206"><ele>262.6</ele><time>2026-05-02T07:45:06.999Z</time></trkpt><trkpt lat="43.30958141497467" lon="11.351742006468456"><ele>263.4</ele><time>2026-05-02T07:45:07.999Z</time></trkpt><trkpt lat="43.309552611305165" lon="11.351879183803495"><ele>264.2</ele><time>2026-05-02T07:45:08.999Z</time></trkpt><trkpt lat="43.30952397801518" lon="11.352017529221536"><ele>265.0</ele><time>2026-05-02T07:45:09.999Z</time></trkpt><trkpt lat="43.30949828236274" lon="11.352158999634863"><ele>264.8</ele><time>2026-05-02T07:45:10.999Z</time></trkpt><trkpt lat="43.309471535453326" lon="11.352303935625594"><ele>264.6</ele><time>2026-05-02T07:45:11.999Z</time></trkpt><trkpt lat="43.309443928472604" lon="11.35244818779779"><ele>264.4</ele><time>2026-05-02T07:45:12.999Z</time></trkpt><trkpt lat="43.309419582722654" lon="11.352592729650334"><ele>264.2</ele><time>2026-05-02T07:45:13.999Z</time></trkpt><trkpt lat="43.3093954068042" lon="11.35274103018108"><ele>264.0</ele><time>2026-05-02T07:45:14.999Z</time></trkpt><trkpt lat="43.309372015834796" lon="11.352888872225648"><ele>264.0</ele><time>2026-05-02T07:45:15.999Z</time></trkpt><trkpt lat="43.309350521237654" lon="11.353029777799522"><ele>264.0</ele><time>2026-05-02T07:45:16.999Z</time></trkpt><trkpt lat="43.30932876389639" lon="11.353167798459204"><ele>264.0</ele><time>2026-05-02T07:45:17.999Z</time></trkpt><trkpt lat="43.30930481521765" lon="11.353301734649248"><ele>264.0</ele><time>2026-05-02T07:45:18.999Z</time></trkpt><trkpt lat="43.30927910576" lon="11.353426414548089"><ele>264.0</ele><time>2026-05-02T07:45:19.999Z</time></trkpt><trkpt lat="43.309257392495375" lon="11.353538466483023"><ele>264.2</ele><time>2026-05-02T07:45:20.999Z</time></trkpt><trkpt lat="43.30925180935132" lon="11.353655373550932"><ele>264.4</ele><time>2026-05-02T07:45:21.999Z</time></trkpt><trkpt lat="43.309248657694866" lon="11.353776878345045"><ele>264.6</ele><time>2026-05-02T07:45:22.999Z</time></trkpt><trkpt lat="43.30924284755266" lon="11.353910961042654"><ele>264.8</ele><time>2026-05-02T07:45:23.999Z</time></trkpt><trkpt lat="43.309239034888684" lon="11.354043551463317"><ele>265.0</ele><time>2026-05-02T07:45:24.999Z</time></trkpt><trkpt lat="43.30923715946051" lon="11.354185027737111"><ele>264.6</ele><time>2026-05-02T07:45:25.999Z</time></trkpt><trkpt lat="43.30923020925333" lon="11.35433079518843"><ele>264.2</ele><time>2026-05-02T07:45:26.999Z</time></trkpt><trkpt lat="43.30922574039519" lon="11.354477096501098"><ele>263.8</ele><time>2026-05-02T07:45:27.999Z</time></trkpt><trkpt lat="43.30922152228676" lon="11.354613141280884"><ele>263.4</ele><time>2026-05-02T07:45:28.999Z</time></trkpt><trkpt lat="43.30922078903945" lon="11.354741885686481"><ele>263.0</ele><time>2026-05-02T07:45:29.999Z</time></trkpt><trkpt lat="43.30922495074331" lon="11.35486560215707"><ele>263.0</ele><time>2026-05-02T07:45:30.999Z</time></trkpt><trkpt lat="43.30923721614479" lon="11.354980576030684"><ele>263.0</ele><time>2026-05-02T07:45:31.999Z</time></trkpt><trkpt lat="43.30925197839459" lon="11.355087894287658"><ele>263.0</ele><time>2026-05-02T07:45:32.999Z</time></trkpt><trkpt lat="43.30926401011342" lon="11.355194944503912"><ele>263.0</ele><time>2026-05-02T07:45:33.999Z</time></trkpt><trkpt lat="43.30928602712541" lon="11.355303066246258"><ele>263.0</ele><time>2026-05-02T07:45:34.999Z</time></trkpt><trkpt lat="43.30931052450089" lon="11.355410904530496"><ele>263.0</ele><time>2026-05-02T07:45:35.999Z</time></trkpt><trkpt lat="43.30933809451243" lon="11.355516426766098"><ele>262.6</ele><time>2026-05-02T07:45:36.999Z</time></trkpt><trkpt lat="43.30936779412985" lon="11.355627133934767"><ele>262.20000000000005</ele><time>2026-05-02T07:45:37.999Z</time></trkpt><trkpt lat="43.309399730316144" lon="11.355744716814927"><ele>261.8</ele><time>2026-05-02T07:45:38.999Z</time></trkpt><trkpt lat="43.309428563538034" lon="11.355869271922199"><ele>261.40000000000003</ele><time>2026-05-02T07:45:39.999Z</time></trkpt><trkpt lat="43.309459666706154" lon="11.355993517009974"><ele>261.0</ele><time>2026-05-02T07:45:40.999Z</time></trkpt><trkpt lat="43.30948517817108" lon="11.356122137439066"><ele>261.0</ele><time>2026-05-02T07:45:41.999Z</time></trkpt><trkpt lat="43.30951250464334" lon="11.356252693515478"><ele>261.0</ele><time>2026-05-02T07:45:42.999Z</time></trkpt><trkpt lat="43.309529935847344" lon="11.35638648109708"><ele>261.0</ele><time>2026-05-02T07:45:43.999Z</time></trkpt><trkpt lat="43.3095299441369" lon="11.356524008334139"><ele>261.0</ele><time>2026-05-02T07:45:44.999Z</time></trkpt><trkpt lat="43.30950472181219" lon="11.35666369935961"><ele>261.0</ele><time>2026-05-02T07:45:45.999Z</time></trkpt><trkpt lat="43.30946457527617" lon="11.356797782267622"><ele>259.8</ele><time>2026-05-02T07:45:46.999Z</time></trkpt><trkpt lat="43.30942671041901" lon="11.356931132401627"><ele>258.6</ele><time>2026-05-02T07:45:47.999Z</time></trkpt><trkpt lat="43.30938631068337" lon="11.357062371158275"><ele>257.4</ele><time>2026-05-02T07:45:48.999Z</time></trkpt><trkpt lat="43.309341129434735" lon="11.3571870512749"><ele>256.2</ele><time>2026-05-02T07:45:49.999Z</time></trkpt><trkpt lat="43.30928397479364" lon="11.357293241582164"><ele>255.0</ele><time>2026-05-02T07:45:50.999Z</time></trkpt><trkpt lat="43.30920808688523" lon="11.35738694554834"><ele>254.6</ele><time>2026-05-02T07:45:52Z</time></trkpt><trkpt lat="43.309127828372866" lon="11.357475129781681"><ele>254.2</ele><time>2026-05-02T07:45:53Z</time></trkpt><trkpt lat="43.309052689624984" lon="11.357554439580197"><ele>253.8</ele><time>2026-05-02T07:45:54Z</time></trkpt><trkpt lat="43.308965256720015" lon="11.357644355727041"><ele>253.4</ele><time>2026-05-02T07:45:55Z</time></trkpt><trkpt lat="43.308878416657876" lon="11.357730879887256"><ele>253.0</ele><time>2026-05-02T07:45:56Z</time></trkpt><trkpt lat="43.30879343001742" lon="11.357815806384727"><ele>251.8</ele><time>2026-05-02T07:45:57Z</time></trkpt><trkpt lat="43.30870775762476" lon="11.357898710505026"><ele>250.60000000000002</ele><time>2026-05-02T07:45:58Z</time></trkpt><trkpt lat="43.30862369312447" lon="11.357981163450463"><ele>249.39999999999998</ele><time>2026-05-02T07:45:59Z</time></trkpt><trkpt lat="43.308538166612145" lon="11.358059857107182"><ele>248.2</ele><time>2026-05-02T07:46:00Z</time></trkpt><trkpt lat="43.30845244869213" lon="11.358126898637577"><ele>247.0</ele><time>2026-05-02T07:46:01Z</time></trkpt><trkpt lat="43.30836262281733" lon="11.358191571139464"><ele>247.0</ele><time>2026-05-02T07:46:02Z</time></trkpt><trkpt lat="43.308281109377916" lon="11.358251480936701"><ele>247.0</ele><time>2026-05-02T07:46:03Z</time></trkpt><trkpt lat="43.3082023156326" lon="11.358312368944194"><ele>247.0</ele><time>2026-05-02T07:46:04Z</time></trkpt><trkpt lat="43.308125663396545" lon="11.358375777923824"><ele>247.0</ele><time>2026-05-02T07:46:05Z</time></trkpt><trkpt lat="43.30804994918957" lon="11.358445172203263"><ele>247.0</ele><time>2026-05-02T07:46:06Z</time></trkpt><trkpt lat="43.30797285322697" lon="11.358519550193558"><ele>245.2</ele><time>2026-05-02T07:46:07Z</time></trkpt><trkpt lat="43.30790037972531" lon="11.358601822708176"><ele>243.39999999999998</ele><time>2026-05-02T07:46:08Z</time></trkpt><trkpt lat="43.307826208244535" lon="11.358692730836621"><ele>241.60000000000002</ele><time>2026-05-02T07:46:09Z</time></trkpt><trkpt lat="43.30774489079611" lon="11.358797733925481"><ele>239.8</ele><time>2026-05-02T07:46:10Z</time></trkpt><trkpt lat="43.30764129656775" lon="11.358895156205685"><ele>238.0</ele><time>2026-05-02T07:46:11Z</time></trkpt><trkpt lat="43.3075447366333" lon="11.359011530250234"><ele>238.0</ele><time>2026-05-02T07:46:12Z</time></trkpt><trkpt lat="43.30744948352617" lon="11.35914533804029"><ele>238.0</ele><time>2026-05-02T07:46:13Z</time></trkpt><trkpt lat="43.30733905701931" lon="11.359268216976746"><ele>238.0</ele><time>2026-05-02T07:46:14Z</time></trkpt><trkpt lat="43.30723096774072" lon="11.359393811132787"><ele>238.0</ele><time>2026-05-02T07:46:15Z</time></trkpt><trkpt lat="43.30713952087017" lon="11.359516665996997"><ele>238.75</ele><time>2026-05-02T07:46:16Z</time></trkpt><trkpt lat="43.30702932167957" lon="11.35965021111668"><ele>239.5</ele><time>2026-05-02T07:46:17Z</time></trkpt><trkpt lat="43.30692333263492" lon="11.359782022207293"><ele>240.25</ele><time>2026-05-02T07:46:18Z</time></trkpt><trkpt lat="43.306820383953294" lon="11.359916337850471"><ele>241.0</ele><time>2026-05-02T07:46:19Z</time></trkpt><trkpt lat="43.30672425090236" lon="11.360055238779402"><ele>241.0</ele><time>2026-05-02T07:46:20Z</time></trkpt><trkpt lat="43.3066219892747" lon="11.360184553019177"><ele>241.0</ele><time>2026-05-02T07:46:21Z</time></trkpt><trkpt lat="43.306533862749916" lon="11.360329296910553"><ele>241.0</ele><time>2026-05-02T07:46:22Z</time></trkpt><trkpt lat="43.30645832864275" lon="11.360479600646878"><ele>241.0</ele><time>2026-05-02T07:46:23Z</time></trkpt><trkpt lat="43.306369494468775" lon="11.360609165479332"><ele>243.75</ele><time>2026-05-02T07:46:24Z</time></trkpt><trkpt lat="43.306278804074125" lon="11.360725870728198"><ele>246.5</ele><time>2026-05-02T07:46:25Z</time></trkpt><trkpt lat="43.30619714318635" lon="11.36084811348827"><ele>249.25</ele><time>2026-05-02T07:46:26Z</time></trkpt><trkpt lat="43.30613359368341" lon="11.360988038412735"><ele>252.0</ele><time>2026-05-02T07:46:27Z</time></trkpt><trkpt lat="43.30607386183077" lon="11.361132326923205"><ele>252.0</ele><time>2026-05-02T07:46:28Z</time></trkpt><trkpt lat="43.30602070360127" lon="11.361260383791622"><ele>252.0</ele><time>2026-05-02T07:46:29Z</time></trkpt><trkpt lat="43.305967572512806" lon="11.361368784419014"><ele>252.0</ele><time>2026-05-02T07:46:30Z</time></trkpt><trkpt lat="43.30590713802911" lon="11.361459515564768"><ele>252.0</ele><time>2026-05-02T07:46:31Z</time></trkpt><trkpt lat="43.3058362061649" lon="11.361535496013481"><ele>252.0</ele><time>2026-05-02T07:46:32Z</time></trkpt><trkpt lat="43.30576042453336" lon="11.361594961409809"><ele>251.0</ele><time>2026-05-02T07:46:33Z</time></trkpt><trkpt lat="43.30567499820303" lon="11.361639183807503"><ele>250.0</ele><time>2026-05-02T07:46:34Z</time></trkpt><trkpt lat="43.305579359377845" lon="11.361676016263573"><ele>249.0</ele><time>2026-05-02T07:46:35Z</time></trkpt><trkpt lat="43.30547296224733" lon="11.36170037153488"><ele>248.0</ele><time>2026-05-02T07:46:36Z</time></trkpt><trkpt lat="43.305362198531306" lon="11.361711597968705"><ele>247.0</ele><time>2026-05-02T07:46:37Z</time></trkpt><trkpt lat="43.30525183336294" lon="11.361733928304094"><ele>247.0</ele><time>2026-05-02T07:46:38Z</time></trkpt><trkpt lat="43.30514856792318" lon="11.361758509389558"><ele>247.0</ele><time>2026-05-02T07:46:39Z</time></trkpt><trkpt lat="43.305048157646354" lon="11.361778619582013"><ele>247.0</ele><time>2026-05-02T07:46:40Z</time></trkpt><trkpt lat="43.30494916798459" lon="11.361799194774992"><ele>247.0</ele><time>2026-05-02T07:46:41Z</time></trkpt><trkpt lat="43.30485558452626" lon="11.361815280210644"><ele>247.0</ele><time>2026-05-02T07:46:42Z</time></trkpt><trkpt lat="43.30476392086456" lon="11.361820981940742"><ele>245.0</ele><time>2026-05-02T07:46:43Z</time></trkpt><trkpt lat="43.30466577503664" lon="11.361821208414307"><ele>243.0</ele><time>2026-05-02T07:46:44Z</time></trkpt><trkpt lat="43.304564526662475" lon="11.361831267506554"><ele>241.0</ele><time>2026-05-02T07:46:45Z</time></trkpt><trkpt lat="43.304454896006945" lon="11.361859511578754"><ele>239.0</ele><time>2026-05-02T07:46:46Z</time></trkpt><trkpt lat="43.30434243153517" lon="11.361911270560258"><ele>237.0</ele><time>2026-05-02T07:46:47Z</time></trkpt><trkpt lat="43.304232980018" lon="11.361985860007756"><ele>237.0</ele><time>2026-05-02T07:46:48Z</time></trkpt><trkpt lat="43.30413172300515" lon="11.362064232714935"><ele>237.0</ele><time>2026-05-02T07:46:49Z</time></trkpt><trkpt lat="43.30402108866985" lon="11.362128956092638"><ele>237.0</ele><time>2026-05-02T07:46:50Z</time></trkpt><trkpt lat="43.30392690472017" lon="11.362231762065553"><ele>237.0</ele><time>2026-05-02T07:46:51Z</time></trkpt><trkpt lat="43.303825642138776" lon="11.362316613457066"><ele>238.8</ele><time>2026-05-02T07:46:52Z</time></trkpt><trkpt lat="43.30372834243728" lon="11.362398817876763"><ele>240.6</ele><time>2026-05-02T07:46:53Z</time></trkpt><trkpt lat="43.30363283751288" lon="11.362473056512764"><ele>242.40000000000003</ele><time>2026-05-02T07:46:54Z</time></trkpt><trkpt lat="43.30356608052616" lon="11.362585387501431"><ele>244.20000000000002</ele><time>2026-05-02T07:46:55Z</time></trkpt><trkpt lat="43.30349698693902" lon="11.362680594393105"><ele>246.0</ele><time>2026-05-02T07:46:56Z</time></trkpt><trkpt lat="43.30344202937446" lon="11.362790999284286"><ele>246.0</ele><time>2026-05-02T07:46:57Z</time></trkpt><trkpt lat="43.30340277274554" lon="11.362922568921883"><ele>246.00000000000003</ele><time>2026-05-02T07:46:58Z</time></trkpt><trkpt lat="43.303386767134114" lon="11.363086538235054"><ele>246.00000000000003</ele><time>2026-05-02T07:46:59Z</time></trkpt><trkpt lat="43.3033774686925" lon="11.363241447995165"><ele>246.0</ele><time>2026-05-02T07:46:59.999Z</time></trkpt><trkpt lat="43.3033630814075" lon="11.363387723976953"><ele>246.0</ele><time>2026-05-02T07:47:00.999Z</time></trkpt><trkpt lat="43.303340202580536" lon="11.363531761929698"><ele>246.0</ele><time>2026-05-02T07:47:01.999Z</time></trkpt><trkpt lat="43.303304439630125" lon="11.363672019108515"><ele>246.00000000000003</ele><time>2026-05-02T07:47:02.999Z</time></trkpt><trkpt lat="43.303248736177565" lon="11.36379884696681"><ele>246.00000000000003</ele><time>2026-05-02T07:47:03.999Z</time></trkpt><trkpt lat="43.30317317686519" lon="11.36388987685149"><ele>246.0</ele><time>2026-05-02T07:47:04.999Z</time></trkpt><trkpt lat="43.30307965750158" lon="11.363935941859944"><ele>246.0</ele><time>2026-05-02T07:47:05.999Z</time></trkpt><trkpt lat="43.30299109221701" lon="11.363948473943646"><ele>247.16666666666666</ele><time>2026-05-02T07:47:06.999Z</time></trkpt><trkpt lat="43.30290855116739" lon="11.36394765702044"><ele>248.33333333333331</ele><time>2026-05-02T07:47:07.999Z</time></trkpt><trkpt lat="43.30282538119339" lon="11.363939479278693"><ele>249.5</ele><time>2026-05-02T07:47:08.999Z</time></trkpt><trkpt lat="43.3027525494296" lon="11.363951962384913"><ele>250.66666666666666</ele><time>2026-05-02T07:47:09.999Z</time></trkpt><trkpt lat="43.30267577314164" lon="11.363957589428649"><ele>251.83333333333331</ele><time>2026-05-02T07:47:10.999Z</time></trkpt><trkpt lat="43.302596575953864" lon="11.363973305699913"><ele>253.0</ele><time>2026-05-02T07:47:11.999Z</time></trkpt><trkpt lat="43.30251107728379" lon="11.36400510197485"><ele>253.0</ele><time>2026-05-02T07:47:12.999Z</time></trkpt><trkpt lat="43.30242066381004" lon="11.3640509917283"><ele>253.0</ele><time>2026-05-02T07:47:13.999Z</time></trkpt><trkpt lat="43.30232953844176" lon="11.364101560383107"><ele>253.0</ele><time>2026-05-02T07:47:14.999Z</time></trkpt><trkpt lat="43.302238048624716" lon="11.364156165222791"><ele>253.0</ele><time>2026-05-02T07:47:15.999Z</time></trkpt><trkpt lat="43.30214450569424" lon="11.364218198216431"><ele>253.0</ele><time>2026-05-02T07:47:16.999Z</time></trkpt><trkpt lat="43.30205215688498" lon="11.364294503263624"><ele>251.0</ele><time>2026-05-02T07:47:17.999Z</time></trkpt><trkpt lat="43.3019679973182" lon="11.364391045575902"><ele>249.0</ele><time>2026-05-02T07:47:18.999Z</time></trkpt><trkpt lat="43.30189565472181" lon="11.364504453877036"><ele>247.0</ele><time>2026-05-02T07:47:19.999Z</time></trkpt><trkpt lat="43.30184017460956" lon="11.364627743951786"><ele>245.0</ele><time>2026-05-02T07:47:20.999Z</time></trkpt><trkpt lat="43.301798771493395" lon="11.364758879160119"><ele>243.0</ele><time>2026-05-02T07:47:21.999Z</time></trkpt><trkpt lat="43.30174468201149" lon="11.364881367367747"><ele>243.0</ele><time>2026-05-02T07:47:22.999Z</time></trkpt><trkpt lat="43.301701109517246" lon="11.36501582608063"><ele>243.0</ele><time>2026-05-02T07:47:23.999Z</time></trkpt><trkpt lat="43.30164006996204" lon="11.365144915282785"><ele>243.0</ele><time>2026-05-02T07:47:24.999Z</time></trkpt><trkpt lat="43.30155400313033" lon="11.365244232892646"><ele>243.0</ele><time>2026-05-02T07:47:25.999Z</time></trkpt><trkpt lat="43.30144862347595" lon="11.365327151259496"><ele>242.5</ele><time>2026-05-02T07:47:26.999Z</time></trkpt><trkpt lat="43.3013409134122" lon="11.365394518601432"><ele>242.0</ele><time>2026-05-02T07:47:27.999Z</time></trkpt><trkpt lat="43.30123139365415" lon="11.365456431916762"><ele>241.5</ele><time>2026-05-02T07:47:28.999Z</time></trkpt><trkpt lat="43.30113467633346" lon="11.365537963266602"><ele>241.0</ele><time>2026-05-02T07:47:29.999Z</time></trkpt><trkpt lat="43.301038361733184" lon="11.365596687280883"><ele>241.0</ele><time>2026-05-02T07:47:30.999Z</time></trkpt><trkpt lat="43.300942806440915" lon="11.365651407611349"><ele>241.00000000000003</ele><time>2026-05-02T07:47:31.999Z</time></trkpt><trkpt lat="43.30084755720244" lon="11.36570241024727"><ele>241.00000000000003</ele><time>2026-05-02T07:47:32.999Z</time></trkpt><trkpt lat="43.30074839423628" lon="11.36572793088788"><ele>241.0</ele><time>2026-05-02T07:47:33.999Z</time></trkpt><trkpt lat="43.300643063603154" lon="11.365723891823897"><ele>241.0</ele><time>2026-05-02T07:47:34.999Z</time></trkpt><trkpt lat="43.3005293191092" lon="11.365707651867705"><ele>241.75</ele><time>2026-05-02T07:47:35.999Z</time></trkpt><trkpt lat="43.30041085481675" lon="11.365712631852853"><ele>242.5</ele><time>2026-05-02T07:47:36.999Z</time></trkpt><trkpt lat="43.30028907012588" lon="11.365718663046927"><ele>243.25</ele><time>2026-05-02T07:47:37.999Z</time></trkpt><trkpt lat="43.30016724705958" lon="11.365730340833244"><ele>244.0</ele><time>2026-05-02T07:47:38.999Z</time></trkpt><trkpt lat="43.300053270961705" lon="11.365769396829242"><ele>244.0</ele><time>2026-05-02T07:47:39.999Z</time></trkpt><trkpt lat="43.29994227116167" lon="11.365864078614075"><ele>244.0</ele><time>2026-05-02T07:47:40.999Z</time></trkpt><trkpt lat="43.29982630760586" lon="11.366005600221"><ele>244.0</ele><time>2026-05-02T07:47:42.999Z</time></trkpt><trkpt lat="43.29974265242639" lon="11.366100788634242"><ele>244.0</ele><time>2026-05-02T07:47:43.999Z</time></trkpt><trkpt lat="43.29967020238214" lon="11.366201335073546"><ele>242.6</ele><time>2026-05-02T07:47:44.999Z</time></trkpt><trkpt lat="43.2995909631353" lon="11.366308428237524"><ele>241.2</ele><time>2026-05-02T07:47:45.999Z</time></trkpt><trkpt lat="43.299511239852514" lon="11.366422810889226"><ele>239.79999999999998</ele><time>2026-05-02T07:47:46.999Z</time></trkpt><trkpt lat="43.29942993090278" lon="11.366525384218576"><ele>238.39999999999998</ele><time>2026-05-02T07:47:47.999Z</time></trkpt><trkpt lat="43.29934681021239" lon="11.366626151094312"><ele>237.0</ele><time>2026-05-02T07:47:48.999Z</time></trkpt><trkpt lat="43.299267583980466" lon="11.366725861876011"><ele>237.0</ele><time>2026-05-02T07:47:49.999Z</time></trkpt><trkpt lat="43.29918766567628" lon="11.366827415470329"><ele>237.0</ele><time>2026-05-02T07:47:50.999Z</time></trkpt><trkpt lat="43.29911388433024" lon="11.366932242861589"><ele>237.0</ele><time>2026-05-02T07:47:51.999Z</time></trkpt><trkpt lat="43.29905175627737" lon="11.367048323263433"><ele>237.0</ele><time>2026-05-02T07:47:52.999Z</time></trkpt><trkpt lat="43.29899657871084" lon="11.367175673954593"><ele>237.0</ele><time>2026-05-02T07:47:53.999Z</time></trkpt><trkpt lat="43.29894860065093" lon="11.367314415140113"><ele>235.8</ele><time>2026-05-02T07:47:54.999Z</time></trkpt><trkpt lat="43.29890448070483" lon="11.367434329488253"><ele>234.6</ele><time>2026-05-02T07:47:55.999Z</time></trkpt><trkpt lat="43.29885306925011" lon="11.367588090115582"><ele>233.40000000000003</ele><time>2026-05-02T07:47:56.999Z</time></trkpt><trkpt lat="43.29880242982453" lon="11.367719086250617"><ele>232.20000000000002</ele><time>2026-05-02T07:47:58Z</time></trkpt><trkpt lat="43.298749924202944" lon="11.367852812870739"><ele>231.0</ele><time>2026-05-02T07:47:59Z</time></trkpt><trkpt lat="43.29870013568717" lon="11.36797950242417"><ele>231.8</ele><time>2026-05-02T07:48:00Z</time></trkpt><trkpt lat="43.29864491024767" lon="11.368097765179682"><ele>232.60000000000002</ele><time>2026-05-02T07:48:01Z</time></trkpt><trkpt lat="43.298588321362416" lon="11.36821013750508"><ele>233.4</ele><time>2026-05-02T07:48:02Z</time></trkpt><trkpt lat="43.29851192125585" lon="11.368289614076646"><ele>234.2</ele><time>2026-05-02T07:48:03Z</time></trkpt><trkpt lat="43.29843855062684" lon="11.368358481534758"><ele>235.0</ele><time>2026-05-02T07:48:04Z</time></trkpt><trkpt lat="43.298357386993665" lon="11.368410029707032"><ele>234.99999999999997</ele><time>2026-05-02T07:48:05Z</time></trkpt><trkpt lat="43.29828189673626" lon="11.368445359348383"><ele>235.0</ele><time>2026-05-02T07:48:06Z</time></trkpt><trkpt lat="43.29820740109523" lon="11.368492116499887"><ele>235.0</ele><time>2026-05-02T07:48:07Z</time></trkpt><trkpt lat="43.29812823891659" lon="11.36851374688341"><ele>235.0</ele><time>2026-05-02T07:48:08Z</time></trkpt><trkpt lat="43.29805013631475" lon="11.368524836721098"><ele>234.99999999999997</ele><time>2026-05-02T07:48:09Z</time></trkpt><trkpt lat="43.29796595978914" lon="11.368530521089372"><ele>235.0</ele><time>2026-05-02T07:48:10Z</time></trkpt><trkpt lat="43.29788032441255" lon="11.368521255180427"><ele>235.6</ele><time>2026-05-02T07:48:11Z</time></trkpt><trkpt lat="43.29779402632273" lon="11.368486531582745"><ele>236.2</ele><time>2026-05-02T07:48:12Z</time></trkpt><trkpt lat="43.29770904930777" lon="11.368448170667222"><ele>236.8</ele><time>2026-05-02T07:48:13Z</time></trkpt><trkpt lat="43.29762389807015" lon="11.368401004360388"><ele>237.4</ele><time>2026-05-02T07:48:14Z</time></trkpt><trkpt lat="43.297531048158085" lon="11.36835332637574"><ele>238.0</ele><time>2026-05-02T07:48:15Z</time></trkpt><trkpt lat="43.2974394967261" lon="11.368300657479162"><ele>238.0</ele><time>2026-05-02T07:48:16Z</time></trkpt><trkpt lat="43.29734909016769" lon="11.368223960947446"><ele>238.0</ele><time>2026-05-02T07:48:17Z</time></trkpt><trkpt lat="43.297244394316415" lon="11.368192886227666"><ele>238.0</ele><time>2026-05-02T07:48:18Z</time></trkpt><trkpt lat="43.29714329931902" lon="11.368146422740011"><ele>238.0</ele><time>2026-05-02T07:48:19Z</time></trkpt><trkpt lat="43.297023494055686" lon="11.368105263033991"><ele>238.0</ele><time>2026-05-02T07:48:20Z</time></trkpt><trkpt lat="43.29691600681649" lon="11.368062518902507"><ele>237.25</ele><time>2026-05-02T07:48:21Z</time></trkpt><trkpt lat="43.296797733066406" lon="11.368038810310342"><ele>236.5</ele><time>2026-05-02T07:48:22Z</time></trkpt><trkpt lat="43.29668153771675" lon="11.368025759720158"><ele>235.75</ele><time>2026-05-02T07:48:23Z</time></trkpt><trkpt lat="43.29656196743254" lon="11.368019997642987"><ele>235.0</ele><time>2026-05-02T07:48:24Z</time></trkpt><trkpt lat="43.296440244754606" lon="11.368028230211436"><ele>237.5</ele><time>2026-05-02T07:48:25Z</time></trkpt><trkpt lat="43.2963216258576" lon="11.368045718236594"><ele>240.0</ele><time>2026-05-02T07:48:26Z</time></trkpt><trkpt lat="43.29620478218392" lon="11.368070653039444"><ele>242.5</ele><time>2026-05-02T07:48:27Z</time></trkpt><trkpt lat="43.2960909963628" lon="11.36810572526432"><ele>245.0</ele><time>2026-05-02T07:48:28Z</time></trkpt><trkpt lat="43.295984341869755" lon="11.368154691657699"><ele>245.0</ele><time>2026-05-02T07:48:29Z</time></trkpt><trkpt lat="43.29588681273221" lon="11.368211614175095"><ele>245.0</ele><time>2026-05-02T07:48:30Z</time></trkpt><trkpt lat="43.29579953609317" lon="11.368266004233838"><ele>245.0</ele><time>2026-05-02T07:48:31Z</time></trkpt><trkpt lat="43.29571183795745" lon="11.368297567127026"><ele>245.0</ele><time>2026-05-02T07:48:32Z</time></trkpt><trkpt lat="43.2956286093075" lon="11.368314182264365"><ele>245.0</ele><time>2026-05-02T07:48:33Z</time></trkpt><trkpt lat="43.295539110996955" lon="11.368323295920463"><ele>243.6</ele><time>2026-05-02T07:48:34Z</time></trkpt><trkpt lat="43.29545232313467" lon="11.368329408176358"><ele>242.2</ele><time>2026-05-02T07:48:35Z</time></trkpt><trkpt lat="43.29536607798642" lon="11.368346894256968"><ele>240.8</ele><time>2026-05-02T07:48:36Z</time></trkpt><trkpt lat="43.29528079863886" lon="11.368379779391102"><ele>239.4</ele><time>2026-05-02T07:48:37Z</time></trkpt><trkpt lat="43.295192560034984" lon="11.368428432650244"><ele>238.0</ele><time>2026-05-02T07:48:38Z</time></trkpt><trkpt lat="43.295094540201745" lon="11.368494579954621"><ele>238.0</ele><time>2026-05-02T07:48:39Z</time></trkpt><trkpt lat="43.2950023302834" lon="11.368590329144094"><ele>238.0</ele><time>2026-05-02T07:48:40Z</time></trkpt><trkpt lat="43.294924635761824" lon="11.36871453576019"><ele>238.0</ele><time>2026-05-02T07:48:41Z</time></trkpt><trkpt lat="43.294861384942855" lon="11.36885689083923"><ele>238.0</ele><time>2026-05-02T07:48:42Z</time></trkpt><trkpt lat="43.294801343364284" lon="11.368995648840073"><ele>236.0</ele><time>2026-05-02T07:48:43Z</time></trkpt><trkpt lat="43.29470774721071" lon="11.36908545030474"><ele>234.0</ele><time>2026-05-02T07:48:44Z</time></trkpt><trkpt lat="43.29461691084273" lon="11.369177576432564"><ele>232.0</ele><time>2026-05-02T07:48:45Z</time></trkpt><trkpt lat="43.294516256347066" lon="11.369250717548539"><ele>230.0</ele><time>2026-05-02T07:48:46Z</time></trkpt><trkpt lat="43.29441094777275" lon="11.369322027363038"><ele>230.0</ele><time>2026-05-02T07:48:47Z</time></trkpt><trkpt lat="43.29430643484778" lon="11.369412474620512"><ele>230.0</ele><time>2026-05-02T07:48:48Z</time></trkpt><trkpt lat="43.294191864468665" lon="11.369486201264168"><ele>230.0</ele><time>2026-05-02T07:48:49Z</time></trkpt><trkpt lat="43.29407388563912" lon="11.369554883226025"><ele>230.0</ele><time>2026-05-02T07:48:50Z</time></trkpt><trkpt lat="43.29396065039116" lon="11.369626222439946"><ele>228.75</ele><time>2026-05-02T07:48:51Z</time></trkpt><trkpt lat="43.29385229151482" lon="11.369700752052186"><ele>227.5</ele><time>2026-05-02T07:48:52Z</time></trkpt><trkpt lat="43.293741417610875" lon="11.369772164695217"><ele>226.25</ele><time>2026-05-02T07:48:53Z</time></trkpt><trkpt lat="43.293630079063234" lon="11.369836973404363"><ele>225.0</ele><time>2026-05-02T07:48:54Z</time></trkpt><trkpt lat="43.29351909980272" lon="11.36989368140113"><ele>225.0</ele><time>2026-05-02T07:48:55Z</time></trkpt><trkpt lat="43.29340801869656" lon="11.369940798169544"><ele>225.0</ele><time>2026-05-02T07:48:56Z</time></trkpt><trkpt lat="43.29329869447737" lon="11.36997755538572"><ele>225.0</ele><time>2026-05-02T07:48:57Z</time></trkpt><trkpt lat="43.29318925447614" lon="11.37000893368694"><ele>225.0</ele><time>2026-05-02T07:48:58Z</time></trkpt><trkpt lat="43.29307129545358" lon="11.370047183094712"><ele>224.25</ele><time>2026-05-02T07:48:59Z</time></trkpt><trkpt lat="43.29294063596758" lon="11.370074069935976"><ele>223.5</ele><time>2026-05-02T07:48:59.999Z</time></trkpt><trkpt lat="43.29280266147408" lon="11.37006058495778"><ele>222.75</ele><time>2026-05-02T07:49:00.999Z</time></trkpt><trkpt lat="43.29266351585122" lon="11.370054539383052"><ele>222.0</ele><time>2026-05-02T07:49:01.999Z</time></trkpt><trkpt lat="43.29252463465231" lon="11.370064047970056"><ele>222.0</ele><time>2026-05-02T07:49:02.999Z</time></trkpt><trkpt lat="43.29239478689969" lon="11.370055408495048"><ele>222.0</ele><time>2026-05-02T07:49:03.999Z</time></trkpt><trkpt lat="43.29227102916127" lon="11.370050809162278"><ele>222.0</ele><time>2026-05-02T07:49:04.999Z</time></trkpt><trkpt lat="43.29215925196403" lon="11.370053381231893"><ele>222.0</ele><time>2026-05-02T07:49:05.999Z</time></trkpt><trkpt lat="43.292050562570935" lon="11.370036720120192"><ele>222.2</ele><time>2026-05-02T07:49:06.999Z</time></trkpt><trkpt lat="43.29194235502249" lon="11.370050335178494"><ele>222.39999999999998</ele><time>2026-05-02T07:49:07.999Z</time></trkpt><trkpt lat="43.291835462697854" lon="11.370072415125527"><ele>222.60000000000002</ele><time>2026-05-02T07:49:08.999Z</time></trkpt><trkpt lat="43.29172827288771" lon="11.370107488569646"><ele>222.8</ele><time>2026-05-02T07:49:09.999Z</time></trkpt><trkpt lat="43.2916255058487" lon="11.370150892087377"><ele>223.0</ele><time>2026-05-02T07:49:10.999Z</time></trkpt><trkpt lat="43.29152652011781" lon="11.37021310168979"><ele>223.0</ele><time>2026-05-02T07:49:11.999Z</time></trkpt><trkpt lat="43.291424038561615" lon="11.370271618844123"><ele>223.0</ele><time>2026-05-02T07:49:12.999Z</time></trkpt><trkpt lat="43.29132758484669" lon="11.370349907915953"><ele>223.0</ele><time>2026-05-02T07:49:13.999Z</time></trkpt><trkpt lat="43.291231475208996" lon="11.3704290150698"><ele>223.0</ele><time>2026-05-02T07:49:14.999Z</time></trkpt><trkpt lat="43.29112245724236" lon="11.37048084076577"><ele>223.5</ele><time>2026-05-02T07:49:15.999Z</time></trkpt><trkpt lat="43.29102589171663" lon="11.370566129394103"><ele>224.0</ele><time>2026-05-02T07:49:16.999Z</time></trkpt><trkpt lat="43.29091476995128" lon="11.370610559672457"><ele>224.5</ele><time>2026-05-02T07:49:17.999Z</time></trkpt><trkpt lat="43.29080092343004" lon="11.370641513801248"><ele>225.0</ele><time>2026-05-02T07:49:18.999Z</time></trkpt><trkpt lat="43.29068718661962" lon="11.370679527813659"><ele>224.2</ele><time>2026-05-02T07:49:19.999Z</time></trkpt><trkpt lat="43.290579391074594" lon="11.370747588578032"><ele>223.4</ele><time>2026-05-02T07:49:20.999Z</time></trkpt><trkpt lat="43.29049312694079" lon="11.370854246952824"><ele>222.60000000000002</ele><time>2026-05-02T07:49:21.999Z</time></trkpt><trkpt lat="43.29043157910894" lon="11.370971811030353"><ele>221.8</ele><time>2026-05-02T07:49:22.999Z</time></trkpt><trkpt lat="43.29037636612792" lon="11.371078415881529"><ele>221.0</ele><time>2026-05-02T07:49:23.999Z</time></trkpt><trkpt lat="43.290338535768676" lon="11.371191333956904"><ele>221.00000000000003</ele><time>2026-05-02T07:49:24.999Z</time></trkpt><trkpt lat="43.29028230604241" lon="11.371281489590546"><ele>221.0</ele><time>2026-05-02T07:49:25.999Z</time></trkpt><trkpt lat="43.290213510141996" lon="11.371363484457145"><ele>221.0</ele><time>2026-05-02T07:49:26.999Z</time></trkpt><trkpt lat="43.2901420314364" lon="11.37142680385818"><ele>221.0</ele><time>2026-05-02T07:49:27.999Z</time></trkpt><trkpt lat="43.29007517817485" lon="11.37146465000973"><ele>221.00000000000003</ele><time>2026-05-02T07:49:28.999Z</time></trkpt><trkpt lat="43.29001082273391" lon="11.371502121465268"><ele>221.0</ele><time>2026-05-02T07:49:29.999Z</time></trkpt><trkpt lat="43.28991431753132" lon="11.371611279736394"><ele>220.4</ele><time>2026-05-02T07:49:31.999Z</time></trkpt><trkpt lat="43.28989428969731" lon="11.37169978188849"><ele>219.8</ele><time>2026-05-02T07:49:32.999Z</time></trkpt><trkpt lat="43.28990504689267" lon="11.371788411481559"><ele>219.20000000000002</ele><time>2026-05-02T07:49:33.999Z</time></trkpt><trkpt lat="43.28989198800341" lon="11.371934669541114"><ele>218.60000000000002</ele><time>2026-05-02T07:49:35.999Z</time></trkpt><trkpt lat="43.289852142042534" lon="11.372067775669448"><ele>218.0</ele><time>2026-05-02T07:49:37.999Z</time></trkpt><trkpt lat="43.289747602143954" lon="11.372150371764102"><ele>217.8</ele><time>2026-05-02T07:49:39.999Z</time></trkpt><trkpt lat="43.28963490773953" lon="11.372202251124214"><ele>217.60000000000002</ele><time>2026-05-02T07:49:41.999Z</time></trkpt><trkpt lat="43.28958238671996" lon="11.372255549612213"><ele>217.39999999999998</ele><time>2026-05-02T07:49:42.999Z</time></trkpt><trkpt lat="43.289473307307716" lon="11.37231199177938"><ele>217.2</ele><time>2026-05-02T07:49:44.999Z</time></trkpt><trkpt lat="43.28935798970049" lon="11.372357874517657"><ele>217.0</ele><time>2026-05-02T07:49:46.999Z</time></trkpt><trkpt lat="43.2893029030698" lon="11.372411966615353"><ele>217.0</ele><time>2026-05-02T07:49:47.999Z</time></trkpt><trkpt lat="43.28924133067492" lon="11.372435949975081"><ele>217.0</ele><time>2026-05-02T07:49:48.999Z</time></trkpt><trkpt lat="43.28918161682005" lon="11.372478738148425"><ele>217.0</ele><time>2026-05-02T07:49:49.999Z</time></trkpt><trkpt lat="43.28910766659795" lon="11.37261220685214"><ele>217.0</ele><time>2026-05-02T07:49:51.999Z</time></trkpt><trkpt lat="43.28910131376176" lon="11.372778171357009"><ele>217.0</ele><time>2026-05-02T07:49:53.999Z</time></trkpt><trkpt lat="43.289086164583125" lon="11.372957807033693"><ele>215.83333333333331</ele><time>2026-05-02T07:49:55.999Z</time></trkpt><trkpt lat="43.289085160842696" lon="11.373068218240132"><ele>214.66666666666666</ele><time>2026-05-02T07:49:56.999Z</time></trkpt><trkpt lat="43.28908402319651" lon="11.373182934111025"><ele>213.5</ele><time>2026-05-02T07:49:57.999Z</time></trkpt><trkpt lat="43.289092629708975" lon="11.373302341506445"><ele>212.33333333333331</ele><time>2026-05-02T07:49:58.999Z</time></trkpt><trkpt lat="43.28908863364946" lon="11.373419471795009"><ele>211.16666666666666</ele><time>2026-05-02T07:49:59.999Z</time></trkpt><trkpt lat="43.28908367119987" lon="11.373539503073134"><ele>210.0</ele><time>2026-05-02T07:50:00.999Z</time></trkpt><trkpt lat="43.289081897051524" lon="11.373656610002946"><ele>210.0</ele><time>2026-05-02T07:50:01.999Z</time></trkpt><trkpt lat="43.28908198507365" lon="11.373770094518607"><ele>210.0</ele><time>2026-05-02T07:50:02.999Z</time></trkpt><trkpt lat="43.28907899720983" lon="11.373882925458078"><ele>210.0</ele><time>2026-05-02T07:50:04Z</time></trkpt><trkpt lat="43.28908815246409" lon="11.373995544613589"><ele>210.0</ele><time>2026-05-02T07:50:05Z</time></trkpt><trkpt lat="43.28909205676529" lon="11.374113435642537"><ele>210.0</ele><time>2026-05-02T07:50:06Z</time></trkpt><trkpt lat="43.28909518624373" lon="11.374234543803746"><ele>210.0</ele><time>2026-05-02T07:50:07Z</time></trkpt><trkpt lat="43.289105133031114" lon="11.374357351872925"><ele>208.0</ele><time>2026-05-02T07:50:08Z</time></trkpt><trkpt lat="43.28910805249625" lon="11.374487712525493"><ele>206.0</ele><time>2026-05-02T07:50:09Z</time></trkpt><trkpt lat="43.28911490244167" lon="11.374635683050752"><ele>204.0</ele><time>2026-05-02T07:50:10Z</time></trkpt><trkpt lat="43.28912226954311" lon="11.374809894807479"><ele>202.0</ele><time>2026-05-02T07:50:11Z</time></trkpt><trkpt lat="43.289127470564466" lon="11.374987858330728"><ele>200.0</ele><time>2026-05-02T07:50:12Z</time></trkpt><trkpt lat="43.289133668408844" lon="11.375155254811753"><ele>198.0</ele><time>2026-05-02T07:50:13Z</time></trkpt><trkpt lat="43.28913731417544" lon="11.375323478676382"><ele>196.0</ele><time>2026-05-02T07:50:14Z</time></trkpt><trkpt lat="43.28912732579013" lon="11.375488493203136"><ele>194.0</ele><time>2026-05-02T07:50:15Z</time></trkpt><trkpt lat="43.289130458236016" lon="11.37564770096374"><ele>192.39999999999998</ele><time>2026-05-02T07:50:16Z</time></trkpt><trkpt lat="43.289133490511375" lon="11.37580181706712"><ele>190.8</ele><time>2026-05-02T07:50:17Z</time></trkpt><trkpt lat="43.28913672969715" lon="11.375950374900794"><ele>189.2</ele><time>2026-05-02T07:50:18Z</time></trkpt><trkpt lat="43.28914006270297" lon="11.37608776342186"><ele>187.60000000000002</ele><time>2026-05-02T07:50:19Z</time></trkpt><trkpt lat="43.289143580394466" lon="11.376213056658642"><ele>186.0</ele><time>2026-05-02T07:50:20Z</time></trkpt><trkpt lat="43.289147607175174" lon="11.376332879290064"><ele>185.5</ele><time>2026-05-02T07:50:21Z</time></trkpt><trkpt lat="43.28915305042485" lon="11.37645563363854"><ele>185.0</ele><time>2026-05-02T07:50:22Z</time></trkpt><trkpt lat="43.28915954315893" lon="11.376573344510366"><ele>184.5</ele><time>2026-05-02T07:50:23Z</time></trkpt><trkpt lat="43.28916555611474" lon="11.37668235571363"><ele>184.0</ele><time>2026-05-02T07:50:24Z</time></trkpt><trkpt lat="43.289175973614526" lon="11.376789307191293"><ele>183.5</ele><time>2026-05-02T07:50:25Z</time></trkpt><trkpt lat="43.289185395727436" lon="11.376891361149132"><ele>183.0</ele><time>2026-05-02T07:50:26Z</time></trkpt><trkpt lat="43.28919589772844" lon="11.376989655093311"><ele>183.0</ele><time>2026-05-02T07:50:27Z</time></trkpt><trkpt lat="43.28920598342541" lon="11.377084592197628"><ele>183.0</ele><time>2026-05-02T07:50:28Z</time></trkpt><trkpt lat="43.289216010530545" lon="11.377178977756728"><ele>183.0</ele><time>2026-05-02T07:50:29Z</time></trkpt><trkpt lat="43.28922426632368" lon="11.37728239407343"><ele>183.0</ele><time>2026-05-02T07:50:30Z</time></trkpt><trkpt lat="43.28923158017524" lon="11.377393678341088"><ele>183.0</ele><time>2026-05-02T07:50:31Z</time></trkpt><trkpt lat="43.289235548574744" lon="11.377510325647602"><ele>183.0</ele><time>2026-05-02T07:50:32Z</time></trkpt><trkpt lat="43.28923045052089" lon="11.377623556884474"><ele>183.0</ele><time>2026-05-02T07:50:33Z</time></trkpt><trkpt lat="43.289217998220686" lon="11.377725420759631"><ele>183.0</ele><time>2026-05-02T07:50:34Z</time></trkpt><trkpt lat="43.28917580567484" lon="11.377805735987337"><ele>183.0</ele><time>2026-05-02T07:50:35Z</time></trkpt><trkpt lat="43.289117672359836" lon="11.37784042997929"><ele>183.0</ele><time>2026-05-02T07:50:36Z</time></trkpt><trkpt lat="43.2889791587695" lon="11.377928716454873"><ele>183.0</ele><time>2026-05-02T07:50:38Z</time></trkpt><trkpt lat="43.28889848169202" lon="11.377973763420048"><ele>185.5</ele><time>2026-05-02T07:50:39Z</time></trkpt><trkpt lat="43.288823971730515" lon="11.378041548189048"><ele>188.0</ele><time>2026-05-02T07:50:40Z</time></trkpt><trkpt lat="43.28875686541468" lon="11.37808073073114"><ele>190.5</ele><time>2026-05-02T07:50:41Z</time></trkpt><trkpt lat="43.28869269356226" lon="11.378118484177635"><ele>193.0</ele><time>2026-05-02T07:50:42Z</time></trkpt><trkpt lat="43.28862674921478" lon="11.378159663090157"><ele>195.5</ele><time>2026-05-02T07:50:43Z</time></trkpt><trkpt lat="43.28855966644136" lon="11.378206168373355"><ele>198.0</ele><time>2026-05-02T07:50:44Z</time></trkpt><trkpt lat="43.288482158517176" lon="11.37825430938546"><ele>198.0</ele><time>2026-05-02T07:50:45Z</time></trkpt><trkpt lat="43.28840202298041" lon="11.378314387507618"><ele>198.0</ele><time>2026-05-02T07:50:46Z</time></trkpt><trkpt lat="43.28832990880757" lon="11.378357538413072"><ele>198.0</ele><time>2026-05-02T07:50:47Z</time></trkpt><trkpt lat="43.28826791186584" lon="11.378426448680692"><ele>198.0</ele><time>2026-05-02T07:50:48Z</time></trkpt><trkpt lat="43.288209460197216" lon="11.378501401334127"><ele>198.0</ele><time>2026-05-02T07:50:49Z</time></trkpt><trkpt lat="43.28814044079469" lon="11.37860000080132"><ele>198.0</ele><time>2026-05-02T07:50:50Z</time></trkpt><trkpt lat="43.28809942804396" lon="11.378696051058398"><ele>197.66666666666666</ele><time>2026-05-02T07:50:51Z</time></trkpt><trkpt lat="43.28806131926883" lon="11.378764888815168"><ele>197.33333333333331</ele><time>2026-05-02T07:50:52Z</time></trkpt><trkpt lat="43.28802120863319" lon="11.378840550075603"><ele>197.0</ele><time>2026-05-02T07:50:53Z</time></trkpt><trkpt lat="43.28799478311482" lon="11.378930248588185"><ele>196.66666666666666</ele><time>2026-05-02T07:50:54Z</time></trkpt><trkpt lat="43.28799032615702" lon="11.379031384838493"><ele>196.33333333333331</ele><time>2026-05-02T07:50:55Z</time></trkpt><trkpt lat="43.28798804831171" lon="11.379177287097999"><ele>196.0</ele><time>2026-05-02T07:50:56.999Z</time></trkpt><trkpt lat="43.28801164787482" lon="11.379304249208861"><ele>196.4</ele><time>2026-05-02T07:50:58.999Z</time></trkpt><trkpt lat="43.28800216072123" lon="11.379395884303545"><ele>196.8</ele><time>2026-05-02T07:51:02.999Z</time></trkpt><trkpt lat="43.28801616801304" lon="11.379499810875316"><ele>197.20000000000002</ele><time>2026-05-02T07:51:21.999Z</time></trkpt><trkpt lat="43.287834997118985" lon="11.379591221621105"><ele>197.60000000000002</ele><time>2026-05-02T07:51:23.999Z</time></trkpt><trkpt lat="43.28775216942822" lon="11.379634225426992"><ele>198.0</ele><time>2026-05-02T07:51:24.999Z</time></trkpt><trkpt lat="43.28765908761556" lon="11.379686036550401"><ele>198.0</ele><time>2026-05-02T07:51:25.999Z</time></trkpt><trkpt lat="43.28755897562388" lon="11.379739900370192"><ele>198.0</ele><time>2026-05-02T07:51:26.999Z</time></trkpt><trkpt lat="43.28744396986262" lon="11.379797100364957"><ele>198.0</ele><time>2026-05-02T07:51:27.999Z</time></trkpt><trkpt lat="43.287313897175984" lon="11.379854149840355"><ele>198.0</ele><time>2026-05-02T07:51:28.999Z</time></trkpt><trkpt lat="43.28716992972137" lon="11.3798870338398"><ele>197.0</ele><time>2026-05-02T07:51:29.999Z</time></trkpt><trkpt lat="43.28701581910466" lon="11.379881784938373"><ele>196.0</ele><time>2026-05-02T07:51:30.999Z</time></trkpt><trkpt lat="43.286858328815384" lon="11.379844036310685"><ele>195.0</ele><time>2026-05-02T07:51:31.999Z</time></trkpt><trkpt lat="43.286702462393016" lon="11.379790345312902"><ele>195.0</ele><time>2026-05-02T07:51:32.999Z</time></trkpt><trkpt lat="43.28652262792722" lon="11.379724749817306"><ele>195.0</ele><time>2026-05-02T07:51:33.999Z</time></trkpt><trkpt lat="43.286340144852254" lon="11.379638156787852"><ele>195.0</ele><time>2026-05-02T07:51:34.999Z</time></trkpt><trkpt lat="43.28616557506624" lon="11.379524752365313"><ele>195.5</ele><time>2026-05-02T07:51:35.999Z</time></trkpt><trkpt lat="43.28598399945398" lon="11.37939664232784"><ele>196.0</ele><time>2026-05-02T07:51:36.999Z</time></trkpt><trkpt lat="43.28585676426793" lon="11.379363632899887"><ele>196.5</ele><time>2026-05-02T07:51:38.999Z</time></trkpt><trkpt lat="43.28575670760655" lon="11.37928430723509"><ele>197.0</ele><time>2026-05-02T07:51:39.999Z</time></trkpt><trkpt lat="43.28566608107666" lon="11.37921542719796"><ele>196.39999999999998</ele><time>2026-05-02T07:51:40.999Z</time></trkpt><trkpt lat="43.2855788727811" lon="11.37915450393723"><ele>195.79999999999998</ele><time>2026-05-02T07:51:41.999Z</time></trkpt><trkpt lat="43.28548678296484" lon="11.379096273741476"><ele>195.2</ele><time>2026-05-02T07:51:42.999Z</time></trkpt><trkpt lat="43.28538700780866" lon="11.379047378667968"><ele>194.6</ele><time>2026-05-02T07:51:43.999Z</time></trkpt><trkpt lat="43.28527962120758" lon="11.37901166363289"><ele>194.0</ele><time>2026-05-02T07:51:44.999Z</time></trkpt><trkpt lat="43.28516312051705" lon="11.37898653125706"><ele>194.0</ele><time>2026-05-02T07:51:45.999Z</time></trkpt><trkpt lat="43.285043204570115" lon="11.378972835750043"><ele>194.0</ele><time>2026-05-02T07:51:46.999Z</time></trkpt><trkpt lat="43.28492390988352" lon="11.378965300622221"><ele>194.0</ele><time>2026-05-02T07:51:47.999Z</time></trkpt><trkpt lat="43.28480526202713" lon="11.378959826350156"><ele>194.0</ele><time>2026-05-02T07:51:48.999Z</time></trkpt><trkpt lat="43.284691794660176" lon="11.378951195851112"><ele>193.75</ele><time>2026-05-02T07:51:49.999Z</time></trkpt><trkpt lat="43.28457207932751" lon="11.37894314348122"><ele>193.5</ele><time>2026-05-02T07:51:50.999Z</time></trkpt><trkpt lat="43.284457424945295" lon="11.378925778203081"><ele>193.25</ele><time>2026-05-02T07:51:51.999Z</time></trkpt><trkpt lat="43.28433910442301" lon="11.37891297038889"><ele>193.0</ele><time>2026-05-02T07:51:52.999Z</time></trkpt><trkpt lat="43.284238645614124" lon="11.378846807062152"><ele>191.8</ele><time>2026-05-02T07:51:53.999Z</time></trkpt><trkpt lat="43.28415222756252" lon="11.378781019457834"><ele>190.60000000000002</ele><time>2026-05-02T07:51:54.999Z</time></trkpt><trkpt lat="43.28407777541093" lon="11.378700604763667"><ele>189.39999999999998</ele><time>2026-05-02T07:51:55.999Z</time></trkpt><trkpt lat="43.28401658929607" lon="11.378602517525893"><ele>188.2</ele><time>2026-05-02T07:51:56.999Z</time></trkpt><trkpt lat="43.28395093209574" lon="11.378505152211222"><ele>187.0</ele><time>2026-05-02T07:51:57.999Z</time></trkpt><trkpt lat="43.283908281190826" lon="11.378382469552644"><ele>185.8</ele><time>2026-05-02T07:51:58.999Z</time></trkpt><trkpt lat="43.28387474727957" lon="11.378247031407142"><ele>184.6</ele><time>2026-05-02T07:51:59.999Z</time></trkpt><trkpt lat="43.2838230297766" lon="11.37811969400694"><ele>183.4</ele><time>2026-05-02T07:52:00.999Z</time></trkpt><trkpt lat="43.283757242529475" lon="11.37801498853413"><ele>182.20000000000002</ele><time>2026-05-02T07:52:01.999Z</time></trkpt><trkpt lat="43.28367733706646" lon="11.377928791772195"><ele>181.0</ele><time>2026-05-02T07:52:02.999Z</time></trkpt><trkpt lat="43.28358513577145" lon="11.377859360612069"><ele>180.60000000000002</ele><time>2026-05-02T07:52:03.999Z</time></trkpt><trkpt lat="43.28347976213823" lon="11.377812838931382"><ele>180.2</ele><time>2026-05-02T07:52:04.999Z</time></trkpt><trkpt lat="43.28338171569123" lon="11.377783201439872"><ele>179.8</ele><time>2026-05-02T07:52:05.999Z</time></trkpt><trkpt lat="43.28328433496691" lon="11.377765173650365"><ele>179.39999999999998</ele><time>2026-05-02T07:52:06.999Z</time></trkpt><trkpt lat="43.28319145216655" lon="11.377759427664465"><ele>179.0</ele><time>2026-05-02T07:52:07.999Z</time></trkpt><trkpt lat="43.28310292932479" lon="11.377771920523857"><ele>178.83333333333331</ele><time>2026-05-02T07:52:08.999Z</time></trkpt><trkpt lat="43.28301688253474" lon="11.377801105962412"><ele>178.66666666666666</ele><time>2026-05-02T07:52:10Z</time></trkpt><trkpt lat="43.28294034185608" lon="11.377827900515104"><ele>178.5</ele><time>2026-05-02T07:52:11Z</time></trkpt><trkpt lat="43.28286208819633" lon="11.377857238004719"><ele>178.33333333333334</ele><time>2026-05-02T07:52:12Z</time></trkpt><trkpt lat="43.28278481136402" lon="11.377885292985502"><ele>178.16666666666669</ele><time>2026-05-02T07:52:13Z</time></trkpt><trkpt lat="43.28270649963651" lon="11.377911510028689"><ele>178.0</ele><time>2026-05-02T07:52:14Z</time></trkpt><trkpt lat="43.28262955828823" lon="11.377933920681407"><ele>178.0</ele><time>2026-05-02T07:52:15Z</time></trkpt><trkpt lat="43.282547349681266" lon="11.377945770121851"><ele>178.0</ele><time>2026-05-02T07:52:16Z</time></trkpt><trkpt lat="43.28246307603219" lon="11.377942440250802"><ele>178.0</ele><time>2026-05-02T07:52:17Z</time></trkpt><trkpt lat="43.282379424266644" lon="11.377922753190958"><ele>178.0</ele><time>2026-05-02T07:52:18Z</time></trkpt><trkpt lat="43.282303458256706" lon="11.377884409615191"><ele>178.0</ele><time>2026-05-02T07:52:19Z</time></trkpt><trkpt lat="43.2822335217616" lon="11.37783140168874"><ele>178.0</ele><time>2026-05-02T07:52:20Z</time></trkpt><trkpt lat="43.2821723708928" lon="11.377763923444848"><ele>177.83333333333334</ele><time>2026-05-02T07:52:21Z</time></trkpt><trkpt lat="43.28211656918098" lon="11.37768562044751"><ele>177.66666666666669</ele><time>2026-05-02T07:52:22Z</time></trkpt><trkpt lat="43.28206668462181" lon="11.377591820320244"><ele>177.5</ele><time>2026-05-02T07:52:23Z</time></trkpt><trkpt lat="43.28202632410886" lon="11.377492762613517"><ele>177.33333333333334</ele><time>2026-05-02T07:52:24Z</time></trkpt><trkpt lat="43.28199741493346" lon="11.377398905594248"><ele>177.16666666666666</ele><time>2026-05-02T07:52:25Z</time></trkpt><trkpt lat="43.28197705757532" lon="11.377311745912424"><ele>177.0</ele><time>2026-05-02T07:52:26Z</time></trkpt><trkpt lat="43.281944490163454" lon="11.377162572787896"><ele>176.66666666666666</ele><time>2026-05-02T07:52:28Z</time></trkpt><trkpt lat="43.28191948962456" lon="11.377055701569374"><ele>176.33333333333334</ele><time>2026-05-02T07:52:30Z</time></trkpt><trkpt lat="43.281897979586766" lon="11.3769644082153"><ele>176.0</ele><time>2026-05-02T07:52:32Z</time></trkpt><trkpt lat="43.281874713432124" lon="11.376858292137374"><ele>175.66666666666669</ele><time>2026-05-02T07:52:34Z</time></trkpt><trkpt lat="43.28186768864605" lon="11.37670690657818"><ele>175.33333333333334</ele><time>2026-05-02T07:52:36Z</time></trkpt><trkpt lat="43.281890261719404" lon="11.376616004802239"><ele>175.0</ele><time>2026-05-02T07:52:37Z</time></trkpt><trkpt lat="43.28192714274286" lon="11.376511758215004"><ele>175.0</ele><time>2026-05-02T07:52:38Z</time></trkpt><trkpt lat="43.281959817067715" lon="11.376402862901688"><ele>175.0</ele><time>2026-05-02T07:52:39Z</time></trkpt><trkpt lat="43.281976809459344" lon="11.376294300069636"><ele>175.0</ele><time>2026-05-02T07:52:40Z</time></trkpt><trkpt lat="43.28196393848168" lon="11.376173819366754"><ele>175.0</ele><time>2026-05-02T07:52:41Z</time></trkpt><trkpt lat="43.28191424615423" lon="11.376068712316824"><ele>175.0</ele><time>2026-05-02T07:52:42Z</time></trkpt><trkpt lat="43.28183606293545" lon="11.375990777171335"><ele>175.0</ele><time>2026-05-02T07:52:43Z</time></trkpt><trkpt lat="43.281741837597444" lon="11.375929069111454"><ele>175.5</ele><time>2026-05-02T07:52:44Z</time></trkpt><trkpt lat="43.281653218905404" lon="11.375854472528623"><ele>176.0</ele><time>2026-05-02T07:52:45Z</time></trkpt><trkpt lat="43.2815672712667" lon="11.375745972320148"><ele>176.5</ele><time>2026-05-02T07:52:46Z</time></trkpt><trkpt lat="43.28156089223592" lon="11.375501320268697"><ele>177.0</ele><time>2026-05-02T07:52:47Z</time></trkpt><trkpt lat="43.28152829948769" lon="11.375294387800835"><ele>178.25</ele><time>2026-05-02T07:52:48Z</time></trkpt><trkpt lat="43.281529886753056" lon="11.375098196959813"><ele>179.5</ele><time>2026-05-02T07:52:49Z</time></trkpt><trkpt lat="43.28154841183561" lon="11.374916593835186"><ele>180.75</ele><time>2026-05-02T07:52:50Z</time></trkpt><trkpt lat="43.28158063415858" lon="11.37473989842848"><ele>182.0</ele><time>2026-05-02T07:52:51Z</time></trkpt><trkpt lat="43.28163689976972" lon="11.374570490792852"><ele>183.75</ele><time>2026-05-02T07:52:52Z</time></trkpt><trkpt lat="43.281698572496936" lon="11.374398921621935"><ele>185.5</ele><time>2026-05-02T07:52:53Z</time></trkpt><trkpt lat="43.28177122995735" lon="11.374224515994376"><ele>187.25</ele><time>2026-05-02T07:52:54Z</time></trkpt><trkpt lat="43.28185747128604" lon="11.374058603260591"><ele>189.0</ele><time>2026-05-02T07:52:55Z</time></trkpt><trkpt lat="43.28194509856445" lon="11.37390513011326"><ele>190.0</ele><time>2026-05-02T07:52:56Z</time></trkpt><trkpt lat="43.282029119459025" lon="11.373746812016746"><ele>191.0</ele><time>2026-05-02T07:52:57Z</time></trkpt><trkpt lat="43.282105718571344" lon="11.37358762950763"><ele>192.0</ele><time>2026-05-02T07:52:58Z</time></trkpt><trkpt lat="43.282172772801474" lon="11.37341385015274"><ele>193.0</ele><time>2026-05-02T07:52:58.999Z</time></trkpt><trkpt lat="43.28222317354409" lon="11.373230141708559"><ele>193.0</ele><time>2026-05-02T07:52:59.999Z</time></trkpt><trkpt lat="43.28225609716519" lon="11.373034038669132"><ele>193.0</ele><time>2026-05-02T07:53:00.999Z</time></trkpt><trkpt lat="43.282273556396014" lon="11.372835962813681"><ele>193.0</ele><time>2026-05-02T07:53:01.999Z</time></trkpt><trkpt lat="43.28228536601621" lon="11.372638932248611"><ele>193.0</ele><time>2026-05-02T07:53:02.999Z</time></trkpt><trkpt lat="43.282300308526125" lon="11.37244861619827"><ele>193.5</ele><time>2026-05-02T07:53:03.999Z</time></trkpt><trkpt lat="43.28231467348741" lon="11.37225915271293"><ele>194.0</ele><time>2026-05-02T07:53:04.999Z</time></trkpt><trkpt lat="43.28232819438137" lon="11.372064943936223"><ele>194.5</ele><time>2026-05-02T07:53:05.999Z</time></trkpt><trkpt lat="43.28234349777593" lon="11.371874296161087"><ele>195.0</ele><time>2026-05-02T07:53:06.999Z</time></trkpt><trkpt lat="43.28235759996234" lon="11.371685254070718"><ele>196.0</ele><time>2026-05-02T07:53:07.999Z</time></trkpt><trkpt lat="43.28237333462379" lon="11.371496512161412"><ele>197.0</ele><time>2026-05-02T07:53:08.999Z</time></trkpt><trkpt lat="43.28238949757115" lon="11.37131060725897"><ele>198.0</ele><time>2026-05-02T07:53:09.999Z</time></trkpt><trkpt lat="43.28240690450153" lon="11.37112414045379"><ele>199.0</ele><time>2026-05-02T07:53:10.999Z</time></trkpt><trkpt lat="43.282426212673556" lon="11.370931355987114"><ele>199.5</ele><time>2026-05-02T07:53:11.999Z</time></trkpt><trkpt lat="43.282449087612655" lon="11.370740945515674"><ele>200.0</ele><time>2026-05-02T07:53:12.999Z</time></trkpt><trkpt lat="43.28247988794604" lon="11.370549165666104"><ele>200.5</ele><time>2026-05-02T07:53:13.999Z</time></trkpt><trkpt lat="43.28252169599802" lon="11.370362847864723"><ele>201.0</ele><time>2026-05-02T07:53:14.999Z</time></trkpt><trkpt lat="43.28257364238969" lon="11.370175327331221"><ele>201.75</ele><time>2026-05-02T07:53:15.999Z</time></trkpt><trkpt lat="43.28263740692447" lon="11.369993434337927"><ele>202.5</ele><time>2026-05-02T07:53:16.999Z</time></trkpt><trkpt lat="43.28271788711558" lon="11.369820168151916"><ele>203.25</ele><time>2026-05-02T07:53:17.999Z</time></trkpt><trkpt lat="43.28279914912467" lon="11.369649914674289"><ele>204.0</ele><time>2026-05-02T07:53:18.999Z</time></trkpt><trkpt lat="43.28288772795045" lon="11.369476862855322"><ele>204.0</ele><time>2026-05-02T07:53:19.999Z</time></trkpt><trkpt lat="43.28297542937256" lon="11.369304459559963"><ele>204.0</ele><time>2026-05-02T07:53:20.999Z</time></trkpt><trkpt lat="43.283062957920905" lon="11.369132838009355"><ele>204.0</ele><time>2026-05-02T07:53:21.999Z</time></trkpt><trkpt lat="43.28315048133988" lon="11.36895883471943"><ele>205.33333333333331</ele><time>2026-05-02T07:53:22.999Z</time></trkpt><trkpt lat="43.28323683987419" lon="11.368780441730353"><ele>206.66666666666666</ele><time>2026-05-02T07:53:23.999Z</time></trkpt><trkpt lat="43.28331568098671" lon="11.36859433884392"><ele>208.0</ele><time>2026-05-02T07:53:24.999Z</time></trkpt><trkpt lat="43.28338004293434" lon="11.368396708266529"><ele>208.0</ele><time>2026-05-02T07:53:25.999Z</time></trkpt><trkpt lat="43.28342777931622" lon="11.368183565098745"><ele>208.0</ele><time>2026-05-02T07:53:26.999Z</time></trkpt><trkpt lat="43.28346127726765" lon="11.367962526427677"><ele>208.0</ele><time>2026-05-02T07:53:27.999Z</time></trkpt><trkpt lat="43.283475865746624" lon="11.36773459520917"><ele>208.0</ele><time>2026-05-02T07:53:28.999Z</time></trkpt><trkpt lat="43.283478307891286" lon="11.367497792846699"><ele>208.0</ele><time>2026-05-02T07:53:29.999Z</time></trkpt><trkpt lat="43.28346334446095" lon="11.367266804482774"><ele>208.0</ele><time>2026-05-02T07:53:30.999Z</time></trkpt><trkpt lat="43.28342021320058" lon="11.367046197728063"><ele>209.0</ele><time>2026-05-02T07:53:31.999Z</time></trkpt><trkpt lat="43.28334880537364" lon="11.366823217833891"><ele>210.0</ele><time>2026-05-02T07:53:32.999Z</time></trkpt><trkpt lat="43.28326215003651" lon="11.366607081445261"><ele>211.0</ele><time>2026-05-02T07:53:33.999Z</time></trkpt><trkpt lat="43.28316085079935" lon="11.366412194165374"><ele>212.33333333333331</ele><time>2026-05-02T07:53:34.999Z</time></trkpt><trkpt lat="43.28304427139159" lon="11.366239243824447"><ele>213.66666666666669</ele><time>2026-05-02T07:53:35.999Z</time></trkpt><trkpt lat="43.28291692394958" lon="11.366074375523615"><ele>215.0</ele><time>2026-05-02T07:53:36.999Z</time></trkpt><trkpt lat="43.282782009902355" lon="11.365920597973417"><ele>215.0</ele><time>2026-05-02T07:53:37.999Z</time></trkpt><trkpt lat="43.28264966608061" lon="11.3657718517976"><ele>215.0</ele><time>2026-05-02T07:53:38.999Z</time></trkpt><trkpt lat="43.28251463312601" lon="11.365627673987516"><ele>215.0</ele><time>2026-05-02T07:53:39.999Z</time></trkpt><trkpt lat="43.282381770078565" lon="11.365484869987041"><ele>215.0</ele><time>2026-05-02T07:53:40.999Z</time></trkpt><trkpt lat="43.28227282514445" lon="11.365322764120272"><ele>215.0</ele><time>2026-05-02T07:53:41.999Z</time></trkpt><trkpt lat="43.28221476641289" lon="11.365125557420782"><ele>215.0</ele><time>2026-05-02T07:53:42.999Z</time></trkpt><trkpt lat="43.282168420419985" lon="11.364924113932155"><ele>215.0</ele><time>2026-05-02T07:53:43.999Z</time></trkpt><trkpt lat="43.282160667669075" lon="11.36471103781717"><ele>215.0</ele><time>2026-05-02T07:53:44.999Z</time></trkpt><trkpt lat="43.282161914870755" lon="11.364480526899898"><ele>215.0</ele><time>2026-05-02T07:53:45.999Z</time></trkpt><trkpt lat="43.282195606379204" lon="11.364257195928268"><ele>213.66666666666669</ele><time>2026-05-02T07:53:46.999Z</time></trkpt><trkpt lat="43.28223748778361" lon="11.364053486095584"><ele>212.33333333333331</ele><time>2026-05-02T07:53:47.999Z</time></trkpt><trkpt lat="43.282288164624546" lon="11.363858478020529"><ele>211.0</ele><time>2026-05-02T07:53:48.999Z</time></trkpt><trkpt lat="43.28235456845279" lon="11.363670928514823"><ele>214.0</ele><time>2026-05-02T07:53:49.999Z</time></trkpt><trkpt lat="43.28243690883258" lon="11.363484390372877"><ele>217.0</ele><time>2026-05-02T07:53:50.999Z</time></trkpt><trkpt lat="43.28252866232714" lon="11.36330023323539"><ele>220.0</ele><time>2026-05-02T07:53:51.999Z</time></trkpt><trkpt lat="43.28261694220491" lon="11.363119171403662"><ele>217.33333333333331</ele><time>2026-05-02T07:53:52.999Z</time></trkpt><trkpt lat="43.28271156259478" lon="11.362938598691876"><ele>214.66666666666669</ele><time>2026-05-02T07:53:53.999Z</time></trkpt><trkpt lat="43.28280913676327" lon="11.362758021291855"><ele>212.0</ele><time>2026-05-02T07:53:54.999Z</time></trkpt><trkpt lat="43.28290470440631" lon="11.362578288211028"><ele>212.0</ele><time>2026-05-02T07:53:55.999Z</time></trkpt><trkpt lat="43.282993643496305" lon="11.362389028405726"><ele>212.0</ele><time>2026-05-02T07:53:56.999Z</time></trkpt><trkpt lat="43.28307328712137" lon="11.362192767636666"><ele>212.0</ele><time>2026-05-02T07:53:57.999Z</time></trkpt><trkpt lat="43.2831476312538" lon="11.361988665051243"><ele>215.66666666666669</ele><time>2026-05-02T07:53:58.999Z</time></trkpt><trkpt lat="43.283219934018966" lon="11.361782643947663"><ele>219.33333333333331</ele><time>2026-05-02T07:53:59.999Z</time></trkpt><trkpt lat="43.2832789317753" lon="11.361569398275314"><ele>223.0</ele><time>2026-05-02T07:54:00.999Z</time></trkpt><trkpt lat="43.28331852527969" lon="11.361346749871972"><ele>223.0</ele><time>2026-05-02T07:54:01.999Z</time></trkpt><trkpt lat="43.28335365611968" lon="11.361120048514406"><ele>223.0</ele><time>2026-05-02T07:54:02.999Z</time></trkpt><trkpt lat="43.28338979945354" lon="11.360897115286367"><ele>223.0</ele><time>2026-05-02T07:54:03.999Z</time></trkpt><trkpt lat="43.283431063177694" lon="11.36067817552035"><ele>221.0</ele><time>2026-05-02T07:54:04.999Z</time></trkpt><trkpt lat="43.28348837365324" lon="11.360463729138925"><ele>219.0</ele><time>2026-05-02T07:54:05.999Z</time></trkpt><trkpt lat="43.28355393718648" lon="11.360243230526093"><ele>217.0</ele><time>2026-05-02T07:54:06.999Z</time></trkpt><trkpt lat="43.28361848256346" lon="11.360033432207553"><ele>217.0</ele><time>2026-05-02T07:54:07.999Z</time></trkpt><trkpt lat="43.2836823197818" lon="11.35981695287689"><ele>217.0</ele><time>2026-05-02T07:54:08.999Z</time></trkpt><trkpt lat="43.283744251870985" lon="11.359598434257379"><ele>217.0</ele><time>2026-05-02T07:54:09.999Z</time></trkpt><trkpt lat="43.283808477507165" lon="11.359375346899292"><ele>216.33333333333331</ele><time>2026-05-02T07:54:10.999Z</time></trkpt><trkpt lat="43.28387139191833" lon="11.359152887949035"><ele>215.66666666666669</ele><time>2026-05-02T07:54:11.999Z</time></trkpt><trkpt lat="43.28393599962382" lon="11.35893380857548"><ele>215.0</ele><time>2026-05-02T07:54:12.999Z</time></trkpt><trkpt lat="43.28400007939839" lon="11.358708974892005"><ele>219.33333333333334</ele><time>2026-05-02T07:54:13.999Z</time></trkpt><trkpt lat="43.284065368101125" lon="11.358481740746928"><ele>223.66666666666669</ele><time>2026-05-02T07:54:14.999Z</time></trkpt><trkpt lat="43.28412744053478" lon="11.358243975171085"><ele>228.0</ele><time>2026-05-02T07:54:16Z</time></trkpt><trkpt lat="43.28417915144085" lon="11.357995272944962"><ele>228.0</ele><time>2026-05-02T07:54:17Z</time></trkpt><trkpt lat="43.28422799908734" lon="11.357753431780827"><ele>228.0</ele><time>2026-05-02T07:54:18Z</time></trkpt><trkpt lat="43.284275868694294" lon="11.357513101985544"><ele>228.0</ele><time>2026-05-02T07:54:19Z</time></trkpt><trkpt lat="43.28432582613807" lon="11.357277569576844"><ele>227.66666666666669</ele><time>2026-05-02T07:54:20Z</time></trkpt><trkpt lat="43.284382362928724" lon="11.357051777122182"><ele>227.33333333333334</ele><time>2026-05-02T07:54:21Z</time></trkpt><trkpt lat="43.284445486897184" lon="11.35683153583729"><ele>227.0</ele><time>2026-05-02T07:54:22Z</time></trkpt><trkpt lat="43.284513024602596" lon="11.356613002675521"><ele>227.0</ele><time>2026-05-02T07:54:23Z</time></trkpt><trkpt lat="43.284581744374904" lon="11.35639625330769"><ele>227.0</ele><time>2026-05-02T07:54:24Z</time></trkpt><trkpt lat="43.284653595171605" lon="11.356181436337721"><ele>227.0</ele><time>2026-05-02T07:54:25Z</time></trkpt><trkpt lat="43.28472647284993" lon="11.355973427936247"><ele>229.25</ele><time>2026-05-02T07:54:26Z</time></trkpt><trkpt lat="43.28479519287031" lon="11.355777167915702"><ele>231.5</ele><time>2026-05-02T07:54:27Z</time></trkpt><trkpt lat="43.28485559188144" lon="11.35560094253578"><ele>233.75</ele><time>2026-05-02T07:54:28Z</time></trkpt><trkpt lat="43.28491227052546" lon="11.355428821220308"><ele>236.0</ele><time>2026-05-02T07:54:29Z</time></trkpt><trkpt lat="43.28497028724901" lon="11.355263310994335"><ele>236.0</ele><time>2026-05-02T07:54:30Z</time></trkpt><trkpt lat="43.285035387524296" lon="11.35511494999198"><ele>236.0</ele><time>2026-05-02T07:54:31Z</time></trkpt><trkpt lat="43.285118006466206" lon="11.354830227001457"><ele>236.0</ele><time>2026-05-02T07:54:32Z</time></trkpt><trkpt lat="43.28510262863198" lon="11.354635065945859"><ele>236.66666666666669</ele><time>2026-05-02T07:54:33Z</time></trkpt><trkpt lat="43.285067124457555" lon="11.354442098108738"><ele>237.33333333333331</ele><time>2026-05-02T07:54:34Z</time></trkpt><trkpt lat="43.28500889966845" lon="11.35424734596967"><ele>238.0</ele><time>2026-05-02T07:54:35Z</time></trkpt><trkpt lat="43.28491011419035" lon="11.354082510350327"><ele>238.0</ele><time>2026-05-02T07:54:36Z</time></trkpt><trkpt lat="43.28479806341578" lon="11.3539524214454"><ele>238.0</ele><time>2026-05-02T07:54:37Z</time></trkpt><trkpt lat="43.28469728068236" lon="11.353838267677085"><ele>238.0</ele><time>2026-05-02T07:54:38Z</time></trkpt><trkpt lat="43.28463610449942" lon="11.353721427251703"><ele>238.0</ele><time>2026-05-02T07:54:39Z</time></trkpt><trkpt lat="43.28458603614758" lon="11.35362634498237"><ele>237.60000000000002</ele><time>2026-05-02T07:54:40Z</time></trkpt><trkpt lat="43.28453673998354" lon="11.353537261205938"><ele>237.20000000000002</ele><time>2026-05-02T07:54:41Z</time></trkpt><trkpt lat="43.284475964509205" lon="11.353427433061283"><ele>236.8</ele><time>2026-05-02T07:54:43Z</time></trkpt><trkpt lat="43.28442354316207" lon="11.353358154381425"><ele>236.4</ele><time>2026-05-02T07:54:46Z</time></trkpt><trkpt lat="43.28430260582493" lon="11.353286862189229"><ele>236.0</ele><time>2026-05-02T07:54:48Z</time></trkpt><trkpt lat="43.28420239940487" lon="11.353379347329282"><ele>236.0</ele><time>2026-05-02T07:54:49Z</time></trkpt><trkpt lat="43.28411964011938" lon="11.353447878215766"><ele>236.00000000000003</ele><time>2026-05-02T07:54:50Z</time></trkpt><trkpt lat="43.28402701331636" lon="11.353508490818434"><ele>236.00000000000003</ele><time>2026-05-02T07:54:51Z</time></trkpt><trkpt lat="43.28392502059413" lon="11.353557972631451"><ele>236.0</ele><time>2026-05-02T07:54:52Z</time></trkpt><trkpt lat="43.283820603993" lon="11.353605338225341"><ele>236.0</ele><time>2026-05-02T07:54:53Z</time></trkpt><trkpt lat="43.28370782404128" lon="11.353649774410316"><ele>236.5</ele><time>2026-05-02T07:54:54Z</time></trkpt><trkpt lat="43.283593035787014" lon="11.353674726797"><ele>237.0</ele><time>2026-05-02T07:54:55Z</time></trkpt><trkpt lat="43.28347031189635" lon="11.353690406643487"><ele>237.5</ele><time>2026-05-02T07:54:56Z</time></trkpt><trkpt lat="43.283340839201415" lon="11.353692700595275"><ele>238.0</ele><time>2026-05-02T07:54:57Z</time></trkpt><trkpt lat="43.28320640687586" lon="11.353679988497701"><ele>238.0</ele><time>2026-05-02T07:54:58Z</time></trkpt><trkpt lat="43.28306995693831" lon="11.353653059316153"><ele>238.0</ele><time>2026-05-02T07:54:59Z</time></trkpt><trkpt lat="43.28293510820166" lon="11.353623027320516"><ele>238.0</ele><time>2026-05-02T07:55:00Z</time></trkpt><trkpt lat="43.28280145328819" lon="11.353592606472143"><ele>238.0</ele><time>2026-05-02T07:55:01Z</time></trkpt><trkpt lat="43.28266898702907" lon="11.353562264870074"><ele>238.0</ele><time>2026-05-02T07:55:02Z</time></trkpt><trkpt lat="43.28253772669441" lon="11.353531937895315"><ele>238.0</ele><time>2026-05-02T07:55:03Z</time></trkpt><trkpt lat="43.28241064538718" lon="11.353498618304606"><ele>238.0</ele><time>2026-05-02T07:55:03.999Z</time></trkpt><trkpt lat="43.28228277671491" lon="11.353467128100139"><ele>238.0</ele><time>2026-05-02T07:55:04.999Z</time></trkpt><trkpt lat="43.28215734925428" lon="11.353437154245368"><ele>238.0</ele><time>2026-05-02T07:55:05.999Z</time></trkpt><trkpt lat="43.28203011180959" lon="11.353409613070038"><ele>238.0</ele><time>2026-05-02T07:55:06.999Z</time></trkpt><trkpt lat="43.28189841471109" lon="11.353382545024331"><ele>238.0</ele><time>2026-05-02T07:55:07.999Z</time></trkpt><trkpt lat="43.281761007347825" lon="11.35335447871631"><ele>238.0</ele><time>2026-05-02T07:55:08.999Z</time></trkpt><trkpt lat="43.281622243779836" lon="11.353324654177928"><ele>238.0</ele><time>2026-05-02T07:55:09.999Z</time></trkpt><trkpt lat="43.28148934134633" lon="11.353290068857136"><ele>238.0</ele><time>2026-05-02T07:55:10.999Z</time></trkpt><trkpt lat="43.28136292367496" lon="11.353258577083606"><ele>238.0</ele><time>2026-05-02T07:55:11.999Z</time></trkpt><trkpt lat="43.281231746188304" lon="11.35322143127699"><ele>238.0</ele><time>2026-05-02T07:55:12.999Z</time></trkpt><trkpt lat="43.28109423099884" lon="11.353182283914983"><ele>238.0</ele><time>2026-05-02T07:55:13.999Z</time></trkpt><trkpt lat="43.28095561130704" lon="11.35313716638533"><ele>238.0</ele><time>2026-05-02T07:55:14.999Z</time></trkpt><trkpt lat="43.28081107688204" lon="11.353085980318244"><ele>238.0</ele><time>2026-05-02T07:55:15.999Z</time></trkpt><trkpt lat="43.2806616853095" lon="11.353032772022372"><ele>238.0</ele><time>2026-05-02T07:55:16.999Z</time></trkpt><trkpt lat="43.28050875494004" lon="11.352978443784583"><ele>235.33333333333331</ele><time>2026-05-02T07:55:17.999Z</time></trkpt><trkpt lat="43.280357698157516" lon="11.352925373006148"><ele>232.66666666666669</ele><time>2026-05-02T07:55:18.999Z</time></trkpt><trkpt lat="43.280205034154704" lon="11.35287435995175"><ele>230.0</ele><time>2026-05-02T07:55:19.999Z</time></trkpt><trkpt lat="43.280050894088774" lon="11.352825945194702"><ele>230.0</ele><time>2026-05-02T07:55:20.999Z</time></trkpt><trkpt lat="43.27989775378833" lon="11.352779969359515"><ele>230.0</ele><time>2026-05-02T07:55:21.999Z</time></trkpt><trkpt lat="43.27974446888842" lon="11.352738693184712"><ele>230.0</ele><time>2026-05-02T07:55:22.999Z</time></trkpt><trkpt lat="43.279591615241756" lon="11.352702952482156"><ele>229.0</ele><time>2026-05-02T07:55:23.999Z</time></trkpt><trkpt lat="43.27943953937437" lon="11.352673190516539"><ele>228.0</ele><time>2026-05-02T07:55:24.999Z</time></trkpt><trkpt lat="43.27928267307476" lon="11.352648831829555"><ele>227.0</ele><time>2026-05-02T07:55:25.999Z</time></trkpt><trkpt lat="43.27912604668988" lon="11.352630356276029"><ele>227.0</ele><time>2026-05-02T07:55:26.999Z</time></trkpt><trkpt lat="43.27896503959147" lon="11.352623919111617"><ele>227.0</ele><time>2026-05-02T07:55:27.999Z</time></trkpt><trkpt lat="43.27880329145577" lon="11.352648852509477"><ele>227.0</ele><time>2026-05-02T07:55:28.999Z</time></trkpt><trkpt lat="43.27863976864439" lon="11.352716240838397"><ele>227.0</ele><time>2026-05-02T07:55:29.999Z</time></trkpt><trkpt lat="43.27848365271816" lon="11.352808043892328"><ele>227.0</ele><time>2026-05-02T07:55:30.999Z</time></trkpt><trkpt lat="43.27832299062364" lon="11.35290641390788"><ele>227.0</ele><time>2026-05-02T07:55:31.999Z</time></trkpt><trkpt lat="43.278169419429155" lon="11.353000800911428"><ele>228.33333333333334</ele><time>2026-05-02T07:55:32.999Z</time></trkpt><trkpt lat="43.27802321736872" lon="11.353092476571074"><ele>229.66666666666669</ele><time>2026-05-02T07:55:33.999Z</time></trkpt><trkpt lat="43.2778803685233" lon="11.353185143496775"><ele>231.0</ele><time>2026-05-02T07:55:34.999Z</time></trkpt><trkpt lat="43.27774046053916" lon="11.35327210679136"><ele>231.0</ele><time>2026-05-02T07:55:35.999Z</time></trkpt><trkpt lat="43.277608522675976" lon="11.353352657590916"><ele>231.0</ele><time>2026-05-02T07:55:36.999Z</time></trkpt><trkpt lat="43.277484017758496" lon="11.353425318970443"><ele>231.0</ele><time>2026-05-02T07:55:37.999Z</time></trkpt><trkpt lat="43.277358076841836" lon="11.35349735981204"><ele>231.0</ele><time>2026-05-02T07:55:38.999Z</time></trkpt><trkpt lat="43.27723154348086" lon="11.353563070057023"><ele>231.25</ele><time>2026-05-02T07:55:39.999Z</time></trkpt><trkpt lat="43.27709937312378" lon="11.35362179303502"><ele>231.5</ele><time>2026-05-02T07:55:40.999Z</time></trkpt><trkpt lat="43.27696214999036" lon="11.353668547269278"><ele>231.75</ele><time>2026-05-02T07:55:41.999Z</time></trkpt><trkpt lat="43.276817507133906" lon="11.353702036091075"><ele>232.0</ele><time>2026-05-02T07:55:42.999Z</time></trkpt><trkpt lat="43.27666647020468" lon="11.35373047628219"><ele>232.0</ele><time>2026-05-02T07:55:43.999Z</time></trkpt><trkpt lat="43.27651200493073" lon="11.353758073666066"><ele>232.0</ele><time>2026-05-02T07:55:44.999Z</time></trkpt><trkpt lat="43.276352344878" lon="11.353786623042632"><ele>232.0</ele><time>2026-05-02T07:55:45.999Z</time></trkpt><trkpt lat="43.27618965452664" lon="11.353817051000643"><ele>230.33333333333331</ele><time>2026-05-02T07:55:46.999Z</time></trkpt><trkpt lat="43.27602496005166" lon="11.353850982465074"><ele>228.66666666666669</ele><time>2026-05-02T07:55:47.999Z</time></trkpt><trkpt lat="43.27585638072529" lon="11.353883890109229"><ele>227.0</ele><time>2026-05-02T07:55:48.999Z</time></trkpt><trkpt lat="43.275686751771325" lon="11.353914635555933"><ele>225.33333333333334</ele><time>2026-05-02T07:55:49.999Z</time></trkpt><trkpt lat="43.27552106087369" lon="11.353944457140491"><ele>223.66666666666669</ele><time>2026-05-02T07:55:50.999Z</time></trkpt><trkpt lat="43.27536283006522" lon="11.353976173618374"><ele>222.0</ele><time>2026-05-02T07:55:51.999Z</time></trkpt><trkpt lat="43.27520842909127" lon="11.3540101600113"><ele>222.0</ele><time>2026-05-02T07:55:52.999Z</time></trkpt><trkpt lat="43.27505859571613" lon="11.354041933690175"><ele>222.0</ele><time>2026-05-02T07:55:53.999Z</time></trkpt><trkpt lat="43.27491325753987" lon="11.354076416730459"><ele>222.0</ele><time>2026-05-02T07:55:54.999Z</time></trkpt><trkpt lat="43.274771559204986" lon="11.35412625889551"><ele>222.0</ele><time>2026-05-02T07:55:55.999Z</time></trkpt><trkpt lat="43.27463431114812" lon="11.354201366863606"><ele>223.0</ele><time>2026-05-02T07:55:56.999Z</time></trkpt><trkpt lat="43.2745037142512" lon="11.354303895192745"><ele>224.0</ele><time>2026-05-02T07:55:57.999Z</time></trkpt><trkpt lat="43.27438484907647" lon="11.354441315336507"><ele>225.0</ele><time>2026-05-02T07:55:58.999Z</time></trkpt><trkpt lat="43.27427722421841" lon="11.35459289274542"><ele>224.0</ele><time>2026-05-02T07:55:59.999Z</time></trkpt><trkpt lat="43.27417523899722" lon="11.354755307422645"><ele>223.0</ele><time>2026-05-02T07:56:00.999Z</time></trkpt><trkpt lat="43.27407239469354" lon="11.3549227417675"><ele>222.0</ele><time>2026-05-02T07:56:01.999Z</time></trkpt><trkpt lat="43.273960388879416" lon="11.355080663154233"><ele>220.33333333333331</ele><time>2026-05-02T07:56:02.999Z</time></trkpt><trkpt lat="43.27383907711439" lon="11.355223121385968"><ele>218.66666666666666</ele><time>2026-05-02T07:56:03.999Z</time></trkpt><trkpt lat="43.27371150416661" lon="11.355360496912398"><ele>217.0</ele><time>2026-05-02T07:56:04.999Z</time></trkpt><trkpt lat="43.27358142100254" lon="11.355501404100055"><ele>219.0</ele><time>2026-05-02T07:56:05.999Z</time></trkpt><trkpt lat="43.27345405552311" lon="11.355644387093395"><ele>221.0</ele><time>2026-05-02T07:56:06.999Z</time></trkpt><trkpt lat="43.27333053931744" lon="11.355786089929868"><ele>223.0</ele><time>2026-05-02T07:56:07.999Z</time></trkpt><trkpt lat="43.273207855589085" lon="11.35592706479335"><ele>221.33333333333331</ele><time>2026-05-02T07:56:08.999Z</time></trkpt><trkpt lat="43.273081178435184" lon="11.356063594549402"><ele>219.66666666666669</ele><time>2026-05-02T07:56:09.999Z</time></trkpt><trkpt lat="43.27296048062749" lon="11.356194634289118"><ele>218.0</ele><time>2026-05-02T07:56:10.999Z</time></trkpt><trkpt lat="43.27284390948496" lon="11.356328714387528"><ele>220.25</ele><time>2026-05-02T07:56:11.999Z</time></trkpt><trkpt lat="43.27273020583817" lon="11.356460401034534"><ele>222.5</ele><time>2026-05-02T07:56:12.999Z</time></trkpt><trkpt lat="43.2726167795287" lon="11.356587387786991"><ele>224.75</ele><time>2026-05-02T07:56:13.999Z</time></trkpt><trkpt lat="43.27250501845041" lon="11.356708952219492"><ele>227.0</ele><time>2026-05-02T07:56:14.999Z</time></trkpt><trkpt lat="43.272396321507564" lon="11.35682825977885"><ele>227.0</ele><time>2026-05-02T07:56:15.999Z</time></trkpt><trkpt lat="43.27229088816409" lon="11.356944228157662"><ele>227.0</ele><time>2026-05-02T07:56:16.999Z</time></trkpt><trkpt lat="43.2721911940421" lon="11.357055717432855"><ele>227.0</ele><time>2026-05-02T07:56:17.999Z</time></trkpt><trkpt lat="43.272102712610035" lon="11.357161165160552"><ele>227.0</ele><time>2026-05-02T07:56:18.999Z</time></trkpt><trkpt lat="43.27202411487344" lon="11.3572609715745"><ele>226.2</ele><time>2026-05-02T07:56:19.999Z</time></trkpt><trkpt lat="43.27195210715217" lon="11.357347434902987"><ele>225.39999999999998</ele><time>2026-05-02T07:56:20.999Z</time></trkpt><trkpt lat="43.271883270902336" lon="11.357405524680283"><ele>224.60000000000002</ele><time>2026-05-02T07:56:22Z</time></trkpt><trkpt lat="43.27180494166381" lon="11.357406981063463"><ele>223.8</ele><time>2026-05-02T07:56:23Z</time></trkpt><trkpt lat="43.271733784263596" lon="11.357332632970857"><ele>223.0</ele><time>2026-05-02T07:56:24Z</time></trkpt><trkpt lat="43.27164963822828" lon="11.357242101948845"><ele>223.0</ele><time>2026-05-02T07:56:25Z</time></trkpt><trkpt lat="43.27156556152326" lon="11.35714976625452"><ele>223.0</ele><time>2026-05-02T07:56:26Z</time></trkpt><trkpt lat="43.271482279499374" lon="11.357077439858012"><ele>223.0</ele><time>2026-05-02T07:56:27Z</time></trkpt><trkpt lat="43.27141909529708" lon="11.356986855418333"><ele>223.0</ele><time>2026-05-02T07:56:28Z</time></trkpt><trkpt lat="43.27135017170599" lon="11.356910193420543"><ele>223.0</ele><time>2026-05-02T07:56:29Z</time></trkpt><trkpt lat="43.271285992847936" lon="11.356838679950396"><ele>222.83333333333331</ele><time>2026-05-02T07:56:30Z</time></trkpt><trkpt lat="43.27122410140899" lon="11.356772666494905"><ele>222.66666666666666</ele><time>2026-05-02T07:56:31Z</time></trkpt><trkpt lat="43.27116481405601" lon="11.356710274532247"><ele>222.5</ele><time>2026-05-02T07:56:32Z</time></trkpt><trkpt lat="43.27110229133116" lon="11.356646607321217"><ele>222.33333333333331</ele><time>2026-05-02T07:56:33Z</time></trkpt><trkpt lat="43.27103322135356" lon="11.35657627298622"><ele>222.16666666666666</ele><time>2026-05-02T07:56:34Z</time></trkpt><trkpt lat="43.27096435447348" lon="11.356505924198228"><ele>222.0</ele><time>2026-05-02T07:56:35Z</time></trkpt><trkpt lat="43.27089246830565" lon="11.356457383197382"><ele>222.0</ele><time>2026-05-02T07:56:36Z</time></trkpt><trkpt lat="43.27083586186769" lon="11.356397823213614"><ele>222.0</ele><time>2026-05-02T07:56:37Z</time></trkpt><trkpt lat="43.27078196385535" lon="11.356343857031472"><ele>222.0</ele><time>2026-05-02T07:56:38Z</time></trkpt><trkpt lat="43.270690492730054" lon="11.356220670293755"><ele>222.0</ele><time>2026-05-02T07:56:40Z</time></trkpt><trkpt lat="43.27062255140325" lon="11.35617943283493"><ele>222.0</ele><time>2026-05-02T07:56:41Z</time></trkpt><trkpt lat="43.27056289564249" lon="11.35611678673237"><ele>222.0</ele><time>2026-05-02T07:56:42Z</time></trkpt><trkpt lat="43.27050579330413" lon="11.356057932553743"><ele>220.28571428571428</ele><time>2026-05-02T07:56:43Z</time></trkpt><trkpt lat="43.270451413915104" lon="11.35600734755538"><ele>218.57142857142858</ele><time>2026-05-02T07:56:44Z</time></trkpt><trkpt lat="43.27039523195964" lon="11.35596641071"><ele>216.85714285714286</ele><time>2026-05-02T07:56:45Z</time></trkpt><trkpt lat="43.27033315351641" lon="11.355933391787362"><ele>215.14285714285714</ele><time>2026-05-02T07:56:46Z</time></trkpt><trkpt lat="43.2702658864705" lon="11.355910479254286"><ele>213.42857142857144</ele><time>2026-05-02T07:56:47Z</time></trkpt><trkpt lat="43.27019685312018" lon="11.355877511592322"><ele>211.71428571428572</ele><time>2026-05-02T07:56:48Z</time></trkpt><trkpt lat="43.27011703082685" lon="11.355875711956566"><ele>210.0</ele><time>2026-05-02T07:56:49Z</time></trkpt><trkpt lat="43.270034654352706" lon="11.355880630006242"><ele>210.0</ele><time>2026-05-02T07:56:50Z</time></trkpt><trkpt lat="43.26995500992749" lon="11.355890473080304"><ele>210.0</ele><time>2026-05-02T07:56:51Z</time></trkpt><trkpt lat="43.26987687073839" lon="11.355904881260619"><ele>210.0</ele><time>2026-05-02T07:56:52Z</time></trkpt><trkpt lat="43.2697926515384" lon="11.355925192722024"><ele>210.0</ele><time>2026-05-02T07:56:53Z</time></trkpt><trkpt lat="43.26970444908891" lon="11.355955310702829"><ele>210.0</ele><time>2026-05-02T07:56:54Z</time></trkpt><trkpt lat="43.269614114405364" lon="11.356001023792231"><ele>210.0</ele><time>2026-05-02T07:56:55Z</time></trkpt><trkpt lat="43.26953027303544" lon="11.356062197326224"><ele>208.4</ele><time>2026-05-02T07:56:56Z</time></trkpt><trkpt lat="43.26944891798825" lon="11.356132312219879"><ele>206.8</ele><time>2026-05-02T07:56:57Z</time></trkpt><trkpt lat="43.26937516595393" lon="11.356202787840987"><ele>205.2</ele><time>2026-05-02T07:56:58Z</time></trkpt><trkpt lat="43.26930115962329" lon="11.356289775430454"><ele>203.6</ele><time>2026-05-02T07:56:59Z</time></trkpt><trkpt lat="43.26923305647552" lon="11.356382852460488"><ele>202.0</ele><time>2026-05-02T07:57:00Z</time></trkpt><trkpt lat="43.26916657360218" lon="11.356482042048139"><ele>202.0</ele><time>2026-05-02T07:57:01Z</time></trkpt><trkpt lat="43.26910776442499" lon="11.356591767631263"><ele>202.0</ele><time>2026-05-02T07:57:02Z</time></trkpt><trkpt lat="43.26905384354403" lon="11.356720525705231"><ele>202.0</ele><time>2026-05-02T07:57:03Z</time></trkpt><trkpt lat="43.26900204507587" lon="11.35685971663716"><ele>202.0</ele><time>2026-05-02T07:57:03.999Z</time></trkpt><trkpt lat="43.26896129605958" lon="11.357007988739928"><ele>202.0</ele><time>2026-05-02T07:57:04.999Z</time></trkpt><trkpt lat="43.268957397481984" lon="11.357154871272725"><ele>202.39999999999998</ele><time>2026-05-02T07:57:05.999Z</time></trkpt><trkpt lat="43.268946505491556" lon="11.35728633214987"><ele>202.79999999999998</ele><time>2026-05-02T07:57:06.999Z</time></trkpt><trkpt lat="43.26894220269121" lon="11.357425155315644"><ele>203.2</ele><time>2026-05-02T07:57:07.999Z</time></trkpt><trkpt lat="43.26892104857041" lon="11.357581400112416"><ele>203.6</ele><time>2026-05-02T07:57:08.999Z</time></trkpt><trkpt lat="43.268933966551586" lon="11.357739200669013"><ele>204.0</ele><time>2026-05-02T07:57:09.999Z</time></trkpt><trkpt lat="43.268930043868664" lon="11.357895409658905"><ele>200.25</ele><time>2026-05-02T07:57:10.999Z</time></trkpt><trkpt lat="43.26892772889864" lon="11.358049738192264"><ele>196.5</ele><time>2026-05-02T07:57:11.999Z</time></trkpt><trkpt lat="43.26892120122886" lon="11.358209772440985"><ele>192.75</ele><time>2026-05-02T07:57:12.999Z</time></trkpt><trkpt lat="43.268905006526985" lon="11.358373109243018"><ele>189.0</ele><time>2026-05-02T07:57:13.999Z</time></trkpt><trkpt lat="43.26887324839346" lon="11.358530593351762"><ele>189.0</ele><time>2026-05-02T07:57:14.999Z</time></trkpt><trkpt lat="43.268830235841676" lon="11.358681162421783"><ele>189.0</ele><time>2026-05-02T07:57:15.999Z</time></trkpt><trkpt lat="43.268777019264036" lon="11.358824619072468"><ele>189.0</ele><time>2026-05-02T07:57:16.999Z</time></trkpt><trkpt lat="43.26871349044979" lon="11.358954681155147"><ele>189.0</ele><time>2026-05-02T07:57:17.999Z</time></trkpt><trkpt lat="43.268638636658665" lon="11.359067334144317"><ele>189.2</ele><time>2026-05-02T07:57:18.999Z</time></trkpt><trkpt lat="43.26854235142576" lon="11.359138224570689"><ele>189.39999999999998</ele><time>2026-05-02T07:57:19.999Z</time></trkpt><trkpt lat="43.268456403098526" lon="11.359215454572416"><ele>189.6</ele><time>2026-05-02T07:57:20.999Z</time></trkpt><trkpt lat="43.268364348964646" lon="11.359276243963587"><ele>189.8</ele><time>2026-05-02T07:57:21.999Z</time></trkpt><trkpt lat="43.268264295543176" lon="11.35932541003746"><ele>190.0</ele><time>2026-05-02T07:57:22.999Z</time></trkpt><trkpt lat="43.268154606598834" lon="11.359370424214731"><ele>189.0</ele><time>2026-05-02T07:57:23.999Z</time></trkpt><trkpt lat="43.2680395997865" lon="11.35939420751013"><ele>188.0</ele><time>2026-05-02T07:57:24.999Z</time></trkpt><trkpt lat="43.26792481917628" lon="11.359383139807477"><ele>187.0</ele><time>2026-05-02T07:57:25.999Z</time></trkpt><trkpt lat="43.26781324298643" lon="11.359356669632241"><ele>186.0</ele><time>2026-05-02T07:57:26.999Z</time></trkpt><trkpt lat="43.26770409844858" lon="11.359323707146942"><ele>186.0</ele><time>2026-05-02T07:57:27.999Z</time></trkpt><trkpt lat="43.26759279248784" lon="11.3592837674199"><ele>186.0</ele><time>2026-05-02T07:57:28.999Z</time></trkpt><trkpt lat="43.26748455885413" lon="11.359242725091134"><ele>186.0</ele><time>2026-05-02T07:57:29.999Z</time></trkpt><trkpt lat="43.26736832895379" lon="11.359215202837659"><ele>186.0</ele><time>2026-05-02T07:57:30.999Z</time></trkpt><trkpt lat="43.267259785022425" lon="11.359144506985745"><ele>185.75</ele><time>2026-05-02T07:57:31.999Z</time></trkpt><trkpt lat="43.2671452580129" lon="11.359093629476176"><ele>185.5</ele><time>2026-05-02T07:57:32.999Z</time></trkpt><trkpt lat="43.26703104908721" lon="11.359047166289235"><ele>185.25</ele><time>2026-05-02T07:57:33.999Z</time></trkpt><trkpt lat="43.266916392740804" lon="11.359000521064385"><ele>185.0</ele><time>2026-05-02T07:57:34.999Z</time></trkpt><trkpt lat="43.26680494086042" lon="11.358955179380501"><ele>185.0</ele><time>2026-05-02T07:57:35.999Z</time></trkpt><trkpt lat="43.26669332402803" lon="11.358909851989404"><ele>185.0</ele><time>2026-05-02T07:57:36.999Z</time></trkpt><trkpt lat="43.26658012393658" lon="11.358887318766278"><ele>185.0</ele><time>2026-05-02T07:57:37.999Z</time></trkpt><trkpt lat="43.26647766509871" lon="11.358832635953586"><ele>185.0</ele><time>2026-05-02T07:57:38.999Z</time></trkpt><trkpt lat="43.26637120721132" lon="11.358795848951615"><ele>185.0</ele><time>2026-05-02T07:57:39.999Z</time></trkpt><trkpt lat="43.26627340150441" lon="11.35872928640841"><ele>185.0</ele><time>2026-05-02T07:57:40.999Z</time></trkpt><trkpt lat="43.26616595575185" lon="11.358682294084955"><ele>185.0</ele><time>2026-05-02T07:57:41.999Z</time></trkpt><trkpt lat="43.26605538356928" lon="11.358633743549465"><ele>185.0</ele><time>2026-05-02T07:57:42.999Z</time></trkpt><trkpt lat="43.265940978286004" lon="11.358583509974178"><ele>185.0</ele><time>2026-05-02T07:57:43.999Z</time></trkpt><trkpt lat="43.26581729460555" lon="11.358529428575881"><ele>185.0</ele><time>2026-05-02T07:57:44.999Z</time></trkpt><trkpt lat="43.26568957075567" lon="11.358473787636626"><ele>185.0</ele><time>2026-05-02T07:57:45.999Z</time></trkpt><trkpt lat="43.265564589659476" lon="11.358419341509906"><ele>185.0</ele><time>2026-05-02T07:57:46.999Z</time></trkpt><trkpt lat="43.265441142932424" lon="11.358367483140265"><ele>184.75</ele><time>2026-05-02T07:57:47.999Z</time></trkpt><trkpt lat="43.26531751225545" lon="11.358335652214517"><ele>184.5</ele><time>2026-05-02T07:57:48.999Z</time></trkpt><trkpt lat="43.265197420718486" lon="11.35827857483758"><ele>184.25</ele><time>2026-05-02T07:57:49.999Z</time></trkpt><trkpt lat="43.2650799228659" lon="11.358226597288008"><ele>184.0</ele><time>2026-05-02T07:57:50.999Z</time></trkpt><trkpt lat="43.26496928662714" lon="11.35818988255412"><ele>184.0</ele><time>2026-05-02T07:57:51.999Z</time></trkpt><trkpt lat="43.26485582377291" lon="11.358188951619628"><ele>184.0</ele><time>2026-05-02T07:57:52.999Z</time></trkpt><trkpt lat="43.26474025898975" lon="11.358203950790102"><ele>184.0</ele><time>2026-05-02T07:57:53.999Z</time></trkpt><trkpt lat="43.26463321358862" lon="11.358280380841398"><ele>184.0</ele><time>2026-05-02T07:57:54.999Z</time></trkpt><trkpt lat="43.26455796354963" lon="11.358405301907185"><ele>184.0</ele><time>2026-05-02T07:57:55.999Z</time></trkpt><trkpt lat="43.2644896676367" lon="11.358528427543497"><ele>184.0</ele><time>2026-05-02T07:57:56.999Z</time></trkpt><trkpt lat="43.264424519686834" lon="11.358671649214491"><ele>184.0</ele><time>2026-05-02T07:57:57.999Z</time></trkpt><trkpt lat="43.2643391004695" lon="11.358805722589052"><ele>184.0</ele><time>2026-05-02T07:57:58.999Z</time></trkpt><trkpt lat="43.26426420544491" lon="11.358932735480295"><ele>184.0</ele><time>2026-05-02T07:57:59.999Z</time></trkpt><trkpt lat="43.26418260870204" lon="11.359053223445041"><ele>184.0</ele><time>2026-05-02T07:58:00.999Z</time></trkpt><trkpt lat="43.26409751251592" lon="11.359151387028177"><ele>184.0</ele><time>2026-05-02T07:58:01.999Z</time></trkpt><trkpt lat="43.26400565632333" lon="11.359238612072446"><ele>184.0</ele><time>2026-05-02T07:58:02.999Z</time></trkpt><trkpt lat="43.263905902385396" lon="11.35931709100813"><ele>183.75</ele><time>2026-05-02T07:58:03.999Z</time></trkpt><trkpt lat="43.263803419224146" lon="11.359389662442906"><ele>183.5</ele><time>2026-05-02T07:58:04.999Z</time></trkpt><trkpt lat="43.26369801853952" lon="11.359459208297356"><ele>183.25</ele><time>2026-05-02T07:58:05.999Z</time></trkpt><trkpt lat="43.263604256313236" lon="11.359545419857897"><ele>183.0</ele><time>2026-05-02T07:58:06.999Z</time></trkpt><trkpt lat="43.263499673299656" lon="11.359616472659761"><ele>182.75</ele><time>2026-05-02T07:58:07.999Z</time></trkpt><trkpt lat="43.26340144263451" lon="11.359712346737021"><ele>182.5</ele><time>2026-05-02T07:58:08.999Z</time></trkpt><trkpt lat="43.26328188631865" lon="11.359800988924297"><ele>182.25</ele><time>2026-05-02T07:58:09.999Z</time></trkpt><trkpt lat="43.26315471738204" lon="11.359933566866058"><ele>182.0</ele><time>2026-05-02T07:58:10.999Z</time></trkpt><trkpt lat="43.26303638156752" lon="11.360091552586464"><ele>183.33333333333331</ele><time>2026-05-02T07:58:11.999Z</time></trkpt><trkpt lat="43.26290751871248" lon="11.360231346211107"><ele>184.66666666666666</ele><time>2026-05-02T07:58:12.999Z</time></trkpt><trkpt lat="43.2627872268891" lon="11.36036120826855"><ele>186.0</ele><time>2026-05-02T07:58:13.999Z</time></trkpt><trkpt lat="43.262674228657076" lon="11.360493366934346"><ele>185.0</ele><time>2026-05-02T07:58:14.999Z</time></trkpt><trkpt lat="43.262557267835575" lon="11.360635677101962"><ele>184.0</ele><time>2026-05-02T07:58:15.999Z</time></trkpt><trkpt lat="43.262434545899325" lon="11.36079177141478"><ele>183.0</ele><time>2026-05-02T07:58:16.999Z</time></trkpt><trkpt lat="43.26231708873758" lon="11.360943955447043"><ele>184.5</ele><time>2026-05-02T07:58:17.999Z</time></trkpt><trkpt lat="43.262216491340844" lon="11.361074658069901"><ele>186.0</ele><time>2026-05-02T07:58:18.999Z</time></trkpt><trkpt lat="43.26211364636317" lon="11.361170527410916"><ele>187.5</ele><time>2026-05-02T07:58:19.999Z</time></trkpt><trkpt lat="43.26202451048397" lon="11.361268736588185"><ele>189.0</ele><time>2026-05-02T07:58:20.999Z</time></trkpt><trkpt lat="43.26193196657537" lon="11.361357081689208"><ele>187.25</ele><time>2026-05-02T07:58:21.999Z</time></trkpt><trkpt lat="43.26182899227004" lon="11.361450975059471"><ele>185.5</ele><time>2026-05-02T07:58:22.999Z</time></trkpt><trkpt lat="43.261727855982535" lon="11.36153237673986"><ele>183.75</ele><time>2026-05-02T07:58:23.999Z</time></trkpt><trkpt lat="43.26162876128125" lon="11.361604047251156"><ele>182.0</ele><time>2026-05-02T07:58:24.999Z</time></trkpt><trkpt lat="43.261526642010885" lon="11.361670302902894"><ele>182.0</ele><time>2026-05-02T07:58:25.999Z</time></trkpt><trkpt lat="43.26142404912897" lon="11.361726370121486"><ele>182.0</ele><time>2026-05-02T07:58:27Z</time></trkpt><trkpt lat="43.261320407144325" lon="11.361780743567245"><ele>182.0</ele><time>2026-05-02T07:58:28Z</time></trkpt><trkpt lat="43.261224895830765" lon="11.361826104111904"><ele>182.0</ele><time>2026-05-02T07:58:29Z</time></trkpt><trkpt lat="43.26113542988553" lon="11.361864951790796"><ele>182.0</ele><time>2026-05-02T07:58:30Z</time></trkpt><trkpt lat="43.2610611089304" lon="11.361892503584803"><ele>182.0</ele><time>2026-05-02T07:58:31Z</time></trkpt><trkpt lat="43.260995774698344" lon="11.361912316952703"><ele>182.0</ele><time>2026-05-02T07:58:32Z</time></trkpt><trkpt lat="43.26088491812878" lon="11.361934564440018"><ele>182.0</ele><time>2026-05-02T07:58:34Z</time></trkpt><trkpt lat="43.26075603954047" lon="11.361944543530322"><ele>182.0</ele><time>2026-05-02T07:58:36Z</time></trkpt><trkpt lat="43.260685244805615" lon="11.361943358709125"><ele>182.0</ele><time>2026-05-02T07:58:37Z</time></trkpt><trkpt lat="43.26061902401919" lon="11.361937833582422"><ele>182.0</ele><time>2026-05-02T07:58:38Z</time></trkpt><trkpt lat="43.26055385494037" lon="11.361930421089264"><ele>182.42857142857142</ele><time>2026-05-02T07:58:39Z</time></trkpt><trkpt lat="43.260485053547185" lon="11.361919733077805"><ele>182.85714285714286</ele><time>2026-05-02T07:58:40Z</time></trkpt><trkpt lat="43.26041664080026" lon="11.361907727697393"><ele>183.28571428571428</ele><time>2026-05-02T07:58:41Z</time></trkpt><trkpt lat="43.26034460020344" lon="11.361891638291366"><ele>183.71428571428572</ele><time>2026-05-02T07:58:42Z</time></trkpt><trkpt lat="43.26027516213125" lon="11.361873736171715"><ele>184.14285714285714</ele><time>2026-05-02T07:58:43Z</time></trkpt><trkpt lat="43.26020081732931" lon="11.36185439983781"><ele>184.57142857142856</ele><time>2026-05-02T07:58:44Z</time></trkpt><trkpt lat="43.26012692137398" lon="11.361832020427693"><ele>185.0</ele><time>2026-05-02T07:58:45Z</time></trkpt><trkpt lat="43.26004951443041" lon="11.361808768665217"><ele>185.0</ele><time>2026-05-02T07:58:46Z</time></trkpt><trkpt lat="43.25996058916858" lon="11.361782056944255"><ele>185.0</ele><time>2026-05-02T07:58:47Z</time></trkpt><trkpt lat="43.2598722459158" lon="11.361754020114454"><ele>185.0</ele><time>2026-05-02T07:58:48Z</time></trkpt><trkpt lat="43.25977566613239" lon="11.361718150872242"><ele>185.0</ele><time>2026-05-02T07:58:49Z</time></trkpt><trkpt lat="43.2596804603359" lon="11.361680974927303"><ele>185.0</ele><time>2026-05-02T07:58:50Z</time></trkpt><trkpt lat="43.25958243317237" lon="11.361638937283642"><ele>186.6</ele><time>2026-05-02T07:58:51Z</time></trkpt><trkpt lat="43.25949029606964" lon="11.361595812878276"><ele>188.2</ele><time>2026-05-02T07:58:52Z</time></trkpt><trkpt lat="43.2593983551543" lon="11.361550234541147"><ele>189.8</ele><time>2026-05-02T07:58:53Z</time></trkpt><trkpt lat="43.25930478925044" lon="11.361500208072831"><ele>191.4</ele><time>2026-05-02T07:58:54Z</time></trkpt><trkpt lat="43.259203281655296" lon="11.361446085926524"><ele>193.0</ele><time>2026-05-02T07:58:55Z</time></trkpt><trkpt lat="43.259075415882094" lon="11.361375780154473"><ele>193.66666666666666</ele><time>2026-05-02T07:58:56Z</time></trkpt><trkpt lat="43.25891256105832" lon="11.361276644831444"><ele>194.33333333333331</ele><time>2026-05-02T07:58:57Z</time></trkpt><trkpt lat="43.25875318137452" lon="11.361152015304016"><ele>195.0</ele><time>2026-05-02T07:58:58Z</time></trkpt><trkpt lat="43.25859453322242" lon="11.361011685851473"><ele>195.0</ele><time>2026-05-02T07:58:59Z</time></trkpt><trkpt lat="43.2584382163175" lon="11.360893864884718"><ele>195.0</ele><time>2026-05-02T07:59:00Z</time></trkpt><trkpt lat="43.25830936431455" lon="11.3607435662059"><ele>195.0</ele><time>2026-05-02T07:59:01Z</time></trkpt><trkpt lat="43.258183458940515" lon="11.360620475002591"><ele>195.0</ele><time>2026-05-02T07:59:02Z</time></trkpt><trkpt lat="43.25805816252314" lon="11.36053237123806"><ele>195.0</ele><time>2026-05-02T07:59:03Z</time></trkpt><trkpt lat="43.25795007518497" lon="11.360444529678324"><ele>195.0</ele><time>2026-05-02T07:59:03.999Z</time></trkpt><trkpt lat="43.25783555246924" lon="11.360365895239301"><ele>195.0</ele><time>2026-05-02T07:59:04.999Z</time></trkpt><trkpt lat="43.25770746799202" lon="11.360301541030998"><ele>195.0</ele><time>2026-05-02T07:59:05.999Z</time></trkpt><trkpt lat="43.25757772244423" lon="11.360257630309247"><ele>195.0</ele><time>2026-05-02T07:59:06.999Z</time></trkpt><trkpt lat="43.257455359340526" lon="11.360202958599627"><ele>195.0</ele><time>2026-05-02T07:59:07.999Z</time></trkpt><trkpt lat="43.25733518775902" lon="11.360152190318226"><ele>195.0</ele><time>2026-05-02T07:59:08.999Z</time></trkpt><trkpt lat="43.2572158632282" lon="11.360110373001792"><ele>196.0</ele><time>2026-05-02T07:59:09.999Z</time></trkpt><trkpt lat="43.25709244653184" lon="11.36008531589365"><ele>197.0</ele><time>2026-05-02T07:59:10.999Z</time></trkpt><trkpt lat="43.256971672554926" lon="11.360075211204103"><ele>198.0</ele><time>2026-05-02T07:59:11.999Z</time></trkpt><trkpt lat="43.25684908322919" lon="11.360081129993782"><ele>199.0</ele><time>2026-05-02T07:59:12.999Z</time></trkpt><trkpt lat="43.25671857368147" lon="11.360069517304378"><ele>199.0</ele><time>2026-05-02T07:59:13.999Z</time></trkpt><trkpt lat="43.25658769534378" lon="11.360088361693428"><ele>199.0</ele><time>2026-05-02T07:59:14.999Z</time></trkpt><trkpt lat="43.25646689968733" lon="11.360111717053165"><ele>199.0</ele><time>2026-05-02T07:59:15.999Z</time></trkpt><trkpt lat="43.256350216672715" lon="11.360140785781862"><ele>199.0</ele><time>2026-05-02T07:59:16.999Z</time></trkpt><trkpt lat="43.256230209749305" lon="11.360174693760673"><ele>200.0</ele><time>2026-05-02T07:59:17.999Z</time></trkpt><trkpt lat="43.25610275073574" lon="11.360222558119721"><ele>201.0</ele><time>2026-05-02T07:59:18.999Z</time></trkpt><trkpt lat="43.255971501188476" lon="11.360307919316414"><ele>202.0</ele><time>2026-05-02T07:59:19.999Z</time></trkpt><trkpt lat="43.25583221062206" lon="11.360434892632341"><ele>203.0</ele><time>2026-05-02T07:59:20.999Z</time></trkpt><trkpt lat="43.25564798653485" lon="11.360534935222349"><ele>206.66666666666669</ele><time>2026-05-02T07:59:21.999Z</time></trkpt><trkpt lat="43.25549003697623" lon="11.360647311334617"><ele>210.33333333333331</ele><time>2026-05-02T07:59:22.999Z</time></trkpt><trkpt lat="43.25536896314198" lon="11.36076830458687"><ele>214.0</ele><time>2026-05-02T07:59:23.999Z</time></trkpt><trkpt lat="43.2552502997451" lon="11.360875900807123"><ele>214.0</ele><time>2026-05-02T07:59:24.999Z</time></trkpt><trkpt lat="43.25513798894246" lon="11.361009117427194"><ele>214.0</ele><time>2026-05-02T07:59:25.999Z</time></trkpt><trkpt lat="43.25503719675666" lon="11.361171130724413"><ele>214.0</ele><time>2026-05-02T07:59:26.999Z</time></trkpt><trkpt lat="43.25493159735447" lon="11.361375212488415"><ele>214.0</ele><time>2026-05-02T07:59:27.999Z</time></trkpt><trkpt lat="43.254825929957406" lon="11.36159334529882"><ele>214.0</ele><time>2026-05-02T07:59:28.999Z</time></trkpt><trkpt lat="43.2547285706042" lon="11.361783059867308"><ele>214.0</ele><time>2026-05-02T07:59:29.999Z</time></trkpt><trkpt lat="43.254636381270444" lon="11.361936056440848"><ele>215.5</ele><time>2026-05-02T07:59:30.999Z</time></trkpt><trkpt lat="43.254542308561305" lon="11.362059435953999"><ele>217.0</ele><time>2026-05-02T07:59:31.999Z</time></trkpt><trkpt lat="43.254422580380286" lon="11.36213934375562"><ele>218.5</ele><time>2026-05-02T07:59:32.999Z</time></trkpt><trkpt lat="43.254305911988425" lon="11.362216942439279"><ele>220.0</ele><time>2026-05-02T07:59:33.999Z</time></trkpt><trkpt lat="43.254196804475676" lon="11.362279224914603"><ele>220.0</ele><time>2026-05-02T07:59:34.999Z</time></trkpt><trkpt lat="43.25410041317741" lon="11.362321451134244"><ele>220.0</ele><time>2026-05-02T07:59:35.999Z</time></trkpt><trkpt lat="43.25399542432139" lon="11.362343992560564"><ele>220.0</ele><time>2026-05-02T07:59:36.999Z</time></trkpt><trkpt lat="43.253887902867994" lon="11.362355753677491"><ele>220.0</ele><time>2026-05-02T07:59:37.999Z</time></trkpt><trkpt lat="43.25376077996748" lon="11.36237652028763"><ele>220.0</ele><time>2026-05-02T07:59:38.999Z</time></trkpt><trkpt lat="43.253628741774136" lon="11.362410386091875"><ele>221.25</ele><time>2026-05-02T07:59:39.999Z</time></trkpt><trkpt lat="43.25349388089058" lon="11.362436818683546"><ele>222.5</ele><time>2026-05-02T07:59:40.999Z</time></trkpt><trkpt lat="43.2533685571308" lon="11.362468995476203"><ele>223.75</ele><time>2026-05-02T07:59:41.999Z</time></trkpt><trkpt lat="43.25325006707381" lon="11.362509142523534"><ele>225.0</ele><time>2026-05-02T07:59:42.999Z</time></trkpt><trkpt lat="43.253130873244444" lon="11.362556047323304"><ele>225.75</ele><time>2026-05-02T07:59:43.999Z</time></trkpt><trkpt lat="43.25301348563072" lon="11.362614932470798"><ele>226.5</ele><time>2026-05-02T07:59:44.999Z</time></trkpt><trkpt lat="43.25289428022478" lon="11.362673700466425"><ele>227.25</ele><time>2026-05-02T07:59:45.999Z</time></trkpt><trkpt lat="43.25276481681769" lon="11.362753018459975"><ele>228.0</ele><time>2026-05-02T07:59:46.999Z</time></trkpt><trkpt lat="43.252625057354805" lon="11.362845783212666"><ele>228.0</ele><time>2026-05-02T07:59:47.999Z</time></trkpt><trkpt lat="43.252500765947666" lon="11.362933428919268"><ele>228.0</ele><time>2026-05-02T07:59:48.999Z</time></trkpt><trkpt lat="43.25240164871002" lon="11.363021310770883"><ele>228.0</ele><time>2026-05-02T07:59:49.999Z</time></trkpt><trkpt lat="43.25229112012106" lon="11.363135451183691"><ele>228.0</ele><time>2026-05-02T07:59:50.999Z</time></trkpt><trkpt lat="43.25216751443149" lon="11.36327424004087"><ele>229.0</ele><time>2026-05-02T07:59:51.999Z</time></trkpt><trkpt lat="43.25206640732906" lon="11.363386697094356"><ele>230.0</ele><time>2026-05-02T07:59:52.999Z</time></trkpt><trkpt lat="43.25196991068724" lon="11.363450410610543"><ele>231.0</ele><time>2026-05-02T07:59:53.999Z</time></trkpt><trkpt lat="43.251879725063446" lon="11.363508563856625"><ele>232.0</ele><time>2026-05-02T07:59:54.999Z</time></trkpt><trkpt lat="43.25178180028826" lon="11.363562484519573"><ele>233.0</ele><time>2026-05-02T07:59:55.999Z</time></trkpt><trkpt lat="43.251664868065625" lon="11.363596339407065"><ele>233.0</ele><time>2026-05-02T07:59:56.999Z</time></trkpt><trkpt lat="43.25154679486209" lon="11.36360226195699"><ele>233.0</ele><time>2026-05-02T07:59:57.999Z</time></trkpt><trkpt lat="43.251427427186464" lon="11.363587750639557"><ele>233.0</ele><time>2026-05-02T07:59:58.999Z</time></trkpt><trkpt lat="43.251311994686354" lon="11.363561909210405"><ele>233.0</ele><time>2026-05-02T07:59:59.999Z</time></trkpt><trkpt lat="43.251197950332596" lon="11.363520506701484"><ele>230.33333333333334</ele><time>2026-05-02T08:00:00.999Z</time></trkpt><trkpt lat="43.2510818556236" lon="11.363464936231384"><ele>227.66666666666669</ele><time>2026-05-02T08:00:01.999Z</time></trkpt><trkpt lat="43.25094164559488" lon="11.363403426842643"><ele>225.0</ele><time>2026-05-02T08:00:02.999Z</time></trkpt><trkpt lat="43.250761297319" lon="11.363334614536408"><ele>224.33333333333331</ele><time>2026-05-02T08:00:03.999Z</time></trkpt><trkpt lat="43.25057521735084" lon="11.363275178186752"><ele>223.66666666666666</ele><time>2026-05-02T08:00:04.999Z</time></trkpt><trkpt lat="43.25041671330387" lon="11.363238286574711"><ele>223.0</ele><time>2026-05-02T08:00:05.999Z</time></trkpt><trkpt lat="43.25028137800743" lon="11.363208383641837"><ele>223.0</ele><time>2026-05-02T08:00:06.999Z</time></trkpt><trkpt lat="43.25015262722737" lon="11.363196046889206"><ele>223.0</ele><time>2026-05-02T08:00:07.999Z</time></trkpt><trkpt lat="43.250039320518994" lon="11.363158595210287"><ele>223.0</ele><time>2026-05-02T08:00:08.999Z</time></trkpt><trkpt lat="43.24992059486264" lon="11.363118340346812"><ele>223.0</ele><time>2026-05-02T08:00:09.999Z</time></trkpt><trkpt lat="43.24979639842701" lon="11.36307985637819"><ele>224.25</ele><time>2026-05-02T08:00:10.999Z</time></trkpt><trkpt lat="43.24967467006342" lon="11.363062550742217"><ele>225.5</ele><time>2026-05-02T08:00:11.999Z</time></trkpt><trkpt lat="43.24955025926875" lon="11.363064730136237"><ele>226.75</ele><time>2026-05-02T08:00:12.999Z</time></trkpt><trkpt lat="43.249427935529404" lon="11.363092770454166"><ele>228.0</ele><time>2026-05-02T08:00:13.999Z</time></trkpt><trkpt lat="43.249309331189714" lon="11.363141777700156"><ele>228.0</ele><time>2026-05-02T08:00:14.999Z</time></trkpt><trkpt lat="43.24920034725433" lon="11.363210923787804"><ele>228.0</ele><time>2026-05-02T08:00:15.999Z</time></trkpt><trkpt lat="43.24910277029636" lon="11.363293703080423"><ele>228.0</ele><time>2026-05-02T08:00:16.999Z</time></trkpt><trkpt lat="43.249012328509764" lon="11.363387828252689"><ele>228.0</ele><time>2026-05-02T08:00:17.999Z</time></trkpt><trkpt lat="43.24892780141628" lon="11.363493975642289"><ele>228.0</ele><time>2026-05-02T08:00:18.999Z</time></trkpt><trkpt lat="43.248848734891645" lon="11.363608972186679"><ele>228.0</ele><time>2026-05-02T08:00:19.999Z</time></trkpt><trkpt lat="43.24876502112181" lon="11.363737097055008"><ele>228.0</ele><time>2026-05-02T08:00:20.999Z</time></trkpt><trkpt lat="43.24867682599648" lon="11.363870751565008"><ele>228.0</ele><time>2026-05-02T08:00:21.999Z</time></trkpt><trkpt lat="43.24859406409075" lon="11.363992942886398"><ele>227.8</ele><time>2026-05-02T08:00:22.999Z</time></trkpt><trkpt lat="43.24851368190418" lon="11.36409614840146"><ele>227.60000000000002</ele><time>2026-05-02T08:00:23.999Z</time></trkpt><trkpt lat="43.24843569431971" lon="11.364194526160901"><ele>227.39999999999998</ele><time>2026-05-02T08:00:24.999Z</time></trkpt><trkpt lat="43.24836904709028" lon="11.364285691397201"><ele>227.2</ele><time>2026-05-02T08:00:25.999Z</time></trkpt><trkpt lat="43.248313757015815" lon="11.36438217719713"><ele>227.0</ele><time>2026-05-02T08:00:26.999Z</time></trkpt><trkpt lat="43.24827247018467" lon="11.36448483268286"><ele>227.0</ele><time>2026-05-02T08:00:27.999Z</time></trkpt><trkpt lat="43.24824394153705" lon="11.364605421621858"><ele>227.0</ele><time>2026-05-02T08:00:28.999Z</time></trkpt><trkpt lat="43.248231819532684" lon="11.364746804916013"><ele>227.0</ele><time>2026-05-02T08:00:29.999Z</time></trkpt><trkpt lat="43.24823050607695" lon="11.36489955154393"><ele>227.0</ele><time>2026-05-02T08:00:30.999Z</time></trkpt><trkpt lat="43.248239259300654" lon="11.365048527292505"><ele>227.0</ele><time>2026-05-02T08:00:31.999Z</time></trkpt><trkpt lat="43.24823563158788" lon="11.365186809878894"><ele>226.6</ele><time>2026-05-02T08:00:33Z</time></trkpt><trkpt lat="43.24820679025184" lon="11.365318923786548"><ele>226.2</ele><time>2026-05-02T08:00:34Z</time></trkpt><trkpt lat="43.2481656259238" lon="11.365439583551636"><ele>225.8</ele><time>2026-05-02T08:00:35Z</time></trkpt><trkpt lat="43.24810252488399" lon="11.365556128913552"><ele>225.4</ele><time>2026-05-02T08:00:36Z</time></trkpt><trkpt lat="43.24803218542395" lon="11.3656724016585"><ele>225.0</ele><time>2026-05-02T08:00:37Z</time></trkpt><trkpt lat="43.247963962461725" lon="11.365775195335248"><ele>224.6</ele><time>2026-05-02T08:00:38Z</time></trkpt><trkpt lat="43.24789622045479" lon="11.36585993657765"><ele>224.2</ele><time>2026-05-02T08:00:39Z</time></trkpt><trkpt lat="43.24782039077626" lon="11.365933563819963"><ele>223.8</ele><time>2026-05-02T08:00:40Z</time></trkpt><trkpt lat="43.2477352488762" lon="11.365990537317689"><ele>223.4</ele><time>2026-05-02T08:00:41Z</time></trkpt><trkpt lat="43.24764599899976" lon="11.366035603211696"><ele>223.0</ele><time>2026-05-02T08:00:42Z</time></trkpt><trkpt lat="43.247550328336395" lon="11.36603920922537"><ele>223.0</ele><time>2026-05-02T08:00:43Z</time></trkpt><trkpt lat="43.24745386459467" lon="11.36605944417889"><ele>223.0</ele><time>2026-05-02T08:00:44Z</time></trkpt><trkpt lat="43.24735483688664" lon="11.366075277476256"><ele>223.0</ele><time>2026-05-02T08:00:45Z</time></trkpt><trkpt lat="43.24724733454586" lon="11.366118809774086"><ele>223.0</ele><time>2026-05-02T08:00:46Z</time></trkpt><trkpt lat="43.24716147800108" lon="11.366121696734776"><ele>223.0</ele><time>2026-05-02T08:00:47Z</time></trkpt><trkpt lat="43.247058139840114" lon="11.366176887744567"><ele>222.5</ele><time>2026-05-02T08:00:48Z</time></trkpt><trkpt lat="43.24694497234988" lon="11.366216123705525"><ele>222.0</ele><time>2026-05-02T08:00:49Z</time></trkpt><trkpt lat="43.246835300303694" lon="11.366249814007311"><ele>221.5</ele><time>2026-05-02T08:00:50Z</time></trkpt><trkpt lat="43.24672456110415" lon="11.366297409498234"><ele>221.0</ele><time>2026-05-02T08:00:51Z</time></trkpt><trkpt lat="43.24661767940747" lon="11.366339298913049"><ele>221.4</ele><time>2026-05-02T08:00:52Z</time></trkpt><trkpt lat="43.24651354175038" lon="11.366396695483182"><ele>221.8</ele><time>2026-05-02T08:00:53Z</time></trkpt><trkpt lat="43.246420482025094" lon="11.366442440350873"><ele>222.20000000000002</ele><time>2026-05-02T08:00:54Z</time></trkpt><trkpt lat="43.246329093601865" lon="11.366484473846374"><ele>222.60000000000002</ele><time>2026-05-02T08:00:55Z</time></trkpt><trkpt lat="43.246240898258485" lon="11.366548594775193"><ele>223.0</ele><time>2026-05-02T08:00:56Z</time></trkpt><trkpt lat="43.24617031559031" lon="11.366617844514543"><ele>223.16666666666666</ele><time>2026-05-02T08:00:57Z</time></trkpt><trkpt lat="43.246104968274324" lon="11.366684628764673"><ele>223.33333333333331</ele><time>2026-05-02T08:00:58Z</time></trkpt><trkpt lat="43.24603877859424" lon="11.366744460654262"><ele>223.5</ele><time>2026-05-02T08:00:59Z</time></trkpt><trkpt lat="43.24597330262506" lon="11.366821771511722"><ele>223.66666666666669</ele><time>2026-05-02T08:01:00Z</time></trkpt><trkpt lat="43.24590337210393" lon="11.36689642114313"><ele>223.83333333333334</ele><time>2026-05-02T08:01:01Z</time></trkpt><trkpt lat="43.24583254360358" lon="11.366974709880042"><ele>224.0</ele><time>2026-05-02T08:01:02Z</time></trkpt><trkpt lat="43.24576321377135" lon="11.367050472056407"><ele>224.00000000000003</ele><time>2026-05-02T08:01:03Z</time></trkpt><trkpt lat="43.245694700469166" lon="11.367125404691512"><ele>224.0</ele><time>2026-05-02T08:01:03.999Z</time></trkpt><trkpt lat="43.245629998343354" lon="11.367195299362837"><ele>224.0</ele><time>2026-05-02T08:01:04.999Z</time></trkpt><trkpt lat="43.24555378122673" lon="11.367260599550551"><ele>224.0</ele><time>2026-05-02T08:01:05.999Z</time></trkpt><trkpt lat="43.24548222057925" lon="11.367315716697904"><ele>224.00000000000003</ele><time>2026-05-02T08:01:06.999Z</time></trkpt><trkpt lat="43.245396206438286" lon="11.36733846428781"><ele>224.0</ele><time>2026-05-02T08:01:07.999Z</time></trkpt><trkpt lat="43.245306653079716" lon="11.367391281923592"><ele>223.0</ele><time>2026-05-02T08:01:08.999Z</time></trkpt><trkpt lat="43.245207386139256" lon="11.367429458544013"><ele>222.0</ele><time>2026-05-02T08:01:09.999Z</time></trkpt><trkpt lat="43.24510688105864" lon="11.367463014081341"><ele>221.0</ele><time>2026-05-02T08:01:10.999Z</time></trkpt><trkpt lat="43.244984689667675" lon="11.367503719411813"><ele>220.0</ele><time>2026-05-02T08:01:11.999Z</time></trkpt><trkpt lat="43.244813688479674" lon="11.367557153711163"><ele>221.0</ele><time>2026-05-02T08:01:12.999Z</time></trkpt><trkpt lat="43.2446330707803" lon="11.36761488059964"><ele>222.0</ele><time>2026-05-02T08:01:13.999Z</time></trkpt><trkpt lat="43.244478466955265" lon="11.367666496378664"><ele>223.0</ele><time>2026-05-02T08:01:14.999Z</time></trkpt><trkpt lat="43.24433859274894" lon="11.367704983633963"><ele>223.0</ele><time>2026-05-02T08:01:15.999Z</time></trkpt><trkpt lat="43.244206331029794" lon="11.367749628387998"><ele>223.0</ele><time>2026-05-02T08:01:16.999Z</time></trkpt><trkpt lat="43.24407686613694" lon="11.367792060249624"><ele>223.0</ele><time>2026-05-02T08:01:17.999Z</time></trkpt><trkpt lat="43.243963475582134" lon="11.367832734166722"><ele>223.0</ele><time>2026-05-02T08:01:18.999Z</time></trkpt><trkpt lat="43.24386488311748" lon="11.367866025678795"><ele>223.60000000000002</ele><time>2026-05-02T08:01:19.999Z</time></trkpt><trkpt lat="43.24377266065633" lon="11.367893169685447"><ele>224.20000000000002</ele><time>2026-05-02T08:01:20.999Z</time></trkpt><trkpt lat="43.24367784497318" lon="11.367919131334425"><ele>224.8</ele><time>2026-05-02T08:01:21.999Z</time></trkpt><trkpt lat="43.24358122959829" lon="11.367944694195597"><ele>225.4</ele><time>2026-05-02T08:01:22.999Z</time></trkpt><trkpt lat="43.24347407091681" lon="11.36796547797272"><ele>226.0</ele><time>2026-05-02T08:01:23.999Z</time></trkpt><trkpt lat="43.24336987350599" lon="11.367987585972536"><ele>226.0</ele><time>2026-05-02T08:01:24.999Z</time></trkpt><trkpt lat="43.243256388294824" lon="11.368005253452436"><ele>226.00000000000003</ele><time>2026-05-02T08:01:25.999Z</time></trkpt><trkpt lat="43.24314543263224" lon="11.368027916314052"><ele>226.00000000000003</ele><time>2026-05-02T08:01:26.999Z</time></trkpt><trkpt lat="43.243039148747414" lon="11.368060964634465"><ele>226.0</ele><time>2026-05-02T08:01:27.999Z</time></trkpt><trkpt lat="43.242935889992324" lon="11.368103271445241"><ele>226.0</ele><time>2026-05-02T08:01:28.999Z</time></trkpt><trkpt lat="43.24283630200624" lon="11.368157550981863"><ele>225.20000000000002</ele><time>2026-05-02T08:01:29.999Z</time></trkpt><trkpt lat="43.24274010594402" lon="11.368217747636775"><ele>224.40000000000003</ele><time>2026-05-02T08:01:30.999Z</time></trkpt><trkpt lat="43.24264693563854" lon="11.36828617070844"><ele>223.6</ele><time>2026-05-02T08:01:31.999Z</time></trkpt><trkpt lat="43.24255728891456" lon="11.368363999906029"><ele>222.8</ele><time>2026-05-02T08:01:32.999Z</time></trkpt><trkpt lat="43.24247243966174" lon="11.368456529528281"><ele>222.0</ele><time>2026-05-02T08:01:33.999Z</time></trkpt><trkpt lat="43.242390009791556" lon="11.368563320784048"><ele>222.0</ele><time>2026-05-02T08:01:34.999Z</time></trkpt><trkpt lat="43.24230154135116" lon="11.36867762584378"><ele>222.0</ele><time>2026-05-02T08:01:35.999Z</time></trkpt><trkpt lat="43.24221419335929" lon="11.368790839783589"><ele>222.0</ele><time>2026-05-02T08:01:36.999Z</time></trkpt><trkpt lat="43.24212546163307" lon="11.368908592212021"><ele>222.0</ele><time>2026-05-02T08:01:37.999Z</time></trkpt><trkpt lat="43.24203891639666" lon="11.369026275280355"><ele>221.5</ele><time>2026-05-02T08:01:38.999Z</time></trkpt><trkpt lat="43.241954221022745" lon="11.369138715228129"><ele>221.0</ele><time>2026-05-02T08:01:39.999Z</time></trkpt><trkpt lat="43.2418735511452" lon="11.369249254109652"><ele>220.5</ele><time>2026-05-02T08:01:40.999Z</time></trkpt><trkpt lat="43.24178633486866" lon="11.369360012128752"><ele>220.0</ele><time>2026-05-02T08:01:41.999Z</time></trkpt><trkpt lat="43.24170490319911" lon="11.369458172225238"><ele>219.99999999999997</ele><time>2026-05-02T08:01:42.999Z</time></trkpt><trkpt lat="43.24163407661651" lon="11.369549439401675"><ele>220.0</ele><time>2026-05-02T08:01:43.999Z</time></trkpt><trkpt lat="43.24157030411442" lon="11.369622145755566"><ele>220.0</ele><time>2026-05-02T08:01:44.999Z</time></trkpt><trkpt lat="43.24151309166267" lon="11.36969430292067"><ele>220.0</ele><time>2026-05-02T08:01:45.999Z</time></trkpt><trkpt lat="43.2414645803322" lon="11.369759484466174"><ele>219.99999999999997</ele><time>2026-05-02T08:01:46.999Z</time></trkpt><trkpt lat="43.241408817938435" lon="11.369802965098012"><ele>220.0</ele><time>2026-05-02T08:01:47.999Z</time></trkpt><trkpt lat="43.24133314458973" lon="11.369882169400919"><ele>219.0</ele><time>2026-05-02T08:01:49.999Z</time></trkpt><trkpt lat="43.241315158141454" lon="11.36996853369356"><ele>218.0</ele><time>2026-05-02T08:03:02Z</time></trkpt><trkpt lat="43.24119739996261" lon="11.370051428161544"><ele>217.0</ele><time>2026-05-02T08:04:40.998Z</time></trkpt><trkpt lat="43.24112792446578" lon="11.37010692092775"><ele>216.0</ele><time>2026-05-02T08:04:41.998Z</time></trkpt><trkpt lat="43.24105060910323" lon="11.370167791418572"><ele>215.0</ele><time>2026-05-02T08:04:42.998Z</time></trkpt><trkpt lat="43.24097005930388" lon="11.370231236225594"><ele>215.0</ele><time>2026-05-02T08:04:43.998Z</time></trkpt><trkpt lat="43.2408843645832" lon="11.370305448216987"><ele>215.0</ele><time>2026-05-02T08:04:44.999Z</time></trkpt><trkpt lat="43.24079438322982" lon="11.370387794950764"><ele>215.0</ele><time>2026-05-02T08:04:45.999Z</time></trkpt><trkpt lat="43.24070240870847" lon="11.370473763862597"><ele>215.0</ele><time>2026-05-02T08:04:46.999Z</time></trkpt><trkpt lat="43.24061121675478" lon="11.370563557456023"><ele>215.0</ele><time>2026-05-02T08:04:47.999Z</time></trkpt><trkpt lat="43.24052463218993" lon="11.370659029552677"><ele>215.5</ele><time>2026-05-02T08:04:48.999Z</time></trkpt><trkpt lat="43.240444346255266" lon="11.370768727032218"><ele>216.0</ele><time>2026-05-02T08:04:49.999Z</time></trkpt><trkpt lat="43.240367778969514" lon="11.37088880848358"><ele>216.5</ele><time>2026-05-02T08:04:50.999Z</time></trkpt><trkpt lat="43.24029310631603" lon="11.371014569897609"><ele>217.0</ele><time>2026-05-02T08:04:51.999Z</time></trkpt><trkpt lat="43.240219521081805" lon="11.371140415916392"><ele>217.0</ele><time>2026-05-02T08:04:52.999Z</time></trkpt><trkpt lat="43.24014673151454" lon="11.3712691943807"><ele>217.0</ele><time>2026-05-02T08:04:53.999Z</time></trkpt><trkpt lat="43.24007492080326" lon="11.371397716352115"><ele>217.0</ele><time>2026-05-02T08:04:54.999Z</time></trkpt><trkpt lat="43.240002447413744" lon="11.371524369360513"><ele>217.0</ele><time>2026-05-02T08:04:55.999Z</time></trkpt><trkpt lat="43.23993314792302" lon="11.371655049338198"><ele>216.25</ele><time>2026-05-02T08:04:56.999Z</time></trkpt><trkpt lat="43.239869071660806" lon="11.371788992501914"><ele>215.5</ele><time>2026-05-02T08:04:57.999Z</time></trkpt><trkpt lat="43.23980781023288" lon="11.371927543547818"><ele>214.75</ele><time>2026-05-02T08:04:58.999Z</time></trkpt><trkpt lat="43.239745310006725" lon="11.372061768946658"><ele>214.0</ele><time>2026-05-02T08:04:59.999Z</time></trkpt><trkpt lat="43.23968619776792" lon="11.37219293219452"><ele>213.79999999999998</ele><time>2026-05-02T08:05:00.999Z</time></trkpt><trkpt lat="43.23962931039255" lon="11.372318030371934"><ele>213.59999999999997</ele><time>2026-05-02T08:05:01.999Z</time></trkpt><trkpt lat="43.239573938884696" lon="11.372433076765272"><ele>213.4</ele><time>2026-05-02T08:05:02.999Z</time></trkpt><trkpt lat="43.23951691586809" lon="11.372530428475342"><ele>213.2</ele><time>2026-05-02T08:05:03.999Z</time></trkpt><trkpt lat="43.239450996644024" lon="11.372606995971212"><ele>213.0</ele><time>2026-05-02T08:05:04.999Z</time></trkpt><trkpt lat="43.23936032139039" lon="11.372670458663432"><ele>213.0</ele><time>2026-05-02T08:05:05.999Z</time></trkpt><trkpt lat="43.23925341704295" lon="11.372673691734516"><ele>213.0</ele><time>2026-05-02T08:05:06.999Z</time></trkpt><trkpt lat="43.23914036650172" lon="11.37267635755972"><ele>213.0</ele><time>2026-05-02T08:05:07.999Z</time></trkpt><trkpt lat="43.23902210935923" lon="11.372669930767241"><ele>213.0</ele><time>2026-05-02T08:05:08.999Z</time></trkpt><trkpt lat="43.23891246833186" lon="11.372672391790054"><ele>213.0</ele><time>2026-05-02T08:05:09.999Z</time></trkpt><trkpt lat="43.23880171249645" lon="11.372687471872895"><ele>213.0</ele><time>2026-05-02T08:05:10.999Z</time></trkpt><trkpt lat="43.23869504837504" lon="11.372724800346411"><ele>213.0</ele><time>2026-05-02T08:05:11.999Z</time></trkpt><trkpt lat="43.2385999764799" lon="11.372788010006332"><ele>213.0</ele><time>2026-05-02T08:05:12.999Z</time></trkpt><trkpt lat="43.23850296896186" lon="11.372839367332565"><ele>213.0</ele><time>2026-05-02T08:05:13.999Z</time></trkpt><trkpt lat="43.238410384859996" lon="11.372897617004382"><ele>213.0</ele><time>2026-05-02T08:05:14.999Z</time></trkpt><trkpt lat="43.238324370510426" lon="11.372961167299977"><ele>211.4</ele><time>2026-05-02T08:05:15.999Z</time></trkpt><trkpt lat="43.238258075844854" lon="11.373036224748047"><ele>209.8</ele><time>2026-05-02T08:05:16.999Z</time></trkpt><trkpt lat="43.23821026279195" lon="11.373134370561804"><ele>208.2</ele><time>2026-05-02T08:05:17.999Z</time></trkpt><trkpt lat="43.238182656703366" lon="11.373260269376798"><ele>206.6</ele><time>2026-05-02T08:05:18.999Z</time></trkpt><trkpt lat="43.238175060559826" lon="11.37340221709509"><ele>205.0</ele><time>2026-05-02T08:05:19.999Z</time></trkpt><trkpt lat="43.2381830827915" lon="11.373551973492363"><ele>205.0</ele><time>2026-05-02T08:05:20.999Z</time></trkpt><trkpt lat="43.23819576246691" lon="11.373695222953502"><ele>205.0</ele><time>2026-05-02T08:05:21.999Z</time></trkpt><trkpt lat="43.23820477638504" lon="11.373842183380924"><ele>205.0</ele><time>2026-05-02T08:05:22.999Z</time></trkpt><trkpt lat="43.23821369006704" lon="11.373990289157641"><ele>205.0</ele><time>2026-05-02T08:05:23.999Z</time></trkpt><trkpt lat="43.23822594752777" lon="11.374132577375297"><ele>205.0</ele><time>2026-05-02T08:05:24.999Z</time></trkpt><trkpt lat="43.238238201483064" lon="11.374271029884046"><ele>204.8</ele><time>2026-05-02T08:05:25.999Z</time></trkpt><trkpt lat="43.23824961869809" lon="11.374405670915301"><ele>204.6</ele><time>2026-05-02T08:05:26.999Z</time></trkpt><trkpt lat="43.23825416759364" lon="11.374538718768102"><ele>204.39999999999998</ele><time>2026-05-02T08:05:27.999Z</time></trkpt><trkpt lat="43.23825679814303" lon="11.37467086489514"><ele>204.2</ele><time>2026-05-02T08:05:28.999Z</time></trkpt><trkpt lat="43.23825221612341" lon="11.37480081257875"><ele>204.0</ele><time>2026-05-02T08:05:29.999Z</time></trkpt><trkpt lat="43.2382337132231" lon="11.3749215019131"><ele>204.0</ele><time>2026-05-02T08:05:30.999Z</time></trkpt><trkpt lat="43.23819953872751" lon="11.375023176752242"><ele>204.0</ele><time>2026-05-02T08:05:31.999Z</time></trkpt><trkpt lat="43.23814387461058" lon="11.375119244562503"><ele>204.0</ele><time>2026-05-02T08:05:32.999Z</time></trkpt><trkpt lat="43.2380665572827" lon="11.375203703736135"><ele>204.0</ele><time>2026-05-02T08:05:33.999Z</time></trkpt><trkpt lat="43.237976298234926" lon="11.375274776746386"><ele>204.0</ele><time>2026-05-02T08:05:34.999Z</time></trkpt><trkpt lat="43.23788781962848" lon="11.375350090495115"><ele>204.0</ele><time>2026-05-02T08:05:35.999Z</time></trkpt><trkpt lat="43.23779742174785" lon="11.375429810672312"><ele>204.0</ele><time>2026-05-02T08:05:36.999Z</time></trkpt><trkpt lat="43.23770601695303" lon="11.375515140965279"><ele>204.0</ele><time>2026-05-02T08:05:37.999Z</time></trkpt><trkpt lat="43.23761613746712" lon="11.375607350148139"><ele>204.0</ele><time>2026-05-02T08:05:38.999Z</time></trkpt><trkpt lat="43.237529328400086" lon="11.375704122908102"><ele>204.0</ele><time>2026-05-02T08:05:39.999Z</time></trkpt><trkpt lat="43.23744347359978" lon="11.375798892063266"><ele>203.0</ele><time>2026-05-02T08:05:40.999Z</time></trkpt><trkpt lat="43.23736569830443" lon="11.375885125965757"><ele>202.0</ele><time>2026-05-02T08:05:41.999Z</time></trkpt><trkpt lat="43.23729245541245" lon="11.375967617286397"><ele>201.0</ele><time>2026-05-02T08:05:42.999Z</time></trkpt><trkpt lat="43.23722285598913" lon="11.376047018259028"><ele>200.0</ele><time>2026-05-02T08:05:43.999Z</time></trkpt><trkpt lat="43.23714539071171" lon="11.376135290512929"><ele>199.0</ele><time>2026-05-02T08:05:44.999Z</time></trkpt><trkpt lat="43.237065912809314" lon="11.376226631193296"><ele>198.39999999999998</ele><time>2026-05-02T08:05:45.999Z</time></trkpt><trkpt lat="43.236991943274795" lon="11.376305401674774"><ele>197.8</ele><time>2026-05-02T08:05:46.999Z</time></trkpt><trkpt lat="43.23691171328099" lon="11.376356494335257"><ele>197.2</ele><time>2026-05-02T08:05:47.999Z</time></trkpt><trkpt lat="43.2368173324214" lon="11.37636613124702"><ele>196.60000000000002</ele><time>2026-05-02T08:05:48.999Z</time></trkpt><trkpt lat="43.23672011777101" lon="11.376369489262022"><ele>196.0</ele><time>2026-05-02T08:05:49.999Z</time></trkpt><trkpt lat="43.23662446802928" lon="11.376355223643317"><ele>196.0</ele><time>2026-05-02T08:05:50.999Z</time></trkpt><trkpt lat="43.2365308818532" lon="11.376333269369365"><ele>196.0</ele><time>2026-05-02T08:05:51.999Z</time></trkpt><trkpt lat="43.23644497465882" lon="11.376294191730011"><ele>196.0</ele><time>2026-05-02T08:05:52.999Z</time></trkpt><trkpt lat="43.23636920661154" lon="11.376224779592011"><ele>196.0</ele><time>2026-05-02T08:05:53.999Z</time></trkpt><trkpt lat="43.23631745336326" lon="11.376130063305801"><ele>196.0</ele><time>2026-05-02T08:05:54.999Z</time></trkpt><trkpt lat="43.236270964787835" lon="11.376029005271889"><ele>194.0</ele><time>2026-05-02T08:05:55.999Z</time></trkpt><trkpt lat="43.23623500812004" lon="11.375914608795354"><ele>192.0</ele><time>2026-05-02T08:05:56.999Z</time></trkpt><trkpt lat="43.236215327226454" lon="11.375792311250208"><ele>190.0</ele><time>2026-05-02T08:05:57.999Z</time></trkpt><trkpt lat="43.23619877480282" lon="11.375660870240084"><ele>188.0</ele><time>2026-05-02T08:05:58.999Z</time></trkpt><trkpt lat="43.23618889105762" lon="11.375531297891422"><ele>186.0</ele><time>2026-05-02T08:05:59.999Z</time></trkpt><trkpt lat="43.23619365550331" lon="11.375399587922162"><ele>185.20000000000002</ele><time>2026-05-02T08:06:00.999Z</time></trkpt><trkpt lat="43.23622115715769" lon="11.37528224650876"><ele>184.4</ele><time>2026-05-02T08:06:01.999Z</time></trkpt><trkpt lat="43.23627415561944" lon="11.37516678779501"><ele>183.6</ele><time>2026-05-02T08:06:02.999Z</time></trkpt><trkpt lat="43.23632753447344" lon="11.37503715751196"><ele>182.8</ele><time>2026-05-02T08:06:03.999Z</time></trkpt><trkpt lat="43.23637973533173" lon="11.374916629967156"><ele>182.0</ele><time>2026-05-02T08:06:04.999Z</time></trkpt><trkpt lat="43.23643075445926" lon="11.374797913536467"><ele>183.8</ele><time>2026-05-02T08:06:05.999Z</time></trkpt><trkpt lat="43.2364766936393" lon="11.3746719828436"><ele>185.6</ele><time>2026-05-02T08:06:06.999Z</time></trkpt><trkpt lat="43.236515206332804" lon="11.374536141029612"><ele>187.4</ele><time>2026-05-02T08:06:07.999Z</time></trkpt><trkpt lat="43.2365442557254" lon="11.374396977438074"><ele>189.20000000000002</ele><time>2026-05-02T08:06:08.999Z</time></trkpt><trkpt lat="43.23656525079571" lon="11.374261683430962"><ele>191.0</ele><time>2026-05-02T08:06:09.999Z</time></trkpt><trkpt lat="43.2365795090046" lon="11.374137292524173"><ele>191.0</ele><time>2026-05-02T08:06:10.999Z</time></trkpt><trkpt lat="43.23658844377382" lon="11.374016523597916"><ele>191.0</ele><time>2026-05-02T08:06:11.999Z</time></trkpt><trkpt lat="43.2365861861913" lon="11.373888879548174"><ele>191.0</ele><time>2026-05-02T08:06:12.999Z</time></trkpt><trkpt lat="43.23656389624946" lon="11.37375943328373"><ele>191.0</ele><time>2026-05-02T08:06:13.999Z</time></trkpt><trkpt lat="43.23652522074651" lon="11.373639630295472"><ele>191.0</ele><time>2026-05-02T08:06:14.999Z</time></trkpt><trkpt lat="43.23645942358958" lon="11.373525654292214"><ele>189.20000000000002</ele><time>2026-05-02T08:06:15.999Z</time></trkpt><trkpt lat="43.23637019371479" lon="11.37343950919867"><ele>187.4</ele><time>2026-05-02T08:06:16.999Z</time></trkpt><trkpt lat="43.236272023178095" lon="11.373389737290104"><ele>185.6</ele><time>2026-05-02T08:06:17.999Z</time></trkpt><trkpt lat="43.236169057955905" lon="11.373376359912081"><ele>183.8</ele><time>2026-05-02T08:06:18.999Z</time></trkpt><trkpt lat="43.236056836058616" lon="11.373376139258829"><ele>182.0</ele><time>2026-05-02T08:06:19.999Z</time></trkpt><trkpt lat="43.23593640041551" lon="11.37338506320539"><ele>182.0</ele><time>2026-05-02T08:06:20.999Z</time></trkpt><trkpt lat="43.235788563034596" lon="11.373401434637643"><ele>182.0</ele><time>2026-05-02T08:06:21.999Z</time></trkpt><trkpt lat="43.235644000015306" lon="11.373419080873065"><ele>182.0</ele><time>2026-05-02T08:06:22.999Z</time></trkpt><trkpt lat="43.235509100165196" lon="11.373437154486265"><ele>182.0</ele><time>2026-05-02T08:06:23.999Z</time></trkpt><trkpt lat="43.235374813488235" lon="11.373450108482515"><ele>180.75</ele><time>2026-05-02T08:06:24.999Z</time></trkpt><trkpt lat="43.2352371821947" lon="11.37346300927965"><ele>179.5</ele><time>2026-05-02T08:06:25.999Z</time></trkpt><trkpt lat="43.235102801270685" lon="11.3734756053502"><ele>178.25</ele><time>2026-05-02T08:06:26.999Z</time></trkpt><trkpt lat="43.23497019776536" lon="11.373488034916319"><ele>177.0</ele><time>2026-05-02T08:06:27.999Z</time></trkpt><trkpt lat="43.234840686262636" lon="11.37350017455617"><ele>177.25</ele><time>2026-05-02T08:06:28.999Z</time></trkpt><trkpt lat="43.23471244722536" lon="11.373512194971685"><ele>177.5</ele><time>2026-05-02T08:06:29.998Z</time></trkpt><trkpt lat="43.234585376154016" lon="11.373522283673456"><ele>177.75</ele><time>2026-05-02T08:06:30.998Z</time></trkpt><trkpt lat="43.23445671753264" lon="11.373532185199753"><ele>178.0</ele><time>2026-05-02T08:06:31.998Z</time></trkpt><trkpt lat="43.23432497919779" lon="11.373541839292333"><ele>178.0</ele><time>2026-05-02T08:06:32.998Z</time></trkpt><trkpt lat="43.23419304855447" lon="11.373552492044853"><ele>178.0</ele><time>2026-05-02T08:06:33.998Z</time></trkpt><trkpt lat="43.23406533147155" lon="11.373563991296923"><ele>178.0</ele><time>2026-05-02T08:06:34.998Z</time></trkpt><trkpt lat="43.23394222541135" lon="11.373576590211972"><ele>178.0</ele><time>2026-05-02T08:06:35.998Z</time></trkpt><trkpt lat="43.233818887409385" lon="11.373591892974368"><ele>178.25</ele><time>2026-05-02T08:06:36.998Z</time></trkpt><trkpt lat="43.23369713716572" lon="11.373627565876832"><ele>178.5</ele><time>2026-05-02T08:06:37.998Z</time></trkpt><trkpt lat="43.2335770904191" lon="11.373719878690292"><ele>178.75</ele><time>2026-05-02T08:06:38.998Z</time></trkpt><trkpt lat="43.23344750725312" lon="11.373801325325726"><ele>179.0</ele><time>2026-05-02T08:06:39.998Z</time></trkpt><trkpt lat="43.2333196681008" lon="11.373893165277877"><ele>179.0</ele><time>2026-05-02T08:06:40.998Z</time></trkpt><trkpt lat="43.233184913910996" lon="11.373988965798718"><ele>179.0</ele><time>2026-05-02T08:06:41.998Z</time></trkpt><trkpt lat="43.23304602500231" lon="11.374085443017117"><ele>179.0</ele><time>2026-05-02T08:06:42.998Z</time></trkpt><trkpt lat="43.23290557000608" lon="11.374183965992529"><ele>179.0</ele><time>2026-05-02T08:06:43.998Z</time></trkpt><trkpt lat="43.232764352644566" lon="11.374283815154879"><ele>179.0</ele><time>2026-05-02T08:06:44.998Z</time></trkpt><trkpt lat="43.232612022694155" lon="11.374365064957669"><ele>179.0</ele><time>2026-05-02T08:06:45.998Z</time></trkpt><trkpt lat="43.232467709719295" lon="11.374463116610613"><ele>179.0</ele><time>2026-05-02T08:06:46.998Z</time></trkpt><trkpt lat="43.23232895283538" lon="11.37456321699978"><ele>179.0</ele><time>2026-05-02T08:06:47.998Z</time></trkpt><trkpt lat="43.232185194004444" lon="11.374666925804815"><ele>179.0</ele><time>2026-05-02T08:06:48.998Z</time></trkpt><trkpt lat="43.232042962293534" lon="11.374769533136746"><ele>179.0</ele><time>2026-05-02T08:06:50Z</time></trkpt><trkpt lat="43.231902502775824" lon="11.3748708617058"><ele>179.0</ele><time>2026-05-02T08:06:51Z</time></trkpt><trkpt lat="43.23177051768657" lon="11.374989400148886"><ele>179.0</ele><time>2026-05-02T08:06:52Z</time></trkpt><trkpt lat="43.23162954193439" lon="11.375087541156162"><ele>179.0</ele><time>2026-05-02T08:06:53Z</time></trkpt><trkpt lat="43.23149000443187" lon="11.375187981262892"><ele>179.0</ele><time>2026-05-02T08:06:54Z</time></trkpt><trkpt lat="43.231348013976515" lon="11.375287845747797"><ele>179.0</ele><time>2026-05-02T08:06:55Z</time></trkpt><trkpt lat="43.2312056888626" lon="11.375384677994216"><ele>179.0</ele><time>2026-05-02T08:06:56Z</time></trkpt><trkpt lat="43.23106455620437" lon="11.375482041477671"><ele>179.0</ele><time>2026-05-02T08:06:57Z</time></trkpt><trkpt lat="43.230923058746" lon="11.375581771223114"><ele>179.0</ele><time>2026-05-02T08:06:58Z</time></trkpt><trkpt lat="43.23078225746621" lon="11.375684246321251"><ele>179.0</ele><time>2026-05-02T08:06:59Z</time></trkpt><trkpt lat="43.23064344874024" lon="11.375787008515161"><ele>179.0</ele><time>2026-05-02T08:07:00Z</time></trkpt><trkpt lat="43.23050532348071" lon="11.375885142654505"><ele>179.0</ele><time>2026-05-02T08:07:01Z</time></trkpt><trkpt lat="43.23036792887206" lon="11.375982232981372"><ele>180.66666666666666</ele><time>2026-05-02T08:07:02Z</time></trkpt><trkpt lat="43.2302324238361" lon="11.376079578453576"><ele>182.33333333333334</ele><time>2026-05-02T08:07:03Z</time></trkpt><trkpt lat="43.23009876931655" lon="11.376177549644739"><ele>184.0</ele><time>2026-05-02T08:07:04Z</time></trkpt><trkpt lat="43.22996395894286" lon="11.376279438237965"><ele>184.5</ele><time>2026-05-02T08:07:05Z</time></trkpt><trkpt lat="43.2298338776038" lon="11.37638334631399"><ele>185.0</ele><time>2026-05-02T08:07:06Z</time></trkpt><trkpt lat="43.229706570816" lon="11.376486967345489"><ele>185.5</ele><time>2026-05-02T08:07:07Z</time></trkpt><trkpt lat="43.22958010181314" lon="11.376591210043609"><ele>186.0</ele><time>2026-05-02T08:07:07.999Z</time></trkpt><trkpt lat="43.229454554702606" lon="11.37669597561792"><ele>186.0</ele><time>2026-05-02T08:07:08.999Z</time></trkpt><trkpt lat="43.229330758746016" lon="11.376801378898769"><ele>186.0</ele><time>2026-05-02T08:07:09.999Z</time></trkpt><trkpt lat="43.22920827484977" lon="11.376906184411359"><ele>186.0</ele><time>2026-05-02T08:07:10.999Z</time></trkpt><trkpt lat="43.22908451678855" lon="11.377004483942375"><ele>186.0</ele><time>2026-05-02T08:07:11.999Z</time></trkpt><trkpt lat="43.22895410183365" lon="11.377090359349694"><ele>187.0</ele><time>2026-05-02T08:07:12.999Z</time></trkpt><trkpt lat="43.228817858454136" lon="11.377163344007164"><ele>188.0</ele><time>2026-05-02T08:07:13.999Z</time></trkpt><trkpt lat="43.22867449361648" lon="11.377189734627644"><ele>189.0</ele><time>2026-05-02T08:07:14.999Z</time></trkpt><trkpt lat="43.22853737448778" lon="11.377221076973226"><ele>190.0</ele><time>2026-05-02T08:07:15.999Z</time></trkpt><trkpt lat="43.22839722063759" lon="11.377241476954225"><ele>187.0</ele><time>2026-05-02T08:07:16.999Z</time></trkpt><trkpt lat="43.228253726021016" lon="11.377256682851383"><ele>184.0</ele><time>2026-05-02T08:07:17.999Z</time></trkpt><trkpt lat="43.22810772463341" lon="11.377268198963"><ele>181.0</ele><time>2026-05-02T08:07:19Z</time></trkpt><trkpt lat="43.22796295654181" lon="11.377279567493046"><ele>178.0</ele><time>2026-05-02T08:07:20Z</time></trkpt><trkpt lat="43.227819865015995" lon="11.377288158423495"><ele>178.0</ele><time>2026-05-02T08:07:21Z</time></trkpt><trkpt lat="43.227671436505325" lon="11.377293512732264"><ele>178.0</ele><time>2026-05-02T08:07:22Z</time></trkpt><trkpt lat="43.227526274269614" lon="11.377295673029803"><ele>178.0</ele><time>2026-05-02T08:07:23Z</time></trkpt><trkpt lat="43.22738676423359" lon="11.377287835285951"><ele>178.0</ele><time>2026-05-02T08:07:24Z</time></trkpt><trkpt lat="43.22725042052268" lon="11.377260551941115"><ele>177.75</ele><time>2026-05-02T08:07:25Z</time></trkpt><trkpt lat="43.22711298255487" lon="11.377211723059643"><ele>177.5</ele><time>2026-05-02T08:07:26Z</time></trkpt><trkpt lat="43.22698341225295" lon="11.377135896372897"><ele>177.25</ele><time>2026-05-02T08:07:27Z</time></trkpt><trkpt lat="43.226853480360965" lon="11.377043891664488"><ele>177.0</ele><time>2026-05-02T08:07:28Z</time></trkpt><trkpt lat="43.22672959467987" lon="11.376944800142372"><ele>177.0</ele><time>2026-05-02T08:07:29Z</time></trkpt><trkpt lat="43.22660779135247" lon="11.376834954777332"><ele>177.0</ele><time>2026-05-02T08:07:30Z</time></trkpt><trkpt lat="43.22649175019673" lon="11.376712909157895"><ele>177.0</ele><time>2026-05-02T08:07:31Z</time></trkpt><trkpt lat="43.22638891988876" lon="11.376581717596226"><ele>177.0</ele><time>2026-05-02T08:07:32Z</time></trkpt><trkpt lat="43.226299447390495" lon="11.376433870184773"><ele>177.5</ele><time>2026-05-02T08:07:33Z</time></trkpt><trkpt lat="43.22622110170626" lon="11.376277838701705"><ele>178.0</ele><time>2026-05-02T08:07:34Z</time></trkpt><trkpt lat="43.22615081772627" lon="11.37611387760568"><ele>178.5</ele><time>2026-05-02T08:07:35Z</time></trkpt><trkpt lat="43.22609093226162" lon="11.375940149099106"><ele>179.0</ele><time>2026-05-02T08:07:36Z</time></trkpt><trkpt lat="43.22604887621833" lon="11.375754350633114"><ele>179.0</ele><time>2026-05-02T08:07:37Z</time></trkpt><trkpt lat="43.22603127367849" lon="11.375567717851233"><ele>179.0</ele><time>2026-05-02T08:07:38Z</time></trkpt><trkpt lat="43.22602685326814" lon="11.37537224820108"><ele>179.0</ele><time>2026-05-02T08:07:39Z</time></trkpt><trkpt lat="43.226039350155084" lon="11.375164502915943"><ele>179.0</ele><time>2026-05-02T08:07:40Z</time></trkpt><trkpt lat="43.22605863075562" lon="11.374944573367177"><ele>178.66666666666666</ele><time>2026-05-02T08:07:41Z</time></trkpt><trkpt lat="43.22608274535908" lon="11.374722984661288"><ele>178.33333333333334</ele><time>2026-05-02T08:07:42Z</time></trkpt><trkpt lat="43.22610834127848" lon="11.374501405543905"><ele>178.0</ele><time>2026-05-02T08:07:43Z</time></trkpt><trkpt lat="43.22612931978339" lon="11.374277284791924"><ele>178.0</ele><time>2026-05-02T08:07:44Z</time></trkpt><trkpt lat="43.226145590095236" lon="11.374061959992973"><ele>178.0</ele><time>2026-05-02T08:07:45Z</time></trkpt><trkpt lat="43.22614890030846" lon="11.373851568135935"><ele>178.0</ele><time>2026-05-02T08:07:46Z</time></trkpt><trkpt lat="43.22612453666428" lon="11.373636260235493"><ele>178.0</ele><time>2026-05-02T08:07:47Z</time></trkpt><trkpt lat="43.22607656867581" lon="11.373427481792811"><ele>178.0</ele><time>2026-05-02T08:07:48Z</time></trkpt><trkpt lat="43.22601741286724" lon="11.373210115891167"><ele>178.0</ele><time>2026-05-02T08:07:49Z</time></trkpt><trkpt lat="43.225949219133284" lon="11.372987441319255"><ele>179.0</ele><time>2026-05-02T08:07:50Z</time></trkpt><trkpt lat="43.225888327597104" lon="11.372796009015845"><ele>180.0</ele><time>2026-05-02T08:07:51Z</time></trkpt><trkpt lat="43.22583834260921" lon="11.372634719281528"><ele>181.0</ele><time>2026-05-02T08:07:52Z</time></trkpt><trkpt lat="43.22579195899464" lon="11.372483036450241"><ele>182.0</ele><time>2026-05-02T08:07:53Z</time></trkpt><trkpt lat="43.22574341993636" lon="11.372350871613142"><ele>182.0</ele><time>2026-05-02T08:07:54Z</time></trkpt><trkpt lat="43.22569240934099" lon="11.372251880979222"><ele>182.0</ele><time>2026-05-02T08:07:55Z</time></trkpt><trkpt lat="43.225627880718015" lon="11.372169896335134"><ele>182.0</ele><time>2026-05-02T08:07:56Z</time></trkpt><trkpt lat="43.225527476880245" lon="11.372118847948189"><ele>182.0</ele><time>2026-05-02T08:07:57Z</time></trkpt><trkpt lat="43.22541805040887" lon="11.372149581368843"><ele>182.0</ele><time>2026-05-02T08:07:58Z</time></trkpt><trkpt lat="43.22535666740088" lon="11.37223808985076"><ele>181.6</ele><time>2026-05-02T08:07:59Z</time></trkpt><trkpt lat="43.225297409087446" lon="11.372311784933316"><ele>181.2</ele><time>2026-05-02T08:08:00Z</time></trkpt><trkpt lat="43.225240534093246" lon="11.3724215327609"><ele>180.8</ele><time>2026-05-02T08:08:01Z</time></trkpt><trkpt lat="43.22519489198043" lon="11.372543964036907"><ele>180.4</ele><time>2026-05-02T08:08:02Z</time></trkpt><trkpt lat="43.225150267273925" lon="11.372674435844248"><ele>180.0</ele><time>2026-05-02T08:08:03Z</time></trkpt><trkpt lat="43.22510544747102" lon="11.372804946551467"><ele>180.0</ele><time>2026-05-02T08:08:04Z</time></trkpt><trkpt lat="43.22505247186836" lon="11.372940961250393"><ele>180.0</ele><time>2026-05-02T08:08:05Z</time></trkpt><trkpt lat="43.224999368630264" lon="11.37307508869938"><ele>180.0</ele><time>2026-05-02T08:08:06Z</time></trkpt><trkpt lat="43.224943422565865" lon="11.373200765862489"><ele>180.0</ele><time>2026-05-02T08:08:07Z</time></trkpt><trkpt lat="43.224861721758465" lon="11.373289402863252"><ele>180.0</ele><time>2026-05-02T08:08:08Z</time></trkpt><trkpt lat="43.22478200514015" lon="11.373371668423962"><ele>181.6</ele><time>2026-05-02T08:08:09Z</time></trkpt><trkpt lat="43.224691716419876" lon="11.373431542242589"><ele>183.2</ele><time>2026-05-02T08:08:10Z</time></trkpt><trkpt lat="43.224595794147106" lon="11.373478969628124"><ele>184.8</ele><time>2026-05-02T08:08:11Z</time></trkpt><trkpt lat="43.224497988566995" lon="11.373512139604118"><ele>186.4</ele><time>2026-05-02T08:08:12Z</time></trkpt><trkpt lat="43.22439755646644" lon="11.373529646568784"><ele>188.0</ele><time>2026-05-02T08:08:13Z</time></trkpt><trkpt lat="43.22429847415304" lon="11.373517971787335"><ele>188.0</ele><time>2026-05-02T08:08:14Z</time></trkpt><trkpt lat="43.22419908814794" lon="11.37349097938185"><ele>188.0</ele><time>2026-05-02T08:08:15Z</time></trkpt><trkpt lat="43.22410595395629" lon="11.37345048021073"><ele>188.0</ele><time>2026-05-02T08:08:16Z</time></trkpt><trkpt lat="43.22401578727505" lon="11.373399890796192"><ele>188.0</ele><time>2026-05-02T08:08:17Z</time></trkpt><trkpt lat="43.22393948275202" lon="11.373341087347352"><ele>188.0</ele><time>2026-05-02T08:08:18Z</time></trkpt><trkpt lat="43.22385660552749" lon="11.373266410703998"><ele>191.0</ele><time>2026-05-02T08:08:19Z</time></trkpt><trkpt lat="43.22378318880502" lon="11.373181894657739"><ele>194.0</ele><time>2026-05-02T08:08:20Z</time></trkpt><trkpt lat="43.223723055417906" lon="11.373091009600321"><ele>197.0</ele><time>2026-05-02T08:08:21Z</time></trkpt><trkpt lat="43.223671353069484" lon="11.372984091001841"><ele>200.0</ele><time>2026-05-02T08:08:22Z</time></trkpt><trkpt lat="43.22363376775557" lon="11.372875880468568"><ele>203.00000000000003</ele><time>2026-05-02T08:08:23Z</time></trkpt><trkpt lat="43.22360863545286" lon="11.372767352229628"><ele>206.0</ele><time>2026-05-02T08:08:24Z</time></trkpt><trkpt lat="43.22359874266017" lon="11.372659280282482"><ele>206.0</ele><time>2026-05-02T08:08:25Z</time></trkpt><trkpt lat="43.223599128525706" lon="11.372542631182064"><ele>206.0</ele><time>2026-05-02T08:08:26Z</time></trkpt><trkpt lat="43.22360936337493" lon="11.372423117823386"><ele>206.0</ele><time>2026-05-02T08:08:27Z</time></trkpt><trkpt lat="43.223626457556826" lon="11.372294920464734"><ele>206.0</ele><time>2026-05-02T08:08:28Z</time></trkpt><trkpt lat="43.22364307998465" lon="11.37216823786135"><ele>206.0</ele><time>2026-05-02T08:08:29Z</time></trkpt><trkpt lat="43.22365672164866" lon="11.37203487068776"><ele>206.0</ele><time>2026-05-02T08:08:30Z</time></trkpt><trkpt lat="43.22365739386841" lon="11.371898248706168"><ele>206.0</ele><time>2026-05-02T08:08:31Z</time></trkpt><trkpt lat="43.22364507285373" lon="11.371766416314415"><ele>206.0</ele><time>2026-05-02T08:08:32Z</time></trkpt><trkpt lat="43.22360930312678" lon="11.371624194720965"><ele>206.0</ele><time>2026-05-02T08:08:33Z</time></trkpt><trkpt lat="43.22355504929126" lon="11.37149561520596"><ele>206.0</ele><time>2026-05-02T08:08:34Z</time></trkpt><trkpt lat="43.22348353411235" lon="11.371379887481233"><ele>205.20000000000002</ele><time>2026-05-02T08:08:35Z</time></trkpt><trkpt lat="43.2234077229119" lon="11.371281540555067"><ele>204.4</ele><time>2026-05-02T08:08:36Z</time></trkpt><trkpt lat="43.22333079904806" lon="11.371202476792423"><ele>203.6</ele><time>2026-05-02T08:08:37Z</time></trkpt><trkpt lat="43.22323427907357" lon="11.371145978996259"><ele>202.8</ele><time>2026-05-02T08:08:38Z</time></trkpt><trkpt lat="43.22312778982794" lon="11.37114251173321"><ele>202.0</ele><time>2026-05-02T08:08:39Z</time></trkpt><trkpt lat="43.22303455658566" lon="11.371188841689158"><ele>201.8</ele><time>2026-05-02T08:08:40Z</time></trkpt><trkpt lat="43.222961746909554" lon="11.371264322188445"><ele>201.6</ele><time>2026-05-02T08:08:41Z</time></trkpt><trkpt lat="43.22288751209061" lon="11.371329359565557"><ele>201.4</ele><time>2026-05-02T08:08:42Z</time></trkpt><trkpt lat="43.22282805291678" lon="11.371412627396744"><ele>201.20000000000002</ele><time>2026-05-02T08:08:43Z</time></trkpt><trkpt lat="43.22277226465871" lon="11.37151847271967"><ele>201.0</ele><time>2026-05-02T08:08:43.999Z</time></trkpt><trkpt lat="43.22271014557269" lon="11.371629550372697"><ele>202.4</ele><time>2026-05-02T08:08:44.999Z</time></trkpt><trkpt lat="43.222647429766276" lon="11.371736113596704"><ele>203.8</ele><time>2026-05-02T08:08:45.999Z</time></trkpt><trkpt lat="43.22258523070704" lon="11.371849159363162"><ele>205.20000000000002</ele><time>2026-05-02T08:08:46.999Z</time></trkpt><trkpt lat="43.22252172937301" lon="11.371963559742468"><ele>206.60000000000002</ele><time>2026-05-02T08:08:47.999Z</time></trkpt><trkpt lat="43.222453394168554" lon="11.372078313246526"><ele>208.0</ele><time>2026-05-02T08:08:48.999Z</time></trkpt><trkpt lat="43.22237622906911" lon="11.372186378895714"><ele>211.25</ele><time>2026-05-02T08:08:49.999Z</time></trkpt><trkpt lat="43.22229287248552" lon="11.372294432261643"><ele>214.5</ele><time>2026-05-02T08:08:50.999Z</time></trkpt><trkpt lat="43.22219183691264" lon="11.372375947030863"><ele>217.75</ele><time>2026-05-02T08:08:51.999Z</time></trkpt><trkpt lat="43.22209369004223" lon="11.372468496128496"><ele>221.0</ele><time>2026-05-02T08:08:52.999Z</time></trkpt><trkpt lat="43.22199143936182" lon="11.37254212308698"><ele>221.0</ele><time>2026-05-02T08:08:53.999Z</time></trkpt><trkpt lat="43.22188274256516" lon="11.372601132726674"><ele>221.00000000000003</ele><time>2026-05-02T08:08:54.999Z</time></trkpt><trkpt lat="43.221768655665386" lon="11.372635937942482"><ele>221.00000000000003</ele><time>2026-05-02T08:08:56.001Z</time></trkpt><trkpt lat="43.22167191622234" lon="11.372659854961558"><ele>221.0</ele><time>2026-05-02T08:08:57.001Z</time></trkpt><trkpt lat="43.22157244781266" lon="11.372683633266977"><ele>221.0</ele><time>2026-05-02T08:08:58.001Z</time></trkpt><trkpt lat="43.22147992912606" lon="11.372705377772398"><ele>222.20000000000002</ele><time>2026-05-02T08:08:59.001Z</time></trkpt><trkpt lat="43.22139479894965" lon="11.372723612589727"><ele>223.40000000000003</ele><time>2026-05-02T08:09:00.001Z</time></trkpt><trkpt lat="43.22132173063508" lon="11.37273919612698"><ele>224.6</ele><time>2026-05-02T08:09:01.001Z</time></trkpt><trkpt lat="43.22121097223786" lon="11.372762817947509"><ele>225.8</ele><time>2026-05-02T08:09:03.001Z</time></trkpt><trkpt lat="43.221084630995215" lon="11.372788794000513"><ele>227.0</ele><time>2026-05-02T08:09:05.001Z</time></trkpt><trkpt lat="43.221018564382526" lon="11.37280225992569"><ele>227.00000000000003</ele><time>2026-05-02T08:09:06.001Z</time></trkpt><trkpt lat="43.220951486783164" lon="11.372815931917556"><ele>227.0</ele><time>2026-05-02T08:09:07.001Z</time></trkpt><trkpt lat="43.2208813170272" lon="11.372830234157675"><ele>227.0</ele><time>2026-05-02T08:09:08.001Z</time></trkpt><trkpt lat="43.220807803183256" lon="11.372845458849431"><ele>227.0</ele><time>2026-05-02T08:09:09.001Z</time></trkpt><trkpt lat="43.22072955140298" lon="11.372862204225587"><ele>227.00000000000003</ele><time>2026-05-02T08:09:10.001Z</time></trkpt><trkpt lat="43.220645470381605" lon="11.372880197013234"><ele>227.0</ele><time>2026-05-02T08:09:11.001Z</time></trkpt><trkpt lat="43.22055435867947" lon="11.3728997286577"><ele>228.6</ele><time>2026-05-02T08:09:12.001Z</time></trkpt><trkpt lat="43.22046150634195" lon="11.372919696076211"><ele>230.2</ele><time>2026-05-02T08:09:13.001Z</time></trkpt><trkpt lat="43.220373192816446" lon="11.372938687446348"><ele>231.8</ele><time>2026-05-02T08:09:14.001Z</time></trkpt><trkpt lat="43.220282102448394" lon="11.372958275956266"><ele>233.4</ele><time>2026-05-02T08:09:15.001Z</time></trkpt><trkpt lat="43.220191429990614" lon="11.372977774599947"><ele>235.0</ele><time>2026-05-02T08:09:16.001Z</time></trkpt><trkpt lat="43.22009669716341" lon="11.372997922523028"><ele>235.0</ele><time>2026-05-02T08:09:17.001Z</time></trkpt><trkpt lat="43.219996187559175" lon="11.373017401706523"><ele>235.0</ele><time>2026-05-02T08:09:18.001Z</time></trkpt><trkpt lat="43.21988760271191" lon="11.373035545436142"><ele>235.0</ele><time>2026-05-02T08:09:19Z</time></trkpt><trkpt lat="43.2197792583375" lon="11.373050853725537"><ele>235.0</ele><time>2026-05-02T08:09:20Z</time></trkpt><trkpt lat="43.21967082960994" lon="11.37306283671304"><ele>235.0</ele><time>2026-05-02T08:09:21Z</time></trkpt><trkpt lat="43.2195605550093" lon="11.37306878342687"><ele>236.8</ele><time>2026-05-02T08:09:22Z</time></trkpt><trkpt lat="43.21944924859187" lon="11.373068527509924"><ele>238.6</ele><time>2026-05-02T08:09:23Z</time></trkpt><trkpt lat="43.21934199388106" lon="11.373066152560883"><ele>240.39999999999998</ele><time>2026-05-02T08:09:24Z</time></trkpt><trkpt lat="43.21923318729209" lon="11.373056942325572"><ele>242.2</ele><time>2026-05-02T08:09:25Z</time></trkpt><trkpt lat="43.21913088182438" lon="11.373032867358086"><ele>244.0</ele><time>2026-05-02T08:09:26Z</time></trkpt><trkpt lat="43.21903047145528" lon="11.373002444033725"><ele>245.6</ele><time>2026-05-02T08:09:27Z</time></trkpt><trkpt lat="43.21893629872589" lon="11.372966172024011"><ele>247.2</ele><time>2026-05-02T08:09:28Z</time></trkpt><trkpt lat="43.21883872179401" lon="11.37292456546179"><ele>248.79999999999998</ele><time>2026-05-02T08:09:29Z</time></trkpt><trkpt lat="43.21873372003065" lon="11.372876541398227"><ele>250.39999999999998</ele><time>2026-05-02T08:09:30Z</time></trkpt><trkpt lat="43.21862620056699" lon="11.372826000584842"><ele>252.0</ele><time>2026-05-02T08:09:31Z</time></trkpt><trkpt lat="43.21851031381003" lon="11.37277035680601"><ele>252.0</ele><time>2026-05-02T08:09:32Z</time></trkpt><trkpt lat="43.21839505970176" lon="11.372711957384332"><ele>252.0</ele><time>2026-05-02T08:09:33Z</time></trkpt><trkpt lat="43.218275710171966" lon="11.372651402236295"><ele>252.0</ele><time>2026-05-02T08:09:34Z</time></trkpt><trkpt lat="43.21815939282406" lon="11.372592265570137"><ele>252.0</ele><time>2026-05-02T08:09:35Z</time></trkpt><trkpt lat="43.218037685655574" lon="11.372530113235038"><ele>249.5</ele><time>2026-05-02T08:09:36Z</time></trkpt><trkpt lat="43.217913753790725" lon="11.37246682482447"><ele>247.0</ele><time>2026-05-02T08:09:37Z</time></trkpt><trkpt lat="43.21779083796941" lon="11.372404055266287"><ele>244.5</ele><time>2026-05-02T08:09:38Z</time></trkpt><trkpt lat="43.2176684561578" lon="11.372342687682265"><ele>242.0</ele><time>2026-05-02T08:09:39Z</time></trkpt><trkpt lat="43.21756031637605" lon="11.372289502829583"><ele>242.0</ele><time>2026-05-02T08:09:40Z</time></trkpt><trkpt lat="43.21747096977906" lon="11.372247340472804"><ele>242.0</ele><time>2026-05-02T08:09:41Z</time></trkpt><trkpt lat="43.217383553611185" lon="11.372206089093085"><ele>242.0</ele><time>2026-05-02T08:09:42Z</time></trkpt><trkpt lat="43.21728907944917" lon="11.372161507176614"><ele>242.0</ele><time>2026-05-02T08:09:43Z</time></trkpt><trkpt lat="43.21719002963851" lon="11.372098288398146"><ele>242.0</ele><time>2026-05-02T08:09:44Z</time></trkpt><trkpt lat="43.21706696261341" lon="11.372035606990778"><ele>241.0</ele><time>2026-05-02T08:09:45Z</time></trkpt><trkpt lat="43.216936232207395" lon="11.3719708569082"><ele>240.0</ele><time>2026-05-02T08:09:46Z</time></trkpt><trkpt lat="43.21680048230023" lon="11.37190141936893"><ele>239.0</ele><time>2026-05-02T08:09:47Z</time></trkpt><trkpt lat="43.21666203690398" lon="11.371830603050299"><ele>238.0</ele><time>2026-05-02T08:09:48Z</time></trkpt><trkpt lat="43.216519495589" lon="11.371757691631023"><ele>239.5</ele><time>2026-05-02T08:09:49Z</time></trkpt><trkpt lat="43.21637658138032" lon="11.371684589466602"><ele>241.0</ele><time>2026-05-02T08:09:50Z</time></trkpt><trkpt lat="43.216244096980844" lon="11.37161830487103"><ele>242.5</ele><time>2026-05-02T08:09:51Z</time></trkpt><trkpt lat="43.216140026295996" lon="11.371570433495735"><ele>244.0</ele><time>2026-05-02T08:09:52Z</time></trkpt><trkpt lat="43.21604719556012" lon="11.371523810227679"><ele>243.99999999999997</ele><time>2026-05-02T08:09:53Z</time></trkpt><trkpt lat="43.21596671477483" lon="11.371474312164844"><ele>244.0</ele><time>2026-05-02T08:09:54Z</time></trkpt><trkpt lat="43.215884480192216" lon="11.371420066872572"><ele>244.0</ele><time>2026-05-02T08:09:55Z</time></trkpt><trkpt lat="43.215810847768914" lon="11.37136401632104"><ele>244.0</ele><time>2026-05-02T08:09:56Z</time></trkpt><trkpt lat="43.21575222749018" lon="11.37130669822362"><ele>243.99999999999997</ele><time>2026-05-02T08:09:57Z</time></trkpt><trkpt lat="43.21570283590952" lon="11.371244666405815"><ele>244.0</ele><time>2026-05-02T08:09:58Z</time></trkpt><trkpt lat="43.21563533063404" lon="11.371162699031755"><ele>243.0</ele><time>2026-05-02T08:09:59Z</time></trkpt><trkpt lat="43.21555285340829" lon="11.371066973227878"><ele>242.0</ele><time>2026-05-02T08:10:00Z</time></trkpt><trkpt lat="43.2154597184452" lon="11.370978971955504"><ele>241.0</ele><time>2026-05-02T08:10:01Z</time></trkpt><trkpt lat="43.215355171799004" lon="11.37089321960427"><ele>240.0</ele><time>2026-05-02T08:10:02Z</time></trkpt><trkpt lat="43.21524571172982" lon="11.37081328875489"><ele>240.0</ele><time>2026-05-02T08:10:03Z</time></trkpt><trkpt lat="43.215135683655" lon="11.370749032339452"><ele>240.0</ele><time>2026-05-02T08:10:04Z</time></trkpt><trkpt lat="43.21502166461881" lon="11.370704748050473"><ele>240.0</ele><time>2026-05-02T08:10:05Z</time></trkpt><trkpt lat="43.214908644197585" lon="11.370673342948681"><ele>240.0</ele><time>2026-05-02T08:10:06Z</time></trkpt><trkpt lat="43.21479607213487" lon="11.370661500839631"><ele>237.0</ele><time>2026-05-02T08:10:07Z</time></trkpt><trkpt lat="43.2146842851488" lon="11.370686266078216"><ele>234.0</ele><time>2026-05-02T08:10:08Z</time></trkpt><trkpt lat="43.214580643507766" lon="11.370738305325741"><ele>231.0</ele><time>2026-05-02T08:10:09Z</time></trkpt><trkpt lat="43.2144712202849" lon="11.370805277608"><ele>228.0</ele><time>2026-05-02T08:10:10Z</time></trkpt><trkpt lat="43.21435140387569" lon="11.370879496433755"><ele>228.0</ele><time>2026-05-02T08:10:11Z</time></trkpt><trkpt lat="43.214229474937525" lon="11.370960022703079"><ele>228.0</ele><time>2026-05-02T08:10:12Z</time></trkpt><trkpt lat="43.214108762100075" lon="11.371039744203275"><ele>228.0</ele><time>2026-05-02T08:10:13Z</time></trkpt><trkpt lat="43.21399072187481" lon="11.371117700633448"><ele>228.0</ele><time>2026-05-02T08:10:14Z</time></trkpt><trkpt lat="43.21387618691589" lon="11.37118937851694"><ele>226.5</ele><time>2026-05-02T08:10:15Z</time></trkpt><trkpt lat="43.213763343130665" lon="11.37125699975113"><ele>225.0</ele><time>2026-05-02T08:10:16Z</time></trkpt><trkpt lat="43.213651624722594" lon="11.371321322406397"><ele>223.5</ele><time>2026-05-02T08:10:17Z</time></trkpt><trkpt lat="43.21354163415998" lon="11.371367515202017"><ele>222.0</ele><time>2026-05-02T08:10:18Z</time></trkpt><trkpt lat="43.21343786029695" lon="11.371385725213687"><ele>222.0</ele><time>2026-05-02T08:10:19Z</time></trkpt><trkpt lat="43.2133539400664" lon="11.371341312714833"><ele>222.0</ele><time>2026-05-02T08:10:20Z</time></trkpt><trkpt lat="43.213280283021916" lon="11.37126081132625"><ele>222.0</ele><time>2026-05-02T08:10:21Z</time></trkpt><trkpt lat="43.213213968713944" lon="11.371156305834734"><ele>222.0</ele><time>2026-05-02T08:10:22Z</time></trkpt><trkpt lat="43.21314211497728" lon="11.371024729718131"><ele>222.0</ele><time>2026-05-02T08:10:23Z</time></trkpt><trkpt lat="43.21306532884582" lon="11.370879606904422"><ele>222.0</ele><time>2026-05-02T08:10:24Z</time></trkpt><trkpt lat="43.21298994555164" lon="11.370731622680516"><ele>222.0</ele><time>2026-05-02T08:10:25Z</time></trkpt><trkpt lat="43.21291574966549" lon="11.370580027543957"><ele>222.0</ele><time>2026-05-02T08:10:26Z</time></trkpt><trkpt lat="43.21284134721475" lon="11.370422340278436"><ele>222.0</ele><time>2026-05-02T08:10:27Z</time></trkpt><trkpt lat="43.21276446195703" lon="11.370260071867136"><ele>222.75</ele><time>2026-05-02T08:10:28Z</time></trkpt><trkpt lat="43.21268509639319" lon="11.370101203070815"><ele>223.5</ele><time>2026-05-02T08:10:29Z</time></trkpt><trkpt lat="43.21260269281427" lon="11.369951496569549"><ele>224.25</ele><time>2026-05-02T08:10:30Z</time></trkpt><trkpt lat="43.212515534173306" lon="11.36980579178243"><ele>225.0</ele><time>2026-05-02T08:10:31Z</time></trkpt><trkpt lat="43.2124289377952" lon="11.369667231421477"><ele>225.0</ele><time>2026-05-02T08:10:32Z</time></trkpt><trkpt lat="43.2123427655202" lon="11.369533032803565"><ele>225.0</ele><time>2026-05-02T08:10:33Z</time></trkpt><trkpt lat="43.21225981065405" lon="11.369400382367148"><ele>225.0</ele><time>2026-05-02T08:10:34Z</time></trkpt><trkpt lat="43.212171706410636" lon="11.369271095971275"><ele>225.0</ele><time>2026-05-02T08:10:35Z</time></trkpt><trkpt lat="43.21208494256291" lon="11.369168651039189"><ele>225.5</ele><time>2026-05-02T08:10:36Z</time></trkpt><trkpt lat="43.21199310002979" lon="11.369079032312056"><ele>226.0</ele><time>2026-05-02T08:10:37Z</time></trkpt><trkpt lat="43.21188943702582" lon="11.368994943073442"><ele>226.5</ele><time>2026-05-02T08:10:38Z</time></trkpt><trkpt lat="43.21178162370725" lon="11.368920523068116"><ele>227.0</ele><time>2026-05-02T08:10:39Z</time></trkpt><trkpt lat="43.211666739810745" lon="11.368853496282876"><ele>227.0</ele><time>2026-05-02T08:10:40Z</time></trkpt><trkpt lat="43.211549581776566" lon="11.368797285510432"><ele>227.0</ele><time>2026-05-02T08:10:41Z</time></trkpt><trkpt lat="43.21143363511359" lon="11.368745405980967"><ele>227.0</ele><time>2026-05-02T08:10:42Z</time></trkpt><trkpt lat="43.211313697950914" lon="11.36869465461015"><ele>227.0</ele><time>2026-05-02T08:10:43Z</time></trkpt><trkpt lat="43.21118725044762" lon="11.368641027321086"><ele>228.5</ele><time>2026-05-02T08:10:44Z</time></trkpt><trkpt lat="43.211050708162055" lon="11.36859392631875"><ele>230.0</ele><time>2026-05-02T08:10:45Z</time></trkpt><trkpt lat="43.210923160552824" lon="11.368551471857453"><ele>231.5</ele><time>2026-05-02T08:10:46Z</time></trkpt><trkpt lat="43.21080001120893" lon="11.368510481366926"><ele>233.0</ele><time>2026-05-02T08:10:46.999Z</time></trkpt><trkpt lat="43.210671868110964" lon="11.368467828697188"><ele>232.5</ele><time>2026-05-02T08:10:47.999Z</time></trkpt><trkpt lat="43.21054381096591" lon="11.368425204633635"><ele>232.0</ele><time>2026-05-02T08:10:48.999Z</time></trkpt><trkpt lat="43.21042008810082" lon="11.368384023243987"><ele>231.5</ele><time>2026-05-02T08:10:49.999Z</time></trkpt><trkpt lat="43.21029433843584" lon="11.36834010171912"><ele>231.0</ele><time>2026-05-02T08:10:50.999Z</time></trkpt><trkpt lat="43.21016683695507" lon="11.368295746368675"><ele>231.0</ele><time>2026-05-02T08:10:51.999Z</time></trkpt><trkpt lat="43.210049219838005" lon="11.36825711344758"><ele>231.00000000000003</ele><time>2026-05-02T08:10:52.999Z</time></trkpt><trkpt lat="43.2099472027907" lon="11.368225362994382"><ele>231.00000000000003</ele><time>2026-05-02T08:10:53.999Z</time></trkpt><trkpt lat="43.20986379223877" lon="11.368200421505499"><ele>231.0</ele><time>2026-05-02T08:10:54.999Z</time></trkpt><trkpt lat="43.20978224945526" lon="11.368184521135142"><ele>231.0</ele><time>2026-05-02T08:10:55.999Z</time></trkpt><trkpt lat="43.20970988212364" lon="11.368192341584209"><ele>233.8</ele><time>2026-05-02T08:10:56.999Z</time></trkpt><trkpt lat="43.20963454927796" lon="11.3682254867362"><ele>236.60000000000002</ele><time>2026-05-02T08:10:58.999Z</time></trkpt><trkpt lat="43.2095433392551" lon="11.368349770216993"><ele>239.4</ele><time>2026-05-02T08:11:02.001Z</time></trkpt><trkpt lat="43.20946951982918" lon="11.368416950361246"><ele>242.2</ele><time>2026-05-02T08:11:03.001Z</time></trkpt><trkpt lat="43.20940536306518" lon="11.368516288225914"><ele>245.0</ele><time>2026-05-02T08:11:04.001Z</time></trkpt><trkpt lat="43.209338476494494" lon="11.368626184852188"><ele>245.0</ele><time>2026-05-02T08:11:05.001Z</time></trkpt><trkpt lat="43.209269573424876" lon="11.368738130516228"><ele>245.0</ele><time>2026-05-02T08:11:06.001Z</time></trkpt><trkpt lat="43.20920124121712" lon="11.36884412898551"><ele>245.0</ele><time>2026-05-02T08:11:07.001Z</time></trkpt><trkpt lat="43.209129981076934" lon="11.368950197759117"><ele>245.0</ele><time>2026-05-02T08:11:08.001Z</time></trkpt><trkpt lat="43.20905280889042" lon="11.36906306747302"><ele>245.0</ele><time>2026-05-02T08:11:09.001Z</time></trkpt><trkpt lat="43.20897795317686" lon="11.369170447398703"><ele>248.16666666666669</ele><time>2026-05-02T08:11:10.001Z</time></trkpt><trkpt lat="43.20891339974343" lon="11.36926178987063"><ele>251.33333333333334</ele><time>2026-05-02T08:11:11.001Z</time></trkpt><trkpt lat="43.20885017085171" lon="11.369349547535757"><ele>254.5</ele><time>2026-05-02T08:11:12.001Z</time></trkpt><trkpt lat="43.208789205254966" lon="11.369434163913862"><ele>257.6666666666667</ele><time>2026-05-02T08:11:13.001Z</time></trkpt><trkpt lat="43.20872873555633" lon="11.36951624044902"><ele>260.8333333333333</ele><time>2026-05-02T08:11:14.001Z</time></trkpt><trkpt lat="43.20867003488215" lon="11.369595173482047"><ele>264.0</ele><time>2026-05-02T08:11:15.001Z</time></trkpt><trkpt lat="43.208613907062784" lon="11.369670646888423"><ele>262.1666666666667</ele><time>2026-05-02T08:11:16.001Z</time></trkpt><trkpt lat="43.20855940818617" lon="11.36974392990101"><ele>260.3333333333333</ele><time>2026-05-02T08:11:17.001Z</time></trkpt><trkpt lat="43.20850447752923" lon="11.369817793518203"><ele>258.5</ele><time>2026-05-02T08:11:18.001Z</time></trkpt><trkpt lat="43.20845101464595" lon="11.369889683456778"><ele>256.66666666666663</ele><time>2026-05-02T08:11:19.001Z</time></trkpt><trkpt lat="43.208394453040256" lon="11.369965740151551"><ele>254.83333333333331</ele><time>2026-05-02T08:11:20.001Z</time></trkpt><trkpt lat="43.20833644557736" lon="11.370045145884122"><ele>253.0</ele><time>2026-05-02T08:11:21.001Z</time></trkpt><trkpt lat="43.20828073077441" lon="11.370121968141241"><ele>253.00000000000003</ele><time>2026-05-02T08:11:22Z</time></trkpt><trkpt lat="43.2082288289606" lon="11.370193532861709"><ele>253.0</ele><time>2026-05-02T08:11:23Z</time></trkpt><trkpt lat="43.208178813256886" lon="11.370262496908726"><ele>253.00000000000003</ele><time>2026-05-02T08:11:24Z</time></trkpt><trkpt lat="43.20812849539287" lon="11.370332967857868"><ele>253.00000000000003</ele><time>2026-05-02T08:11:25Z</time></trkpt><trkpt lat="43.20807705074549" lon="11.370405082257086"><ele>253.0</ele><time>2026-05-02T08:11:26Z</time></trkpt><trkpt lat="43.20802909702552" lon="11.370472303090018"><ele>253.00000000000003</ele><time>2026-05-02T08:11:27Z</time></trkpt><trkpt lat="43.20798340640548" lon="11.37053635155677"><ele>253.00000000000003</ele><time>2026-05-02T08:11:28Z</time></trkpt><trkpt lat="43.207938068506984" lon="11.370599905585443"><ele>256.4</ele><time>2026-05-02T08:11:29Z</time></trkpt><trkpt lat="43.20789017029512" lon="11.370666873926734"><ele>259.8</ele><time>2026-05-02T08:11:30Z</time></trkpt><trkpt lat="43.20783098819562" lon="11.370749227374962"><ele>263.2</ele><time>2026-05-02T08:11:31Z</time></trkpt><trkpt lat="43.20776826357734" lon="11.370836514081736"><ele>266.6</ele><time>2026-05-02T08:11:32Z</time></trkpt><trkpt lat="43.20769781434382" lon="11.370934673731448"><ele>270.0</ele><time>2026-05-02T08:11:33Z</time></trkpt><trkpt lat="43.20761846470684" lon="11.371044292617707"><ele>270.0</ele><time>2026-05-02T08:11:34Z</time></trkpt><trkpt lat="43.207533688492376" lon="11.371159322533416"><ele>270.0</ele><time>2026-05-02T08:11:35Z</time></trkpt><trkpt lat="43.20743465656853" lon="11.371295828220243"><ele>270.0</ele><time>2026-05-02T08:11:36Z</time></trkpt><trkpt lat="43.20733669279725" lon="11.371441278634213"><ele>270.0</ele><time>2026-05-02T08:11:37Z</time></trkpt><trkpt lat="43.20724739552656" lon="11.37158520707662"><ele>270.25</ele><time>2026-05-02T08:11:38Z</time></trkpt><trkpt lat="43.207169142057644" lon="11.371745097236534"><ele>270.5</ele><time>2026-05-02T08:11:39Z</time></trkpt><trkpt lat="43.20707408641724" lon="11.371920948321206"><ele>270.75</ele><time>2026-05-02T08:11:40Z</time></trkpt><trkpt lat="43.20697484433776" lon="11.372068056347464"><ele>271.0</ele><time>2026-05-02T08:11:41Z</time></trkpt><trkpt lat="43.2068930114778" lon="11.372211477081425"><ele>271.0</ele><time>2026-05-02T08:11:42Z</time></trkpt><trkpt lat="43.206809279367434" lon="11.372351661175443"><ele>271.0</ele><time>2026-05-02T08:11:43Z</time></trkpt><trkpt lat="43.20672738369662" lon="11.372487292481633"><ele>271.0</ele><time>2026-05-02T08:11:44Z</time></trkpt><trkpt lat="43.20664754294421" lon="11.372609686658778"><ele>271.0</ele><time>2026-05-02T08:11:45Z</time></trkpt><trkpt lat="43.20656497069011" lon="11.372740548635136"><ele>269.66666666666663</ele><time>2026-05-02T08:11:46Z</time></trkpt><trkpt lat="43.20645309561677" lon="11.372847419878001"><ele>268.3333333333333</ele><time>2026-05-02T08:11:47Z</time></trkpt><trkpt lat="43.20630543382845" lon="11.372959125274056"><ele>267.0</ele><time>2026-05-02T08:11:48Z</time></trkpt><trkpt lat="43.206132351509474" lon="11.373067590439122"><ele>267.0</ele><time>2026-05-02T08:11:49Z</time></trkpt><trkpt lat="43.20596733772657" lon="11.373184662010521"><ele>267.0</ele><time>2026-05-02T08:11:50Z</time></trkpt><trkpt lat="43.20580309978924" lon="11.373298502534396"><ele>267.0</ele><time>2026-05-02T08:11:51Z</time></trkpt><trkpt lat="43.20567885060648" lon="11.373417277786206"><ele>267.2</ele><time>2026-05-02T08:11:52Z</time></trkpt><trkpt lat="43.20557498062351" lon="11.373529805595213"><ele>267.4</ele><time>2026-05-02T08:11:53Z</time></trkpt><trkpt lat="43.20548447709641" lon="11.373613518981502"><ele>267.6</ele><time>2026-05-02T08:11:54Z</time></trkpt><trkpt lat="43.20538801994513" lon="11.373683363785572"><ele>267.8</ele><time>2026-05-02T08:11:55Z</time></trkpt><trkpt lat="43.2052998606855" lon="11.37372105905789"><ele>268.0</ele><time>2026-05-02T08:11:56Z</time></trkpt><trkpt lat="43.205198787183576" lon="11.373742903322887"><ele>268.0</ele><time>2026-05-02T08:11:57Z</time></trkpt><trkpt lat="43.205076110030774" lon="11.373736489412407"><ele>268.0</ele><time>2026-05-02T08:11:58Z</time></trkpt><trkpt lat="43.2049305812052" lon="11.37373959338548"><ele>268.0</ele><time>2026-05-02T08:11:59Z</time></trkpt><trkpt lat="43.20477996205581" lon="11.37375248866411"><ele>268.0</ele><time>2026-05-02T08:12:00Z</time></trkpt><trkpt lat="43.20461976833787" lon="11.373778934599422"><ele>267.66666666666663</ele><time>2026-05-02T08:12:01Z</time></trkpt><trkpt lat="43.204454469129715" lon="11.373824560820598"><ele>267.3333333333333</ele><time>2026-05-02T08:12:02Z</time></trkpt><trkpt lat="43.20428465933167" lon="11.373881534563461"><ele>267.0</ele><time>2026-05-02T08:12:03Z</time></trkpt><trkpt lat="43.204127981103206" lon="11.373933373412743"><ele>264.75</ele><time>2026-05-02T08:12:04Z</time></trkpt><trkpt lat="43.20397504072917" lon="11.373983370825755"><ele>262.5</ele><time>2026-05-02T08:12:05Z</time></trkpt><trkpt lat="43.20384583099968" lon="11.374032106062437"><ele>260.25</ele><time>2026-05-02T08:12:06Z</time></trkpt><trkpt lat="43.20371902613396" lon="11.374094956089674"><ele>258.0</ele><time>2026-05-02T08:12:07Z</time></trkpt><trkpt lat="43.20359323703636" lon="11.374180703965024"><ele>258.0</ele><time>2026-05-02T08:12:08Z</time></trkpt><trkpt lat="43.20347715006563" lon="11.374290494978707"><ele>258.0</ele><time>2026-05-02T08:12:09Z</time></trkpt><trkpt lat="43.20337115360178" lon="11.374382103518125"><ele>258.0</ele><time>2026-05-02T08:12:10Z</time></trkpt><trkpt lat="43.203265071958405" lon="11.3744563049645"><ele>258.0</ele><time>2026-05-02T08:12:11Z</time></trkpt><trkpt lat="43.20315138935065" lon="11.37450558810755"><ele>260.3333333333333</ele><time>2026-05-02T08:12:12Z</time></trkpt><trkpt lat="43.20301567246761" lon="11.374543000513903"><ele>262.66666666666663</ele><time>2026-05-02T08:12:13Z</time></trkpt><trkpt lat="43.20286073744537" lon="11.374579814346609"><ele>265.0</ele><time>2026-05-02T08:12:14Z</time></trkpt><trkpt lat="43.20268408272739" lon="11.37462476272903"><ele>265.0</ele><time>2026-05-02T08:12:15Z</time></trkpt><trkpt lat="43.20248608412526" lon="11.374675807520072"><ele>265.0</ele><time>2026-05-02T08:12:16Z</time></trkpt><trkpt lat="43.20229231892331" lon="11.374722819058755"><ele>265.0</ele><time>2026-05-02T08:12:17Z</time></trkpt><trkpt lat="43.202120918142064" lon="11.374768655032312"><ele>265.25</ele><time>2026-05-02T08:12:18Z</time></trkpt><trkpt lat="43.20197801727102" lon="11.374814170021034"><ele>265.5</ele><time>2026-05-02T08:12:19Z</time></trkpt><trkpt lat="43.20185290305534" lon="11.374861480916483"><ele>265.75</ele><time>2026-05-02T08:12:20Z</time></trkpt><trkpt lat="43.20172415895325" lon="11.374928115463359"><ele>266.0</ele><time>2026-05-02T08:12:21Z</time></trkpt><trkpt lat="43.201597140318725" lon="11.375016337951408"><ele>267.25</ele><time>2026-05-02T08:12:22Z</time></trkpt><trkpt lat="43.20146378247458" lon="11.375112633850154"><ele>268.5</ele><time>2026-05-02T08:12:23Z</time></trkpt><trkpt lat="43.20134616914394" lon="11.37519624482935"><ele>269.75</ele><time>2026-05-02T08:12:24Z</time></trkpt><trkpt lat="43.201240748161894" lon="11.375270940167557"><ele>271.0</ele><time>2026-05-02T08:12:25Z</time></trkpt><trkpt lat="43.20114741453593" lon="11.375331323082502"><ele>271.0</ele><time>2026-05-02T08:12:26Z</time></trkpt><trkpt lat="43.20106983602912" lon="11.375375013648894"><ele>271.0</ele><time>2026-05-02T08:12:27Z</time></trkpt><trkpt lat="43.20095923985239" lon="11.375382695488177"><ele>271.0</ele><time>2026-05-02T08:12:29Z</time></trkpt><trkpt lat="43.20086074096" lon="11.375341145899327"><ele>271.0</ele><time>2026-05-02T08:12:31Z</time></trkpt><trkpt lat="43.200780336296674" lon="11.375298040656048"><ele>271.0</ele><time>2026-05-02T08:12:32Z</time></trkpt><trkpt lat="43.20068390007321" lon="11.375240693824939"><ele>267.25</ele><time>2026-05-02T08:12:33Z</time></trkpt><trkpt lat="43.200574986518006" lon="11.375175903946982"><ele>263.5</ele><time>2026-05-02T08:12:34Z</time></trkpt><trkpt lat="43.200457667400144" lon="11.37510611381754"><ele>259.75</ele><time>2026-05-02T08:12:35Z</time></trkpt><trkpt lat="43.20034665618103" lon="11.37504059574553"><ele>256.0</ele><time>2026-05-02T08:12:36Z</time></trkpt><trkpt lat="43.20025935866081" lon="11.374993101992171"><ele>255.99999999999997</ele><time>2026-05-02T08:12:37Z</time></trkpt><trkpt lat="43.200184790083206" lon="11.374965576966433"><ele>256.0</ele><time>2026-05-02T08:12:38Z</time></trkpt><trkpt lat="43.20011960634292" lon="11.374958305864064"><ele>256.0</ele><time>2026-05-02T08:12:39Z</time></trkpt><trkpt lat="43.20005444746651" lon="11.374989577846357"><ele>256.0</ele><time>2026-05-02T08:12:40Z</time></trkpt><trkpt lat="43.1999962973221" lon="11.375075895290413"><ele>255.99999999999997</ele><time>2026-05-02T08:12:41Z</time></trkpt><trkpt lat="43.19993498276053" lon="11.375165955385212"><ele>256.0</ele><time>2026-05-02T08:12:42Z</time></trkpt><trkpt lat="43.19987940175957" lon="11.37528805739432"><ele>253.0</ele><time>2026-05-02T08:12:43Z</time></trkpt><trkpt lat="43.199825070383945" lon="11.375428744169392"><ele>250.0</ele><time>2026-05-02T08:12:44Z</time></trkpt><trkpt lat="43.19975657281816" lon="11.375556449796376"><ele>247.0</ele><time>2026-05-02T08:12:45Z</time></trkpt><trkpt lat="43.199670481707955" lon="11.37566989840834"><ele>244.0</ele><time>2026-05-02T08:12:46Z</time></trkpt><trkpt lat="43.19958295138701" lon="11.37576905196498"><ele>244.0</ele><time>2026-05-02T08:12:47Z</time></trkpt><trkpt lat="43.19949999901523" lon="11.375867426872734"><ele>243.99999999999997</ele><time>2026-05-02T08:12:47.999Z</time></trkpt><trkpt lat="43.199417865893786" lon="11.375970330170588"><ele>243.99999999999997</ele><time>2026-05-02T08:12:48.999Z</time></trkpt><trkpt lat="43.1993196658691" lon="11.376047610755656"><ele>244.0</ele><time>2026-05-02T08:12:49.999Z</time></trkpt><trkpt lat="43.19922522215833" lon="11.37611999238172"><ele>244.0</ele><time>2026-05-02T08:12:50.999Z</time></trkpt><trkpt lat="43.199115456956896" lon="11.376168880664148"><ele>242.0</ele><time>2026-05-02T08:12:51.999Z</time></trkpt><trkpt lat="43.19898325191778" lon="11.376205841281765"><ele>240.0</ele><time>2026-05-02T08:12:52.999Z</time></trkpt><trkpt lat="43.19884375456835" lon="11.37623173268898"><ele>238.0</ele><time>2026-05-02T08:12:53.999Z</time></trkpt><trkpt lat="43.198699403633526" lon="11.37626350059005"><ele>236.0</ele><time>2026-05-02T08:12:54.999Z</time></trkpt><trkpt lat="43.19856710028587" lon="11.37629594157741"><ele>236.0</ele><time>2026-05-02T08:12:55.999Z</time></trkpt><trkpt lat="43.1984522183638" lon="11.376341633591391"><ele>236.0</ele><time>2026-05-02T08:12:56.999Z</time></trkpt><trkpt lat="43.198342879576245" lon="11.37641041716648"><ele>236.0</ele><time>2026-05-02T08:12:57.999Z</time></trkpt><trkpt lat="43.19824306639088" lon="11.376513506439359"><ele>236.0</ele><time>2026-05-02T08:12:58.999Z</time></trkpt><trkpt lat="43.198139757569606" lon="11.376615765684582"><ele>236.0</ele><time>2026-05-02T08:12:59.999Z</time></trkpt><trkpt lat="43.19804147209563" lon="11.376741535477358"><ele>236.0</ele><time>2026-05-02T08:13:00.999Z</time></trkpt><trkpt lat="43.19793047382045" lon="11.376869970135528"><ele>236.0</ele><time>2026-05-02T08:13:01.999Z</time></trkpt><trkpt lat="43.1978060675678" lon="11.376984945379629"><ele>236.0</ele><time>2026-05-02T08:13:02.999Z</time></trkpt><trkpt lat="43.19766571092469" lon="11.377078049398191"><ele>236.0</ele><time>2026-05-02T08:13:03.999Z</time></trkpt><trkpt lat="43.19752521162648" lon="11.377176376780449"><ele>236.0</ele><time>2026-05-02T08:13:04.999Z</time></trkpt><trkpt lat="43.19738242177827" lon="11.377273382082137"><ele>236.0</ele><time>2026-05-02T08:13:05.999Z</time></trkpt><trkpt lat="43.19723682866165" lon="11.377368597535886"><ele>234.66666666666669</ele><time>2026-05-02T08:13:07.001Z</time></trkpt><trkpt lat="43.19709225560276" lon="11.377465292931989"><ele>233.33333333333331</ele><time>2026-05-02T08:13:08.001Z</time></trkpt><trkpt lat="43.196948308817156" lon="11.377563995496272"><ele>232.0</ele><time>2026-05-02T08:13:09.001Z</time></trkpt><trkpt lat="43.19680353078716" lon="11.377663268099301"><ele>232.0</ele><time>2026-05-02T08:13:10.001Z</time></trkpt><trkpt lat="43.19665936477298" lon="11.377762121617415"><ele>232.0</ele><time>2026-05-02T08:13:11.001Z</time></trkpt><trkpt lat="43.19651685374569" lon="11.377859840999509"><ele>232.0</ele><time>2026-05-02T08:13:12.001Z</time></trkpt><trkpt lat="43.19637354764242" lon="11.37795810557663"><ele>232.66666666666666</ele><time>2026-05-02T08:13:13.001Z</time></trkpt><trkpt lat="43.19623013387949" lon="11.378056443975925"><ele>233.33333333333331</ele><time>2026-05-02T08:13:14.001Z</time></trkpt><trkpt lat="43.19608203485792" lon="11.37815992543244"><ele>234.0</ele><time>2026-05-02T08:13:15.001Z</time></trkpt><trkpt lat="43.19594238402761" lon="11.37827709162117"><ele>234.0</ele><time>2026-05-02T08:13:16.001Z</time></trkpt><trkpt lat="43.195796942776" lon="11.378351036004362"><ele>234.0</ele><time>2026-05-02T08:13:17.001Z</time></trkpt><trkpt lat="43.19566080706245" lon="11.37841292271511"><ele>234.0</ele><time>2026-05-02T08:13:18.001Z</time></trkpt><trkpt lat="43.195537286448484" lon="11.37846737417975"><ele>234.0</ele><time>2026-05-02T08:13:19.001Z</time></trkpt><trkpt lat="43.195425452076385" lon="11.378513952831621"><ele>233.0</ele><time>2026-05-02T08:13:20.001Z</time></trkpt><trkpt lat="43.19532281307487" lon="11.37856523890208"><ele>232.0</ele><time>2026-05-02T08:13:21.001Z</time></trkpt><trkpt lat="43.1952277924821" lon="11.378635052143087"><ele>231.0</ele><time>2026-05-02T08:13:22Z</time></trkpt><trkpt lat="43.19513042343866" lon="11.378727575837544"><ele>230.0</ele><time>2026-05-02T08:13:23Z</time></trkpt><trkpt lat="43.19503549335019" lon="11.378847290275289"><ele>230.75</ele><time>2026-05-02T08:13:24Z</time></trkpt><trkpt lat="43.19493265692898" lon="11.378993236660472"><ele>231.5</ele><time>2026-05-02T08:13:25Z</time></trkpt><trkpt lat="43.19483803102138" lon="11.379135985147839"><ele>232.25</ele><time>2026-05-02T08:13:26Z</time></trkpt><trkpt lat="43.19476646319823" lon="11.379257396639998"><ele>233.0</ele><time>2026-05-02T08:13:27Z</time></trkpt><trkpt lat="43.194704371335895" lon="11.37938530088696"><ele>231.5</ele><time>2026-05-02T08:13:28Z</time></trkpt><trkpt lat="43.19464477404273" lon="11.379525711118495"><ele>230.0</ele><time>2026-05-02T08:13:29Z</time></trkpt><trkpt lat="43.194595851904545" lon="11.379677551727696"><ele>228.5</ele><time>2026-05-02T08:13:30Z</time></trkpt><trkpt lat="43.19455375923612" lon="11.379851121107603"><ele>227.0</ele><time>2026-05-02T08:13:31Z</time></trkpt><trkpt lat="43.19452537963847" lon="11.380037906322611"><ele>227.0</ele><time>2026-05-02T08:13:32Z</time></trkpt><trkpt lat="43.19450777400496" lon="11.380230343683392"><ele>227.0</ele><time>2026-05-02T08:13:33Z</time></trkpt><trkpt lat="43.19449518159018" lon="11.380418883051505"><ele>227.0</ele><time>2026-05-02T08:13:34Z</time></trkpt><trkpt lat="43.19447942820145" lon="11.38060626050698"><ele>227.0</ele><time>2026-05-02T08:13:35Z</time></trkpt><trkpt lat="43.19445914642554" lon="11.380788614808896"><ele>227.25</ele><time>2026-05-02T08:13:36Z</time></trkpt><trkpt lat="43.19442889995532" lon="11.380965633183369"><ele>227.5</ele><time>2026-05-02T08:13:37Z</time></trkpt><trkpt lat="43.194381482804936" lon="11.381137728616098"><ele>227.75</ele><time>2026-05-02T08:13:38Z</time></trkpt><trkpt lat="43.19432360729611" lon="11.381309480656975"><ele>228.0</ele><time>2026-05-02T08:13:39Z</time></trkpt><trkpt lat="43.19425814418382" lon="11.381485289851362"><ele>228.0</ele><time>2026-05-02T08:13:40Z</time></trkpt><trkpt lat="43.19419378184736" lon="11.381665149831873"><ele>228.0</ele><time>2026-05-02T08:13:41Z</time></trkpt><trkpt lat="43.19413185733506" lon="11.381848300492674"><ele>228.0</ele><time>2026-05-02T08:13:42Z</time></trkpt><trkpt lat="43.194066735418694" lon="11.38203813351154"><ele>228.0</ele><time>2026-05-02T08:13:43Z</time></trkpt><trkpt lat="43.19399761276291" lon="11.382233960587458"><ele>225.66666666666669</ele><time>2026-05-02T08:13:44Z</time></trkpt><trkpt lat="43.193924903381024" lon="11.382432571647616"><ele>223.33333333333334</ele><time>2026-05-02T08:13:45Z</time></trkpt><trkpt lat="43.19385671866646" lon="11.382628582480992"><ele>221.0</ele><time>2026-05-02T08:13:46Z</time></trkpt><trkpt lat="43.19379444950248" lon="11.382813958688775"><ele>221.0</ele><time>2026-05-02T08:13:47Z</time></trkpt><trkpt lat="43.19373684538986" lon="11.382981908752175"><ele>221.0</ele><time>2026-05-02T08:13:48Z</time></trkpt><trkpt lat="43.1936813255897" lon="11.383138498427398"><ele>221.0</ele><time>2026-05-02T08:13:49Z</time></trkpt><trkpt lat="43.19361805488878" lon="11.383271963745962"><ele>221.0</ele><time>2026-05-02T08:13:50Z</time></trkpt><trkpt lat="43.193539051635646" lon="11.383382587024883"><ele>221.0</ele><time>2026-05-02T08:13:51Z</time></trkpt><trkpt lat="43.19344067220891" lon="11.383468960463052"><ele>221.0</ele><time>2026-05-02T08:13:52Z</time></trkpt><trkpt lat="43.19332668373936" lon="11.383543592017553"><ele>221.0</ele><time>2026-05-02T08:13:53Z</time></trkpt><trkpt lat="43.193195418709735" lon="11.38360030313882"><ele>221.0</ele><time>2026-05-02T08:13:54Z</time></trkpt><trkpt lat="43.19304917105664" lon="11.383665875247347"><ele>221.0</ele><time>2026-05-02T08:13:55Z</time></trkpt><trkpt lat="43.192908647338456" lon="11.383737911509726"><ele>221.0</ele><time>2026-05-02T08:13:56Z</time></trkpt><trkpt lat="43.192767578395184" lon="11.38381200488204"><ele>221.0</ele><time>2026-05-02T08:13:57Z</time></trkpt><trkpt lat="43.19262750153834" lon="11.383886064799427"><ele>221.75</ele><time>2026-05-02T08:13:58Z</time></trkpt><trkpt lat="43.192483951405706" lon="11.383946146570553"><ele>222.5</ele><time>2026-05-02T08:13:59Z</time></trkpt><trkpt lat="43.19233955844235" lon="11.383986215511323"><ele>223.25</ele><time>2026-05-02T08:14:00Z</time></trkpt><trkpt lat="43.192199605762745" lon="11.383998113413858"><ele>224.0</ele><time>2026-05-02T08:14:01Z</time></trkpt><trkpt lat="43.192071672303705" lon="11.383992605188759"><ele>224.2</ele><time>2026-05-02T08:14:02Z</time></trkpt><trkpt lat="43.191967156174044" lon="11.383981389221693"><ele>224.39999999999998</ele><time>2026-05-02T08:14:03Z</time></trkpt><trkpt lat="43.19187129668208" lon="11.38397989305415"><ele>224.6</ele><time>2026-05-02T08:14:04Z</time></trkpt><trkpt lat="43.19177649213021" lon="11.384005462248536"><ele>224.8</ele><time>2026-05-02T08:14:05Z</time></trkpt><trkpt lat="43.19168021364759" lon="11.384071953460527"><ele>225.0</ele><time>2026-05-02T08:14:06Z</time></trkpt><trkpt lat="43.191588288104484" lon="11.384173746686658"><ele>227.75</ele><time>2026-05-02T08:14:07Z</time></trkpt><trkpt lat="43.191498072888464" lon="11.384286602388679"><ele>230.5</ele><time>2026-05-02T08:14:08Z</time></trkpt><trkpt lat="43.19141760579353" lon="11.384410384236537"><ele>233.25</ele><time>2026-05-02T08:14:09Z</time></trkpt><trkpt lat="43.19134373819067" lon="11.384530859161936"><ele>236.0</ele><time>2026-05-02T08:14:10Z</time></trkpt><trkpt lat="43.19126692361376" lon="11.384654752552885"><ele>234.0</ele><time>2026-05-02T08:14:11Z</time></trkpt><trkpt lat="43.19118199054995" lon="11.384773707439743"><ele>232.0</ele><time>2026-05-02T08:14:12Z</time></trkpt><trkpt lat="43.191094232583296" lon="11.384893469843215"><ele>230.0</ele><time>2026-05-02T08:14:13Z</time></trkpt><trkpt lat="43.1910029772796" lon="11.385004582430273"><ele>228.0</ele><time>2026-05-02T08:14:14Z</time></trkpt><trkpt lat="43.190904448073276" lon="11.38510542973882"><ele>228.0</ele><time>2026-05-02T08:14:15Z</time></trkpt><trkpt lat="43.190799597623275" lon="11.385197410685063"><ele>228.0</ele><time>2026-05-02T08:14:16Z</time></trkpt><trkpt lat="43.19069274756911" lon="11.385293174484252"><ele>228.0</ele><time>2026-05-02T08:14:17Z</time></trkpt><trkpt lat="43.190586239295044" lon="11.385377574139621"><ele>228.0</ele><time>2026-05-02T08:14:18Z</time></trkpt><trkpt lat="43.190474271765986" lon="11.385448637741694"><ele>226.5</ele><time>2026-05-02T08:14:19Z</time></trkpt><trkpt lat="43.190354922716935" lon="11.385512500198113"><ele>225.0</ele><time>2026-05-02T08:14:20Z</time></trkpt><trkpt lat="43.19023159068958" lon="11.38556946950187"><ele>223.5</ele><time>2026-05-02T08:14:21Z</time></trkpt><trkpt lat="43.19010575513399" lon="11.385618818598648"><ele>222.0</ele><time>2026-05-02T08:14:22Z</time></trkpt><trkpt lat="43.18997799556101" lon="11.385654971621243"><ele>222.0</ele><time>2026-05-02T08:14:23Z</time></trkpt><trkpt lat="43.18984748187921" lon="11.38568097964557"><ele>222.0</ele><time>2026-05-02T08:14:24Z</time></trkpt><trkpt lat="43.18971205507411" lon="11.385708213480894"><ele>222.0</ele><time>2026-05-02T08:14:25Z</time></trkpt><trkpt lat="43.189576479004835" lon="11.385745984017046"><ele>222.0</ele><time>2026-05-02T08:14:26Z</time></trkpt><trkpt lat="43.18944032053166" lon="11.385783229001554"><ele>221.25</ele><time>2026-05-02T08:14:27Z</time></trkpt><trkpt lat="43.18930754375871" lon="11.385822618274815"><ele>220.5</ele><time>2026-05-02T08:14:28Z</time></trkpt><trkpt lat="43.18917250540125" lon="11.385864090701292"><ele>219.75</ele><time>2026-05-02T08:14:29Z</time></trkpt><trkpt lat="43.18903959059987" lon="11.385910954265283"><ele>219.0</ele><time>2026-05-02T08:14:30Z</time></trkpt><trkpt lat="43.18890885652117" lon="11.385956443617532"><ele>220.75</ele><time>2026-05-02T08:14:31Z</time></trkpt><trkpt lat="43.18878939959417" lon="11.385993419478323"><ele>222.5</ele><time>2026-05-02T08:14:32Z</time></trkpt><trkpt lat="43.18867722939165" lon="11.386016592282886"><ele>224.25</ele><time>2026-05-02T08:14:33Z</time></trkpt><trkpt lat="43.18856548653098" lon="11.386002592608248"><ele>226.0</ele><time>2026-05-02T08:14:34Z</time></trkpt><trkpt lat="43.18845557220921" lon="11.385952988436653"><ele>226.0</ele><time>2026-05-02T08:14:35Z</time></trkpt><trkpt lat="43.18834990383405" lon="11.385880082727363"><ele>226.0</ele><time>2026-05-02T08:14:36Z</time></trkpt><trkpt lat="43.1882496870999" lon="11.385794921568108"><ele>226.0</ele><time>2026-05-02T08:14:37Z</time></trkpt><trkpt lat="43.18815451632661" lon="11.38570464615052"><ele>226.0</ele><time>2026-05-02T08:14:38Z</time></trkpt><trkpt lat="43.18806738893166" lon="11.385626744155106"><ele>228.8</ele><time>2026-05-02T08:14:39Z</time></trkpt><trkpt lat="43.187984004851835" lon="11.385564421792065"><ele>231.60000000000002</ele><time>2026-05-02T08:14:40Z</time></trkpt><trkpt lat="43.18790476349817" lon="11.38552136336064"><ele>234.4</ele><time>2026-05-02T08:14:41Z</time></trkpt><trkpt lat="43.1878255292955" lon="11.385484165913645"><ele>237.2</ele><time>2026-05-02T08:14:42Z</time></trkpt><trkpt lat="43.187724709579456" lon="11.38543890442688"><ele>240.0</ele><time>2026-05-02T08:14:43.999Z</time></trkpt><trkpt lat="43.18762937555366" lon="11.385382432136028"><ele>240.0</ele><time>2026-05-02T08:14:45.999Z</time></trkpt><trkpt lat="43.18753188444626" lon="11.385337845718764"><ele>240.0</ele><time>2026-05-02T08:14:47.999Z</time></trkpt><trkpt lat="43.18743456187198" lon="11.385330957020422"><ele>240.0</ele><time>2026-05-02T08:14:49.999Z</time></trkpt><trkpt lat="43.1873384692348" lon="11.385322070329966"><ele>240.0</ele><time>2026-05-02T08:14:51.999Z</time></trkpt><trkpt lat="43.18723725820829" lon="11.385305395153342"><ele>240.0</ele><time>2026-05-02T08:14:53.999Z</time></trkpt><trkpt lat="43.187127714522425" lon="11.385329659757513"><ele>241.6</ele><time>2026-05-02T08:14:55.999Z</time></trkpt><trkpt lat="43.187001739186655" lon="11.38535151977646"><ele>243.2</ele><time>2026-05-02T08:14:57.999Z</time></trkpt><trkpt lat="43.18692726530991" lon="11.385362809186477"><ele>244.8</ele><time>2026-05-02T08:14:58.999Z</time></trkpt><trkpt lat="43.186849424272715" lon="11.385380495850297"><ele>246.4</ele><time>2026-05-02T08:14:59.999Z</time></trkpt><trkpt lat="43.186765570152" lon="11.385399409667405"><ele>248.0</ele><time>2026-05-02T08:15:00.999Z</time></trkpt><trkpt lat="43.18667605859938" lon="11.38541497990364"><ele>248.0</ele><time>2026-05-02T08:15:01.999Z</time></trkpt><trkpt lat="43.18658038661543" lon="11.385429552271537"><ele>248.0</ele><time>2026-05-02T08:15:02.999Z</time></trkpt><trkpt lat="43.186476601521505" lon="11.385447906654635"><ele>248.0</ele><time>2026-05-02T08:15:03.999Z</time></trkpt><trkpt lat="43.186356386506894" lon="11.385382217905782"><ele>248.0</ele><time>2026-05-02T08:15:04.999Z</time></trkpt><trkpt lat="43.186255517599704" lon="11.385393906276978"><ele>248.0</ele><time>2026-05-02T08:15:05.999Z</time></trkpt><trkpt lat="43.18615034345383" lon="11.385400671845703"><ele>249.60000000000002</ele><time>2026-05-02T08:15:06.999Z</time></trkpt><trkpt lat="43.18605464356434" lon="11.385403516244127"><ele>251.20000000000002</ele><time>2026-05-02T08:15:07.999Z</time></trkpt><trkpt lat="43.18596865314825" lon="11.385404990374242"><ele>252.8</ele><time>2026-05-02T08:15:08.999Z</time></trkpt><trkpt lat="43.18588847298198" lon="11.385405143935674"><ele>254.4</ele><time>2026-05-02T08:15:09.999Z</time></trkpt><trkpt lat="43.18577536489439" lon="11.385405143939606"><ele>256.0</ele><time>2026-05-02T08:15:11.999Z</time></trkpt><trkpt lat="43.185678566208665" lon="11.385404130556253"><ele>257.8333333333333</ele><time>2026-05-02T08:15:14Z</time></trkpt><trkpt lat="43.18560343330188" lon="11.385399319829931"><ele>259.66666666666663</ele><time>2026-05-02T08:15:16Z</time></trkpt><trkpt lat="43.18552848661034" lon="11.385385113251226"><ele>261.5</ele><time>2026-05-02T08:15:18Z</time></trkpt><trkpt lat="43.18544841518611" lon="11.385357767772318"><ele>263.3333333333333</ele><time>2026-05-02T08:15:20Z</time></trkpt><trkpt lat="43.185380327810144" lon="11.385307845030537"><ele>265.1666666666667</ele><time>2026-05-02T08:15:22Z</time></trkpt><trkpt lat="43.18530709434121" lon="11.38523527987665"><ele>267.0</ele><time>2026-05-02T08:15:24Z</time></trkpt><trkpt lat="43.185222616840655" lon="11.38513113033756"><ele>267.00000000000006</ele><time>2026-05-02T08:15:26Z</time></trkpt><trkpt lat="43.1851765068495" lon="11.385071244439189"><ele>267.0</ele><time>2026-05-02T08:15:27Z</time></trkpt><trkpt lat="43.18509555066399" lon="11.384952816739236"><ele>267.0</ele><time>2026-05-02T08:15:29Z</time></trkpt><trkpt lat="43.1850524576375" lon="11.384888310766584"><ele>267.0</ele><time>2026-05-02T08:15:30Z</time></trkpt><trkpt lat="43.18500925607481" lon="11.384822765495722"><ele>267.0</ele><time>2026-05-02T08:15:31Z</time></trkpt><trkpt lat="43.184964395495975" lon="11.384753050314712"><ele>267.00000000000006</ele><time>2026-05-02T08:15:32Z</time></trkpt><trkpt lat="43.18491886172337" lon="11.384682288573947"><ele>267.0</ele><time>2026-05-02T08:15:33Z</time></trkpt><trkpt lat="43.184869280528595" lon="11.384610811063773"><ele>268.3333333333333</ele><time>2026-05-02T08:15:34Z</time></trkpt><trkpt lat="43.18481776517303" lon="11.384543555648897"><ele>269.6666666666667</ele><time>2026-05-02T08:15:35Z</time></trkpt><trkpt lat="43.18476815229741" lon="11.384478630758066"><ele>271.0</ele><time>2026-05-02T08:15:36Z</time></trkpt><trkpt lat="43.18471728833208" lon="11.384415658361387"><ele>272.33333333333337</ele><time>2026-05-02T08:15:37Z</time></trkpt><trkpt lat="43.18466827817795" lon="11.384358250980332"><ele>273.6666666666667</ele><time>2026-05-02T08:15:38Z</time></trkpt><trkpt lat="43.18461338543078" lon="11.384299491694483"><ele>275.0</ele><time>2026-05-02T08:15:39Z</time></trkpt><trkpt lat="43.18451796804497" lon="11.38420506116732"><ele>275.0</ele><time>2026-05-02T08:15:41Z</time></trkpt><trkpt lat="43.18442917697417" lon="11.384121842779239"><ele>275.0</ele><time>2026-05-02T08:15:43Z</time></trkpt><trkpt lat="43.1843392725146" lon="11.384043783552734"><ele>275.0</ele><time>2026-05-02T08:15:45Z</time></trkpt><trkpt lat="43.184242986688815" lon="11.383968442418173"><ele>275.0</ele><time>2026-05-02T08:15:47Z</time></trkpt><trkpt lat="43.18413970496905" lon="11.383901641523726"><ele>275.0</ele><time>2026-05-02T08:15:49Z</time></trkpt><trkpt lat="43.18402936706726" lon="11.383847610646823"><ele>274.83333333333337</ele><time>2026-05-02T08:15:51Z</time></trkpt><trkpt lat="43.18396357493711" lon="11.383822101457385"><ele>274.6666666666667</ele><time>2026-05-02T08:15:52Z</time></trkpt><trkpt lat="43.1838994152129" lon="11.383800582246245"><ele>274.5</ele><time>2026-05-02T08:15:53Z</time></trkpt><trkpt lat="43.18376822238458" lon="11.38375866918755"><ele>274.3333333333333</ele><time>2026-05-02T08:15:55Z</time></trkpt><trkpt lat="43.18368935302223" lon="11.383731341921866"><ele>274.16666666666663</ele><time>2026-05-02T08:15:56Z</time></trkpt><trkpt lat="43.183606755677296" lon="11.38369948841497"><ele>274.0</ele><time>2026-05-02T08:15:57Z</time></trkpt><trkpt lat="43.183523406461426" lon="11.383665355876515"><ele>274.0</ele><time>2026-05-02T08:15:58Z</time></trkpt><trkpt lat="43.183435782472955" lon="11.38362861768182"><ele>274.0</ele><time>2026-05-02T08:15:59Z</time></trkpt><trkpt lat="43.18334794877547" lon="11.38359032537563"><ele>274.0</ele><time>2026-05-02T08:16:00Z</time></trkpt><trkpt lat="43.18325225052755" lon="11.383548424455622"><ele>274.0</ele><time>2026-05-02T08:16:01Z</time></trkpt><trkpt lat="43.183149894063426" lon="11.383502460287685"><ele>274.0</ele><time>2026-05-02T08:16:02Z</time></trkpt><trkpt lat="43.18304069860086" lon="11.383451631384748"><ele>273.25</ele><time>2026-05-02T08:16:03Z</time></trkpt><trkpt lat="43.18292692616593" lon="11.383398671998451"><ele>272.5</ele><time>2026-05-02T08:16:04Z</time></trkpt><trkpt lat="43.18280819582765" lon="11.383348586114085"><ele>271.75</ele><time>2026-05-02T08:16:05Z</time></trkpt><trkpt lat="43.18268965665797" lon="11.383299907406341"><ele>271.0</ele><time>2026-05-02T08:16:06Z</time></trkpt><trkpt lat="43.1825704765079" lon="11.383252181300342"><ele>271.0</ele><time>2026-05-02T08:16:07Z</time></trkpt><trkpt lat="43.18244471684015" lon="11.383203340898307"><ele>271.0</ele><time>2026-05-02T08:16:08Z</time></trkpt><trkpt lat="43.182315199796506" lon="11.38315441949582"><ele>271.0</ele><time>2026-05-02T08:16:09Z</time></trkpt><trkpt lat="43.182184765219525" lon="11.383110333497026"><ele>271.0</ele><time>2026-05-02T08:16:10Z</time></trkpt><trkpt lat="43.18205226154317" lon="11.3830728818752"><ele>270.5</ele><time>2026-05-02T08:16:11Z</time></trkpt><trkpt lat="43.1819181417301" lon="11.383040392003664"><ele>270.0</ele><time>2026-05-02T08:16:12Z</time></trkpt><trkpt lat="43.18179192315381" lon="11.383011434132952"><ele>269.5</ele><time>2026-05-02T08:16:13Z</time></trkpt><trkpt lat="43.18166888401374" lon="11.382985342374432"><ele>269.0</ele><time>2026-05-02T08:16:14Z</time></trkpt><trkpt lat="43.181566445624604" lon="11.382965277647463"><ele>268.57142857142856</ele><time>2026-05-02T08:16:15Z</time></trkpt><trkpt lat="43.1814803385469" lon="11.382944546089407"><ele>268.14285714285717</ele><time>2026-05-02T08:16:16Z</time></trkpt><trkpt lat="43.18140259791724" lon="11.382923737824274"><ele>267.7142857142857</ele><time>2026-05-02T08:16:17Z</time></trkpt><trkpt lat="43.181334658635635" lon="11.382903099730912"><ele>267.2857142857143</ele><time>2026-05-02T08:16:18Z</time></trkpt><trkpt lat="43.18126824930499" lon="11.3828806911623"><ele>266.8571428571429</ele><time>2026-05-02T08:16:19Z</time></trkpt><trkpt lat="43.18120361512969" lon="11.38285538238546"><ele>266.42857142857144</ele><time>2026-05-02T08:16:20Z</time></trkpt><trkpt lat="43.18114103762606" lon="11.382825173364633"><ele>266.0</ele><time>2026-05-02T08:16:21Z</time></trkpt><trkpt lat="43.18108046157125" lon="11.382794037921988"><ele>266.0</ele><time>2026-05-02T08:16:22Z</time></trkpt><trkpt lat="43.1809753292921" lon="11.382740540504248"><ele>266.0</ele><time>2026-05-02T08:16:24Z</time></trkpt><trkpt lat="43.18089232882548" lon="11.382701317866625"><ele>266.0</ele><time>2026-05-02T08:16:26Z</time></trkpt><trkpt lat="43.18080355931552" lon="11.382659369243944"><ele>266.0</ele><time>2026-05-02T08:16:29Z</time></trkpt><trkpt lat="43.18073228253443" lon="11.382743411374964"><ele>266.0</ele><time>2026-05-02T08:16:30Z</time></trkpt><trkpt lat="43.18067573210152" lon="11.382789142489097"><ele>266.0</ele><time>2026-05-02T08:16:31Z</time></trkpt><trkpt lat="43.18061562191483" lon="11.382846876279823"><ele>266.0</ele><time>2026-05-02T08:16:32Z</time></trkpt><trkpt lat="43.18055285265552" lon="11.382926219943915"><ele>266.0</ele><time>2026-05-02T08:16:33Z</time></trkpt><trkpt lat="43.18047097887652" lon="11.38299746325823"><ele>266.0</ele><time>2026-05-02T08:16:34Z</time></trkpt><trkpt lat="43.1803807454177" lon="11.383076174577896"><ele>266.0</ele><time>2026-05-02T08:16:35Z</time></trkpt><trkpt lat="43.18029208021394" lon="11.38317653222377"><ele>266.0</ele><time>2026-05-02T08:16:36Z</time></trkpt><trkpt lat="43.18018597433245" lon="11.383271925785692"><ele>266.0</ele><time>2026-05-02T08:16:37Z</time></trkpt><trkpt lat="43.18007185528141" lon="11.38336229610929"><ele>266.0</ele><time>2026-05-02T08:16:38Z</time></trkpt><trkpt lat="43.17995038913063" lon="11.383445447201758"><ele>266.0</ele><time>2026-05-02T08:16:39Z</time></trkpt><trkpt lat="43.1798213220948" lon="11.383520881761697"><ele>265.25</ele><time>2026-05-02T08:16:39.999Z</time></trkpt><trkpt lat="43.179689315026636" lon="11.383592850070448"><ele>264.5</ele><time>2026-05-02T08:16:40.999Z</time></trkpt><trkpt lat="43.17955551513919" lon="11.383664381733231"><ele>263.75</ele><time>2026-05-02T08:16:41.999Z</time></trkpt><trkpt lat="43.17941974654611" lon="11.38373561402504"><ele>263.0</ele><time>2026-05-02T08:16:42.999Z</time></trkpt><trkpt lat="43.17928253712856" lon="11.383810046267405"><ele>265.0</ele><time>2026-05-02T08:16:43.999Z</time></trkpt><trkpt lat="43.17914273708006" lon="11.38388484204465"><ele>267.0</ele><time>2026-05-02T08:16:44.999Z</time></trkpt><trkpt lat="43.179000487121826" lon="11.38396099813067"><ele>269.0</ele><time>2026-05-02T08:16:45.999Z</time></trkpt><trkpt lat="43.17886034083548" lon="11.384048280370399"><ele>269.0</ele><time>2026-05-02T08:16:46.999Z</time></trkpt><trkpt lat="43.17872762895386" lon="11.384158293087921"><ele>269.0</ele><time>2026-05-02T08:16:47.999Z</time></trkpt><trkpt lat="43.17860696460382" lon="11.384286144454816"><ele>269.0</ele><time>2026-05-02T08:16:48.999Z</time></trkpt><trkpt lat="43.178495313884696" lon="11.38442748841346"><ele>269.0</ele><time>2026-05-02T08:16:49.999Z</time></trkpt><trkpt lat="43.17838058421084" lon="11.3845718269661"><ele>269.0</ele><time>2026-05-02T08:16:50.999Z</time></trkpt><trkpt lat="43.17826543667246" lon="11.384714844584456"><ele>269.0</ele><time>2026-05-02T08:16:51.999Z</time></trkpt><trkpt lat="43.178145734533835" lon="11.384853554983714"><ele>269.0</ele><time>2026-05-02T08:16:52.999Z</time></trkpt><trkpt lat="43.17801850912533" lon="11.384972960575121"><ele>269.0</ele><time>2026-05-02T08:16:53.999Z</time></trkpt><trkpt lat="43.177888007362846" lon="11.385077303796292"><ele>269.0</ele><time>2026-05-02T08:16:54.999Z</time></trkpt><trkpt lat="43.17776126866969" lon="11.385178583545086"><ele>269.0</ele><time>2026-05-02T08:16:55.999Z</time></trkpt><trkpt lat="43.177641584499284" lon="11.385279059794309"><ele>269.0</ele><time>2026-05-02T08:16:56.999Z</time></trkpt><trkpt lat="43.177524824740786" lon="11.38538539652424"><ele>269.0</ele><time>2026-05-02T08:16:57.999Z</time></trkpt><trkpt lat="43.17741023702942" lon="11.385500156571519"><ele>269.0</ele><time>2026-05-02T08:16:58.999Z</time></trkpt><trkpt lat="43.177301118959925" lon="11.385634862578419"><ele>270.6666666666667</ele><time>2026-05-02T08:16:59.999Z</time></trkpt><trkpt lat="43.17720776679693" lon="11.385799644271337"><ele>272.3333333333333</ele><time>2026-05-02T08:17:00.999Z</time></trkpt><trkpt lat="43.17712385541246" lon="11.385985514616594"><ele>274.0</ele><time>2026-05-02T08:17:01.999Z</time></trkpt><trkpt lat="43.17704454422957" lon="11.386179538410572"><ele>273.3333333333333</ele><time>2026-05-02T08:17:02.999Z</time></trkpt><trkpt lat="43.176965597937496" lon="11.38637521483869"><ele>272.6666666666667</ele><time>2026-05-02T08:17:03.999Z</time></trkpt><trkpt lat="43.17688340970527" lon="11.386574716149656"><ele>272.0</ele><time>2026-05-02T08:17:04.999Z</time></trkpt><trkpt lat="43.17679880694096" lon="11.386775872940584"><ele>272.0</ele><time>2026-05-02T08:17:05.999Z</time></trkpt><trkpt lat="43.17671393581182" lon="11.386976243993137"><ele>272.0</ele><time>2026-05-02T08:17:06.999Z</time></trkpt><trkpt lat="43.17662887967651" lon="11.38717475546043"><ele>272.0</ele><time>2026-05-02T08:17:07.999Z</time></trkpt><trkpt lat="43.17654550395251" lon="11.3873755499712"><ele>274.0</ele><time>2026-05-02T08:17:08.999Z</time></trkpt><trkpt lat="43.17646476551914" lon="11.387575162791334"><ele>276.0</ele><time>2026-05-02T08:17:09.999Z</time></trkpt><trkpt lat="43.17637474368997" lon="11.387765847929353"><ele>278.0</ele><time>2026-05-02T08:17:10.999Z</time></trkpt><trkpt lat="43.17626708896409" lon="11.387933806408288"><ele>276.6666666666667</ele><time>2026-05-02T08:17:11.999Z</time></trkpt><trkpt lat="43.176145273847254" lon="11.388081034054176"><ele>275.3333333333333</ele><time>2026-05-02T08:17:12.999Z</time></trkpt><trkpt lat="43.176014891036594" lon="11.38821056516818"><ele>274.0</ele><time>2026-05-02T08:17:13.999Z</time></trkpt><trkpt lat="43.17587484108201" lon="11.388319944734228"><ele>274.0</ele><time>2026-05-02T08:17:14.999Z</time></trkpt><trkpt lat="43.17572476302206" lon="11.388406536411242"><ele>274.0</ele><time>2026-05-02T08:17:15.999Z</time></trkpt><trkpt lat="43.17556466063113" lon="11.388459789159304"><ele>274.0</ele><time>2026-05-02T08:17:16.999Z</time></trkpt><trkpt lat="43.1754068974521" lon="11.38852491172503"><ele>273.66666666666663</ele><time>2026-05-02T08:17:17.999Z</time></trkpt><trkpt lat="43.17525470162033" lon="11.388616475539271"><ele>273.3333333333333</ele><time>2026-05-02T08:17:19Z</time></trkpt><trkpt lat="43.17509912432318" lon="11.38868211602429"><ele>273.0</ele><time>2026-05-02T08:17:20Z</time></trkpt><trkpt lat="43.174943470657446" lon="11.388751241294003"><ele>272.6666666666667</ele><time>2026-05-02T08:17:21Z</time></trkpt><trkpt lat="43.17478878893755" lon="11.388820113451706"><ele>272.33333333333337</ele><time>2026-05-02T08:17:22Z</time></trkpt><trkpt lat="43.17463419809398" lon="11.388887710668351"><ele>272.0</ele><time>2026-05-02T08:17:23Z</time></trkpt><trkpt lat="43.174479439487484" lon="11.388951260791657"><ele>274.33333333333337</ele><time>2026-05-02T08:17:24Z</time></trkpt><trkpt lat="43.174326286293045" lon="11.389013735526216"><ele>276.6666666666667</ele><time>2026-05-02T08:17:25Z</time></trkpt><trkpt lat="43.17417340725092" lon="11.389084167259396"><ele>279.0</ele><time>2026-05-02T08:17:26Z</time></trkpt><trkpt lat="43.174024551398496" lon="11.389168169101138"><ele>283.0</ele><time>2026-05-02T08:17:27Z</time></trkpt><trkpt lat="43.17388586216858" lon="11.389282025116993"><ele>287.0</ele><time>2026-05-02T08:17:28Z</time></trkpt><trkpt lat="43.173760219621805" lon="11.389428512348678"><ele>291.0</ele><time>2026-05-02T08:17:29Z</time></trkpt><trkpt lat="43.173648534724975" lon="11.389597489197454"><ele>289.3333333333333</ele><time>2026-05-02T08:17:30Z</time></trkpt><trkpt lat="43.17354378673462" lon="11.389772872911397"><ele>287.66666666666663</ele><time>2026-05-02T08:17:31Z</time></trkpt><trkpt lat="43.17347470525526" lon="11.389964284569038"><ele>286.0</ele><time>2026-05-02T08:17:32Z</time></trkpt><trkpt lat="43.17334364178011" lon="11.390127297080092"><ele>286.0</ele><time>2026-05-02T08:17:33Z</time></trkpt><trkpt lat="43.17324412312409" lon="11.39028872545105"><ele>286.0</ele><time>2026-05-02T08:17:34Z</time></trkpt><trkpt lat="43.173145356675285" lon="11.390436725972798"><ele>286.0</ele><time>2026-05-02T08:17:35Z</time></trkpt><trkpt lat="43.17304329118117" lon="11.390567904944508"><ele>286.0</ele><time>2026-05-02T08:17:36Z</time></trkpt><trkpt lat="43.17293151523342" lon="11.390683069338293"><ele>289.0</ele><time>2026-05-02T08:17:37Z</time></trkpt><trkpt lat="43.17280120621258" lon="11.390747769762283"><ele>292.0</ele><time>2026-05-02T08:17:38Z</time></trkpt><trkpt lat="43.17266777588906" lon="11.390814616225514"><ele>295.0</ele><time>2026-05-02T08:17:39Z</time></trkpt><trkpt lat="43.172531931429525" lon="11.390881768699657"><ele>298.0</ele><time>2026-05-02T08:17:40Z</time></trkpt><trkpt lat="43.172401736088894" lon="11.39097012971628"><ele>299.75</ele><time>2026-05-02T08:17:41Z</time></trkpt><trkpt lat="43.172261950159644" lon="11.391014950208938"><ele>301.5</ele><time>2026-05-02T08:17:42Z</time></trkpt><trkpt lat="43.172128511264916" lon="11.391079103696056"><ele>303.25</ele><time>2026-05-02T08:17:43Z</time></trkpt><trkpt lat="43.171997720472966" lon="11.391141156063291"><ele>305.0</ele><time>2026-05-02T08:17:44Z</time></trkpt><trkpt lat="43.171871181337565" lon="11.391201190590492"><ele>305.0</ele><time>2026-05-02T08:17:45Z</time></trkpt><trkpt lat="43.17174720756463" lon="11.391251993934535"><ele>305.0</ele><time>2026-05-02T08:17:46Z</time></trkpt><trkpt lat="43.171629544899496" lon="11.391285483543541"><ele>305.0</ele><time>2026-05-02T08:17:47Z</time></trkpt><trkpt lat="43.17152646776496" lon="11.39130371545856"><ele>305.0</ele><time>2026-05-02T08:17:48Z</time></trkpt><trkpt lat="43.17142962478098" lon="11.391310873022169"><ele>304.4</ele><time>2026-05-02T08:17:49Z</time></trkpt><trkpt lat="43.17133866514005" lon="11.391310655670223"><ele>303.8</ele><time>2026-05-02T08:17:50Z</time></trkpt><trkpt lat="43.17124548711599" lon="11.391302116271955"><ele>303.2</ele><time>2026-05-02T08:17:51Z</time></trkpt><trkpt lat="43.17114904332732" lon="11.39127510939684"><ele>302.6</ele><time>2026-05-02T08:17:52Z</time></trkpt><trkpt lat="43.17105866310265" lon="11.391223100617147"><ele>302.0</ele><time>2026-05-02T08:17:53Z</time></trkpt><trkpt lat="43.170962441970694" lon="11.391167623112489"><ele>302.0</ele><time>2026-05-02T08:17:54Z</time></trkpt><trkpt lat="43.17086178511816" lon="11.391111464822758"><ele>302.0</ele><time>2026-05-02T08:17:55Z</time></trkpt><trkpt lat="43.17075971410602" lon="11.391055662126586"><ele>302.0</ele><time>2026-05-02T08:17:56Z</time></trkpt><trkpt lat="43.170657229389526" lon="11.390998576927894"><ele>302.0</ele><time>2026-05-02T08:17:57Z</time></trkpt><trkpt lat="43.170558880734596" lon="11.390943795547253"><ele>302.0</ele><time>2026-05-02T08:17:58Z</time></trkpt><trkpt lat="43.170471917552554" lon="11.390891259073259"><ele>302.0</ele><time>2026-05-02T08:17:59Z</time></trkpt><trkpt lat="43.17039219803906" lon="11.390836865420692"><ele>302.0</ele><time>2026-05-02T08:18:00Z</time></trkpt><trkpt lat="43.17031929573512" lon="11.390780625040067"><ele>302.0</ele><time>2026-05-02T08:18:01Z</time></trkpt><trkpt lat="43.170241528310235" lon="11.39071759860626"><ele>302.0</ele><time>2026-05-02T08:18:02Z</time></trkpt><trkpt lat="43.17015858798059" lon="11.390649504825827"><ele>302.0</ele><time>2026-05-02T08:18:03Z</time></trkpt><trkpt lat="43.170073420221165" lon="11.390578662773311"><ele>301.8</ele><time>2026-05-02T08:18:04Z</time></trkpt><trkpt lat="43.16998553002117" lon="11.390504130774698"><ele>301.6</ele><time>2026-05-02T08:18:05Z</time></trkpt><trkpt lat="43.169895370640624" lon="11.390427764680013"><ele>301.40000000000003</ele><time>2026-05-02T08:18:06Z</time></trkpt><trkpt lat="43.16980194502898" lon="11.390351089923698"><ele>301.2</ele><time>2026-05-02T08:18:07Z</time></trkpt><trkpt lat="43.16970405641736" lon="11.390277173648903"><ele>301.0</ele><time>2026-05-02T08:18:08Z</time></trkpt><trkpt lat="43.16959943584618" lon="11.390206083101305"><ele>298.25</ele><time>2026-05-02T08:18:09Z</time></trkpt><trkpt lat="43.169487924930834" lon="11.390140391007943"><ele>295.5</ele><time>2026-05-02T08:18:10Z</time></trkpt><trkpt lat="43.16937075512702" lon="11.390085538606069"><ele>292.75</ele><time>2026-05-02T08:18:11Z</time></trkpt><trkpt lat="43.16924769452812" lon="11.390039432926654"><ele>290.0</ele><time>2026-05-02T08:18:12Z</time></trkpt><trkpt lat="43.16911423489122" lon="11.390009949291647"><ele>287.25</ele><time>2026-05-02T08:18:13Z</time></trkpt><trkpt lat="43.168986741628295" lon="11.389989305422047"><ele>284.5</ele><time>2026-05-02T08:18:14Z</time></trkpt><trkpt lat="43.16885961899962" lon="11.389975944988327"><ele>281.75</ele><time>2026-05-02T08:18:15Z</time></trkpt><trkpt lat="43.16873721210142" lon="11.389964173463415"><ele>279.0</ele><time>2026-05-02T08:18:16Z</time></trkpt><trkpt lat="43.16861098165671" lon="11.389951877448704"><ele>279.0</ele><time>2026-05-02T08:18:17Z</time></trkpt><trkpt lat="43.16847954776617" lon="11.389939938490178"><ele>279.0</ele><time>2026-05-02T08:18:18Z</time></trkpt><trkpt lat="43.168346600700424" lon="11.389929261113137"><ele>279.0</ele><time>2026-05-02T08:18:19Z</time></trkpt><trkpt lat="43.16821338768983" lon="11.389918562386919"><ele>279.0</ele><time>2026-05-02T08:18:20Z</time></trkpt><trkpt lat="43.168082896884876" lon="11.389908313686918"><ele>277.5</ele><time>2026-05-02T08:18:21Z</time></trkpt><trkpt lat="43.16795511483219" lon="11.389898516370831"><ele>276.0</ele><time>2026-05-02T08:18:22Z</time></trkpt><trkpt lat="43.167827203263464" lon="11.389888709115406"><ele>274.5</ele><time>2026-05-02T08:18:23Z</time></trkpt><trkpt lat="43.16769633145623" lon="11.389878284791884"><ele>273.0</ele><time>2026-05-02T08:18:24Z</time></trkpt><trkpt lat="43.16755924559979" lon="11.389867121573346"><ele>273.0</ele><time>2026-05-02T08:18:25Z</time></trkpt><trkpt lat="43.167413340913086" lon="11.389855592327601"><ele>273.0</ele><time>2026-05-02T08:18:26Z</time></trkpt><trkpt lat="43.16726356452508" lon="11.38984618059247"><ele>273.0</ele><time>2026-05-02T08:18:27Z</time></trkpt><trkpt lat="43.16710847313731" lon="11.389842144631801"><ele>273.25</ele><time>2026-05-02T08:18:28Z</time></trkpt><trkpt lat="43.16695872671633" lon="11.38985648180339"><ele>273.5</ele><time>2026-05-02T08:18:29Z</time></trkpt><trkpt lat="43.16681106028443" lon="11.389901302549783"><ele>273.75</ele><time>2026-05-02T08:18:30Z</time></trkpt><trkpt lat="43.16667370008559" lon="11.38997502436865"><ele>274.0</ele><time>2026-05-02T08:18:31Z</time></trkpt><trkpt lat="43.16656453433252" lon="11.390100932672956"><ele>274.75</ele><time>2026-05-02T08:18:32Z</time></trkpt><trkpt lat="43.16646512756028" lon="11.390212019625324"><ele>275.5</ele><time>2026-05-02T08:18:33Z</time></trkpt><trkpt lat="43.166380146001785" lon="11.390330833186432"><ele>276.25</ele><time>2026-05-02T08:18:34Z</time></trkpt><trkpt lat="43.16630484258631" lon="11.390448484163265"><ele>277.0</ele><time>2026-05-02T08:18:35Z</time></trkpt><trkpt lat="43.16622808109565" lon="11.39055700876338"><ele>275.8</ele><time>2026-05-02T08:18:36Z</time></trkpt><trkpt lat="43.16614501683116" lon="11.390626411926672"><ele>274.6</ele><time>2026-05-02T08:18:37Z</time></trkpt><trkpt lat="43.16605116143138" lon="11.390684302718753"><ele>273.40000000000003</ele><time>2026-05-02T08:18:37.999Z</time></trkpt><trkpt lat="43.1659574401113" lon="11.390752921774062"><ele>272.2</ele><time>2026-05-02T08:18:38.999Z</time></trkpt><trkpt lat="43.16584779451781" lon="11.390780586479565"><ele>271.0</ele><time>2026-05-02T08:18:39.999Z</time></trkpt><trkpt lat="43.165734899452275" lon="11.390821494908442"><ele>271.75</ele><time>2026-05-02T08:18:40.999Z</time></trkpt><trkpt lat="43.16561569815821" lon="11.39086197327883"><ele>272.5</ele><time>2026-05-02T08:18:41.999Z</time></trkpt><trkpt lat="43.16549145629253" lon="11.390897903662346"><ele>273.25</ele><time>2026-05-02T08:18:42.999Z</time></trkpt><trkpt lat="43.16536076095948" lon="11.39093166228409"><ele>274.0</ele><time>2026-05-02T08:18:43.999Z</time></trkpt><trkpt lat="43.16522791926445" lon="11.39096777689406"><ele>274.0</ele><time>2026-05-02T08:18:44.999Z</time></trkpt><trkpt lat="43.16509541435" lon="11.391003444408485"><ele>274.0</ele><time>2026-05-02T08:18:45.999Z</time></trkpt><trkpt lat="43.1649603576582" lon="11.391038184944007"><ele>274.0</ele><time>2026-05-02T08:18:46.999Z</time></trkpt><trkpt lat="43.16482621876622" lon="11.391072689406544"><ele>274.0</ele><time>2026-05-02T08:18:47.999Z</time></trkpt><trkpt lat="43.164688417613995" lon="11.391108660174837"><ele>274.25</ele><time>2026-05-02T08:18:48.999Z</time></trkpt><trkpt lat="43.164551798361224" lon="11.391142594513502"><ele>274.5</ele><time>2026-05-02T08:18:49.999Z</time></trkpt><trkpt lat="43.164414342930286" lon="11.391177018031984"><ele>274.75</ele><time>2026-05-02T08:18:50.999Z</time></trkpt><trkpt lat="43.164278336127374" lon="11.391211078768857"><ele>275.0</ele><time>2026-05-02T08:18:51.999Z</time></trkpt><trkpt lat="43.164141507858" lon="11.391245123175086"><ele>275.5</ele><time>2026-05-02T08:18:52.999Z</time></trkpt><trkpt lat="43.16400487630149" lon="11.391279070210771"><ele>276.0</ele><time>2026-05-02T08:18:53.999Z</time></trkpt><trkpt lat="43.16387225861012" lon="11.391312658820988"><ele>276.5</ele><time>2026-05-02T08:18:54.999Z</time></trkpt><trkpt lat="43.1637407281446" lon="11.391346025334757"><ele>277.0</ele><time>2026-05-02T08:18:55.999Z</time></trkpt><trkpt lat="43.16360891260787" lon="11.391379464189457"><ele>277.0</ele><time>2026-05-02T08:18:56.999Z</time></trkpt><trkpt lat="43.16347880868763" lon="11.3914124688427"><ele>277.0</ele><time>2026-05-02T08:18:57.999Z</time></trkpt><trkpt lat="43.16335072272238" lon="11.391444961543895"><ele>277.0</ele><time>2026-05-02T08:18:58.999Z</time></trkpt><trkpt lat="43.16322607949653" lon="11.39147658093132"><ele>277.0</ele><time>2026-05-02T08:18:59.999Z</time></trkpt><trkpt lat="43.163103439913094" lon="11.391507692028704"><ele>278.25</ele><time>2026-05-02T08:19:00.999Z</time></trkpt><trkpt lat="43.16298314542579" lon="11.391557538010279"><ele>279.5</ele><time>2026-05-02T08:19:01.999Z</time></trkpt><trkpt lat="43.162860124115376" lon="11.391582754382629"><ele>280.75</ele><time>2026-05-02T08:19:02.999Z</time></trkpt><trkpt lat="43.162737413205974" lon="11.391607305039411"><ele>282.0</ele><time>2026-05-02T08:19:03.999Z</time></trkpt><trkpt lat="43.162610257994466" lon="11.3916067542224"><ele>282.0</ele><time>2026-05-02T08:19:04.999Z</time></trkpt><trkpt lat="43.16248269278045" lon="11.391622827376558"><ele>282.0</ele><time>2026-05-02T08:19:05.999Z</time></trkpt><trkpt lat="43.16235473567788" lon="11.391638396457727"><ele>282.0</ele><time>2026-05-02T08:19:06.999Z</time></trkpt><trkpt lat="43.162229741314626" lon="11.391653605054476"><ele>282.0</ele><time>2026-05-02T08:19:07.999Z</time></trkpt><trkpt lat="43.16210849111071" lon="11.391695538992813"><ele>283.0</ele><time>2026-05-02T08:19:08.999Z</time></trkpt><trkpt lat="43.161989503612524" lon="11.3917253354575"><ele>284.0</ele><time>2026-05-02T08:19:09.999Z</time></trkpt><trkpt lat="43.161879534546124" lon="11.391776156482146"><ele>285.0</ele><time>2026-05-02T08:19:10.999Z</time></trkpt><trkpt lat="43.16178508165439" lon="11.391857950162409"><ele>286.0</ele><time>2026-05-02T08:19:11.999Z</time></trkpt><trkpt lat="43.161706765870846" lon="11.391969633830861"><ele>286.0</ele><time>2026-05-02T08:19:12.999Z</time></trkpt><trkpt lat="43.16164520105039" lon="11.392104949615947"><ele>286.0</ele><time>2026-05-02T08:19:13.999Z</time></trkpt><trkpt lat="43.161599560665955" lon="11.392258547824609"><ele>286.0</ele><time>2026-05-02T08:19:14.999Z</time></trkpt><trkpt lat="43.161557104386965" lon="11.392419417479726"><ele>286.0</ele><time>2026-05-02T08:19:15.999Z</time></trkpt><trkpt lat="43.1615134017811" lon="11.39257450388777"><ele>284.25</ele><time>2026-05-02T08:19:16.999Z</time></trkpt><trkpt lat="43.161463401294554" lon="11.392724716524688"><ele>282.5</ele><time>2026-05-02T08:19:17.999Z</time></trkpt><trkpt lat="43.16139908710961" lon="11.392863497390882"><ele>280.75</ele><time>2026-05-02T08:19:18.999Z</time></trkpt><trkpt lat="43.161317146043324" lon="11.392972481360838"><ele>279.0</ele><time>2026-05-02T08:19:19.999Z</time></trkpt><trkpt lat="43.16122508525669" lon="11.393054599159596"><ele>279.0</ele><time>2026-05-02T08:19:20.999Z</time></trkpt><trkpt lat="43.161110556594885" lon="11.39310417024677"><ele>279.0</ele><time>2026-05-02T08:19:21.999Z</time></trkpt><trkpt lat="43.16098393436945" lon="11.39316188290271"><ele>279.0</ele><time>2026-05-02T08:19:22.999Z</time></trkpt><trkpt lat="43.16084715819735" lon="11.393221243916248"><ele>279.0</ele><time>2026-05-02T08:19:24Z</time></trkpt><trkpt lat="43.160700516476524" lon="11.393282827651403"><ele>278.3333333333333</ele><time>2026-05-02T08:19:25Z</time></trkpt><trkpt lat="43.16053825855925" lon="11.393350252679543"><ele>277.66666666666663</ele><time>2026-05-02T08:19:26Z</time></trkpt><trkpt lat="43.16036378932375" lon="11.393423169766525"><ele>277.0</ele><time>2026-05-02T08:19:27Z</time></trkpt><trkpt lat="43.16020125591133" lon="11.393492626424777"><ele>277.0</ele><time>2026-05-02T08:19:28Z</time></trkpt><trkpt lat="43.16005644105025" lon="11.393580206498022"><ele>277.0</ele><time>2026-05-02T08:19:29Z</time></trkpt><trkpt lat="43.159920173392806" lon="11.393645142559938"><ele>277.0</ele><time>2026-05-02T08:19:30Z</time></trkpt><trkpt lat="43.15979462711782" lon="11.393712803134449"><ele>277.0</ele><time>2026-05-02T08:19:31Z</time></trkpt><trkpt lat="43.159678902835694" lon="11.393784020043004"><ele>276.75</ele><time>2026-05-02T08:19:32Z</time></trkpt><trkpt lat="43.1595758342486" lon="11.393858412952982"><ele>276.5</ele><time>2026-05-02T08:19:33Z</time></trkpt><trkpt lat="43.15947798764217" lon="11.393937034101967"><ele>276.25</ele><time>2026-05-02T08:19:34Z</time></trkpt><trkpt lat="43.15938005856426" lon="11.39402754691077"><ele>276.0</ele><time>2026-05-02T08:19:35Z</time></trkpt><trkpt lat="43.15928357374316" lon="11.39413037351819"><ele>276.0</ele><time>2026-05-02T08:19:36Z</time></trkpt><trkpt lat="43.159192116115705" lon="11.394235552950162"><ele>276.0</ele><time>2026-05-02T08:19:37Z</time></trkpt><trkpt lat="43.15910664361437" lon="11.39434446666603"><ele>276.0</ele><time>2026-05-02T08:19:38Z</time></trkpt><trkpt lat="43.15902620798518" lon="11.394455320282411"><ele>276.0</ele><time>2026-05-02T08:19:39Z</time></trkpt><trkpt lat="43.15895053127293" lon="11.394574328045108"><ele>276.75</ele><time>2026-05-02T08:19:40Z</time></trkpt><trkpt lat="43.15888037345718" lon="11.394704233489065"><ele>277.5</ele><time>2026-05-02T08:19:41Z</time></trkpt><trkpt lat="43.158816167366666" lon="11.39484490378354"><ele>278.25</ele><time>2026-05-02T08:19:42Z</time></trkpt><trkpt lat="43.1587566202388" lon="11.394994023431517"><ele>279.0</ele><time>2026-05-02T08:19:43Z</time></trkpt><trkpt lat="43.1587094111445" lon="11.395154946077037"><ele>279.0</ele><time>2026-05-02T08:19:44Z</time></trkpt><trkpt lat="43.15867810946645" lon="11.395320707723771"><ele>279.0</ele><time>2026-05-02T08:19:45Z</time></trkpt><trkpt lat="43.15866561725271" lon="11.395505684232782"><ele>279.0</ele><time>2026-05-02T08:19:46Z</time></trkpt><trkpt lat="43.158670760926896" lon="11.39571923090934"><ele>279.0</ele><time>2026-05-02T08:19:47Z</time></trkpt><trkpt lat="43.1586707315672" lon="11.395954991444567"><ele>279.0</ele><time>2026-05-02T08:19:48Z</time></trkpt><trkpt lat="43.158665075142956" lon="11.396192442968289"><ele>279.0</ele><time>2026-05-02T08:19:49Z</time></trkpt><trkpt lat="43.15865466726814" lon="11.39643150676768"><ele>279.0</ele><time>2026-05-02T08:19:50Z</time></trkpt><trkpt lat="43.15864494375504" lon="11.396670389021521"><ele>279.3333333333333</ele><time>2026-05-02T08:19:51Z</time></trkpt><trkpt lat="43.15863626137653" lon="11.3969042660853"><ele>279.66666666666663</ele><time>2026-05-02T08:19:52Z</time></trkpt><trkpt lat="43.15862764870682" lon="11.397132524013097"><ele>280.0</ele><time>2026-05-02T08:19:53Z</time></trkpt><trkpt lat="43.15862352905533" lon="11.397354144585714"><ele>280.0</ele><time>2026-05-02T08:19:54Z</time></trkpt><trkpt lat="43.158626616316965" lon="11.397573457814666"><ele>280.0</ele><time>2026-05-02T08:19:55Z</time></trkpt><trkpt lat="43.15863829379631" lon="11.39779108244811"><ele>280.0</ele><time>2026-05-02T08:19:56Z</time></trkpt><trkpt lat="43.15866522574688" lon="11.39800531654366"><ele>280.66666666666663</ele><time>2026-05-02T08:19:57Z</time></trkpt><trkpt lat="43.15870402353053" lon="11.398212286023513"><ele>281.3333333333333</ele><time>2026-05-02T08:19:58Z</time></trkpt><trkpt lat="43.15875123339532" lon="11.398409450977574"><ele>282.0</ele><time>2026-05-02T08:19:59Z</time></trkpt><trkpt lat="43.15880164833737" lon="11.39860270295999"><ele>282.0</ele><time>2026-05-02T08:20:00Z</time></trkpt><trkpt lat="43.15884537935132" lon="11.398791157625734"><ele>282.0</ele><time>2026-05-02T08:20:01Z</time></trkpt><trkpt lat="43.15887338282439" lon="11.398983183933883"><ele>282.0</ele><time>2026-05-02T08:20:02Z</time></trkpt><trkpt lat="43.1588841875861" lon="11.399173618578558"><ele>282.0</ele><time>2026-05-02T08:20:03Z</time></trkpt><trkpt lat="43.15886821405974" lon="11.399360270280512"><ele>282.5</ele><time>2026-05-02T08:20:04Z</time></trkpt><trkpt lat="43.15881652883361" lon="11.399523608463324"><ele>283.0</ele><time>2026-05-02T08:20:05Z</time></trkpt><trkpt lat="43.158719541819785" lon="11.399637146609019"><ele>283.5</ele><time>2026-05-02T08:20:06Z</time></trkpt><trkpt lat="43.158595156111915" lon="11.399650445998217"><ele>284.0</ele><time>2026-05-02T08:20:07Z</time></trkpt><trkpt lat="43.15846328893587" lon="11.399620835567815"><ele>284.0</ele><time>2026-05-02T08:20:08Z</time></trkpt><trkpt lat="43.15831546011087" lon="11.399606565957"><ele>284.0</ele><time>2026-05-02T08:20:09Z</time></trkpt><trkpt lat="43.15816213097435" lon="11.399626634784703"><ele>284.0</ele><time>2026-05-02T08:20:10Z</time></trkpt><trkpt lat="43.15800911682706" lon="11.399666701425542"><ele>286.0</ele><time>2026-05-02T08:20:11Z</time></trkpt><trkpt lat="43.15786660358216" lon="11.399756367623326"><ele>288.0</ele><time>2026-05-02T08:20:12Z</time></trkpt><trkpt lat="43.15773269028597" lon="11.399876575157219"><ele>290.0</ele><time>2026-05-02T08:20:13Z</time></trkpt><trkpt lat="43.15760667376649" lon="11.400000322726806"><ele>290.0</ele><time>2026-05-02T08:20:14Z</time></trkpt><trkpt lat="43.15747716854546" lon="11.400110691689783"><ele>290.0</ele><time>2026-05-02T08:20:15Z</time></trkpt><trkpt lat="43.15733188555483" lon="11.400157194392294"><ele>290.0</ele><time>2026-05-02T08:20:16Z</time></trkpt><trkpt lat="43.15718738248578" lon="11.400182089246968"><ele>290.0</ele><time>2026-05-02T08:20:17Z</time></trkpt><trkpt lat="43.15704625953205" lon="11.400147673626353"><ele>291.0</ele><time>2026-05-02T08:20:18Z</time></trkpt><trkpt lat="43.1569024854639" lon="11.400101542828804"><ele>292.0</ele><time>2026-05-02T08:20:19Z</time></trkpt><trkpt lat="43.15676491027865" lon="11.400041860737883"><ele>293.0</ele><time>2026-05-02T08:20:20Z</time></trkpt><trkpt lat="43.156636259915615" lon="11.399998940385512"><ele>294.0</ele><time>2026-05-02T08:20:21Z</time></trkpt><trkpt lat="43.15651386260851" lon="11.399976233268848"><ele>297.25</ele><time>2026-05-02T08:20:22Z</time></trkpt><trkpt lat="43.15640384875887" lon="11.399992420238497"><ele>300.5</ele><time>2026-05-02T08:20:23Z</time></trkpt><trkpt lat="43.1563203156015" lon="11.400100132463956"><ele>303.75</ele><time>2026-05-02T08:20:24Z</time></trkpt><trkpt lat="43.156258151754834" lon="11.40022775254597"><ele>307.0</ele><time>2026-05-02T08:20:25Z</time></trkpt><trkpt lat="43.156240036225086" lon="11.400379780582638"><ele>307.25</ele><time>2026-05-02T08:20:26Z</time></trkpt><trkpt lat="43.15626067450442" lon="11.400548858332249"><ele>307.5</ele><time>2026-05-02T08:20:27Z</time></trkpt><trkpt lat="43.15633015848131" lon="11.400717992986388"><ele>307.75</ele><time>2026-05-02T08:20:28Z</time></trkpt><trkpt lat="43.15642340923845" lon="11.4008952947671"><ele>308.0</ele><time>2026-05-02T08:20:29Z</time></trkpt><trkpt lat="43.15651399694821" lon="11.401067910199375"><ele>302.75</ele><time>2026-05-02T08:20:30Z</time></trkpt><trkpt lat="43.15659072613143" lon="11.401237309906456"><ele>297.5</ele><time>2026-05-02T08:20:31Z</time></trkpt><trkpt lat="43.15664586692014" lon="11.401416580817854"><ele>292.25</ele><time>2026-05-02T08:20:32Z</time></trkpt><trkpt lat="43.15667172405688" lon="11.401609408450733"><ele>287.0</ele><time>2026-05-02T08:20:33Z</time></trkpt><trkpt lat="43.15666658077847" lon="11.401807899791095"><ele>286.33333333333337</ele><time>2026-05-02T08:20:34Z</time></trkpt><trkpt lat="43.15663544650718" lon="11.402011543082057"><ele>285.6666666666667</ele><time>2026-05-02T08:20:35Z</time></trkpt><trkpt lat="43.1565963208547" lon="11.40222127950703"><ele>285.0</ele><time>2026-05-02T08:20:35.999Z</time></trkpt><trkpt lat="43.15655728022825" lon="11.402436906087019"><ele>289.3333333333333</ele><time>2026-05-02T08:20:36.999Z</time></trkpt><trkpt lat="43.15652087189719" lon="11.402660548305116"><ele>293.66666666666663</ele><time>2026-05-02T08:20:37.999Z</time></trkpt><trkpt lat="43.15648342726077" lon="11.402890943951476"><ele>298.0</ele><time>2026-05-02T08:20:38.999Z</time></trkpt><trkpt lat="43.15644870727419" lon="11.403126719058113"><ele>298.0</ele><time>2026-05-02T08:20:39.999Z</time></trkpt><trkpt lat="43.15642357263281" lon="11.403363463659785"><ele>298.0</ele><time>2026-05-02T08:20:40.999Z</time></trkpt><trkpt lat="43.156406982796355" lon="11.403598876134883"><ele>298.0</ele><time>2026-05-02T08:20:41.999Z</time></trkpt><trkpt lat="43.15639289992994" lon="11.403826030856623"><ele>296.5</ele><time>2026-05-02T08:20:42.999Z</time></trkpt><trkpt lat="43.156375037103004" lon="11.404035041845605"><ele>295.0</ele><time>2026-05-02T08:20:43.999Z</time></trkpt><trkpt lat="43.15633382347682" lon="11.404227232183041"><ele>293.5</ele><time>2026-05-02T08:20:44.999Z</time></trkpt><trkpt lat="43.15626252108043" lon="11.404396847680426"><ele>292.0</ele><time>2026-05-02T08:20:45.999Z</time></trkpt><trkpt lat="43.15616022293426" lon="11.404549794853914"><ele>286.3333333333333</ele><time>2026-05-02T08:20:46.999Z</time></trkpt><trkpt lat="43.15603705152332" lon="11.404674962834424"><ele>280.6666666666667</ele><time>2026-05-02T08:20:47.999Z</time></trkpt><trkpt lat="43.155901924561064" lon="11.404783205907512"><ele>275.0</ele><time>2026-05-02T08:20:48.999Z</time></trkpt><trkpt lat="43.155758096578836" lon="11.404866976818486"><ele>278.33333333333337</ele><time>2026-05-02T08:20:49.999Z</time></trkpt><trkpt lat="43.15559610112118" lon="11.404879914471362"><ele>281.6666666666667</ele><time>2026-05-02T08:20:50.999Z</time></trkpt><trkpt lat="43.15542511434008" lon="11.404892473910857"><ele>285.0</ele><time>2026-05-02T08:20:51.999Z</time></trkpt><trkpt lat="43.15525074393614" lon="11.404949859528838"><ele>285.0</ele><time>2026-05-02T08:20:52.999Z</time></trkpt><trkpt lat="43.15507155603252" lon="11.405015959759051"><ele>285.0</ele><time>2026-05-02T08:20:53.999Z</time></trkpt><trkpt lat="43.154885910623925" lon="11.405103337652083"><ele>285.0</ele><time>2026-05-02T08:20:54.999Z</time></trkpt><trkpt lat="43.154700325386266" lon="11.405189244387554"><ele>283.0</ele><time>2026-05-02T08:20:55.999Z</time></trkpt><trkpt lat="43.154519237431856" lon="11.405279152970186"><ele>281.0</ele><time>2026-05-02T08:20:56.999Z</time></trkpt><trkpt lat="43.15435379090907" lon="11.405385631220991"><ele>279.0</ele><time>2026-05-02T08:20:57.999Z</time></trkpt><trkpt lat="43.15420351773289" lon="11.405508589426722"><ele>279.0</ele><time>2026-05-02T08:20:58.999Z</time></trkpt><trkpt lat="43.1540541445346" lon="11.405620643813888"><ele>279.0</ele><time>2026-05-02T08:20:59.999Z</time></trkpt><trkpt lat="43.153883730696066" lon="11.405656109308449"><ele>279.0</ele><time>2026-05-02T08:21:00.999Z</time></trkpt><trkpt lat="43.153712249919366" lon="11.405671420823587"><ele>281.3333333333333</ele><time>2026-05-02T08:21:01.999Z</time></trkpt><trkpt lat="43.15353644545378" lon="11.405683093823956"><ele>283.66666666666663</ele><time>2026-05-02T08:21:02.999Z</time></trkpt><trkpt lat="43.15336318714698" lon="11.405724984509005"><ele>286.0</ele><time>2026-05-02T08:21:03.999Z</time></trkpt><trkpt lat="43.153202892926664" lon="11.405841210935103"><ele>289.3333333333333</ele><time>2026-05-02T08:21:04.999Z</time></trkpt><trkpt lat="43.153047380970605" lon="11.405986078885878"><ele>292.6666666666667</ele><time>2026-05-02T08:21:05.999Z</time></trkpt><trkpt lat="43.152904001430336" lon="11.406150614005252"><ele>296.0</ele><time>2026-05-02T08:21:06.999Z</time></trkpt><trkpt lat="43.15274441130409" lon="11.406282130700934"><ele>291.6666666666667</ele><time>2026-05-02T08:21:07.999Z</time></trkpt><trkpt lat="43.152588288229694" lon="11.40642366554928"><ele>287.3333333333333</ele><time>2026-05-02T08:21:08.999Z</time></trkpt><trkpt lat="43.15240543513102" lon="11.40649734756751"><ele>283.0</ele><time>2026-05-02T08:21:09.999Z</time></trkpt><trkpt lat="43.152222144944396" lon="11.406560844386636"><ele>283.0</ele><time>2026-05-02T08:21:10.999Z</time></trkpt><trkpt lat="43.15203562270363" lon="11.406597819629647"><ele>283.0</ele><time>2026-05-02T08:21:11.999Z</time></trkpt><trkpt lat="43.15184145874332" lon="11.406610543858536"><ele>283.0</ele><time>2026-05-02T08:21:12.999Z</time></trkpt><trkpt lat="43.15164364674676" lon="11.406624277245754"><ele>284.0</ele><time>2026-05-02T08:21:13.999Z</time></trkpt><trkpt lat="43.1514421565765" lon="11.40665079692915"><ele>285.0</ele><time>2026-05-02T08:21:14.999Z</time></trkpt><trkpt lat="43.15124462862683" lon="11.40670763108292"><ele>286.0</ele><time>2026-05-02T08:21:15.999Z</time></trkpt><trkpt lat="43.15105305699434" lon="11.40676951869595"><ele>286.0</ele><time>2026-05-02T08:21:16.999Z</time></trkpt><trkpt lat="43.1508657125554" lon="11.406798634973365"><ele>286.0</ele><time>2026-05-02T08:21:17.999Z</time></trkpt><trkpt lat="43.15067629804722" lon="11.406793385388113"><ele>286.0</ele><time>2026-05-02T08:21:18.999Z</time></trkpt><trkpt lat="43.1504855921514" lon="11.406759262015889"><ele>284.3333333333333</ele><time>2026-05-02T08:21:19.999Z</time></trkpt><trkpt lat="43.15030665788497" lon="11.40670073109793"><ele>282.6666666666667</ele><time>2026-05-02T08:21:20.999Z</time></trkpt><trkpt lat="43.15017520783082" lon="11.406622079523437"><ele>281.0</ele><time>2026-05-02T08:21:21.999Z</time></trkpt><trkpt lat="43.15007124147322" lon="11.406502680963737"><ele>281.0</ele><time>2026-05-02T08:21:22.999Z</time></trkpt><trkpt lat="43.149980711493484" lon="11.406370584158502"><ele>281.0</ele><time>2026-05-02T08:21:23.999Z</time></trkpt><trkpt lat="43.149876399269964" lon="11.406249986667586"><ele>281.0</ele><time>2026-05-02T08:21:24.999Z</time></trkpt><trkpt lat="43.14973932841677" lon="11.406181292885922"><ele>281.0</ele><time>2026-05-02T08:21:25.999Z</time></trkpt><trkpt lat="43.14958824513426" lon="11.40619593564719"><ele>282.33333333333337</ele><time>2026-05-02T08:21:26.999Z</time></trkpt><trkpt lat="43.14945149786439" lon="11.406287853582018"><ele>283.6666666666667</ele><time>2026-05-02T08:21:27.999Z</time></trkpt><trkpt lat="43.14933434535105" lon="11.406420291067793"><ele>285.0</ele><time>2026-05-02T08:21:28.999Z</time></trkpt><trkpt lat="43.14923109033963" lon="11.40658328904273"><ele>285.0</ele><time>2026-05-02T08:21:30Z</time></trkpt><trkpt lat="43.1491141786259" lon="11.406692558110013"><ele>285.0</ele><time>2026-05-02T08:21:31Z</time></trkpt><trkpt lat="43.14898095212102" lon="11.406725650267244"><ele>285.0</ele><time>2026-05-02T08:21:32Z</time></trkpt><trkpt lat="43.14882285978708" lon="11.406744601292186"><ele>285.0</ele><time>2026-05-02T08:21:33Z</time></trkpt><trkpt lat="43.14866087641823" lon="11.406769371582822"><ele>286.3333333333333</ele><time>2026-05-02T08:21:34Z</time></trkpt><trkpt lat="43.14851202707449" lon="11.406877002486144"><ele>287.66666666666663</ele><time>2026-05-02T08:21:35Z</time></trkpt><trkpt lat="43.14838236100273" lon="11.407006688984703"><ele>289.0</ele><time>2026-05-02T08:21:36Z</time></trkpt><trkpt lat="43.14827848178586" lon="11.407189862389497"><ele>290.0</ele><time>2026-05-02T08:21:37Z</time></trkpt><trkpt lat="43.14818871209286" lon="11.40739749501644"><ele>291.0</ele><time>2026-05-02T08:21:38Z</time></trkpt><trkpt lat="43.14810538614688" lon="11.407606779826258"><ele>292.0</ele><time>2026-05-02T08:21:39Z</time></trkpt><trkpt lat="43.14800767924814" lon="11.407807653973391"><ele>290.0</ele><time>2026-05-02T08:21:40Z</time></trkpt><trkpt lat="43.14792504826215" lon="11.408018123483613"><ele>288.0</ele><time>2026-05-02T08:21:41Z</time></trkpt><trkpt lat="43.14787522219879" lon="11.408248435809154"><ele>286.0</ele><time>2026-05-02T08:21:42Z</time></trkpt><trkpt lat="43.14784660686052" lon="11.408488072336429"><ele>286.0</ele><time>2026-05-02T08:21:43Z</time></trkpt><trkpt lat="43.14782711740328" lon="11.408733632024498"><ele>286.0</ele><time>2026-05-02T08:21:44Z</time></trkpt><trkpt lat="43.14780281107719" lon="11.408976453255168"><ele>286.0</ele><time>2026-05-02T08:21:45Z</time></trkpt><trkpt lat="43.14776879695477" lon="11.409216010079604"><ele>284.0</ele><time>2026-05-02T08:21:46Z</time></trkpt><trkpt lat="43.14772946021538" lon="11.409448762575249"><ele>282.0</ele><time>2026-05-02T08:21:47Z</time></trkpt><trkpt lat="43.14769232221591" lon="11.40967755839163"><ele>280.0</ele><time>2026-05-02T08:21:48Z</time></trkpt><trkpt lat="43.14765588229862" lon="11.4098995823679"><ele>277.66666666666663</ele><time>2026-05-02T08:21:49Z</time></trkpt><trkpt lat="43.14760705035039" lon="11.41010844488443"><ele>275.3333333333333</ele><time>2026-05-02T08:21:50Z</time></trkpt><trkpt lat="43.14752950288912" lon="11.41030002121883"><ele>273.0</ele><time>2026-05-02T08:21:51Z</time></trkpt><trkpt lat="43.1474190467186" lon="11.410476265570395"><ele>270.6666666666667</ele><time>2026-05-02T08:21:52Z</time></trkpt><trkpt lat="43.147271312518185" lon="11.410589828817196"><ele>268.33333333333337</ele><time>2026-05-02T08:21:53Z</time></trkpt><trkpt lat="43.14711378514315" lon="11.410691795330724"><ele>266.0</ele><time>2026-05-02T08:21:54Z</time></trkpt><trkpt lat="43.146956007222975" lon="11.410804438164025"><ele>266.0</ele><time>2026-05-02T08:21:55Z</time></trkpt><trkpt lat="43.146804292417144" lon="11.410905494906691"><ele>266.0</ele><time>2026-05-02T08:21:56Z</time></trkpt><trkpt lat="43.146676810673966" lon="11.411039688280173"><ele>266.0</ele><time>2026-05-02T08:21:57Z</time></trkpt><trkpt lat="43.146573737349925" lon="11.411188227769482"><ele>264.75</ele><time>2026-05-02T08:21:58Z</time></trkpt><trkpt lat="43.14648477259086" lon="11.411338710397605"><ele>263.5</ele><time>2026-05-02T08:21:59Z</time></trkpt><trkpt lat="43.1464046891891" lon="11.411482179212754"><ele>262.25</ele><time>2026-05-02T08:22:00Z</time></trkpt><trkpt lat="43.14632508103359" lon="11.411615552942788"><ele>261.0</ele><time>2026-05-02T08:22:01Z</time></trkpt><trkpt lat="43.14624536504969" lon="11.411748788760622"><ele>261.0</ele><time>2026-05-02T08:22:02Z</time></trkpt><trkpt lat="43.14616999268696" lon="11.411878025752006"><ele>261.0</ele><time>2026-05-02T08:22:03Z</time></trkpt><trkpt lat="43.146098322189566" lon="11.412009714054303"><ele>261.0</ele><time>2026-05-02T08:22:04Z</time></trkpt><trkpt lat="43.146027828726595" lon="11.412150794595718"><ele>261.0</ele><time>2026-05-02T08:22:05Z</time></trkpt><trkpt lat="43.14596085282626" lon="11.412305721717928"><ele>259.0</ele><time>2026-05-02T08:22:06Z</time></trkpt><trkpt lat="43.14590737943831" lon="11.412475340123128"><ele>257.0</ele><time>2026-05-02T08:22:07Z</time></trkpt><trkpt lat="43.14586710520675" lon="11.412656083887025"><ele>255.0</ele><time>2026-05-02T08:22:08Z</time></trkpt><trkpt lat="43.145834974353875" lon="11.41284392622692"><ele>253.0</ele><time>2026-05-02T08:22:09Z</time></trkpt><trkpt lat="43.14579672284674" lon="11.41303251947754"><ele>252.75</ele><time>2026-05-02T08:22:10Z</time></trkpt><trkpt lat="43.14574289085396" lon="11.413215056450474"><ele>252.5</ele><time>2026-05-02T08:22:11Z</time></trkpt><trkpt lat="43.14566963249515" lon="11.413391365970604"><ele>252.25</ele><time>2026-05-02T08:22:12Z</time></trkpt><trkpt lat="43.14557885117995" lon="11.413553593718817"><ele>252.0</ele><time>2026-05-02T08:22:13Z</time></trkpt><trkpt lat="43.1454748687283" lon="11.413698327452087"><ele>249.5</ele><time>2026-05-02T08:22:14Z</time></trkpt><trkpt lat="43.145373795442794" lon="11.413828485376026"><ele>247.0</ele><time>2026-05-02T08:22:15Z</time></trkpt><trkpt lat="43.145282720586614" lon="11.413961405346699"><ele>244.5</ele><time>2026-05-02T08:22:16Z</time></trkpt><trkpt lat="43.145214283554225" lon="11.414110601348813"><ele>242.0</ele><time>2026-05-02T08:22:17Z</time></trkpt><trkpt lat="43.14517249084805" lon="11.41427560938161"><ele>242.0</ele><time>2026-05-02T08:22:18Z</time></trkpt><trkpt lat="43.145158951906005" lon="11.414454783640492"><ele>242.0</ele><time>2026-05-02T08:22:19Z</time></trkpt><trkpt lat="43.14518192911213" lon="11.414639196719476"><ele>242.0</ele><time>2026-05-02T08:22:20Z</time></trkpt><trkpt lat="43.145243006026206" lon="11.414810346925309"><ele>242.0</ele><time>2026-05-02T08:22:21Z</time></trkpt><trkpt lat="43.14533739924649" lon="11.414963504656594"><ele>240.5</ele><time>2026-05-02T08:22:22Z</time></trkpt><trkpt lat="43.145444763916366" lon="11.415100145307708"><ele>239.0</ele><time>2026-05-02T08:22:23Z</time></trkpt><trkpt lat="43.14554598798679" lon="11.415242399535433"><ele>237.5</ele><time>2026-05-02T08:22:24Z</time></trkpt><trkpt lat="43.14562989469241" lon="11.415404320418185"><ele>236.0</ele><time>2026-05-02T08:22:25Z</time></trkpt><trkpt lat="43.145693096093105" lon="11.41558358265044"><ele>237.0</ele><time>2026-05-02T08:22:26Z</time></trkpt><trkpt lat="43.145735286735906" lon="11.415782148380778"><ele>238.0</ele><time>2026-05-02T08:22:27Z</time></trkpt><trkpt lat="43.14575026740548" lon="11.415994197346134"><ele>239.0</ele><time>2026-05-02T08:22:28Z</time></trkpt><trkpt lat="43.14573758432079" lon="11.41621118594666"><ele>233.33333333333334</ele><time>2026-05-02T08:22:29Z</time></trkpt><trkpt lat="43.14570990815774" lon="11.416428826959745"><ele>227.66666666666669</ele><time>2026-05-02T08:22:30Z</time></trkpt><trkpt lat="43.145684235900234" lon="11.41664897367602"><ele>222.0</ele><time>2026-05-02T08:22:31Z</time></trkpt><trkpt lat="43.145662838250274" lon="11.41686700450784"><ele>222.0</ele><time>2026-05-02T08:22:32Z</time></trkpt><trkpt lat="43.14563543407666" lon="11.41707923296581"><ele>222.0</ele><time>2026-05-02T08:22:33Z</time></trkpt><trkpt lat="43.14559184494328" lon="11.417279098817339"><ele>222.0</ele><time>2026-05-02T08:22:34Z</time></trkpt><trkpt lat="43.14553477347463" lon="11.417472681746652"><ele>220.75</ele><time>2026-05-02T08:22:35Z</time></trkpt><trkpt lat="43.145473350232" lon="11.417662939844707"><ele>219.5</ele><time>2026-05-02T08:22:35.999Z</time></trkpt><trkpt lat="43.14541299819805" lon="11.417845936273114"><ele>218.25</ele><time>2026-05-02T08:22:36.999Z</time></trkpt><trkpt lat="43.14536345856165" lon="11.418029738774404"><ele>217.0</ele><time>2026-05-02T08:22:37.999Z</time></trkpt><trkpt lat="43.14532668576734" lon="11.418221835189252"><ele>216.25</ele><time>2026-05-02T08:22:38.999Z</time></trkpt><trkpt lat="43.14530872305722" lon="11.418419624176275"><ele>215.5</ele><time>2026-05-02T08:22:39.999Z</time></trkpt><trkpt lat="43.14530484305829" lon="11.418618355420163"><ele>214.75</ele><time>2026-05-02T08:22:40.999Z</time></trkpt><trkpt lat="43.14530466686096" lon="11.418817983941576"><ele>214.0</ele><time>2026-05-02T08:22:41.999Z</time></trkpt><trkpt lat="43.14530027096466" lon="11.419015670821972"><ele>213.75</ele><time>2026-05-02T08:22:42.999Z</time></trkpt><trkpt lat="43.14528614802273" lon="11.419215163514508"><ele>213.5</ele><time>2026-05-02T08:22:43.999Z</time></trkpt><trkpt lat="43.145256398400264" lon="11.419409947204832"><ele>213.25</ele><time>2026-05-02T08:22:44.999Z</time></trkpt><trkpt lat="43.145211268430906" lon="11.41959796743276"><ele>213.0</ele><time>2026-05-02T08:22:45.999Z</time></trkpt><trkpt lat="43.14516103932492" lon="11.419783042833254"><ele>212.25</ele><time>2026-05-02T08:22:46.999Z</time></trkpt><trkpt lat="43.14511685315585" lon="11.419971222007252"><ele>211.5</ele><time>2026-05-02T08:22:47.999Z</time></trkpt><trkpt lat="43.145095471496305" lon="11.420165356320723"><ele>210.75</ele><time>2026-05-02T08:22:48.999Z</time></trkpt><trkpt lat="43.14509236552277" lon="11.420363887859741"><ele>210.0</ele><time>2026-05-02T08:22:49.999Z</time></trkpt><trkpt lat="43.14510012880144" lon="11.420553352574474"><ele>209.25</ele><time>2026-05-02T08:22:50.999Z</time></trkpt><trkpt lat="43.145106569586474" lon="11.420735050944156"><ele>208.5</ele><time>2026-05-02T08:22:51.999Z</time></trkpt><trkpt lat="43.145106735023646" lon="11.420900278860863"><ele>207.75</ele><time>2026-05-02T08:22:52.999Z</time></trkpt><trkpt lat="43.14510386996539" lon="11.421045447679036"><ele>207.0</ele><time>2026-05-02T08:22:53.999Z</time></trkpt><trkpt lat="43.14510629361251" lon="11.421170606151813"><ele>207.0</ele><time>2026-05-02T08:22:54.999Z</time></trkpt><trkpt lat="43.14515120444498" lon="11.421267546718886"><ele>207.0</ele><time>2026-05-02T08:22:55.999Z</time></trkpt><trkpt lat="43.145188291285756" lon="11.421365176687338"><ele>207.0</ele><time>2026-05-02T08:22:56.999Z</time></trkpt><trkpt lat="43.1452141454137" lon="11.421448772932765"><ele>207.0</ele><time>2026-05-02T08:22:57.999Z</time></trkpt><trkpt lat="43.14523834070697" lon="11.421530443649804"><ele>207.0</ele><time>2026-05-02T08:22:58.999Z</time></trkpt><trkpt lat="43.14527590644174" lon="11.421657245999056"><ele>207.0</ele><time>2026-05-02T08:23:00.999Z</time></trkpt><trkpt lat="43.145313361958614" lon="11.421775461656862"><ele>206.83333333333334</ele><time>2026-05-02T08:23:02.999Z</time></trkpt><trkpt lat="43.145353467486075" lon="11.421899209091048"><ele>206.66666666666669</ele><time>2026-05-02T08:23:04.999Z</time></trkpt><trkpt lat="43.145383649034905" lon="11.422022615335743"><ele>206.5</ele><time>2026-05-02T08:23:06.999Z</time></trkpt><trkpt lat="43.145436751542576" lon="11.422108443876757"><ele>206.33333333333334</ele><time>2026-05-02T08:23:08.999Z</time></trkpt><trkpt lat="43.14546887863833" lon="11.422195074039815"><ele>206.16666666666669</ele><time>2026-05-02T08:23:11.999Z</time></trkpt><trkpt lat="43.14549977422829" lon="11.42229128668728"><ele>206.0</ele><time>2026-05-02T08:25:24.999Z</time></trkpt><trkpt lat="43.14554323108311" lon="11.42242150070366"><ele>206.16666666666669</ele><time>2026-05-02T08:25:26.999Z</time></trkpt><trkpt lat="43.14559835882538" lon="11.422570156049305"><ele>206.33333333333334</ele><time>2026-05-02T08:25:28.999Z</time></trkpt><trkpt lat="43.14562720864546" lon="11.422650485892177"><ele>206.5</ele><time>2026-05-02T08:25:29.999Z</time></trkpt><trkpt lat="43.14565473832756" lon="11.422734454292142"><ele>206.66666666666669</ele><time>2026-05-02T08:25:30.999Z</time></trkpt><trkpt lat="43.14568274333761" lon="11.422819036684109"><ele>206.83333333333334</ele><time>2026-05-02T08:25:31.999Z</time></trkpt><trkpt lat="43.145715583289125" lon="11.42290145626823"><ele>207.0</ele><time>2026-05-02T08:25:32.999Z</time></trkpt><trkpt lat="43.14574713741572" lon="11.422985441581268"><ele>207.00000000000003</ele><time>2026-05-02T08:25:33.999Z</time></trkpt><trkpt lat="43.14577710787177" lon="11.423071868839612"><ele>207.0</ele><time>2026-05-02T08:25:34.999Z</time></trkpt><trkpt lat="43.14580224158479" lon="11.423161666311167"><ele>207.0</ele><time>2026-05-02T08:25:35.999Z</time></trkpt><trkpt lat="43.1458258472296" lon="11.423249165394353"><ele>207.0</ele><time>2026-05-02T08:25:36.999Z</time></trkpt><trkpt lat="43.14585573105577" lon="11.423335641192354"><ele>207.0</ele><time>2026-05-02T08:25:37.999Z</time></trkpt><trkpt lat="43.14588376941599" lon="11.423422208067272"><ele>207.00000000000003</ele><time>2026-05-02T08:25:38.999Z</time></trkpt><trkpt lat="43.14589941564121" lon="11.423519061698293"><ele>207.0</ele><time>2026-05-02T08:25:39.999Z</time></trkpt><trkpt lat="43.14591618329571" lon="11.423612240836794"><ele>207.0</ele><time>2026-05-02T08:25:41Z</time></trkpt><trkpt lat="43.1459288192553" lon="11.423707070114043"><ele>207.0</ele><time>2026-05-02T08:25:42Z</time></trkpt><trkpt lat="43.1459357360955" lon="11.423805932983022"><ele>207.0</ele><time>2026-05-02T08:25:43Z</time></trkpt><trkpt lat="43.14593807351411" lon="11.423908109334354"><ele>207.0</ele><time>2026-05-02T08:25:44Z</time></trkpt><trkpt lat="43.14592373607658" lon="11.42401232414605"><ele>207.0</ele><time>2026-05-02T08:25:45Z</time></trkpt><trkpt lat="43.14589831576094" lon="11.424121989814898"><ele>207.0</ele><time>2026-05-02T08:25:46Z</time></trkpt><trkpt lat="43.14586382015595" lon="11.424227184669556"><ele>206.83333333333334</ele><time>2026-05-02T08:25:47Z</time></trkpt><trkpt lat="43.14582470535246" lon="11.424329154717132"><ele>206.66666666666669</ele><time>2026-05-02T08:25:48Z</time></trkpt><trkpt lat="43.14578125124718" lon="11.424424897795934"><ele>206.5</ele><time>2026-05-02T08:25:49Z</time></trkpt><trkpt lat="43.145735859206575" lon="11.424513735294813"><ele>206.33333333333334</ele><time>2026-05-02T08:25:50Z</time></trkpt><trkpt lat="43.14569275839251" lon="11.424586975804738"><ele>206.16666666666669</ele><time>2026-05-02T08:25:51Z</time></trkpt><trkpt lat="43.145626219398395" lon="11.424693669071575"><ele>206.0</ele><time>2026-05-02T08:25:53Z</time></trkpt><trkpt lat="43.14557381509012" lon="11.424796059688015"><ele>205.99999999999997</ele><time>2026-05-02T08:26:10Z</time></trkpt><trkpt lat="43.14553795829245" lon="11.424878366162964"><ele>206.0</ele><time>2026-05-02T08:26:11Z</time></trkpt><trkpt lat="43.14551209681762" lon="11.424979160188041"><ele>206.0</ele><time>2026-05-02T08:26:12Z</time></trkpt><trkpt lat="43.14550684634277" lon="11.425074103019325"><ele>206.0</ele><time>2026-05-02T08:26:13Z</time></trkpt><trkpt lat="43.145531027961844" lon="11.425154028596076"><ele>206.0</ele><time>2026-05-02T08:26:14Z</time></trkpt><trkpt lat="43.145574451665496" lon="11.425236209198658"><ele>205.99999999999997</ele><time>2026-05-02T08:26:15Z</time></trkpt><trkpt lat="43.145637527266" lon="11.425305721414356"><ele>206.0</ele><time>2026-05-02T08:26:16Z</time></trkpt><trkpt lat="43.14571288738183" lon="11.42535733811779"><ele>206.0</ele><time>2026-05-02T08:26:17Z</time></trkpt><trkpt lat="43.14579822902049" lon="11.425393138788996"><ele>206.0</ele><time>2026-05-02T08:26:18Z</time></trkpt><trkpt lat="43.145887065456286" lon="11.425436139868149"><ele>206.0</ele><time>2026-05-02T08:26:19Z</time></trkpt><trkpt lat="43.14597348232915" lon="11.425492640447352"><ele>206.0</ele><time>2026-05-02T08:26:20Z</time></trkpt><trkpt lat="43.14605447038753" lon="11.42555482564281"><ele>206.0</ele><time>2026-05-02T08:26:21Z</time></trkpt><trkpt lat="43.146129695089485" lon="11.425625439486904"><ele>207.4</ele><time>2026-05-02T08:26:22Z</time></trkpt><trkpt lat="43.14619822166347" lon="11.425713751180776"><ele>208.8</ele><time>2026-05-02T08:26:23Z</time></trkpt><trkpt lat="43.14626932692049" lon="11.425810256453557"><ele>210.20000000000002</ele><time>2026-05-02T08:26:23.999Z</time></trkpt><trkpt lat="43.14634302607998" lon="11.425901381843392"><ele>211.60000000000002</ele><time>2026-05-02T08:26:24.999Z</time></trkpt><trkpt lat="43.14641898568968" lon="11.425986204224307"><ele>213.0</ele><time>2026-05-02T08:26:25.999Z</time></trkpt><trkpt lat="43.14649959727782" lon="11.426062245300995"><ele>212.8</ele><time>2026-05-02T08:26:26.999Z</time></trkpt><trkpt lat="43.146576010689216" lon="11.426137891284244"><ele>212.60000000000002</ele><time>2026-05-02T08:26:27.999Z</time></trkpt><trkpt lat="43.146652971321394" lon="11.426210019495052"><ele>212.39999999999998</ele><time>2026-05-02T08:26:28.999Z</time></trkpt><trkpt lat="43.14674000589517" lon="11.426278662818959"><ele>212.2</ele><time>2026-05-02T08:26:29.999Z</time></trkpt><trkpt lat="43.146830195591335" lon="11.42634547268089"><ele>212.0</ele><time>2026-05-02T08:26:30.999Z</time></trkpt><trkpt lat="43.14692262447325" lon="11.426406827935155"><ele>212.0</ele><time>2026-05-02T08:26:31.999Z</time></trkpt><trkpt lat="43.14701403622976" lon="11.426469510910588"><ele>212.0</ele><time>2026-05-02T08:26:32.999Z</time></trkpt><trkpt lat="43.147100949963146" lon="11.426548339469678"><ele>212.0</ele><time>2026-05-02T08:26:33.999Z</time></trkpt><trkpt lat="43.14718182163419" lon="11.426638553264366"><ele>212.0</ele><time>2026-05-02T08:26:34.999Z</time></trkpt><trkpt lat="43.147260557312116" lon="11.426735905779017"><ele>212.0</ele><time>2026-05-02T08:26:35.999Z</time></trkpt><trkpt lat="43.147335449255586" lon="11.426840291590434"><ele>211.2</ele><time>2026-05-02T08:26:36.999Z</time></trkpt><trkpt lat="43.147408223720674" lon="11.426938931896087"><ele>210.39999999999998</ele><time>2026-05-02T08:26:37.999Z</time></trkpt><trkpt lat="43.14749026737163" lon="11.427028478872044"><ele>209.60000000000002</ele><time>2026-05-02T08:26:38.999Z</time></trkpt><trkpt lat="43.14758107970827" lon="11.427105893077876"><ele>208.8</ele><time>2026-05-02T08:26:39.999Z</time></trkpt><trkpt lat="43.14767953827182" lon="11.427164571224068"><ele>208.0</ele><time>2026-05-02T08:26:40.999Z</time></trkpt><trkpt lat="43.14778201515612" lon="11.427205068064762"><ele>208.0</ele><time>2026-05-02T08:26:41.999Z</time></trkpt><trkpt lat="43.14788579327816" lon="11.427226210349685"><ele>208.0</ele><time>2026-05-02T08:26:42.999Z</time></trkpt><trkpt lat="43.14798966214966" lon="11.427243594473273"><ele>208.0</ele><time>2026-05-02T08:26:43.999Z</time></trkpt><trkpt lat="43.14808465774134" lon="11.427274056145334"><ele>208.0</ele><time>2026-05-02T08:26:44.999Z</time></trkpt><trkpt lat="43.14817996080859" lon="11.427317827266009"><ele>208.0</ele><time>2026-05-02T08:26:45.999Z</time></trkpt><trkpt lat="43.1482761734449" lon="11.427366285077726"><ele>207.4</ele><time>2026-05-02T08:26:46.999Z</time></trkpt><trkpt lat="43.14837471591683" lon="11.427417571453578"><ele>206.8</ele><time>2026-05-02T08:26:47.999Z</time></trkpt><trkpt lat="43.14847390246906" lon="11.427467950714371"><ele>206.2</ele><time>2026-05-02T08:26:48.999Z</time></trkpt><trkpt lat="43.148572299283856" lon="11.427521494356004"><ele>205.6</ele><time>2026-05-02T08:26:49.999Z</time></trkpt><trkpt lat="43.14866906454601" lon="11.427571704564714"><ele>205.0</ele><time>2026-05-02T08:26:50.999Z</time></trkpt><trkpt lat="43.14876493202529" lon="11.427624419201086"><ele>205.0</ele><time>2026-05-02T08:26:51.999Z</time></trkpt><trkpt lat="43.14885948189325" lon="11.42767497699331"><ele>205.0</ele><time>2026-05-02T08:26:52.999Z</time></trkpt><trkpt lat="43.14895202702696" lon="11.427725653394212"><ele>205.0</ele><time>2026-05-02T08:26:53.999Z</time></trkpt><trkpt lat="43.14904600617422" lon="11.427778191147217"><ele>205.0</ele><time>2026-05-02T08:26:54.999Z</time></trkpt><trkpt lat="43.14913715451553" lon="11.427836210787385"><ele>205.0</ele><time>2026-05-02T08:26:55.999Z</time></trkpt><trkpt lat="43.14922733072893" lon="11.427902280183412"><ele>202.8</ele><time>2026-05-02T08:26:56.999Z</time></trkpt><trkpt lat="43.14931390757206" lon="11.427980486876752"><ele>200.6</ele><time>2026-05-02T08:26:57.999Z</time></trkpt><trkpt lat="43.14939792991819" lon="11.428070715670115"><ele>198.39999999999998</ele><time>2026-05-02T08:26:58.999Z</time></trkpt><trkpt lat="43.14947913322644" lon="11.428165379500413"><ele>196.2</ele><time>2026-05-02T08:26:59.999Z</time></trkpt><trkpt lat="43.14956232679848" lon="11.428258775606125"><ele>194.0</ele><time>2026-05-02T08:27:00.999Z</time></trkpt><trkpt lat="43.14964788017178" lon="11.428347632819275"><ele>194.0</ele><time>2026-05-02T08:27:01.999Z</time></trkpt><trkpt lat="43.14973615241137" lon="11.428431873614873"><ele>194.0</ele><time>2026-05-02T08:27:02.999Z</time></trkpt><trkpt lat="43.14982532434104" lon="11.428515918893549"><ele>194.0</ele><time>2026-05-02T08:27:03.999Z</time></trkpt><trkpt lat="43.14990777853566" lon="11.428605795738916"><ele>194.0</ele><time>2026-05-02T08:27:04.999Z</time></trkpt><trkpt lat="43.149984284816036" lon="11.428698970483541"><ele>194.0</ele><time>2026-05-02T08:27:05.999Z</time></trkpt><trkpt lat="43.150054423555694" lon="11.428805279226552"><ele>193.0</ele><time>2026-05-02T08:27:06.999Z</time></trkpt><trkpt lat="43.150116105869444" lon="11.428919647661987"><ele>192.0</ele><time>2026-05-02T08:27:07.999Z</time></trkpt><trkpt lat="43.1501767078384" lon="11.429042538264971"><ele>191.0</ele><time>2026-05-02T08:27:08.999Z</time></trkpt><trkpt lat="43.15024015139354" lon="11.429160074546854"><ele>190.0</ele><time>2026-05-02T08:27:09.999Z</time></trkpt><trkpt lat="43.15031156307331" lon="11.429269028423343"><ele>189.0</ele><time>2026-05-02T08:27:10.999Z</time></trkpt><trkpt lat="43.15038729336462" lon="11.429372336196904"><ele>189.0</ele><time>2026-05-02T08:27:11.999Z</time></trkpt><trkpt lat="43.150462392299474" lon="11.429474625426364"><ele>189.0</ele><time>2026-05-02T08:27:12.999Z</time></trkpt><trkpt lat="43.15053792686189" lon="11.429575792219454"><ele>189.0</ele><time>2026-05-02T08:27:13.999Z</time></trkpt><trkpt lat="43.1506127155072" lon="11.429670109653815"><ele>189.0</ele><time>2026-05-02T08:27:14.999Z</time></trkpt><trkpt lat="43.15069334913653" lon="11.429751657512737"><ele>189.0</ele><time>2026-05-02T08:27:15.999Z</time></trkpt><trkpt lat="43.15077930822198" lon="11.429824787720122"><ele>189.2</ele><time>2026-05-02T08:27:16.999Z</time></trkpt><trkpt lat="43.15086244284881" lon="11.429896143539997"><ele>189.39999999999998</ele><time>2026-05-02T08:27:17.999Z</time></trkpt><trkpt lat="43.150942865613864" lon="11.429973705719549"><ele>189.6</ele><time>2026-05-02T08:27:18.999Z</time></trkpt><trkpt lat="43.151012842694975" lon="11.430071704968457"><ele>189.8</ele><time>2026-05-02T08:27:19.999Z</time></trkpt><trkpt lat="43.15107030452838" lon="11.430185562672458"><ele>190.0</ele><time>2026-05-02T08:27:20.999Z</time></trkpt><trkpt lat="43.15110749605489" lon="11.430316239493886"><ele>190.0</ele><time>2026-05-02T08:27:21.999Z</time></trkpt><trkpt lat="43.15112258189513" lon="11.43044875600987"><ele>190.0</ele><time>2026-05-02T08:27:22.999Z</time></trkpt><trkpt lat="43.151121447001294" lon="11.430583519254956"><ele>190.0</ele><time>2026-05-02T08:27:23.999Z</time></trkpt><trkpt lat="43.15110438825721" lon="11.43073925184273"><ele>190.0</ele><time>2026-05-02T08:27:24.999Z</time></trkpt><trkpt lat="43.15108706090192" lon="11.430899797171683"><ele>190.0</ele><time>2026-05-02T08:27:25.999Z</time></trkpt><trkpt lat="43.15107257239574" lon="11.431061871199436"><ele>188.6</ele><time>2026-05-02T08:27:26.999Z</time></trkpt><trkpt lat="43.15106102737021" lon="11.431214410587938"><ele>187.2</ele><time>2026-05-02T08:27:27.999Z</time></trkpt><trkpt lat="43.15105477350573" lon="11.43136758269784"><ele>185.8</ele><time>2026-05-02T08:27:28.999Z</time></trkpt><trkpt lat="43.15105400157666" lon="11.431520215217937"><ele>184.4</ele><time>2026-05-02T08:27:29.999Z</time></trkpt><trkpt lat="43.151065948669604" lon="11.43166654730184"><ele>183.0</ele><time>2026-05-02T08:27:30.999Z</time></trkpt><trkpt lat="43.15108550767639" lon="11.431811099358065"><ele>181.8</ele><time>2026-05-02T08:27:31.999Z</time></trkpt><trkpt lat="43.15110921140859" lon="11.431960369667346"><ele>180.60000000000002</ele><time>2026-05-02T08:27:32.999Z</time></trkpt><trkpt lat="43.15111701519684" lon="11.432108153850171"><ele>179.39999999999998</ele><time>2026-05-02T08:27:33.999Z</time></trkpt><trkpt lat="43.15110303398776" lon="11.43225628286782"><ele>178.2</ele><time>2026-05-02T08:27:34.999Z</time></trkpt><trkpt lat="43.15107964830816" lon="11.432393590802363"><ele>177.0</ele><time>2026-05-02T08:27:35.999Z</time></trkpt><trkpt lat="43.15107150180687" lon="11.43252190270131"><ele>176.39999999999998</ele><time>2026-05-02T08:27:36.999Z</time></trkpt><trkpt lat="43.15108392747954" lon="11.432655987935657"><ele>175.79999999999998</ele><time>2026-05-02T08:27:37.999Z</time></trkpt><trkpt lat="43.15112106877404" lon="11.432789459837824"><ele>175.2</ele><time>2026-05-02T08:27:38.999Z</time></trkpt><trkpt lat="43.15117154587088" lon="11.432900184020722"><ele>174.6</ele><time>2026-05-02T08:27:39.999Z</time></trkpt><trkpt lat="43.151240224363924" lon="11.433001401599777"><ele>174.0</ele><time>2026-05-02T08:27:40.999Z</time></trkpt><trkpt lat="43.15131615131169" lon="11.433109196872667"><ele>173.2</ele><time>2026-05-02T08:27:41.999Z</time></trkpt><trkpt lat="43.1514005590129" lon="11.433211059592486"><ele>172.39999999999998</ele><time>2026-05-02T08:27:42.999Z</time></trkpt><trkpt lat="43.15149215666881" lon="11.43330869125762"><ele>171.6</ele><time>2026-05-02T08:27:43.999Z</time></trkpt><trkpt lat="43.15158324452801" lon="11.43339455934985"><ele>170.8</ele><time>2026-05-02T08:27:44.999Z</time></trkpt><trkpt lat="43.15167215386823" lon="11.433465110704388"><ele>170.0</ele><time>2026-05-02T08:27:46Z</time></trkpt><trkpt lat="43.15176113689251" lon="11.433515856356832"><ele>171.33333333333331</ele><time>2026-05-02T08:27:47Z</time></trkpt><trkpt lat="43.151844875661695" lon="11.433537722658329"><ele>172.66666666666666</ele><time>2026-05-02T08:27:48Z</time></trkpt><trkpt lat="43.151925209695854" lon="11.43353424444531"><ele>174.0</ele><time>2026-05-02T08:27:49Z</time></trkpt><trkpt lat="43.15200080525922" lon="11.433513747350494"><ele>175.33333333333334</ele><time>2026-05-02T08:27:50Z</time></trkpt><trkpt lat="43.15207468740306" lon="11.433469394960653"><ele>176.66666666666669</ele><time>2026-05-02T08:27:51Z</time></trkpt><trkpt lat="43.15216000894085" lon="11.433423074062112"><ele>178.0</ele><time>2026-05-02T08:27:52Z</time></trkpt><trkpt lat="43.15223904476334" lon="11.433344202677938"><ele>178.0</ele><time>2026-05-02T08:27:53Z</time></trkpt><trkpt lat="43.15231489388889" lon="11.433252751800504"><ele>178.0</ele><time>2026-05-02T08:27:54Z</time></trkpt><trkpt lat="43.15238740810378" lon="11.433163080904956"><ele>178.0</ele><time>2026-05-02T08:27:55Z</time></trkpt><trkpt lat="43.15245013098368" lon="11.433079996548242"><ele>178.0</ele><time>2026-05-02T08:27:56Z</time></trkpt><trkpt lat="43.15250645271233" lon="11.433016717117553"><ele>178.0</ele><time>2026-05-02T08:27:57Z</time></trkpt><trkpt lat="43.15261935658006" lon="11.43295972463967"><ele>176.99999999999997</ele><time>2026-05-02T08:27:59Z</time></trkpt><trkpt lat="43.1526850235813" lon="11.433003808692549"><ele>176.0</ele><time>2026-05-02T08:28:00Z</time></trkpt><trkpt lat="43.152737944539346" lon="11.433072438904558"><ele>175.0</ele><time>2026-05-02T08:28:01Z</time></trkpt><trkpt lat="43.152760523095836" lon="11.433170719718907"><ele>174.0</ele><time>2026-05-02T08:28:02Z</time></trkpt><trkpt lat="43.15274903772917" lon="11.433266449723005"><ele>173.0</ele><time>2026-05-02T08:28:03Z</time></trkpt><trkpt lat="43.15271797852223" lon="11.43335599094045"><ele>171.99999999999997</ele><time>2026-05-02T08:28:04Z</time></trkpt><trkpt lat="43.15266147125289" lon="11.433434829053503"><ele>171.0</ele><time>2026-05-02T08:28:05Z</time></trkpt><trkpt lat="43.1525905238504" lon="11.43351353664417"><ele>171.0</ele><time>2026-05-02T08:28:06Z</time></trkpt><trkpt lat="43.152503490734475" lon="11.433606124388835"><ele>171.0</ele><time>2026-05-02T08:28:07Z</time></trkpt><trkpt lat="43.15241521706297" lon="11.433710748048172"><ele>171.0</ele><time>2026-05-02T08:28:08Z</time></trkpt><trkpt lat="43.15232657330698" lon="11.43381582478069"><ele>171.0</ele><time>2026-05-02T08:28:09Z</time></trkpt><trkpt lat="43.15224181160949" lon="11.433919096412312"><ele>170.4</ele><time>2026-05-02T08:28:10Z</time></trkpt><trkpt lat="43.1521587585708" lon="11.43401866265684"><ele>169.8</ele><time>2026-05-02T08:28:11Z</time></trkpt><trkpt lat="43.152076618750144" lon="11.434118595683444"><ele>169.20000000000002</ele><time>2026-05-02T08:28:12Z</time></trkpt><trkpt lat="43.15199329181166" lon="11.434216143699883"><ele>168.60000000000002</ele><time>2026-05-02T08:28:13Z</time></trkpt><trkpt lat="43.151909292583206" lon="11.434313253329902"><ele>168.0</ele><time>2026-05-02T08:28:14Z</time></trkpt><trkpt lat="43.15182602097323" lon="11.43440906352071"><ele>168.0</ele><time>2026-05-02T08:28:15Z</time></trkpt><trkpt lat="43.151746414468285" lon="11.434503635372304"><ele>168.0</ele><time>2026-05-02T08:28:16Z</time></trkpt><trkpt lat="43.151675920141884" lon="11.434597410986333"><ele>168.0</ele><time>2026-05-02T08:28:17Z</time></trkpt><trkpt lat="43.1516150632737" lon="11.434692054034391"><ele>168.0</ele><time>2026-05-02T08:28:18Z</time></trkpt><trkpt lat="43.15156937213952" lon="11.434795741052119"><ele>168.0</ele><time>2026-05-02T08:28:19Z</time></trkpt><trkpt lat="43.15153697306108" lon="11.434913591210146"><ele>166.4</ele><time>2026-05-02T08:28:20Z</time></trkpt><trkpt lat="43.15151758217972" lon="11.435046905854522"><ele>164.8</ele><time>2026-05-02T08:28:21Z</time></trkpt><trkpt lat="43.15151656681514" lon="11.435188597243128"><ele>163.2</ele><time>2026-05-02T08:28:22Z</time></trkpt><trkpt lat="43.151547598049966" lon="11.435330046775412"><ele>161.6</ele><time>2026-05-02T08:28:23Z</time></trkpt><trkpt lat="43.151557330792876" lon="11.435504784906856"><ele>160.0</ele><time>2026-05-02T08:28:24Z</time></trkpt><trkpt lat="43.151593489221746" lon="11.435720014836217"><ele>159.0</ele><time>2026-05-02T08:28:25Z</time></trkpt><trkpt lat="43.151633393548806" lon="11.435977593598352"><ele>158.0</ele><time>2026-05-02T08:28:26Z</time></trkpt><trkpt lat="43.15167851039015" lon="11.43626619410695"><ele>157.0</ele><time>2026-05-02T08:28:27Z</time></trkpt><trkpt lat="43.15172867002853" lon="11.436586134730218"><ele>156.5</ele><time>2026-05-02T08:28:28Z</time></trkpt><trkpt lat="43.1517813615453" lon="11.436925998225682"><ele>156.0</ele><time>2026-05-02T08:28:29Z</time></trkpt><trkpt lat="43.151828002191856" lon="11.43723774359108"><ele>156.0</ele><time>2026-05-02T08:28:30Z</time></trkpt><trkpt lat="43.15187128632336" lon="11.437506191579903"><ele>156.0</ele><time>2026-05-02T08:28:31Z</time></trkpt><trkpt lat="43.15190973849779" lon="11.437744835969982"><ele>156.0</ele><time>2026-05-02T08:28:32Z</time></trkpt><trkpt lat="43.1519400690197" lon="11.437940433783426"><ele>157.0</ele><time>2026-05-02T08:28:33Z</time></trkpt><trkpt lat="43.151965481711066" lon="11.438113937274867"><ele>158.0</ele><time>2026-05-02T08:28:34Z</time></trkpt><trkpt lat="43.15198005486823" lon="11.438263565939822"><ele>159.0</ele><time>2026-05-02T08:28:34.999Z</time></trkpt><trkpt lat="43.15197618225152" lon="11.438404582265333"><ele>160.0</ele><time>2026-05-02T08:28:35.999Z</time></trkpt><trkpt lat="43.15195405526323" lon="11.438547871077708"><ele>161.0</ele><time>2026-05-02T08:28:36.999Z</time></trkpt><trkpt lat="43.15191041639034" lon="11.438697079432684"><ele>161.75</ele><time>2026-05-02T08:28:37.999Z</time></trkpt><trkpt lat="43.15183707603213" lon="11.43883096756678"><ele>162.5</ele><time>2026-05-02T08:28:38.999Z</time></trkpt><trkpt lat="43.1517429632785" lon="11.438977174510761"><ele>163.25</ele><time>2026-05-02T08:28:39.999Z</time></trkpt><trkpt lat="43.15163350078396" lon="11.439151093820763"><ele>164.0</ele><time>2026-05-02T08:28:40.999Z</time></trkpt><trkpt lat="43.15153435551325" lon="11.439316991949429"><ele>163.5</ele><time>2026-05-02T08:28:41.999Z</time></trkpt><trkpt lat="43.151440731484676" lon="11.439472659326837"><ele>163.0</ele><time>2026-05-02T08:28:42.999Z</time></trkpt><trkpt lat="43.15135673321401" lon="11.43962298893843"><ele>162.5</ele><time>2026-05-02T08:28:43.999Z</time></trkpt><trkpt lat="43.151279212252796" lon="11.439770138001487"><ele>162.0</ele><time>2026-05-02T08:28:44.999Z</time></trkpt><trkpt lat="43.151201001643706" lon="11.439925643288317"><ele>162.0</ele><time>2026-05-02T08:28:45.999Z</time></trkpt><trkpt lat="43.15113187726463" lon="11.440089269271624"><ele>162.0</ele><time>2026-05-02T08:28:46.999Z</time></trkpt><trkpt lat="43.15107215145498" lon="11.44025054920836"><ele>162.0</ele><time>2026-05-02T08:28:47.999Z</time></trkpt><trkpt lat="43.15100949317966" lon="11.440412654145032"><ele>162.0</ele><time>2026-05-02T08:28:48.999Z</time></trkpt><trkpt lat="43.150950288985534" lon="11.440558731380762"><ele>162.25</ele><time>2026-05-02T08:28:49.999Z</time></trkpt><trkpt lat="43.150873423291706" lon="11.44067997853712"><ele>162.5</ele><time>2026-05-02T08:28:50.999Z</time></trkpt><trkpt lat="43.15077885087367" lon="11.440796041675778"><ele>162.75</ele><time>2026-05-02T08:28:51.999Z</time></trkpt><trkpt lat="43.15067137890871" lon="11.440892772916438"><ele>163.0</ele><time>2026-05-02T08:28:52.999Z</time></trkpt><trkpt lat="43.150556753647706" lon="11.440983885605839"><ele>163.0</ele><time>2026-05-02T08:28:53.999Z</time></trkpt><trkpt lat="43.15045006589545" lon="11.441066162053723"><ele>163.0</ele><time>2026-05-02T08:28:54.999Z</time></trkpt><trkpt lat="43.150349090977365" lon="11.441149523887992"><ele>163.0</ele><time>2026-05-02T08:28:55.999Z</time></trkpt><trkpt lat="43.15024439218548" lon="11.441240769210635"><ele>163.0</ele><time>2026-05-02T08:28:56.999Z</time></trkpt><trkpt lat="43.150135062816254" lon="11.441326285495936"><ele>163.0</ele><time>2026-05-02T08:28:57.999Z</time></trkpt><trkpt lat="43.15002521631752" lon="11.441407289935219"><ele>163.0</ele><time>2026-05-02T08:28:58.999Z</time></trkpt><trkpt lat="43.14991763108665" lon="11.441490470445986"><ele>163.0</ele><time>2026-05-02T08:28:59.999Z</time></trkpt><trkpt lat="43.14981172609409" lon="11.441571063432425"><ele>163.0</ele><time>2026-05-02T08:29:00.999Z</time></trkpt><trkpt lat="43.149709170355294" lon="11.441654582085569"><ele>163.0</ele><time>2026-05-02T08:29:01.999Z</time></trkpt><trkpt lat="43.149605979391104" lon="11.441738206977872"><ele>163.0</ele><time>2026-05-02T08:29:02.999Z</time></trkpt><trkpt lat="43.149503271888264" lon="11.441820708241787"><ele>163.0</ele><time>2026-05-02T08:29:03.999Z</time></trkpt><trkpt lat="43.14939808932084" lon="11.441904571451067"><ele>163.0</ele><time>2026-05-02T08:29:04.999Z</time></trkpt><trkpt lat="43.149293508690924" lon="11.441991602101156"><ele>163.0</ele><time>2026-05-02T08:29:05.999Z</time></trkpt><trkpt lat="43.1491899270058" lon="11.442075140578535"><ele>163.0</ele><time>2026-05-02T08:29:06.999Z</time></trkpt><trkpt lat="43.14908347266662" lon="11.442162252202868"><ele>163.0</ele><time>2026-05-02T08:29:07.999Z</time></trkpt><trkpt lat="43.14897553382999" lon="11.44225148055716"><ele>163.0</ele><time>2026-05-02T08:29:08.999Z</time></trkpt><trkpt lat="43.14886935440363" lon="11.442338303137689"><ele>163.25</ele><time>2026-05-02T08:29:09.999Z</time></trkpt><trkpt lat="43.148768560852446" lon="11.44243027772492"><ele>163.5</ele><time>2026-05-02T08:29:10.999Z</time></trkpt><trkpt lat="43.148679021527485" lon="11.442534969875238"><ele>163.75</ele><time>2026-05-02T08:29:11.999Z</time></trkpt><trkpt lat="43.148601064213594" lon="11.442645944983397"><ele>164.0</ele><time>2026-05-02T08:29:12.999Z</time></trkpt><trkpt lat="43.14852744614326" lon="11.442755244754327"><ele>164.0</ele><time>2026-05-02T08:29:13.999Z</time></trkpt><trkpt lat="43.148459149110664" lon="11.442864761347861"><ele>164.0</ele><time>2026-05-02T08:29:14.999Z</time></trkpt><trkpt lat="43.14838815104909" lon="11.442977276880063"><ele>164.0</ele><time>2026-05-02T08:29:15.999Z</time></trkpt><trkpt lat="43.14831303885746" lon="11.443086974939389"><ele>164.0</ele><time>2026-05-02T08:29:16.999Z</time></trkpt><trkpt lat="43.14823916202554" lon="11.443193800538538"><ele>164.0</ele><time>2026-05-02T08:29:17.999Z</time></trkpt><trkpt lat="43.14816550220115" lon="11.443302573108408"><ele>164.0</ele><time>2026-05-02T08:29:18.999Z</time></trkpt><trkpt lat="43.148100642781344" lon="11.443410080396653"><ele>164.0</ele><time>2026-05-02T08:29:19.999Z</time></trkpt><trkpt lat="43.14804854893475" lon="11.443515886811097"><ele>164.0</ele><time>2026-05-02T08:29:20.999Z</time></trkpt><trkpt lat="43.14801435140871" lon="11.44363231639995"><ele>164.0</ele><time>2026-05-02T08:29:21.999Z</time></trkpt><trkpt lat="43.14800280340766" lon="11.443749683423702"><ele>164.0</ele><time>2026-05-02T08:29:22.999Z</time></trkpt><trkpt lat="43.14801483631765" lon="11.443878026738497"><ele>164.0</ele><time>2026-05-02T08:29:23.999Z</time></trkpt><trkpt lat="43.14804946092239" lon="11.444003916932399"><ele>164.0</ele><time>2026-05-02T08:29:24.999Z</time></trkpt><trkpt lat="43.148098772453196" lon="11.444125767810318"><ele>164.0</ele><time>2026-05-02T08:29:25.999Z</time></trkpt><trkpt lat="43.148150182956314" lon="11.444246496905723"><ele>164.0</ele><time>2026-05-02T08:29:26.999Z</time></trkpt><trkpt lat="43.14817836188275" lon="11.444379332997608"><ele>164.0</ele><time>2026-05-02T08:29:27.999Z</time></trkpt><trkpt lat="43.14817872923693" lon="11.444522351807738"><ele>165.39999999999998</ele><time>2026-05-02T08:29:28.999Z</time></trkpt><trkpt lat="43.148143606095644" lon="11.444650823817035"><ele>166.8</ele><time>2026-05-02T08:29:29.999Z</time></trkpt><trkpt lat="43.14808993358282" lon="11.444749402960428"><ele>168.2</ele><time>2026-05-02T08:29:30.999Z</time></trkpt><trkpt lat="43.14801190679098" lon="11.444817208900357"><ele>169.60000000000002</ele><time>2026-05-02T08:29:31.999Z</time></trkpt><trkpt lat="43.14792357530724" lon="11.44479515677188"><ele>171.0</ele><time>2026-05-02T08:29:32.999Z</time></trkpt><trkpt lat="43.14783824964639" lon="11.444772076327824"><ele>171.0</ele><time>2026-05-02T08:29:33.999Z</time></trkpt><trkpt lat="43.147761365770634" lon="11.444736756216548"><ele>171.0</ele><time>2026-05-02T08:29:34.999Z</time></trkpt><trkpt lat="43.14767137739071" lon="11.44469000701514"><ele>171.0</ele><time>2026-05-02T08:29:35.999Z</time></trkpt><trkpt lat="43.14756856711282" lon="11.444641098024155"><ele>171.0</ele><time>2026-05-02T08:29:36.999Z</time></trkpt><trkpt lat="43.14746367014493" lon="11.444602042836294"><ele>171.0</ele><time>2026-05-02T08:29:37.999Z</time></trkpt><trkpt lat="43.147354344701206" lon="11.444587480926542"><ele>169.20000000000002</ele><time>2026-05-02T08:29:38.999Z</time></trkpt><trkpt lat="43.14725193241937" lon="11.444537332281254"><ele>167.4</ele><time>2026-05-02T08:29:39.999Z</time></trkpt><trkpt lat="43.147142184592056" lon="11.4445383054832"><ele>165.6</ele><time>2026-05-02T08:29:40.999Z</time></trkpt><trkpt lat="43.147034927778016" lon="11.444524038100003"><ele>163.8</ele><time>2026-05-02T08:29:41.999Z</time></trkpt><trkpt lat="43.14692780371242" lon="11.444516672277967"><ele>162.0</ele><time>2026-05-02T08:29:42.999Z</time></trkpt><trkpt lat="43.14682089457632" lon="11.444516714117066"><ele>162.0</ele><time>2026-05-02T08:29:43.999Z</time></trkpt><trkpt lat="43.14671311212987" lon="11.444523294710223"><ele>162.0</ele><time>2026-05-02T08:29:44.999Z</time></trkpt><trkpt lat="43.146605263807295" lon="11.444536937818883"><ele>162.0</ele><time>2026-05-02T08:29:45.999Z</time></trkpt><trkpt lat="43.14650037882439" lon="11.444558832103304"><ele>162.0</ele><time>2026-05-02T08:29:46.999Z</time></trkpt><trkpt lat="43.14640131005588" lon="11.444598759938424"><ele>162.0</ele><time>2026-05-02T08:29:47.999Z</time></trkpt><trkpt lat="43.14631388368116" lon="11.44465775044502"><ele>162.0</ele><time>2026-05-02T08:29:48.999Z</time></trkpt><trkpt lat="43.1462439629332" lon="11.444735209773201"><ele>162.0</ele><time>2026-05-02T08:29:49.999Z</time></trkpt><trkpt lat="43.14619092644567" lon="11.4448186805193"><ele>162.0</ele><time>2026-05-02T08:29:51Z</time></trkpt><trkpt lat="43.14615119670411" lon="11.444918070095811"><ele>162.0</ele><time>2026-05-02T08:29:52Z</time></trkpt><trkpt lat="43.146123299368355" lon="11.445018125537272"><ele>162.0</ele><time>2026-05-02T08:29:53Z</time></trkpt><trkpt lat="43.14609705171525" lon="11.445120822496056"><ele>162.0</ele><time>2026-05-02T08:29:54Z</time></trkpt><trkpt lat="43.146079955996946" lon="11.44522197420183"><ele>162.0</ele><time>2026-05-02T08:29:55Z</time></trkpt><trkpt lat="43.1460761168292" lon="11.445324752794525"><ele>162.0</ele><time>2026-05-02T08:29:56Z</time></trkpt><trkpt lat="43.14609081360268" lon="11.445431516128693"><ele>162.0</ele><time>2026-05-02T08:29:57Z</time></trkpt><trkpt lat="43.14611427048609" lon="11.445537867716213"><ele>162.0</ele><time>2026-05-02T08:29:58Z</time></trkpt><trkpt lat="43.14614305051616" lon="11.445647773014263"><ele>162.0</ele><time>2026-05-02T08:29:59Z</time></trkpt><trkpt lat="43.1461715357028" lon="11.445769161544789"><ele>162.0</ele><time>2026-05-02T08:30:00Z</time></trkpt><trkpt lat="43.14620220878934" lon="11.445891655284468"><ele>161.8</ele><time>2026-05-02T08:30:01Z</time></trkpt><trkpt lat="43.146233748330154" lon="11.44601777766939"><ele>161.6</ele><time>2026-05-02T08:30:02Z</time></trkpt><trkpt lat="43.14626527056239" lon="11.446147491072786"><ele>161.4</ele><time>2026-05-02T08:30:03Z</time></trkpt><trkpt lat="43.14629858356359" lon="11.446277851981302"><ele>161.20000000000002</ele><time>2026-05-02T08:30:04Z</time></trkpt><trkpt lat="43.14633275255913" lon="11.446401210271226"><ele>161.0</ele><time>2026-05-02T08:30:05Z</time></trkpt><trkpt lat="43.14636204957911" lon="11.44651450104673"><ele>161.83333333333331</ele><time>2026-05-02T08:30:06Z</time></trkpt><trkpt lat="43.146387870548544" lon="11.446618602240504"><ele>162.66666666666666</ele><time>2026-05-02T08:30:07Z</time></trkpt><trkpt lat="43.14639601411736" lon="11.446721555124066"><ele>163.5</ele><time>2026-05-02T08:30:08Z</time></trkpt><trkpt lat="43.14637884635207" lon="11.446819554392006"><ele>164.33333333333334</ele><time>2026-05-02T08:30:09Z</time></trkpt><trkpt lat="43.146337119011214" lon="11.44689551111692"><ele>165.16666666666669</ele><time>2026-05-02T08:30:10Z</time></trkpt><trkpt lat="43.146267935354615" lon="11.446941107320843"><ele>166.0</ele><time>2026-05-02T08:30:11Z</time></trkpt><trkpt lat="43.14618622220856" lon="11.446893569897869"><ele>166.0</ele><time>2026-05-02T08:30:12Z</time></trkpt><trkpt lat="43.14609966470488" lon="11.446868554829791"><ele>166.0</ele><time>2026-05-02T08:30:13Z</time></trkpt><trkpt lat="43.1459949553383" lon="11.446855276216239"><ele>166.0</ele><time>2026-05-02T08:30:14Z</time></trkpt><trkpt lat="43.14588377870844" lon="11.446843697585958"><ele>166.0</ele><time>2026-05-02T08:30:15Z</time></trkpt><trkpt lat="43.145775937295625" lon="11.446856317699567"><ele>166.0</ele><time>2026-05-02T08:30:16Z</time></trkpt><trkpt lat="43.14567069455392" lon="11.446862990941993"><ele>165.20000000000002</ele><time>2026-05-02T08:30:17Z</time></trkpt><trkpt lat="43.145573425127246" lon="11.446881417190468"><ele>164.4</ele><time>2026-05-02T08:30:18Z</time></trkpt><trkpt lat="43.14548263828841" lon="11.446911217847251"><ele>163.6</ele><time>2026-05-02T08:30:19Z</time></trkpt><trkpt lat="43.1453934736354" lon="11.446956706351985"><ele>162.8</ele><time>2026-05-02T08:30:20Z</time></trkpt><trkpt lat="43.1453111577028" lon="11.447023827766923"><ele>162.0</ele><time>2026-05-02T08:30:21Z</time></trkpt><trkpt lat="43.14522976147526" lon="11.447110152458533"><ele>163.2</ele><time>2026-05-02T08:30:22Z</time></trkpt><trkpt lat="43.14515051222334" lon="11.447201618084375"><ele>164.39999999999998</ele><time>2026-05-02T08:30:23Z</time></trkpt><trkpt lat="43.14507056962237" lon="11.447292581727018"><ele>165.60000000000002</ele><time>2026-05-02T08:30:24Z</time></trkpt><trkpt lat="43.14499176837797" lon="11.447382909660172"><ele>166.8</ele><time>2026-05-02T08:30:25Z</time></trkpt><trkpt lat="43.14492766614388" lon="11.447472659946406"><ele>168.0</ele><time>2026-05-02T08:30:26Z</time></trkpt><trkpt lat="43.144885426513476" lon="11.447563188157197"><ele>167.83333333333334</ele><time>2026-05-02T08:30:27Z</time></trkpt><trkpt lat="43.14485980421237" lon="11.447654178075634"><ele>167.66666666666666</ele><time>2026-05-02T08:30:28Z</time></trkpt><trkpt lat="43.14485224172194" lon="11.447740828342877"><ele>167.5</ele><time>2026-05-02T08:30:29Z</time></trkpt><trkpt lat="43.14484949524533" lon="11.447914330307752"><ele>167.33333333333331</ele><time>2026-05-02T08:30:31Z</time></trkpt><trkpt lat="43.14484769534429" lon="11.448017579098334"><ele>167.16666666666666</ele><time>2026-05-02T08:30:32Z</time></trkpt><trkpt lat="43.14484758976567" lon="11.448131280404498"><ele>167.0</ele><time>2026-05-02T08:30:33Z</time></trkpt><trkpt lat="43.144843747931915" lon="11.44825157599823"><ele>167.0</ele><time>2026-05-02T08:30:34Z</time></trkpt><trkpt lat="43.14482277097759" lon="11.448369130098968"><ele>167.0</ele><time>2026-05-02T08:30:35Z</time></trkpt><trkpt lat="43.144770785056785" lon="11.448469648278648"><ele>167.0</ele><time>2026-05-02T08:30:36Z</time></trkpt><trkpt lat="43.14469336537038" lon="11.448535246396986"><ele>167.0</ele><time>2026-05-02T08:30:37Z</time></trkpt><trkpt lat="43.144604543808356" lon="11.448553748839025"><ele>167.0</ele><time>2026-05-02T08:30:38Z</time></trkpt><trkpt lat="43.14450982684341" lon="11.44856384879129"><ele>167.0</ele><time>2026-05-02T08:30:39Z</time></trkpt><trkpt lat="43.14441918682739" lon="11.448551136654222"><ele>167.0</ele><time>2026-05-02T08:30:40Z</time></trkpt><trkpt lat="43.14432896056477" lon="11.448536557266541"><ele>167.0</ele><time>2026-05-02T08:30:41Z</time></trkpt><trkpt lat="43.14424372412144" lon="11.44851715946234"><ele>167.0</ele><time>2026-05-02T08:30:41.999Z</time></trkpt><trkpt lat="43.14415974283183" lon="11.448487792794264"><ele>167.0</ele><time>2026-05-02T08:30:42.999Z</time></trkpt><trkpt lat="43.144074397947804" lon="11.448449130290514"><ele>167.0</ele><time>2026-05-02T08:30:43.999Z</time></trkpt><trkpt lat="43.143989036952455" lon="11.448407264438858"><ele>168.0</ele><time>2026-05-02T08:30:44.999Z</time></trkpt><trkpt lat="43.14390282909517" lon="11.448359136968733"><ele>169.0</ele><time>2026-05-02T08:30:45.999Z</time></trkpt><trkpt lat="43.14381473928154" lon="11.448306118436909"><ele>170.0</ele><time>2026-05-02T08:30:46.999Z</time></trkpt><trkpt lat="43.1437250482154" lon="11.448251704045742"><ele>171.0</ele><time>2026-05-02T08:30:47.999Z</time></trkpt><trkpt lat="43.14362678538782" lon="11.448190200865236"><ele>172.0</ele><time>2026-05-02T08:30:48.999Z</time></trkpt><trkpt lat="43.14352050056025" lon="11.44811930514516"><ele>172.0</ele><time>2026-05-02T08:30:49.999Z</time></trkpt><trkpt lat="43.143399960792294" lon="11.448028183648242"><ele>172.0</ele><time>2026-05-02T08:30:50.999Z</time></trkpt><trkpt lat="43.14328059829153" lon="11.447933819709911"><ele>172.0</ele><time>2026-05-02T08:30:51.999Z</time></trkpt><trkpt lat="43.14316919144732" lon="11.447852341848385"><ele>172.0</ele><time>2026-05-02T08:30:52.999Z</time></trkpt><trkpt lat="43.143068051445184" lon="11.447782319288144"><ele>170.2</ele><time>2026-05-02T08:30:53.999Z</time></trkpt><trkpt lat="43.14297042094135" lon="11.447731923252489"><ele>168.39999999999998</ele><time>2026-05-02T08:30:54.999Z</time></trkpt><trkpt lat="43.14286258414175" lon="11.447713518212083"><ele>166.60000000000002</ele><time>2026-05-02T08:30:55.999Z</time></trkpt><trkpt lat="43.142755939431595" lon="11.447685836685524"><ele>164.8</ele><time>2026-05-02T08:30:56.999Z</time></trkpt><trkpt lat="43.14264843387777" lon="11.447675085054492"><ele>163.0</ele><time>2026-05-02T08:30:57.999Z</time></trkpt><trkpt lat="43.14253909218659" lon="11.447679547716227"><ele>163.0</ele><time>2026-05-02T08:30:58.999Z</time></trkpt><trkpt lat="43.142428540490116" lon="11.447703228257321"><ele>163.0</ele><time>2026-05-02T08:30:59.999Z</time></trkpt><trkpt lat="43.14232190051032" lon="11.447732281008456"><ele>163.0</ele><time>2026-05-02T08:31:00.999Z</time></trkpt><trkpt lat="43.14222505054516" lon="11.44776104641503"><ele>163.0</ele><time>2026-05-02T08:31:01.999Z</time></trkpt><trkpt lat="43.14212896819365" lon="11.44779450807507"><ele>163.0</ele><time>2026-05-02T08:31:02.999Z</time></trkpt><trkpt lat="43.1420323955397" lon="11.44782757454661"><ele>162.8</ele><time>2026-05-02T08:31:03.999Z</time></trkpt><trkpt lat="43.141935290350325" lon="11.447866344214042"><ele>162.60000000000002</ele><time>2026-05-02T08:31:04.999Z</time></trkpt><trkpt lat="43.141837218891844" lon="11.447901384508285"><ele>162.39999999999998</ele><time>2026-05-02T08:31:05.999Z</time></trkpt><trkpt lat="43.1417397189719" lon="11.44794018781719"><ele>162.2</ele><time>2026-05-02T08:31:06.999Z</time></trkpt><trkpt lat="43.141641483529305" lon="11.447977383902694"><ele>162.0</ele><time>2026-05-02T08:31:07.999Z</time></trkpt><trkpt lat="43.14154211607651" lon="11.448006073329285"><ele>163.8</ele><time>2026-05-02T08:31:08.999Z</time></trkpt><trkpt lat="43.14144288757266" lon="11.44803298373068"><ele>165.6</ele><time>2026-05-02T08:31:09.999Z</time></trkpt><trkpt lat="43.14134616521255" lon="11.448058495203455"><ele>167.4</ele><time>2026-05-02T08:31:10.999Z</time></trkpt><trkpt lat="43.14125091235403" lon="11.448079528127424"><ele>169.20000000000002</ele><time>2026-05-02T08:31:11.999Z</time></trkpt><trkpt lat="43.14115635735798" lon="11.448093641361956"><ele>171.0</ele><time>2026-05-02T08:31:12.999Z</time></trkpt><trkpt lat="43.14106207972086" lon="11.448113464671362"><ele>171.0</ele><time>2026-05-02T08:31:13.999Z</time></trkpt><trkpt lat="43.14096798117569" lon="11.44812800955594"><ele>171.0</ele><time>2026-05-02T08:31:14.999Z</time></trkpt><trkpt lat="43.140876434374455" lon="11.448146216819314"><ele>171.0</ele><time>2026-05-02T08:31:15.999Z</time></trkpt><trkpt lat="43.140785795338566" lon="11.448160159141226"><ele>171.0</ele><time>2026-05-02T08:31:16.999Z</time></trkpt><trkpt lat="43.14069440084656" lon="11.44815928334839"><ele>171.0</ele><time>2026-05-02T08:31:17.999Z</time></trkpt><trkpt lat="43.14060311217911" lon="11.44818433413642"><ele>170.5</ele><time>2026-05-02T08:31:18.999Z</time></trkpt><trkpt lat="43.14050779933713" lon="11.44818015966203"><ele>170.0</ele><time>2026-05-02T08:31:19.999Z</time></trkpt><trkpt lat="43.14041965683822" lon="11.44813857147152"><ele>169.5</ele><time>2026-05-02T08:31:20.999Z</time></trkpt><trkpt lat="43.140337313773884" lon="11.448111953667073"><ele>169.0</ele><time>2026-05-02T08:31:21.999Z</time></trkpt><trkpt lat="43.140263696099275" lon="11.448079974792025"><ele>168.5</ele><time>2026-05-02T08:31:22.999Z</time></trkpt><trkpt lat="43.140201149039775" lon="11.448051692233962"><ele>168.0</ele><time>2026-05-02T08:31:23.999Z</time></trkpt><trkpt lat="43.140091846342216" lon="11.447996869061493"><ele>167.5</ele><time>2026-05-02T08:31:25.999Z</time></trkpt><trkpt lat="43.13998722850777" lon="11.44793984696884"><ele>167.0</ele><time>2026-05-02T08:31:27.999Z</time></trkpt><trkpt lat="43.13988667242167" lon="11.44786978261683"><ele>166.5</ele><time>2026-05-02T08:31:29.999Z</time></trkpt><trkpt lat="43.13977208625105" lon="11.447828021150938"><ele>166.0</ele><time>2026-05-02T08:31:31.999Z</time></trkpt><trkpt lat="43.139660053131124" lon="11.447795450285376"><ele>164.8</ele><time>2026-05-02T08:31:33.999Z</time></trkpt><trkpt lat="43.13953853569745" lon="11.44782450892335"><ele>163.60000000000002</ele><time>2026-05-02T08:31:35.999Z</time></trkpt><trkpt lat="43.13942739043053" lon="11.447914009533646"><ele>162.4</ele><time>2026-05-02T08:31:37.999Z</time></trkpt><trkpt lat="43.13937852617058" lon="11.447984896925405"><ele>161.2</ele><time>2026-05-02T08:31:38.999Z</time></trkpt><trkpt lat="43.1393397232378" lon="11.448065893392531"><ele>160.0</ele><time>2026-05-02T08:31:39.999Z</time></trkpt><trkpt lat="43.13931331420091" lon="11.448161339775597"><ele>160.0</ele><time>2026-05-02T08:31:40.999Z</time></trkpt><trkpt lat="43.13929658456328" lon="11.448266094851226"><ele>160.0</ele><time>2026-05-02T08:31:41.999Z</time></trkpt><trkpt lat="43.13928824930718" lon="11.44837676056274"><ele>160.0</ele><time>2026-05-02T08:31:42.999Z</time></trkpt><trkpt lat="43.13927845300686" lon="11.448488019854812"><ele>160.0</ele><time>2026-05-02T08:31:43.999Z</time></trkpt><trkpt lat="43.13927151310171" lon="11.4485978216227"><ele>160.0</ele><time>2026-05-02T08:31:44.999Z</time></trkpt><trkpt lat="43.13926443950212" lon="11.44870180412266"><ele>160.0</ele><time>2026-05-02T08:31:45.999Z</time></trkpt><trkpt lat="43.13926326895802" lon="11.44880287395501"><ele>160.0</ele><time>2026-05-02T08:31:46.999Z</time></trkpt><trkpt lat="43.139265126648375" lon="11.448906159893461"><ele>160.0</ele><time>2026-05-02T08:31:47.999Z</time></trkpt><trkpt lat="43.13926001243279" lon="11.449008584253914"><ele>160.0</ele><time>2026-05-02T08:31:48.999Z</time></trkpt><trkpt lat="43.13925376395008" lon="11.449115115784865"><ele>160.0</ele><time>2026-05-02T08:31:49.999Z</time></trkpt><trkpt lat="43.13925009720884" lon="11.449221997686392"><ele>160.0</ele><time>2026-05-02T08:31:50.999Z</time></trkpt><trkpt lat="43.13924743380779" lon="11.449329379629015"><ele>160.0</ele><time>2026-05-02T08:31:51.999Z</time></trkpt><trkpt lat="43.13924731040608" lon="11.449435044307902"><ele>160.0</ele><time>2026-05-02T08:31:52.999Z</time></trkpt><trkpt lat="43.139243820450936" lon="11.449538876756097"><ele>160.0</ele><time>2026-05-02T08:31:53.999Z</time></trkpt><trkpt lat="43.13924313973832" lon="11.44963979891854"><ele>160.0</ele><time>2026-05-02T08:31:54.999Z</time></trkpt><trkpt lat="43.139243266768766" lon="11.449739273404296"><ele>160.0</ele><time>2026-05-02T08:31:56Z</time></trkpt><trkpt lat="43.13924569465672" lon="11.449838559378188"><ele>160.0</ele><time>2026-05-02T08:31:57Z</time></trkpt><trkpt lat="43.13924770434411" lon="11.449937039778185"><ele>160.0</ele><time>2026-05-02T08:31:58Z</time></trkpt><trkpt lat="43.139253158805325" lon="11.450038111624004"><ele>160.0</ele><time>2026-05-02T08:31:59Z</time></trkpt><trkpt lat="43.139257454036176" lon="11.450139340699739"><ele>160.0</ele><time>2026-05-02T08:32:00Z</time></trkpt><trkpt lat="43.1392651325077" lon="11.450241167152702"><ele>160.0</ele><time>2026-05-02T08:32:01Z</time></trkpt><trkpt lat="43.13926576454508" lon="11.450340517584882"><ele>160.0</ele><time>2026-05-02T08:32:02Z</time></trkpt><trkpt lat="43.139269310698914" lon="11.450444351236197"><ele>160.0</ele><time>2026-05-02T08:32:03Z</time></trkpt><trkpt lat="43.13927075382202" lon="11.45054945565629"><ele>160.0</ele><time>2026-05-02T08:32:04Z</time></trkpt><trkpt lat="43.13926340112945" lon="11.450653884299555"><ele>160.0</ele><time>2026-05-02T08:32:05Z</time></trkpt><trkpt lat="43.13924680864587" lon="11.450755056056392"><ele>160.33333333333334</ele><time>2026-05-02T08:32:06Z</time></trkpt><trkpt lat="43.1392221462641" lon="11.450854565967607"><ele>160.66666666666669</ele><time>2026-05-02T08:32:07Z</time></trkpt><trkpt lat="43.13918236479137" lon="11.45094670721345"><ele>161.0</ele><time>2026-05-02T08:32:08Z</time></trkpt><trkpt lat="43.13915369328886" lon="11.451043243790194"><ele>161.33333333333334</ele><time>2026-05-02T08:32:09Z</time></trkpt><trkpt lat="43.13910980517703" lon="11.45112645646564"><ele>161.66666666666666</ele><time>2026-05-02T08:32:10Z</time></trkpt><trkpt lat="43.13906422290763" lon="11.451211727142509"><ele>162.0</ele><time>2026-05-02T08:32:11Z</time></trkpt><trkpt lat="43.13901913889575" lon="11.451298805015549"><ele>160.83333333333334</ele><time>2026-05-02T08:32:12Z</time></trkpt><trkpt lat="43.138976490577505" lon="11.45138839451289"><ele>159.66666666666666</ele><time>2026-05-02T08:32:13Z</time></trkpt><trkpt lat="43.138937180430084" lon="11.451484691426003"><ele>158.5</ele><time>2026-05-02T08:32:14Z</time></trkpt><trkpt lat="43.13889541549126" lon="11.451581970845531"><ele>157.33333333333331</ele><time>2026-05-02T08:32:15Z</time></trkpt><trkpt lat="43.13884320385285" lon="11.451667234508198"><ele>156.16666666666666</ele><time>2026-05-02T08:32:16Z</time></trkpt><trkpt lat="43.138788562608454" lon="11.451753820948086"><ele>155.0</ele><time>2026-05-02T08:32:17Z</time></trkpt><trkpt lat="43.138733567259074" lon="11.451847121702688"><ele>155.0</ele><time>2026-05-02T08:32:18Z</time></trkpt><trkpt lat="43.13867915570455" lon="11.451941905106892"><ele>155.0</ele><time>2026-05-02T08:32:19Z</time></trkpt><trkpt lat="43.138624278956534" lon="11.452042014549184"><ele>155.0</ele><time>2026-05-02T08:32:20Z</time></trkpt><trkpt lat="43.13856294174785" lon="11.4521423354822"><ele>155.0</ele><time>2026-05-02T08:32:21Z</time></trkpt><trkpt lat="43.13849913937617" lon="11.452229384839486"><ele>155.0</ele><time>2026-05-02T08:32:22Z</time></trkpt><trkpt lat="43.13843358115672" lon="11.45231571360889"><ele>154.6</ele><time>2026-05-02T08:32:23Z</time></trkpt><trkpt lat="43.13836240207795" lon="11.452397388647894"><ele>154.2</ele><time>2026-05-02T08:32:24Z</time></trkpt><trkpt lat="43.13828674776757" lon="11.452480010360986"><ele>153.8</ele><time>2026-05-02T08:32:25Z</time></trkpt><trkpt lat="43.13820154463345" lon="11.452562855435016"><ele>153.4</ele><time>2026-05-02T08:32:26Z</time></trkpt><trkpt lat="43.13810553069538" lon="11.452640586266757"><ele>153.0</ele><time>2026-05-02T08:32:27Z</time></trkpt><trkpt lat="43.138002350772865" lon="11.452716726645713"><ele>153.0</ele><time>2026-05-02T08:32:28Z</time></trkpt><trkpt lat="43.13789645968157" lon="11.45279451996657"><ele>153.0</ele><time>2026-05-02T08:32:29Z</time></trkpt><trkpt lat="43.13779028709103" lon="11.452867991402849"><ele>153.0</ele><time>2026-05-02T08:32:30Z</time></trkpt><trkpt lat="43.137677946805915" lon="11.452915027912338"><ele>153.0</ele><time>2026-05-02T08:32:31Z</time></trkpt><trkpt lat="43.13757504503691" lon="11.452979860403772"><ele>153.0</ele><time>2026-05-02T08:32:32Z</time></trkpt><trkpt lat="43.137479200208126" lon="11.453051650787653"><ele>153.0</ele><time>2026-05-02T08:32:33Z</time></trkpt><trkpt lat="43.13738248842018" lon="11.453111107755868"><ele>153.0</ele><time>2026-05-02T08:32:34Z</time></trkpt><trkpt lat="43.13728803433897" lon="11.453177482718264"><ele>153.0</ele><time>2026-05-02T08:32:35Z</time></trkpt><trkpt lat="43.13719671267819" lon="11.453260649106783"><ele>153.0</ele><time>2026-05-02T08:32:36Z</time></trkpt><trkpt lat="43.13710368257963" lon="11.453361310107848"><ele>153.0</ele><time>2026-05-02T08:32:37Z</time></trkpt><trkpt lat="43.13700813018105" lon="11.45345805508602"><ele>153.0</ele><time>2026-05-02T08:32:38Z</time></trkpt><trkpt lat="43.13691171980444" lon="11.4535554265321"><ele>153.0</ele><time>2026-05-02T08:32:39Z</time></trkpt><trkpt lat="43.13682063469446" lon="11.453648802514913"><ele>153.0</ele><time>2026-05-02T08:32:40Z</time></trkpt><trkpt lat="43.13672786907296" lon="11.453749530390798"><ele>152.5</ele><time>2026-05-02T08:32:41Z</time></trkpt><trkpt lat="43.136630885836524" lon="11.453865106023743"><ele>152.0</ele><time>2026-05-02T08:32:42Z</time></trkpt><trkpt lat="43.136539426812895" lon="11.453988310847329"><ele>151.5</ele><time>2026-05-02T08:32:42.999Z</time></trkpt><trkpt lat="43.136453122434574" lon="11.454110776681965"><ele>151.0</ele><time>2026-05-02T08:32:43.999Z</time></trkpt><trkpt lat="43.13637232383928" lon="11.45423242343217"><ele>151.0</ele><time>2026-05-02T08:32:44.999Z</time></trkpt><trkpt lat="43.136292330092466" lon="11.454363070759426"><ele>151.0</ele><time>2026-05-02T08:32:45.999Z</time></trkpt><trkpt lat="43.13621879638706" lon="11.454497921475845"><ele>151.0</ele><time>2026-05-02T08:32:46.999Z</time></trkpt><trkpt lat="43.13614800827298" lon="11.454635220068916"><ele>151.0</ele><time>2026-05-02T08:32:47.999Z</time></trkpt><trkpt lat="43.136084762291055" lon="11.454777412536398"><ele>152.25</ele><time>2026-05-02T08:32:48.999Z</time></trkpt><trkpt lat="43.136023300042844" lon="11.454923679045846"><ele>153.5</ele><time>2026-05-02T08:32:49.999Z</time></trkpt><trkpt lat="43.13596418566417" lon="11.45506573919804"><ele>154.75</ele><time>2026-05-02T08:32:50.999Z</time></trkpt><trkpt lat="43.13589844505779" lon="11.45521288150268"><ele>156.0</ele><time>2026-05-02T08:32:51.999Z</time></trkpt><trkpt lat="43.13582807451518" lon="11.455352903213035"><ele>155.0</ele><time>2026-05-02T08:32:52.999Z</time></trkpt><trkpt lat="43.13575345697542" lon="11.455482110003882"><ele>154.0</ele><time>2026-05-02T08:32:53.999Z</time></trkpt><trkpt lat="43.13567158315345" lon="11.455595951600712"><ele>153.0</ele><time>2026-05-02T08:32:54.999Z</time></trkpt><trkpt lat="43.13558161856903" lon="11.455700015670349"><ele>152.0</ele><time>2026-05-02T08:32:55.999Z</time></trkpt><trkpt lat="43.13548368664893" lon="11.455798029947145"><ele>152.0</ele><time>2026-05-02T08:32:56.999Z</time></trkpt><trkpt lat="43.13538286151789" lon="11.455897555155598"><ele>152.0</ele><time>2026-05-02T08:32:57.999Z</time></trkpt><trkpt lat="43.13528127005523" lon="11.456001009267723"><ele>152.0</ele><time>2026-05-02T08:32:58.999Z</time></trkpt><trkpt lat="43.135180415851416" lon="11.456104452420231"><ele>152.0</ele><time>2026-05-02T08:32:59.999Z</time></trkpt><trkpt lat="43.13508114938429" lon="11.456209643169379"><ele>152.0</ele><time>2026-05-02T08:33:00.999Z</time></trkpt><trkpt lat="43.13498314789616" lon="11.456314087321687"><ele>152.0</ele><time>2026-05-02T08:33:01.999Z</time></trkpt><trkpt lat="43.13488443311905" lon="11.456414640116563"><ele>152.0</ele><time>2026-05-02T08:33:02.999Z</time></trkpt><trkpt lat="43.13478479116998" lon="11.456509776973093"><ele>152.0</ele><time>2026-05-02T08:33:03.999Z</time></trkpt><trkpt lat="43.13468051820666" lon="11.4566155269193"><ele>152.0</ele><time>2026-05-02T08:33:04.999Z</time></trkpt><trkpt lat="43.134571693992555" lon="11.456725841948503"><ele>152.0</ele><time>2026-05-02T08:33:05.999Z</time></trkpt><trkpt lat="43.134455130177265" lon="11.456839829347729"><ele>152.0</ele><time>2026-05-02T08:33:06.999Z</time></trkpt><trkpt lat="43.134332238973464" lon="11.456965688037375"><ele>152.0</ele><time>2026-05-02T08:33:07.999Z</time></trkpt><trkpt lat="43.134180965023646" lon="11.457120445298216"><ele>151.33333333333331</ele><time>2026-05-02T08:33:08.999Z</time></trkpt><trkpt lat="43.134013307235286" lon="11.45729079992508"><ele>150.66666666666666</ele><time>2026-05-02T08:33:09.999Z</time></trkpt><trkpt lat="43.13385482106999" lon="11.457447492891916"><ele>150.0</ele><time>2026-05-02T08:33:10.999Z</time></trkpt><trkpt lat="43.133704808229965" lon="11.457587713429616"><ele>150.0</ele><time>2026-05-02T08:33:11.999Z</time></trkpt><trkpt lat="43.13354423996124" lon="11.457732216284173"><ele>150.0</ele><time>2026-05-02T08:33:12.999Z</time></trkpt><trkpt lat="43.13338983727561" lon="11.45786870132171"><ele>150.0</ele><time>2026-05-02T08:33:13.999Z</time></trkpt><trkpt lat="43.133253329027006" lon="11.457992335489767"><ele>149.25</ele><time>2026-05-02T08:33:14.999Z</time></trkpt><trkpt lat="43.13313305615071" lon="11.458113970372601"><ele>148.5</ele><time>2026-05-02T08:33:15.999Z</time></trkpt><trkpt lat="43.133032912633034" lon="11.458232278596011"><ele>147.75</ele><time>2026-05-02T08:33:16.999Z</time></trkpt><trkpt lat="43.13293611430266" lon="11.458357635551016"><ele>147.0</ele><time>2026-05-02T08:33:17.999Z</time></trkpt><trkpt lat="43.1328315932816" lon="11.458478495638609"><ele>147.0</ele><time>2026-05-02T08:33:18.999Z</time></trkpt><trkpt lat="43.132738499682524" lon="11.458594103365948"><ele>147.0</ele><time>2026-05-02T08:33:19.999Z</time></trkpt><trkpt lat="43.132660910155124" lon="11.458711937466422"><ele>147.0</ele><time>2026-05-02T08:33:20.999Z</time></trkpt><trkpt lat="43.132584633308205" lon="11.458850870242708"><ele>147.0</ele><time>2026-05-02T08:33:21.999Z</time></trkpt><trkpt lat="43.13252406612602" lon="11.459009969938657"><ele>146.5</ele><time>2026-05-02T08:33:22.999Z</time></trkpt><trkpt lat="43.13246716389224" lon="11.459193420253227"><ele>146.0</ele><time>2026-05-02T08:33:23.999Z</time></trkpt><trkpt lat="43.132414966203875" lon="11.459384402937067"><ele>145.5</ele><time>2026-05-02T08:33:24.999Z</time></trkpt><trkpt lat="43.13236898885767" lon="11.45956984523382"><ele>145.0</ele><time>2026-05-02T08:33:25.999Z</time></trkpt><trkpt lat="43.132325743897056" lon="11.459741275914167"><ele>145.0</ele><time>2026-05-02T08:33:26.999Z</time></trkpt><trkpt lat="43.13228642033803" lon="11.459919384256786"><ele>145.0</ele><time>2026-05-02T08:33:27.999Z</time></trkpt><trkpt lat="43.13224493331797" lon="11.460107339298034"><ele>145.0</ele><time>2026-05-02T08:33:28.999Z</time></trkpt><trkpt lat="43.13219920730818" lon="11.460286212981847"><ele>145.0</ele><time>2026-05-02T08:33:29.999Z</time></trkpt><trkpt lat="43.13215580981148" lon="11.460451715972797"><ele>145.2</ele><time>2026-05-02T08:33:30.999Z</time></trkpt><trkpt lat="43.13211796161489" lon="11.460600482835524"><ele>145.4</ele><time>2026-05-02T08:33:31.999Z</time></trkpt><trkpt lat="43.13208765286719" lon="11.460736806761837"><ele>145.6</ele><time>2026-05-02T08:33:32.999Z</time></trkpt><trkpt lat="43.1320671498216" lon="11.46086348315258"><ele>145.8</ele><time>2026-05-02T08:33:33.999Z</time></trkpt><trkpt lat="43.13206028632773" lon="11.460986378671821"><ele>146.0</ele><time>2026-05-02T08:33:34.999Z</time></trkpt><trkpt lat="43.13206901223443" lon="11.461111040089847"><ele>146.0</ele><time>2026-05-02T08:33:35.999Z</time></trkpt><trkpt lat="43.13208408448768" lon="11.461237329673047"><ele>146.0</ele><time>2026-05-02T08:33:36.999Z</time></trkpt><trkpt lat="43.132099637773265" lon="11.461356151446347"><ele>146.0</ele><time>2026-05-02T08:33:37.999Z</time></trkpt><trkpt lat="43.132116290322024" lon="11.461465835620844"><ele>146.0</ele><time>2026-05-02T08:33:38.999Z</time></trkpt><trkpt lat="43.132127012755554" lon="11.461564155016225"><ele>146.0</ele><time>2026-05-02T08:33:39.999Z</time></trkpt><trkpt lat="43.132131321542595" lon="11.461654024629578"><ele>146.0</ele><time>2026-05-02T08:33:40.999Z</time></trkpt><trkpt lat="43.13212547562954" lon="11.461804126244473"><ele>146.0</ele><time>2026-05-02T08:33:42.999Z</time></trkpt><trkpt lat="43.132117665290245" lon="11.461916468770593"><ele>146.0</ele><time>2026-05-02T08:33:44.999Z</time></trkpt><trkpt lat="43.13211831644531" lon="11.462024656707461"><ele>146.0</ele><time>2026-05-02T08:34:25Z</time></trkpt><trkpt lat="43.13213278923193" lon="11.46211364085377"><ele>146.0</ele><time>2026-05-02T08:34:26Z</time></trkpt><trkpt lat="43.132167685069454" lon="11.462220340260105"><ele>146.0</ele><time>2026-05-02T08:34:27Z</time></trkpt><trkpt lat="43.132216969761295" lon="11.462342273669567"><ele>146.0</ele><time>2026-05-02T08:34:28Z</time></trkpt><trkpt lat="43.13226847067698" lon="11.462466325476734"><ele>145.75</ele><time>2026-05-02T08:34:29Z</time></trkpt><trkpt lat="43.13232287575095" lon="11.462609028898585"><ele>145.5</ele><time>2026-05-02T08:34:30Z</time></trkpt><trkpt lat="43.132379443079564" lon="11.462759987105777"><ele>145.25</ele><time>2026-05-02T08:34:31Z</time></trkpt><trkpt lat="43.132443540156046" lon="11.46292134482959"><ele>145.0</ele><time>2026-05-02T08:34:32Z</time></trkpt><trkpt lat="43.13251462549689" lon="11.463084637798246"><ele>145.0</ele><time>2026-05-02T08:34:33Z</time></trkpt><trkpt lat="43.1325897142229" lon="11.46325055464908"><ele>145.0</ele><time>2026-05-02T08:34:34Z</time></trkpt><trkpt lat="43.13266993305551" lon="11.463423598246054"><ele>145.0</ele><time>2026-05-02T08:34:35Z</time></trkpt><trkpt lat="43.1327554095748" lon="11.463599897989502"><ele>145.0</ele><time>2026-05-02T08:34:36Z</time></trkpt><trkpt lat="43.132849413968714" lon="11.46378773292406"><ele>144.66666666666669</ele><time>2026-05-02T08:34:37Z</time></trkpt><trkpt lat="43.13293760384002" lon="11.463985856586255"><ele>144.33333333333334</ele><time>2026-05-02T08:34:38Z</time></trkpt><trkpt lat="43.13300241914844" lon="11.464203867816238"><ele>144.0</ele><time>2026-05-02T08:34:39Z</time></trkpt><trkpt lat="43.13303740203271" lon="11.464440059718855"><ele>143.33333333333334</ele><time>2026-05-02T08:34:40Z</time></trkpt><trkpt lat="43.13306670181869" lon="11.464691326145521"><ele>142.66666666666669</ele><time>2026-05-02T08:34:41Z</time></trkpt><trkpt lat="43.13310918814817" lon="11.464945497999455"><ele>142.0</ele><time>2026-05-02T08:34:42Z</time></trkpt><trkpt lat="43.1331579449049" lon="11.465209683694065"><ele>141.66666666666669</ele><time>2026-05-02T08:34:43Z</time></trkpt><trkpt lat="43.133206349881675" lon="11.465475696358165"><ele>141.33333333333334</ele><time>2026-05-02T08:34:44Z</time></trkpt><trkpt lat="43.1332546103988" lon="11.465750866203836"><ele>141.0</ele><time>2026-05-02T08:34:44.999Z</time></trkpt><trkpt lat="43.1333058641616" lon="11.466028076066442"><ele>141.66666666666666</ele><time>2026-05-02T08:34:45.999Z</time></trkpt><trkpt lat="43.13335962194674" lon="11.466310264275796"><ele>142.33333333333331</ele><time>2026-05-02T08:34:46.999Z</time></trkpt><trkpt lat="43.133413346559024" lon="11.466598284661796"><ele>143.0</ele><time>2026-05-02T08:34:47.999Z</time></trkpt><trkpt lat="43.133469502346145" lon="11.466894064195456"><ele>142.5</ele><time>2026-05-02T08:34:48.999Z</time></trkpt><trkpt lat="43.13352648316477" lon="11.467192307208842"><ele>142.0</ele><time>2026-05-02T08:34:49.999Z</time></trkpt><trkpt lat="43.133584993227636" lon="11.467500480626695"><ele>142.0</ele><time>2026-05-02T08:34:50.999Z</time></trkpt><trkpt lat="43.1336461950092" lon="11.467819374049528"><ele>142.0</ele><time>2026-05-02T08:34:51.999Z</time></trkpt><trkpt lat="43.13370781961632" lon="11.46814598727063"><ele>142.0</ele><time>2026-05-02T08:34:52.999Z</time></trkpt><trkpt lat="43.13377034149891" lon="11.468479152396498"><ele>142.0</ele><time>2026-05-02T08:34:53.999Z</time></trkpt><trkpt lat="43.133833131573546" lon="11.468806388269853"><ele>142.0</ele><time>2026-05-02T08:34:54.999Z</time></trkpt><trkpt lat="43.13389543937937" lon="11.469131331954983"><ele>142.0</ele><time>2026-05-02T08:34:55.999Z</time></trkpt><trkpt lat="43.133957259660704" lon="11.46945170605435"><ele>141.5</ele><time>2026-05-02T08:34:56.999Z</time></trkpt><trkpt lat="43.13401909914717" lon="11.469764946824146"><ele>141.0</ele><time>2026-05-02T08:34:57.999Z</time></trkpt><trkpt lat="43.1340804434645" lon="11.470072150615213"><ele>141.0</ele><time>2026-05-02T08:34:58.999Z</time></trkpt><trkpt lat="43.134139818461605" lon="11.470375084208936"><ele>141.0</ele><time>2026-05-02T08:34:59.999Z</time></trkpt><trkpt lat="43.13419792521508" lon="11.470673611687909"><ele>140.66666666666666</ele><time>2026-05-02T08:35:00.999Z</time></trkpt><trkpt lat="43.13425431800415" lon="11.470959958193394"><ele>140.33333333333331</ele><time>2026-05-02T08:35:01.999Z</time></trkpt><trkpt lat="43.134307254987505" lon="11.471233740254995"><ele>140.0</ele><time>2026-05-02T08:35:02.999Z</time></trkpt><trkpt lat="43.134358894195145" lon="11.471495055937353"><ele>139.33333333333331</ele><time>2026-05-02T08:35:03.999Z</time></trkpt><trkpt lat="43.1344054627343" lon="11.471739143153341"><ele>138.66666666666666</ele><time>2026-05-02T08:35:04.999Z</time></trkpt><trkpt lat="43.13444739810177" lon="11.471964408930694"><ele>138.0</ele><time>2026-05-02T08:35:05.999Z</time></trkpt><trkpt lat="43.13448810363658" lon="11.47217529585959"><ele>138.0</ele><time>2026-05-02T08:35:06.999Z</time></trkpt><trkpt lat="43.13452730006781" lon="11.472380251044168"><ele>138.0</ele><time>2026-05-02T08:35:07.999Z</time></trkpt><trkpt lat="43.13456470469218" lon="11.472572263461728"><ele>138.0</ele><time>2026-05-02T08:35:08.999Z</time></trkpt><trkpt lat="43.13459870249444" lon="11.472755248963976"><ele>138.0</ele><time>2026-05-02T08:35:09.999Z</time></trkpt><trkpt lat="43.134633108976516" lon="11.472937876927993"><ele>138.0</ele><time>2026-05-02T08:35:10.999Z</time></trkpt><trkpt lat="43.13467010457514" lon="11.473119745682094"><ele>138.0</ele><time>2026-05-02T08:35:11.999Z</time></trkpt><trkpt lat="43.13470302030011" lon="11.473302213729738"><ele>138.0</ele><time>2026-05-02T08:35:12.999Z</time></trkpt><trkpt lat="43.13473295742787" lon="11.47348007447626"><ele>138.0</ele><time>2026-05-02T08:35:13.999Z</time></trkpt><trkpt lat="43.134763101637944" lon="11.473654999534869"><ele>138.0</ele><time>2026-05-02T08:35:14.999Z</time></trkpt><trkpt lat="43.13479868961656" lon="11.473836964760515"><ele>138.0</ele><time>2026-05-02T08:35:15.999Z</time></trkpt><trkpt lat="43.13483378338127" lon="11.47402367962109"><ele>138.0</ele><time>2026-05-02T08:35:16.999Z</time></trkpt><trkpt lat="43.1348701098942" lon="11.47421877436846"><ele>138.0</ele><time>2026-05-02T08:35:17.999Z</time></trkpt><trkpt lat="43.13490717430205" lon="11.474415952569773"><ele>138.0</ele><time>2026-05-02T08:35:18.999Z</time></trkpt><trkpt lat="43.13494454450896" lon="11.474616274087674"><ele>138.0</ele><time>2026-05-02T08:35:19.999Z</time></trkpt><trkpt lat="43.13498212031497" lon="11.474818529715305"><ele>138.0</ele><time>2026-05-02T08:35:20.999Z</time></trkpt><trkpt lat="43.135021994418516" lon="11.475021297391097"><ele>138.0</ele><time>2026-05-02T08:35:21.999Z</time></trkpt><trkpt lat="43.13506547874662" lon="11.475218665784789"><ele>138.0</ele><time>2026-05-02T08:35:22.999Z</time></trkpt><trkpt lat="43.13511131222956" lon="11.475409524554422"><ele>138.0</ele><time>2026-05-02T08:35:23.999Z</time></trkpt><trkpt lat="43.135158941217284" lon="11.475594555225761"><ele>138.0</ele><time>2026-05-02T08:35:24.999Z</time></trkpt><trkpt lat="43.13520583325833" lon="11.475771448558021"><ele>138.0</ele><time>2026-05-02T08:35:25.999Z</time></trkpt><trkpt lat="43.13525369609214" lon="11.475950200096706"><ele>138.0</ele><time>2026-05-02T08:35:26.999Z</time></trkpt><trkpt lat="43.13530228252657" lon="11.476131502320102"><ele>138.0</ele><time>2026-05-02T08:35:27.999Z</time></trkpt><trkpt lat="43.135349068408" lon="11.476309717585094"><ele>138.0</ele><time>2026-05-02T08:35:28.999Z</time></trkpt><trkpt lat="43.13539369315795" lon="11.476488529139303"><ele>138.5</ele><time>2026-05-02T08:35:29.999Z</time></trkpt><trkpt lat="43.13543405983722" lon="11.476671322516518"><ele>139.0</ele><time>2026-05-02T08:35:30.999Z</time></trkpt><trkpt lat="43.1354721666249" lon="11.476850990559258"><ele>139.5</ele><time>2026-05-02T08:35:31.999Z</time></trkpt><trkpt lat="43.135510639330036" lon="11.4770294199375"><ele>140.0</ele><time>2026-05-02T08:35:32.999Z</time></trkpt><trkpt lat="43.1355477348024" lon="11.477205581692695"><ele>140.5</ele><time>2026-05-02T08:35:33.999Z</time></trkpt><trkpt lat="43.13558336619836" lon="11.47738019621135"><ele>141.0</ele><time>2026-05-02T08:35:34.999Z</time></trkpt><trkpt lat="43.135616302098" lon="11.477545390315125"><ele>141.5</ele><time>2026-05-02T08:35:35.999Z</time></trkpt><trkpt lat="43.13565125668701" lon="11.47770415874862"><ele>142.0</ele><time>2026-05-02T08:35:36.999Z</time></trkpt><trkpt lat="43.13568568787504" lon="11.477861288598914"><ele>142.5</ele><time>2026-05-02T08:35:37.999Z</time></trkpt><trkpt lat="43.13571878161142" lon="11.478015624090345"><ele>143.0</ele><time>2026-05-02T08:35:38.999Z</time></trkpt><trkpt lat="43.13575145734983" lon="11.478169038160704"><ele>143.5</ele><time>2026-05-02T08:35:39.999Z</time></trkpt><trkpt lat="43.135784897245145" lon="11.47832383613562"><ele>144.0</ele><time>2026-05-02T08:35:40.999Z</time></trkpt><trkpt lat="43.135817973615985" lon="11.478482263734117"><ele>144.0</ele><time>2026-05-02T08:35:41.999Z</time></trkpt><trkpt lat="43.135849148033394" lon="11.478642402341606"><ele>144.0</ele><time>2026-05-02T08:35:42.999Z</time></trkpt><trkpt lat="43.13588263527763" lon="11.47880293676284"><ele>144.0</ele><time>2026-05-02T08:35:43.999Z</time></trkpt><trkpt lat="43.135919019581515" lon="11.47896132864224"><ele>144.0</ele><time>2026-05-02T08:35:44.999Z</time></trkpt><trkpt lat="43.13595716609151" lon="11.479118537620021"><ele>144.0</ele><time>2026-05-02T08:35:45.999Z</time></trkpt><trkpt lat="43.13599591726784" lon="11.479274568990157"><ele>144.0</ele><time>2026-05-02T08:35:46.999Z</time></trkpt><trkpt lat="43.136032618757085" lon="11.47943056315563"><ele>144.0</ele><time>2026-05-02T08:35:47.999Z</time></trkpt><trkpt lat="43.13606934898195" lon="11.479585447795321"><ele>144.0</ele><time>2026-05-02T08:35:48.999Z</time></trkpt><trkpt lat="43.136105992930126" lon="11.479739099042378"><ele>144.0</ele><time>2026-05-02T08:35:49.999Z</time></trkpt><trkpt lat="43.136144135832346" lon="11.479888730624193"><ele>144.0</ele><time>2026-05-02T08:35:50.999Z</time></trkpt><trkpt lat="43.13618219140805" lon="11.480037761048424"><ele>144.0</ele><time>2026-05-02T08:35:51.999Z</time></trkpt><trkpt lat="43.13621684342581" lon="11.480182514630167"><ele>144.0</ele><time>2026-05-02T08:35:52.999Z</time></trkpt><trkpt lat="43.13624604484947" lon="11.480316958024709"><ele>144.0</ele><time>2026-05-02T08:35:53.999Z</time></trkpt><trkpt lat="43.136276199017395" lon="11.480441097267654"><ele>144.16666666666666</ele><time>2026-05-02T08:35:54.999Z</time></trkpt><trkpt lat="43.136304266840064" lon="11.48055690348029"><ele>144.33333333333334</ele><time>2026-05-02T08:35:55.999Z</time></trkpt><trkpt lat="43.13633167656129" lon="11.480672849758013"><ele>144.5</ele><time>2026-05-02T08:35:56.999Z</time></trkpt><trkpt lat="43.13635715728371" lon="11.480788650079985"><ele>144.66666666666669</ele><time>2026-05-02T08:35:57.999Z</time></trkpt><trkpt lat="43.13638679219446" lon="11.480901132894934"><ele>144.83333333333334</ele><time>2026-05-02T08:35:58.999Z</time></trkpt><trkpt lat="43.13642039842448" lon="11.481010304608457"><ele>145.0</ele><time>2026-05-02T08:35:59.999Z</time></trkpt><trkpt lat="43.13645312941547" lon="11.481122025814559"><ele>145.0</ele><time>2026-05-02T08:36:00.999Z</time></trkpt><trkpt lat="43.136486607133534" lon="11.481237845411437"><ele>145.0</ele><time>2026-05-02T08:36:01.999Z</time></trkpt><trkpt lat="43.13651883611559" lon="11.481356324657119"><ele>145.0</ele><time>2026-05-02T08:36:02.999Z</time></trkpt><trkpt lat="43.13654964935169" lon="11.481474766359181"><ele>145.0</ele><time>2026-05-02T08:36:03.999Z</time></trkpt><trkpt lat="43.13657573037473" lon="11.481586634857628"><ele>145.0</ele><time>2026-05-02T08:36:04.999Z</time></trkpt><trkpt lat="43.13659346849968" lon="11.481684261708741"><ele>145.0</ele><time>2026-05-02T08:36:05.999Z</time></trkpt><trkpt lat="43.136613141127626" lon="11.481823518988213"><ele>145.2</ele><time>2026-05-02T08:36:08Z</time></trkpt><trkpt lat="43.1366275926857" lon="11.48192769568365"><ele>145.4</ele><time>2026-05-02T08:36:11Z</time></trkpt><trkpt lat="43.13665729417919" lon="11.48206042438749"><ele>145.6</ele><time>2026-05-02T08:36:13Z</time></trkpt><trkpt lat="43.13668283168995" lon="11.482195296833767"><ele>145.8</ele><time>2026-05-02T08:36:15Z</time></trkpt><trkpt lat="43.136689955888514" lon="11.482337686089874"><ele>146.0</ele><time>2026-05-02T08:36:17Z</time></trkpt><trkpt lat="43.13669805202355" lon="11.482436867606443"><ele>146.0</ele><time>2026-05-02T08:36:19Z</time></trkpt><trkpt lat="43.136709472918476" lon="11.482544933556678"><ele>146.0</ele><time>2026-05-02T08:36:22Z</time></trkpt><trkpt lat="43.136711551531995" lon="11.482647068397597"><ele>146.0</ele><time>2026-05-02T08:36:25Z</time></trkpt><trkpt lat="43.13672750782548" lon="11.482746210382798"><ele>146.0</ele><time>2026-05-02T08:36:28Z</time></trkpt><trkpt lat="43.13674547555808" lon="11.482871785726273"><ele>146.0</ele><time>2026-05-02T08:36:30Z</time></trkpt><trkpt lat="43.13674856782036" lon="11.482998651240765"><ele>146.0</ele><time>2026-05-02T08:36:32Z</time></trkpt><trkpt lat="43.13675589316265" lon="11.483125408191421"><ele>146.0</ele><time>2026-05-02T08:36:34Z</time></trkpt><trkpt lat="43.13676514614897" lon="11.483247902711904"><ele>146.0</ele><time>2026-05-02T08:36:36Z</time></trkpt><trkpt lat="43.136770366112486" lon="11.483359949734835"><ele>146.0</ele><time>2026-05-02T08:36:39Z</time></trkpt><trkpt lat="43.13685964714092" lon="11.483439383931328"><ele>146.0</ele><time>2026-05-02T08:37:10.999Z</time></trkpt><trkpt lat="43.13692341052229" lon="11.48344337931065"><ele>146.0</ele><time>2026-05-02T08:37:12.999Z</time></trkpt><trkpt lat="43.13707700688592" lon="11.483485725214397"><ele>146.0</ele><time>2026-05-02T08:37:42.999Z</time></trkpt><trkpt lat="43.13717132628009" lon="11.483480034566744"><ele>146.0</ele><time>2026-05-02T08:37:45.999Z</time></trkpt><trkpt lat="43.13726316535118" lon="11.483475911538557"><ele>146.0</ele><time>2026-05-02T08:37:47.999Z</time></trkpt><trkpt lat="43.137378654081125" lon="11.483469674117734"><ele>146.0</ele><time>2026-05-02T08:37:49.999Z</time></trkpt><trkpt lat="43.137441718464565" lon="11.483466764962058"><ele>146.0</ele><time>2026-05-02T08:37:50.999Z</time></trkpt><trkpt lat="43.13750507980541" lon="11.483461880198352"><ele>146.0</ele><time>2026-05-02T08:37:51.999Z</time></trkpt><trkpt lat="43.13761158286113" lon="11.483455327894037"><ele>146.2</ele><time>2026-05-02T08:37:53.999Z</time></trkpt><trkpt lat="43.13772487419786" lon="11.483450913399311"><ele>146.39999999999998</ele><time>2026-05-02T08:37:55.999Z</time></trkpt><trkpt lat="43.13779171543866" lon="11.48344547338178"><ele>146.6</ele><time>2026-05-02T08:37:56.999Z</time></trkpt><trkpt lat="43.13786739697432" lon="11.483441881705753"><ele>146.79999999999998</ele><time>2026-05-02T08:37:57.999Z</time></trkpt><trkpt lat="43.137963415346036" lon="11.483446340108232"><ele>147.0</ele><time>2026-05-02T08:37:58.999Z</time></trkpt><trkpt lat="43.13806543241337" lon="11.483446281511217"><ele>147.0</ele><time>2026-05-02T08:37:59.999Z</time></trkpt><trkpt lat="43.13817148075135" lon="11.483438435345873"><ele>147.0</ele><time>2026-05-02T08:38:00.999Z</time></trkpt><trkpt lat="43.138280240839656" lon="11.483430779812213"><ele>147.0</ele><time>2026-05-02T08:38:01.999Z</time></trkpt><trkpt lat="43.13839108526901" lon="11.48341238933323"><ele>147.0</ele><time>2026-05-02T08:38:02.999Z</time></trkpt><trkpt lat="43.13850626672795" lon="11.483375935224895"><ele>147.0</ele><time>2026-05-02T08:38:03.999Z</time></trkpt><trkpt lat="43.13861441869646" lon="11.483337345664552"><ele>146.79999999999998</ele><time>2026-05-02T08:38:04.999Z</time></trkpt><trkpt lat="43.138716321833705" lon="11.483301875574098"><ele>146.6</ele><time>2026-05-02T08:38:05.999Z</time></trkpt><trkpt lat="43.13881426537663" lon="11.483260580664354"><ele>146.39999999999998</ele><time>2026-05-02T08:38:06.999Z</time></trkpt><trkpt lat="43.13891616334571" lon="11.483211644291242"><ele>146.2</ele><time>2026-05-02T08:38:07.998Z</time></trkpt><trkpt lat="43.139019483355675" lon="11.48314950456012"><ele>146.0</ele><time>2026-05-02T08:38:08.998Z</time></trkpt><trkpt lat="43.13913101886255" lon="11.48308644214771"><ele>145.75</ele><time>2026-05-02T08:38:09.998Z</time></trkpt><trkpt lat="43.13923688699914" lon="11.483013576577925"><ele>145.5</ele><time>2026-05-02T08:38:10.998Z</time></trkpt><trkpt lat="43.13934010812728" lon="11.482930572124213"><ele>145.25</ele><time>2026-05-02T08:38:11.998Z</time></trkpt><trkpt lat="43.13944596554907" lon="11.48285040794439"><ele>145.0</ele><time>2026-05-02T08:38:13Z</time></trkpt><trkpt lat="43.13954523632864" lon="11.482777454126346"><ele>145.4</ele><time>2026-05-02T08:38:14Z</time></trkpt><trkpt lat="43.13963502270073" lon="11.482717959588733"><ele>145.8</ele><time>2026-05-02T08:38:15Z</time></trkpt><trkpt lat="43.13972122879693" lon="11.482655286474131"><ele>146.2</ele><time>2026-05-02T08:38:16Z</time></trkpt><trkpt lat="43.13980917761422" lon="11.48258959995415"><ele>146.6</ele><time>2026-05-02T08:38:17Z</time></trkpt><trkpt lat="43.13989969175443" lon="11.482525718801135"><ele>147.0</ele><time>2026-05-02T08:38:18Z</time></trkpt><trkpt lat="43.13999515210819" lon="11.482457137751606"><ele>146.33333333333334</ele><time>2026-05-02T08:38:19Z</time></trkpt><trkpt lat="43.14008353164839" lon="11.482395481680951"><ele>145.66666666666666</ele><time>2026-05-02T08:38:20Z</time></trkpt><trkpt lat="43.140165597328114" lon="11.482338724389185"><ele>145.0</ele><time>2026-05-02T08:38:21Z</time></trkpt><trkpt lat="43.140239587194905" lon="11.482285224610324"><ele>144.33333333333331</ele><time>2026-05-02T08:38:22Z</time></trkpt><trkpt lat="43.14030833589666" lon="11.482232577525625"><ele>143.66666666666666</ele><time>2026-05-02T08:38:23Z</time></trkpt><trkpt lat="43.14036591040165" lon="11.48218909528363"><ele>143.0</ele><time>2026-05-02T08:38:24Z</time></trkpt><trkpt lat="43.14045351731462" lon="11.482145093557518"><ele>143.0</ele><time>2026-05-02T08:38:26Z</time></trkpt><trkpt lat="43.140520631973594" lon="11.48218756334784"><ele>143.0</ele><time>2026-05-02T08:38:28Z</time></trkpt><trkpt lat="43.140591465587285" lon="11.48221993361467"><ele>143.0</ele><time>2026-05-02T08:38:31Z</time></trkpt><trkpt lat="43.14065646517894" lon="11.482213443678315"><ele>143.0</ele><time>2026-05-02T08:43:03.999Z</time></trkpt><trkpt lat="43.140742266074746" lon="11.482209276643125"><ele>143.0</ele><time>2026-05-02T08:51:07Z</time></trkpt><trkpt lat="43.140776552287804" lon="11.482132081946213"><ele>143.0</ele><time>2026-05-02T08:51:59Z</time></trkpt><trkpt lat="43.140839047456424" lon="11.482010772781738"><ele>142.83333333333331</ele><time>2026-05-02T08:58:13Z</time></trkpt><trkpt lat="43.14086682011582" lon="11.481910920140868"><ele>142.66666666666666</ele><time>2026-05-02T08:58:14.999Z</time></trkpt><trkpt lat="43.140837184903816" lon="11.481832475491162"><ele>142.5</ele><time>2026-05-02T08:58:17.999Z</time></trkpt><trkpt lat="43.14074057609319" lon="11.481873100508977"><ele>142.33333333333334</ele><time>2026-05-02T08:58:19.999Z</time></trkpt><trkpt lat="43.14067686946285" lon="11.481924244187276"><ele>142.16666666666669</ele><time>2026-05-02T08:58:20.999Z</time></trkpt><trkpt lat="43.14061538882737" lon="11.481959484312194"><ele>142.0</ele><time>2026-05-02T08:58:21.999Z</time></trkpt><trkpt lat="43.14052920285427" lon="11.482012344083905"><ele>142.0</ele><time>2026-05-02T08:58:23.999Z</time></trkpt><trkpt lat="43.14046001656489" lon="11.482074169351565"><ele>142.0</ele><time>2026-05-02T08:58:25.999Z</time></trkpt><trkpt lat="43.14037797433566" lon="11.482144360089283"><ele>142.0</ele><time>2026-05-02T08:58:26.999Z</time></trkpt><trkpt lat="43.14028058807509" lon="11.482204222739556"><ele>142.0</ele><time>2026-05-02T08:58:27.999Z</time></trkpt><trkpt lat="43.14017756426398" lon="11.482277260711982"><ele>142.0</ele><time>2026-05-02T08:58:28.999Z</time></trkpt><trkpt lat="43.1400752486745" lon="11.482350115425861"><ele>142.2</ele><time>2026-05-02T08:58:29.999Z</time></trkpt><trkpt lat="43.13996965922585" lon="11.482426673170467"><ele>142.39999999999998</ele><time>2026-05-02T08:58:30.999Z</time></trkpt><trkpt lat="43.13986918605216" lon="11.482494027189095"><ele>142.60000000000002</ele><time>2026-05-02T08:58:31.999Z</time></trkpt><trkpt lat="43.139774360877" lon="11.48256048819139"><ele>142.8</ele><time>2026-05-02T08:58:32.999Z</time></trkpt><trkpt lat="43.139682397422185" lon="11.482619436498895"><ele>143.0</ele><time>2026-05-02T08:58:33.999Z</time></trkpt><trkpt lat="43.139600726206304" lon="11.48267022804158"><ele>143.28571428571428</ele><time>2026-05-02T08:58:34.999Z</time></trkpt><trkpt lat="43.13952998116232" lon="11.482720898941615"><ele>143.57142857142856</ele><time>2026-05-02T08:58:35.999Z</time></trkpt><trkpt lat="43.13946601419525" lon="11.482764060796393"><ele>143.85714285714286</ele><time>2026-05-02T08:58:36.999Z</time></trkpt><trkpt lat="43.13940337347402" lon="11.482806549540893"><ele>144.14285714285714</ele><time>2026-05-02T08:58:37.999Z</time></trkpt><trkpt lat="43.13934198602227" lon="11.482850152594539"><ele>144.42857142857144</ele><time>2026-05-02T08:58:38.999Z</time></trkpt><trkpt lat="43.13928020573356" lon="11.482893921201311"><ele>144.71428571428572</ele><time>2026-05-02T08:58:39.999Z</time></trkpt><trkpt lat="43.13922314411428" lon="11.482931332902293"><ele>145.0</ele><time>2026-05-02T08:58:40.999Z</time></trkpt><trkpt lat="43.139103035569555" lon="11.482999188243218"><ele>145.16666666666669</ele><time>2026-05-02T08:58:42.999Z</time></trkpt><trkpt lat="43.1390330665605" lon="11.483050710401521"><ele>145.33333333333334</ele><time>2026-05-02T08:58:43.999Z</time></trkpt><trkpt lat="43.138956116059894" lon="11.483099074399284"><ele>145.5</ele><time>2026-05-02T08:58:44.999Z</time></trkpt><trkpt lat="43.13887816269576" lon="11.483143853038696"><ele>145.66666666666666</ele><time>2026-05-02T08:58:45.999Z</time></trkpt><trkpt lat="43.13879737820725" lon="11.48318492713749"><ele>145.83333333333331</ele><time>2026-05-02T08:58:46.999Z</time></trkpt><trkpt lat="43.138717654562505" lon="11.483218582906613"><ele>146.0</ele><time>2026-05-02T08:58:47.999Z</time></trkpt><trkpt lat="43.13864711582536" lon="11.483243436981857"><ele>146.0</ele><time>2026-05-02T08:58:48.999Z</time></trkpt><trkpt lat="43.13857846892388" lon="11.483265522588468"><ele>146.0</ele><time>2026-05-02T08:58:51.999Z</time></trkpt><trkpt lat="43.13850035864341" lon="11.483281212727011"><ele>146.0</ele><time>2026-05-02T08:58:55.999Z</time></trkpt><trkpt lat="43.13840049979422" lon="11.483306956458728"><ele>146.0</ele><time>2026-05-02T08:58:57.999Z</time></trkpt><trkpt lat="43.138283994391216" lon="11.483324309469062"><ele>146.0</ele><time>2026-05-02T08:58:59.999Z</time></trkpt><trkpt lat="43.13822072975335" lon="11.483335217781057"><ele>146.0</ele><time>2026-05-02T08:59:00.999Z</time></trkpt><trkpt lat="43.1381484774505" lon="11.483343472718758"><ele>146.16666666666666</ele><time>2026-05-02T08:59:01.999Z</time></trkpt><trkpt lat="43.13807553064167" lon="11.483350974196057"><ele>146.33333333333331</ele><time>2026-05-02T08:59:02.999Z</time></trkpt><trkpt lat="43.138001795611" lon="11.483353409357074"><ele>146.5</ele><time>2026-05-02T08:59:03.999Z</time></trkpt><trkpt lat="43.13793603014111" lon="11.483350314347256"><ele>146.66666666666666</ele><time>2026-05-02T08:59:04.999Z</time></trkpt><trkpt lat="43.137818964299576" lon="11.48334881201064"><ele>146.83333333333334</ele><time>2026-05-02T08:59:06.999Z</time></trkpt><trkpt lat="43.137751851887444" lon="11.483349915162101"><ele>147.0</ele><time>2026-05-02T08:59:07.999Z</time></trkpt><trkpt lat="43.137679636621336" lon="11.483350998932886"><ele>147.0</ele><time>2026-05-02T08:59:08.999Z</time></trkpt><trkpt lat="43.13760384112595" lon="11.483351772295858"><ele>147.0</ele><time>2026-05-02T08:59:10Z</time></trkpt><trkpt lat="43.137524412720325" lon="11.48335521060573"><ele>147.0</ele><time>2026-05-02T08:59:11Z</time></trkpt><trkpt lat="43.13743459715495" lon="11.483359689819807"><ele>147.0</ele><time>2026-05-02T08:59:12Z</time></trkpt><trkpt lat="43.137342074166654" lon="11.483363035658092"><ele>147.0</ele><time>2026-05-02T08:59:13Z</time></trkpt><trkpt lat="43.13724586218824" lon="11.483367158404302"><ele>147.0</ele><time>2026-05-02T08:59:14Z</time></trkpt><trkpt lat="43.137154934426675" lon="11.483367871750934"><ele>146.83333333333334</ele><time>2026-05-02T08:59:15Z</time></trkpt><trkpt lat="43.137066795696676" lon="11.483367731281215"><ele>146.66666666666666</ele><time>2026-05-02T08:59:16Z</time></trkpt><trkpt lat="43.13697980061783" lon="11.483371525601722"><ele>146.5</ele><time>2026-05-02T08:59:17Z</time></trkpt><trkpt lat="43.13689975036962" lon="11.483378103670095"><ele>146.33333333333331</ele><time>2026-05-02T08:59:18Z</time></trkpt><trkpt lat="43.13683046065853" lon="11.483371325997213"><ele>146.16666666666666</ele><time>2026-05-02T08:59:19Z</time></trkpt><trkpt lat="43.13677561883154" lon="11.48331504073311"><ele>146.0</ele><time>2026-05-02T08:59:20Z</time></trkpt><trkpt lat="43.13680283187898" lon="11.48310965551435"><ele>146.0</ele><time>2026-05-02T08:59:22Z</time></trkpt><trkpt lat="43.13679604178177" lon="11.482992173484849"><ele>146.0</ele><time>2026-05-02T08:59:23Z</time></trkpt><trkpt lat="43.136789173861736" lon="11.482876651243455"><ele>146.0</ele><time>2026-05-02T08:59:24Z</time></trkpt><trkpt lat="43.13678305785078" lon="11.482775857479854"><ele>146.0</ele><time>2026-05-02T08:59:25Z</time></trkpt><trkpt lat="43.136777975174176" lon="11.482682629604188"><ele>146.0</ele><time>2026-05-02T08:59:26Z</time></trkpt><trkpt lat="43.136755756714194" lon="11.482580154029032"><ele>146.0</ele><time>2026-05-02T08:59:27Z</time></trkpt><trkpt lat="43.1367449913742" lon="11.482471055954417"><ele>146.0</ele><time>2026-05-02T08:59:28Z</time></trkpt><trkpt lat="43.13673505558633" lon="11.482371488383851"><ele>146.0</ele><time>2026-05-02T08:59:29Z</time></trkpt><trkpt lat="43.136722515889964" lon="11.48222226901138"><ele>146.0</ele><time>2026-05-02T08:59:31Z</time></trkpt><trkpt lat="43.13671766225098" lon="11.482111625283846"><ele>146.0</ele><time>2026-05-02T08:59:33Z</time></trkpt><trkpt lat="43.13670840230283" lon="11.48202016370396"><ele>146.0</ele><time>2026-05-02T08:59:36Z</time></trkpt><trkpt lat="43.13671450307575" lon="11.48191306517919"><ele>146.0</ele><time>2026-05-02T08:59:40Z</time></trkpt><trkpt lat="43.13667755203793" lon="11.481761112031657"><ele>146.16666666666666</ele><time>2026-05-02T08:59:42Z</time></trkpt><trkpt lat="43.13665470524711" lon="11.481673528502979"><ele>146.33333333333331</ele><time>2026-05-02T08:59:43Z</time></trkpt><trkpt lat="43.136636926561614" lon="11.481582852554947"><ele>146.5</ele><time>2026-05-02T08:59:44Z</time></trkpt><trkpt lat="43.13661568805069" lon="11.481495979154872"><ele>146.66666666666666</ele><time>2026-05-02T08:59:45Z</time></trkpt><trkpt lat="43.13659479874153" lon="11.481412759886165"><ele>146.83333333333334</ele><time>2026-05-02T08:59:46Z</time></trkpt><trkpt lat="43.13655926302854" lon="11.481270269995429"><ele>147.0</ele><time>2026-05-02T08:59:48Z</time></trkpt><trkpt lat="43.136521542104866" lon="11.481117698041077"><ele>146.66666666666666</ele><time>2026-05-02T08:59:50Z</time></trkpt><trkpt lat="43.136480195286246" lon="11.481024783602345"><ele>146.33333333333334</ele><time>2026-05-02T08:59:51Z</time></trkpt><trkpt lat="43.13646543798693" lon="11.480899520482359"><ele>146.0</ele><time>2026-05-02T08:59:52Z</time></trkpt><trkpt lat="43.13643775588273" lon="11.480791870394187"><ele>145.66666666666669</ele><time>2026-05-02T08:59:53Z</time></trkpt><trkpt lat="43.136413092059286" lon="11.48069615977329"><ele>145.33333333333334</ele><time>2026-05-02T08:59:54Z</time></trkpt><trkpt lat="43.136391624119206" lon="11.480614481649283"><ele>145.0</ele><time>2026-05-02T08:59:55Z</time></trkpt><trkpt lat="43.136370908525485" lon="11.480532225735205"><ele>144.83333333333334</ele><time>2026-05-02T08:59:59Z</time></trkpt><trkpt lat="43.13632178326775" lon="11.48040046922892"><ele>144.66666666666669</ele><time>2026-05-02T09:00:02Z</time></trkpt><trkpt lat="43.13630126137634" lon="11.480311620230488"><ele>144.5</ele><time>2026-05-02T09:00:03Z</time></trkpt><trkpt lat="43.13627872693098" lon="11.480213273338402"><ele>144.33333333333334</ele><time>2026-05-02T09:00:04Z</time></trkpt><trkpt lat="43.13625097605435" lon="11.480100006881493"><ele>144.16666666666666</ele><time>2026-05-02T09:00:05Z</time></trkpt><trkpt lat="43.136219775005266" lon="11.479971535261106"><ele>144.0</ele><time>2026-05-02T09:00:06Z</time></trkpt><trkpt lat="43.1361829015715" lon="11.479831329430803"><ele>144.0</ele><time>2026-05-02T09:00:07Z</time></trkpt><trkpt lat="43.13614568658258" lon="11.479680544822475"><ele>144.0</ele><time>2026-05-02T09:00:08Z</time></trkpt><trkpt lat="43.13610769328258" lon="11.479515605932704"><ele>144.0</ele><time>2026-05-02T09:00:09Z</time></trkpt><trkpt lat="43.13606221550791" lon="11.479334259781327"><ele>144.0</ele><time>2026-05-02T09:00:10Z</time></trkpt><trkpt lat="43.13601758947224" lon="11.47915778937921"><ele>144.0</ele><time>2026-05-02T09:00:11Z</time></trkpt><trkpt lat="43.135976957316146" lon="11.478993821870489"><ele>144.0</ele><time>2026-05-02T09:00:12Z</time></trkpt><trkpt lat="43.13593789342568" lon="11.478831934269785"><ele>144.0</ele><time>2026-05-02T09:00:13Z</time></trkpt><trkpt lat="43.13590310930519" lon="11.478679313641484"><ele>144.0</ele><time>2026-05-02T09:00:14Z</time></trkpt><trkpt lat="43.135870901447035" lon="11.478530128700672"><ele>144.25</ele><time>2026-05-02T09:00:15Z</time></trkpt><trkpt lat="43.13584016657378" lon="11.478378273810964"><ele>144.5</ele><time>2026-05-02T09:00:16Z</time></trkpt><trkpt lat="43.13580633152025" lon="11.478216962939928"><ele>144.75</ele><time>2026-05-02T09:00:17Z</time></trkpt><trkpt lat="43.13577087807163" lon="11.478046488045127"><ele>145.0</ele><time>2026-05-02T09:00:18Z</time></trkpt><trkpt lat="43.1357308905669" lon="11.477865390174921"><ele>144.0</ele><time>2026-05-02T09:00:18.999Z</time></trkpt><trkpt lat="43.13568817443358" lon="11.477670593511382"><ele>143.0</ele><time>2026-05-02T09:00:19.999Z</time></trkpt><trkpt lat="43.13564318908381" lon="11.477459967508844"><ele>142.0</ele><time>2026-05-02T09:00:20.999Z</time></trkpt><trkpt lat="43.13559882314798" lon="11.477245332609758"><ele>141.33333333333334</ele><time>2026-05-02T09:00:21.999Z</time></trkpt><trkpt lat="43.13555232476565" lon="11.477026620683962"><ele>140.66666666666666</ele><time>2026-05-02T09:00:22.999Z</time></trkpt><trkpt lat="43.13550619871062" lon="11.476807571623022"><ele>140.0</ele><time>2026-05-02T09:00:23.999Z</time></trkpt><trkpt lat="43.135456773723995" lon="11.476591202182703"><ele>140.0</ele><time>2026-05-02T09:00:24.999Z</time></trkpt><trkpt lat="43.135405594114076" lon="11.476377642056322"><ele>140.0</ele><time>2026-05-02T09:00:25.999Z</time></trkpt><trkpt lat="43.13535243404546" lon="11.476167458789106"><ele>140.0</ele><time>2026-05-02T09:00:26.999Z</time></trkpt><trkpt lat="43.13529462359846" lon="11.475956683348688"><ele>139.33333333333331</ele><time>2026-05-02T09:00:27.999Z</time></trkpt><trkpt lat="43.13525075888443" lon="11.475728763404216"><ele>138.66666666666666</ele><time>2026-05-02T09:00:28.999Z</time></trkpt><trkpt lat="43.135176730267965" lon="11.475502336777744"><ele>138.0</ele><time>2026-05-02T09:00:29.999Z</time></trkpt><trkpt lat="43.13512115341873" lon="11.475257564999763"><ele>138.0</ele><time>2026-05-02T09:00:30.999Z</time></trkpt><trkpt lat="43.1350677479775" lon="11.475006142608791"><ele>138.0</ele><time>2026-05-02T09:00:31.999Z</time></trkpt><trkpt lat="43.13501679696338" lon="11.474747987468096"><ele>138.0</ele><time>2026-05-02T09:00:32.999Z</time></trkpt><trkpt lat="43.13496728275307" lon="11.474486182159223"><ele>138.0</ele><time>2026-05-02T09:00:33.999Z</time></trkpt><trkpt lat="43.13491696984175" lon="11.474223590277553"><ele>138.0</ele><time>2026-05-02T09:00:34.999Z</time></trkpt><trkpt lat="43.13486599147032" lon="11.47396184319341"><ele>138.0</ele><time>2026-05-02T09:00:35.999Z</time></trkpt><trkpt lat="43.13481388253371" lon="11.473705901596551"><ele>138.0</ele><time>2026-05-02T09:00:36.999Z</time></trkpt><trkpt lat="43.13476513147736" lon="11.47345371170118"><ele>138.0</ele><time>2026-05-02T09:00:37.999Z</time></trkpt><trkpt lat="43.13471855960136" lon="11.47320844347197"><ele>138.0</ele><time>2026-05-02T09:00:38.999Z</time></trkpt><trkpt lat="43.13467259384232" lon="11.472966800614849"><ele>138.0</ele><time>2026-05-02T09:00:39.999Z</time></trkpt><trkpt lat="43.134624900456494" lon="11.47272985232908"><ele>138.0</ele><time>2026-05-02T09:00:40.999Z</time></trkpt><trkpt lat="43.13459423569801" lon="11.472480546893943"><ele>138.0</ele><time>2026-05-02T09:00:41.999Z</time></trkpt><trkpt lat="43.13454474240138" lon="11.47221948572488"><ele>138.0</ele><time>2026-05-02T09:00:42.999Z</time></trkpt><trkpt lat="43.134489618597286" lon="11.471932792532359"><ele>138.0</ele><time>2026-05-02T09:00:43.999Z</time></trkpt><trkpt lat="43.134431782454264" lon="11.471631992633364"><ele>138.0</ele><time>2026-05-02T09:00:44.999Z</time></trkpt><trkpt lat="43.134367576706666" lon="11.471298064657685"><ele>139.0</ele><time>2026-05-02T09:00:45.999Z</time></trkpt><trkpt lat="43.134300974548566" lon="11.470953383689372"><ele>140.0</ele><time>2026-05-02T09:00:46.999Z</time></trkpt><trkpt lat="43.13423434661864" lon="11.470608374714722"><ele>140.5</ele><time>2026-05-02T09:00:47.999Z</time></trkpt><trkpt lat="43.13416829734767" lon="11.470266362169898"><ele>141.0</ele><time>2026-05-02T09:00:48.999Z</time></trkpt><trkpt lat="43.13410311301587" lon="11.46992837641753"><ele>141.5</ele><time>2026-05-02T09:00:49.999Z</time></trkpt><trkpt lat="43.13403750664032" lon="11.469590812358703"><ele>142.0</ele><time>2026-05-02T09:00:50.999Z</time></trkpt><trkpt lat="43.133971654365254" lon="11.469253733190937"><ele>142.0</ele><time>2026-05-02T09:00:51.999Z</time></trkpt><trkpt lat="43.133890280843545" lon="11.468923933649508"><ele>142.0</ele><time>2026-05-02T09:00:52.999Z</time></trkpt><trkpt lat="43.133826807233156" lon="11.468585431613338"><ele>142.0</ele><time>2026-05-02T09:00:53.999Z</time></trkpt><trkpt lat="43.13376391264125" lon="11.46824766145027"><ele>142.0</ele><time>2026-05-02T09:00:54.999Z</time></trkpt><trkpt lat="43.13369833477468" lon="11.467910920163407"><ele>142.0</ele><time>2026-05-02T09:00:55.999Z</time></trkpt><trkpt lat="43.13363339185815" lon="11.467573462184353"><ele>142.0</ele><time>2026-05-02T09:00:56.999Z</time></trkpt><trkpt lat="43.13356755721267" lon="11.467233127333783"><ele>142.5</ele><time>2026-05-02T09:00:57.999Z</time></trkpt><trkpt lat="43.13350260468629" lon="11.46689071383442"><ele>143.0</ele><time>2026-05-02T09:00:58.999Z</time></trkpt><trkpt lat="43.13343967604991" lon="11.466551165170312"><ele>143.5</ele><time>2026-05-02T09:00:59.999Z</time></trkpt><trkpt lat="43.13337728956421" lon="11.466215145157854"><ele>144.0</ele><time>2026-05-02T09:01:00.999Z</time></trkpt><trkpt lat="43.133317110477996" lon="11.46588349541787"><ele>144.0</ele><time>2026-05-02T09:01:01.999Z</time></trkpt><trkpt lat="43.13327380714448" lon="11.465549811622184"><ele>144.0</ele><time>2026-05-02T09:01:02.999Z</time></trkpt><trkpt lat="43.13321622012215" lon="11.465226566275556"><ele>144.0</ele><time>2026-05-02T09:01:03.999Z</time></trkpt><trkpt lat="43.13316074645409" lon="11.464910061394205"><ele>144.0</ele><time>2026-05-02T09:01:04.999Z</time></trkpt><trkpt lat="43.13309415824074" lon="11.464606023452228"><ele>144.0</ele><time>2026-05-02T09:01:05.999Z</time></trkpt><trkpt lat="43.133043380807415" lon="11.464303900964394"><ele>144.0</ele><time>2026-05-02T09:01:06.999Z</time></trkpt><trkpt lat="43.13299713620609" lon="11.464019291404508"><ele>144.0</ele><time>2026-05-02T09:01:07.999Z</time></trkpt><trkpt lat="43.13289201557222" lon="11.463768333559484"><ele>144.33333333333334</ele><time>2026-05-02T09:01:08.999Z</time></trkpt><trkpt lat="43.1327760221013" lon="11.463521830810768"><ele>144.66666666666669</ele><time>2026-05-02T09:01:09.999Z</time></trkpt><trkpt lat="43.1326552412105" lon="11.463279169305228"><ele>145.0</ele><time>2026-05-02T09:01:10.999Z</time></trkpt><trkpt lat="43.13254189726078" lon="11.463039421225252"><ele>145.0</ele><time>2026-05-02T09:01:11.999Z</time></trkpt><trkpt lat="43.13243973696971" lon="11.462801425387767"><ele>145.0</ele><time>2026-05-02T09:01:12.999Z</time></trkpt><trkpt lat="43.13234895639364" lon="11.462574469448187"><ele>145.0</ele><time>2026-05-02T09:01:13.999Z</time></trkpt><trkpt lat="43.132273818886226" lon="11.462371809692163"><ele>145.0</ele><time>2026-05-02T09:01:14.999Z</time></trkpt><trkpt lat="43.13220744283336" lon="11.462190265801574"><ele>145.0</ele><time>2026-05-02T09:01:16Z</time></trkpt><trkpt lat="43.132137070971666" lon="11.462026831624962"><ele>145.0</ele><time>2026-05-02T09:01:17Z</time></trkpt><trkpt lat="43.1320639786037" lon="11.461879974101134"><ele>145.0</ele><time>2026-05-02T09:01:18Z</time></trkpt><trkpt lat="43.13199294085449" lon="11.461748857827027"><ele>145.2</ele><time>2026-05-02T09:01:19Z</time></trkpt><trkpt lat="43.13193581136929" lon="11.461656262839828"><ele>145.4</ele><time>2026-05-02T09:01:20Z</time></trkpt><trkpt lat="43.131897721435486" lon="11.461574922469117"><ele>145.6</ele><time>2026-05-02T09:01:21Z</time></trkpt><trkpt lat="43.13182585466004" lon="11.461447208827511"><ele>145.8</ele><time>2026-05-02T09:01:23Z</time></trkpt><trkpt lat="43.13173252748906" lon="11.46133762657024"><ele>146.0</ele><time>2026-05-02T09:01:25Z</time></trkpt><trkpt lat="43.1317149662066" lon="11.461250102304067"><ele>146.0</ele><time>2026-05-02T09:01:26Z</time></trkpt><trkpt lat="43.131674049851746" lon="11.461177354427473"><ele>146.0</ele><time>2026-05-02T09:01:27Z</time></trkpt><trkpt lat="43.131627937836996" lon="11.461095368844127"><ele>146.0</ele><time>2026-05-02T09:01:28Z</time></trkpt><trkpt lat="43.1315767518004" lon="11.461004361856148"><ele>146.0</ele><time>2026-05-02T09:01:29Z</time></trkpt><trkpt lat="43.131518143711084" lon="11.46090029213734"><ele>146.0</ele><time>2026-05-02T09:01:30Z</time></trkpt><trkpt lat="43.13145581808233" lon="11.460790050795309"><ele>146.0</ele><time>2026-05-02T09:01:31Z</time></trkpt><trkpt lat="43.131394738778894" lon="11.460681537770217"><ele>145.5</ele><time>2026-05-02T09:01:32Z</time></trkpt><trkpt lat="43.13134071035712" lon="11.460585591047598"><ele>145.0</ele><time>2026-05-02T09:01:33Z</time></trkpt><trkpt lat="43.13129808923168" lon="11.46050990192162"><ele>144.5</ele><time>2026-05-02T09:01:34Z</time></trkpt><trkpt lat="43.13123117913291" lon="11.460391079137256"><ele>144.0</ele><time>2026-05-02T09:01:36Z</time></trkpt><trkpt lat="43.1311645032599" lon="11.460386159492534"><ele>143.5</ele><time>2026-05-02T09:01:38Z</time></trkpt><trkpt lat="43.13109872403668" lon="11.460402528581996"><ele>143.0</ele><time>2026-05-02T09:01:39Z</time></trkpt><trkpt lat="43.130990620367896" lon="11.460329038263563"><ele>143.0</ele><time>2026-05-02T09:01:41Z</time></trkpt><trkpt lat="43.130951882521714" lon="11.460236147327594"><ele>143.0</ele><time>2026-05-02T09:01:42Z</time></trkpt><trkpt lat="43.130914264647465" lon="11.460135648259694"><ele>143.0</ele><time>2026-05-02T09:01:43Z</time></trkpt><trkpt lat="43.13087407997219" lon="11.460021401805035"><ele>143.0</ele><time>2026-05-02T09:01:44Z</time></trkpt><trkpt lat="43.13083962132936" lon="11.459913583486717"><ele>143.0</ele><time>2026-05-02T09:01:45Z</time></trkpt><trkpt lat="43.13079463847242" lon="11.459783067421355"><ele>143.0</ele><time>2026-05-02T09:01:46Z</time></trkpt><trkpt lat="43.130730098643724" lon="11.45962033817003"><ele>143.66666666666666</ele><time>2026-05-02T09:01:47Z</time></trkpt><trkpt lat="43.13064916625711" lon="11.459433778441788"><ele>144.33333333333334</ele><time>2026-05-02T09:01:48Z</time></trkpt><trkpt lat="43.13055457342461" lon="11.459229887030599"><ele>145.0</ele><time>2026-05-02T09:01:49Z</time></trkpt><trkpt lat="43.13045015307037" lon="11.458997216152593"><ele>145.0</ele><time>2026-05-02T09:01:50Z</time></trkpt><trkpt lat="43.1303497580524" lon="11.458821486051832"><ele>145.0</ele><time>2026-05-02T09:01:51Z</time></trkpt><trkpt lat="43.13025889490481" lon="11.458661968353448"><ele>145.0</ele><time>2026-05-02T09:01:52Z</time></trkpt><trkpt lat="43.13017996732578" lon="11.458522792555693"><ele>145.0</ele><time>2026-05-02T09:01:53Z</time></trkpt><trkpt lat="43.13011473642152" lon="11.458408300020029"><ele>146.2</ele><time>2026-05-02T09:01:54Z</time></trkpt><trkpt lat="43.13006346190581" lon="11.458318459351306"><ele>147.4</ele><time>2026-05-02T09:01:55Z</time></trkpt><trkpt lat="43.1299882716099" lon="11.458206821603879"><ele>148.6</ele><time>2026-05-02T09:01:57Z</time></trkpt><trkpt lat="43.129960162363474" lon="11.458129277311153"><ele>149.8</ele><time>2026-05-02T09:01:58Z</time></trkpt><trkpt lat="43.12988409465768" lon="11.458009272018952"><ele>151.0</ele><time>2026-05-02T09:01:59Z</time></trkpt><trkpt lat="43.129808831190694" lon="11.45788487988907"><ele>153.5</ele><time>2026-05-02T09:02:00Z</time></trkpt><trkpt lat="43.12973306467555" lon="11.45775249009371"><ele>156.0</ele><time>2026-05-02T09:02:01Z</time></trkpt><trkpt lat="43.129651233093036" lon="11.457607898216274"><ele>158.5</ele><time>2026-05-02T09:02:02Z</time></trkpt><trkpt lat="43.12956576357977" lon="11.457450759103253"><ele>161.0</ele><time>2026-05-02T09:02:03Z</time></trkpt><trkpt lat="43.12946977045291" lon="11.457286840733476"><ele>161.66666666666666</ele><time>2026-05-02T09:02:04Z</time></trkpt><trkpt lat="43.12936921045506" lon="11.457115758562182"><ele>162.33333333333334</ele><time>2026-05-02T09:02:05Z</time></trkpt><trkpt lat="43.129273254737484" lon="11.456947480631918"><ele>163.0</ele><time>2026-05-02T09:02:06Z</time></trkpt><trkpt lat="43.129178189219544" lon="11.45677302126987"><ele>163.0</ele><time>2026-05-02T09:02:07Z</time></trkpt><trkpt lat="43.1290794331353" lon="11.456597818453549"><ele>163.0</ele><time>2026-05-02T09:02:08Z</time></trkpt><trkpt lat="43.12898011356622" lon="11.4564150079918"><ele>163.0</ele><time>2026-05-02T09:02:09Z</time></trkpt><trkpt lat="43.12888177060144" lon="11.456235309774625"><ele>167.0</ele><time>2026-05-02T09:02:10Z</time></trkpt><trkpt lat="43.12878405563448" lon="11.456056945294605"><ele>171.0</ele><time>2026-05-02T09:02:11Z</time></trkpt><trkpt lat="43.128685571312644" lon="11.455882554672726"><ele>175.0</ele><time>2026-05-02T09:02:12Z</time></trkpt><trkpt lat="43.12858758804542" lon="11.4557130989434"><ele>175.0</ele><time>2026-05-02T09:02:13Z</time></trkpt><trkpt lat="43.128476736151086" lon="11.455565176743502"><ele>175.0</ele><time>2026-05-02T09:02:14Z</time></trkpt><trkpt lat="43.12834783212898" lon="11.45544947543292"><ele>175.0</ele><time>2026-05-02T09:02:15Z</time></trkpt><trkpt lat="43.128201055897215" lon="11.455359039221564"><ele>181.0</ele><time>2026-05-02T09:02:16Z</time></trkpt><trkpt lat="43.1280392681326" lon="11.455288512784392"><ele>187.0</ele><time>2026-05-02T09:02:17Z</time></trkpt><trkpt lat="43.127867244356196" lon="11.455215816061765"><ele>193.0</ele><time>2026-05-02T09:02:18Z</time></trkpt><trkpt lat="43.1277024110639" lon="11.45513980151278"><ele>193.0</ele><time>2026-05-02T09:02:18.999Z</time></trkpt><trkpt lat="43.12754520337857" lon="11.455061987400759"><ele>193.0</ele><time>2026-05-02T09:02:19.999Z</time></trkpt><trkpt lat="43.127393065172136" lon="11.454988873077149"><ele>193.0</ele><time>2026-05-02T09:02:20.999Z</time></trkpt><trkpt lat="43.127255603314524" lon="11.454906256409041"><ele>195.75</ele><time>2026-05-02T09:02:21.999Z</time></trkpt><trkpt lat="43.127136159798994" lon="11.454801592952109"><ele>198.5</ele><time>2026-05-02T09:02:22.999Z</time></trkpt><trkpt lat="43.12703311429773" lon="11.454670585735956"><ele>201.25</ele><time>2026-05-02T09:02:23.999Z</time></trkpt><trkpt lat="43.12695413574349" lon="11.454511289149393"><ele>204.0</ele><time>2026-05-02T09:02:24.999Z</time></trkpt><trkpt lat="43.126880493948285" lon="11.454338475014058"><ele>206.25</ele><time>2026-05-02T09:02:25.999Z</time></trkpt><trkpt lat="43.126819566759046" lon="11.454163398101015"><ele>208.5</ele><time>2026-05-02T09:02:26.999Z</time></trkpt><trkpt lat="43.12680455362822" lon="11.453976501398243"><ele>210.75</ele><time>2026-05-02T09:02:27.999Z</time></trkpt><trkpt lat="43.12679270883294" lon="11.453776912695675"><ele>213.0</ele><time>2026-05-02T09:02:28.999Z</time></trkpt><trkpt lat="43.126781885756074" lon="11.453555039801545"><ele>215.0</ele><time>2026-05-02T09:02:29.999Z</time></trkpt><trkpt lat="43.12677296528432" lon="11.453319285379626"><ele>217.0</ele><time>2026-05-02T09:02:30.999Z</time></trkpt><trkpt lat="43.12676865207491" lon="11.453068287605578"><ele>219.0</ele><time>2026-05-02T09:02:31.999Z</time></trkpt><trkpt lat="43.126769489132826" lon="11.452808294146882"><ele>220.0</ele><time>2026-05-02T09:02:32.999Z</time></trkpt><trkpt lat="43.12678009912908" lon="11.452549627198037"><ele>221.0</ele><time>2026-05-02T09:02:33.999Z</time></trkpt><trkpt lat="43.12677495312544" lon="11.452284946948831"><ele>222.0</ele><time>2026-05-02T09:02:34.999Z</time></trkpt><trkpt lat="43.12674029255451" lon="11.452020813001946"><ele>223.0</ele><time>2026-05-02T09:02:35.999Z</time></trkpt><trkpt lat="43.1267178970184" lon="11.451754299006483"><ele>224.0</ele><time>2026-05-02T09:02:36.999Z</time></trkpt><trkpt lat="43.12668956256294" lon="11.451489671369792"><ele>225.0</ele><time>2026-05-02T09:02:37.999Z</time></trkpt><trkpt lat="43.12664395259523" lon="11.451232407286302"><ele>225.0</ele><time>2026-05-02T09:02:38.999Z</time></trkpt><trkpt lat="43.12657416739372" lon="11.450986002010932"><ele>225.0</ele><time>2026-05-02T09:02:39.999Z</time></trkpt><trkpt lat="43.12649817397629" lon="11.450743937317133"><ele>225.0</ele><time>2026-05-02T09:02:40.999Z</time></trkpt><trkpt lat="43.12642081758765" lon="11.450504368584507"><ele>227.0</ele><time>2026-05-02T09:02:41.999Z</time></trkpt><trkpt lat="43.126345309730006" lon="11.45026263196956"><ele>229.0</ele><time>2026-05-02T09:02:42.999Z</time></trkpt><trkpt lat="43.126275867050104" lon="11.45003083725699"><ele>231.0</ele><time>2026-05-02T09:02:43.999Z</time></trkpt><trkpt lat="43.12621468825222" lon="11.449822970645604"><ele>231.0</ele><time>2026-05-02T09:02:44.999Z</time></trkpt><trkpt lat="43.12615766782647" lon="11.449635482957252"><ele>231.0</ele><time>2026-05-02T09:02:45.999Z</time></trkpt><trkpt lat="43.126090078538304" lon="11.449464492950971"><ele>231.0</ele><time>2026-05-02T09:02:46.999Z</time></trkpt><trkpt lat="43.125991331610926" lon="11.449322647730762"><ele>231.0</ele><time>2026-05-02T09:02:47.999Z</time></trkpt><trkpt lat="43.12586513811527" lon="11.449215907119951"><ele>233.66666666666669</ele><time>2026-05-02T09:02:48.999Z</time></trkpt><trkpt lat="43.125723943606246" lon="11.44914000310509"><ele>236.33333333333334</ele><time>2026-05-02T09:02:49.999Z</time></trkpt><trkpt lat="43.1255700256797" lon="11.449082658128493"><ele>239.0</ele><time>2026-05-02T09:02:50.999Z</time></trkpt><trkpt lat="43.12540921420745" lon="11.449027087855859"><ele>239.0</ele><time>2026-05-02T09:02:51.999Z</time></trkpt><trkpt lat="43.12524882609029" lon="11.448969143903431"><ele>239.0</ele><time>2026-05-02T09:02:52.999Z</time></trkpt><trkpt lat="43.125101215262326" lon="11.448908489117745"><ele>239.0</ele><time>2026-05-02T09:02:53.999Z</time></trkpt><trkpt lat="43.12497803874268" lon="11.448844489614078"><ele>239.2</ele><time>2026-05-02T09:02:54.999Z</time></trkpt><trkpt lat="43.12486969133094" lon="11.448786678870778"><ele>239.39999999999998</ele><time>2026-05-02T09:02:55.999Z</time></trkpt><trkpt lat="43.12477188874638" lon="11.44874699759562"><ele>239.6</ele><time>2026-05-02T09:02:56.999Z</time></trkpt><trkpt lat="43.12468897130813" lon="11.448733832323953"><ele>239.8</ele><time>2026-05-02T09:02:57.999Z</time></trkpt><trkpt lat="43.124608107247084" lon="11.448753149003672"><ele>240.0</ele><time>2026-05-02T09:02:58.999Z</time></trkpt><trkpt lat="43.124528368417764" lon="11.44883678209049"><ele>239.25</ele><time>2026-05-02T09:02:59.999Z</time></trkpt><trkpt lat="43.12445354028721" lon="11.448956318182203"><ele>238.5</ele><time>2026-05-02T09:03:00.999Z</time></trkpt><trkpt lat="43.12437180268346" lon="11.449087312396308"><ele>237.75</ele><time>2026-05-02T09:03:01.999Z</time></trkpt><trkpt lat="43.124262163674054" lon="11.449190613199153"><ele>237.0</ele><time>2026-05-02T09:03:02.999Z</time></trkpt><trkpt lat="43.12413538448112" lon="11.449247918986924"><ele>236.25</ele><time>2026-05-02T09:03:03.999Z</time></trkpt><trkpt lat="43.124003428506576" lon="11.449244108831271"><ele>235.5</ele><time>2026-05-02T09:03:04.999Z</time></trkpt><trkpt lat="43.12386756664053" lon="11.449192296299085"><ele>234.75</ele><time>2026-05-02T09:03:05.999Z</time></trkpt><trkpt lat="43.12372482382882" lon="11.449143522357456"><ele>234.0</ele><time>2026-05-02T09:03:06.999Z</time></trkpt><trkpt lat="43.12357754629199" lon="11.44909521900519"><ele>234.0</ele><time>2026-05-02T09:03:07.999Z</time></trkpt><trkpt lat="43.12342771056417" lon="11.449044610984199"><ele>234.0</ele><time>2026-05-02T09:03:08.999Z</time></trkpt><trkpt lat="43.12327375688196" lon="11.44899483544464"><ele>234.0</ele><time>2026-05-02T09:03:09.999Z</time></trkpt><trkpt lat="43.123118011674975" lon="11.448938587547408"><ele>233.0</ele><time>2026-05-02T09:03:10.999Z</time></trkpt><trkpt lat="43.12295861502677" lon="11.448884203417885"><ele>232.0</ele><time>2026-05-02T09:03:11.999Z</time></trkpt><trkpt lat="43.12279801022507" lon="11.448831832722226"><ele>231.0</ele><time>2026-05-02T09:03:12.999Z</time></trkpt><trkpt lat="43.12264378182823" lon="11.448777266740304"><ele>230.66666666666669</ele><time>2026-05-02T09:03:13.999Z</time></trkpt><trkpt lat="43.12249744976714" lon="11.448722412601088"><ele>230.33333333333334</ele><time>2026-05-02T09:03:14.999Z</time></trkpt><trkpt lat="43.12234792465981" lon="11.448669847437252"><ele>230.0</ele><time>2026-05-02T09:03:15.999Z</time></trkpt><trkpt lat="43.12219286100144" lon="11.448617447703091"><ele>228.0</ele><time>2026-05-02T09:03:16.999Z</time></trkpt><trkpt lat="43.12203632363063" lon="11.448560826471237"><ele>226.0</ele><time>2026-05-02T09:03:17.999Z</time></trkpt><trkpt lat="43.12187571845272" lon="11.448502249881654"><ele>224.0</ele><time>2026-05-02T09:03:18.999Z</time></trkpt><trkpt lat="43.12171994280718" lon="11.448448961666017"><ele>224.0</ele><time>2026-05-02T09:03:19.999Z</time></trkpt><trkpt lat="43.1215761389775" lon="11.448388019028672"><ele>224.0</ele><time>2026-05-02T09:03:20.999Z</time></trkpt><trkpt lat="43.121445730173306" lon="11.448328831644316"><ele>224.0</ele><time>2026-05-02T09:03:22Z</time></trkpt><trkpt lat="43.12136280276919" lon="11.448134434258533"><ele>221.66666666666669</ele><time>2026-05-02T09:03:23Z</time></trkpt><trkpt lat="43.12128671363671" lon="11.44794618342532"><ele>219.33333333333331</ele><time>2026-05-02T09:03:24Z</time></trkpt><trkpt lat="43.121212514459735" lon="11.447734326093022"><ele>217.0</ele><time>2026-05-02T09:03:25Z</time></trkpt><trkpt lat="43.121123495485975" lon="11.447517779536858"><ele>217.0</ele><time>2026-05-02T09:03:26Z</time></trkpt><trkpt lat="43.121050141084936" lon="11.447285168398118"><ele>217.0</ele><time>2026-05-02T09:03:27Z</time></trkpt><trkpt lat="43.12097525428941" lon="11.447048727504791"><ele>217.0</ele><time>2026-05-02T09:03:28Z</time></trkpt><trkpt lat="43.12090343576868" lon="11.446819893465085"><ele>215.66666666666666</ele><time>2026-05-02T09:03:29Z</time></trkpt><trkpt lat="43.12083882214644" lon="11.446615453335781"><ele>214.33333333333331</ele><time>2026-05-02T09:03:30Z</time></trkpt><trkpt lat="43.12077872457326" lon="11.446426368872464"><ele>213.0</ele><time>2026-05-02T09:03:31Z</time></trkpt><trkpt lat="43.12072494590532" lon="11.446251600311806"><ele>212.5</ele><time>2026-05-02T09:03:32Z</time></trkpt><trkpt lat="43.12070523003542" lon="11.446078121319164"><ele>212.0</ele><time>2026-05-02T09:03:33Z</time></trkpt><trkpt lat="43.12067081341203" lon="11.44590871676937"><ele>211.5</ele><time>2026-05-02T09:03:34Z</time></trkpt><trkpt lat="43.120725284182804" lon="11.445736682985807"><ele>211.0</ele><time>2026-05-02T09:03:35Z</time></trkpt><trkpt lat="43.12078133278626" lon="11.445563340565732"><ele>211.0</ele><time>2026-05-02T09:03:36Z</time></trkpt><trkpt lat="43.12083672603643" lon="11.445381235151041"><ele>211.0</ele><time>2026-05-02T09:03:37Z</time></trkpt><trkpt lat="43.12086635747167" lon="11.445209130944717"><ele>211.0</ele><time>2026-05-02T09:03:38Z</time></trkpt><trkpt lat="43.120888788937286" lon="11.44504203008063"><ele>211.0</ele><time>2026-05-02T09:03:39Z</time></trkpt><trkpt lat="43.12087673670462" lon="11.444870205592819"><ele>211.0</ele><time>2026-05-02T09:03:40Z</time></trkpt><trkpt lat="43.12082019134931" lon="11.444713065679455"><ele>211.0</ele><time>2026-05-02T09:03:41Z</time></trkpt><trkpt lat="43.12072927721753" lon="11.444576743610222"><ele>211.0</ele><time>2026-05-02T09:03:42Z</time></trkpt><trkpt lat="43.12060199189579" lon="11.444462568614972"><ele>211.0</ele><time>2026-05-02T09:03:43Z</time></trkpt><trkpt lat="43.12045339931088" lon="11.444364066432373"><ele>208.66666666666666</ele><time>2026-05-02T09:03:44Z</time></trkpt><trkpt lat="43.120295546010894" lon="11.444266242999953"><ele>206.33333333333331</ele><time>2026-05-02T09:03:45Z</time></trkpt><trkpt lat="43.12013045060917" lon="11.444155252007672"><ele>204.0</ele><time>2026-05-02T09:03:46Z</time></trkpt><trkpt lat="43.11995837987869" lon="11.444037420337992"><ele>201.33333333333331</ele><time>2026-05-02T09:03:47Z</time></trkpt><trkpt lat="43.119777395252065" lon="11.443919148739289"><ele>198.66666666666666</ele><time>2026-05-02T09:03:48Z</time></trkpt><trkpt lat="43.11959639409704" lon="11.443800951808516"><ele>196.0</ele><time>2026-05-02T09:03:49Z</time></trkpt><trkpt lat="43.119412069143394" lon="11.443674047128972"><ele>194.33333333333331</ele><time>2026-05-02T09:03:50Z</time></trkpt><trkpt lat="43.11923621653022" lon="11.443546892752549"><ele>192.66666666666666</ele><time>2026-05-02T09:03:51Z</time></trkpt><trkpt lat="43.11906791500256" lon="11.443412173979418"><ele>191.0</ele><time>2026-05-02T09:03:52Z</time></trkpt><trkpt lat="43.11891025458158" lon="11.443259161591648"><ele>190.20000000000002</ele><time>2026-05-02T09:03:53Z</time></trkpt><trkpt lat="43.11880580381362" lon="11.443122582884829"><ele>189.4</ele><time>2026-05-02T09:03:54Z</time></trkpt><trkpt lat="43.118735356309195" lon="11.44301981420919"><ele>188.6</ele><time>2026-05-02T09:03:55Z</time></trkpt><trkpt lat="43.118678602020545" lon="11.442951280584653"><ele>187.8</ele><time>2026-05-02T09:03:56Z</time></trkpt><trkpt lat="43.11857750578871" lon="11.4428487205474"><ele>187.0</ele><time>2026-05-02T09:03:58Z</time></trkpt><trkpt lat="43.11851627077139" lon="11.442778088939251"><ele>184.25</ele><time>2026-05-02T09:03:59Z</time></trkpt><trkpt lat="43.11843097179954" lon="11.442696508203202"><ele>181.5</ele><time>2026-05-02T09:04:00Z</time></trkpt><trkpt lat="43.118320064962184" lon="11.442594417621292"><ele>178.75</ele><time>2026-05-02T09:04:01Z</time></trkpt><trkpt lat="43.11819341314087" lon="11.442479395762263"><ele>176.0</ele><time>2026-05-02T09:04:02Z</time></trkpt><trkpt lat="43.11807761018009" lon="11.442379109878136"><ele>176.0</ele><time>2026-05-02T09:04:03Z</time></trkpt><trkpt lat="43.117970007082256" lon="11.442290439638773"><ele>176.0</ele><time>2026-05-02T09:04:04Z</time></trkpt><trkpt lat="43.117865009524444" lon="11.442205192104579"><ele>176.0</ele><time>2026-05-02T09:04:05Z</time></trkpt><trkpt lat="43.11778470017824" lon="11.442100786866211"><ele>176.0</ele><time>2026-05-02T09:04:06Z</time></trkpt><trkpt lat="43.11769431284016" lon="11.442033498424866"><ele>173.25</ele><time>2026-05-02T09:04:07Z</time></trkpt><trkpt lat="43.11760394699021" lon="11.441976086412264"><ele>170.5</ele><time>2026-05-02T09:04:08Z</time></trkpt><trkpt lat="43.117509838103025" lon="11.441929110821075"><ele>167.75</ele><time>2026-05-02T09:04:09Z</time></trkpt><trkpt lat="43.11737839289336" lon="11.441946054837755"><ele>165.0</ele><time>2026-05-02T09:04:10Z</time></trkpt><trkpt lat="43.117255919281575" lon="11.441982539301314"><ele>165.75</ele><time>2026-05-02T09:04:11Z</time></trkpt><trkpt lat="43.11711958992423" lon="11.442068327018488"><ele>166.5</ele><time>2026-05-02T09:04:12Z</time></trkpt><trkpt lat="43.11698206084275" lon="11.442149232743542"><ele>167.25</ele><time>2026-05-02T09:04:13Z</time></trkpt><trkpt lat="43.116863093488554" lon="11.44221326494244"><ele>168.0</ele><time>2026-05-02T09:04:14Z</time></trkpt><trkpt lat="43.11675786614827" lon="11.442253384031517"><ele>168.0</ele><time>2026-05-02T09:04:15Z</time></trkpt><trkpt lat="43.11665922833115" lon="11.442252239864645"><ele>168.0</ele><time>2026-05-02T09:04:16Z</time></trkpt><trkpt lat="43.116545921648374" lon="11.442221248931782"><ele>168.0</ele><time>2026-05-02T09:04:17Z</time></trkpt><trkpt lat="43.11645828866491" lon="11.442135393295466"><ele>168.0</ele><time>2026-05-02T09:04:18Z</time></trkpt><trkpt lat="43.11637006292527" lon="11.442020799243592"><ele>168.0</ele><time>2026-05-02T09:04:19Z</time></trkpt><trkpt lat="43.11626433507344" lon="11.44187841001971"><ele>165.75</ele><time>2026-05-02T09:04:20Z</time></trkpt><trkpt lat="43.11614276789005" lon="11.44173439448752"><ele>163.5</ele><time>2026-05-02T09:04:20.999Z</time></trkpt><trkpt lat="43.116028118759615" lon="11.441601645895517"><ele>161.25</ele><time>2026-05-02T09:04:21.999Z</time></trkpt><trkpt lat="43.11593314628864" lon="11.44148571177866"><ele>159.0</ele><time>2026-05-02T09:04:22.999Z</time></trkpt><trkpt lat="43.11583929915656" lon="11.441383144725245"><ele>159.0</ele><time>2026-05-02T09:04:23.999Z</time></trkpt><trkpt lat="43.115750363957844" lon="11.441303139753408"><ele>159.0</ele><time>2026-05-02T09:04:24.999Z</time></trkpt><trkpt lat="43.11566300483326" lon="11.441237740243102"><ele>159.0</ele><time>2026-05-02T09:04:25.999Z</time></trkpt><trkpt lat="43.1155554383437" lon="11.441190721109248"><ele>159.0</ele><time>2026-05-02T09:04:26.999Z</time></trkpt><trkpt lat="43.11543462051146" lon="11.441211299621449"><ele>159.0</ele><time>2026-05-02T09:04:27.999Z</time></trkpt><trkpt lat="43.11530940469859" lon="11.441229731891237"><ele>155.0</ele><time>2026-05-02T09:04:28.999Z</time></trkpt><trkpt lat="43.11517002534734" lon="11.441257135394714"><ele>151.0</ele><time>2026-05-02T09:04:29.999Z</time></trkpt><trkpt lat="43.115027627864876" lon="11.441286790692592"><ele>147.0</ele><time>2026-05-02T09:04:30.999Z</time></trkpt><trkpt lat="43.11486340957491" lon="11.441307687373259"><ele>145.0</ele><time>2026-05-02T09:04:31.999Z</time></trkpt><trkpt lat="43.11467035956545" lon="11.441325217702222"><ele>143.0</ele><time>2026-05-02T09:04:32.999Z</time></trkpt><trkpt lat="43.1144696298493" lon="11.441337667032826"><ele>141.0</ele><time>2026-05-02T09:04:33.999Z</time></trkpt><trkpt lat="43.11426372622642" lon="11.441350747598568"><ele>139.5</ele><time>2026-05-02T09:04:34.999Z</time></trkpt><trkpt lat="43.11404059058366" lon="11.441369113033218"><ele>138.0</ele><time>2026-05-02T09:04:35.999Z</time></trkpt><trkpt lat="43.11381240922732" lon="11.441388864732577"><ele>138.0</ele><time>2026-05-02T09:04:36.999Z</time></trkpt><trkpt lat="43.1135859639478" lon="11.441409712502356"><ele>138.0</ele><time>2026-05-02T09:04:37.999Z</time></trkpt><trkpt lat="43.11335739174356" lon="11.441432395437223"><ele>137.66666666666666</ele><time>2026-05-02T09:04:38.999Z</time></trkpt><trkpt lat="43.11313223411558" lon="11.441454739529355"><ele>137.33333333333331</ele><time>2026-05-02T09:04:39.999Z</time></trkpt><trkpt lat="43.1129200191963" lon="11.441475799194821"><ele>137.0</ele><time>2026-05-02T09:04:40.999Z</time></trkpt><trkpt lat="43.112724079554965" lon="11.441494516183703"><ele>137.0</ele><time>2026-05-02T09:04:41.999Z</time></trkpt><trkpt lat="43.11254449408152" lon="11.441509703529752"><ele>137.0</ele><time>2026-05-02T09:04:42.999Z</time></trkpt><trkpt lat="43.112380733294316" lon="11.441523820661507"><ele>137.0</ele><time>2026-05-02T09:04:43.999Z</time></trkpt><trkpt lat="43.11222854565206" lon="11.44155872910276"><ele>136.75</ele><time>2026-05-02T09:04:44.999Z</time></trkpt><trkpt lat="43.112082899863566" lon="11.441568181639171"><ele>136.5</ele><time>2026-05-02T09:04:45.999Z</time></trkpt><trkpt lat="43.1119456014943" lon="11.441580701104597"><ele>136.25</ele><time>2026-05-02T09:04:46.999Z</time></trkpt><trkpt lat="43.11181802043506" lon="11.441592815788423"><ele>136.0</ele><time>2026-05-02T09:04:47.999Z</time></trkpt><trkpt lat="43.11169500013572" lon="11.44160292488828"><ele>135.75</ele><time>2026-05-02T09:04:48.999Z</time></trkpt><trkpt lat="43.11156876226634" lon="11.44161607180935"><ele>135.5</ele><time>2026-05-02T09:04:49.999Z</time></trkpt><trkpt lat="43.11144152386337" lon="11.441634408337281"><ele>135.25</ele><time>2026-05-02T09:04:50.999Z</time></trkpt><trkpt lat="43.11130996359571" lon="11.441659601503199"><ele>135.0</ele><time>2026-05-02T09:04:51.999Z</time></trkpt><trkpt lat="43.111178218229625" lon="11.44168190346512"><ele>135.0</ele><time>2026-05-02T09:04:52.999Z</time></trkpt><trkpt lat="43.11104453640579" lon="11.441701916529002"><ele>135.0</ele><time>2026-05-02T09:04:53.999Z</time></trkpt><trkpt lat="43.1109141684467" lon="11.441712572477728"><ele>135.0</ele><time>2026-05-02T09:04:54.999Z</time></trkpt><trkpt lat="43.11078962308849" lon="11.441717391570762"><ele>135.0</ele><time>2026-05-02T09:04:55.999Z</time></trkpt><trkpt lat="43.11066480960409" lon="11.441723988987182"><ele>134.5</ele><time>2026-05-02T09:04:56.999Z</time></trkpt><trkpt lat="43.11053775984445" lon="11.441727902229673"><ele>134.0</ele><time>2026-05-02T09:04:57.999Z</time></trkpt><trkpt lat="43.11040702870088" lon="11.441737672601974"><ele>133.5</ele><time>2026-05-02T09:04:58.999Z</time></trkpt><trkpt lat="43.11025924868708" lon="11.441728660698052"><ele>133.0</ele><time>2026-05-02T09:04:59.999Z</time></trkpt><trkpt lat="43.110098078867225" lon="11.441763538460206"><ele>133.0</ele><time>2026-05-02T09:05:00.999Z</time></trkpt><trkpt lat="43.109931242336415" lon="11.441816242736865"><ele>133.0</ele><time>2026-05-02T09:05:01.999Z</time></trkpt><trkpt lat="43.10974851369912" lon="11.441921320264024"><ele>133.0</ele><time>2026-05-02T09:05:02.999Z</time></trkpt><trkpt lat="43.109535123599585" lon="11.442008714935351"><ele>133.0</ele><time>2026-05-02T09:05:03.999Z</time></trkpt><trkpt lat="43.109308341798105" lon="11.442090957343275"><ele>133.0</ele><time>2026-05-02T09:05:04.999Z</time></trkpt><trkpt lat="43.109073327857374" lon="11.442162439792602"><ele>133.0</ele><time>2026-05-02T09:05:05.999Z</time></trkpt><trkpt lat="43.10885050704395" lon="11.442222787306672"><ele>133.0</ele><time>2026-05-02T09:05:06.999Z</time></trkpt><trkpt lat="43.10864807901043" lon="11.442269734536247"><ele>133.0</ele><time>2026-05-02T09:05:07.999Z</time></trkpt><trkpt lat="43.10846279332737" lon="11.442311542567603"><ele>133.0</ele><time>2026-05-02T09:05:08.999Z</time></trkpt><trkpt lat="43.10829321149798" lon="11.442346534199944"><ele>133.0</ele><time>2026-05-02T09:05:09.999Z</time></trkpt><trkpt lat="43.108137281230896" lon="11.442379010553099"><ele>133.0</ele><time>2026-05-02T09:05:10.999Z</time></trkpt><trkpt lat="43.10800407176649" lon="11.442405969559443"><ele>133.25</ele><time>2026-05-02T09:05:11.999Z</time></trkpt><trkpt lat="43.1078818879046" lon="11.442434620953758"><ele>133.5</ele><time>2026-05-02T09:05:12.999Z</time></trkpt><trkpt lat="43.10776654630754" lon="11.442459462238071"><ele>133.75</ele><time>2026-05-02T09:05:13.999Z</time></trkpt><trkpt lat="43.10765071293102" lon="11.442468270961593"><ele>134.0</ele><time>2026-05-02T09:05:14.999Z</time></trkpt><trkpt lat="43.10753330833733" lon="11.442451411938466"><ele>134.0</ele><time>2026-05-02T09:05:15.999Z</time></trkpt><trkpt lat="43.10742886196386" lon="11.442372580126989"><ele>134.0</ele><time>2026-05-02T09:05:16.999Z</time></trkpt><trkpt lat="43.1073329316096" lon="11.442271269849847"><ele>134.0</ele><time>2026-05-02T09:05:17.999Z</time></trkpt><trkpt lat="43.10724509106961" lon="11.442132590753365"><ele>134.0</ele><time>2026-05-02T09:05:18.999Z</time></trkpt><trkpt lat="43.10713564500739" lon="11.441970753281776"><ele>133.0</ele><time>2026-05-02T09:05:19.999Z</time></trkpt><trkpt lat="43.10700957091799" lon="11.441788199269023"><ele>132.0</ele><time>2026-05-02T09:05:20.999Z</time></trkpt><trkpt lat="43.106877792573805" lon="11.441607010393009"><ele>131.0</ele><time>2026-05-02T09:05:21.999Z</time></trkpt><trkpt lat="43.10673186972205" lon="11.441404375543732"><ele>131.0</ele><time>2026-05-02T09:05:22.999Z</time></trkpt><trkpt lat="43.106577777853275" lon="11.441181107541492"><ele>131.0</ele><time>2026-05-02T09:05:23.999Z</time></trkpt><trkpt lat="43.10642740274492" lon="11.44096683928276"><ele>131.0</ele><time>2026-05-02T09:05:24.999Z</time></trkpt><trkpt lat="43.106282384252054" lon="11.440762315432533"><ele>131.0</ele><time>2026-05-02T09:05:25.999Z</time></trkpt><trkpt lat="43.10613806902092" lon="11.440558783310218"><ele>131.0</ele><time>2026-05-02T09:05:26.999Z</time></trkpt><trkpt lat="43.10599605485585" lon="11.440358496436454"><ele>131.0</ele><time>2026-05-02T09:05:28Z</time></trkpt><trkpt lat="43.105857600068994" lon="11.440166848878821"><ele>130.66666666666666</ele><time>2026-05-02T09:05:29Z</time></trkpt><trkpt lat="43.10571748683576" lon="11.439985625017782"><ele>130.33333333333334</ele><time>2026-05-02T09:05:30Z</time></trkpt><trkpt lat="43.10557893092028" lon="11.439816868210263"><ele>130.0</ele><time>2026-05-02T09:05:31Z</time></trkpt><trkpt lat="43.105446505195225" lon="11.439649856786026"><ele>129.66666666666669</ele><time>2026-05-02T09:05:32Z</time></trkpt><trkpt lat="43.10531723556399" lon="11.439470091797373"><ele>129.33333333333334</ele><time>2026-05-02T09:05:33Z</time></trkpt><trkpt lat="43.10519972975198" lon="11.439282231558137"><ele>129.0</ele><time>2026-05-02T09:05:34Z</time></trkpt><trkpt lat="43.105083922027134" lon="11.439068482528134"><ele>129.0</ele><time>2026-05-02T09:05:35Z</time></trkpt><trkpt lat="43.10495573800146" lon="11.438865093093787"><ele>129.0</ele><time>2026-05-02T09:05:36Z</time></trkpt><trkpt lat="43.104821342093324" lon="11.438659267415074"><ele>129.0</ele><time>2026-05-02T09:05:37Z</time></trkpt><trkpt lat="43.104662475120584" lon="11.438435135215753"><ele>130.0</ele><time>2026-05-02T09:05:38Z</time></trkpt><trkpt lat="43.10449817016163" lon="11.438209622173401"><ele>131.0</ele><time>2026-05-02T09:05:39Z</time></trkpt><trkpt lat="43.10432000928129" lon="11.437965091570913"><ele>131.0</ele><time>2026-05-02T09:05:40Z</time></trkpt><trkpt lat="43.10413811302475" lon="11.437714416012893"><ele>131.0</ele><time>2026-05-02T09:05:41Z</time></trkpt><trkpt lat="43.10395729056416" lon="11.437460513435733"><ele>131.5</ele><time>2026-05-02T09:05:42Z</time></trkpt><trkpt lat="43.103787296255824" lon="11.437215533898376"><ele>132.0</ele><time>2026-05-02T09:05:43Z</time></trkpt><trkpt lat="43.10362991307798" lon="11.436990858665618"><ele>132.66666666666666</ele><time>2026-05-02T09:05:44Z</time></trkpt><trkpt lat="43.103483803707974" lon="11.436784355489662"><ele>133.33333333333331</ele><time>2026-05-02T09:05:45Z</time></trkpt><trkpt lat="43.103338524853505" lon="11.436578050757682"><ele>134.0</ele><time>2026-05-02T09:05:46Z</time></trkpt><trkpt lat="43.10319316989991" lon="11.436373152995056"><ele>134.66666666666666</ele><time>2026-05-02T09:05:47Z</time></trkpt><trkpt lat="43.10303211317909" lon="11.436158848279174"><ele>135.33333333333334</ele><time>2026-05-02T09:05:48Z</time></trkpt><trkpt lat="43.10289669602688" lon="11.435976002102473"><ele>136.0</ele><time>2026-05-02T09:05:49Z</time></trkpt><trkpt lat="43.102763731734065" lon="11.435789350713115"><ele>136.0</ele><time>2026-05-02T09:05:50Z</time></trkpt><trkpt lat="43.10263132335728" lon="11.43560129423622"><ele>136.0</ele><time>2026-05-02T09:05:51Z</time></trkpt><trkpt lat="43.10250253171774" lon="11.43541607158619"><ele>136.0</ele><time>2026-05-02T09:05:52Z</time></trkpt><trkpt lat="43.102389170388285" lon="11.435243964869509"><ele>136.75</ele><time>2026-05-02T09:05:53Z</time></trkpt><trkpt lat="43.10229442152132" lon="11.435080879411297"><ele>137.5</ele><time>2026-05-02T09:05:54Z</time></trkpt><trkpt lat="43.10222763295741" lon="11.434926354785729"><ele>138.25</ele><time>2026-05-02T09:05:55Z</time></trkpt><trkpt lat="43.10220771315598" lon="11.434771406922577"><ele>139.0</ele><time>2026-05-02T09:05:56Z</time></trkpt><trkpt lat="43.10220215207702" lon="11.434611768859671"><ele>140.5</ele><time>2026-05-02T09:05:57Z</time></trkpt><trkpt lat="43.102228204776324" lon="11.434421674801806"><ele>142.0</ele><time>2026-05-02T09:05:58Z</time></trkpt><trkpt lat="43.10226108054194" lon="11.434243075160827"><ele>143.5</ele><time>2026-05-02T09:05:59Z</time></trkpt><trkpt lat="43.10229471525583" lon="11.434055764368477"><ele>145.0</ele><time>2026-05-02T09:06:00Z</time></trkpt><trkpt lat="43.10232420127391" lon="11.433869507073483"><ele>146.25</ele><time>2026-05-02T09:06:01Z</time></trkpt><trkpt lat="43.10234564653532" lon="11.433684663463257"><ele>147.5</ele><time>2026-05-02T09:06:02Z</time></trkpt><trkpt lat="43.102352161511185" lon="11.433509605512082"><ele>148.75</ele><time>2026-05-02T09:06:03Z</time></trkpt><trkpt lat="43.10234975834486" lon="11.433344112291415"><ele>150.0</ele><time>2026-05-02T09:06:04Z</time></trkpt><trkpt lat="43.1023303402793" lon="11.43317773407425"><ele>150.0</ele><time>2026-05-02T09:06:05Z</time></trkpt><trkpt lat="43.10230068366469" lon="11.433026315739257"><ele>150.0</ele><time>2026-05-02T09:06:06Z</time></trkpt><trkpt lat="43.102264775061606" lon="11.432898098108563"><ele>150.0</ele><time>2026-05-02T09:06:07Z</time></trkpt><trkpt lat="43.10221798590421" lon="11.43277322347221"><ele>150.0</ele><time>2026-05-02T09:06:08Z</time></trkpt><trkpt lat="43.1021472098575" lon="11.432655262683458"><ele>150.0</ele><time>2026-05-02T09:06:09Z</time></trkpt><trkpt lat="43.102051735148166" lon="11.4325770915943"><ele>149.0</ele><time>2026-05-02T09:06:10Z</time></trkpt><trkpt lat="43.101957065239276" lon="11.432504935474439"><ele>148.0</ele><time>2026-05-02T09:06:11Z</time></trkpt><trkpt lat="43.10184811305999" lon="11.432456557937824"><ele>147.0</ele><time>2026-05-02T09:06:12Z</time></trkpt><trkpt lat="43.10172641187464" lon="11.432433824088204"><ele>146.0</ele><time>2026-05-02T09:06:13Z</time></trkpt><trkpt lat="43.10159146669359" lon="11.432424045579692"><ele>147.5</ele><time>2026-05-02T09:06:13.999Z</time></trkpt><trkpt lat="43.10144518994705" lon="11.432415530051408"><ele>149.0</ele><time>2026-05-02T09:06:14.999Z</time></trkpt><trkpt lat="43.10129798859855" lon="11.432399866448197"><ele>150.5</ele><time>2026-05-02T09:06:15.999Z</time></trkpt><trkpt lat="43.10114703982966" lon="11.432389397346553"><ele>152.0</ele><time>2026-05-02T09:06:16.999Z</time></trkpt><trkpt lat="43.10099268212828" lon="11.432375160608578"><ele>152.0</ele><time>2026-05-02T09:06:17.999Z</time></trkpt><trkpt lat="43.10083754444563" lon="11.432360088761728"><ele>152.0</ele><time>2026-05-02T09:06:18.999Z</time></trkpt><trkpt lat="43.100680137050034" lon="11.43235365851945"><ele>152.0</ele><time>2026-05-02T09:06:19.999Z</time></trkpt><trkpt lat="43.100524042174364" lon="11.432344057804158"><ele>154.0</ele><time>2026-05-02T09:06:20.999Z</time></trkpt><trkpt lat="43.10036896008558" lon="11.432334283962334"><ele>156.0</ele><time>2026-05-02T09:06:21.999Z</time></trkpt><trkpt lat="43.100215895523874" lon="11.432301832896334"><ele>158.0</ele><time>2026-05-02T09:06:22.999Z</time></trkpt><trkpt lat="43.10006107425446" lon="11.432284756015221"><ele>158.75</ele><time>2026-05-02T09:06:23.999Z</time></trkpt><trkpt lat="43.099908178500876" lon="11.432268642250314"><ele>159.5</ele><time>2026-05-02T09:06:24.999Z</time></trkpt><trkpt lat="43.0997582916685" lon="11.432255341924073"><ele>160.25</ele><time>2026-05-02T09:06:25.999Z</time></trkpt><trkpt lat="43.099613322037456" lon="11.432263963100091"><ele>161.0</ele><time>2026-05-02T09:06:26.999Z</time></trkpt><trkpt lat="43.09947250424214" lon="11.432237609952091"><ele>161.0</ele><time>2026-05-02T09:06:27.999Z</time></trkpt><trkpt lat="43.09933773009036" lon="11.432216335633907"><ele>161.0</ele><time>2026-05-02T09:06:28.999Z</time></trkpt><trkpt lat="43.09920257691557" lon="11.432205264804981"><ele>161.0</ele><time>2026-05-02T09:06:29.999Z</time></trkpt><trkpt lat="43.09907288351259" lon="11.432200603995302"><ele>161.0</ele><time>2026-05-02T09:06:30.999Z</time></trkpt><trkpt lat="43.0989505678827" lon="11.432191353926699"><ele>160.0</ele><time>2026-05-02T09:06:31.999Z</time></trkpt><trkpt lat="43.09883453165097" lon="11.432172476212983"><ele>159.0</ele><time>2026-05-02T09:06:32.999Z</time></trkpt><trkpt lat="43.09871427882802" lon="11.432145352514258"><ele>158.0</ele><time>2026-05-02T09:06:33.999Z</time></trkpt><trkpt lat="43.09859369717477" lon="11.432099473790728"><ele>157.0</ele><time>2026-05-02T09:06:34.999Z</time></trkpt><trkpt lat="43.09848561361139" lon="11.432008186700463"><ele>158.5</ele><time>2026-05-02T09:06:35.999Z</time></trkpt><trkpt lat="43.09837735259471" lon="11.431919803163378"><ele>160.0</ele><time>2026-05-02T09:06:36.999Z</time></trkpt><trkpt lat="43.09826745726897" lon="11.43182527231021"><ele>161.5</ele><time>2026-05-02T09:06:37.999Z</time></trkpt><trkpt lat="43.09815735569203" lon="11.431729581974816"><ele>163.0</ele><time>2026-05-02T09:06:38.999Z</time></trkpt><trkpt lat="43.09804505527809" lon="11.431632638800716"><ele>163.0</ele><time>2026-05-02T09:06:39.999Z</time></trkpt><trkpt lat="43.09793002545439" lon="11.431541669063567"><ele>163.0</ele><time>2026-05-02T09:06:40.999Z</time></trkpt><trkpt lat="43.09781373012508" lon="11.431449036230973"><ele>163.0</ele><time>2026-05-02T09:06:41.999Z</time></trkpt><trkpt lat="43.09769782717802" lon="11.431353831499939"><ele>163.0</ele><time>2026-05-02T09:06:42.999Z</time></trkpt><trkpt lat="43.09758155649746" lon="11.431253995207458"><ele>164.0</ele><time>2026-05-02T09:06:43.999Z</time></trkpt><trkpt lat="43.09746649752903" lon="11.431152280552826"><ele>165.0</ele><time>2026-05-02T09:06:44.999Z</time></trkpt><trkpt lat="43.097350016739625" lon="11.431051567732391"><ele>166.0</ele><time>2026-05-02T09:06:45.999Z</time></trkpt><trkpt lat="43.097232441687474" lon="11.430958236568015"><ele>167.0</ele><time>2026-05-02T09:06:46.999Z</time></trkpt><trkpt lat="43.09711562483714" lon="11.430868063007946"><ele>167.0</ele><time>2026-05-02T09:06:47.999Z</time></trkpt><trkpt lat="43.09699881906255" lon="11.430780180549105"><ele>167.0</ele><time>2026-05-02T09:06:48.999Z</time></trkpt><trkpt lat="43.0968856860937" lon="11.430686354538143"><ele>167.0</ele><time>2026-05-02T09:06:49.999Z</time></trkpt><trkpt lat="43.096780221323634" lon="11.430579785416379"><ele>167.0</ele><time>2026-05-02T09:06:50.999Z</time></trkpt><trkpt lat="43.09667719329979" lon="11.430468208728358"><ele>168.0</ele><time>2026-05-02T09:06:51.999Z</time></trkpt><trkpt lat="43.096565496748845" lon="11.430364573822336"><ele>169.0</ele><time>2026-05-02T09:06:52.999Z</time></trkpt><trkpt lat="43.096479712401376" lon="11.430223130371914"><ele>170.0</ele><time>2026-05-02T09:06:53.999Z</time></trkpt><trkpt lat="43.09638216568413" lon="11.430096711173713"><ele>171.0</ele><time>2026-05-02T09:06:54.999Z</time></trkpt><trkpt lat="43.09628407622193" lon="11.429969588410708"><ele>171.0</ele><time>2026-05-02T09:06:55.999Z</time></trkpt><trkpt lat="43.096183715870254" lon="11.429845249149109"><ele>171.0</ele><time>2026-05-02T09:06:56.999Z</time></trkpt><trkpt lat="43.09608081768119" lon="11.429725524501011"><ele>171.0</ele><time>2026-05-02T09:06:57.999Z</time></trkpt><trkpt lat="43.09596088430546" lon="11.429635250238196"><ele>171.0</ele><time>2026-05-02T09:06:58.999Z</time></trkpt><trkpt lat="43.09584747510154" lon="11.429535545520507"><ele>173.0</ele><time>2026-05-02T09:06:59.999Z</time></trkpt><trkpt lat="43.09572637069125" lon="11.429449302754419"><ele>175.0</ele><time>2026-05-02T09:07:00.999Z</time></trkpt><trkpt lat="43.09560971004612" lon="11.429342051894073"><ele>177.0</ele><time>2026-05-02T09:07:01.999Z</time></trkpt><trkpt lat="43.09548632447456" lon="11.429254583055707"><ele>179.0</ele><time>2026-05-02T09:07:02.999Z</time></trkpt><trkpt lat="43.095362446014406" lon="11.429162896202596"><ele>179.0</ele><time>2026-05-02T09:07:03.999Z</time></trkpt><trkpt lat="43.095238175734146" lon="11.429070559750858"><ele>179.0</ele><time>2026-05-02T09:07:04.999Z</time></trkpt><trkpt lat="43.09511332611431" lon="11.428980919020368"><ele>179.0</ele><time>2026-05-02T09:07:05.999Z</time></trkpt><trkpt lat="43.094988392781666" lon="11.42889211371482"><ele>179.0</ele><time>2026-05-02T09:07:06.999Z</time></trkpt><trkpt lat="43.09486464469822" lon="11.428804149393814"><ele>180.75</ele><time>2026-05-02T09:07:07.999Z</time></trkpt><trkpt lat="43.09473347379747" lon="11.428734357803418"><ele>182.5</ele><time>2026-05-02T09:07:08.999Z</time></trkpt><trkpt lat="43.0946095898234" lon="11.428644467428292"><ele>184.25</ele><time>2026-05-02T09:07:09.999Z</time></trkpt><trkpt lat="43.09448708804433" lon="11.428553241090162"><ele>186.0</ele><time>2026-05-02T09:07:10.999Z</time></trkpt><trkpt lat="43.09436416878797" lon="11.428459211337463"><ele>186.0</ele><time>2026-05-02T09:07:11.999Z</time></trkpt><trkpt lat="43.094240968972194" lon="11.428364156218844"><ele>186.0</ele><time>2026-05-02T09:07:12.999Z</time></trkpt><trkpt lat="43.09411774844146" lon="11.42827447515229"><ele>186.0</ele><time>2026-05-02T09:07:13.999Z</time></trkpt><trkpt lat="43.09399394170473" lon="11.428187428235534"><ele>186.0</ele><time>2026-05-02T09:07:14.999Z</time></trkpt><trkpt lat="43.093870764207516" lon="11.428102449545705"><ele>186.5</ele><time>2026-05-02T09:07:15.999Z</time></trkpt><trkpt lat="43.09374976420038" lon="11.428018476234122"><ele>187.0</ele><time>2026-05-02T09:07:16.999Z</time></trkpt><trkpt lat="43.0936381398535" lon="11.427913923560874"><ele>187.5</ele><time>2026-05-02T09:07:17.999Z</time></trkpt><trkpt lat="43.09351982242489" lon="11.427827546691478"><ele>188.0</ele><time>2026-05-02T09:07:18.999Z</time></trkpt><trkpt lat="43.093401200164976" lon="11.42774094728418"><ele>188.75</ele><time>2026-05-02T09:07:19.999Z</time></trkpt><trkpt lat="43.09328290620198" lon="11.427655098798896"><ele>189.5</ele><time>2026-05-02T09:07:20.999Z</time></trkpt><trkpt lat="43.093163108235025" lon="11.427573027624286"><ele>190.25</ele><time>2026-05-02T09:07:21.999Z</time></trkpt><trkpt lat="43.093044462705606" lon="11.42749061865046"><ele>191.0</ele><time>2026-05-02T09:07:22.999Z</time></trkpt><trkpt lat="43.092926978799376" lon="11.427405341676819"><ele>191.75</ele><time>2026-05-02T09:07:23.999Z</time></trkpt><trkpt lat="43.092802509580174" lon="11.42733734934408"><ele>192.5</ele><time>2026-05-02T09:07:24.999Z</time></trkpt><trkpt lat="43.092687098931115" lon="11.427245225912866"><ele>193.25</ele><time>2026-05-02T09:07:25.999Z</time></trkpt><trkpt lat="43.09257138572458" lon="11.427155317573085"><ele>194.0</ele><time>2026-05-02T09:07:26.999Z</time></trkpt><trkpt lat="43.092453822256076" lon="11.427067087916793"><ele>195.5</ele><time>2026-05-02T09:07:27.999Z</time></trkpt><trkpt lat="43.09233373922984" lon="11.426985349497713"><ele>197.0</ele><time>2026-05-02T09:07:28.999Z</time></trkpt><trkpt lat="43.092213156771585" lon="11.426901747550653"><ele>198.5</ele><time>2026-05-02T09:07:29.999Z</time></trkpt><trkpt lat="43.092094283664956" lon="11.42681332925616"><ele>200.0</ele><time>2026-05-02T09:07:30.999Z</time></trkpt><trkpt lat="43.09197222991302" lon="11.426726016002094"><ele>200.0</ele><time>2026-05-02T09:07:31.999Z</time></trkpt><trkpt lat="43.091849566225214" lon="11.426638715805543"><ele>200.0</ele><time>2026-05-02T09:07:32.999Z</time></trkpt><trkpt lat="43.09173768167626" lon="11.42652598744611"><ele>200.0</ele><time>2026-05-02T09:07:34Z</time></trkpt><trkpt lat="43.09161918691361" lon="11.42643310094891"><ele>200.0</ele><time>2026-05-02T09:07:35Z</time></trkpt><trkpt lat="43.09150217760014" lon="11.426341491352499"><ele>200.75</ele><time>2026-05-02T09:07:36Z</time></trkpt><trkpt lat="43.091387528465624" lon="11.426249837371893"><ele>201.5</ele><time>2026-05-02T09:07:37Z</time></trkpt><trkpt lat="43.09127272252883" lon="11.426159200489865"><ele>202.25</ele><time>2026-05-02T09:07:38Z</time></trkpt><trkpt lat="43.09115418443834" lon="11.42607615076127"><ele>203.0</ele><time>2026-05-02T09:07:39Z</time></trkpt><trkpt lat="43.091024108214654" lon="11.426033957959064"><ele>203.0</ele><time>2026-05-02T09:07:40Z</time></trkpt><trkpt lat="43.09090229764864" lon="11.425972351439256"><ele>203.0</ele><time>2026-05-02T09:07:41Z</time></trkpt><trkpt lat="43.09077143073697" lon="11.425924238958192"><ele>203.0</ele><time>2026-05-02T09:07:42Z</time></trkpt><trkpt lat="43.0906368980146" lon="11.425886833433436"><ele>203.0</ele><time>2026-05-02T09:07:43Z</time></trkpt><trkpt lat="43.09050291366094" lon="11.425852338403475"><ele>204.5</ele><time>2026-05-02T09:07:44Z</time></trkpt><trkpt lat="43.090368364221405" lon="11.425816150033803"><ele>206.0</ele><time>2026-05-02T09:07:45Z</time></trkpt><trkpt lat="43.09023400615009" lon="11.42578027186145"><ele>207.5</ele><time>2026-05-02T09:07:46Z</time></trkpt><trkpt lat="43.09010084583099" lon="11.425741669910856"><ele>209.0</ele><time>2026-05-02T09:07:47Z</time></trkpt><trkpt lat="43.089968299042084" lon="11.425705214340274"><ele>210.25</ele><time>2026-05-02T09:07:48Z</time></trkpt><trkpt lat="43.08983612227124" lon="11.425673300776923"><ele>211.5</ele><time>2026-05-02T09:07:49Z</time></trkpt><trkpt lat="43.089709192209114" lon="11.425614023663313"><ele>212.75</ele><time>2026-05-02T09:07:50Z</time></trkpt><trkpt lat="43.08958134825352" lon="11.425578469504321"><ele>214.0</ele><time>2026-05-02T09:07:51Z</time></trkpt><trkpt lat="43.08945745668474" lon="11.425543282521218"><ele>214.0</ele><time>2026-05-02T09:07:52Z</time></trkpt><trkpt lat="43.089338153610264" lon="11.425511544440191"><ele>213.99999999999997</ele><time>2026-05-02T09:07:53Z</time></trkpt><trkpt lat="43.08922407608989" lon="11.425479972472573"><ele>213.99999999999997</ele><time>2026-05-02T09:07:54Z</time></trkpt><trkpt lat="43.08911964255674" lon="11.425440665369843"><ele>214.0</ele><time>2026-05-02T09:07:55Z</time></trkpt><trkpt lat="43.08902962403601" lon="11.425388486763808"><ele>214.0</ele><time>2026-05-02T09:07:56Z</time></trkpt><trkpt lat="43.088981092128435" lon="11.425299600301665"><ele>218.33333333333331</ele><time>2026-05-02T09:07:57Z</time></trkpt><trkpt lat="43.08895521315412" lon="11.425217292664327"><ele>222.66666666666666</ele><time>2026-05-02T09:07:58Z</time></trkpt><trkpt lat="43.088945872235506" lon="11.42506145961747"><ele>227.0</ele><time>2026-05-02T09:08:00Z</time></trkpt><trkpt lat="43.08895011843863" lon="11.424964829794064"><ele>231.33333333333331</ele><time>2026-05-02T09:08:01Z</time></trkpt><trkpt lat="43.088962124485704" lon="11.424853520895837"><ele>235.66666666666666</ele><time>2026-05-02T09:08:02Z</time></trkpt><trkpt lat="43.08897760375652" lon="11.424734611128644"><ele>240.0</ele><time>2026-05-02T09:08:03Z</time></trkpt><trkpt lat="43.088998852060165" lon="11.424606600779715"><ele>238.2</ele><time>2026-05-02T09:08:04Z</time></trkpt><trkpt lat="43.089024021729124" lon="11.424474831481604"><ele>236.4</ele><time>2026-05-02T09:08:05Z</time></trkpt><trkpt lat="43.08905021952467" lon="11.424343905493087"><ele>234.60000000000002</ele><time>2026-05-02T09:08:06Z</time></trkpt><trkpt lat="43.08907859969165" lon="11.424202072868765"><ele>232.8</ele><time>2026-05-02T09:08:07Z</time></trkpt><trkpt lat="43.089106363796915" lon="11.424055687171052"><ele>231.0</ele><time>2026-05-02T09:08:08Z</time></trkpt><trkpt lat="43.089135065823086" lon="11.42389686931121"><ele>232.75</ele><time>2026-05-02T09:08:09Z</time></trkpt><trkpt lat="43.08916356539663" lon="11.423724877655886"><ele>234.5</ele><time>2026-05-02T09:08:10Z</time></trkpt><trkpt lat="43.08918331746489" lon="11.423546787057278"><ele>236.25</ele><time>2026-05-02T09:08:11Z</time></trkpt><trkpt lat="43.08919019248873" lon="11.423386211311655"><ele>238.0</ele><time>2026-05-02T09:08:12Z</time></trkpt><trkpt lat="43.08916825136033" lon="11.42324051238901"><ele>238.0</ele><time>2026-05-02T09:08:13Z</time></trkpt><trkpt lat="43.089118351340915" lon="11.423089327406023"><ele>238.0</ele><time>2026-05-02T09:08:14Z</time></trkpt><trkpt lat="43.08906560548219" lon="11.42294591554941"><ele>238.0</ele><time>2026-05-02T09:08:15Z</time></trkpt><trkpt lat="43.089005260508436" lon="11.42279026611817"><ele>238.0</ele><time>2026-05-02T09:08:16Z</time></trkpt><trkpt lat="43.08894207085741" lon="11.422620514056279"><ele>242.75</ele><time>2026-05-02T09:08:17Z</time></trkpt><trkpt lat="43.088876073114164" lon="11.422444331798095"><ele>247.5</ele><time>2026-05-02T09:08:18Z</time></trkpt><trkpt lat="43.08881529245997" lon="11.422283629383694"><ele>252.25</ele><time>2026-05-02T09:08:19Z</time></trkpt><trkpt lat="43.08876570647149" lon="11.422162319070148"><ele>257.0</ele><time>2026-05-02T09:08:20Z</time></trkpt><trkpt lat="43.08870976129426" lon="11.422028682523777"><ele>257.0</ele><time>2026-05-02T09:08:20.999Z</time></trkpt><trkpt lat="43.088660064946275" lon="11.421916415167539"><ele>257.0</ele><time>2026-05-02T09:08:21.999Z</time></trkpt><trkpt lat="43.08860330496644" lon="11.421815068547813"><ele>257.0</ele><time>2026-05-02T09:08:22.999Z</time></trkpt><trkpt lat="43.0885352465422" lon="11.421734680762645"><ele>257.0</ele><time>2026-05-02T09:08:23.999Z</time></trkpt><trkpt lat="43.08845716870039" lon="11.421676865954867"><ele>257.0</ele><time>2026-05-02T09:08:24.999Z</time></trkpt><trkpt lat="43.08836568201517" lon="11.421665655735575"><ele>257.0</ele><time>2026-05-02T09:08:25.999Z</time></trkpt><trkpt lat="43.088294949427144" lon="11.421666346811842"><ele>257.0</ele><time>2026-05-02T09:08:26.999Z</time></trkpt><trkpt lat="43.08822603171727" lon="11.421700623666121"><ele>257.0</ele><time>2026-05-02T09:08:27.999Z</time></trkpt><trkpt lat="43.088149795169414" lon="11.421848206438328"><ele>257.0</ele><time>2026-05-02T09:08:29.999Z</time></trkpt><trkpt lat="43.08812746406307" lon="11.42194135809158"><ele>257.0</ele><time>2026-05-02T09:08:30.999Z</time></trkpt><trkpt lat="43.08810722052568" lon="11.42203539868482"><ele>257.0</ele><time>2026-05-02T09:08:31.999Z</time></trkpt><trkpt lat="43.088079394390455" lon="11.422137016990876"><ele>261.1666666666667</ele><time>2026-05-02T09:08:32.999Z</time></trkpt><trkpt lat="43.08805163464958" lon="11.422236072391984"><ele>265.33333333333337</ele><time>2026-05-02T09:08:33.999Z</time></trkpt><trkpt lat="43.08802848786215" lon="11.422344434556976"><ele>269.5</ele><time>2026-05-02T09:08:34.999Z</time></trkpt><trkpt lat="43.08799676853938" lon="11.422463083014772"><ele>273.6666666666667</ele><time>2026-05-02T09:08:35.999Z</time></trkpt><trkpt lat="43.087965874576035" lon="11.422589159186844"><ele>277.8333333333333</ele><time>2026-05-02T09:08:36.999Z</time></trkpt><trkpt lat="43.0879381712841" lon="11.422712532311145"><ele>282.0</ele><time>2026-05-02T09:08:37.999Z</time></trkpt><trkpt lat="43.08790492521679" lon="11.4228499323845"><ele>282.2</ele><time>2026-05-02T09:08:38.999Z</time></trkpt><trkpt lat="43.08786958357454" lon="11.4229856525363"><ele>282.4</ele><time>2026-05-02T09:08:39.999Z</time></trkpt><trkpt lat="43.08783185546203" lon="11.42310802146806"><ele>282.6</ele><time>2026-05-02T09:08:40.999Z</time></trkpt><trkpt lat="43.08779230828959" lon="11.42321405574178"><ele>282.8</ele><time>2026-05-02T09:08:41.999Z</time></trkpt><trkpt lat="43.08774773807941" lon="11.423320732103978"><ele>283.0</ele><time>2026-05-02T09:08:42.999Z</time></trkpt><trkpt lat="43.08770046291589" lon="11.423414839886835"><ele>283.0</ele><time>2026-05-02T09:08:43.999Z</time></trkpt><trkpt lat="43.08765277858842" lon="11.423479208647837"><ele>283.0</ele><time>2026-05-02T09:08:44.999Z</time></trkpt><trkpt lat="43.087547833263315" lon="11.423521727888987"><ele>283.0</ele><time>2026-05-02T09:08:46.999Z</time></trkpt><trkpt lat="43.087514299504505" lon="11.423437562113792"><ele>283.0</ele><time>2026-05-02T09:08:47.999Z</time></trkpt><trkpt lat="43.08748181097713" lon="11.423301571596314"><ele>283.0</ele><time>2026-05-02T09:08:49.999Z</time></trkpt><trkpt lat="43.087463043886046" lon="11.423195760240286"><ele>283.0</ele><time>2026-05-02T09:08:50.999Z</time></trkpt><trkpt lat="43.08743715104557" lon="11.423051617469879"><ele>287.5</ele><time>2026-05-02T09:08:51.999Z</time></trkpt><trkpt lat="43.08740952393731" lon="11.422898826745712"><ele>292.0</ele><time>2026-05-02T09:08:52.999Z</time></trkpt><trkpt lat="43.08738794590759" lon="11.422772792891292"><ele>296.5</ele><time>2026-05-02T09:08:53.999Z</time></trkpt><trkpt lat="43.087369441858044" lon="11.422687924511893"><ele>301.0</ele><time>2026-05-02T09:08:54.999Z</time></trkpt><trkpt lat="43.08733384687361" lon="11.42260885493175"><ele>305.5</ele><time>2026-05-02T09:08:55.999Z</time></trkpt><trkpt lat="43.08727110690835" lon="11.422556328314739"><ele>310.0</ele><time>2026-05-02T09:08:56.999Z</time></trkpt><trkpt lat="43.08719176308421" lon="11.422589707659384"><ele>310.0</ele><time>2026-05-02T09:08:57.999Z</time></trkpt><trkpt lat="43.0871269467309" lon="11.422711242977332"><ele>310.0</ele><time>2026-05-02T09:08:59.999Z</time></trkpt><trkpt lat="43.087114645322075" lon="11.42282147243404"><ele>310.0</ele><time>2026-05-02T09:09:01.999Z</time></trkpt><trkpt lat="43.08718067261946" lon="11.42285635013995"><ele>310.0</ele><time>2026-05-02T09:10:06Z</time></trkpt><trkpt lat="43.08713341186782" lon="11.42291541338545"><ele>310.0</ele><time>2026-05-02T09:11:29.999Z</time></trkpt><trkpt lat="43.08712402936321" lon="11.423032154130933"><ele>310.0</ele><time>2026-05-02T09:11:40.999Z</time></trkpt><trkpt lat="43.08708566578003" lon="11.423173216643342"><ele>310.0</ele><time>2026-05-02T09:11:42.999Z</time></trkpt><trkpt lat="43.08707875702731" lon="11.423267247493573"><ele>310.0</ele><time>2026-05-02T09:11:53Z</time></trkpt><trkpt lat="43.087058923004214" lon="11.423355795489845"><ele>310.0</ele><time>2026-05-02T09:11:54Z</time></trkpt><trkpt lat="43.08703921153544" lon="11.42345301549161"><ele>310.0</ele><time>2026-05-02T09:11:55Z</time></trkpt><trkpt lat="43.08702934826402" lon="11.42354483806737"><ele>310.0</ele><time>2026-05-02T09:11:56Z</time></trkpt><trkpt lat="43.08699200419049" lon="11.423693049076773"><ele>310.0</ele><time>2026-05-02T09:11:58Z</time></trkpt><trkpt lat="43.086915922441584" lon="11.423831289556714"><ele>311.6</ele><time>2026-05-02T09:12:00Z</time></trkpt><trkpt lat="43.08686431528008" lon="11.423883317209748"><ele>313.2</ele><time>2026-05-02T09:12:01Z</time></trkpt><trkpt lat="43.08674690530985" lon="11.42392993684626"><ele>314.8</ele><time>2026-05-02T09:12:03Z</time></trkpt><trkpt lat="43.086627617318086" lon="11.42389907893963"><ele>316.4</ele><time>2026-05-02T09:12:05Z</time></trkpt><trkpt lat="43.08657977229046" lon="11.423818351242522"><ele>318.0</ele><time>2026-05-02T09:12:06Z</time></trkpt><trkpt lat="43.08648529101142" lon="11.423745954162658"><ele>319.8333333333333</ele><time>2026-05-02T09:12:08Z</time></trkpt><trkpt lat="43.086418209897076" lon="11.423643032440493"><ele>321.6666666666667</ele><time>2026-05-02T09:12:10Z</time></trkpt><trkpt lat="43.086406942140535" lon="11.423515815829841"><ele>323.5</ele><time>2026-05-02T09:12:12Z</time></trkpt><trkpt lat="43.086430643358646" lon="11.42343565665587"><ele>325.33333333333337</ele><time>2026-05-02T09:12:13Z</time></trkpt><trkpt lat="43.08646493240328" lon="11.423352207399432"><ele>327.1666666666667</ele><time>2026-05-02T09:12:14Z</time></trkpt><trkpt lat="43.08649619501813" lon="11.42326900467095"><ele>329.0</ele><time>2026-05-02T09:12:15Z</time></trkpt><trkpt lat="43.08651963969876" lon="11.423184772085726"><ele>329.0</ele><time>2026-05-02T09:12:16Z</time></trkpt><trkpt lat="43.086537525296514" lon="11.423022813678388"><ele>329.0</ele><time>2026-05-02T09:12:18Z</time></trkpt><trkpt lat="43.08653750266658" lon="11.422933257078979"><ele>329.0</ele><time>2026-05-02T09:12:19Z</time></trkpt><trkpt lat="43.08654125546181" lon="11.422839485654439"><ele>329.0</ele><time>2026-05-02T09:12:20Z</time></trkpt><trkpt lat="43.086521671366306" lon="11.422754987071018"><ele>329.0</ele><time>2026-05-02T09:12:21Z</time></trkpt><trkpt lat="43.0864428621614" lon="11.422632561308433"><ele>329.0</ele><time>2026-05-02T09:12:23Z</time></trkpt><trkpt lat="43.08638075844294" lon="11.422592407915163"><ele>329.0</ele><time>2026-05-02T09:12:23.999Z</time></trkpt><trkpt lat="43.08630628833347" lon="11.422585954228742"><ele>329.0</ele><time>2026-05-02T09:12:24.999Z</time></trkpt><trkpt lat="43.08623396358138" lon="11.42263219725386"><ele>329.0</ele><time>2026-05-02T09:12:25.999Z</time></trkpt><trkpt lat="43.086179536768554" lon="11.42269595869532"><ele>329.0</ele><time>2026-05-02T09:12:26.999Z</time></trkpt><trkpt lat="43.08613848545643" lon="11.422779652986376"><ele>329.0</ele><time>2026-05-02T09:12:27.999Z</time></trkpt><trkpt lat="43.086105615789975" lon="11.422863729294413"><ele>329.0</ele><time>2026-05-02T09:12:28.999Z</time></trkpt><trkpt lat="43.08607139860667" lon="11.422940090579708"><ele>329.0</ele><time>2026-05-02T09:12:29.999Z</time></trkpt><trkpt lat="43.08602879637326" lon="11.423024597375619"><ele>329.0</ele><time>2026-05-02T09:12:30.999Z</time></trkpt><trkpt lat="43.08597828233214" lon="11.4231176007796"><ele>329.0</ele><time>2026-05-02T09:12:31.999Z</time></trkpt><trkpt lat="43.08591509525063" lon="11.423203955557735"><ele>329.0</ele><time>2026-05-02T09:12:32.999Z</time></trkpt><trkpt lat="43.08585412269024" lon="11.423269764422901"><ele>329.0</ele><time>2026-05-02T09:12:33.999Z</time></trkpt><trkpt lat="43.085790157999305" lon="11.423310351617996"><ele>329.0</ele><time>2026-05-02T09:12:34.999Z</time></trkpt><trkpt lat="43.08567991863602" lon="11.423230097375486"><ele>329.0</ele><time>2026-05-02T09:12:36.999Z</time></trkpt><trkpt lat="43.08563538507303" lon="11.423155784863727"><ele>332.2</ele><time>2026-05-02T09:12:37.999Z</time></trkpt><trkpt lat="43.08558855072113" lon="11.423063519622623"><ele>335.4</ele><time>2026-05-02T09:12:38.999Z</time></trkpt><trkpt lat="43.085549028467476" lon="11.422956054282153"><ele>338.6</ele><time>2026-05-02T09:12:39.999Z</time></trkpt><trkpt lat="43.08551780709552" lon="11.422835681829815"><ele>341.8</ele><time>2026-05-02T09:12:40.999Z</time></trkpt><trkpt lat="43.08549045091478" lon="11.422706319627329"><ele>345.0</ele><time>2026-05-02T09:12:41.999Z</time></trkpt><trkpt lat="43.0854624028522" lon="11.422576732409706"><ele>345.8</ele><time>2026-05-02T09:12:42.999Z</time></trkpt><trkpt lat="43.085431716413616" lon="11.42244659921791"><ele>346.6</ele><time>2026-05-02T09:12:43.999Z</time></trkpt><trkpt lat="43.085369971458874" lon="11.422331765489831"><ele>347.4</ele><time>2026-05-02T09:12:44.999Z</time></trkpt><trkpt lat="43.085327091040355" lon="11.422213268039068"><ele>348.2</ele><time>2026-05-02T09:12:45.999Z</time></trkpt><trkpt lat="43.08527505847979" lon="11.42210311591413"><ele>349.0</ele><time>2026-05-02T09:12:46.999Z</time></trkpt><trkpt lat="43.08520594880546" lon="11.422002178960296"><ele>348.2</ele><time>2026-05-02T09:12:47.999Z</time></trkpt><trkpt lat="43.08512212724199" lon="11.421914220495927"><ele>347.4</ele><time>2026-05-02T09:12:48.999Z</time></trkpt><trkpt lat="43.0850276845465" lon="11.421838810843955"><ele>346.6</ele><time>2026-05-02T09:12:49.999Z</time></trkpt><trkpt lat="43.0849272812065" lon="11.421769309689848"><ele>345.8</ele><time>2026-05-02T09:12:50.999Z</time></trkpt><trkpt lat="43.084818340633866" lon="11.421725595943542"><ele>345.0</ele><time>2026-05-02T09:12:51.999Z</time></trkpt><trkpt lat="43.0847015157296" lon="11.421699766872377"><ele>345.0</ele><time>2026-05-02T09:12:52.999Z</time></trkpt><trkpt lat="43.084586625628425" lon="11.421669809075507"><ele>345.0</ele><time>2026-05-02T09:12:53.999Z</time></trkpt><trkpt lat="43.0844724998686" lon="11.421619539583546"><ele>345.0</ele><time>2026-05-02T09:12:54.999Z</time></trkpt><trkpt lat="43.084382661444415" lon="11.421469557209642"><ele>345.0</ele><time>2026-05-02T09:12:55.999Z</time></trkpt><trkpt lat="43.084272774501606" lon="11.421398859790216"><ele>345.5</ele><time>2026-05-02T09:12:56.999Z</time></trkpt><trkpt lat="43.084164988781815" lon="11.421307966349236"><ele>346.0</ele><time>2026-05-02T09:12:57.999Z</time></trkpt><trkpt lat="43.084052132104475" lon="11.421215049265582"><ele>346.5</ele><time>2026-05-02T09:12:58.999Z</time></trkpt><trkpt lat="43.083929994872605" lon="11.421128494484845"><ele>347.0</ele><time>2026-05-02T09:12:59.999Z</time></trkpt><trkpt lat="43.08380755827412" lon="11.421044920299053"><ele>347.0</ele><time>2026-05-02T09:13:00.999Z</time></trkpt><trkpt lat="43.0836597688691" lon="11.42104587301587"><ele>347.0</ele><time>2026-05-02T09:13:01.999Z</time></trkpt><trkpt lat="43.083532870016015" lon="11.421002026323974"><ele>347.0</ele><time>2026-05-02T09:13:02.999Z</time></trkpt><trkpt lat="43.08340912791948" lon="11.420962277301282"><ele>347.0</ele><time>2026-05-02T09:13:03.999Z</time></trkpt><trkpt lat="43.08328628034436" lon="11.420926756613573"><ele>349.0</ele><time>2026-05-02T09:13:04.999Z</time></trkpt><trkpt lat="43.08316514385901" lon="11.420888830662136"><ele>351.0</ele><time>2026-05-02T09:13:05.999Z</time></trkpt><trkpt lat="43.083059089569176" lon="11.420740570730365"><ele>353.0</ele><time>2026-05-02T09:13:06.999Z</time></trkpt><trkpt lat="43.0829349027743" lon="11.420702488133674"><ele>355.0</ele><time>2026-05-02T09:13:07.999Z</time></trkpt><trkpt lat="43.08281132638828" lon="11.420665122680237"><ele>355.0</ele><time>2026-05-02T09:13:08.999Z</time></trkpt><trkpt lat="43.08268971276188" lon="11.420631301162558"><ele>355.0</ele><time>2026-05-02T09:13:09.999Z</time></trkpt><trkpt lat="43.082568547625456" lon="11.420601327935085"><ele>355.0</ele><time>2026-05-02T09:13:10.999Z</time></trkpt><trkpt lat="43.08244193789697" lon="11.420573393710441"><ele>355.0</ele><time>2026-05-02T09:13:11.999Z</time></trkpt><trkpt lat="43.08231720081425" lon="11.420551884167866"><ele>354.75</ele><time>2026-05-02T09:13:12.999Z</time></trkpt><trkpt lat="43.0821911392963" lon="11.420538468454914"><ele>354.5</ele><time>2026-05-02T09:13:13.999Z</time></trkpt><trkpt lat="43.08206170110216" lon="11.420532161881397"><ele>354.25</ele><time>2026-05-02T09:13:14.999Z</time></trkpt><trkpt lat="43.08194379206283" lon="11.420535681949898"><ele>354.0</ele><time>2026-05-02T09:13:15.999Z</time></trkpt><trkpt lat="43.08184080642924" lon="11.420510799346266"><ele>355.25</ele><time>2026-05-02T09:13:16.999Z</time></trkpt><trkpt lat="43.0817422634799" lon="11.42044496004796"><ele>356.5</ele><time>2026-05-02T09:13:17.999Z</time></trkpt><trkpt lat="43.081639780593015" lon="11.420354701633025"><ele>357.75</ele><time>2026-05-02T09:13:18.999Z</time></trkpt><trkpt lat="43.08154322620618" lon="11.420249893013313"><ele>359.0</ele><time>2026-05-02T09:13:19.999Z</time></trkpt><trkpt lat="43.08145231115244" lon="11.420129206738128"><ele>360.75</ele><time>2026-05-02T09:13:20.999Z</time></trkpt><trkpt lat="43.08136824743758" lon="11.420003517658312"><ele>362.5</ele><time>2026-05-02T09:13:21.999Z</time></trkpt><trkpt lat="43.08129892964826" lon="11.41987647517536"><ele>364.25</ele><time>2026-05-02T09:13:22.999Z</time></trkpt><trkpt lat="43.08122648678759" lon="11.419750464391743"><ele>366.0</ele><time>2026-05-02T09:13:23.999Z</time></trkpt><trkpt lat="43.0811478487287" lon="11.419631596137611"><ele>366.0</ele><time>2026-05-02T09:13:24.999Z</time></trkpt><trkpt lat="43.08104919916634" lon="11.419534183740932"><ele>366.0</ele><time>2026-05-02T09:13:25.999Z</time></trkpt><trkpt lat="43.08094306382202" lon="11.419460672704181"><ele>366.0</ele><time>2026-05-02T09:13:26.999Z</time></trkpt><trkpt lat="43.080833593788235" lon="11.419411041112058"><ele>366.0</ele><time>2026-05-02T09:13:27.999Z</time></trkpt><trkpt lat="43.08072672457305" lon="11.419383220554433"><ele>369.1666666666667</ele><time>2026-05-02T09:13:28.999Z</time></trkpt><trkpt lat="43.080635495879264" lon="11.419364366639469"><ele>372.33333333333337</ele><time>2026-05-02T09:13:29.999Z</time></trkpt><trkpt lat="43.08055215383425" lon="11.419347144379277"><ele>375.5</ele><time>2026-05-02T09:13:30.999Z</time></trkpt><trkpt lat="43.08047934330577" lon="11.419326781742024"><ele>378.6666666666667</ele><time>2026-05-02T09:13:31.999Z</time></trkpt><trkpt lat="43.08040971073588" lon="11.419306352565467"><ele>381.83333333333337</ele><time>2026-05-02T09:13:32.999Z</time></trkpt><trkpt lat="43.080308228132694" lon="11.419235463131876"><ele>385.0</ele><time>2026-05-02T09:13:34.999Z</time></trkpt><trkpt lat="43.08023973054305" lon="11.419119650737812"><ele>385.0</ele><time>2026-05-02T09:13:36.999Z</time></trkpt><trkpt lat="43.080170532757066" lon="11.418994733240439"><ele>385.0</ele><time>2026-05-02T09:13:38.999Z</time></trkpt><trkpt lat="43.080100206019964" lon="11.418852766900644"><ele>385.0</ele><time>2026-05-02T09:13:40.999Z</time></trkpt><trkpt lat="43.08004919982417" lon="11.418769670705936"><ele>385.0</ele><time>2026-05-02T09:13:41.999Z</time></trkpt><trkpt lat="43.079983525347465" lon="11.418699736676688"><ele>385.0</ele><time>2026-05-02T09:13:42.999Z</time></trkpt><trkpt lat="43.079908606594444" lon="11.418643120869504"><ele>386.7142857142857</ele><time>2026-05-02T09:13:43.999Z</time></trkpt><trkpt lat="43.079843519986824" lon="11.418602991803926"><ele>388.42857142857144</ele><time>2026-05-02T09:13:44.999Z</time></trkpt><trkpt lat="43.07978007158352" lon="11.418566636809327"><ele>390.1428571428571</ele><time>2026-05-02T09:13:45.999Z</time></trkpt><trkpt lat="43.07972137435525" lon="11.418534955284194"><ele>391.8571428571429</ele><time>2026-05-02T09:13:46.999Z</time></trkpt><trkpt lat="43.07965500105746" lon="11.418501800107112"><ele>393.57142857142856</ele><time>2026-05-02T09:13:47.998Z</time></trkpt><trkpt lat="43.079585499245795" lon="11.418472786660642"><ele>395.2857142857143</ele><time>2026-05-02T09:13:48.998Z</time></trkpt><trkpt lat="43.079521619438665" lon="11.418447592108924"><ele>397.0</ele><time>2026-05-02T09:13:49.998Z</time></trkpt><trkpt lat="43.07945703603718" lon="11.418421084099732"><ele>397.0</ele><time>2026-05-02T09:13:50.998Z</time></trkpt><trkpt lat="43.079394340486324" lon="11.418390846176417"><ele>397.0</ele><time>2026-05-02T09:13:52Z</time></trkpt><trkpt lat="43.07932998211979" lon="11.418357138106062"><ele>397.0</ele><time>2026-05-02T09:13:53Z</time></trkpt><trkpt lat="43.07926729161018" lon="11.418319789401595"><ele>397.0</ele><time>2026-05-02T09:13:54Z</time></trkpt><trkpt lat="43.07920930664438" lon="11.418278097037053"><ele>397.0</ele><time>2026-05-02T09:13:55Z</time></trkpt><trkpt lat="43.07915509017599" lon="11.418229854757257"><ele>397.0</ele><time>2026-05-02T09:13:56Z</time></trkpt><trkpt lat="43.079099805866825" lon="11.418169717261854"><ele>397.0</ele><time>2026-05-02T09:13:57Z</time></trkpt><trkpt lat="43.07904417144074" lon="11.418108288854551"><ele>396.6666666666667</ele><time>2026-05-02T09:13:58Z</time></trkpt><trkpt lat="43.07897975756618" lon="11.418050508532351"><ele>396.33333333333337</ele><time>2026-05-02T09:13:59Z</time></trkpt><trkpt lat="43.07890428139867" lon="11.418002496868572"><ele>396.0</ele><time>2026-05-02T09:14:00Z</time></trkpt><trkpt lat="43.078820713358" lon="11.417966958504742"><ele>395.66666666666663</ele><time>2026-05-02T09:14:01Z</time></trkpt><trkpt lat="43.07873879523967" lon="11.417946395954989"><ele>395.3333333333333</ele><time>2026-05-02T09:14:02Z</time></trkpt><trkpt lat="43.07866301677168" lon="11.417934424662091"><ele>395.0</ele><time>2026-05-02T09:14:03Z</time></trkpt><trkpt lat="43.07858848831234" lon="11.417925146894527"><ele>395.0</ele><time>2026-05-02T09:14:04Z</time></trkpt><trkpt lat="43.07851286393233" lon="11.417917685201067"><ele>395.0</ele><time>2026-05-02T09:14:05Z</time></trkpt><trkpt lat="43.07844577267385" lon="11.417912265049765"><ele>395.0</ele><time>2026-05-02T09:14:06Z</time></trkpt><trkpt lat="43.078374263918214" lon="11.417906488018481"><ele>395.0</ele><time>2026-05-02T09:14:07Z</time></trkpt><trkpt lat="43.078301896125694" lon="11.417900641587515"><ele>395.0</ele><time>2026-05-02T09:14:08Z</time></trkpt><trkpt lat="43.078232900931454" lon="11.417895809398154"><ele>395.0</ele><time>2026-05-02T09:14:09Z</time></trkpt><trkpt lat="43.07816218206251" lon="11.417890935350073"><ele>395.0</ele><time>2026-05-02T09:14:10Z</time></trkpt><trkpt lat="43.07809072392411" lon="11.417887160572889"><ele>397.0</ele><time>2026-05-02T09:14:11Z</time></trkpt><trkpt lat="43.07802084345798" lon="11.417884742812708"><ele>399.0</ele><time>2026-05-02T09:14:12Z</time></trkpt><trkpt lat="43.077951564046394" lon="11.417883398066262"><ele>401.0</ele><time>2026-05-02T09:14:13Z</time></trkpt><trkpt lat="43.077876109212774" lon="11.417884126013709"><ele>403.0</ele><time>2026-05-02T09:14:14Z</time></trkpt><trkpt lat="43.07780436732041" lon="11.417887467807953"><ele>405.0</ele><time>2026-05-02T09:14:15Z</time></trkpt><trkpt lat="43.07773527445777" lon="11.417890686208755"><ele>407.0</ele><time>2026-05-02T09:14:16Z</time></trkpt><trkpt lat="43.077667859599565" lon="11.417891408423452"><ele>409.0</ele><time>2026-05-02T09:14:17Z</time></trkpt><trkpt lat="43.07759748292554" lon="11.41789039412673"><ele>409.0</ele><time>2026-05-02T09:14:18Z</time></trkpt><trkpt lat="43.077478176044096" lon="11.417864920556934"><ele>409.0</ele><time>2026-05-02T09:14:20Z</time></trkpt><trkpt lat="43.07735629781466" lon="11.41780450579108"><ele>409.0</ele><time>2026-05-02T09:14:22Z</time></trkpt><trkpt lat="43.07729608258921" lon="11.417764844435904"><ele>409.0</ele><time>2026-05-02T09:14:23Z</time></trkpt><trkpt lat="43.077233087949054" lon="11.417718320873627"><ele>409.0</ele><time>2026-05-02T09:14:24Z</time></trkpt><trkpt lat="43.077173574436095" lon="11.41767008093561"><ele>412.00000000000006</ele><time>2026-05-02T09:14:24.999Z</time></trkpt><trkpt lat="43.07711456793974" lon="11.41762142315625"><ele>415.0</ele><time>2026-05-02T09:14:25.999Z</time></trkpt><trkpt lat="43.07705584430452" lon="11.417570835036603"><ele>418.0</ele><time>2026-05-02T09:14:26.999Z</time></trkpt><trkpt lat="43.07695879367578" lon="11.41747372298854"><ele>421.0</ele><time>2026-05-02T09:14:28.999Z</time></trkpt><trkpt lat="43.076919428760995" lon="11.417400363458096"><ele>424.00000000000006</ele><time>2026-05-02T09:14:29.999Z</time></trkpt><trkpt lat="43.07689294401177" lon="11.417320454964534"><ele>427.0</ele><time>2026-05-02T09:14:30.999Z</time></trkpt><trkpt lat="43.07686690220657" lon="11.41723029722354"><ele>427.50000000000006</ele><time>2026-05-02T09:14:31.999Z</time></trkpt><trkpt lat="43.07683287029921" lon="11.417129082031325"><ele>428.0</ele><time>2026-05-02T09:14:32.999Z</time></trkpt><trkpt lat="43.07679112575152" lon="11.417033651649659"><ele>428.5</ele><time>2026-05-02T09:14:33.999Z</time></trkpt><trkpt lat="43.076736207312784" lon="11.416957467910036"><ele>429.0</ele><time>2026-05-02T09:14:34.999Z</time></trkpt><trkpt lat="43.07666531606352" lon="11.416888745322623"><ele>429.50000000000006</ele><time>2026-05-02T09:14:35.999Z</time></trkpt><trkpt lat="43.07658285569998" lon="11.416841726182446"><ele>430.0</ele><time>2026-05-02T09:14:36.999Z</time></trkpt><trkpt lat="43.07649718169588" lon="11.416813346483966"><ele>430.0</ele><time>2026-05-02T09:14:37.999Z</time></trkpt><trkpt lat="43.07642107821196" lon="11.416794949102124"><ele>430.0</ele><time>2026-05-02T09:14:38.999Z</time></trkpt><trkpt lat="43.07634878420985" lon="11.416777017887357"><ele>430.0</ele><time>2026-05-02T09:14:39.999Z</time></trkpt><trkpt lat="43.07627221410677" lon="11.416756548234915"><ele>430.0</ele><time>2026-05-02T09:14:40.999Z</time></trkpt><trkpt lat="43.07619563247011" lon="11.416736075496047"><ele>430.0</ele><time>2026-05-02T09:14:41.999Z</time></trkpt><trkpt lat="43.076131485255935" lon="11.416713223228111"><ele>430.0</ele><time>2026-05-02T09:14:42.999Z</time></trkpt><trkpt lat="43.076067872865124" lon="11.41667932701671"><ele>430.0</ele><time>2026-05-02T09:14:43.999Z</time></trkpt><trkpt lat="43.07600529554479" lon="11.416638825307349"><ele>430.0</ele><time>2026-05-02T09:14:44.999Z</time></trkpt><trkpt lat="43.07594366309759" lon="11.416594597174093"><ele>430.0</ele><time>2026-05-02T09:14:45.999Z</time></trkpt><trkpt lat="43.075878369960925" lon="11.41654676955948"><ele>430.0</ele><time>2026-05-02T09:14:46.999Z</time></trkpt><trkpt lat="43.07581644014037" lon="11.416498463720094"><ele>430.0</ele><time>2026-05-02T09:14:47.999Z</time></trkpt><trkpt lat="43.07575860127656" lon="11.41645237370345"><ele>430.0</ele><time>2026-05-02T09:14:48.999Z</time></trkpt><trkpt lat="43.07569876788212" lon="11.41640469429606"><ele>430.0</ele><time>2026-05-02T09:14:49.999Z</time></trkpt><trkpt lat="43.07563836521645" lon="11.416356561281576"><ele>430.0</ele><time>2026-05-02T09:14:50.999Z</time></trkpt><trkpt lat="43.07557456600964" lon="11.416305974092781"><ele>430.7142857142857</ele><time>2026-05-02T09:14:51.999Z</time></trkpt><trkpt lat="43.07551197984573" lon="11.41625850216473"><ele>431.42857142857144</ele><time>2026-05-02T09:14:52.999Z</time></trkpt><trkpt lat="43.07544876067768" lon="11.416210550113824"><ele>432.14285714285717</ele><time>2026-05-02T09:14:53.999Z</time></trkpt><trkpt lat="43.07538684003964" lon="11.416163582991302"><ele>432.8571428571429</ele><time>2026-05-02T09:14:54.999Z</time></trkpt><trkpt lat="43.07532342880934" lon="11.416115980184216"><ele>433.57142857142856</ele><time>2026-05-02T09:14:55.999Z</time></trkpt><trkpt lat="43.07525814390954" lon="11.416067123051873"><ele>434.28571428571433</ele><time>2026-05-02T09:14:56.999Z</time></trkpt><trkpt lat="43.075191783388746" lon="11.416017791321893"><ele>435.0</ele><time>2026-05-02T09:14:57.999Z</time></trkpt><trkpt lat="43.075123901350466" lon="11.415968889458522"><ele>435.0</ele><time>2026-05-02T09:14:58.999Z</time></trkpt><trkpt lat="43.075051899313145" lon="11.415921635878428"><ele>435.0</ele><time>2026-05-02T09:14:59.999Z</time></trkpt><trkpt lat="43.074975290457175" lon="11.415875573478361"><ele>435.0</ele><time>2026-05-02T09:15:00.999Z</time></trkpt><trkpt lat="43.07489285317363" lon="11.415834089267344"><ele>435.0</ele><time>2026-05-02T09:15:01.999Z</time></trkpt><trkpt lat="43.07481290100575" lon="11.41580367983701"><ele>435.0</ele><time>2026-05-02T09:15:02.999Z</time></trkpt><trkpt lat="43.074736428605156" lon="11.41577962360307"><ele>435.0</ele><time>2026-05-02T09:15:03.999Z</time></trkpt><trkpt lat="43.07465285782494" lon="11.41576382113497"><ele>435.8333333333333</ele><time>2026-05-02T09:15:04.999Z</time></trkpt><trkpt lat="43.07458667521302" lon="11.41574781353921"><ele>436.66666666666663</ele><time>2026-05-02T09:15:05.999Z</time></trkpt><trkpt lat="43.07447355993715" lon="11.41570346751866"><ele>437.5</ele><time>2026-05-02T09:15:07.999Z</time></trkpt><trkpt lat="43.07439347210937" lon="11.415612902230786"><ele>438.3333333333333</ele><time>2026-05-02T09:15:09.999Z</time></trkpt><trkpt lat="43.07435402193827" lon="11.41552822025166"><ele>439.16666666666663</ele><time>2026-05-02T09:15:10.999Z</time></trkpt><trkpt lat="43.07436006210983" lon="11.415419537439298"><ele>440.0</ele><time>2026-05-02T09:15:11.999Z</time></trkpt><trkpt lat="43.07436005717366" lon="11.415305234098692"><ele>441.66666666666663</ele><time>2026-05-02T09:15:12.999Z</time></trkpt><trkpt lat="43.07435298264376" lon="11.415192326786563"><ele>443.3333333333333</ele><time>2026-05-02T09:15:13.999Z</time></trkpt><trkpt lat="43.074333518119936" lon="11.415088514583505"><ele>445.0</ele><time>2026-05-02T09:15:14.999Z</time></trkpt><trkpt lat="43.07432912375407" lon="11.414982240296048"><ele>446.66666666666663</ele><time>2026-05-02T09:15:15.999Z</time></trkpt><trkpt lat="43.07430531024969" lon="11.414876040862314"><ele>448.3333333333333</ele><time>2026-05-02T09:15:16.999Z</time></trkpt><trkpt lat="43.074280231966675" lon="11.414781286618538"><ele>450.0</ele><time>2026-05-02T09:15:17.999Z</time></trkpt><trkpt lat="43.07425961282701" lon="11.4146885611351"><ele>451.1666666666667</ele><time>2026-05-02T09:15:18.999Z</time></trkpt><trkpt lat="43.074230847724145" lon="11.414601448993135"><ele>452.33333333333337</ele><time>2026-05-02T09:15:19.999Z</time></trkpt><trkpt lat="43.074193388286865" lon="11.414523200789949"><ele>453.5</ele><time>2026-05-02T09:15:20.999Z</time></trkpt><trkpt lat="43.07413560822459" lon="11.414443788367109"><ele>454.6666666666667</ele><time>2026-05-02T09:15:21.999Z</time></trkpt><trkpt lat="43.074058446153074" lon="11.414388421257815"><ele>455.83333333333337</ele><time>2026-05-02T09:15:22.999Z</time></trkpt><trkpt lat="43.073975307161795" lon="11.414362786071099"><ele>457.0</ele><time>2026-05-02T09:15:23.999Z</time></trkpt><trkpt lat="43.07389415147678" lon="11.41435012493002"><ele>458.83333333333337</ele><time>2026-05-02T09:15:24.999Z</time></trkpt><trkpt lat="43.073811076723615" lon="11.414341975768314"><ele>460.6666666666667</ele><time>2026-05-02T09:15:25.999Z</time></trkpt><trkpt lat="43.073729222035304" lon="11.414339912507959"><ele>462.5</ele><time>2026-05-02T09:15:26.999Z</time></trkpt><trkpt lat="43.07365231478" lon="11.414338148583953"><ele>464.33333333333337</ele><time>2026-05-02T09:15:27.999Z</time></trkpt><trkpt lat="43.07357931869705" lon="11.414331765413783"><ele>466.1666666666667</ele><time>2026-05-02T09:15:28.999Z</time></trkpt><trkpt lat="43.07350794327389" lon="11.414317846049276"><ele>468.0</ele><time>2026-05-02T09:15:29.999Z</time></trkpt><trkpt lat="43.07343133110201" lon="11.414296833472454"><ele>468.0</ele><time>2026-05-02T09:15:30.999Z</time></trkpt><trkpt lat="43.073357087833784" lon="11.414274827773394"><ele>468.0</ele><time>2026-05-02T09:15:31.999Z</time></trkpt><trkpt lat="43.07328484620658" lon="11.414250568526658"><ele>468.0</ele><time>2026-05-02T09:15:32.999Z</time></trkpt><trkpt lat="43.07319652764497" lon="11.414235600194017"><ele>468.0</ele><time>2026-05-02T09:15:33.999Z</time></trkpt><trkpt lat="43.073117710537595" lon="11.414239032099719"><ele>468.0</ele><time>2026-05-02T09:15:34.999Z</time></trkpt><trkpt lat="43.07304840477163" lon="11.414244102595589"><ele>468.0</ele><time>2026-05-02T09:15:35.999Z</time></trkpt><trkpt lat="43.072976564439166" lon="11.41424673270757"><ele>469.28571428571433</ele><time>2026-05-02T09:15:36.999Z</time></trkpt><trkpt lat="43.0729070423858" lon="11.414251159208487"><ele>470.5714285714286</ele><time>2026-05-02T09:15:37.999Z</time></trkpt><trkpt lat="43.07283439745288" lon="11.414253766252887"><ele>471.8571428571429</ele><time>2026-05-02T09:15:38.999Z</time></trkpt><trkpt lat="43.07275661363572" lon="11.414253833878455"><ele>473.1428571428571</ele><time>2026-05-02T09:15:39.999Z</time></trkpt><trkpt lat="43.07268245963586" lon="11.414246207294003"><ele>474.4285714285714</ele><time>2026-05-02T09:15:40.999Z</time></trkpt><trkpt lat="43.07260799454883" lon="11.414228274081266"><ele>475.71428571428567</ele><time>2026-05-02T09:15:41.999Z</time></trkpt><trkpt lat="43.072540224327014" lon="11.414203390048336"><ele>477.0</ele><time>2026-05-02T09:15:42.999Z</time></trkpt><trkpt lat="43.072472260951294" lon="11.414170145108441"><ele>476.6666666666667</ele><time>2026-05-02T09:15:43.999Z</time></trkpt><trkpt lat="43.072402739964275" lon="11.414128434855101"><ele>476.33333333333337</ele><time>2026-05-02T09:15:44.999Z</time></trkpt><trkpt lat="43.072330553528154" lon="11.414081086730178"><ele>476.0</ele><time>2026-05-02T09:15:45.999Z</time></trkpt><trkpt lat="43.07226712012743" lon="11.414029541362979"><ele>475.6666666666667</ele><time>2026-05-02T09:15:46.999Z</time></trkpt><trkpt lat="43.07219423842211" lon="11.413974299492555"><ele>475.33333333333337</ele><time>2026-05-02T09:15:47.998Z</time></trkpt><trkpt lat="43.07211555699785" lon="11.413920852455727"><ele>475.0</ele><time>2026-05-02T09:15:48.998Z</time></trkpt><trkpt lat="43.07202776758829" lon="11.413880648620289"><ele>475.00000000000006</ele><time>2026-05-02T09:15:49.998Z</time></trkpt><trkpt lat="43.07194460983718" lon="11.413879090496797"><ele>475.0</ele><time>2026-05-02T09:15:50.998Z</time></trkpt><trkpt lat="43.07186771057672" lon="11.413843674554316"><ele>475.0</ele><time>2026-05-02T09:15:51.998Z</time></trkpt><trkpt lat="43.07179441572204" lon="11.41379304495818"><ele>475.0</ele><time>2026-05-02T09:15:52.998Z</time></trkpt><trkpt lat="43.07171528986579" lon="11.413735707382209"><ele>475.00000000000006</ele><time>2026-05-02T09:15:53.998Z</time></trkpt><trkpt lat="43.07164238091757" lon="11.413679141535154"><ele>475.0</ele><time>2026-05-02T09:15:54.998Z</time></trkpt><trkpt lat="43.07156850726334" lon="11.413613373351703"><ele>477.2</ele><time>2026-05-02T09:15:55.998Z</time></trkpt><trkpt lat="43.07148145159496" lon="11.413543584296981"><ele>479.4</ele><time>2026-05-02T09:15:56.998Z</time></trkpt><trkpt lat="43.07137223768652" lon="11.413508987225043"><ele>481.6</ele><time>2026-05-02T09:15:58Z</time></trkpt><trkpt lat="43.07125817517073" lon="11.413532533802371"><ele>483.8</ele><time>2026-05-02T09:15:59Z</time></trkpt><trkpt lat="43.07116597385969" lon="11.413578968744718"><ele>486.0</ele><time>2026-05-02T09:16:00Z</time></trkpt><trkpt lat="43.07109072121309" lon="11.413591369322598"><ele>486.0</ele><time>2026-05-02T09:16:01Z</time></trkpt><trkpt lat="43.07101810555815" lon="11.413581558233552"><ele>486.0</ele><time>2026-05-02T09:16:02Z</time></trkpt><trkpt lat="43.07094748134815" lon="11.413553290173969"><ele>486.0</ele><time>2026-05-02T09:16:03Z</time></trkpt><trkpt lat="43.07088616747973" lon="11.413493518262822"><ele>486.0</ele><time>2026-05-02T09:16:04Z</time></trkpt><trkpt lat="43.070821207838605" lon="11.413410692380287"><ele>486.0</ele><time>2026-05-02T09:16:05Z</time></trkpt><trkpt lat="43.07075065722901" lon="11.41331881565568"><ele>486.0</ele><time>2026-05-02T09:16:06Z</time></trkpt><trkpt lat="43.070688743497534" lon="11.413240071398414"><ele>487.5</ele><time>2026-05-02T09:16:07Z</time></trkpt><trkpt lat="43.07063364175891" lon="11.413170590772769"><ele>489.0</ele><time>2026-05-02T09:16:08Z</time></trkpt><trkpt lat="43.070577215381114" lon="11.413099668319523"><ele>490.5</ele><time>2026-05-02T09:16:09Z</time></trkpt><trkpt lat="43.070522908765604" lon="11.413031410113977"><ele>492.0</ele><time>2026-05-02T09:16:10Z</time></trkpt><trkpt lat="43.070464954787305" lon="11.412967506542076"><ele>493.5</ele><time>2026-05-02T09:16:11Z</time></trkpt><trkpt lat="43.070403905912436" lon="11.412909365390991"><ele>495.0</ele><time>2026-05-02T09:16:12Z</time></trkpt><trkpt lat="43.07032830346723" lon="11.412868178640943"><ele>495.0</ele><time>2026-05-02T09:16:13Z</time></trkpt><trkpt lat="43.070229137314065" lon="11.412869451872258"><ele>495.0</ele><time>2026-05-02T09:16:14Z</time></trkpt><trkpt lat="43.07013765928051" lon="11.412942653042759"><ele>495.0</ele><time>2026-05-02T09:16:15Z</time></trkpt><trkpt lat="43.0700977753327" lon="11.413087965104124"><ele>495.0</ele><time>2026-05-02T09:16:16Z</time></trkpt><trkpt lat="43.0700702455639" lon="11.413170713932033"><ele>495.0</ele><time>2026-05-02T09:16:17Z</time></trkpt><trkpt lat="43.07003723903802" lon="11.413260329361565"><ele>495.0</ele><time>2026-05-02T09:16:18Z</time></trkpt><trkpt lat="43.070004324919815" lon="11.41335723978392"><ele>495.0</ele><time>2026-05-02T09:16:19Z</time></trkpt><trkpt lat="43.06997394948096" lon="11.41346459010799"><ele>495.0</ele><time>2026-05-02T09:16:20Z</time></trkpt><trkpt lat="43.06997762619352" lon="11.41358184179661"><ele>495.0</ele><time>2026-05-02T09:16:21Z</time></trkpt><trkpt lat="43.06996680887095" lon="11.41369300849273"><ele>495.0</ele><time>2026-05-02T09:16:22Z</time></trkpt><trkpt lat="43.0699764803293" lon="11.413806616548294"><ele>495.0</ele><time>2026-05-02T09:16:23Z</time></trkpt><trkpt lat="43.06999113460855" lon="11.413925097247422"><ele>494.8333333333333</ele><time>2026-05-02T09:16:24Z</time></trkpt><trkpt lat="43.070003191193116" lon="11.414043518162213"><ele>494.66666666666663</ele><time>2026-05-02T09:16:25Z</time></trkpt><trkpt lat="43.070009277398576" lon="11.4141653891573"><ele>494.5</ele><time>2026-05-02T09:16:25.999Z</time></trkpt><trkpt lat="43.0700138764162" lon="11.414287931294341"><ele>494.3333333333333</ele><time>2026-05-02T09:16:26.999Z</time></trkpt><trkpt lat="43.069997300939285" lon="11.41440985295743"><ele>494.16666666666663</ele><time>2026-05-02T09:16:27.999Z</time></trkpt><trkpt lat="43.06997436904852" lon="11.414518773219934"><ele>494.0</ele><time>2026-05-02T09:16:28.999Z</time></trkpt><trkpt lat="43.06994076017549" lon="11.414614263141617"><ele>494.8333333333333</ele><time>2026-05-02T09:16:29.999Z</time></trkpt><trkpt lat="43.06989970953849" lon="11.414704684916044"><ele>495.66666666666663</ele><time>2026-05-02T09:16:30.999Z</time></trkpt><trkpt lat="43.06985476819401" lon="11.414796419165842"><ele>496.5</ele><time>2026-05-02T09:16:31.999Z</time></trkpt><trkpt lat="43.06980893414963" lon="11.414886770225934"><ele>497.33333333333337</ele><time>2026-05-02T09:16:32.999Z</time></trkpt><trkpt lat="43.069752974545025" lon="11.414945095790474"><ele>498.1666666666667</ele><time>2026-05-02T09:16:33.999Z</time></trkpt><trkpt lat="43.06968554845486" lon="11.41499347702149"><ele>499.0</ele><time>2026-05-02T09:16:34.999Z</time></trkpt><trkpt lat="43.06960654942701" lon="11.415043396161066"><ele>499.0</ele><time>2026-05-02T09:16:35.999Z</time></trkpt><trkpt lat="43.06951509668773" lon="11.415104157685054"><ele>499.0</ele><time>2026-05-02T09:16:36.999Z</time></trkpt><trkpt lat="43.06942674416733" lon="11.415172570073798"><ele>499.0</ele><time>2026-05-02T09:16:37.999Z</time></trkpt><trkpt lat="43.069332613646814" lon="11.415259339610534"><ele>499.0</ele><time>2026-05-02T09:16:38.999Z</time></trkpt><trkpt lat="43.069249128687225" lon="11.415360515436769"><ele>499.0</ele><time>2026-05-02T09:16:39.999Z</time></trkpt><trkpt lat="43.06916987029721" lon="11.41543594340447"><ele>497.2</ele><time>2026-05-02T09:16:40.999Z</time></trkpt><trkpt lat="43.069082329183125" lon="11.415487099741435"><ele>495.4</ele><time>2026-05-02T09:16:41.999Z</time></trkpt><trkpt lat="43.068987084175035" lon="11.415521926758412"><ele>493.6</ele><time>2026-05-02T09:16:42.999Z</time></trkpt><trkpt lat="43.0688796900878" lon="11.41553273770191"><ele>491.8</ele><time>2026-05-02T09:16:43.999Z</time></trkpt><trkpt lat="43.06875583475902" lon="11.41556482367155"><ele>490.0</ele><time>2026-05-02T09:16:44.999Z</time></trkpt><trkpt lat="43.06862979834387" lon="11.415643332311085"><ele>489.5</ele><time>2026-05-02T09:16:45.999Z</time></trkpt><trkpt lat="43.06851898568096" lon="11.41573673997282"><ele>489.0</ele><time>2026-05-02T09:16:46.999Z</time></trkpt><trkpt lat="43.06841315331306" lon="11.415846809916799"><ele>488.5</ele><time>2026-05-02T09:16:47.999Z</time></trkpt><trkpt lat="43.06831411999636" lon="11.415970796704984"><ele>488.0</ele><time>2026-05-02T09:16:48.999Z</time></trkpt><trkpt lat="43.068222630451444" lon="11.41607964118671"><ele>487.75</ele><time>2026-05-02T09:16:49.999Z</time></trkpt><trkpt lat="43.06812059091484" lon="11.416176290722548"><ele>487.5</ele><time>2026-05-02T09:16:50.999Z</time></trkpt><trkpt lat="43.06801962341576" lon="11.41625565637352"><ele>487.25</ele><time>2026-05-02T09:16:51.999Z</time></trkpt><trkpt lat="43.067918078614156" lon="11.416319151553163"><ele>487.0</ele><time>2026-05-02T09:16:52.999Z</time></trkpt><trkpt lat="43.0678316454526" lon="11.416390209174834"><ele>488.6666666666667</ele><time>2026-05-02T09:16:53.999Z</time></trkpt><trkpt lat="43.06777095258003" lon="11.416468713404972"><ele>490.33333333333337</ele><time>2026-05-02T09:16:54.999Z</time></trkpt><trkpt lat="43.06772611413593" lon="11.41656450688055"><ele>492.0</ele><time>2026-05-02T09:16:55.999Z</time></trkpt><trkpt lat="43.06770143194594" lon="11.41668340605688"><ele>493.66666666666663</ele><time>2026-05-02T09:16:56.999Z</time></trkpt><trkpt lat="43.06767372262558" lon="11.416797824740916"><ele>495.3333333333333</ele><time>2026-05-02T09:16:57.999Z</time></trkpt><trkpt lat="43.06764090797529" lon="11.416897942940494"><ele>497.0</ele><time>2026-05-02T09:16:58.999Z</time></trkpt><trkpt lat="43.06759345747615" lon="11.416992182981465"><ele>497.0</ele><time>2026-05-02T09:16:59.999Z</time></trkpt><trkpt lat="43.06753832765104" lon="11.417094375874669"><ele>497.00000000000006</ele><time>2026-05-02T09:17:00.999Z</time></trkpt><trkpt lat="43.06747829911783" lon="11.417200611339883"><ele>497.00000000000006</ele><time>2026-05-02T09:17:01.999Z</time></trkpt><trkpt lat="43.067415373965" lon="11.417301668519663"><ele>497.0</ele><time>2026-05-02T09:17:02.999Z</time></trkpt><trkpt lat="43.06735006532806" lon="11.417394593728108"><ele>497.0</ele><time>2026-05-02T09:17:03.999Z</time></trkpt><trkpt lat="43.06728073936162" lon="11.417470075873885"><ele>498.40000000000003</ele><time>2026-05-02T09:17:04.999Z</time></trkpt><trkpt lat="43.06720826356043" lon="11.417520372942917"><ele>499.80000000000007</ele><time>2026-05-02T09:17:05.999Z</time></trkpt><trkpt lat="43.06712819903885" lon="11.417556392943288"><ele>501.2</ele><time>2026-05-02T09:17:06.999Z</time></trkpt><trkpt lat="43.06704262524371" lon="11.417584563466598"><ele>502.6</ele><time>2026-05-02T09:17:07.999Z</time></trkpt><trkpt lat="43.066934954402605" lon="11.41761720314077"><ele>504.0</ele><time>2026-05-02T09:17:08.999Z</time></trkpt><trkpt lat="43.066833919381445" lon="11.417683086316435"><ele>504.0</ele><time>2026-05-02T09:17:09.999Z</time></trkpt><trkpt lat="43.066752312423326" lon="11.417782170613219"><ele>504.0</ele><time>2026-05-02T09:17:10.999Z</time></trkpt><trkpt lat="43.06670677204708" lon="11.4179179845844"><ele>504.0</ele><time>2026-05-02T09:17:11.999Z</time></trkpt><trkpt lat="43.0666705889363" lon="11.418027307879408"><ele>504.0</ele><time>2026-05-02T09:17:12.999Z</time></trkpt><trkpt lat="43.066637670588584" lon="11.418144356600342"><ele>504.0</ele><time>2026-05-02T09:17:13.999Z</time></trkpt><trkpt lat="43.066609988862844" lon="11.418265207758806"><ele>501.3333333333333</ele><time>2026-05-02T09:17:14.999Z</time></trkpt><trkpt lat="43.066598307559985" lon="11.418388512926025"><ele>498.66666666666663</ele><time>2026-05-02T09:17:15.999Z</time></trkpt><trkpt lat="43.06657739205117" lon="11.418489470363733"><ele>496.0</ele><time>2026-05-02T09:17:16.999Z</time></trkpt><trkpt lat="43.06656659019772" lon="11.418584089251153"><ele>493.3333333333333</ele><time>2026-05-02T09:17:17.999Z</time></trkpt><trkpt lat="43.06656111475031" lon="11.418689013328603"><ele>490.66666666666663</ele><time>2026-05-02T09:17:18.999Z</time></trkpt><trkpt lat="43.06655048833413" lon="11.418805602427454"><ele>488.0</ele><time>2026-05-02T09:17:19.999Z</time></trkpt><trkpt lat="43.066542207489334" lon="11.418922257091225"><ele>486.8333333333333</ele><time>2026-05-02T09:17:20.999Z</time></trkpt><trkpt lat="43.066542523718425" lon="11.419041715162788"><ele>485.66666666666663</ele><time>2026-05-02T09:17:21.999Z</time></trkpt><trkpt lat="43.06655183842081" lon="11.419153303071091"><ele>484.5</ele><time>2026-05-02T09:17:22.999Z</time></trkpt><trkpt lat="43.06654096166904" lon="11.419257721480585"><ele>483.33333333333337</ele><time>2026-05-02T09:17:23.999Z</time></trkpt><trkpt lat="43.06654504171788" lon="11.419362810271512"><ele>482.1666666666667</ele><time>2026-05-02T09:17:24.999Z</time></trkpt><trkpt lat="43.06656785502499" lon="11.419465006080399"><ele>481.0</ele><time>2026-05-02T09:17:25.999Z</time></trkpt><trkpt lat="43.06656491155043" lon="11.419566524492229"><ele>481.6666666666667</ele><time>2026-05-02T09:17:26.999Z</time></trkpt><trkpt lat="43.06656452678218" lon="11.419677382007118"><ele>482.33333333333337</ele><time>2026-05-02T09:17:27.999Z</time></trkpt><trkpt lat="43.06656418015166" lon="11.419796918708965"><ele>483.0</ele><time>2026-05-02T09:17:28.999Z</time></trkpt><trkpt lat="43.066534305119035" lon="11.419911401299407"><ele>483.66666666666663</ele><time>2026-05-02T09:17:29.999Z</time></trkpt><trkpt lat="43.06650101076883" lon="11.420014743623248"><ele>484.3333333333333</ele><time>2026-05-02T09:17:30.999Z</time></trkpt><trkpt lat="43.06645455184179" lon="11.420113542935836"><ele>485.0</ele><time>2026-05-02T09:17:31.999Z</time></trkpt><trkpt lat="43.066396058588786" lon="11.420211590953704"><ele>485.0</ele><time>2026-05-02T09:17:32.999Z</time></trkpt><trkpt lat="43.06633621043323" lon="11.420322832435836"><ele>485.0</ele><time>2026-05-02T09:17:33.999Z</time></trkpt><trkpt lat="43.066281077131286" lon="11.42044913188901"><ele>485.0</ele><time>2026-05-02T09:17:34.999Z</time></trkpt><trkpt lat="43.066230443643455" lon="11.420571879747419"><ele>485.0</ele><time>2026-05-02T09:17:35.999Z</time></trkpt><trkpt lat="43.06617830501852" lon="11.42068469671683"><ele>485.0</ele><time>2026-05-02T09:17:36.999Z</time></trkpt><trkpt lat="43.06612204792794" lon="11.420792739466503"><ele>486.4</ele><time>2026-05-02T09:17:37.999Z</time></trkpt><trkpt lat="43.066063299432365" lon="11.420899989632677"><ele>487.8</ele><time>2026-05-02T09:17:38.999Z</time></trkpt><trkpt lat="43.06600225040744" lon="11.421004486585971"><ele>489.20000000000005</ele><time>2026-05-02T09:17:39.999Z</time></trkpt><trkpt lat="43.06593913473254" lon="11.421111318189608"><ele>490.6</ele><time>2026-05-02T09:17:40.999Z</time></trkpt><trkpt lat="43.065875017603666" lon="11.42122322988857"><ele>492.0</ele><time>2026-05-02T09:17:41.999Z</time></trkpt><trkpt lat="43.06581702859218" lon="11.421339935401637"><ele>490.8</ele><time>2026-05-02T09:17:42.999Z</time></trkpt><trkpt lat="43.065763327979425" lon="11.4214559893581"><ele>489.6</ele><time>2026-05-02T09:17:43.999Z</time></trkpt><trkpt lat="43.06570852871124" lon="11.4215744172425"><ele>488.40000000000003</ele><time>2026-05-02T09:17:44.999Z</time></trkpt><trkpt lat="43.06565309642467" lon="11.421676443646978"><ele>487.20000000000005</ele><time>2026-05-02T09:17:45.999Z</time></trkpt><trkpt lat="43.065597600252445" lon="11.421759922796447"><ele>486.0</ele><time>2026-05-02T09:17:46.999Z</time></trkpt><trkpt lat="43.06552435166317" lon="11.421838324392153"><ele>486.0</ele><time>2026-05-02T09:17:47.999Z</time></trkpt><trkpt lat="43.06543966235595" lon="11.421912764257446"><ele>486.0</ele><time>2026-05-02T09:17:48.999Z</time></trkpt><trkpt lat="43.0653551308807" lon="11.421992354798581"><ele>486.0</ele><time>2026-05-02T09:17:49.998Z</time></trkpt><trkpt lat="43.06528643782549" lon="11.422061526996265"><ele>486.0</ele><time>2026-05-02T09:17:50.998Z</time></trkpt><trkpt lat="43.06521506758704" lon="11.42211678636942"><ele>486.0</ele><time>2026-05-02T09:17:51.998Z</time></trkpt><trkpt lat="43.065144528122076" lon="11.422161510657414"><ele>486.0</ele><time>2026-05-02T09:17:52.998Z</time></trkpt><trkpt lat="43.06506710942799" lon="11.42219376995014"><ele>486.0</ele><time>2026-05-02T09:17:53.998Z</time></trkpt><trkpt lat="43.06498933673647" lon="11.422202447395202"><ele>486.0</ele><time>2026-05-02T09:17:54.998Z</time></trkpt><trkpt lat="43.06490304888086" lon="11.422203228027975"><ele>486.0</ele><time>2026-05-02T09:17:55.998Z</time></trkpt><trkpt lat="43.06480906883129" lon="11.42220388001604"><ele>486.0</ele><time>2026-05-02T09:17:56.998Z</time></trkpt><trkpt lat="43.06471423365527" lon="11.422201362287863"><ele>486.0</ele><time>2026-05-02T09:17:57.998Z</time></trkpt><trkpt lat="43.06462082001596" lon="11.422191532509807"><ele>486.0</ele><time>2026-05-02T09:17:58.998Z</time></trkpt><trkpt lat="43.06452909037804" lon="11.422169834238513"><ele>484.8333333333333</ele><time>2026-05-02T09:17:59.998Z</time></trkpt><trkpt lat="43.0644428263599" lon="11.422139641990942"><ele>483.66666666666663</ele><time>2026-05-02T09:18:00.998Z</time></trkpt><trkpt lat="43.06435589320757" lon="11.422105168375923"><ele>482.5</ele><time>2026-05-02T09:18:01.998Z</time></trkpt><trkpt lat="43.06426916230504" lon="11.422065163481447"><ele>481.3333333333333</ele><time>2026-05-02T09:18:02.998Z</time></trkpt><trkpt lat="43.06418338994818" lon="11.422023468563502"><ele>480.16666666666663</ele><time>2026-05-02T09:18:04Z</time></trkpt><trkpt lat="43.0641041446548" lon="11.421983336846521"><ele>479.0</ele><time>2026-05-02T09:18:05Z</time></trkpt><trkpt lat="43.06401521390348" lon="11.421939061331965"><ele>477.8333333333333</ele><time>2026-05-02T09:18:06Z</time></trkpt><trkpt lat="43.063902110264856" lon="11.421927430067326"><ele>476.66666666666663</ele><time>2026-05-02T09:18:07Z</time></trkpt><trkpt lat="43.0638096597045" lon="11.421952252346113"><ele>475.5</ele><time>2026-05-02T09:18:08Z</time></trkpt><trkpt lat="43.063725999924266" lon="11.421963528931967"><ele>474.33333333333337</ele><time>2026-05-02T09:18:09Z</time></trkpt><trkpt lat="43.063645341149076" lon="11.421977936695622"><ele>473.1666666666667</ele><time>2026-05-02T09:18:10Z</time></trkpt><trkpt lat="43.06357325097052" lon="11.422001667117605"><ele>472.0</ele><time>2026-05-02T09:18:11Z</time></trkpt><trkpt lat="43.06350796864403" lon="11.422056664750697"><ele>472.00000000000006</ele><time>2026-05-02T09:18:12Z</time></trkpt><trkpt lat="43.063456204081085" lon="11.422163711431386"><ele>472.0</ele><time>2026-05-02T09:18:13Z</time></trkpt><trkpt lat="43.063449616006416" lon="11.422287379322347"><ele>472.0</ele><time>2026-05-02T09:18:14Z</time></trkpt><trkpt lat="43.063480738282664" lon="11.422393318568608"><ele>472.0</ele><time>2026-05-02T09:18:15Z</time></trkpt><trkpt lat="43.06350346152474" lon="11.422492099248439"><ele>472.00000000000006</ele><time>2026-05-02T09:18:16Z</time></trkpt><trkpt lat="43.06352986122566" lon="11.422587046011408"><ele>472.0</ele><time>2026-05-02T09:18:17Z</time></trkpt><trkpt lat="43.06354529174575" lon="11.422696212527882"><ele>472.00000000000006</ele><time>2026-05-02T09:18:18Z</time></trkpt><trkpt lat="43.063548717880295" lon="11.422810953538958"><ele>472.0</ele><time>2026-05-02T09:18:19Z</time></trkpt><trkpt lat="43.0635313724426" lon="11.422922603544846"><ele>472.0</ele><time>2026-05-02T09:18:20Z</time></trkpt><trkpt lat="43.06346928836326" lon="11.423012587029858"><ele>472.0</ele><time>2026-05-02T09:18:21Z</time></trkpt><trkpt lat="43.063421097317445" lon="11.423110724594142"><ele>472.00000000000006</ele><time>2026-05-02T09:18:22Z</time></trkpt><trkpt lat="43.063379172576255" lon="11.423216435150216"><ele>472.0</ele><time>2026-05-02T09:18:23Z</time></trkpt><trkpt lat="43.06334410734105" lon="11.423314747621475"><ele>471.57142857142856</ele><time>2026-05-02T09:18:24Z</time></trkpt><trkpt lat="43.06331938863884" lon="11.423415169501792"><ele>471.14285714285717</ele><time>2026-05-02T09:18:25Z</time></trkpt><trkpt lat="43.063310024243094" lon="11.423515024897087"><ele>470.7142857142857</ele><time>2026-05-02T09:18:26Z</time></trkpt><trkpt lat="43.06332365136909" lon="11.423607047104248"><ele>470.2857142857143</ele><time>2026-05-02T09:18:27Z</time></trkpt><trkpt lat="43.063335822692956" lon="11.4236971192315"><ele>469.8571428571429</ele><time>2026-05-02T09:18:27.999Z</time></trkpt><trkpt lat="43.06335674405041" lon="11.423787130899699"><ele>469.42857142857144</ele><time>2026-05-02T09:18:28.999Z</time></trkpt><trkpt lat="43.063377741861906" lon="11.423881745839326"><ele>469.0</ele><time>2026-05-02T09:18:29.999Z</time></trkpt><trkpt lat="43.063394568763236" lon="11.423976964679571"><ele>468.33333333333337</ele><time>2026-05-02T09:18:30.999Z</time></trkpt><trkpt lat="43.06339842125608" lon="11.424072305428577"><ele>467.6666666666667</ele><time>2026-05-02T09:18:31.999Z</time></trkpt><trkpt lat="43.063363581158185" lon="11.424174468767205"><ele>467.0</ele><time>2026-05-02T09:18:32.999Z</time></trkpt><trkpt lat="43.06332393999399" lon="11.424276754736061"><ele>466.33333333333337</ele><time>2026-05-02T09:18:33.999Z</time></trkpt><trkpt lat="43.06328272244339" lon="11.42439708369721"><ele>465.6666666666667</ele><time>2026-05-02T09:18:34.999Z</time></trkpt><trkpt lat="43.063257757683964" lon="11.424538750126603"><ele>465.0</ele><time>2026-05-02T09:18:35.999Z</time></trkpt><trkpt lat="43.06324160268725" lon="11.424674221400752"><ele>464.4</ele><time>2026-05-02T09:18:36.999Z</time></trkpt><trkpt lat="43.0632247643452" lon="11.424806018595634"><ele>463.8</ele><time>2026-05-02T09:18:37.999Z</time></trkpt><trkpt lat="43.06320228110106" lon="11.424933820426288"><ele>463.20000000000005</ele><time>2026-05-02T09:18:38.999Z</time></trkpt><trkpt lat="43.06317266185771" lon="11.4250536749127"><ele>462.6</ele><time>2026-05-02T09:18:39.999Z</time></trkpt><trkpt lat="43.06312244968651" lon="11.425170437839515"><ele>462.0</ele><time>2026-05-02T09:18:40.999Z</time></trkpt><trkpt lat="43.0630553138686" lon="11.425279744463268"><ele>462.0</ele><time>2026-05-02T09:18:41.999Z</time></trkpt><trkpt lat="43.06298372004628" lon="11.425388285464503"><ele>462.00000000000006</ele><time>2026-05-02T09:18:42.999Z</time></trkpt><trkpt lat="43.06291856155546" lon="11.42549497892929"><ele>462.00000000000006</ele><time>2026-05-02T09:18:43.999Z</time></trkpt><trkpt lat="43.062869195077596" lon="11.425608810482986"><ele>462.0</ele><time>2026-05-02T09:18:44.999Z</time></trkpt><trkpt lat="43.06283128729476" lon="11.425730181289136"><ele>462.0</ele><time>2026-05-02T09:18:45.999Z</time></trkpt><trkpt lat="43.0628357917599" lon="11.425871081491797"><ele>462.8</ele><time>2026-05-02T09:18:46.999Z</time></trkpt><trkpt lat="43.062825892332505" lon="11.426001177525482"><ele>463.6</ele><time>2026-05-02T09:18:47.999Z</time></trkpt><trkpt lat="43.062823638074065" lon="11.426135649625957"><ele>464.40000000000003</ele><time>2026-05-02T09:18:48.999Z</time></trkpt><trkpt lat="43.06282440365521" lon="11.42627506102382"><ele>465.20000000000005</ele><time>2026-05-02T09:18:49.999Z</time></trkpt><trkpt lat="43.06283344498081" lon="11.426415792807637"><ele>466.0</ele><time>2026-05-02T09:18:50.999Z</time></trkpt><trkpt lat="43.062849187341826" lon="11.426552902384442"><ele>466.00000000000006</ele><time>2026-05-02T09:18:51.999Z</time></trkpt><trkpt lat="43.062867750193824" lon="11.426687413494944"><ele>466.0</ele><time>2026-05-02T09:18:52.999Z</time></trkpt><trkpt lat="43.06288855567665" lon="11.426818643180562"><ele>466.0</ele><time>2026-05-02T09:18:53.999Z</time></trkpt><trkpt lat="43.06290500828328" lon="11.42694060340764"><ele>466.0</ele><time>2026-05-02T09:18:54.999Z</time></trkpt><trkpt lat="43.062902693436584" lon="11.42705709594619"><ele>466.00000000000006</ele><time>2026-05-02T09:18:55.999Z</time></trkpt><trkpt lat="43.06286276374049" lon="11.427142242292996"><ele>466.0</ele><time>2026-05-02T09:18:56.999Z</time></trkpt><trkpt lat="43.06281857198546" lon="11.427224164035056"><ele>466.00000000000006</ele><time>2026-05-02T09:18:57.999Z</time></trkpt><trkpt lat="43.0627584422357" lon="11.42728668966425"><ele>466.0</ele><time>2026-05-02T09:18:58.999Z</time></trkpt><trkpt lat="43.06268830330326" lon="11.427349372478153"><ele>466.0</ele><time>2026-05-02T09:18:59.999Z</time></trkpt><trkpt lat="43.06261207109753" lon="11.427396447793784"><ele>466.0</ele><time>2026-05-02T09:19:00.999Z</time></trkpt><trkpt lat="43.06252073569182" lon="11.427441704683586"><ele>466.00000000000006</ele><time>2026-05-02T09:19:01.999Z</time></trkpt><trkpt lat="43.062426414328606" lon="11.427484182293464"><ele>466.0</ele><time>2026-05-02T09:19:02.999Z</time></trkpt><trkpt lat="43.06232648543488" lon="11.427528406373446"><ele>466.8</ele><time>2026-05-02T09:19:03.999Z</time></trkpt><trkpt lat="43.06223279883729" lon="11.427563801459227"><ele>467.6</ele><time>2026-05-02T09:19:04.999Z</time></trkpt><trkpt lat="43.06214453987545" lon="11.427586369791532"><ele>468.4</ele><time>2026-05-02T09:19:05.999Z</time></trkpt><trkpt lat="43.062054159976974" lon="11.427600057702609"><ele>469.2</ele><time>2026-05-02T09:19:06.999Z</time></trkpt><trkpt lat="43.061963052716074" lon="11.427598300472328"><ele>470.0</ele><time>2026-05-02T09:19:07.999Z</time></trkpt><trkpt lat="43.06186929876558" lon="11.427587354814017"><ele>470.0</ele><time>2026-05-02T09:19:08.999Z</time></trkpt><trkpt lat="43.061775715108446" lon="11.427542521771992"><ele>470.0</ele><time>2026-05-02T09:19:09.999Z</time></trkpt><trkpt lat="43.06168402535059" lon="11.427473285413598"><ele>470.0</ele><time>2026-05-02T09:19:10.999Z</time></trkpt><trkpt lat="43.06159142164603" lon="11.427403712192318"><ele>470.0</ele><time>2026-05-02T09:19:11.999Z</time></trkpt><trkpt lat="43.06148956514256" lon="11.427356233702398"><ele>470.0</ele><time>2026-05-02T09:19:12.999Z</time></trkpt><trkpt lat="43.06137421055379" lon="11.427351824677588"><ele>470.2</ele><time>2026-05-02T09:19:13.999Z</time></trkpt><trkpt lat="43.061259280176785" lon="11.427366475847878"><ele>470.4</ele><time>2026-05-02T09:19:14.999Z</time></trkpt><trkpt lat="43.061147873413525" lon="11.427399318059795"><ele>470.6</ele><time>2026-05-02T09:19:15.999Z</time></trkpt><trkpt lat="43.06104101282168" lon="11.427439665642563"><ele>470.8</ele><time>2026-05-02T09:19:16.999Z</time></trkpt><trkpt lat="43.06094768222891" lon="11.427474292840179"><ele>471.0</ele><time>2026-05-02T09:19:17.999Z</time></trkpt><trkpt lat="43.06086475293608" lon="11.427477791133487"><ele>471.0</ele><time>2026-05-02T09:19:18.999Z</time></trkpt><trkpt lat="43.06078379327024" lon="11.427442755212152"><ele>471.0</ele><time>2026-05-02T09:19:19.999Z</time></trkpt><trkpt lat="43.06070483211174" lon="11.427376115232374"><ele>471.0</ele><time>2026-05-02T09:19:20.999Z</time></trkpt><trkpt lat="43.06059787468797" lon="11.427340116005308"><ele>471.0</ele><time>2026-05-02T09:19:21.999Z</time></trkpt><trkpt lat="43.06051703088558" lon="11.42729032262857"><ele>471.0</ele><time>2026-05-02T09:19:22.999Z</time></trkpt><trkpt lat="43.06044716486979" lon="11.427253851516966"><ele>472.3333333333333</ele><time>2026-05-02T09:19:23.999Z</time></trkpt><trkpt lat="43.060383313796976" lon="11.427249143771869"><ele>473.66666666666663</ele><time>2026-05-02T09:19:24.999Z</time></trkpt><trkpt lat="43.060285165835054" lon="11.427359580038338"><ele>475.0</ele><time>2026-05-02T09:19:26.999Z</time></trkpt><trkpt lat="43.060261779471645" lon="11.427450774519375"><ele>476.3333333333333</ele><time>2026-05-02T09:19:27.999Z</time></trkpt><trkpt lat="43.060267627076556" lon="11.427555050249897"><ele>477.66666666666663</ele><time>2026-05-02T09:19:28.999Z</time></trkpt><trkpt lat="43.060267653277904" lon="11.427651836626188"><ele>479.0</ele><time>2026-05-02T09:19:29.999Z</time></trkpt><trkpt lat="43.06022775481495" lon="11.427735191957646"><ele>478.99999999999994</ele><time>2026-05-02T09:19:30.999Z</time></trkpt><trkpt lat="43.06015847614457" lon="11.427799069345145"><ele>479.0</ele><time>2026-05-02T09:19:31.999Z</time></trkpt><trkpt lat="43.06007321241441" lon="11.427850739690472"><ele>479.0</ele><time>2026-05-02T09:19:32.999Z</time></trkpt><trkpt lat="43.05998792846082" lon="11.427888422537308"><ele>479.0</ele><time>2026-05-02T09:19:33.999Z</time></trkpt><trkpt lat="43.059907574549946" lon="11.42793007670722"><ele>478.99999999999994</ele><time>2026-05-02T09:19:34.999Z</time></trkpt><trkpt lat="43.059837475361" lon="11.427884105023933"><ele>479.0</ele><time>2026-05-02T09:19:35.999Z</time></trkpt><trkpt lat="43.059773117838375" lon="11.427864131336834"><ele>480.25</ele><time>2026-05-02T09:19:36.999Z</time></trkpt><trkpt lat="43.05965722548875" lon="11.427765101080245"><ele>481.5</ele><time>2026-05-02T09:19:38.999Z</time></trkpt><trkpt lat="43.059592565341134" lon="11.427652936184272"><ele>482.75</ele><time>2026-05-02T09:19:39.999Z</time></trkpt><trkpt lat="43.05952258538483" lon="11.42753555765682"><ele>484.0</ele><time>2026-05-02T09:19:40.999Z</time></trkpt><trkpt lat="43.05945324927938" lon="11.427427863603924"><ele>484.00000000000006</ele><time>2026-05-02T09:19:41.999Z</time></trkpt><trkpt lat="43.05939216400832" lon="11.427344949069134"><ele>484.0</ele><time>2026-05-02T09:19:42.999Z</time></trkpt><trkpt lat="43.0593309024801" lon="11.427282910452247"><ele>484.0</ele><time>2026-05-02T09:19:43.999Z</time></trkpt><trkpt lat="43.059270717039155" lon="11.427250089392443"><ele>484.0</ele><time>2026-05-02T09:19:44.999Z</time></trkpt><trkpt lat="43.059201673168076" lon="11.427251759040628"><ele>484.00000000000006</ele><time>2026-05-02T09:19:45.999Z</time></trkpt><trkpt lat="43.059127647881475" lon="11.427275634296912"><ele>484.0</ele><time>2026-05-02T09:19:46.999Z</time></trkpt><trkpt lat="43.05905691057415" lon="11.427322519578734"><ele>484.00000000000006</ele><time>2026-05-02T09:19:47.999Z</time></trkpt><trkpt lat="43.05900407480729" lon="11.427399143317597"><ele>484.0</ele><time>2026-05-02T09:19:48.999Z</time></trkpt><trkpt lat="43.05898192967202" lon="11.427484717346909"><ele>484.0</ele><time>2026-05-02T09:19:49.999Z</time></trkpt><trkpt lat="43.05899506847961" lon="11.427583319702197"><ele>484.0</ele><time>2026-05-02T09:19:50.999Z</time></trkpt><trkpt lat="43.059028330195424" lon="11.42768087813722"><ele>484.00000000000006</ele><time>2026-05-02T09:19:51.999Z</time></trkpt><trkpt lat="43.059076654280126" lon="11.427783820995513"><ele>484.0</ele><time>2026-05-02T09:19:52.998Z</time></trkpt><trkpt lat="43.05912734955367" lon="11.427901623402155"><ele>483.1666666666667</ele><time>2026-05-02T09:19:53.998Z</time></trkpt><trkpt lat="43.05916602393147" lon="11.428032371966827"><ele>482.33333333333337</ele><time>2026-05-02T09:19:54.998Z</time></trkpt><trkpt lat="43.05918889126669" lon="11.42814379825207"><ele>481.5</ele><time>2026-05-02T09:19:55.998Z</time></trkpt><trkpt lat="43.05919194086402" lon="11.428233361176067"><ele>480.66666666666663</ele><time>2026-05-02T09:19:56.998Z</time></trkpt><trkpt lat="43.05916693873889" lon="11.428322368892399"><ele>479.8333333333333</ele><time>2026-05-02T09:19:57.998Z</time></trkpt><trkpt lat="43.05910824122598" lon="11.42838556988934"><ele>479.0</ele><time>2026-05-02T09:19:58.998Z</time></trkpt><trkpt lat="43.059033304926544" lon="11.428419765832022"><ele>480.99999999999994</ele><time>2026-05-02T09:19:59.998Z</time></trkpt><trkpt lat="43.05895491877817" lon="11.428415316325891"><ele>483.0</ele><time>2026-05-02T09:20:00.998Z</time></trkpt><trkpt lat="43.05887450352223" lon="11.428435161083085"><ele>485.0</ele><time>2026-05-02T09:20:01.998Z</time></trkpt><trkpt lat="43.0588034264603" lon="11.428483688312618"><ele>487.0</ele><time>2026-05-02T09:20:02.998Z</time></trkpt><trkpt lat="43.05874527917765" lon="11.428561800660503"><ele>488.99999999999994</ele><time>2026-05-02T09:20:03.998Z</time></trkpt><trkpt lat="43.05868856478771" lon="11.428651865328364"><ele>491.0</ele><time>2026-05-02T09:20:04.998Z</time></trkpt><trkpt lat="43.0586352387009" lon="11.428737529031165"><ele>490.0</ele><time>2026-05-02T09:20:05.998Z</time></trkpt><trkpt lat="43.058590483213074" lon="11.428840168583973"><ele>489.0</ele><time>2026-05-02T09:20:06.998Z</time></trkpt><trkpt lat="43.058551871514105" lon="11.428953284105503"><ele>488.0</ele><time>2026-05-02T09:20:07.998Z</time></trkpt><trkpt lat="43.05851060629524" lon="11.429067882210804"><ele>487.0</ele><time>2026-05-02T09:20:08.998Z</time></trkpt><trkpt lat="43.05847025669934" lon="11.429180298299102"><ele>486.0</ele><time>2026-05-02T09:20:10Z</time></trkpt><trkpt lat="43.058433043698656" lon="11.429297776409609"><ele>486.0</ele><time>2026-05-02T09:20:11Z</time></trkpt><trkpt lat="43.058402027508606" lon="11.429417039929682"><ele>486.0</ele><time>2026-05-02T09:20:12Z</time></trkpt><trkpt lat="43.058370999807195" lon="11.42953942507667"><ele>486.0</ele><time>2026-05-02T09:20:13Z</time></trkpt><trkpt lat="43.05834396229779" lon="11.429662565980559"><ele>486.0</ele><time>2026-05-02T09:20:14Z</time></trkpt><trkpt lat="43.05831724509939" lon="11.429787124569522"><ele>486.0</ele><time>2026-05-02T09:20:15Z</time></trkpt><trkpt lat="43.05829254454921" lon="11.429906141567404"><ele>485.8</ele><time>2026-05-02T09:20:16Z</time></trkpt><trkpt lat="43.05827889495628" lon="11.430023526502419"><ele>485.6</ele><time>2026-05-02T09:20:17Z</time></trkpt><trkpt lat="43.05826947834389" lon="11.430145339862664"><ele>485.4</ele><time>2026-05-02T09:20:18Z</time></trkpt><trkpt lat="43.05827042217802" lon="11.430271853049277"><ele>485.2</ele><time>2026-05-02T09:20:19Z</time></trkpt><trkpt lat="43.05827863448177" lon="11.430399634303829"><ele>485.0</ele><time>2026-05-02T09:20:20Z</time></trkpt><trkpt lat="43.05828631160376" lon="11.430524157990902"><ele>484.99999999999994</ele><time>2026-05-02T09:20:21Z</time></trkpt><trkpt lat="43.05829176171021" lon="11.43063791036757"><ele>485.0</ele><time>2026-05-02T09:20:22Z</time></trkpt><trkpt lat="43.05827882619177" lon="11.430745923616387"><ele>485.0</ele><time>2026-05-02T09:20:23Z</time></trkpt><trkpt lat="43.05823920685947" lon="11.430852036256237"><ele>485.0</ele><time>2026-05-02T09:20:24Z</time></trkpt><trkpt lat="43.05817216765176" lon="11.430943612649283"><ele>484.99999999999994</ele><time>2026-05-02T09:20:25Z</time></trkpt><trkpt lat="43.05808884848575" lon="11.431018702328135"><ele>485.0</ele><time>2026-05-02T09:20:26Z</time></trkpt><trkpt lat="43.05799304711338" lon="11.431082094628863"><ele>485.6</ele><time>2026-05-02T09:20:27Z</time></trkpt><trkpt lat="43.057894333829765" lon="11.431142865049603"><ele>486.2</ele><time>2026-05-02T09:20:28Z</time></trkpt><trkpt lat="43.057795355054324" lon="11.431206632782397"><ele>486.79999999999995</ele><time>2026-05-02T09:20:28.999Z</time></trkpt><trkpt lat="43.057690291427235" lon="11.43124545665251"><ele>487.4</ele><time>2026-05-02T09:20:29.999Z</time></trkpt><trkpt lat="43.057587832276106" lon="11.431314844473492"><ele>488.0</ele><time>2026-05-02T09:20:30.999Z</time></trkpt><trkpt lat="43.05750853239379" lon="11.431419325468468"><ele>488.2</ele><time>2026-05-02T09:20:31.999Z</time></trkpt><trkpt lat="43.057432871467086" lon="11.431509329550316"><ele>488.4</ele><time>2026-05-02T09:20:32.999Z</time></trkpt><trkpt lat="43.05736165467024" lon="11.431608562055409"><ele>488.59999999999997</ele><time>2026-05-02T09:20:33.999Z</time></trkpt><trkpt lat="43.05728964337871" lon="11.43170275395752"><ele>488.79999999999995</ele><time>2026-05-02T09:20:34.999Z</time></trkpt><trkpt lat="43.05722016986954" lon="11.431798708348458"><ele>489.0</ele><time>2026-05-02T09:20:35.999Z</time></trkpt><trkpt lat="43.057151796453795" lon="11.431898659711912"><ele>489.0</ele><time>2026-05-02T09:20:36.999Z</time></trkpt><trkpt lat="43.05709511063164" lon="11.432010768843012"><ele>489.0</ele><time>2026-05-02T09:20:37.999Z</time></trkpt><trkpt lat="43.05704036303443" lon="11.43212886954343"><ele>489.0</ele><time>2026-05-02T09:20:38.999Z</time></trkpt><trkpt lat="43.05698136220524" lon="11.432249482292628"><ele>489.0</ele><time>2026-05-02T09:20:39.999Z</time></trkpt><trkpt lat="43.05692185161557" lon="11.43237055210975"><ele>489.0</ele><time>2026-05-02T09:20:40.999Z</time></trkpt><trkpt lat="43.05685903841174" lon="11.432488717822585"><ele>489.2</ele><time>2026-05-02T09:20:41.999Z</time></trkpt><trkpt lat="43.05678949078752" lon="11.432594511066485"><ele>489.4</ele><time>2026-05-02T09:20:42.999Z</time></trkpt><trkpt lat="43.056715052605256" lon="11.43269491333724"><ele>489.6</ele><time>2026-05-02T09:20:43.999Z</time></trkpt><trkpt lat="43.056641373298326" lon="11.43279074554616"><ele>489.8</ele><time>2026-05-02T09:20:44.999Z</time></trkpt><trkpt lat="43.05657866301183" lon="11.432886862106136"><ele>490.0</ele><time>2026-05-02T09:20:45.999Z</time></trkpt><trkpt lat="43.056525670505586" lon="11.432995757580045"><ele>491.4</ele><time>2026-05-02T09:20:46.999Z</time></trkpt><trkpt lat="43.05646049633586" lon="11.433085604589516"><ele>492.8</ele><time>2026-05-02T09:20:47.999Z</time></trkpt><trkpt lat="43.05638091594452" lon="11.433153168116617"><ele>494.20000000000005</ele><time>2026-05-02T09:20:48.999Z</time></trkpt><trkpt lat="43.056288950630744" lon="11.433216141274231"><ele>495.6</ele><time>2026-05-02T09:20:49.999Z</time></trkpt><trkpt lat="43.05619108996822" lon="11.433264770639461"><ele>497.0</ele><time>2026-05-02T09:20:50.999Z</time></trkpt><trkpt lat="43.05608410832148" lon="11.433309080597278"><ele>497.0</ele><time>2026-05-02T09:20:51.999Z</time></trkpt><trkpt lat="43.05597367483864" lon="11.433351847178479"><ele>497.00000000000006</ele><time>2026-05-02T09:20:52.999Z</time></trkpt><trkpt lat="43.05586215822168" lon="11.433389393165326"><ele>497.00000000000006</ele><time>2026-05-02T09:20:53.999Z</time></trkpt><trkpt lat="43.05575905355029" lon="11.433421606321097"><ele>497.0</ele><time>2026-05-02T09:20:54.999Z</time></trkpt><trkpt lat="43.05566414727819" lon="11.4334347959553"><ele>497.0</ele><time>2026-05-02T09:20:55.999Z</time></trkpt><trkpt lat="43.05558399745271" lon="11.433506171103712"><ele>496.8333333333333</ele><time>2026-05-02T09:20:56.999Z</time></trkpt><trkpt lat="43.055509272694074" lon="11.433558597577766"><ele>496.66666666666663</ele><time>2026-05-02T09:20:57.999Z</time></trkpt><trkpt lat="43.055436817834305" lon="11.433604080600233"><ele>496.5</ele><time>2026-05-02T09:20:58.999Z</time></trkpt><trkpt lat="43.05536347981308" lon="11.433645879890529"><ele>496.33333333333337</ele><time>2026-05-02T09:20:59.999Z</time></trkpt><trkpt lat="43.05529049293859" lon="11.433683730869719"><ele>496.1666666666667</ele><time>2026-05-02T09:21:00.999Z</time></trkpt><trkpt lat="43.05521341157321" lon="11.433683353201765"><ele>496.0</ele><time>2026-05-02T09:21:01.999Z</time></trkpt><trkpt lat="43.05513170097504" lon="11.433700406210496"><ele>496.00000000000006</ele><time>2026-05-02T09:21:02.999Z</time></trkpt><trkpt lat="43.055053860612745" lon="11.433738910858319"><ele>496.0</ele><time>2026-05-02T09:21:03.999Z</time></trkpt><trkpt lat="43.054973452419425" lon="11.433769496723638"><ele>496.0</ele><time>2026-05-02T09:21:04.999Z</time></trkpt><trkpt lat="43.05490083825834" lon="11.433810032944695"><ele>496.0</ele><time>2026-05-02T09:21:05.999Z</time></trkpt><trkpt lat="43.05482808770506" lon="11.433861975682277"><ele>496.00000000000006</ele><time>2026-05-02T09:21:06.999Z</time></trkpt><trkpt lat="43.05474216671581" lon="11.433901729665083"><ele>496.0</ele><time>2026-05-02T09:21:07.999Z</time></trkpt><trkpt lat="43.054662164752436" lon="11.433955596966422"><ele>494.33333333333337</ele><time>2026-05-02T09:21:08.999Z</time></trkpt><trkpt lat="43.05458120613407" lon="11.434005679789689"><ele>492.6666666666667</ele><time>2026-05-02T09:21:09.999Z</time></trkpt><trkpt lat="43.05450784649834" lon="11.434046946737924"><ele>491.0</ele><time>2026-05-02T09:21:10.999Z</time></trkpt><trkpt lat="43.054436137887585" lon="11.434082946887356"><ele>489.33333333333337</ele><time>2026-05-02T09:21:11.999Z</time></trkpt><trkpt lat="43.05435491646722" lon="11.434123781483308"><ele>487.6666666666667</ele><time>2026-05-02T09:21:12.999Z</time></trkpt><trkpt lat="43.05427803700318" lon="11.434161238928171"><ele>486.0</ele><time>2026-05-02T09:21:13.999Z</time></trkpt><trkpt lat="43.0542087511039" lon="11.434194282529871"><ele>486.0</ele><time>2026-05-02T09:21:14.999Z</time></trkpt><trkpt lat="43.05413972294239" lon="11.434222251709999"><ele>486.0</ele><time>2026-05-02T09:21:15.999Z</time></trkpt><trkpt lat="43.05407349622772" lon="11.434267250300886"><ele>486.0</ele><time>2026-05-02T09:21:16.999Z</time></trkpt><trkpt lat="43.05400015464322" lon="11.434282752475077"><ele>486.0</ele><time>2026-05-02T09:21:17.999Z</time></trkpt><trkpt lat="43.05392397087097" lon="11.434295445348079"><ele>486.0</ele><time>2026-05-02T09:21:18.999Z</time></trkpt><trkpt lat="43.05384978759634" lon="11.434312680421112"><ele>486.0</ele><time>2026-05-02T09:21:19.999Z</time></trkpt><trkpt lat="43.053780775021245" lon="11.434337134151724"><ele>486.0</ele><time>2026-05-02T09:21:20.999Z</time></trkpt><trkpt lat="43.05371347184741" lon="11.434369751167901"><ele>485.6666666666667</ele><time>2026-05-02T09:21:21.999Z</time></trkpt><trkpt lat="43.05364867755481" lon="11.434410785066108"><ele>485.33333333333337</ele><time>2026-05-02T09:21:22.999Z</time></trkpt><trkpt lat="43.053584417897696" lon="11.434460834612441"><ele>485.0</ele><time>2026-05-02T09:21:23.999Z</time></trkpt><trkpt lat="43.05351990033035" lon="11.434521772726825"><ele>484.6666666666667</ele><time>2026-05-02T09:21:24.999Z</time></trkpt><trkpt lat="43.05345938183335" lon="11.434594236570806"><ele>484.33333333333337</ele><time>2026-05-02T09:21:25.999Z</time></trkpt><trkpt lat="43.05340152279574" lon="11.434673205876756"><ele>484.0</ele><time>2026-05-02T09:21:26.999Z</time></trkpt><trkpt lat="43.05334995598725" lon="11.434760710893071"><ele>482.83333333333337</ele><time>2026-05-02T09:21:27.999Z</time></trkpt><trkpt lat="43.05330217242049" lon="11.434856114808248"><ele>481.6666666666667</ele><time>2026-05-02T09:21:28.999Z</time></trkpt><trkpt lat="43.053258891230996" lon="11.434957546438069"><ele>480.5</ele><time>2026-05-02T09:21:29.999Z</time></trkpt><trkpt lat="43.05321853009837" lon="11.435064939266335"><ele>479.33333333333337</ele><time>2026-05-02T09:21:30.999Z</time></trkpt><trkpt lat="43.0531815509611" lon="11.435177204629499"><ele>478.1666666666667</ele><time>2026-05-02T09:21:31.999Z</time></trkpt><trkpt lat="43.05314741585373" lon="11.435294720613502"><ele>477.0</ele><time>2026-05-02T09:21:32.999Z</time></trkpt><trkpt lat="43.05311672690461" lon="11.435417485985166"><ele>474.6</ele><time>2026-05-02T09:21:33.999Z</time></trkpt><trkpt lat="43.0530966815914" lon="11.43554801412384"><ele>472.20000000000005</ele><time>2026-05-02T09:21:34.999Z</time></trkpt><trkpt lat="43.05307929646608" lon="11.435676147984486"><ele>469.8</ele><time>2026-05-02T09:21:35.999Z</time></trkpt><trkpt lat="43.05306485874158" lon="11.435804938332563"><ele>467.4</ele><time>2026-05-02T09:21:36.999Z</time></trkpt><trkpt lat="43.053051267180706" lon="11.43592983700218"><ele>465.0</ele><time>2026-05-02T09:21:37.999Z</time></trkpt><trkpt lat="43.05303801890898" lon="11.436053234969508"><ele>465.0</ele><time>2026-05-02T09:21:38.999Z</time></trkpt><trkpt lat="43.05302257058527" lon="11.436173988608406"><ele>465.0</ele><time>2026-05-02T09:21:39.999Z</time></trkpt><trkpt lat="43.05299802086534" lon="11.436293483866502"><ele>465.0</ele><time>2026-05-02T09:21:40.999Z</time></trkpt><trkpt lat="43.05296225362467" lon="11.436411011916752"><ele>465.0</ele><time>2026-05-02T09:21:41.999Z</time></trkpt><trkpt lat="43.05291253841062" lon="11.436523346300161"><ele>465.0</ele><time>2026-05-02T09:21:42.999Z</time></trkpt><trkpt lat="43.052847609777906" lon="11.436618699526807"><ele>465.5</ele><time>2026-05-02T09:21:43.999Z</time></trkpt><trkpt lat="43.05277458299516" lon="11.436697249481755"><ele>466.0</ele><time>2026-05-02T09:21:44.999Z</time></trkpt><trkpt lat="43.05269675484402" lon="11.436759384435922"><ele>466.5</ele><time>2026-05-02T09:21:45.999Z</time></trkpt><trkpt lat="43.052614167987294" lon="11.436797478753627"><ele>467.0</ele><time>2026-05-02T09:21:46.999Z</time></trkpt><trkpt lat="43.05252579567982" lon="11.4368069096444"><ele>467.5</ele><time>2026-05-02T09:21:47.999Z</time></trkpt><trkpt lat="43.052439845700874" lon="11.43678730023129"><ele>468.0</ele><time>2026-05-02T09:21:48.999Z</time></trkpt><trkpt lat="43.052348694423905" lon="11.43675832792036"><ele>468.2</ele><time>2026-05-02T09:21:49.999Z</time></trkpt><trkpt lat="43.052246548747306" lon="11.436746244990859"><ele>468.4</ele><time>2026-05-02T09:21:50.999Z</time></trkpt><trkpt lat="43.05213863330985" lon="11.436738956797246"><ele>468.59999999999997</ele><time>2026-05-02T09:21:51.998Z</time></trkpt><trkpt lat="43.05203747235723" lon="11.436791640990545"><ele>468.79999999999995</ele><time>2026-05-02T09:21:52.998Z</time></trkpt><trkpt lat="43.05193280715243" lon="11.436817999128651"><ele>469.0</ele><time>2026-05-02T09:21:53.998Z</time></trkpt><trkpt lat="43.0518407340454" lon="11.43684618680551"><ele>469.00000000000006</ele><time>2026-05-02T09:21:54.998Z</time></trkpt><trkpt lat="43.051748339310365" lon="11.436871410474819"><ele>469.0</ele><time>2026-05-02T09:21:55.998Z</time></trkpt><trkpt lat="43.051665266488435" lon="11.436899473109072"><ele>469.0</ele><time>2026-05-02T09:21:56.998Z</time></trkpt><trkpt lat="43.05158794047645" lon="11.436916041445597"><ele>469.0</ele><time>2026-05-02T09:21:57.998Z</time></trkpt><trkpt lat="43.051531710245676" lon="11.436995648804244"><ele>469.00000000000006</ele><time>2026-05-02T09:21:58.998Z</time></trkpt><trkpt lat="43.05147756969806" lon="11.437080922345611"><ele>469.0</ele><time>2026-05-02T09:21:59.998Z</time></trkpt><trkpt lat="43.05142556277837" lon="11.437174837122173"><ele>469.2</ele><time>2026-05-02T09:22:00.998Z</time></trkpt><trkpt lat="43.05136760472146" lon="11.437274841889824"><ele>469.4</ele><time>2026-05-02T09:22:01.998Z</time></trkpt><trkpt lat="43.051303009179755" lon="11.437367337412303"><ele>469.6</ele><time>2026-05-02T09:22:02.998Z</time></trkpt><trkpt lat="43.051229257256146" lon="11.437450438383063"><ele>469.8</ele><time>2026-05-02T09:22:03.998Z</time></trkpt><trkpt lat="43.05114761946024" lon="11.4375265181377"><ele>470.0</ele><time>2026-05-02T09:22:04.998Z</time></trkpt><trkpt lat="43.05106109081553" lon="11.437596862747505"><ele>470.0</ele><time>2026-05-02T09:22:05.998Z</time></trkpt><trkpt lat="43.050971939469385" lon="11.437656376800724"><ele>470.0</ele><time>2026-05-02T09:22:06.998Z</time></trkpt><trkpt lat="43.05088317909995" lon="11.437708595006717"><ele>470.0</ele><time>2026-05-02T09:22:07.998Z</time></trkpt><trkpt lat="43.05079563134854" lon="11.437759677834862"><ele>470.0</ele><time>2026-05-02T09:22:08.998Z</time></trkpt><trkpt lat="43.050712740085025" lon="11.437816583509225"><ele>470.0</ele><time>2026-05-02T09:22:09.998Z</time></trkpt><trkpt lat="43.05063860053609" lon="11.437882447091242"><ele>471.4</ele><time>2026-05-02T09:22:10.998Z</time></trkpt><trkpt lat="43.050558580975725" lon="11.437938824897591"><ele>472.8</ele><time>2026-05-02T09:22:11.998Z</time></trkpt><trkpt lat="43.05049694992424" lon="11.438032065757541"><ele>474.20000000000005</ele><time>2026-05-02T09:22:12.998Z</time></trkpt><trkpt lat="43.05046770647659" lon="11.438154498283305"><ele>475.6</ele><time>2026-05-02T09:22:13.998Z</time></trkpt><trkpt lat="43.05044255900169" lon="11.438276459511293"><ele>477.0</ele><time>2026-05-02T09:22:14.998Z</time></trkpt><trkpt lat="43.050424507577404" lon="11.438401062483353"><ele>477.8333333333333</ele><time>2026-05-02T09:22:15.999Z</time></trkpt><trkpt lat="43.05040200691782" lon="11.438525552077104"><ele>478.66666666666663</ele><time>2026-05-02T09:22:17Z</time></trkpt><trkpt lat="43.05037705163243" lon="11.438641441900755"><ele>479.5</ele><time>2026-05-02T09:22:17.999Z</time></trkpt><trkpt lat="43.05036045478235" lon="11.438756736950623"><ele>480.3333333333333</ele><time>2026-05-02T09:22:18.999Z</time></trkpt><trkpt lat="43.050369020182494" lon="11.438871943646943"><ele>481.16666666666663</ele><time>2026-05-02T09:22:20Z</time></trkpt><trkpt lat="43.05040441584354" lon="11.438982230301319"><ele>482.0</ele><time>2026-05-02T09:22:20.999Z</time></trkpt><trkpt lat="43.050456384559176" lon="11.439079490396947"><ele>483.0</ele><time>2026-05-02T09:22:21.999Z</time></trkpt><trkpt lat="43.050513430170525" lon="11.439173690319459"><ele>484.00000000000006</ele><time>2026-05-02T09:22:23Z</time></trkpt><trkpt lat="43.05056903874368" lon="11.439273024821574"><ele>485.00000000000006</ele><time>2026-05-02T09:22:23.999Z</time></trkpt><trkpt lat="43.0506229749472" lon="11.43937783247237"><ele>486.0</ele><time>2026-05-02T09:22:24.999Z</time></trkpt><trkpt lat="43.05066351986715" lon="11.439494597586016"><ele>487.0</ele><time>2026-05-02T09:22:26Z</time></trkpt><trkpt lat="43.050690214461774" lon="11.43962231008535"><ele>485.8</ele><time>2026-05-02T09:22:26.999Z</time></trkpt><trkpt lat="43.050699982857935" lon="11.439757705469521"><ele>484.6</ele><time>2026-05-02T09:22:27.999Z</time></trkpt><trkpt lat="43.05069649828885" lon="11.439891512681514"><ele>483.40000000000003</ele><time>2026-05-02T09:22:29Z</time></trkpt><trkpt lat="43.050676727571805" lon="11.440029748861201"><ele>482.20000000000005</ele><time>2026-05-02T09:22:29.999Z</time></trkpt><trkpt lat="43.05064306202369" lon="11.440164440155288"><ele>481.0</ele><time>2026-05-02T09:22:30.999Z</time></trkpt><trkpt lat="43.05059634168219" lon="11.44029321130045"><ele>481.0</ele><time>2026-05-02T09:22:31.999Z</time></trkpt><trkpt lat="43.050533057321786" lon="11.44040878703776"><ele>481.0</ele><time>2026-05-02T09:22:32.999Z</time></trkpt><trkpt lat="43.05044609595273" lon="11.440507210793715"><ele>481.0</ele><time>2026-05-02T09:22:33.999Z</time></trkpt><trkpt lat="43.0503518668098" lon="11.440581043181568"><ele>481.0</ele><time>2026-05-02T09:22:34.999Z</time></trkpt><trkpt lat="43.05026543578632" lon="11.44064402293914"><ele>481.0</ele><time>2026-05-02T09:22:35.999Z</time></trkpt><trkpt lat="43.05019074141147" lon="11.440722304443673"><ele>478.20000000000005</ele><time>2026-05-02T09:22:36.999Z</time></trkpt><trkpt lat="43.05012803842546" lon="11.440818912034834"><ele>475.40000000000003</ele><time>2026-05-02T09:22:37.999Z</time></trkpt><trkpt lat="43.050079312222756" lon="11.440929234561466"><ele>472.6</ele><time>2026-05-02T09:22:39Z</time></trkpt><trkpt lat="43.05005067021479" lon="11.441052370255141"><ele>469.8</ele><time>2026-05-02T09:22:40Z</time></trkpt><trkpt lat="43.0500382552468" lon="11.441177738200922"><ele>467.0</ele><time>2026-05-02T09:22:41Z</time></trkpt><trkpt lat="43.05003892913794" lon="11.441313695208402"><ele>465.6</ele><time>2026-05-02T09:22:42Z</time></trkpt><trkpt lat="43.05004737113803" lon="11.441469654609154"><ele>464.20000000000005</ele><time>2026-05-02T09:22:43Z</time></trkpt><trkpt lat="43.05005473550774" lon="11.441621439321786"><ele>462.8</ele><time>2026-05-02T09:22:44Z</time></trkpt><trkpt lat="43.050058849587515" lon="11.441769201959172"><ele>461.4</ele><time>2026-05-02T09:22:45Z</time></trkpt><trkpt lat="43.05006273478978" lon="11.44190955795075"><ele>460.0</ele><time>2026-05-02T09:22:46Z</time></trkpt><trkpt lat="43.05006886564287" lon="11.442053551822235"><ele>460.8</ele><time>2026-05-02T09:22:47Z</time></trkpt><trkpt lat="43.050073515842726" lon="11.44220277212945"><ele>461.6</ele><time>2026-05-02T09:22:48Z</time></trkpt><trkpt lat="43.05007856618173" lon="11.442355009100762"><ele>462.4</ele><time>2026-05-02T09:22:49Z</time></trkpt><trkpt lat="43.05008435685527" lon="11.442508709630253"><ele>463.2</ele><time>2026-05-02T09:22:50Z</time></trkpt><trkpt lat="43.05009462774948" lon="11.442662897665603"><ele>464.0</ele><time>2026-05-02T09:22:51Z</time></trkpt><trkpt lat="43.05010692163744" lon="11.442820727171505"><ele>465.75</ele><time>2026-05-02T09:22:52Z</time></trkpt><trkpt lat="43.05012080786759" lon="11.442979384008662"><ele>467.5</ele><time>2026-05-02T09:22:53Z</time></trkpt><trkpt lat="43.05013071954594" lon="11.44314851309129"><ele>469.25</ele><time>2026-05-02T09:22:54Z</time></trkpt><trkpt lat="43.050125581800415" lon="11.443313502139988"><ele>471.0</ele><time>2026-05-02T09:22:55Z</time></trkpt><trkpt lat="43.050102207975314" lon="11.443471503506984"><ele>471.0</ele><time>2026-05-02T09:22:56Z</time></trkpt><trkpt lat="43.050066977912515" lon="11.443631834946347"><ele>471.0</ele><time>2026-05-02T09:22:57Z</time></trkpt><trkpt lat="43.05002956583423" lon="11.443807464263525"><ele>471.0</ele><time>2026-05-02T09:22:58Z</time></trkpt><trkpt lat="43.049994791343266" lon="11.443978252457132"><ele>471.0</ele><time>2026-05-02T09:22:59Z</time></trkpt><trkpt lat="43.04996369626204" lon="11.444138441326364"><ele>470.75</ele><time>2026-05-02T09:23:00Z</time></trkpt><trkpt lat="43.04993246215977" lon="11.444287659433973"><ele>470.5</ele><time>2026-05-02T09:23:01Z</time></trkpt><trkpt lat="43.04991840551586" lon="11.444441863342163"><ele>470.25</ele><time>2026-05-02T09:23:02Z</time></trkpt><trkpt lat="43.04991867687227" lon="11.444605115883155"><ele>470.0</ele><time>2026-05-02T09:23:03Z</time></trkpt><trkpt lat="43.04992033461635" lon="11.444770931850016"><ele>468.2</ele><time>2026-05-02T09:23:04Z</time></trkpt><trkpt lat="43.04992284124019" lon="11.444933785633623"><ele>466.4</ele><time>2026-05-02T09:23:05Z</time></trkpt><trkpt lat="43.04992070570852" lon="11.445072391980148"><ele>464.6</ele><time>2026-05-02T09:23:06Z</time></trkpt><trkpt lat="43.04990083912154" lon="11.445207270539067"><ele>462.8</ele><time>2026-05-02T09:23:07Z</time></trkpt><trkpt lat="43.04985840242911" lon="11.445341697354165"><ele>461.0</ele><time>2026-05-02T09:23:08Z</time></trkpt><trkpt lat="43.04980230794216" lon="11.445484000143288"><ele>461.0</ele><time>2026-05-02T09:23:09Z</time></trkpt><trkpt lat="43.04974333046722" lon="11.445624336491452"><ele>461.0</ele><time>2026-05-02T09:23:10Z</time></trkpt><trkpt lat="43.049690403592685" lon="11.445781447833046"><ele>461.0</ele><time>2026-05-02T09:23:11Z</time></trkpt><trkpt lat="43.04965628531526" lon="11.445943311269911"><ele>461.0</ele><time>2026-05-02T09:23:12Z</time></trkpt><trkpt lat="43.049635974998736" lon="11.446111221550128"><ele>461.0</ele><time>2026-05-02T09:23:13Z</time></trkpt><trkpt lat="43.049616947481525" lon="11.446284169364842"><ele>461.0</ele><time>2026-05-02T09:23:14Z</time></trkpt><trkpt lat="43.04961120650785" lon="11.446466779490656"><ele>461.0</ele><time>2026-05-02T09:23:15Z</time></trkpt><trkpt lat="43.04960571222203" lon="11.446647830999481"><ele>461.0</ele><time>2026-05-02T09:23:16Z</time></trkpt><trkpt lat="43.04959809401989" lon="11.44683309860615"><ele>462.0</ele><time>2026-05-02T09:23:17Z</time></trkpt><trkpt lat="43.04959127580776" lon="11.44701724476893"><ele>463.0</ele><time>2026-05-02T09:23:18Z</time></trkpt><trkpt lat="43.04958494450851" lon="11.447195996699353"><ele>464.0</ele><time>2026-05-02T09:23:19Z</time></trkpt><trkpt lat="43.049579069359645" lon="11.447368793972341"><ele>465.0</ele><time>2026-05-02T09:23:20Z</time></trkpt><trkpt lat="43.049576168320726" lon="11.447528579773849"><ele>465.2</ele><time>2026-05-02T09:23:21Z</time></trkpt><trkpt lat="43.04958013957111" lon="11.4476705224226"><ele>465.4</ele><time>2026-05-02T09:23:22Z</time></trkpt><trkpt lat="43.049596880965666" lon="11.447807542441732"><ele>465.6</ele><time>2026-05-02T09:23:23Z</time></trkpt><trkpt lat="43.04962988793932" lon="11.447931091870862"><ele>465.8</ele><time>2026-05-02T09:23:24Z</time></trkpt><trkpt lat="43.04966464767164" lon="11.448031425840291"><ele>466.0</ele><time>2026-05-02T09:23:25Z</time></trkpt><trkpt lat="43.049692489940725" lon="11.448115886807068"><ele>466.50000000000006</ele><time>2026-05-02T09:23:26Z</time></trkpt><trkpt lat="43.0497053644545" lon="11.448203534588814"><ele>467.0</ele><time>2026-05-02T09:23:27Z</time></trkpt><trkpt lat="43.04969277031491" lon="11.4483056795484"><ele>467.5</ele><time>2026-05-02T09:23:28Z</time></trkpt><trkpt lat="43.049656343537336" lon="11.448400475166713"><ele>468.0</ele><time>2026-05-02T09:23:29Z</time></trkpt><trkpt lat="43.04959281615269" lon="11.44847437290895"><ele>468.50000000000006</ele><time>2026-05-02T09:23:30Z</time></trkpt><trkpt lat="43.04952129092962" lon="11.448560310071624"><ele>469.0</ele><time>2026-05-02T09:23:31Z</time></trkpt><trkpt lat="43.04944612151698" lon="11.448660293885258"><ele>469.0</ele><time>2026-05-02T09:23:32Z</time></trkpt><trkpt lat="43.049368081855306" lon="11.44877387512524"><ele>469.0</ele><time>2026-05-02T09:23:33Z</time></trkpt><trkpt lat="43.049288530806606" lon="11.44889492145827"><ele>469.0</ele><time>2026-05-02T09:23:34Z</time></trkpt><trkpt lat="43.04920286319429" lon="11.449006221359053"><ele>469.0</ele><time>2026-05-02T09:23:35Z</time></trkpt><trkpt lat="43.04912487545894" lon="11.449110995158957"><ele>469.4</ele><time>2026-05-02T09:23:36Z</time></trkpt><trkpt lat="43.049056024676496" lon="11.44921318541453"><ele>469.79999999999995</ele><time>2026-05-02T09:23:37Z</time></trkpt><trkpt lat="43.048984662636286" lon="11.449305996986745"><ele>470.20000000000005</ele><time>2026-05-02T09:23:38Z</time></trkpt><trkpt lat="43.04892092598238" lon="11.449398940476529"><ele>470.6</ele><time>2026-05-02T09:23:39Z</time></trkpt><trkpt lat="43.048857758547555" lon="11.449484431086809"><ele>471.0</ele><time>2026-05-02T09:23:40Z</time></trkpt><trkpt lat="43.04880232674725" lon="11.449567490386187"><ele>473.6</ele><time>2026-05-02T09:23:41Z</time></trkpt><trkpt lat="43.0487484951642" lon="11.44964656399241"><ele>476.20000000000005</ele><time>2026-05-02T09:23:42Z</time></trkpt><trkpt lat="43.048695925241134" lon="11.449728974371641"><ele>478.79999999999995</ele><time>2026-05-02T09:23:43Z</time></trkpt><trkpt lat="43.04863186189303" lon="11.449817577788444"><ele>481.4</ele><time>2026-05-02T09:23:44Z</time></trkpt><trkpt lat="43.048559659011474" lon="11.449925867648105"><ele>484.0</ele><time>2026-05-02T09:23:45Z</time></trkpt><trkpt lat="43.048478019075624" lon="11.45003015812727"><ele>484.0</ele><time>2026-05-02T09:23:46Z</time></trkpt><trkpt lat="43.04839460836099" lon="11.450125916142584"><ele>484.0</ele><time>2026-05-02T09:23:47Z</time></trkpt><trkpt lat="43.04831056565509" lon="11.450205227395665"><ele>484.0</ele><time>2026-05-02T09:23:48Z</time></trkpt><trkpt lat="43.048229814453315" lon="11.450279419356573"><ele>484.0</ele><time>2026-05-02T09:23:49Z</time></trkpt><trkpt lat="43.04816412377842" lon="11.450363286043476"><ele>484.0</ele><time>2026-05-02T09:23:50Z</time></trkpt><trkpt lat="43.04811342506821" lon="11.450461141292605"><ele>483.4</ele><time>2026-05-02T09:23:51Z</time></trkpt><trkpt lat="43.04807758078056" lon="11.45056843816717"><ele>482.79999999999995</ele><time>2026-05-02T09:23:52Z</time></trkpt><trkpt lat="43.048047936044476" lon="11.450688110947905"><ele>482.20000000000005</ele><time>2026-05-02T09:23:53Z</time></trkpt><trkpt lat="43.04802789073625" lon="11.450815096674019"><ele>481.6</ele><time>2026-05-02T09:23:54Z</time></trkpt><trkpt lat="43.0480127819524" lon="11.450948258247422"><ele>481.0</ele><time>2026-05-02T09:23:54.999Z</time></trkpt><trkpt lat="43.04799413610124" lon="11.451080763265528"><ele>481.0</ele><time>2026-05-02T09:23:55.999Z</time></trkpt><trkpt lat="43.04797631345493" lon="11.451211416677307"><ele>481.0</ele><time>2026-05-02T09:23:56.999Z</time></trkpt><trkpt lat="43.04795722652377" lon="11.45135463081094"><ele>481.0</ele><time>2026-05-02T09:23:57.999Z</time></trkpt><trkpt lat="43.047928041984676" lon="11.451488122806406"><ele>481.0</ele><time>2026-05-02T09:23:58.999Z</time></trkpt><trkpt lat="43.04788897875907" lon="11.451612419334737"><ele>481.0</ele><time>2026-05-02T09:23:59.999Z</time></trkpt><trkpt lat="43.04784167890631" lon="11.451736789688185"><ele>481.8</ele><time>2026-05-02T09:24:00.999Z</time></trkpt><trkpt lat="43.04779659488226" lon="11.45185641072096"><ele>482.6</ele><time>2026-05-02T09:24:01.999Z</time></trkpt><trkpt lat="43.04776041806927" lon="11.451971530270546"><ele>483.4</ele><time>2026-05-02T09:24:02.999Z</time></trkpt><trkpt lat="43.04770614757639" lon="11.452093903142881"><ele>484.2</ele><time>2026-05-02T09:24:03.999Z</time></trkpt><trkpt lat="43.04769238509964" lon="11.452251297410003"><ele>485.0</ele><time>2026-05-02T09:24:04.999Z</time></trkpt><trkpt lat="43.04766573648392" lon="11.452406819436975"><ele>486.25</ele><time>2026-05-02T09:24:05.999Z</time></trkpt><trkpt lat="43.047635078953796" lon="11.452572272835063"><ele>487.5</ele><time>2026-05-02T09:24:06.999Z</time></trkpt><trkpt lat="43.04760142306572" lon="11.452745378627693"><ele>488.75</ele><time>2026-05-02T09:24:07.999Z</time></trkpt><trkpt lat="43.047568182274375" lon="11.452905697597146"><ele>490.0</ele><time>2026-05-02T09:24:08.999Z</time></trkpt><trkpt lat="43.04753989497489" lon="11.453067921548193"><ele>490.6</ele><time>2026-05-02T09:24:09.999Z</time></trkpt><trkpt lat="43.047520551308054" lon="11.453219650278761"><ele>491.2</ele><time>2026-05-02T09:24:10.999Z</time></trkpt><trkpt lat="43.047509899750125" lon="11.453373567184542"><ele>491.79999999999995</ele><time>2026-05-02T09:24:11.999Z</time></trkpt><trkpt lat="43.04749847398395" lon="11.453521649679239"><ele>492.4</ele><time>2026-05-02T09:24:12.999Z</time></trkpt><trkpt lat="43.04748272381268" lon="11.453638474984798"><ele>493.0</ele><time>2026-05-02T09:24:13.999Z</time></trkpt><trkpt lat="43.047451858618246" lon="11.453747649858412"><ele>494.50000000000006</ele><time>2026-05-02T09:24:14.999Z</time></trkpt><trkpt lat="43.04739621422886" lon="11.453833043914225"><ele>496.0</ele><time>2026-05-02T09:24:15.999Z</time></trkpt><trkpt lat="43.04732835327113" lon="11.453895116938757"><ele>497.5</ele><time>2026-05-02T09:24:16.999Z</time></trkpt><trkpt lat="43.0472500089523" lon="11.45394669227574"><ele>499.0</ele><time>2026-05-02T09:24:17.999Z</time></trkpt><trkpt lat="43.047170827067575" lon="11.45399632977707"><ele>500.50000000000006</ele><time>2026-05-02T09:24:18.999Z</time></trkpt><trkpt lat="43.04709656928643" lon="11.454044125942197"><ele>502.0</ele><time>2026-05-02T09:24:19.999Z</time></trkpt><trkpt lat="43.04702099045371" lon="11.454094866239458"><ele>502.0</ele><time>2026-05-02T09:24:20.999Z</time></trkpt><trkpt lat="43.046948204573646" lon="11.45411299158907"><ele>502.00000000000006</ele><time>2026-05-02T09:24:22Z</time></trkpt><trkpt lat="43.046855154703266" lon="11.4541669968971"><ele>502.00000000000006</ele><time>2026-05-02T09:24:24Z</time></trkpt><trkpt lat="43.046787970992135" lon="11.454207071831329"><ele>502.0</ele><time>2026-05-02T09:24:26Z</time></trkpt><trkpt lat="43.04673104489573" lon="11.454255430984931"><ele>502.0</ele><time>2026-05-02T09:24:28Z</time></trkpt><trkpt lat="43.04660898615788" lon="11.454352121244652"><ele>502.83333333333337</ele><time>2026-05-02T09:27:39Z</time></trkpt><trkpt lat="43.046555008057936" lon="11.4544001600488"><ele>503.6666666666667</ele><time>2026-05-02T09:27:40Z</time></trkpt><trkpt lat="43.046492651918115" lon="11.454461443262595"><ele>504.5</ele><time>2026-05-02T09:27:41Z</time></trkpt><trkpt lat="43.046416176508515" lon="11.454527995678202"><ele>505.33333333333337</ele><time>2026-05-02T09:27:42Z</time></trkpt><trkpt lat="43.04633131968588" lon="11.454609944170807"><ele>506.1666666666667</ele><time>2026-05-02T09:27:43Z</time></trkpt><trkpt lat="43.04624957568519" lon="11.454686131010956"><ele>507.0</ele><time>2026-05-02T09:27:44Z</time></trkpt><trkpt lat="43.04616966358821" lon="11.454752290500823"><ele>507.0</ele><time>2026-05-02T09:27:45Z</time></trkpt><trkpt lat="43.04608386365689" lon="11.45480684232804"><ele>507.00000000000006</ele><time>2026-05-02T09:27:46Z</time></trkpt><trkpt lat="43.04600353668806" lon="11.454855531421412"><ele>507.00000000000006</ele><time>2026-05-02T09:27:47Z</time></trkpt><trkpt lat="43.04591395621792" lon="11.45488697221139"><ele>507.0</ele><time>2026-05-02T09:27:48Z</time></trkpt><trkpt lat="43.04582753256445" lon="11.454942539875479"><ele>507.0</ele><time>2026-05-02T09:27:49Z</time></trkpt><trkpt lat="43.04573775495178" lon="11.45501705818887"><ele>506.8333333333333</ele><time>2026-05-02T09:27:50Z</time></trkpt><trkpt lat="43.04564783515871" lon="11.455069392490062"><ele>506.66666666666663</ele><time>2026-05-02T09:27:51Z</time></trkpt><trkpt lat="43.045571814769914" lon="11.455140986322295"><ele>506.5</ele><time>2026-05-02T09:27:52Z</time></trkpt><trkpt lat="43.04551041818769" lon="11.455212972877419"><ele>506.3333333333333</ele><time>2026-05-02T09:27:53Z</time></trkpt><trkpt lat="43.04546132512926" lon="11.455297469504602"><ele>506.16666666666663</ele><time>2026-05-02T09:27:53.999Z</time></trkpt><trkpt lat="43.045413606676405" lon="11.455391371859761"><ele>506.0</ele><time>2026-05-02T09:27:54.999Z</time></trkpt><trkpt lat="43.04536637308603" lon="11.45549303609792"><ele>505.6</ele><time>2026-05-02T09:27:55.999Z</time></trkpt><trkpt lat="43.04532205187751" lon="11.455592043359623"><ele>505.20000000000005</ele><time>2026-05-02T09:27:56.999Z</time></trkpt><trkpt lat="43.04526299055247" lon="11.455708392904448"><ele>504.79999999999995</ele><time>2026-05-02T09:27:57.999Z</time></trkpt><trkpt lat="43.0452007049501" lon="11.455821229099731"><ele>504.4</ele><time>2026-05-02T09:27:58.999Z</time></trkpt><trkpt lat="43.04514498222611" lon="11.455927331356989"><ele>504.0</ele><time>2026-05-02T09:27:59.999Z</time></trkpt><trkpt lat="43.04509267779033" lon="11.45601774743304"><ele>504.0</ele><time>2026-05-02T09:28:00.999Z</time></trkpt><trkpt lat="43.04504644823147" lon="11.456101822116526"><ele>504.0</ele><time>2026-05-02T09:28:01.999Z</time></trkpt><trkpt lat="43.04499834823513" lon="11.456190780901549"><ele>504.0</ele><time>2026-05-02T09:28:02.999Z</time></trkpt><trkpt lat="43.04494759661093" lon="11.456292565264382"><ele>504.0</ele><time>2026-05-02T09:28:03.999Z</time></trkpt><trkpt lat="43.04489723746517" lon="11.456391126469384"><ele>504.0</ele><time>2026-05-02T09:28:04.999Z</time></trkpt><trkpt lat="43.044853678267216" lon="11.456492109791883"><ele>504.0</ele><time>2026-05-02T09:28:05.999Z</time></trkpt><trkpt lat="43.044794931059094" lon="11.456594028213907"><ele>503.6666666666667</ele><time>2026-05-02T09:28:06.999Z</time></trkpt><trkpt lat="43.04479476063971" lon="11.456709769548423"><ele>503.33333333333337</ele><time>2026-05-02T09:28:07.999Z</time></trkpt><trkpt lat="43.044781659215325" lon="11.456814283284265"><ele>503.0</ele><time>2026-05-02T09:28:08.999Z</time></trkpt><trkpt lat="43.04476903132359" lon="11.45692025910453"><ele>502.6666666666667</ele><time>2026-05-02T09:28:09.999Z</time></trkpt><trkpt lat="43.044754217546014" lon="11.457025122861607"><ele>502.33333333333337</ele><time>2026-05-02T09:28:10.999Z</time></trkpt><trkpt lat="43.04473222247786" lon="11.457139298494187"><ele>502.0</ele><time>2026-05-02T09:28:11.999Z</time></trkpt><trkpt lat="43.04470220412206" lon="11.457261618719267"><ele>503.6</ele><time>2026-05-02T09:28:12.999Z</time></trkpt><trkpt lat="43.04465230313118" lon="11.45736699916212"><ele>505.20000000000005</ele><time>2026-05-02T09:28:13.999Z</time></trkpt><trkpt lat="43.044585158643" lon="11.457438201577766"><ele>506.8</ele><time>2026-05-02T09:28:14.999Z</time></trkpt><trkpt lat="43.04449400446952" lon="11.457510154078225"><ele>508.4</ele><time>2026-05-02T09:28:15.999Z</time></trkpt><trkpt lat="43.04440518439623" lon="11.457582288199118"><ele>510.0</ele><time>2026-05-02T09:28:16.999Z</time></trkpt><trkpt lat="43.04432047017149" lon="11.457659279856044"><ele>510.0</ele><time>2026-05-02T09:28:17.999Z</time></trkpt><trkpt lat="43.04423744700835" lon="11.45774052469753"><ele>510.0</ele><time>2026-05-02T09:28:18.999Z</time></trkpt><trkpt lat="43.04416383682423" lon="11.457824195129941"><ele>510.0</ele><time>2026-05-02T09:28:19.999Z</time></trkpt><trkpt lat="43.04410020182802" lon="11.457915098630073"><ele>510.0</ele><time>2026-05-02T09:28:20.999Z</time></trkpt><trkpt lat="43.04404191977441" lon="11.45801094223596"><ele>510.0</ele><time>2026-05-02T09:28:21.999Z</time></trkpt><trkpt lat="43.04398680623913" lon="11.45811314543963"><ele>509.5</ele><time>2026-05-02T09:28:22.999Z</time></trkpt><trkpt lat="43.04393175471042" lon="11.458212307001915"><ele>509.0</ele><time>2026-05-02T09:28:23.999Z</time></trkpt><trkpt lat="43.04386184458805" lon="11.458287570940922"><ele>508.5</ele><time>2026-05-02T09:28:24.999Z</time></trkpt><trkpt lat="43.04380995442608" lon="11.458368560236783"><ele>508.0</ele><time>2026-05-02T09:28:25.999Z</time></trkpt><trkpt lat="43.04376016168842" lon="11.458446275839325"><ele>507.5</ele><time>2026-05-02T09:28:26.999Z</time></trkpt><trkpt lat="43.043717789599924" lon="11.45851240942651"><ele>507.0</ele><time>2026-05-02T09:28:27.999Z</time></trkpt><trkpt lat="43.04363540166035" lon="11.458640999041823"><ele>507.0</ele><time>2026-05-02T09:28:29.999Z</time></trkpt><trkpt lat="43.04355617874618" lon="11.458768684860967"><ele>507.0</ele><time>2026-05-02T09:28:31.999Z</time></trkpt><trkpt lat="43.04352231198626" lon="11.458849663491987"><ele>507.0</ele><time>2026-05-02T09:28:32.999Z</time></trkpt><trkpt lat="43.043472189704936" lon="11.458912558217317"><ele>507.0</ele><time>2026-05-02T09:28:34Z</time></trkpt><trkpt lat="43.04341915347354" lon="11.458974924994475"><ele>507.0</ele><time>2026-05-02T09:28:35Z</time></trkpt><trkpt lat="43.04336065480929" lon="11.459032589542902"><ele>507.0</ele><time>2026-05-02T09:28:36Z</time></trkpt><trkpt lat="43.04329185766231" lon="11.459088024279247"><ele>507.0</ele><time>2026-05-02T09:28:37Z</time></trkpt><trkpt lat="43.043219579323946" lon="11.459140366699236"><ele>507.0</ele><time>2026-05-02T09:28:38Z</time></trkpt><trkpt lat="43.04314409652358" lon="11.459185711562112"><ele>507.0</ele><time>2026-05-02T09:28:39Z</time></trkpt><trkpt lat="43.0430633730436" lon="11.459233210074483"><ele>507.0</ele><time>2026-05-02T09:28:40Z</time></trkpt><trkpt lat="43.04298608553254" lon="11.459286396293693"><ele>507.0</ele><time>2026-05-02T09:28:41Z</time></trkpt><trkpt lat="43.042917910411234" lon="11.45936154333646"><ele>507.0</ele><time>2026-05-02T09:28:42Z</time></trkpt><trkpt lat="43.04286317519458" lon="11.459450902685282"><ele>507.0</ele><time>2026-05-02T09:28:43Z</time></trkpt><trkpt lat="43.04281996516424" lon="11.459561362348078"><ele>507.00000000000006</ele><time>2026-05-02T09:28:44Z</time></trkpt><trkpt lat="43.04278157310045" lon="11.459682690328307"><ele>507.00000000000006</ele><time>2026-05-02T09:28:45Z</time></trkpt><trkpt lat="43.04274980948772" lon="11.45980535121073"><ele>507.0</ele><time>2026-05-02T09:28:46Z</time></trkpt><trkpt lat="43.04272371053343" lon="11.459924485267642"><ele>507.0</ele><time>2026-05-02T09:28:47Z</time></trkpt><trkpt lat="43.042705244519205" lon="11.46003952529935"><ele>507.6</ele><time>2026-05-02T09:28:48Z</time></trkpt><trkpt lat="43.042700376771954" lon="11.46016091880544"><ele>508.20000000000005</ele><time>2026-05-02T09:28:49Z</time></trkpt><trkpt lat="43.04271924536527" lon="11.460282044559527"><ele>508.8</ele><time>2026-05-02T09:28:50Z</time></trkpt><trkpt lat="43.04274193021672" lon="11.460407228555221"><ele>509.4</ele><time>2026-05-02T09:28:51Z</time></trkpt><trkpt lat="43.042815022598816" lon="11.460513594759494"><ele>510.0</ele><time>2026-05-02T09:28:52Z</time></trkpt><trkpt lat="43.04288134513933" lon="11.460636139030496"><ele>510.0</ele><time>2026-05-02T09:28:53Z</time></trkpt><trkpt lat="43.04294801367679" lon="11.460763230064767"><ele>510.0</ele><time>2026-05-02T09:28:54Z</time></trkpt><trkpt lat="43.04301075138117" lon="11.460915983545137"><ele>510.0</ele><time>2026-05-02T09:28:55Z</time></trkpt><trkpt lat="43.04307145785315" lon="11.461074041342977"><ele>510.0</ele><time>2026-05-02T09:28:56Z</time></trkpt><trkpt lat="43.04313989707768" lon="11.46123860848613"><ele>508.5</ele><time>2026-05-02T09:28:57Z</time></trkpt><trkpt lat="43.043209715627384" lon="11.461405741179286"><ele>507.0</ele><time>2026-05-02T09:28:58Z</time></trkpt><trkpt lat="43.04327971071471" lon="11.461576125022658"><ele>505.5</ele><time>2026-05-02T09:28:59Z</time></trkpt><trkpt lat="43.04334789700688" lon="11.461749573442154"><ele>504.0</ele><time>2026-05-02T09:29:00Z</time></trkpt><trkpt lat="43.043415401034075" lon="11.461920891968392"><ele>503.25</ele><time>2026-05-02T09:29:01Z</time></trkpt><trkpt lat="43.04348228862078" lon="11.462090819378428"><ele>502.5</ele><time>2026-05-02T09:29:02Z</time></trkpt><trkpt lat="43.04354680754317" lon="11.462252596572915"><ele>501.75</ele><time>2026-05-02T09:29:03Z</time></trkpt><trkpt lat="43.04359879295701" lon="11.462402184286805"><ele>501.0</ele><time>2026-05-02T09:29:04Z</time></trkpt><trkpt lat="43.04362978952808" lon="11.462538420462744"><ele>501.0</ele><time>2026-05-02T09:29:05Z</time></trkpt><trkpt lat="43.043634124596515" lon="11.46265729049094"><ele>501.0</ele><time>2026-05-02T09:29:06Z</time></trkpt><trkpt lat="43.043602711455485" lon="11.462772427947485"><ele>501.0</ele><time>2026-05-02T09:29:07Z</time></trkpt><trkpt lat="43.04354673209473" lon="11.46288474281576"><ele>501.0</ele><time>2026-05-02T09:29:08Z</time></trkpt><trkpt lat="43.04346553183853" lon="11.46300506101572"><ele>501.0</ele><time>2026-05-02T09:29:09Z</time></trkpt><trkpt lat="43.0433767212519" lon="11.463119714559424"><ele>501.0</ele><time>2026-05-02T09:29:10Z</time></trkpt><trkpt lat="43.04329759388362" lon="11.463239722458454"><ele>501.0</ele><time>2026-05-02T09:29:11Z</time></trkpt><trkpt lat="43.043228439463554" lon="11.463362563325434"><ele>501.0</ele><time>2026-05-02T09:29:12Z</time></trkpt><trkpt lat="43.043179700377735" lon="11.463484753994491"><ele>501.0</ele><time>2026-05-02T09:29:13Z</time></trkpt><trkpt lat="43.043144330668014" lon="11.463624021649153"><ele>501.0</ele><time>2026-05-02T09:29:14Z</time></trkpt><trkpt lat="43.04312483503849" lon="11.46377017456593"><ele>500.5</ele><time>2026-05-02T09:29:15Z</time></trkpt><trkpt lat="43.043113888507804" lon="11.463922619195369"><ele>500.0</ele><time>2026-05-02T09:29:16Z</time></trkpt><trkpt lat="43.043099880392894" lon="11.464078349575445"><ele>499.5</ele><time>2026-05-02T09:29:17Z</time></trkpt><trkpt lat="43.04307518914362" lon="11.464228848978557"><ele>499.0</ele><time>2026-05-02T09:29:18Z</time></trkpt><trkpt lat="43.04304832467827" lon="11.464375407855668"><ele>499.0</ele><time>2026-05-02T09:29:19Z</time></trkpt><trkpt lat="43.04302631645579" lon="11.46451916068811"><ele>499.0</ele><time>2026-05-02T09:29:20Z</time></trkpt><trkpt lat="43.04300024705699" lon="11.464654491906755"><ele>499.0</ele><time>2026-05-02T09:29:21Z</time></trkpt><trkpt lat="43.04297458926593" lon="11.464777220747276"><ele>499.0</ele><time>2026-05-02T09:29:22Z</time></trkpt><trkpt lat="43.042940844206676" lon="11.464892152452014"><ele>499.0</ele><time>2026-05-02T09:29:23Z</time></trkpt><trkpt lat="43.0428949910217" lon="11.465008434007807"><ele>499.6</ele><time>2026-05-02T09:29:24Z</time></trkpt><trkpt lat="43.04284567754219" lon="11.465126844422166"><ele>500.2</ele><time>2026-05-02T09:29:25Z</time></trkpt><trkpt lat="43.04279103253508" lon="11.465249727957103"><ele>500.80000000000007</ele><time>2026-05-02T09:29:26Z</time></trkpt><trkpt lat="43.04274150529473" lon="11.465379261425765"><ele>501.40000000000003</ele><time>2026-05-02T09:29:27Z</time></trkpt><trkpt lat="43.04270417939633" lon="11.46551962906484"><ele>502.0</ele><time>2026-05-02T09:29:28Z</time></trkpt><trkpt lat="43.0426819806393" lon="11.46566020112221"><ele>502.0</ele><time>2026-05-02T09:29:29Z</time></trkpt><trkpt lat="43.042667608187436" lon="11.465798321576948"><ele>502.00000000000006</ele><time>2026-05-02T09:29:30Z</time></trkpt><trkpt lat="43.042659869775285" lon="11.465942477442352"><ele>502.00000000000006</ele><time>2026-05-02T09:29:31Z</time></trkpt><trkpt lat="43.04265293609757" lon="11.466090700707745"><ele>502.0</ele><time>2026-05-02T09:29:32Z</time></trkpt><trkpt lat="43.04264664213483" lon="11.466239690683842"><ele>502.0</ele><time>2026-05-02T09:29:33Z</time></trkpt><trkpt lat="43.04263711650575" lon="11.466387019698594"><ele>501.8</ele><time>2026-05-02T09:29:34Z</time></trkpt><trkpt lat="43.042626063644995" lon="11.466534172859513"><ele>501.6</ele><time>2026-05-02T09:29:35Z</time></trkpt><trkpt lat="43.042618032535934" lon="11.466683945472935"><ele>501.40000000000003</ele><time>2026-05-02T09:29:36Z</time></trkpt><trkpt lat="43.04261102349207" lon="11.466829528116657"><ele>501.20000000000005</ele><time>2026-05-02T09:29:37Z</time></trkpt><trkpt lat="43.04260068141374" lon="11.466968948051111"><ele>501.0</ele><time>2026-05-02T09:29:38Z</time></trkpt><trkpt lat="43.04257360243751" lon="11.467095366361038"><ele>500.8</ele><time>2026-05-02T09:29:39Z</time></trkpt><trkpt lat="43.042536833726494" lon="11.46722131463121"><ele>500.6</ele><time>2026-05-02T09:29:40Z</time></trkpt><trkpt lat="43.04248882053928" lon="11.467356556187163"><ele>500.4</ele><time>2026-05-02T09:29:41Z</time></trkpt><trkpt lat="43.042435290698265" lon="11.467496998713452"><ele>500.2</ele><time>2026-05-02T09:29:42Z</time></trkpt><trkpt lat="43.042380589603766" lon="11.467642941877928"><ele>500.0</ele><time>2026-05-02T09:29:43Z</time></trkpt><trkpt lat="43.04232444362831" lon="11.467798088198856"><ele>501.25</ele><time>2026-05-02T09:29:44Z</time></trkpt><trkpt lat="43.04227916790411" lon="11.467956384217798"><ele>502.5</ele><time>2026-05-02T09:29:45Z</time></trkpt><trkpt lat="43.04224418330112" lon="11.468125931926144"><ele>503.75</ele><time>2026-05-02T09:29:46Z</time></trkpt><trkpt lat="43.04221374355065" lon="11.468288144738603"><ele>505.0</ele><time>2026-05-02T09:29:47Z</time></trkpt><trkpt lat="43.042181468245445" lon="11.46844174404684"><ele>505.0</ele><time>2026-05-02T09:29:48Z</time></trkpt><trkpt lat="43.04214898473952" lon="11.468592405342081"><ele>505.0</ele><time>2026-05-02T09:29:49Z</time></trkpt><trkpt lat="43.04211821917243" lon="11.468748038986828"><ele>505.0</ele><time>2026-05-02T09:29:50Z</time></trkpt><trkpt lat="43.04208170857463" lon="11.468894612825075"><ele>505.0</ele><time>2026-05-02T09:29:51Z</time></trkpt><trkpt lat="43.042028302681345" lon="11.469031201789834"><ele>505.2</ele><time>2026-05-02T09:29:52Z</time></trkpt><trkpt lat="43.04195265460876" lon="11.469138790757082"><ele>505.4</ele><time>2026-05-02T09:29:53Z</time></trkpt><trkpt lat="43.04186681962935" lon="11.469219714653624"><ele>505.6</ele><time>2026-05-02T09:29:54Z</time></trkpt><trkpt lat="43.041771566023115" lon="11.46929009246452"><ele>505.8</ele><time>2026-05-02T09:29:55Z</time></trkpt><trkpt lat="43.04166520418091" lon="11.469342668927643"><ele>506.0</ele><time>2026-05-02T09:29:56Z</time></trkpt><trkpt lat="43.04154178108361" lon="11.469394841569075"><ele>508.0</ele><time>2026-05-02T09:29:57Z</time></trkpt><trkpt lat="43.041398359640375" lon="11.469463628624524"><ele>510.0</ele><time>2026-05-02T09:29:58Z</time></trkpt><trkpt lat="43.04126012564135" lon="11.469548154902911"><ele>512.0</ele><time>2026-05-02T09:29:58.999Z</time></trkpt><trkpt lat="43.04112831762535" lon="11.469653524131434"><ele>513.3333333333333</ele><time>2026-05-02T09:29:59.999Z</time></trkpt><trkpt lat="43.0410030476674" lon="11.46976851577497"><ele>514.6666666666666</ele><time>2026-05-02T09:30:00.999Z</time></trkpt><trkpt lat="43.040880732095395" lon="11.469898229602398"><ele>516.0</ele><time>2026-05-02T09:30:01.999Z</time></trkpt><trkpt lat="43.04075893634056" lon="11.470032227063388"><ele>517.25</ele><time>2026-05-02T09:30:02.999Z</time></trkpt><trkpt lat="43.04064415995331" lon="11.470170816418898"><ele>518.5</ele><time>2026-05-02T09:30:03.999Z</time></trkpt><trkpt lat="43.040549279574286" lon="11.470324025502842"><ele>519.75</ele><time>2026-05-02T09:30:04.999Z</time></trkpt><trkpt lat="43.04045516975723" lon="11.470472336780128"><ele>521.0</ele><time>2026-05-02T09:30:05.999Z</time></trkpt><trkpt lat="43.04035860701223" lon="11.47059665148034"><ele>522.75</ele><time>2026-05-02T09:30:06.999Z</time></trkpt><trkpt lat="43.04024891950386" lon="11.470675819216149"><ele>524.5</ele><time>2026-05-02T09:30:07.999Z</time></trkpt><trkpt lat="43.04012787145222" lon="11.470709996071285"><ele>526.25</ele><time>2026-05-02T09:30:08.999Z</time></trkpt><trkpt lat="43.039995429767366" lon="11.47073641229711"><ele>528.0</ele><time>2026-05-02T09:30:09.999Z</time></trkpt><trkpt lat="43.03985750298689" lon="11.470800865366893"><ele>529.0</ele><time>2026-05-02T09:30:10.999Z</time></trkpt><trkpt lat="43.0397205540678" lon="11.470883105914934"><ele>530.0</ele><time>2026-05-02T09:30:11.999Z</time></trkpt><trkpt lat="43.03958507831308" lon="11.47095966327834"><ele>531.0</ele><time>2026-05-02T09:30:12.999Z</time></trkpt><trkpt lat="43.039451065262625" lon="11.471036564773433"><ele>532.0</ele><time>2026-05-02T09:30:13.999Z</time></trkpt><trkpt lat="43.039317403276975" lon="11.471119528993318"><ele>532.0</ele><time>2026-05-02T09:30:14.999Z</time></trkpt><trkpt lat="43.03918922451097" lon="11.471207484437226"><ele>532.0</ele><time>2026-05-02T09:30:15.999Z</time></trkpt><trkpt lat="43.03906604011249" lon="11.47130860727452"><ele>532.0</ele><time>2026-05-02T09:30:16.999Z</time></trkpt><trkpt lat="43.038959525954304" lon="11.471435700115011"><ele>532.0</ele><time>2026-05-02T09:30:17.999Z</time></trkpt><trkpt lat="43.03886824250453" lon="11.471577191696326"><ele>532.25</ele><time>2026-05-02T09:30:18.999Z</time></trkpt><trkpt lat="43.03878354618529" lon="11.47172808822139"><ele>532.5</ele><time>2026-05-02T09:30:19.999Z</time></trkpt><trkpt lat="43.03871545612032" lon="11.471892016697865"><ele>532.75</ele><time>2026-05-02T09:30:20.999Z</time></trkpt><trkpt lat="43.03866709704035" lon="11.472071020590258"><ele>533.0</ele><time>2026-05-02T09:30:21.999Z</time></trkpt><trkpt lat="43.038642252840944" lon="11.47225905428775"><ele>538.0</ele><time>2026-05-02T09:30:22.999Z</time></trkpt><trkpt lat="43.03864776327101" lon="11.47246112133284"><ele>543.0</ele><time>2026-05-02T09:30:23.999Z</time></trkpt><trkpt lat="43.03866937499108" lon="11.472669909141578"><ele>548.0</ele><time>2026-05-02T09:30:24.999Z</time></trkpt><trkpt lat="43.03869823561073" lon="11.472880440875905"><ele>551.0</ele><time>2026-05-02T09:30:25.999Z</time></trkpt><trkpt lat="43.038726300453334" lon="11.473087065852516"><ele>554.0</ele><time>2026-05-02T09:30:26.999Z</time></trkpt><trkpt lat="43.038734696928586" lon="11.473278627259178"><ele>557.0</ele><time>2026-05-02T09:30:27.999Z</time></trkpt><trkpt lat="43.038704339798485" lon="11.473449094536345"><ele>560.0</ele><time>2026-05-02T09:30:28.999Z</time></trkpt><trkpt lat="43.03864689839097" lon="11.473603260356711"><ele>560.0</ele><time>2026-05-02T09:30:29.999Z</time></trkpt><trkpt lat="43.03856071853709" lon="11.473728885298415"><ele>560.0</ele><time>2026-05-02T09:30:30.999Z</time></trkpt><trkpt lat="43.03845006332397" lon="11.473828904351326"><ele>560.0</ele><time>2026-05-02T09:30:31.999Z</time></trkpt><trkpt lat="43.03831639423721" lon="11.473910786012592"><ele>560.0</ele><time>2026-05-02T09:30:32.999Z</time></trkpt><trkpt lat="43.03817368314567" lon="11.473975575621715"><ele>562.25</ele><time>2026-05-02T09:30:33.999Z</time></trkpt><trkpt lat="43.03803236559068" lon="11.474042356919623"><ele>564.5</ele><time>2026-05-02T09:30:34.999Z</time></trkpt><trkpt lat="43.03790033911062" lon="11.47411199394804"><ele>566.75</ele><time>2026-05-02T09:30:35.999Z</time></trkpt><trkpt lat="43.03779032728738" lon="11.474207333911957"><ele>569.0</ele><time>2026-05-02T09:30:36.999Z</time></trkpt><trkpt lat="43.03770875154765" lon="11.474346920263617"><ele>569.0</ele><time>2026-05-02T09:30:37.999Z</time></trkpt><trkpt lat="43.037666202523084" lon="11.474525645586098"><ele>569.0</ele><time>2026-05-02T09:30:38.999Z</time></trkpt><trkpt lat="43.037661379395345" lon="11.474718505792962"><ele>569.0</ele><time>2026-05-02T09:30:40Z</time></trkpt><trkpt lat="43.037674653762" lon="11.474916173045164"><ele>569.0</ele><time>2026-05-02T09:30:41Z</time></trkpt><trkpt lat="43.0376912159858" lon="11.475127446310392"><ele>573.0</ele><time>2026-05-02T09:30:42Z</time></trkpt><trkpt lat="43.03770352745609" lon="11.47534866027795"><ele>577.0</ele><time>2026-05-02T09:30:43Z</time></trkpt><trkpt lat="43.03771100124882" lon="11.475576659572319"><ele>581.0</ele><time>2026-05-02T09:30:44Z</time></trkpt><trkpt lat="43.037715966545065" lon="11.475802649810142"><ele>583.6666666666666</ele><time>2026-05-02T09:30:45Z</time></trkpt><trkpt lat="43.037723501914094" lon="11.476027353826654"><ele>586.3333333333334</ele><time>2026-05-02T09:30:46Z</time></trkpt><trkpt lat="43.03773161160352" lon="11.476249295153002"><ele>589.0</ele><time>2026-05-02T09:30:47Z</time></trkpt><trkpt lat="43.03773915225003" lon="11.476471186812343"><ele>590.0</ele><time>2026-05-02T09:30:48Z</time></trkpt><trkpt lat="43.03774796218693" lon="11.476687262440434"><ele>591.0</ele><time>2026-05-02T09:30:49Z</time></trkpt><trkpt lat="43.03775607974761" lon="11.47690852486475"><ele>592.0</ele><time>2026-05-02T09:30:50Z</time></trkpt><trkpt lat="43.0377635866177" lon="11.477130043511096"><ele>594.0</ele><time>2026-05-02T09:30:51Z</time></trkpt><trkpt lat="43.03776027916603" lon="11.47735048051026"><ele>596.0</ele><time>2026-05-02T09:30:52Z</time></trkpt><trkpt lat="43.0377420403666" lon="11.47757240642001"><ele>598.0</ele><time>2026-05-02T09:30:53Z</time></trkpt><trkpt lat="43.037711479660665" lon="11.477794078990497"><ele>598.0</ele><time>2026-05-02T09:30:54Z</time></trkpt><trkpt lat="43.0376772492322" lon="11.478015791580107"><ele>598.0</ele><time>2026-05-02T09:30:55Z</time></trkpt><trkpt lat="43.037636139011916" lon="11.478226658141125"><ele>598.0</ele><time>2026-05-02T09:30:56Z</time></trkpt><trkpt lat="43.037580268956134" lon="11.478424235192827"><ele>598.0</ele><time>2026-05-02T09:30:57Z</time></trkpt><trkpt lat="43.03749980043953" lon="11.47860196642613"><ele>598.0</ele><time>2026-05-02T09:30:58Z</time></trkpt><trkpt lat="43.03740293157054" lon="11.478763762121199"><ele>598.0</ele><time>2026-05-02T09:30:59Z</time></trkpt><trkpt lat="43.03730831129804" lon="11.478913164306238"><ele>598.25</ele><time>2026-05-02T09:31:00Z</time></trkpt><trkpt lat="43.03721829295627" lon="11.479053171756"><ele>598.5</ele><time>2026-05-02T09:31:01Z</time></trkpt><trkpt lat="43.037135193384536" lon="11.479185237179854"><ele>598.75</ele><time>2026-05-02T09:31:02Z</time></trkpt><trkpt lat="43.03705867684436" lon="11.479306799818003"><ele>599.0</ele><time>2026-05-02T09:31:03Z</time></trkpt><trkpt lat="43.03699021199959" lon="11.479415818613475"><ele>599.0</ele><time>2026-05-02T09:31:04Z</time></trkpt><trkpt lat="43.036933420286715" lon="11.479503130394386"><ele>599.0</ele><time>2026-05-02T09:31:05Z</time></trkpt><trkpt lat="43.03686787646212" lon="11.479597676504651"><ele>599.0</ele><time>2026-05-02T09:31:07Z</time></trkpt><trkpt lat="43.03681559866166" lon="11.47971651089367"><ele>599.0</ele><time>2026-05-02T09:31:13Z</time></trkpt><trkpt lat="43.03690529818461" lon="11.479897970615093"><ele>599.0</ele><time>2026-05-02T09:31:17Z</time></trkpt><trkpt lat="43.036969754045245" lon="11.479943456559553"><ele>599.4</ele><time>2026-05-02T09:31:18Z</time></trkpt><trkpt lat="43.0370466747651" lon="11.479998090586733"><ele>599.8</ele><time>2026-05-02T09:31:19Z</time></trkpt><trkpt lat="43.03712771942352" lon="11.480059148083738"><ele>600.2</ele><time>2026-05-02T09:31:20Z</time></trkpt><trkpt lat="43.03721388295516" lon="11.480126735752867"><ele>600.6</ele><time>2026-05-02T09:31:21Z</time></trkpt><trkpt lat="43.03731238448405" lon="11.480184191162982"><ele>601.0</ele><time>2026-05-02T09:31:22Z</time></trkpt><trkpt lat="43.03740818845315" lon="11.480266919366645"><ele>599.5</ele><time>2026-05-02T09:31:23Z</time></trkpt><trkpt lat="43.03750647751958" lon="11.480356571421149"><ele>598.0</ele><time>2026-05-02T09:31:24Z</time></trkpt><trkpt lat="43.037611387972284" lon="11.4804548005781"><ele>596.5</ele><time>2026-05-02T09:31:25Z</time></trkpt><trkpt lat="43.037723779182635" lon="11.48055620857599"><ele>595.0</ele><time>2026-05-02T09:31:26Z</time></trkpt><trkpt lat="43.03783586744238" lon="11.48066007760822"><ele>594.25</ele><time>2026-05-02T09:31:27Z</time></trkpt><trkpt lat="43.037948153568756" lon="11.480760227775287"><ele>593.5</ele><time>2026-05-02T09:31:28Z</time></trkpt><trkpt lat="43.03806302033924" lon="11.480859534358094"><ele>592.75</ele><time>2026-05-02T09:31:29Z</time></trkpt><trkpt lat="43.03817943453114" lon="11.48095907908909"><ele>592.0</ele><time>2026-05-02T09:31:30Z</time></trkpt><trkpt lat="43.038297922870825" lon="11.481060527501647"><ele>591.5</ele><time>2026-05-02T09:31:31Z</time></trkpt><trkpt lat="43.03841812398479" lon="11.481164317706549"><ele>591.0</ele><time>2026-05-02T09:31:32Z</time></trkpt><trkpt lat="43.038539381791814" lon="11.481270442039742"><ele>590.5</ele><time>2026-05-02T09:31:33Z</time></trkpt><trkpt lat="43.038663947170036" lon="11.481378326881687"><ele>590.0</ele><time>2026-05-02T09:31:34Z</time></trkpt><trkpt lat="43.03879145649229" lon="11.481490207188298"><ele>589.6666666666666</ele><time>2026-05-02T09:31:35Z</time></trkpt><trkpt lat="43.038920400840006" lon="11.481605982171697"><ele>589.3333333333334</ele><time>2026-05-02T09:31:36Z</time></trkpt><trkpt lat="43.03905142262615" lon="11.481722165235864"><ele>589.0</ele><time>2026-05-02T09:31:37Z</time></trkpt><trkpt lat="43.03918544294879" lon="11.481838507119315"><ele>591.3333333333334</ele><time>2026-05-02T09:31:38Z</time></trkpt><trkpt lat="43.03931505853465" lon="11.48195242789038"><ele>593.6666666666666</ele><time>2026-05-02T09:31:39Z</time></trkpt><trkpt lat="43.03944441586078" lon="11.482067213045417"><ele>596.0</ele><time>2026-05-02T09:31:40Z</time></trkpt><trkpt lat="43.039574322523016" lon="11.482176753129824"><ele>599.0</ele><time>2026-05-02T09:31:41Z</time></trkpt><trkpt lat="43.039702736312655" lon="11.482287379540725"><ele>602.0</ele><time>2026-05-02T09:31:42Z</time></trkpt><trkpt lat="43.03983051930239" lon="11.482398777957933"><ele>605.0</ele><time>2026-05-02T09:31:43Z</time></trkpt><trkpt lat="43.03995723525233" lon="11.482506592241158"><ele>606.25</ele><time>2026-05-02T09:31:44Z</time></trkpt><trkpt lat="43.04008680024727" lon="11.482608889395209"><ele>607.5</ele><time>2026-05-02T09:31:45Z</time></trkpt><trkpt lat="43.0402190956572" lon="11.482695526558691"><ele>608.75</ele><time>2026-05-02T09:31:46Z</time></trkpt><trkpt lat="43.040354101747724" lon="11.482770886732421"><ele>610.0</ele><time>2026-05-02T09:31:47Z</time></trkpt><trkpt lat="43.04048868405845" lon="11.482861517902318"><ele>610.0</ele><time>2026-05-02T09:31:48Z</time></trkpt><trkpt lat="43.04063902555804" lon="11.48289444535913"><ele>610.0</ele><time>2026-05-02T09:31:49Z</time></trkpt><trkpt lat="43.0407829308715" lon="11.48294711241597"><ele>610.0</ele><time>2026-05-02T09:31:50Z</time></trkpt><trkpt lat="43.04093051215779" lon="11.482994092921896"><ele>612.6666666666667</ele><time>2026-05-02T09:31:51Z</time></trkpt><trkpt lat="43.041078569946336" lon="11.483040086912336"><ele>615.3333333333334</ele><time>2026-05-02T09:31:52Z</time></trkpt><trkpt lat="43.04123011933295" lon="11.483085267542663"><ele>618.0</ele><time>2026-05-02T09:31:53Z</time></trkpt><trkpt lat="43.04138182435964" lon="11.483136082525345"><ele>618.0</ele><time>2026-05-02T09:31:54Z</time></trkpt><trkpt lat="43.041534402697835" lon="11.483181699336598"><ele>618.0</ele><time>2026-05-02T09:31:55Z</time></trkpt><trkpt lat="43.04168668582293" lon="11.483226753847601"><ele>618.0</ele><time>2026-05-02T09:31:56Z</time></trkpt><trkpt lat="43.041840589410214" lon="11.483272498411079"><ele>616.0</ele><time>2026-05-02T09:31:57Z</time></trkpt><trkpt lat="43.041990486070624" lon="11.483316130360699"><ele>614.0</ele><time>2026-05-02T09:31:58Z</time></trkpt><trkpt lat="43.042140026751916" lon="11.483358854262109"><ele>612.0</ele><time>2026-05-02T09:31:59Z</time></trkpt><trkpt lat="43.04228670537179" lon="11.483398748709213"><ele>612.0</ele><time>2026-05-02T09:31:59.999Z</time></trkpt><trkpt lat="43.04243022911647" lon="11.483438346193582"><ele>612.0</ele><time>2026-05-02T09:32:00.999Z</time></trkpt><trkpt lat="43.0425709615728" lon="11.483479337284361"><ele>612.0</ele><time>2026-05-02T09:32:01.999Z</time></trkpt><trkpt lat="43.04270723706218" lon="11.483520477323049"><ele>612.0</ele><time>2026-05-02T09:32:02.999Z</time></trkpt><trkpt lat="43.04284020859606" lon="11.483564073581658"><ele>612.25</ele><time>2026-05-02T09:32:03.999Z</time></trkpt><trkpt lat="43.04296931219176" lon="11.483601889464664"><ele>612.5</ele><time>2026-05-02T09:32:04.999Z</time></trkpt><trkpt lat="43.04309896137645" lon="11.48363797424812"><ele>612.75</ele><time>2026-05-02T09:32:05.999Z</time></trkpt><trkpt lat="43.04322620070845" lon="11.483675743972064"><ele>613.0</ele><time>2026-05-02T09:32:06.999Z</time></trkpt><trkpt lat="43.04335283247506" lon="11.483712891293559"><ele>613.5</ele><time>2026-05-02T09:32:07.999Z</time></trkpt><trkpt lat="43.04347942445746" lon="11.483760508439405"><ele>614.0</ele><time>2026-05-02T09:32:08.999Z</time></trkpt><trkpt lat="43.0436059679373" lon="11.4838218376259"><ele>614.5</ele><time>2026-05-02T09:32:09.999Z</time></trkpt><trkpt lat="43.04372654698039" lon="11.483907723916248"><ele>615.0</ele><time>2026-05-02T09:32:10.999Z</time></trkpt><trkpt lat="43.04384118505097" lon="11.484008313043578"><ele>614.0</ele><time>2026-05-02T09:32:11.999Z</time></trkpt><trkpt lat="43.043953759625" lon="11.484117479418435"><ele>613.0</ele><time>2026-05-02T09:32:12.999Z</time></trkpt><trkpt lat="43.04406236215043" lon="11.484233895341145"><ele>612.0</ele><time>2026-05-02T09:32:13.999Z</time></trkpt><trkpt lat="43.04417211365777" lon="11.484348196618463"><ele>611.0</ele><time>2026-05-02T09:32:14.999Z</time></trkpt><trkpt lat="43.044276333678525" lon="11.484462713790236"><ele>611.0</ele><time>2026-05-02T09:32:15.999Z</time></trkpt><trkpt lat="43.04437318674861" lon="11.484585566257113"><ele>611.0</ele><time>2026-05-02T09:32:16.999Z</time></trkpt><trkpt lat="43.04445747745728" lon="11.484727583716493"><ele>611.0</ele><time>2026-05-02T09:32:17.999Z</time></trkpt><trkpt lat="43.04452904902984" lon="11.484888580196078"><ele>611.0</ele><time>2026-05-02T09:32:18.999Z</time></trkpt><trkpt lat="43.04458013990684" lon="11.485060582089417"><ele>611.25</ele><time>2026-05-02T09:32:19.999Z</time></trkpt><trkpt lat="43.04462503719683" lon="11.485239272513182"><ele>611.5</ele><time>2026-05-02T09:32:20.999Z</time></trkpt><trkpt lat="43.04467399087356" lon="11.48541661039758"><ele>611.75</ele><time>2026-05-02T09:32:21.999Z</time></trkpt><trkpt lat="43.04472766553654" lon="11.485597797755792"><ele>612.0</ele><time>2026-05-02T09:32:22.999Z</time></trkpt><trkpt lat="43.04477991844351" lon="11.485780798075707"><ele>612.5</ele><time>2026-05-02T09:32:23.999Z</time></trkpt><trkpt lat="43.04483379265387" lon="11.485962355314985"><ele>613.0</ele><time>2026-05-02T09:32:24.999Z</time></trkpt><trkpt lat="43.0448873457707" lon="11.486141422301644"><ele>613.5</ele><time>2026-05-02T09:32:25.999Z</time></trkpt><trkpt lat="43.04493404289772" lon="11.48631650293485"><ele>614.0</ele><time>2026-05-02T09:32:26.999Z</time></trkpt><trkpt lat="43.04497749654344" lon="11.486485560211468"><ele>614.25</ele><time>2026-05-02T09:32:27.999Z</time></trkpt><trkpt lat="43.04502625726726" lon="11.486649665395236"><ele>614.5</ele><time>2026-05-02T09:32:28.999Z</time></trkpt><trkpt lat="43.04509032018982" lon="11.486808696222866"><ele>614.75</ele><time>2026-05-02T09:32:29.999Z</time></trkpt><trkpt lat="43.04516878696835" lon="11.486935246353465"><ele>615.0</ele><time>2026-05-02T09:32:30.999Z</time></trkpt><trkpt lat="43.0452814331557" lon="11.487030120448859"><ele>615.0</ele><time>2026-05-02T09:32:31.999Z</time></trkpt><trkpt lat="43.04540407832592" lon="11.48706726371824"><ele>615.0</ele><time>2026-05-02T09:32:32.999Z</time></trkpt><trkpt lat="43.04552916925141" lon="11.487070973993594"><ele>615.0</ele><time>2026-05-02T09:32:33.999Z</time></trkpt><trkpt lat="43.04564651206826" lon="11.487072557081461"><ele>615.0</ele><time>2026-05-02T09:32:34.999Z</time></trkpt><trkpt lat="43.04575808410668" lon="11.48708786377856"><ele>614.6</ele><time>2026-05-02T09:32:35.999Z</time></trkpt><trkpt lat="43.04586079904228" lon="11.487128965876513"><ele>614.2</ele><time>2026-05-02T09:32:36.999Z</time></trkpt><trkpt lat="43.045941368349325" lon="11.487233095924154"><ele>613.8</ele><time>2026-05-02T09:32:37.999Z</time></trkpt><trkpt lat="43.04601667938813" lon="11.487336666173343"><ele>613.4</ele><time>2026-05-02T09:32:38.999Z</time></trkpt><trkpt lat="43.04609243965965" lon="11.487453541006593"><ele>613.0</ele><time>2026-05-02T09:32:39.999Z</time></trkpt><trkpt lat="43.04614986319218" lon="11.487605976949556"><ele>613.0</ele><time>2026-05-02T09:32:40.999Z</time></trkpt><trkpt lat="43.0462005497671" lon="11.487770895879112"><ele>613.0</ele><time>2026-05-02T09:32:41.999Z</time></trkpt><trkpt lat="43.046241838319084" lon="11.48794584540363"><ele>613.0</ele><time>2026-05-02T09:32:42.999Z</time></trkpt><trkpt lat="43.04627852398965" lon="11.488128843687383"><ele>613.0</ele><time>2026-05-02T09:32:43.999Z</time></trkpt><trkpt lat="43.04631367390157" lon="11.488320427473692"><ele>609.3333333333334</ele><time>2026-05-02T09:32:44.999Z</time></trkpt><trkpt lat="43.04635313886945" lon="11.488517058369805"><ele>605.6666666666666</ele><time>2026-05-02T09:32:46Z</time></trkpt><trkpt lat="43.04639617519391" lon="11.488713867748096"><ele>602.0</ele><time>2026-05-02T09:32:47Z</time></trkpt><trkpt lat="43.046442427374586" lon="11.488913074573913"><ele>599.3333333333333</ele><time>2026-05-02T09:32:48Z</time></trkpt><trkpt lat="43.04650145334626" lon="11.489100797806014"><ele>596.6666666666666</ele><time>2026-05-02T09:32:49Z</time></trkpt><trkpt lat="43.04658766775485" lon="11.489270753537806"><ele>594.0</ele><time>2026-05-02T09:32:50Z</time></trkpt><trkpt lat="43.04670510565238" lon="11.489400984220335"><ele>601.0</ele><time>2026-05-02T09:32:51Z</time></trkpt><trkpt lat="43.046840860333376" lon="11.489491701123512"><ele>608.0</ele><time>2026-05-02T09:32:52Z</time></trkpt><trkpt lat="43.04699042433119" lon="11.489531687093114"><ele>615.0</ele><time>2026-05-02T09:32:53Z</time></trkpt><trkpt lat="43.04714343305109" lon="11.489555534245946"><ele>615.0</ele><time>2026-05-02T09:32:54Z</time></trkpt><trkpt lat="43.04729525215364" lon="11.489576956036043"><ele>615.0</ele><time>2026-05-02T09:32:55Z</time></trkpt><trkpt lat="43.04743522645738" lon="11.48965377564624"><ele>615.0</ele><time>2026-05-02T09:32:56Z</time></trkpt><trkpt lat="43.047571941656365" lon="11.489763221166973"><ele>612.0</ele><time>2026-05-02T09:32:57Z</time></trkpt><trkpt lat="43.04768568341987" lon="11.489903779414377"><ele>609.0</ele><time>2026-05-02T09:32:58Z</time></trkpt><trkpt lat="43.04780488178494" lon="11.490022316259898"><ele>606.0</ele><time>2026-05-02T09:32:59Z</time></trkpt><trkpt lat="43.04793997750857" lon="11.490081180101775"><ele>603.0</ele><time>2026-05-02T09:33:00Z</time></trkpt><trkpt lat="43.048084107977935" lon="11.490076993363227"><ele>603.0</ele><time>2026-05-02T09:33:01Z</time></trkpt><trkpt lat="43.04823021655126" lon="11.490035095839586"><ele>603.0</ele><time>2026-05-02T09:33:02Z</time></trkpt><trkpt lat="43.04837220643347" lon="11.489982818618932"><ele>603.0</ele><time>2026-05-02T09:33:03Z</time></trkpt><trkpt lat="43.048511767987385" lon="11.489967108105882"><ele>603.0</ele><time>2026-05-02T09:33:04Z</time></trkpt><trkpt lat="43.0486409015611" lon="11.489935948208391"><ele>603.0</ele><time>2026-05-02T09:33:05Z</time></trkpt><trkpt lat="43.0487569831814" lon="11.489997391464282"><ele>603.0</ele><time>2026-05-02T09:33:06Z</time></trkpt><trkpt lat="43.04885769620057" lon="11.490125795345104"><ele>603.0</ele><time>2026-05-02T09:33:07Z</time></trkpt><trkpt lat="43.04890604554101" lon="11.49030222535106"><ele>603.0</ele><time>2026-05-02T09:33:08Z</time></trkpt><trkpt lat="43.0489576163268" lon="11.490467876766791"><ele>601.0</ele><time>2026-05-02T09:33:09Z</time></trkpt><trkpt lat="43.04899001153931" lon="11.490631108114691"><ele>599.0</ele><time>2026-05-02T09:33:10Z</time></trkpt><trkpt lat="43.04902999819075" lon="11.49078728097494"><ele>597.0</ele><time>2026-05-02T09:33:11Z</time></trkpt><trkpt lat="43.04908806294376" lon="11.490924295246016"><ele>595.0</ele><time>2026-05-02T09:33:12Z</time></trkpt><trkpt lat="43.049173349053696" lon="11.491024360407103"><ele>595.0</ele><time>2026-05-02T09:33:13Z</time></trkpt><trkpt lat="43.04928018620278" lon="11.491067815841772"><ele>595.0</ele><time>2026-05-02T09:33:14Z</time></trkpt><trkpt lat="43.0493941240203" lon="11.491066869212268"><ele>595.0</ele><time>2026-05-02T09:33:15Z</time></trkpt><trkpt lat="43.04951390317935" lon="11.491033822084253"><ele>595.0</ele><time>2026-05-02T09:33:16Z</time></trkpt><trkpt lat="43.049635614004224" lon="11.490990205788174"><ele>595.0</ele><time>2026-05-02T09:33:17Z</time></trkpt><trkpt lat="43.0497604539121" lon="11.490980028159315"><ele>595.0</ele><time>2026-05-02T09:33:18Z</time></trkpt><trkpt lat="43.049886001779086" lon="11.491003063036286"><ele>595.0</ele><time>2026-05-02T09:33:19Z</time></trkpt><trkpt lat="43.05001059551904" lon="11.491023334897886"><ele>595.0</ele><time>2026-05-02T09:33:20Z</time></trkpt><trkpt lat="43.0501356795997" lon="11.491049294929388"><ele>595.5</ele><time>2026-05-02T09:33:21Z</time></trkpt><trkpt lat="43.05026575108539" lon="11.490977375280103"><ele>596.0</ele><time>2026-05-02T09:33:22Z</time></trkpt><trkpt lat="43.05035916347943" lon="11.490834723414322"><ele>596.5</ele><time>2026-05-02T09:33:23Z</time></trkpt><trkpt lat="43.0504330173965" lon="11.490675322058605"><ele>597.0</ele><time>2026-05-02T09:33:24Z</time></trkpt><trkpt lat="43.0505053474088" lon="11.490505831570333"><ele>600.5</ele><time>2026-05-02T09:33:25Z</time></trkpt><trkpt lat="43.05057920047166" lon="11.490337367838158"><ele>604.0</ele><time>2026-05-02T09:33:26Z</time></trkpt><trkpt lat="43.050648291363736" lon="11.49016702312534"><ele>607.5</ele><time>2026-05-02T09:33:27Z</time></trkpt><trkpt lat="43.05071600299241" lon="11.490000095552501"><ele>611.0</ele><time>2026-05-02T09:33:28Z</time></trkpt><trkpt lat="43.050778547027456" lon="11.489846647467544"><ele>608.75</ele><time>2026-05-02T09:33:29Z</time></trkpt><trkpt lat="43.05084126117968" lon="11.489702604688961"><ele>606.5</ele><time>2026-05-02T09:33:30Z</time></trkpt><trkpt lat="43.05091514831205" lon="11.489595173520852"><ele>604.25</ele><time>2026-05-02T09:33:31Z</time></trkpt><trkpt lat="43.05102882226099" lon="11.489523930733304"><ele>602.0</ele><time>2026-05-02T09:33:32Z</time></trkpt><trkpt lat="43.05115753516852" lon="11.48951842955079"><ele>598.75</ele><time>2026-05-02T09:33:33Z</time></trkpt><trkpt lat="43.05126296836742" lon="11.489626048598735"><ele>595.5</ele><time>2026-05-02T09:33:34Z</time></trkpt><trkpt lat="43.05131190679207" lon="11.48977402775977"><ele>592.25</ele><time>2026-05-02T09:33:35Z</time></trkpt><trkpt lat="43.05138339992691" lon="11.489933562732926"><ele>589.0</ele><time>2026-05-02T09:33:36Z</time></trkpt><trkpt lat="43.051459040176006" lon="11.490087316740121"><ele>589.0</ele><time>2026-05-02T09:33:37Z</time></trkpt><trkpt lat="43.051518334502624" lon="11.490242197475665"><ele>589.0</ele><time>2026-05-02T09:33:38Z</time></trkpt><trkpt lat="43.051586214762025" lon="11.49039465873844"><ele>589.0</ele><time>2026-05-02T09:33:39Z</time></trkpt><trkpt lat="43.05165650999145" lon="11.490544929476382"><ele>589.0</ele><time>2026-05-02T09:33:40Z</time></trkpt><trkpt lat="43.051736930759105" lon="11.490661919424642"><ele>585.0</ele><time>2026-05-02T09:33:41Z</time></trkpt><trkpt lat="43.05183142793045" lon="11.490764170413794"><ele>581.0</ele><time>2026-05-02T09:33:42Z</time></trkpt><trkpt lat="43.05192584836021" lon="11.49084426594323"><ele>577.0</ele><time>2026-05-02T09:33:43Z</time></trkpt><trkpt lat="43.05201828884769" lon="11.491034760243233"><ele>573.0</ele><time>2026-05-02T09:33:44Z</time></trkpt><trkpt lat="43.05212428686802" lon="11.49110665676536"><ele>573.0</ele><time>2026-05-02T09:33:45Z</time></trkpt><trkpt lat="43.05224334756286" lon="11.491143249363859"><ele>573.0</ele><time>2026-05-02T09:33:46Z</time></trkpt><trkpt lat="43.05236583475495" lon="11.491075186690704"><ele>573.0</ele><time>2026-05-02T09:33:47Z</time></trkpt><trkpt lat="43.05248493978288" lon="11.491036038553599"><ele>573.0</ele><time>2026-05-02T09:33:48Z</time></trkpt><trkpt lat="43.052604178898996" lon="11.490971597680884"><ele>573.8</ele><time>2026-05-02T09:33:49Z</time></trkpt><trkpt lat="43.05272082342796" lon="11.49090255454435"><ele>574.5999999999999</ele><time>2026-05-02T09:33:50Z</time></trkpt><trkpt lat="43.05282547580332" lon="11.49083859164171"><ele>575.4000000000001</ele><time>2026-05-02T09:33:51Z</time></trkpt><trkpt lat="43.05291695602829" lon="11.4907749452882"><ele>576.2</ele><time>2026-05-02T09:33:52Z</time></trkpt><trkpt lat="43.05300802539561" lon="11.490722714301326"><ele>577.0</ele><time>2026-05-02T09:33:53Z</time></trkpt><trkpt lat="43.053076114669565" lon="11.490631669614713"><ele>577.0</ele><time>2026-05-02T09:33:54Z</time></trkpt><trkpt lat="43.0531240640201" lon="11.490529538137457"><ele>577.0</ele><time>2026-05-02T09:33:55Z</time></trkpt><trkpt lat="43.05315202362802" lon="11.490440632635599"><ele>577.0</ele><time>2026-05-02T09:33:56Z</time></trkpt><trkpt lat="43.053184258746214" lon="11.4903151683611"><ele>577.0</ele><time>2026-05-02T09:33:58Z</time></trkpt><trkpt lat="43.053207796934856" lon="11.490168367733178"><ele>577.0</ele><time>2026-05-02T09:36:17.999Z</time></trkpt><trkpt lat="43.05322223013771" lon="11.490074087249509"><ele>577.0</ele><time>2026-05-02T09:36:18.999Z</time></trkpt><trkpt lat="43.05323873851484" lon="11.489966862438141"><ele>575.4</ele><time>2026-05-02T09:36:19.999Z</time></trkpt><trkpt lat="43.053257235988845" lon="11.489845266453246"><ele>573.8000000000001</ele><time>2026-05-02T09:36:20.999Z</time></trkpt><trkpt lat="43.053277954919885" lon="11.489718381427506"><ele>572.2</ele><time>2026-05-02T09:36:21.999Z</time></trkpt><trkpt lat="43.05329988032569" lon="11.48958866181962"><ele>570.6</ele><time>2026-05-02T09:36:22.999Z</time></trkpt><trkpt lat="43.053325858506795" lon="11.489444520566947"><ele>569.0</ele><time>2026-05-02T09:36:23.999Z</time></trkpt><trkpt lat="43.053364157534915" lon="11.489295747873177"><ele>569.0</ele><time>2026-05-02T09:36:24.999Z</time></trkpt><trkpt lat="43.05342222550536" lon="11.489157866743412"><ele>569.0</ele><time>2026-05-02T09:36:25.999Z</time></trkpt><trkpt lat="43.05351643965057" lon="11.48905812501767"><ele>569.0</ele><time>2026-05-02T09:36:26.999Z</time></trkpt><trkpt lat="43.05363483885848" lon="11.488993364456336"><ele>569.0</ele><time>2026-05-02T09:36:27.999Z</time></trkpt><trkpt lat="43.05376488298941" lon="11.488949707148299"><ele>569.0</ele><time>2026-05-02T09:36:28.999Z</time></trkpt><trkpt lat="43.053898648491526" lon="11.488915493556917"><ele>569.0</ele><time>2026-05-02T09:36:29.999Z</time></trkpt><trkpt lat="43.05403627194119" lon="11.48887437038953"><ele>569.0</ele><time>2026-05-02T09:36:30.999Z</time></trkpt><trkpt lat="43.05417185319083" lon="11.488833353463411"><ele>569.0</ele><time>2026-05-02T09:36:31.999Z</time></trkpt><trkpt lat="43.054260369378326" lon="11.488709405765585"><ele>568.0</ele><time>2026-05-02T09:36:32.999Z</time></trkpt><trkpt lat="43.05437684493231" lon="11.488688847976498"><ele>567.0</ele><time>2026-05-02T09:36:33.999Z</time></trkpt><trkpt lat="43.05449004039944" lon="11.488670740547905"><ele>566.0</ele><time>2026-05-02T09:36:34.999Z</time></trkpt><trkpt lat="43.05459587039573" lon="11.488739742229392"><ele>565.0</ele><time>2026-05-02T09:36:35.999Z</time></trkpt><trkpt lat="43.05469378108927" lon="11.488790005870632"><ele>563.3333333333334</ele><time>2026-05-02T09:36:36.999Z</time></trkpt><trkpt lat="43.05478281499747" lon="11.488843194227266"><ele>561.6666666666667</ele><time>2026-05-02T09:36:37.999Z</time></trkpt><trkpt lat="43.054855455359316" lon="11.488869734132189"><ele>560.0</ele><time>2026-05-02T09:36:38.999Z</time></trkpt><trkpt lat="43.054905749834454" lon="11.488923921608263"><ele>558.3333333333334</ele><time>2026-05-02T09:36:40.999Z</time></trkpt><trkpt lat="43.0549620265633" lon="11.489029192120531"><ele>556.6666666666666</ele><time>2026-05-02T09:36:48.999Z</time></trkpt><trkpt lat="43.05501729872202" lon="11.489094230591657"><ele>555.0</ele><time>2026-05-02T09:36:50.999Z</time></trkpt><trkpt lat="43.054970944159585" lon="11.489228202197634"><ele>555.0</ele><time>2026-05-02T09:36:53.999Z</time></trkpt><trkpt lat="43.0548453225618" lon="11.489226425546631"><ele>555.0</ele><time>2026-05-02T09:36:54.999Z</time></trkpt><trkpt lat="43.05467189862945" lon="11.4892266623063"><ele>555.0</ele><time>2026-05-02T09:36:55.999Z</time></trkpt><trkpt lat="43.05451506002409" lon="11.489239390547347"><ele>555.0</ele><time>2026-05-02T09:36:57Z</time></trkpt><trkpt lat="43.05439297703121" lon="11.489253856461238"><ele>555.0</ele><time>2026-05-02T09:36:58Z</time></trkpt><trkpt lat="43.05429095987421" lon="11.489284276097543"><ele>555.0</ele><time>2026-05-02T09:36:59Z</time></trkpt><trkpt lat="43.05420101246852" lon="11.48935477483582"><ele>555.0</ele><time>2026-05-02T09:37:00Z</time></trkpt><trkpt lat="43.054134570626225" lon="11.489464916221314"><ele>555.0</ele><time>2026-05-02T09:37:01Z</time></trkpt><trkpt lat="43.05410113351626" lon="11.489605031191882"><ele>552.75</ele><time>2026-05-02T09:37:02Z</time></trkpt><trkpt lat="43.05410293297779" lon="11.489757664328229"><ele>550.5</ele><time>2026-05-02T09:37:03Z</time></trkpt><trkpt lat="43.05413844091042" lon="11.489903008667687"><ele>548.25</ele><time>2026-05-02T09:37:04Z</time></trkpt><trkpt lat="43.05417844090255" lon="11.490038744455449"><ele>546.0</ele><time>2026-05-02T09:37:05Z</time></trkpt><trkpt lat="43.05428798340629" lon="11.490119099077152"><ele>546.0</ele><time>2026-05-02T09:37:06Z</time></trkpt><trkpt lat="43.05438945420273" lon="11.490191619607371"><ele>546.0</ele><time>2026-05-02T09:37:07Z</time></trkpt><trkpt lat="43.0544904848438" lon="11.490277579862127"><ele>546.0</ele><time>2026-05-02T09:37:08Z</time></trkpt><trkpt lat="43.054595385423724" lon="11.490379639540349"><ele>546.0</ele><time>2026-05-02T09:37:09Z</time></trkpt><trkpt lat="43.054690574206425" lon="11.49049722170015"><ele>544.0</ele><time>2026-05-02T09:37:10Z</time></trkpt><trkpt lat="43.05478373496851" lon="11.490619698468018"><ele>542.0</ele><time>2026-05-02T09:37:11Z</time></trkpt><trkpt lat="43.05487596866766" lon="11.490745660945171"><ele>540.0</ele><time>2026-05-02T09:37:12Z</time></trkpt><trkpt lat="43.05495721527178" lon="11.490873982514575"><ele>538.0</ele><time>2026-05-02T09:37:13Z</time></trkpt><trkpt lat="43.05502506045438" lon="11.491007788223122"><ele>537.8</ele><time>2026-05-02T09:37:14Z</time></trkpt><trkpt lat="43.05508372688161" lon="11.491141752664229"><ele>537.5999999999999</ele><time>2026-05-02T09:37:15Z</time></trkpt><trkpt lat="43.05513338551039" lon="11.491268973025795"><ele>537.4000000000001</ele><time>2026-05-02T09:37:16Z</time></trkpt><trkpt lat="43.055178281172196" lon="11.491387513477207"><ele>537.2</ele><time>2026-05-02T09:37:17Z</time></trkpt><trkpt lat="43.05523220285853" lon="11.491487361300601"><ele>537.0</ele><time>2026-05-02T09:37:18Z</time></trkpt><trkpt lat="43.055285212704696" lon="11.491577265930545"><ele>533.6666666666666</ele><time>2026-05-02T09:37:19Z</time></trkpt><trkpt lat="43.05532946410364" lon="11.491657754484224"><ele>530.3333333333334</ele><time>2026-05-02T09:37:20Z</time></trkpt><trkpt lat="43.0553962895718" lon="11.491755140794806"><ele>527.0</ele><time>2026-05-02T09:37:22Z</time></trkpt><trkpt lat="43.05544390926827" lon="11.491845670144526"><ele>523.6666666666667</ele><time>2026-05-02T09:37:25Z</time></trkpt><trkpt lat="43.05536499687708" lon="11.491886354348676"><ele>520.3333333333334</ele><time>2026-05-02T09:37:28Z</time></trkpt><trkpt lat="43.05532728657376" lon="11.491813303518335"><ele>517.0</ele><time>2026-05-02T09:37:29Z</time></trkpt><trkpt lat="43.055285113973724" lon="11.491728917306714"><ele>517.0</ele><time>2026-05-02T09:37:30Z</time></trkpt><trkpt lat="43.05523798843294" lon="11.491663546656701"><ele>517.0</ele><time>2026-05-02T09:37:31Z</time></trkpt><trkpt lat="43.055144919011084" lon="11.491546072214803"><ele>517.0</ele><time>2026-05-02T09:37:33Z</time></trkpt><trkpt lat="43.05509826302601" lon="11.491477779399363"><ele>517.0</ele><time>2026-05-02T09:37:34Z</time></trkpt><trkpt lat="43.05504856971622" lon="11.491406759568326"><ele>517.0</ele><time>2026-05-02T09:37:35Z</time></trkpt><trkpt lat="43.05499755834117" lon="11.491335539779893"><ele>517.0</ele><time>2026-05-02T09:37:36Z</time></trkpt><trkpt lat="43.054949232611335" lon="11.491260474737869"><ele>520.0</ele><time>2026-05-02T09:37:37Z</time></trkpt><trkpt lat="43.05490141367156" lon="11.491181379944708"><ele>523.0</ele><time>2026-05-02T09:37:38Z</time></trkpt><trkpt lat="43.054851520971276" lon="11.491105437025313"><ele>526.0</ele><time>2026-05-02T09:37:39Z</time></trkpt><trkpt lat="43.0548010019013" lon="11.49103435975218"><ele>529.0</ele><time>2026-05-02T09:37:40Z</time></trkpt><trkpt lat="43.054746542931085" lon="11.490967865924338"><ele>532.0</ele><time>2026-05-02T09:37:41Z</time></trkpt><trkpt lat="43.0546836041532" lon="11.490917826709618"><ele>535.0</ele><time>2026-05-02T09:37:42Z</time></trkpt><trkpt lat="43.05461374964445" lon="11.49089377242483"><ele>538.0</ele><time>2026-05-02T09:37:43Z</time></trkpt><trkpt lat="43.05450442594429" lon="11.490924256575466"><ele>538.0</ele><time>2026-05-02T09:37:45Z</time></trkpt><trkpt lat="43.05443712519498" lon="11.491001961258773"><ele>538.0</ele><time>2026-05-02T09:37:47Z</time></trkpt><trkpt lat="43.054383458681535" lon="11.491087100654312"><ele>538.0</ele><time>2026-05-02T09:37:49Z</time></trkpt><trkpt lat="43.05433713001809" lon="11.491193609383702"><ele>538.0</ele><time>2026-05-02T09:37:53Z</time></trkpt><trkpt lat="43.05433933368496" lon="11.491309493182476"><ele>538.0</ele><time>2026-05-02T09:37:55Z</time></trkpt><trkpt lat="43.054348283586165" lon="11.491399555824476"><ele>538.0</ele><time>2026-05-02T09:37:56Z</time></trkpt><trkpt lat="43.05435982645889" lon="11.491504957939037"><ele>537.6666666666667</ele><time>2026-05-02T09:37:57Z</time></trkpt><trkpt lat="43.054375185806926" lon="11.491614020620572"><ele>537.3333333333334</ele><time>2026-05-02T09:37:58Z</time></trkpt><trkpt lat="43.054388641496" lon="11.491725686664404"><ele>537.0</ele><time>2026-05-02T09:37:59Z</time></trkpt><trkpt lat="43.054404600434246" lon="11.491844850259138"><ele>536.6666666666666</ele><time>2026-05-02T09:38:00Z</time></trkpt><trkpt lat="43.054413721319854" lon="11.491962350923238"><ele>536.3333333333333</ele><time>2026-05-02T09:38:01Z</time></trkpt><trkpt lat="43.05442501307989" lon="11.492088948476649"><ele>536.0</ele><time>2026-05-02T09:38:02Z</time></trkpt><trkpt lat="43.05443212166321" lon="11.492217931411346"><ele>533.6</ele><time>2026-05-02T09:38:03Z</time></trkpt><trkpt lat="43.054439996369815" lon="11.492347371781438"><ele>531.2</ele><time>2026-05-02T09:38:04Z</time></trkpt><trkpt lat="43.054437713514986" lon="11.492486211046629"><ele>528.8</ele><time>2026-05-02T09:38:04.999Z</time></trkpt><trkpt lat="43.05443134440396" lon="11.49262579068511"><ele>526.4</ele><time>2026-05-02T09:38:05.999Z</time></trkpt><trkpt lat="43.05441395429389" lon="11.492768063688192"><ele>524.0</ele><time>2026-05-02T09:38:06.999Z</time></trkpt><trkpt lat="43.054388638926" lon="11.4929126247317"><ele>521.5</ele><time>2026-05-02T09:38:07.999Z</time></trkpt><trkpt lat="43.054340680194315" lon="11.493052945059347"><ele>519.0</ele><time>2026-05-02T09:38:08.999Z</time></trkpt><trkpt lat="43.05427751943214" lon="11.493182169211108"><ele>516.5</ele><time>2026-05-02T09:38:09.999Z</time></trkpt><trkpt lat="43.05420447347002" lon="11.4933002207996"><ele>514.0</ele><time>2026-05-02T09:38:10.999Z</time></trkpt><trkpt lat="43.05411301711782" lon="11.49340578040135"><ele>514.0</ele><time>2026-05-02T09:38:11.999Z</time></trkpt><trkpt lat="43.054017317657504" lon="11.493497195840545"><ele>514.0</ele><time>2026-05-02T09:38:12.999Z</time></trkpt><trkpt lat="43.053917958915456" lon="11.493578758142771"><ele>514.0</ele><time>2026-05-02T09:38:13.999Z</time></trkpt><trkpt lat="43.053819887633566" lon="11.493666474059468"><ele>514.0</ele><time>2026-05-02T09:38:14.999Z</time></trkpt><trkpt lat="43.053730157642775" lon="11.493768883768507"><ele>512.5</ele><time>2026-05-02T09:38:15.999Z</time></trkpt><trkpt lat="43.0536529667032" lon="11.493881995636613"><ele>511.0</ele><time>2026-05-02T09:38:16.999Z</time></trkpt><trkpt lat="43.053587097373416" lon="11.494009386474847"><ele>509.5</ele><time>2026-05-02T09:38:17.999Z</time></trkpt><trkpt lat="43.0535329668694" lon="11.494150266016304"><ele>508.0</ele><time>2026-05-02T09:38:18.999Z</time></trkpt><trkpt lat="43.05350035923557" lon="11.494297058986643"><ele>508.0</ele><time>2026-05-02T09:38:19.999Z</time></trkpt><trkpt lat="43.05348362887948" lon="11.494451571919802"><ele>508.0</ele><time>2026-05-02T09:38:20.999Z</time></trkpt><trkpt lat="43.05347974244532" lon="11.494614659230939"><ele>508.0</ele><time>2026-05-02T09:38:21.999Z</time></trkpt><trkpt lat="43.053484139665606" lon="11.494778106186818"><ele>508.0</ele><time>2026-05-02T09:38:22.999Z</time></trkpt><trkpt lat="43.05349229972873" lon="11.49494216671598"><ele>507.25</ele><time>2026-05-02T09:38:23.999Z</time></trkpt><trkpt lat="43.05350577673742" lon="11.495103678719452"><ele>506.5</ele><time>2026-05-02T09:38:24.999Z</time></trkpt><trkpt lat="43.0535201696677" lon="11.495263792371379"><ele>505.75</ele><time>2026-05-02T09:38:25.999Z</time></trkpt><trkpt lat="43.05352762730837" lon="11.495419964528532"><ele>505.0</ele><time>2026-05-02T09:38:26.999Z</time></trkpt><trkpt lat="43.053533318815056" lon="11.495569984695054"><ele>504.75</ele><time>2026-05-02T09:38:27.999Z</time></trkpt><trkpt lat="43.053536624596596" lon="11.495731217139735"><ele>504.5</ele><time>2026-05-02T09:38:28.999Z</time></trkpt><trkpt lat="43.05353462479962" lon="11.495887179090689"><ele>504.25</ele><time>2026-05-02T09:38:29.999Z</time></trkpt><trkpt lat="43.053523075040204" lon="11.496040493926177"><ele>504.0</ele><time>2026-05-02T09:38:30.999Z</time></trkpt><trkpt lat="43.053503165109625" lon="11.496187488627482"><ele>503.0</ele><time>2026-05-02T09:38:31.999Z</time></trkpt><trkpt lat="43.05348232317621" lon="11.496331289803798"><ele>502.0</ele><time>2026-05-02T09:38:32.999Z</time></trkpt><trkpt lat="43.05346263110544" lon="11.496482479956665"><ele>501.0</ele><time>2026-05-02T09:38:33.999Z</time></trkpt><trkpt lat="43.05344540131745" lon="11.496635757060305"><ele>500.0</ele><time>2026-05-02T09:38:34.999Z</time></trkpt><trkpt lat="43.053424867348056" lon="11.496790404971852"><ele>499.0</ele><time>2026-05-02T09:38:35.999Z</time></trkpt><trkpt lat="43.05340265487546" lon="11.496952176924708"><ele>498.25</ele><time>2026-05-02T09:38:36.999Z</time></trkpt><trkpt lat="43.05336599463883" lon="11.497116934998681"><ele>497.5</ele><time>2026-05-02T09:38:37.999Z</time></trkpt><trkpt lat="43.053323909424805" lon="11.497285683886112"><ele>496.75</ele><time>2026-05-02T09:38:38.999Z</time></trkpt><trkpt lat="43.0532713751711" lon="11.49744491791804"><ele>496.0</ele><time>2026-05-02T09:38:39.999Z</time></trkpt><trkpt lat="43.05321067978189" lon="11.497601417158691"><ele>497.0</ele><time>2026-05-02T09:38:40.999Z</time></trkpt><trkpt lat="43.05314580818987" lon="11.497754857918007"><ele>498.0</ele><time>2026-05-02T09:38:41.999Z</time></trkpt><trkpt lat="43.05307622527163" lon="11.497904683103492"><ele>499.0</ele><time>2026-05-02T09:38:42.999Z</time></trkpt><trkpt lat="43.05300716550751" lon="11.498051335331752"><ele>500.0</ele><time>2026-05-02T09:38:43.999Z</time></trkpt><trkpt lat="43.05293783510174" lon="11.49820260064808"><ele>500.0</ele><time>2026-05-02T09:38:44.999Z</time></trkpt><trkpt lat="43.05287208300502" lon="11.498357343930286"><ele>500.0</ele><time>2026-05-02T09:38:45.999Z</time></trkpt><trkpt lat="43.05280735899821" lon="11.498513919140635"><ele>500.0</ele><time>2026-05-02T09:38:46.999Z</time></trkpt><trkpt lat="43.05274102117159" lon="11.498671884953318"><ele>500.0</ele><time>2026-05-02T09:38:47.999Z</time></trkpt><trkpt lat="43.052675727483596" lon="11.498831919276972"><ele>498.25</ele><time>2026-05-02T09:38:48.999Z</time></trkpt><trkpt lat="43.05260695778665" lon="11.49899566233036"><ele>496.5</ele><time>2026-05-02T09:38:49.999Z</time></trkpt><trkpt lat="43.05253947974648" lon="11.499159355661213"><ele>494.75</ele><time>2026-05-02T09:38:50.999Z</time></trkpt><trkpt lat="43.052472715990376" lon="11.499328904756016"><ele>493.0</ele><time>2026-05-02T09:38:51.999Z</time></trkpt><trkpt lat="43.05240457804823" lon="11.49949958941585"><ele>489.5</ele><time>2026-05-02T09:38:52.999Z</time></trkpt><trkpt lat="43.05233260331778" lon="11.499672005547454"><ele>486.0</ele><time>2026-05-02T09:38:53.999Z</time></trkpt><trkpt lat="43.05225890080023" lon="11.499847371470985"><ele>482.5</ele><time>2026-05-02T09:38:54.999Z</time></trkpt><trkpt lat="43.05218917279701" lon="11.500020637178732"><ele>479.0</ele><time>2026-05-02T09:38:55.999Z</time></trkpt><trkpt lat="43.05211883946352" lon="11.500194747543475"><ele>479.0</ele><time>2026-05-02T09:38:56.999Z</time></trkpt><trkpt lat="43.05205153486173" lon="11.500363606589257"><ele>479.0</ele><time>2026-05-02T09:38:57.999Z</time></trkpt><trkpt lat="43.05198854405236" lon="11.500541678353834"><ele>479.0</ele><time>2026-05-02T09:38:58.999Z</time></trkpt><trkpt lat="43.05194193089903" lon="11.500724614150135"><ele>479.0</ele><time>2026-05-02T09:38:59.999Z</time></trkpt><trkpt lat="43.05191566221972" lon="11.500914996862905"><ele>477.75</ele><time>2026-05-02T09:39:00.999Z</time></trkpt><trkpt lat="43.05190823277929" lon="11.501111580537257"><ele>476.5</ele><time>2026-05-02T09:39:01.999Z</time></trkpt><trkpt lat="43.051909738738786" lon="11.501308564060205"><ele>475.25</ele><time>2026-05-02T09:39:03Z</time></trkpt><trkpt lat="43.051920054342744" lon="11.50150519328076"><ele>474.0</ele><time>2026-05-02T09:39:04Z</time></trkpt><trkpt lat="43.05193051861352" lon="11.501704464187243"><ele>472.75</ele><time>2026-05-02T09:39:05Z</time></trkpt><trkpt lat="43.05192589712711" lon="11.501904092614746"><ele>471.5</ele><time>2026-05-02T09:39:06Z</time></trkpt><trkpt lat="43.051910980827415" lon="11.502095164050553"><ele>470.25</ele><time>2026-05-02T09:39:07Z</time></trkpt><trkpt lat="43.05186708573214" lon="11.502272595346481"><ele>469.0</ele><time>2026-05-02T09:39:08Z</time></trkpt><trkpt lat="43.051812782230456" lon="11.502437002655995"><ele>468.25</ele><time>2026-05-02T09:39:09Z</time></trkpt><trkpt lat="43.05176648818907" lon="11.502600800386759"><ele>467.5</ele><time>2026-05-02T09:39:10Z</time></trkpt><trkpt lat="43.051730556349064" lon="11.502763608781972"><ele>466.75</ele><time>2026-05-02T09:39:11Z</time></trkpt><trkpt lat="43.05171367135517" lon="11.502925637504063"><ele>466.0</ele><time>2026-05-02T09:39:12Z</time></trkpt><trkpt lat="43.051720646763975" lon="11.503086887572815"><ele>465.5</ele><time>2026-05-02T09:39:13Z</time></trkpt><trkpt lat="43.051751833123966" lon="11.503243836304017"><ele>465.0</ele><time>2026-05-02T09:39:14Z</time></trkpt><trkpt lat="43.05180414793525" lon="11.503388722914837"><ele>464.5</ele><time>2026-05-02T09:39:15Z</time></trkpt><trkpt lat="43.05186881850403" lon="11.503538668958868"><ele>464.0</ele><time>2026-05-02T09:39:16Z</time></trkpt><trkpt lat="43.05192744863561" lon="11.503683964130126"><ele>462.4</ele><time>2026-05-02T09:39:17Z</time></trkpt><trkpt lat="43.05198488871363" lon="11.50382089998611"><ele>460.79999999999995</ele><time>2026-05-02T09:39:18Z</time></trkpt><trkpt lat="43.052042065839736" lon="11.503947281150188"><ele>459.20000000000005</ele><time>2026-05-02T09:39:19Z</time></trkpt><trkpt lat="43.052096423512026" lon="11.504068101404908"><ele>457.6</ele><time>2026-05-02T09:39:20Z</time></trkpt><trkpt lat="43.05214250756242" lon="11.504185149667025"><ele>456.0</ele><time>2026-05-02T09:39:21Z</time></trkpt><trkpt lat="43.05218608543136" lon="11.504298800904216"><ele>456.0</ele><time>2026-05-02T09:39:22Z</time></trkpt><trkpt lat="43.05222354489118" lon="11.504409607485591"><ele>456.0</ele><time>2026-05-02T09:39:23Z</time></trkpt><trkpt lat="43.05226858438898" lon="11.504537666622067"><ele>456.0</ele><time>2026-05-02T09:39:24Z</time></trkpt><trkpt lat="43.05229084170844" lon="11.504650390390916"><ele>456.0</ele><time>2026-05-02T09:39:25Z</time></trkpt><trkpt lat="43.05230656667575" lon="11.504767236917937"><ele>456.0</ele><time>2026-05-02T09:39:26Z</time></trkpt><trkpt lat="43.05230746090741" lon="11.504875367787703"><ele>456.0</ele><time>2026-05-02T09:39:27Z</time></trkpt><trkpt lat="43.0522703513763" lon="11.504983486560073"><ele>454.6666666666667</ele><time>2026-05-02T09:39:28Z</time></trkpt><trkpt lat="43.05227035137823" lon="11.505081843546202"><ele>453.33333333333337</ele><time>2026-05-02T09:39:29Z</time></trkpt><trkpt lat="43.0523389831336" lon="11.505134021462053"><ele>452.0</ele><time>2026-05-02T09:39:30Z</time></trkpt><trkpt lat="43.05243522067632" lon="11.505070794261464"><ele>450.6666666666667</ele><time>2026-05-02T09:39:32Z</time></trkpt><trkpt lat="43.05244962294984" lon="11.504924960040679"><ele>449.33333333333337</ele><time>2026-05-02T09:39:34Z</time></trkpt><trkpt lat="43.052409965704285" lon="11.504848866345148"><ele>448.0</ele><time>2026-05-02T09:39:35Z</time></trkpt><trkpt lat="43.05234503592602" lon="11.504789819799008"><ele>448.0</ele><time>2026-05-02T09:39:37Z</time></trkpt><trkpt lat="43.052348469592786" lon="11.504677634980203"><ele>447.99999999999994</ele><time>2026-05-02T09:39:38Z</time></trkpt><trkpt lat="43.05231847981201" lon="11.504560173409116"><ele>447.99999999999994</ele><time>2026-05-02T09:39:39Z</time></trkpt><trkpt lat="43.0522783089769" lon="11.504427868605035"><ele>448.0</ele><time>2026-05-02T09:39:40Z</time></trkpt><trkpt lat="43.052225322744704" lon="11.504290533416416"><ele>448.0</ele><time>2026-05-02T09:39:41Z</time></trkpt><trkpt lat="43.05216629427415" lon="11.504141624601978"><ele>450.0</ele><time>2026-05-02T09:39:42Z</time></trkpt><trkpt lat="43.052102963210295" lon="11.50399589554017"><ele>452.0</ele><time>2026-05-02T09:39:43Z</time></trkpt><trkpt lat="43.05203845926081" lon="11.503855695183868"><ele>454.0</ele><time>2026-05-02T09:39:44Z</time></trkpt><trkpt lat="43.05197276861283" lon="11.503710740042083"><ele>456.0</ele><time>2026-05-02T09:39:45Z</time></trkpt><trkpt lat="43.05190234626565" lon="11.503550408829813"><ele>458.0</ele><time>2026-05-02T09:39:46Z</time></trkpt><trkpt lat="43.0518380088296" lon="11.503389621992664"><ele>460.0</ele><time>2026-05-02T09:39:47Z</time></trkpt><trkpt lat="43.05177292636109" lon="11.50323063870659"><ele>462.0</ele><time>2026-05-02T09:39:48Z</time></trkpt><trkpt lat="43.05176017827411" lon="11.50306363173359"><ele>464.0</ele><time>2026-05-02T09:39:49Z</time></trkpt><trkpt lat="43.051759751352904" lon="11.502906067809077"><ele>464.5</ele><time>2026-05-02T09:39:50Z</time></trkpt><trkpt lat="43.05177554962333" lon="11.502732383238353"><ele>465.0</ele><time>2026-05-02T09:39:51Z</time></trkpt><trkpt lat="43.051821936096616" lon="11.502576286418522"><ele>465.5</ele><time>2026-05-02T09:39:52Z</time></trkpt><trkpt lat="43.0518641959078" lon="11.502420551105162"><ele>466.0</ele><time>2026-05-02T09:39:53Z</time></trkpt><trkpt lat="43.05189482812591" lon="11.50225428652137"><ele>466.0</ele><time>2026-05-02T09:39:54Z</time></trkpt><trkpt lat="43.051944271816375" lon="11.50211874007836"><ele>466.0</ele><time>2026-05-02T09:39:55Z</time></trkpt><trkpt lat="43.051967462521965" lon="11.50196623191173"><ele>466.0</ele><time>2026-05-02T09:39:56Z</time></trkpt><trkpt lat="43.05196993517261" lon="11.501812673083803"><ele>466.0</ele><time>2026-05-02T09:39:57Z</time></trkpt><trkpt lat="43.05196374249119" lon="11.50165980882781"><ele>466.0</ele><time>2026-05-02T09:39:58Z</time></trkpt><trkpt lat="43.05195485009392" lon="11.50151500770038"><ele>466.6</ele><time>2026-05-02T09:39:59Z</time></trkpt><trkpt lat="43.05194680069354" lon="11.501377940674375"><ele>467.20000000000005</ele><time>2026-05-02T09:40:00Z</time></trkpt><trkpt lat="43.05194265882881" lon="11.50124185935171"><ele>467.79999999999995</ele><time>2026-05-02T09:40:01Z</time></trkpt><trkpt lat="43.051943817506285" lon="11.501101136035432"><ele>468.4</ele><time>2026-05-02T09:40:02Z</time></trkpt><trkpt lat="43.05195083040415" lon="11.500960446899484"><ele>469.0</ele><time>2026-05-02T09:40:03Z</time></trkpt><trkpt lat="43.0519628983903" lon="11.50081266387813"><ele>470.25</ele><time>2026-05-02T09:40:04Z</time></trkpt><trkpt lat="43.05199086003107" lon="11.50065176348161"><ele>471.5</ele><time>2026-05-02T09:40:05Z</time></trkpt><trkpt lat="43.052042358736756" lon="11.500493079874538"><ele>472.75</ele><time>2026-05-02T09:40:05.999Z</time></trkpt><trkpt lat="43.05209509678953" lon="11.500335636261362"><ele>474.0</ele><time>2026-05-02T09:40:06.999Z</time></trkpt><trkpt lat="43.05215668150669" lon="11.50016508502918"><ele>475.66666666666663</ele><time>2026-05-02T09:40:07.999Z</time></trkpt><trkpt lat="43.05222749056623" lon="11.499991873670902"><ele>477.3333333333333</ele><time>2026-05-02T09:40:08.999Z</time></trkpt><trkpt lat="43.05231465944334" lon="11.499815820252387"><ele>479.0</ele><time>2026-05-02T09:40:09.999Z</time></trkpt><trkpt lat="43.052404827049735" lon="11.499592854944053"><ele>482.66666666666663</ele><time>2026-05-02T09:40:10.999Z</time></trkpt><trkpt lat="43.05249615738425" lon="11.499371443341465"><ele>486.33333333333337</ele><time>2026-05-02T09:40:11.999Z</time></trkpt><trkpt lat="43.05257816280561" lon="11.499143812813251"><ele>490.0</ele><time>2026-05-02T09:40:12.999Z</time></trkpt><trkpt lat="43.05266941244487" lon="11.498928856987302"><ele>493.33333333333337</ele><time>2026-05-02T09:40:13.999Z</time></trkpt><trkpt lat="43.05276082691081" lon="11.498713861178153"><ele>496.66666666666663</ele><time>2026-05-02T09:40:14.999Z</time></trkpt><trkpt lat="43.05284816325386" lon="11.498501155111843"><ele>500.0</ele><time>2026-05-02T09:40:15.999Z</time></trkpt><trkpt lat="43.052935529727755" lon="11.498298123674884"><ele>500.0</ele><time>2026-05-02T09:40:16.999Z</time></trkpt><trkpt lat="43.05302238116289" lon="11.498103768976407"><ele>500.0</ele><time>2026-05-02T09:40:17.999Z</time></trkpt><trkpt lat="43.05310735931409" lon="11.497920213165889"><ele>500.0</ele><time>2026-05-02T09:40:18.999Z</time></trkpt><trkpt lat="43.05318799242937" lon="11.497747420168405"><ele>499.75</ele><time>2026-05-02T09:40:19.999Z</time></trkpt><trkpt lat="43.053260713003645" lon="11.497580596341766"><ele>499.5</ele><time>2026-05-02T09:40:20.999Z</time></trkpt><trkpt lat="43.0533226262448" lon="11.497416739589928"><ele>499.25</ele><time>2026-05-02T09:40:21.999Z</time></trkpt><trkpt lat="43.05336908303765" lon="11.497250104188224"><ele>499.0</ele><time>2026-05-02T09:40:22.999Z</time></trkpt><trkpt lat="43.0534137971568" lon="11.497078886831517"><ele>499.0</ele><time>2026-05-02T09:40:23.999Z</time></trkpt><trkpt lat="43.05345111894886" lon="11.496903236688919"><ele>499.0</ele><time>2026-05-02T09:40:24.999Z</time></trkpt><trkpt lat="43.053478519892394" lon="11.496715011803486"><ele>499.0</ele><time>2026-05-02T09:40:25.999Z</time></trkpt><trkpt lat="43.053500192166496" lon="11.496532044646264"><ele>499.0</ele><time>2026-05-02T09:40:26.999Z</time></trkpt><trkpt lat="43.053519248954764" lon="11.496349884659221"><ele>500.25</ele><time>2026-05-02T09:40:27.999Z</time></trkpt><trkpt lat="43.053541637938906" lon="11.49616338999418"><ele>501.5</ele><time>2026-05-02T09:40:28.999Z</time></trkpt><trkpt lat="43.053558580557805" lon="11.495972995735313"><ele>502.75</ele><time>2026-05-02T09:40:29.999Z</time></trkpt><trkpt lat="43.053566846986676" lon="11.495774780285142"><ele>504.0</ele><time>2026-05-02T09:40:30.999Z</time></trkpt><trkpt lat="43.05356388062903" lon="11.495569666987533"><ele>504.33333333333337</ele><time>2026-05-02T09:40:31.999Z</time></trkpt><trkpt lat="43.05355350752131" lon="11.495360142939994"><ele>504.6666666666667</ele><time>2026-05-02T09:40:32.999Z</time></trkpt><trkpt lat="43.053539950830455" lon="11.495151254384687"><ele>505.0</ele><time>2026-05-02T09:40:33.999Z</time></trkpt><trkpt lat="43.053526241345224" lon="11.494941542690025"><ele>505.0</ele><time>2026-05-02T09:40:34.999Z</time></trkpt><trkpt lat="43.05351506360285" lon="11.494729682281779"><ele>505.0</ele><time>2026-05-02T09:40:35.999Z</time></trkpt><trkpt lat="43.05351728298821" lon="11.494519053451308"><ele>505.0</ele><time>2026-05-02T09:40:36.999Z</time></trkpt><trkpt lat="43.05353222238588" lon="11.49430720608651"><ele>505.75</ele><time>2026-05-02T09:40:37.999Z</time></trkpt><trkpt lat="43.05358221318122" lon="11.494117701825383"><ele>506.5</ele><time>2026-05-02T09:40:38.999Z</time></trkpt><trkpt lat="43.05362813683998" lon="11.49394848702911"><ele>507.25</ele><time>2026-05-02T09:40:39.999Z</time></trkpt><trkpt lat="43.0537204207222" lon="11.493817806569982"><ele>508.0</ele><time>2026-05-02T09:40:40.999Z</time></trkpt><trkpt lat="43.05382336996195" lon="11.493702479034473"><ele>507.5</ele><time>2026-05-02T09:40:41.999Z</time></trkpt><trkpt lat="43.053923786995746" lon="11.493605566286094"><ele>507.0</ele><time>2026-05-02T09:40:42.999Z</time></trkpt><trkpt lat="43.05403109443223" lon="11.493541002624458"><ele>506.5</ele><time>2026-05-02T09:40:43.999Z</time></trkpt><trkpt lat="43.054129136764836" lon="11.493454541047297"><ele>506.0</ele><time>2026-05-02T09:40:44.999Z</time></trkpt><trkpt lat="43.05420497797507" lon="11.493332459571672"><ele>506.0</ele><time>2026-05-02T09:40:45.999Z</time></trkpt><trkpt lat="43.054281348752745" lon="11.493221198756256"><ele>506.0</ele><time>2026-05-02T09:40:46.999Z</time></trkpt><trkpt lat="43.05434312332766" lon="11.493097325859805"><ele>506.0</ele><time>2026-05-02T09:40:47.999Z</time></trkpt><trkpt lat="43.05438800511746" lon="11.49296577917059"><ele>506.0</ele><time>2026-05-02T09:40:48.999Z</time></trkpt><trkpt lat="43.05442209943148" lon="11.492830222803073"><ele>506.0</ele><time>2026-05-02T09:40:49.999Z</time></trkpt><trkpt lat="43.054444261378855" lon="11.492706208640628"><ele>508.99999999999994</ele><time>2026-05-02T09:40:50.999Z</time></trkpt><trkpt lat="43.05445558920758" lon="11.492589602416105"><ele>512.0</ele><time>2026-05-02T09:40:51.999Z</time></trkpt><trkpt lat="43.05445986289477" lon="11.492479354757936"><ele>515.0</ele><time>2026-05-02T09:40:52.999Z</time></trkpt><trkpt lat="43.05446220154595" lon="11.492375556910428"><ele>518.0</ele><time>2026-05-02T09:40:53.999Z</time></trkpt><trkpt lat="43.054462544402874" lon="11.492270476306178"><ele>521.0</ele><time>2026-05-02T09:40:54.999Z</time></trkpt><trkpt lat="43.05445654922373" lon="11.492162641794701"><ele>524.0</ele><time>2026-05-02T09:40:55.999Z</time></trkpt><trkpt lat="43.05444099963562" lon="11.492056568100054"><ele>526.0</ele><time>2026-05-02T09:40:56.999Z</time></trkpt><trkpt lat="43.054434400556055" lon="11.491942270493558"><ele>528.0</ele><time>2026-05-02T09:40:57.999Z</time></trkpt><trkpt lat="43.05442679293985" lon="11.491837042657357"><ele>530.0</ele><time>2026-05-02T09:40:58.999Z</time></trkpt><trkpt lat="43.0544171367165" lon="11.491733708376492"><ele>532.0</ele><time>2026-05-02T09:40:59.999Z</time></trkpt><trkpt lat="43.054403779400175" lon="11.491633536054753"><ele>534.0</ele><time>2026-05-02T09:41:00.999Z</time></trkpt><trkpt lat="43.054392163741625" lon="11.49153225848248"><ele>536.0</ele><time>2026-05-02T09:41:01.999Z</time></trkpt><trkpt lat="43.05438233888625" lon="11.491431365193739"><ele>536.0</ele><time>2026-05-02T09:41:02.999Z</time></trkpt><trkpt lat="43.05437546573437" lon="11.491336012907102"><ele>536.0</ele><time>2026-05-02T09:41:03.999Z</time></trkpt><trkpt lat="43.05438004687152" lon="11.49124096594433"><ele>536.0</ele><time>2026-05-02T09:41:04.999Z</time></trkpt><trkpt lat="43.0544021658974" lon="11.49114913493404"><ele>536.0</ele><time>2026-05-02T09:41:05.999Z</time></trkpt><trkpt lat="43.05444580694777" lon="11.491063758260365"><ele>536.0</ele><time>2026-05-02T09:41:06.999Z</time></trkpt><trkpt lat="43.054508309907135" lon="11.490994786391207"><ele>536.0</ele><time>2026-05-02T09:41:07.999Z</time></trkpt><trkpt lat="43.05458416237929" lon="11.490958292485658"><ele>536.0</ele><time>2026-05-02T09:41:09Z</time></trkpt><trkpt lat="43.054667258874694" lon="11.490965994861162"><ele>536.0</ele><time>2026-05-02T09:41:10Z</time></trkpt><trkpt lat="43.054744706365376" lon="11.491021378040978"><ele>536.0</ele><time>2026-05-02T09:41:11Z</time></trkpt><trkpt lat="43.054808907521284" lon="11.491107373781022"><ele>536.0</ele><time>2026-05-02T09:41:12Z</time></trkpt><trkpt lat="43.054865537536685" lon="11.49120329266335"><ele>536.0</ele><time>2026-05-02T09:41:13Z</time></trkpt><trkpt lat="43.054926705967645" lon="11.491302481775843"><ele>536.0</ele><time>2026-05-02T09:41:14Z</time></trkpt><trkpt lat="43.054988268560415" lon="11.491403145602648"><ele>532.8333333333333</ele><time>2026-05-02T09:41:15Z</time></trkpt><trkpt lat="43.055057144078255" lon="11.491493195554622"><ele>529.6666666666666</ele><time>2026-05-02T09:41:16Z</time></trkpt><trkpt lat="43.05511471361448" lon="11.49157050914327"><ele>526.5</ele><time>2026-05-02T09:41:17Z</time></trkpt><trkpt lat="43.055160619709845" lon="11.491632878518551"><ele>523.3333333333334</ele><time>2026-05-02T09:41:18Z</time></trkpt><trkpt lat="43.055230481018896" lon="11.491730076371134"><ele>520.1666666666667</ele><time>2026-05-02T09:41:20Z</time></trkpt><trkpt lat="43.05527255217884" lon="11.491813407580256"><ele>517.0</ele><time>2026-05-02T09:41:22Z</time></trkpt><trkpt lat="43.05532342308986" lon="11.491911597541776"><ele>517.0</ele><time>2026-05-02T09:41:25Z</time></trkpt><trkpt lat="43.055397501626366" lon="11.49197836945175"><ele>517.0</ele><time>2026-05-02T09:41:27Z</time></trkpt><trkpt lat="43.05548801090441" lon="11.49196420940444"><ele>517.0</ele><time>2026-05-02T09:41:29Z</time></trkpt><trkpt lat="43.0555159685061" lon="11.491854852486028"><ele>517.0</ele><time>2026-05-02T09:41:31Z</time></trkpt><trkpt lat="43.05546148171447" lon="11.491739583746709"><ele>517.0</ele><time>2026-05-02T09:41:33Z</time></trkpt><trkpt lat="43.055362878496965" lon="11.491658940077825"><ele>517.0</ele><time>2026-05-02T09:41:35Z</time></trkpt><trkpt lat="43.05528670570597" lon="11.491530959727976"><ele>517.0</ele><time>2026-05-02T09:41:37Z</time></trkpt><trkpt lat="43.055253232534206" lon="11.491452791075906"><ele>517.0</ele><time>2026-05-02T09:41:38Z</time></trkpt><trkpt lat="43.055220569915335" lon="11.491378728930732"><ele>517.0</ele><time>2026-05-02T09:41:39Z</time></trkpt><trkpt lat="43.05514988182242" lon="11.491231314636172"><ele>517.0</ele><time>2026-05-02T09:41:41Z</time></trkpt><trkpt lat="43.055108426505335" lon="11.491162349445727"><ele>517.0</ele><time>2026-05-02T09:41:42Z</time></trkpt><trkpt lat="43.055072514111934" lon="11.491089165318884"><ele>519.8571428571429</ele><time>2026-05-02T09:41:43Z</time></trkpt><trkpt lat="43.05503813651755" lon="11.491014192753097"><ele>522.7142857142858</ele><time>2026-05-02T09:41:44Z</time></trkpt><trkpt lat="43.054998513468014" lon="11.49093980181911"><ele>525.5714285714286</ele><time>2026-05-02T09:41:45Z</time></trkpt><trkpt lat="43.05495756784209" lon="11.490864840068557"><ele>528.4285714285714</ele><time>2026-05-02T09:41:46Z</time></trkpt><trkpt lat="43.05491582192364" lon="11.490788732973959"><ele>531.2857142857142</ele><time>2026-05-02T09:41:47Z</time></trkpt><trkpt lat="43.054871788977685" lon="11.490715516140696"><ele>534.1428571428571</ele><time>2026-05-02T09:41:48Z</time></trkpt><trkpt lat="43.05482614948421" lon="11.490646586834892"><ele>537.0</ele><time>2026-05-02T09:41:49Z</time></trkpt><trkpt lat="43.05477808064794" lon="11.490584112967477"><ele>537.1428571428571</ele><time>2026-05-02T09:41:50Z</time></trkpt><trkpt lat="43.05472874652379" lon="11.490525348779556"><ele>537.2857142857142</ele><time>2026-05-02T09:41:51Z</time></trkpt><trkpt lat="43.054678102277634" lon="11.490467312659023"><ele>537.4285714285714</ele><time>2026-05-02T09:41:52Z</time></trkpt><trkpt lat="43.05462915132311" lon="11.490407433610041"><ele>537.5714285714286</ele><time>2026-05-02T09:41:53Z</time></trkpt><trkpt lat="43.0545782491667" lon="11.490347290175443"><ele>537.7142857142858</ele><time>2026-05-02T09:41:54Z</time></trkpt><trkpt lat="43.0545247400048" lon="11.490290666408315"><ele>537.8571428571429</ele><time>2026-05-02T09:41:55Z</time></trkpt><trkpt lat="43.05447185674902" lon="11.490234946057877"><ele>538.0</ele><time>2026-05-02T09:41:56Z</time></trkpt><trkpt lat="43.054370542537015" lon="11.490147178127064"><ele>539.6</ele><time>2026-05-02T09:41:58Z</time></trkpt><trkpt lat="43.05428104244155" lon="11.490057716793498"><ele>541.1999999999999</ele><time>2026-05-02T09:42:00Z</time></trkpt><trkpt lat="43.05418867696846" lon="11.489953439264028"><ele>542.8</ele><time>2026-05-02T09:42:02Z</time></trkpt><trkpt lat="43.05413102490294" lon="11.48980842559089"><ele>544.4</ele><time>2026-05-02T09:42:04Z</time></trkpt><trkpt lat="43.054137243630066" lon="11.489721044752184"><ele>546.0</ele><time>2026-05-02T09:42:05Z</time></trkpt><trkpt lat="43.054159274962856" lon="11.48957905608237"><ele>547.8</ele><time>2026-05-02T09:42:16.999Z</time></trkpt><trkpt lat="43.0541929543851" lon="11.489462542094685"><ele>549.6</ele><time>2026-05-02T09:42:18.999Z</time></trkpt><trkpt lat="43.05424899722768" lon="11.489384294114698"><ele>551.4</ele><time>2026-05-02T09:42:20.999Z</time></trkpt><trkpt lat="43.05433483098427" lon="11.48934452081494"><ele>553.2</ele><time>2026-05-02T09:42:22.999Z</time></trkpt><trkpt lat="43.054435683575825" lon="11.48931664475431"><ele>555.0</ele><time>2026-05-02T09:42:24.999Z</time></trkpt><trkpt lat="43.054533860039236" lon="11.489301948311285"><ele>555.0</ele><time>2026-05-02T09:42:26.999Z</time></trkpt><trkpt lat="43.054618175880634" lon="11.489293792589462"><ele>555.0</ele><time>2026-05-02T09:42:28.999Z</time></trkpt><trkpt lat="43.05470350592122" lon="11.489286681754873"><ele>555.0</ele><time>2026-05-02T09:42:30.999Z</time></trkpt><trkpt lat="43.0547941766202" lon="11.489279842819904"><ele>555.0</ele><time>2026-05-02T09:42:32.999Z</time></trkpt><trkpt lat="43.054883260814385" lon="11.489274979698314"><ele>555.0</ele><time>2026-05-02T09:42:34.999Z</time></trkpt><trkpt lat="43.05497136793601" lon="11.489248038774035"><ele>555.0</ele><time>2026-05-02T09:42:36.999Z</time></trkpt><trkpt lat="43.05507208197307" lon="11.489241161567579"><ele>554.6666666666666</ele><time>2026-05-02T09:42:38.999Z</time></trkpt><trkpt lat="43.055151046997025" lon="11.48916727383752"><ele>554.3333333333334</ele><time>2026-05-02T09:42:40.999Z</time></trkpt><trkpt lat="43.0552231038333" lon="11.489092226805637"><ele>554.0</ele><time>2026-05-02T09:42:42.999Z</time></trkpt><trkpt lat="43.05528813205667" lon="11.489080151247144"><ele>553.6666666666667</ele><time>2026-05-02T09:42:43.999Z</time></trkpt><trkpt lat="43.05536293531442" lon="11.489042248871558"><ele>553.3333333333334</ele><time>2026-05-02T09:42:45.999Z</time></trkpt><trkpt lat="43.05543628209161" lon="11.489021194007822"><ele>553.0</ele><time>2026-05-02T09:42:47.999Z</time></trkpt><trkpt lat="43.05555172660189" lon="11.48897809078711"><ele>553.0</ele><time>2026-05-02T09:42:49.999Z</time></trkpt><trkpt lat="43.05561998163741" lon="11.488960419458984"><ele>553.0</ele><time>2026-05-02T09:42:50.999Z</time></trkpt><trkpt lat="43.05569244509068" lon="11.488955262245508"><ele>553.0</ele><time>2026-05-02T09:42:51.999Z</time></trkpt><trkpt lat="43.05576620282103" lon="11.488969897595693"><ele>553.0</ele><time>2026-05-02T09:42:52.999Z</time></trkpt><trkpt lat="43.05583481375206" lon="11.488986800329515"><ele>553.0</ele><time>2026-05-02T09:42:53.999Z</time></trkpt><trkpt lat="43.055906352519685" lon="11.489029587837969"><ele>553.0</ele><time>2026-05-02T09:42:54.999Z</time></trkpt><trkpt lat="43.05598018703223" lon="11.489053786590855"><ele>553.0</ele><time>2026-05-02T09:42:55.999Z</time></trkpt><trkpt lat="43.05606679080725" lon="11.489055606837608"><ele>552.3333333333334</ele><time>2026-05-02T09:42:56.999Z</time></trkpt><trkpt lat="43.056146920796266" lon="11.489039956305366"><ele>551.6666666666667</ele><time>2026-05-02T09:42:57.999Z</time></trkpt><trkpt lat="43.05622406969873" lon="11.489005845837978"><ele>551.0</ele><time>2026-05-02T09:42:58.999Z</time></trkpt><trkpt lat="43.05631024827864" lon="11.488968134372485"><ele>550.3333333333334</ele><time>2026-05-02T09:42:59.999Z</time></trkpt><trkpt lat="43.05639825016503" lon="11.488932381180957"><ele>549.6666666666666</ele><time>2026-05-02T09:43:00.999Z</time></trkpt><trkpt lat="43.05649154312797" lon="11.488898709364891"><ele>549.0</ele><time>2026-05-02T09:43:01.999Z</time></trkpt><trkpt lat="43.05657975533803" lon="11.488858346749199"><ele>549.1666666666666</ele><time>2026-05-02T09:43:02.999Z</time></trkpt><trkpt lat="43.056660208122935" lon="11.488837556633989"><ele>549.3333333333334</ele><time>2026-05-02T09:43:03.999Z</time></trkpt><trkpt lat="43.05671835854669" lon="11.488786184546337"><ele>549.5</ele><time>2026-05-02T09:43:04.999Z</time></trkpt><trkpt lat="43.056790974456824" lon="11.488766004427914"><ele>549.6666666666667</ele><time>2026-05-02T09:43:06.999Z</time></trkpt><trkpt lat="43.056891557439585" lon="11.488840391145905"><ele>549.8333333333334</ele><time>2026-05-02T09:43:11.999Z</time></trkpt><trkpt lat="43.05693362929544" lon="11.48891856406898"><ele>550.0</ele><time>2026-05-02T09:43:12.999Z</time></trkpt><trkpt lat="43.05697995575666" lon="11.489047630144064"><ele>550.0</ele><time>2026-05-02T09:43:15Z</time></trkpt><trkpt lat="43.057016548951964" lon="11.489123515966968"><ele>550.0</ele><time>2026-05-02T09:43:18Z</time></trkpt><trkpt lat="43.05695182073072" lon="11.489212750843722"><ele>550.0</ele><time>2026-05-02T09:43:20Z</time></trkpt><trkpt lat="43.056865663410655" lon="11.489237537282756"><ele>550.0</ele><time>2026-05-02T09:43:23Z</time></trkpt><trkpt lat="43.056801237905205" lon="11.489251507392163"><ele>550.0</ele><time>2026-05-02T09:43:25Z</time></trkpt><trkpt lat="43.05673468952343" lon="11.489266316061949"><ele>550.0</ele><time>2026-05-02T09:43:27Z</time></trkpt><trkpt lat="43.05666868573533" lon="11.489284805732543"><ele>550.0</ele><time>2026-05-02T09:43:29Z</time></trkpt><trkpt lat="43.056598829894774" lon="11.489303588714769"><ele>549.8571428571429</ele><time>2026-05-02T09:43:31Z</time></trkpt><trkpt lat="43.05652874808815" lon="11.489314872699918"><ele>549.7142857142857</ele><time>2026-05-02T09:43:33Z</time></trkpt><trkpt lat="43.056467437286905" lon="11.489347238314739"><ele>549.5714285714286</ele><time>2026-05-02T09:43:35Z</time></trkpt><trkpt lat="43.056407794389735" lon="11.489413178524146"><ele>549.4285714285714</ele><time>2026-05-02T09:43:38Z</time></trkpt><trkpt lat="43.05640483389694" lon="11.489499874254788"><ele>549.2857142857143</ele><time>2026-05-02T09:43:49Z</time></trkpt><trkpt lat="43.056430164649115" lon="11.489391488005106"><ele>549.1428571428571</ele><time>2026-05-02T09:43:52Z</time></trkpt><trkpt lat="43.05647680815248" lon="11.489304926753315"><ele>549.0</ele><time>2026-05-02T09:43:55Z</time></trkpt><trkpt lat="43.0565310495027" lon="11.489253951858432"><ele>549.2</ele><time>2026-05-02T09:43:57Z</time></trkpt><trkpt lat="43.056637688698586" lon="11.4891929556685"><ele>549.4</ele><time>2026-05-02T09:44:00Z</time></trkpt><trkpt lat="43.056727095029885" lon="11.489266985552062"><ele>549.6</ele><time>2026-05-02T09:44:01Z</time></trkpt><trkpt lat="43.05680966417935" lon="11.489247224110057"><ele>549.8</ele><time>2026-05-02T09:44:03Z</time></trkpt><trkpt lat="43.0568927417943" lon="11.489243598643649"><ele>550.0</ele><time>2026-05-02T09:44:05Z</time></trkpt><trkpt lat="43.0569617031043" lon="11.489230630628295"><ele>550.0</ele><time>2026-05-02T09:44:06.999Z</time></trkpt><trkpt lat="43.05701290597963" lon="11.489167981310251"><ele>550.0</ele><time>2026-05-02T09:44:11.999Z</time></trkpt><trkpt lat="43.057077461459855" lon="11.489079538732508"><ele>550.0</ele><time>2026-05-02T09:44:14.999Z</time></trkpt><trkpt lat="43.057136709864416" lon="11.48899670530693"><ele>550.0</ele><time>2026-05-02T09:44:17.999Z</time></trkpt><trkpt lat="43.057220034311385" lon="11.488928778145324"><ele>550.0</ele><time>2026-05-02T09:44:19.999Z</time></trkpt><trkpt lat="43.057283441002575" lon="11.488828210002525"><ele>550.0</ele><time>2026-05-02T09:44:21.999Z</time></trkpt><trkpt lat="43.05734857612733" lon="11.488725201908775"><ele>536.0</ele><time>2026-05-02T09:44:23.999Z</time></trkpt><trkpt lat="43.05741093839034" lon="11.488629622213166"><ele>536.0</ele><time>2026-05-02T09:44:25.999Z</time></trkpt><trkpt lat="43.05746134708606" lon="11.488552363073858"><ele>552.0</ele><time>2026-05-02T09:44:27.999Z</time></trkpt><trkpt lat="43.05750671999323" lon="11.4884828214331"><ele>552.0</ele><time>2026-05-02T09:44:29.999Z</time></trkpt><trkpt lat="43.057563350961615" lon="11.488396023267459"><ele>552.0</ele><time>2026-05-02T09:44:31.999Z</time></trkpt><trkpt lat="43.057620898405006" lon="11.488301825238185"><ele>552.0</ele><time>2026-05-02T09:44:33.999Z</time></trkpt></trkseg><trkseg><trkpt lat="43.06279936424153" lon="11.730775630758703"><ele>490.0</ele><time>2026-05-02T12:35:17.614Z</time></trkpt><trkpt lat="43.062787791370546" lon="11.730915205330705"><ele>490.0</ele><time>2026-05-02T12:35:18.614Z</time></trkpt><trkpt lat="43.062786144253515" lon="11.731038756765917"><ele>490.0</ele><time>2026-05-02T12:35:19.614Z</time></trkpt><trkpt lat="43.062769395506784" lon="11.731146006011125"><ele>490.0</ele><time>2026-05-02T12:35:20.614Z</time></trkpt><trkpt lat="43.06275230721141" lon="11.731280393934469"><ele>490.0</ele><time>2026-05-02T12:35:21.997Z</time></trkpt><trkpt lat="43.06280172289481" lon="11.731527277571383"><ele>492.5</ele><time>2026-05-02T12:35:23.999Z</time></trkpt><trkpt lat="43.06286085725751" lon="11.731670543434035"><ele>495.0</ele><time>2026-05-02T12:35:24.999Z</time></trkpt><trkpt lat="43.06293031723751" lon="11.731815714221478"><ele>497.5</ele><time>2026-05-02T12:35:25.999Z</time></trkpt><trkpt lat="43.06301121207587" lon="11.73196671014554"><ele>500.0</ele><time>2026-05-02T12:35:26.999Z</time></trkpt><trkpt lat="43.063097871942944" lon="11.73210946808062"><ele>501.75</ele><time>2026-05-02T12:35:27.999Z</time></trkpt><trkpt lat="43.0631880238453" lon="11.732238561355755"><ele>503.5</ele><time>2026-05-02T12:35:28.999Z</time></trkpt><trkpt lat="43.06328385193085" lon="11.732366233585477"><ele>505.25</ele><time>2026-05-02T12:35:29.999Z</time></trkpt><trkpt lat="43.0633609444633" lon="11.732464864625985"><ele>507.0</ele><time>2026-05-02T12:35:30.999Z</time></trkpt><trkpt lat="43.063429609332914" lon="11.732581056606989"><ele>507.0</ele><time>2026-05-02T12:35:31.999Z</time></trkpt><trkpt lat="43.06343258070572" lon="11.732682812227647"><ele>507.00000000000006</ele><time>2026-05-02T12:35:32.999Z</time></trkpt><trkpt lat="43.06337514067683" lon="11.73273188160427"><ele>507.00000000000006</ele><time>2026-05-02T12:35:33.999Z</time></trkpt><trkpt lat="43.06322191778853" lon="11.73271436392206"><ele>507.0</ele><time>2026-05-02T12:35:35.999Z</time></trkpt><trkpt lat="43.06314601604614" lon="11.732643291339466"><ele>507.0</ele><time>2026-05-02T12:35:36.999Z</time></trkpt><trkpt lat="43.06304660721908" lon="11.732578246949895"><ele>507.8</ele><time>2026-05-02T12:35:37.999Z</time></trkpt><trkpt lat="43.06294229170107" lon="11.732554713841886"><ele>508.6</ele><time>2026-05-02T12:35:38.999Z</time></trkpt><trkpt lat="43.06284743931216" lon="11.732579505778753"><ele>509.40000000000003</ele><time>2026-05-02T12:35:39.999Z</time></trkpt><trkpt lat="43.06276335113082" lon="11.732619603717488"><ele>510.20000000000005</ele><time>2026-05-02T12:35:40.999Z</time></trkpt><trkpt lat="43.062689456856745" lon="11.732697362636944"><ele>511.0</ele><time>2026-05-02T12:35:41.999Z</time></trkpt><trkpt lat="43.06261444547308" lon="11.732782892901135"><ele>510.8</ele><time>2026-05-02T12:35:42.999Z</time></trkpt><trkpt lat="43.06255411159553" lon="11.732897062273201"><ele>510.6</ele><time>2026-05-02T12:35:43.999Z</time></trkpt><trkpt lat="43.06249204474906" lon="11.732995860374006"><ele>510.4</ele><time>2026-05-02T12:35:44.999Z</time></trkpt><trkpt lat="43.06243195605128" lon="11.733100158532528"><ele>510.2</ele><time>2026-05-02T12:35:45.999Z</time></trkpt><trkpt lat="43.06238105915801" lon="11.73320705752909"><ele>510.0</ele><time>2026-05-02T12:35:46.999Z</time></trkpt><trkpt lat="43.06235771259889" lon="11.73332623945244"><ele>510.0</ele><time>2026-05-02T12:35:47.999Z</time></trkpt><trkpt lat="43.06236844283075" lon="11.73343134019367"><ele>510.0</ele><time>2026-05-02T12:35:48.999Z</time></trkpt><trkpt lat="43.06240704123629" lon="11.733531877319317"><ele>510.0</ele><time>2026-05-02T12:35:49.999Z</time></trkpt><trkpt lat="43.06247323932849" lon="11.733602861679923"><ele>510.0</ele><time>2026-05-02T12:35:50.999Z</time></trkpt><trkpt lat="43.06255352403106" lon="11.733639427806681"><ele>510.0</ele><time>2026-05-02T12:35:51.999Z</time></trkpt><trkpt lat="43.06264962135036" lon="11.733641854502798"><ele>510.0</ele><time>2026-05-02T12:35:52.999Z</time></trkpt><trkpt lat="43.06274673606538" lon="11.733625932487504"><ele>513.1666666666666</ele><time>2026-05-02T12:35:53.999Z</time></trkpt><trkpt lat="43.06283932309245" lon="11.733616923094967"><ele>516.3333333333334</ele><time>2026-05-02T12:35:54.999Z</time></trkpt><trkpt lat="43.06292806222488" lon="11.73363028981161"><ele>519.5</ele><time>2026-05-02T12:35:55.999Z</time></trkpt><trkpt lat="43.06300643893582" lon="11.733646345923171"><ele>522.6666666666667</ele><time>2026-05-02T12:35:56.999Z</time></trkpt><trkpt lat="43.0630820749964" lon="11.733676010988493"><ele>525.8333333333334</ele><time>2026-05-02T12:35:57.999Z</time></trkpt><trkpt lat="43.063135965153386" lon="11.733740698618023"><ele>529.0</ele><time>2026-05-02T12:35:58.999Z</time></trkpt><trkpt lat="43.063160012876054" lon="11.73383600892596"><ele>529.0</ele><time>2026-05-02T12:35:59.999Z</time></trkpt><trkpt lat="43.06316777093191" lon="11.73393487369184"><ele>529.0</ele><time>2026-05-02T12:36:00.999Z</time></trkpt><trkpt lat="43.063144943839866" lon="11.73402912792546"><ele>529.0</ele><time>2026-05-02T12:36:01.999Z</time></trkpt><trkpt lat="43.06310313198591" lon="11.734101133760179"><ele>529.0</ele><time>2026-05-02T12:36:02.999Z</time></trkpt><trkpt lat="43.06304522139755" lon="11.7341397067501"><ele>529.0</ele><time>2026-05-02T12:36:03.999Z</time></trkpt><trkpt lat="43.062981698108864" lon="11.734152307694393"><ele>529.0</ele><time>2026-05-02T12:36:04.999Z</time></trkpt><trkpt lat="43.06291657849107" lon="11.73414051366222"><ele>529.0</ele><time>2026-05-02T12:36:05.999Z</time></trkpt><trkpt lat="43.06285152405105" lon="11.734122066398436"><ele>529.0</ele><time>2026-05-02T12:36:06.999Z</time></trkpt><trkpt lat="43.0627853382327" lon="11.734122289729637"><ele>529.0</ele><time>2026-05-02T12:36:07.999Z</time></trkpt><trkpt lat="43.06270193918" lon="11.734232642752325"><ele>529.0</ele><time>2026-05-02T12:36:09.999Z</time></trkpt><trkpt lat="43.062701528368514" lon="11.734328344774966"><ele>529.0</ele><time>2026-05-02T12:36:10.999Z</time></trkpt><trkpt lat="43.06273017143183" lon="11.734414559121223"><ele>529.0</ele><time>2026-05-02T12:36:11.999Z</time></trkpt><trkpt lat="43.062767228460594" lon="11.734488644211536"><ele>529.0</ele><time>2026-05-02T12:36:12.999Z</time></trkpt><trkpt lat="43.06280811004899" lon="11.7345588863375"><ele>531.0</ele><time>2026-05-02T12:36:13.999Z</time></trkpt><trkpt lat="43.06284212565695" lon="11.734633836273249"><ele>533.0</ele><time>2026-05-02T12:36:14.999Z</time></trkpt><trkpt lat="43.06287233050617" lon="11.734713133651535"><ele>535.0</ele><time>2026-05-02T12:36:15.999Z</time></trkpt><trkpt lat="43.06289717638435" lon="11.734800490599376"><ele>537.0</ele><time>2026-05-02T12:36:16.999Z</time></trkpt><trkpt lat="43.06291830048074" lon="11.73490278607979"><ele>539.0</ele><time>2026-05-02T12:36:17.999Z</time></trkpt><trkpt lat="43.06292968885568" lon="11.73502986480657"><ele>541.0</ele><time>2026-05-02T12:36:18.999Z</time></trkpt><trkpt lat="43.062927222279825" lon="11.735154633795146"><ele>543.4</ele><time>2026-05-02T12:36:19.999Z</time></trkpt><trkpt lat="43.06287257855019" lon="11.73526082667944"><ele>545.8</ele><time>2026-05-02T12:36:20.999Z</time></trkpt><trkpt lat="43.062829157842835" lon="11.735379685798257"><ele>548.1999999999999</ele><time>2026-05-02T12:36:21.999Z</time></trkpt><trkpt lat="43.0627390256009" lon="11.735454688551352"><ele>550.6</ele><time>2026-05-02T12:36:22.999Z</time></trkpt><trkpt lat="43.06268320086525" lon="11.735546234631077"><ele>553.0</ele><time>2026-05-02T12:36:23.999Z</time></trkpt><trkpt lat="43.06262301134975" lon="11.73560649948473"><ele>553.0</ele><time>2026-05-02T12:36:24.999Z</time></trkpt><trkpt lat="43.06256890634158" lon="11.735667374227933"><ele>553.0</ele><time>2026-05-02T12:36:25.999Z</time></trkpt><trkpt lat="43.06251582416277" lon="11.735730542398874"><ele>553.0</ele><time>2026-05-02T12:36:26.999Z</time></trkpt><trkpt lat="43.06246577139076" lon="11.735791472105234"><ele>553.0</ele><time>2026-05-02T12:36:27.999Z</time></trkpt><trkpt lat="43.06241581392316" lon="11.73585389666528"><ele>553.0</ele><time>2026-05-02T12:36:28.999Z</time></trkpt><trkpt lat="43.06236627259153" lon="11.735912573454149"><ele>553.0</ele><time>2026-05-02T12:36:29.999Z</time></trkpt><trkpt lat="43.0623205702737" lon="11.735973967259032"><ele>553.0</ele><time>2026-05-02T12:36:30.999Z</time></trkpt><trkpt lat="43.06222590056515" lon="11.736090172092855"><ele>554.1666666666667</ele><time>2026-05-02T12:36:32.999Z</time></trkpt><trkpt lat="43.062176795815226" lon="11.736149917054822"><ele>555.3333333333334</ele><time>2026-05-02T12:36:33.999Z</time></trkpt><trkpt lat="43.06212419470035" lon="11.736209403373307"><ele>556.5</ele><time>2026-05-02T12:36:34.999Z</time></trkpt><trkpt lat="43.062071375635696" lon="11.73626817696906"><ele>557.6666666666666</ele><time>2026-05-02T12:36:35.999Z</time></trkpt><trkpt lat="43.06201843807708" lon="11.736325627694221"><ele>558.8333333333333</ele><time>2026-05-02T12:36:36.999Z</time></trkpt><trkpt lat="43.06196500099508" lon="11.736385982643178"><ele>560.0</ele><time>2026-05-02T12:36:37.999Z</time></trkpt><trkpt lat="43.06187093550094" lon="11.736496704031335"><ele>560.0</ele><time>2026-05-02T12:36:39.999Z</time></trkpt><trkpt lat="43.06182317217771" lon="11.736556718001637"><ele>560.0</ele><time>2026-05-02T12:36:40.999Z</time></trkpt><trkpt lat="43.06177553067984" lon="11.736621756943618"><ele>560.0</ele><time>2026-05-02T12:36:41.999Z</time></trkpt><trkpt lat="43.06172437567158" lon="11.736686974830208"><ele>560.0</ele><time>2026-05-02T12:36:42.999Z</time></trkpt><trkpt lat="43.06167161145613" lon="11.736761476958392"><ele>560.0</ele><time>2026-05-02T12:36:43.999Z</time></trkpt><trkpt lat="43.061615368221474" lon="11.736852697259982"><ele>560.0</ele><time>2026-05-02T12:36:44.999Z</time></trkpt><trkpt lat="43.061559156417125" lon="11.736950130017618"><ele>560.75</ele><time>2026-05-02T12:36:45.999Z</time></trkpt><trkpt lat="43.061502720265274" lon="11.737061914086873"><ele>561.5</ele><time>2026-05-02T12:36:46.999Z</time></trkpt><trkpt lat="43.06143865218319" lon="11.737188660062612"><ele>562.25</ele><time>2026-05-02T12:36:47.999Z</time></trkpt><trkpt lat="43.06135337703128" lon="11.737336339796189"><ele>563.0</ele><time>2026-05-02T12:36:48.999Z</time></trkpt><trkpt lat="43.06126162229361" lon="11.73750405041584"><ele>563.0</ele><time>2026-05-02T12:36:49.999Z</time></trkpt><trkpt lat="43.061163428358974" lon="11.73767377117765"><ele>563.0</ele><time>2026-05-02T12:36:50.999Z</time></trkpt><trkpt lat="43.06105305419833" lon="11.737865990087874"><ele>563.0</ele><time>2026-05-02T12:36:51.999Z</time></trkpt><trkpt lat="43.060949027958785" lon="11.738052611207364"><ele>563.6666666666666</ele><time>2026-05-02T12:36:52.999Z</time></trkpt><trkpt lat="43.06084195504361" lon="11.738254781621405"><ele>564.3333333333334</ele><time>2026-05-02T12:36:53.999Z</time></trkpt><trkpt lat="43.060739666030294" lon="11.738450985753158"><ele>565.0</ele><time>2026-05-02T12:36:54.999Z</time></trkpt><trkpt lat="43.06063691324638" lon="11.738641967320943"><ele>567.5</ele><time>2026-05-02T12:36:55.999Z</time></trkpt><trkpt lat="43.06054247327913" lon="11.738808206322199"><ele>570.0</ele><time>2026-05-02T12:36:56.999Z</time></trkpt><trkpt lat="43.06045572387266" lon="11.738960807726986"><ele>572.5</ele><time>2026-05-02T12:36:57.999Z</time></trkpt><trkpt lat="43.06037679266077" lon="11.739103402142707"><ele>575.0</ele><time>2026-05-02T12:36:58.999Z</time></trkpt><trkpt lat="43.06030051514768" lon="11.739231415594576"><ele>575.0</ele><time>2026-05-02T12:36:59.999Z</time></trkpt><trkpt lat="43.06022024681088" lon="11.739353045927858"><ele>575.0</ele><time>2026-05-02T12:37:00.999Z</time></trkpt><trkpt lat="43.06013471611605" lon="11.739466925332644"><ele>575.0</ele><time>2026-05-02T12:37:01.999Z</time></trkpt><trkpt lat="43.06005427787955" lon="11.739583217672775"><ele>575.0</ele><time>2026-05-02T12:37:02.999Z</time></trkpt><trkpt lat="43.05998138091843" lon="11.73969888036525"><ele>575.6</ele><time>2026-05-02T12:37:03.999Z</time></trkpt><trkpt lat="43.05990850330861" lon="11.739814987452682"><ele>576.2</ele><time>2026-05-02T12:37:04.999Z</time></trkpt><trkpt lat="43.05982818618394" lon="11.73992665419847"><ele>576.8</ele><time>2026-05-02T12:37:05.999Z</time></trkpt><trkpt lat="43.05974998683824" lon="11.740028148294204"><ele>577.4</ele><time>2026-05-02T12:37:06.999Z</time></trkpt><trkpt lat="43.059683318143485" lon="11.740132377143636"><ele>578.0</ele><time>2026-05-02T12:37:07.999Z</time></trkpt><trkpt lat="43.05963980383901" lon="11.740261743203243"><ele>578.0</ele><time>2026-05-02T12:37:08.999Z</time></trkpt><trkpt lat="43.05961661137788" lon="11.740416240958304"><ele>578.0</ele><time>2026-05-02T12:37:09.999Z</time></trkpt><trkpt lat="43.05960114737958" lon="11.740572545976434"><ele>578.0</ele><time>2026-05-02T12:37:10.999Z</time></trkpt><trkpt lat="43.05958147929035" lon="11.740729374056501"><ele>578.0</ele><time>2026-05-02T12:37:11.999Z</time></trkpt><trkpt lat="43.05955491915966" lon="11.740877143303319"><ele>578.0</ele><time>2026-05-02T12:37:12.999Z</time></trkpt><trkpt lat="43.059518181336294" lon="11.74101633807512"><ele>578.0</ele><time>2026-05-02T12:37:13.999Z</time></trkpt><trkpt lat="43.05947048101833" lon="11.741146301549215"><ele>578.0</ele><time>2026-05-02T12:37:14.999Z</time></trkpt><trkpt lat="43.0594067770237" lon="11.741278251868835"><ele>578.0</ele><time>2026-05-02T12:37:15.999Z</time></trkpt><trkpt lat="43.05930352893236" lon="11.741380815188188"><ele>579.0</ele><time>2026-05-02T12:37:16.999Z</time></trkpt><trkpt lat="43.05919163276523" lon="11.741531423149208"><ele>580.0</ele><time>2026-05-02T12:37:17.999Z</time></trkpt><trkpt lat="43.05905942440699" lon="11.741699601657215"><ele>581.0</ele><time>2026-05-02T12:37:18.999Z</time></trkpt><trkpt lat="43.058910588334804" lon="11.7418848842745"><ele>583.3333333333333</ele><time>2026-05-02T12:37:19.999Z</time></trkpt><trkpt lat="43.05876795330818" lon="11.742067563526016"><ele>585.6666666666666</ele><time>2026-05-02T12:37:20.999Z</time></trkpt><trkpt lat="43.058641027163006" lon="11.742247227364313"><ele>588.0</ele><time>2026-05-02T12:37:21.999Z</time></trkpt><trkpt lat="43.05850540204454" lon="11.74241236716647"><ele>588.0</ele><time>2026-05-02T12:37:22.999Z</time></trkpt><trkpt lat="43.0583830207529" lon="11.742571334025433"><ele>588.0</ele><time>2026-05-02T12:37:23.999Z</time></trkpt><trkpt lat="43.058262514431654" lon="11.742726264419282"><ele>588.0</ele><time>2026-05-02T12:37:24.999Z</time></trkpt><trkpt lat="43.05813769056848" lon="11.7428692499505"><ele>591.6666666666666</ele><time>2026-05-02T12:37:25.999Z</time></trkpt><trkpt lat="43.058011100178454" lon="11.743002788234207"><ele>595.3333333333333</ele><time>2026-05-02T12:37:26.999Z</time></trkpt><trkpt lat="43.05786982459033" lon="11.743082596455608"><ele>599.0</ele><time>2026-05-02T12:37:27.999Z</time></trkpt><trkpt lat="43.05772335312044" lon="11.743157162286536"><ele>599.0</ele><time>2026-05-02T12:37:28.999Z</time></trkpt><trkpt lat="43.057560277750305" lon="11.743134105694761"><ele>599.0</ele><time>2026-05-02T12:37:30Z</time></trkpt><trkpt lat="43.05740414609293" lon="11.743080332940341"><ele>599.0</ele><time>2026-05-02T12:37:31Z</time></trkpt><trkpt lat="43.05726419953231" lon="11.743055666096112"><ele>596.5</ele><time>2026-05-02T12:37:32Z</time></trkpt><trkpt lat="43.05714860948106" lon="11.743035050485663"><ele>594.0</ele><time>2026-05-02T12:37:33Z</time></trkpt><trkpt lat="43.057032172137234" lon="11.74308688775605"><ele>591.5</ele><time>2026-05-02T12:37:34Z</time></trkpt><trkpt lat="43.05692012556747" lon="11.743197678359854"><ele>589.0</ele><time>2026-05-02T12:37:35Z</time></trkpt><trkpt lat="43.05683956140801" lon="11.743355893600059"><ele>592.6666666666667</ele><time>2026-05-02T12:37:36Z</time></trkpt><trkpt lat="43.05680526451274" lon="11.743549896430912"><ele>596.3333333333334</ele><time>2026-05-02T12:37:37Z</time></trkpt><trkpt lat="43.05680246945056" lon="11.743778547143707"><ele>600.0</ele><time>2026-05-02T12:37:38Z</time></trkpt><trkpt lat="43.056775838478494" lon="11.744027456728183"><ele>600.0</ele><time>2026-05-02T12:37:39Z</time></trkpt><trkpt lat="43.056663023730636" lon="11.74424017387258"><ele>600.0</ele><time>2026-05-02T12:37:40Z</time></trkpt><trkpt lat="43.05651574339019" lon="11.744450526223355"><ele>600.0</ele><time>2026-05-02T12:37:41Z</time></trkpt><trkpt lat="43.05636742483216" lon="11.744700751294376"><ele>602.5</ele><time>2026-05-02T12:37:42Z</time></trkpt><trkpt lat="43.05620477068911" lon="11.744947586291257"><ele>605.0</ele><time>2026-05-02T12:37:43Z</time></trkpt><trkpt lat="43.056040944215226" lon="11.745223462797043"><ele>605.0</ele><time>2026-05-02T12:37:44Z</time></trkpt><trkpt lat="43.05586450387437" lon="11.745519853446966"><ele>605.0</ele><time>2026-05-02T12:37:45Z</time></trkpt><trkpt lat="43.055686319354876" lon="11.74580505884733"><ele>603.5</ele><time>2026-05-02T12:37:46Z</time></trkpt><trkpt lat="43.05550979780309" lon="11.746086896005098"><ele>602.0</ele><time>2026-05-02T12:37:47Z</time></trkpt><trkpt lat="43.055339393912085" lon="11.746368664100693"><ele>602.0</ele><time>2026-05-02T12:37:48Z</time></trkpt><trkpt lat="43.055181117556934" lon="11.746629927928797"><ele>602.0</ele><time>2026-05-02T12:37:49Z</time></trkpt><trkpt lat="43.05503625713215" lon="11.746862855909667"><ele>601.0</ele><time>2026-05-02T12:37:50Z</time></trkpt><trkpt lat="43.05488842806624" lon="11.747097853579989"><ele>600.0</ele><time>2026-05-02T12:37:51Z</time></trkpt><trkpt lat="43.054737397871484" lon="11.747330395407657"><ele>600.0</ele><time>2026-05-02T12:37:52Z</time></trkpt><trkpt lat="43.054584159821616" lon="11.747530999084473"><ele>600.0</ele><time>2026-05-02T12:37:53Z</time></trkpt><trkpt lat="43.05442937440364" lon="11.747677608636122"><ele>600.0</ele><time>2026-05-02T12:37:54Z</time></trkpt><trkpt lat="43.054284441521304" lon="11.7478143757766"><ele>603.6666666666666</ele><time>2026-05-02T12:37:55Z</time></trkpt><trkpt lat="43.05416585262965" lon="11.747963646290737"><ele>607.3333333333333</ele><time>2026-05-02T12:37:56Z</time></trkpt><trkpt lat="43.054082440412444" lon="11.748145077216787"><ele>611.0</ele><time>2026-05-02T12:37:57Z</time></trkpt><trkpt lat="43.05402684209736" lon="11.748360956890734"><ele>604.6666666666666</ele><time>2026-05-02T12:37:58Z</time></trkpt><trkpt lat="43.053987834858695" lon="11.748565083348094"><ele>598.3333333333334</ele><time>2026-05-02T12:37:59Z</time></trkpt><trkpt lat="43.05397506451633" lon="11.748776870109856"><ele>592.0</ele><time>2026-05-02T12:38:00Z</time></trkpt><trkpt lat="43.05399233831279" lon="11.749001304926121"><ele>592.0</ele><time>2026-05-02T12:38:01Z</time></trkpt><trkpt lat="43.05402256354595" lon="11.749234877988586"><ele>592.0</ele><time>2026-05-02T12:38:02Z</time></trkpt><trkpt lat="43.054045472157256" lon="11.749475136359504"><ele>592.0</ele><time>2026-05-02T12:38:03Z</time></trkpt><trkpt lat="43.05404784996343" lon="11.749697831637508"><ele>593.6666666666667</ele><time>2026-05-02T12:38:04Z</time></trkpt><trkpt lat="43.054015008856126" lon="11.749904141517531"><ele>595.3333333333334</ele><time>2026-05-02T12:38:05Z</time></trkpt><trkpt lat="43.05391249593484" lon="11.75010519769733"><ele>597.0</ele><time>2026-05-02T12:38:06Z</time></trkpt><trkpt lat="43.05381736529264" lon="11.750331959389504"><ele>601.3333333333334</ele><time>2026-05-02T12:38:07Z</time></trkpt><trkpt lat="43.053693263711395" lon="11.750568951542684"><ele>605.6666666666667</ele><time>2026-05-02T12:38:08Z</time></trkpt><trkpt lat="43.0535959051679" lon="11.750830684233511"><ele>610.0</ele><time>2026-05-02T12:38:09Z</time></trkpt><trkpt lat="43.053479587959906" lon="11.751080384190168"><ele>609.6666666666667</ele><time>2026-05-02T12:38:10Z</time></trkpt><trkpt lat="43.05336160797074" lon="11.75132442509347"><ele>609.3333333333334</ele><time>2026-05-02T12:38:11Z</time></trkpt><trkpt lat="43.05323972809567" lon="11.751560587349019"><ele>609.0</ele><time>2026-05-02T12:38:12Z</time></trkpt><trkpt lat="43.05312068824047" lon="11.751785858888745"><ele>614.6666666666666</ele><time>2026-05-02T12:38:13Z</time></trkpt><trkpt lat="43.052999359490805" lon="11.75200363800346"><ele>620.3333333333333</ele><time>2026-05-02T12:38:14Z</time></trkpt><trkpt lat="43.05286120767308" lon="11.752215430200994"><ele>626.0</ele><time>2026-05-02T12:38:15Z</time></trkpt><trkpt lat="43.05269929521345" lon="11.752408644360267"><ele>626.0</ele><time>2026-05-02T12:38:16Z</time></trkpt><trkpt lat="43.05251405830999" lon="11.752589064938626"><ele>626.0</ele><time>2026-05-02T12:38:17Z</time></trkpt><trkpt lat="43.05232694249747" lon="11.752757978618945"><ele>627.0</ele><time>2026-05-02T12:38:18Z</time></trkpt><trkpt lat="43.05215938291123" lon="11.75292854827669"><ele>628.0</ele><time>2026-05-02T12:38:19Z</time></trkpt><trkpt lat="43.05201790089987" lon="11.753103369017387"><ele>629.0</ele><time>2026-05-02T12:38:20Z</time></trkpt><trkpt lat="43.05190269019095" lon="11.753304625231015"><ele>629.0</ele><time>2026-05-02T12:38:21Z</time></trkpt><trkpt lat="43.05182824278983" lon="11.753522104999938"><ele>629.0</ele><time>2026-05-02T12:38:22Z</time></trkpt><trkpt lat="43.05178629259024" lon="11.753774871974098"><ele>629.0</ele><time>2026-05-02T12:38:23Z</time></trkpt><trkpt lat="43.051736421985325" lon="11.75402772428685"><ele>633.0</ele><time>2026-05-02T12:38:24Z</time></trkpt><trkpt lat="43.05166604668956" lon="11.754252415206336"><ele>637.0</ele><time>2026-05-02T12:38:24.999Z</time></trkpt><trkpt lat="43.05159111383493" lon="11.754443123433084"><ele>641.0</ele><time>2026-05-02T12:38:25.999Z</time></trkpt><trkpt lat="43.05153719931244" lon="11.754622660542859"><ele>641.0</ele><time>2026-05-02T12:38:26.999Z</time></trkpt><trkpt lat="43.051522744929485" lon="11.754805440968552"><ele>641.0</ele><time>2026-05-02T12:38:27.999Z</time></trkpt><trkpt lat="43.051560865315395" lon="11.754984923295199"><ele>641.0</ele><time>2026-05-02T12:38:28.999Z</time></trkpt><trkpt lat="43.05159509627874" lon="11.75516221009687"><ele>641.0</ele><time>2026-05-02T12:38:29.999Z</time></trkpt><trkpt lat="43.05158912794179" lon="11.755330480194552"><ele>644.0</ele><time>2026-05-02T12:38:30.999Z</time></trkpt><trkpt lat="43.05155783434451" lon="11.755481228562978"><ele>647.0</ele><time>2026-05-02T12:38:31.999Z</time></trkpt><trkpt lat="43.051486432139804" lon="11.755609498968578"><ele>650.0</ele><time>2026-05-02T12:38:32.999Z</time></trkpt><trkpt lat="43.05145715297409" lon="11.755749431353486"><ele>653.0</ele><time>2026-05-02T12:38:33.999Z</time></trkpt><trkpt lat="43.051285091517634" lon="11.755846022902494"><ele>653.0</ele><time>2026-05-02T12:38:34.999Z</time></trkpt><trkpt lat="43.05116764558524" lon="11.755962362961766"><ele>653.0</ele><time>2026-05-02T12:38:35.999Z</time></trkpt><trkpt lat="43.051039969272516" lon="11.75607140599346"><ele>653.0</ele><time>2026-05-02T12:38:36.999Z</time></trkpt><trkpt lat="43.05092136662307" lon="11.756181677060523"><ele>653.0</ele><time>2026-05-02T12:38:37.999Z</time></trkpt><trkpt lat="43.05081353919573" lon="11.756314545135828"><ele>652.0</ele><time>2026-05-02T12:38:38.999Z</time></trkpt><trkpt lat="43.05072045919289" lon="11.756475398337026"><ele>651.0</ele><time>2026-05-02T12:38:39.999Z</time></trkpt><trkpt lat="43.05063374214622" lon="11.756655691185745"><ele>650.0</ele><time>2026-05-02T12:38:40.999Z</time></trkpt><trkpt lat="43.050556308271204" lon="11.756835673942643"><ele>656.0</ele><time>2026-05-02T12:38:41.999Z</time></trkpt><trkpt lat="43.050505869507866" lon="11.757032693316887"><ele>662.0</ele><time>2026-05-02T12:38:42.999Z</time></trkpt><trkpt lat="43.05048099277068" lon="11.757248124309319"><ele>668.0</ele><time>2026-05-02T12:38:43.999Z</time></trkpt><trkpt lat="43.05045388786657" lon="11.757454372051667"><ele>668.0</ele><time>2026-05-02T12:38:44.999Z</time></trkpt><trkpt lat="43.05040211894908" lon="11.757631735342011"><ele>668.0</ele><time>2026-05-02T12:38:45.999Z</time></trkpt><trkpt lat="43.05035608652687" lon="11.757797567355862"><ele>668.0</ele><time>2026-05-02T12:38:46.999Z</time></trkpt><trkpt lat="43.05034011896317" lon="11.757972927079889"><ele>668.0</ele><time>2026-05-02T12:38:47.999Z</time></trkpt><trkpt lat="43.05035276165287" lon="11.75816661889921"><ele>670.6666666666666</ele><time>2026-05-02T12:38:48.999Z</time></trkpt><trkpt lat="43.05034287935443" lon="11.758374581100508"><ele>673.3333333333334</ele><time>2026-05-02T12:38:49.999Z</time></trkpt><trkpt lat="43.05029122136961" lon="11.758600425532727"><ele>676.0</ele><time>2026-05-02T12:38:50.999Z</time></trkpt><trkpt lat="43.05023676239622" lon="11.758822990588602"><ele>676.0</ele><time>2026-05-02T12:38:51.999Z</time></trkpt><trkpt lat="43.05019894796712" lon="11.759047194475144"><ele>676.0</ele><time>2026-05-02T12:38:52.999Z</time></trkpt><trkpt lat="43.05017930614994" lon="11.759282287297202"><ele>676.0</ele><time>2026-05-02T12:38:53.999Z</time></trkpt><trkpt lat="43.05017164410764" lon="11.759511847459015"><ele>675.25</ele><time>2026-05-02T12:38:54.999Z</time></trkpt><trkpt lat="43.05018072365595" lon="11.759728987591489"><ele>674.5</ele><time>2026-05-02T12:38:55.999Z</time></trkpt><trkpt lat="43.050212243164346" lon="11.759926032135851"><ele>673.75</ele><time>2026-05-02T12:38:56.999Z</time></trkpt><trkpt lat="43.0502669835892" lon="11.760094407367566"><ele>673.0</ele><time>2026-05-02T12:38:57.999Z</time></trkpt><trkpt lat="43.05033125270334" lon="11.760240958930163"><ele>671.4</ele><time>2026-05-02T12:38:58.999Z</time></trkpt><trkpt lat="43.0503729678421" lon="11.760372927585827"><ele>669.8</ele><time>2026-05-02T12:38:59.999Z</time></trkpt><trkpt lat="43.05036109511438" lon="11.760498256629372"><ele>668.2</ele><time>2026-05-02T12:39:00.999Z</time></trkpt><trkpt lat="43.05029895556953" lon="11.760594840928153"><ele>666.6</ele><time>2026-05-02T12:39:01.999Z</time></trkpt><trkpt lat="43.05020044829884" lon="11.76063457697868"><ele>665.0</ele><time>2026-05-02T12:39:02.999Z</time></trkpt><trkpt lat="43.050077546512675" lon="11.760617088727209"><ele>665.0</ele><time>2026-05-02T12:39:03.999Z</time></trkpt><trkpt lat="43.04996293668927" lon="11.760623413431814"><ele>665.0</ele><time>2026-05-02T12:39:04.999Z</time></trkpt><trkpt lat="43.04985998988427" lon="11.760724139685863"><ele>665.0</ele><time>2026-05-02T12:39:05.999Z</time></trkpt><trkpt lat="43.049784116064956" lon="11.760888300571096"><ele>665.0</ele><time>2026-05-02T12:39:06.999Z</time></trkpt><trkpt lat="43.049753267797605" lon="11.761105382743196"><ele>664.6666666666666</ele><time>2026-05-02T12:39:07.999Z</time></trkpt><trkpt lat="43.04974436355741" lon="11.761370685458806"><ele>664.3333333333334</ele><time>2026-05-02T12:39:08.999Z</time></trkpt><trkpt lat="43.04975715168541" lon="11.761636453502575"><ele>664.0</ele><time>2026-05-02T12:39:09.999Z</time></trkpt><trkpt lat="43.049757824536485" lon="11.761879786435822"><ele>664.0</ele><time>2026-05-02T12:39:10.999Z</time></trkpt><trkpt lat="43.04977184175089" lon="11.762105938385249"><ele>664.0</ele><time>2026-05-02T12:39:11.999Z</time></trkpt><trkpt lat="43.049820164268205" lon="11.762312791318523"><ele>664.0</ele><time>2026-05-02T12:39:12.999Z</time></trkpt><trkpt lat="43.04988415974134" lon="11.762466737023527"><ele>664.0</ele><time>2026-05-02T12:39:13.999Z</time></trkpt><trkpt lat="43.049949723970215" lon="11.762588328844318"><ele>664.0</ele><time>2026-05-02T12:39:14.999Z</time></trkpt><trkpt lat="43.05001858172234" lon="11.762708229585137"><ele>664.0</ele><time>2026-05-02T12:39:15.999Z</time></trkpt><trkpt lat="43.050093087516984" lon="11.762815949798975"><ele>664.0</ele><time>2026-05-02T12:39:16.999Z</time></trkpt><trkpt lat="43.050179960744224" lon="11.763065283877275"><ele>658.3333333333334</ele><time>2026-05-02T12:39:17.999Z</time></trkpt><trkpt lat="43.05027827413372" lon="11.763234368964408"><ele>652.6666666666666</ele><time>2026-05-02T12:39:18.999Z</time></trkpt><trkpt lat="43.050356759295404" lon="11.763441733365783"><ele>647.0</ele><time>2026-05-02T12:39:19.999Z</time></trkpt><trkpt lat="43.0504088814898" lon="11.76366189836277"><ele>645.6666666666666</ele><time>2026-05-02T12:39:20.999Z</time></trkpt><trkpt lat="43.05041927724107" lon="11.763898624507119"><ele>644.3333333333334</ele><time>2026-05-02T12:39:21.999Z</time></trkpt><trkpt lat="43.0504374132681" lon="11.764143236295187"><ele>643.0</ele><time>2026-05-02T12:39:22.999Z</time></trkpt><trkpt lat="43.05046806526738" lon="11.7644132426874"><ele>640.3333333333334</ele><time>2026-05-02T12:39:23.999Z</time></trkpt><trkpt lat="43.05049438115476" lon="11.76470542201874"><ele>637.6666666666666</ele><time>2026-05-02T12:39:24.999Z</time></trkpt><trkpt lat="43.05051830840164" lon="11.765011991460696"><ele>635.0</ele><time>2026-05-02T12:39:25.999Z</time></trkpt><trkpt lat="43.050544164391326" lon="11.765320778108885"><ele>631.5</ele><time>2026-05-02T12:39:26.999Z</time></trkpt><trkpt lat="43.05057402421426" lon="11.765629257050993"><ele>628.0</ele><time>2026-05-02T12:39:27.999Z</time></trkpt><trkpt lat="43.05060565286184" lon="11.765939783482674"><ele>626.0</ele><time>2026-05-02T12:39:28.999Z</time></trkpt><trkpt lat="43.05062901389652" lon="11.766247928239329"><ele>624.0</ele><time>2026-05-02T12:39:29.999Z</time></trkpt><trkpt lat="43.050662321038224" lon="11.766558951198677"><ele>622.0</ele><time>2026-05-02T12:39:30.999Z</time></trkpt><trkpt lat="43.05067426534088" lon="11.76687349882889"><ele>620.0</ele><time>2026-05-02T12:39:31.999Z</time></trkpt><trkpt lat="43.05070129867721" lon="11.767188640258762"><ele>620.0</ele><time>2026-05-02T12:39:32.999Z</time></trkpt><trkpt lat="43.050727599807615" lon="11.767497714577775"><ele>620.0</ele><time>2026-05-02T12:39:33.999Z</time></trkpt><trkpt lat="43.050751433564365" lon="11.767787209891248"><ele>620.0</ele><time>2026-05-02T12:39:34.999Z</time></trkpt><trkpt lat="43.050774434346316" lon="11.768064678799352"><ele>620.6666666666666</ele><time>2026-05-02T12:39:36Z</time></trkpt><trkpt lat="43.05079718763671" lon="11.76832418361968"><ele>621.3333333333334</ele><time>2026-05-02T12:39:37Z</time></trkpt><trkpt lat="43.05082031528104" lon="11.768587958429329"><ele>622.0</ele><time>2026-05-02T12:39:38Z</time></trkpt><trkpt lat="43.05085921022394" lon="11.76884264754941"><ele>622.0</ele><time>2026-05-02T12:39:39Z</time></trkpt><trkpt lat="43.050868110576715" lon="11.76906703152897"><ele>622.0</ele><time>2026-05-02T12:39:40Z</time></trkpt><trkpt lat="43.05088356830509" lon="11.769280562508031"><ele>622.0</ele><time>2026-05-02T12:39:41Z</time></trkpt><trkpt lat="43.0509019934593" lon="11.7694903985008"><ele>621.75</ele><time>2026-05-02T12:39:42Z</time></trkpt><trkpt lat="43.0509170800883" lon="11.769692767303384"><ele>621.5</ele><time>2026-05-02T12:39:43Z</time></trkpt><trkpt lat="43.05093232534988" lon="11.769881894500466"><ele>621.25</ele><time>2026-05-02T12:39:44Z</time></trkpt><trkpt lat="43.050945204387574" lon="11.770066661484039"><ele>621.0</ele><time>2026-05-02T12:39:45Z</time></trkpt><trkpt lat="43.05095842527628" lon="11.770263058642474"><ele>621.0</ele><time>2026-05-02T12:39:46Z</time></trkpt><trkpt lat="43.05097547148483" lon="11.770456283882163"><ele>621.0</ele><time>2026-05-02T12:39:47Z</time></trkpt><trkpt lat="43.051008216583014" lon="11.770665536493759"><ele>621.0</ele><time>2026-05-02T12:39:48Z</time></trkpt><trkpt lat="43.05107602366391" lon="11.770857058298846"><ele>621.3333333333334</ele><time>2026-05-02T12:39:49Z</time></trkpt><trkpt lat="43.05116541441782" lon="11.77103580218022"><ele>621.6666666666667</ele><time>2026-05-02T12:39:50Z</time></trkpt><trkpt lat="43.05126781475933" lon="11.77120591250629"><ele>622.0</ele><time>2026-05-02T12:39:51Z</time></trkpt><trkpt lat="43.05132198748785" lon="11.77140549777652"><ele>622.0</ele><time>2026-05-02T12:39:52Z</time></trkpt><trkpt lat="43.05136577434563" lon="11.771608996329865"><ele>622.0</ele><time>2026-05-02T12:39:53Z</time></trkpt><trkpt lat="43.05140664556923" lon="11.771813263997746"><ele>622.0</ele><time>2026-05-02T12:39:54Z</time></trkpt><trkpt lat="43.05145589816784" lon="11.7719915449768"><ele>622.0</ele><time>2026-05-02T12:39:55Z</time></trkpt><trkpt lat="43.05148997097257" lon="11.772168425094078"><ele>621.5</ele><time>2026-05-02T12:39:56Z</time></trkpt><trkpt lat="43.05152641936253" lon="11.772343453086497"><ele>621.0</ele><time>2026-05-02T12:39:57Z</time></trkpt><trkpt lat="43.051564301932544" lon="11.772514411734663"><ele>620.5</ele><time>2026-05-02T12:39:58Z</time></trkpt><trkpt lat="43.051597166407646" lon="11.772678273846541"><ele>620.0</ele><time>2026-05-02T12:39:59Z</time></trkpt><trkpt lat="43.051631762363535" lon="11.772851405298386"><ele>620.0</ele><time>2026-05-02T12:40:00Z</time></trkpt><trkpt lat="43.0516574938358" lon="11.77302955838589"><ele>620.0</ele><time>2026-05-02T12:40:01Z</time></trkpt><trkpt lat="43.05168084813379" lon="11.773215623461867"><ele>620.0</ele><time>2026-05-02T12:40:02Z</time></trkpt><trkpt lat="43.05169879270801" lon="11.77340177375814"><ele>620.0</ele><time>2026-05-02T12:40:03Z</time></trkpt><trkpt lat="43.05171835976318" lon="11.77359172012245"><ele>619.25</ele><time>2026-05-02T12:40:04Z</time></trkpt><trkpt lat="43.05173216320662" lon="11.773778039205663"><ele>618.5</ele><time>2026-05-02T12:40:05Z</time></trkpt><trkpt lat="43.05174723630745" lon="11.773968528464714"><ele>617.75</ele><time>2026-05-02T12:40:06Z</time></trkpt><trkpt lat="43.05176403957091" lon="11.774156666571368"><ele>617.0</ele><time>2026-05-02T12:40:07Z</time></trkpt><trkpt lat="43.05178242277133" lon="11.774342306324279"><ele>616.2</ele><time>2026-05-02T12:40:08Z</time></trkpt><trkpt lat="43.05179918335949" lon="11.77451216855053"><ele>615.4000000000001</ele><time>2026-05-02T12:40:09Z</time></trkpt><trkpt lat="43.05180765008498" lon="11.77466679375815"><ele>614.5999999999999</ele><time>2026-05-02T12:40:10Z</time></trkpt><trkpt lat="43.051818560848304" lon="11.774792817860433"><ele>613.8</ele><time>2026-05-02T12:40:11Z</time></trkpt><trkpt lat="43.051828230737996" lon="11.774891823785328"><ele>613.0</ele><time>2026-05-02T12:40:12Z</time></trkpt><trkpt lat="43.05183730223942" lon="11.775008250584916"><ele>613.0</ele><time>2026-05-02T12:40:14Z</time></trkpt><trkpt lat="43.051852678737575" lon="11.775110534223964"><ele>613.0</ele><time>2026-05-02T12:40:17Z</time></trkpt><trkpt lat="43.051853876902975" lon="11.775202198834052"><ele>613.0</ele><time>2026-05-02T12:40:19Z</time></trkpt><trkpt lat="43.052017750517344" lon="11.775221456547142"><ele>613.0</ele><time>2026-05-02T12:40:20Z</time></trkpt><trkpt lat="43.05211453423978" lon="11.775245862346504"><ele>613.0</ele><time>2026-05-02T12:40:21Z</time></trkpt><trkpt lat="43.05221976376833" lon="11.775278067191087"><ele>612.8</ele><time>2026-05-02T12:40:22Z</time></trkpt><trkpt lat="43.05232701119793" lon="11.775316033006211"><ele>612.5999999999999</ele><time>2026-05-02T12:40:23Z</time></trkpt><trkpt lat="43.052436958540135" lon="11.7753699419427"><ele>612.4000000000001</ele><time>2026-05-02T12:40:24Z</time></trkpt><trkpt lat="43.05253348779933" lon="11.775429035576432"><ele>612.2</ele><time>2026-05-02T12:40:25Z</time></trkpt><trkpt lat="43.05261094510277" lon="11.77549476993022"><ele>612.0</ele><time>2026-05-02T12:40:26Z</time></trkpt><trkpt lat="43.05266911104274" lon="11.775550978431024"><ele>612.0</ele><time>2026-05-02T12:40:27Z</time></trkpt><trkpt lat="43.052746395186816" lon="11.775655010725236"><ele>612.0</ele><time>2026-05-02T12:40:29Z</time></trkpt><trkpt lat="43.0528193839109" lon="11.775739451591225"><ele>612.0</ele><time>2026-05-02T12:40:31Z</time></trkpt><trkpt lat="43.05288297803297" lon="11.775808664638545"><ele>612.0</ele><time>2026-05-02T12:40:33Z</time></trkpt><trkpt lat="43.052937977023376" lon="11.775868523458046"><ele>612.0</ele><time>2026-05-02T12:40:35Z</time></trkpt><trkpt lat="43.05301834265277" lon="11.77594960776557"><ele>612.0</ele><time>2026-05-02T12:40:37Z</time></trkpt><trkpt lat="43.05307169208825" lon="11.776006362293044"><ele>612.0</ele><time>2026-05-02T12:40:38Z</time></trkpt><trkpt lat="43.053129860463144" lon="11.776063944881205"><ele>612.0</ele><time>2026-05-02T12:40:39Z</time></trkpt><trkpt lat="43.05319634068976" lon="11.77613472846061"><ele>612.0</ele><time>2026-05-02T12:40:40Z</time></trkpt><trkpt lat="43.05326896043449" lon="11.776215453761061"><ele>612.0</ele><time>2026-05-02T12:40:41Z</time></trkpt><trkpt lat="43.05335185656031" lon="11.776302033229134"><ele>612.0</ele><time>2026-05-02T12:40:42Z</time></trkpt><trkpt lat="43.05344235856166" lon="11.776398216612515"><ele>612.25</ele><time>2026-05-02T12:40:43Z</time></trkpt><trkpt lat="43.05354087859124" lon="11.776506795289096"><ele>612.5</ele><time>2026-05-02T12:40:44Z</time></trkpt><trkpt lat="43.05363778070543" lon="11.7766417853942"><ele>612.75</ele><time>2026-05-02T12:40:45Z</time></trkpt><trkpt lat="43.053754961732025" lon="11.77673908782829"><ele>613.0</ele><time>2026-05-02T12:40:46Z</time></trkpt><trkpt lat="43.05385724031676" lon="11.776859914779324"><ele>613.0</ele><time>2026-05-02T12:40:47Z</time></trkpt><trkpt lat="43.05394596424617" lon="11.777006580147038"><ele>613.0</ele><time>2026-05-02T12:40:48Z</time></trkpt><trkpt lat="43.05402362223754" lon="11.777158585000967"><ele>613.0</ele><time>2026-05-02T12:40:49Z</time></trkpt><trkpt lat="43.05405412476451" lon="11.777341313969574"><ele>613.0</ele><time>2026-05-02T12:40:50Z</time></trkpt><trkpt lat="43.05405916656605" lon="11.777529089780613"><ele>614.0</ele><time>2026-05-02T12:40:50.999Z</time></trkpt><trkpt lat="43.054042377335925" lon="11.777724983296986"><ele>615.0</ele><time>2026-05-02T12:40:51.999Z</time></trkpt><trkpt lat="43.054026139834065" lon="11.777932626857844"><ele>616.0</ele><time>2026-05-02T12:40:52.999Z</time></trkpt><trkpt lat="43.05398347013565" lon="11.778154015311847"><ele>616.0</ele><time>2026-05-02T12:40:53.999Z</time></trkpt><trkpt lat="43.0539451735002" lon="11.7783793423447"><ele>616.0</ele><time>2026-05-02T12:40:54.999Z</time></trkpt><trkpt lat="43.053906127796715" lon="11.778599826461816"><ele>616.0</ele><time>2026-05-02T12:40:55.999Z</time></trkpt><trkpt lat="43.05387182850125" lon="11.778811897840631"><ele>617.0</ele><time>2026-05-02T12:40:56.999Z</time></trkpt><trkpt lat="43.053860575718915" lon="11.77902153798587"><ele>618.0</ele><time>2026-05-02T12:40:57.999Z</time></trkpt><trkpt lat="43.05386872147035" lon="11.779236201896147"><ele>619.0</ele><time>2026-05-02T12:40:58.999Z</time></trkpt><trkpt lat="43.053884037021945" lon="11.779449249220793"><ele>619.0</ele><time>2026-05-02T12:40:59.999Z</time></trkpt><trkpt lat="43.05390797222997" lon="11.779656640992416"><ele>619.0</ele><time>2026-05-02T12:41:00.999Z</time></trkpt><trkpt lat="43.053933344413565" lon="11.779874834088483"><ele>619.0</ele><time>2026-05-02T12:41:01.999Z</time></trkpt><trkpt lat="43.053958385910384" lon="11.780098351378836"><ele>619.3333333333334</ele><time>2026-05-02T12:41:02.999Z</time></trkpt><trkpt lat="43.05398193571812" lon="11.780328434551729"><ele>619.6666666666666</ele><time>2026-05-02T12:41:03.999Z</time></trkpt><trkpt lat="43.05400590571" lon="11.780554736523998"><ele>620.0</ele><time>2026-05-02T12:41:04.999Z</time></trkpt><trkpt lat="43.0540315059216" lon="11.780781770686573"><ele>620.0</ele><time>2026-05-02T12:41:05.999Z</time></trkpt><trkpt lat="43.054060755424814" lon="11.781004151039593"><ele>620.0</ele><time>2026-05-02T12:41:06.999Z</time></trkpt><trkpt lat="43.05408797441372" lon="11.781228976586908"><ele>620.0</ele><time>2026-05-02T12:41:07.999Z</time></trkpt><trkpt lat="43.054116456569254" lon="11.781434268489164"><ele>621.5</ele><time>2026-05-02T12:41:08.999Z</time></trkpt><trkpt lat="43.05415287356443" lon="11.781628098978194"><ele>623.0</ele><time>2026-05-02T12:41:09.999Z</time></trkpt><trkpt lat="43.0542212204764" lon="11.781808386315097"><ele>624.5</ele><time>2026-05-02T12:41:10.999Z</time></trkpt><trkpt lat="43.05431380445423" lon="11.781974368176455"><ele>626.0</ele><time>2026-05-02T12:41:11.999Z</time></trkpt><trkpt lat="43.05443031087396" lon="11.782127693590555"><ele>626.0</ele><time>2026-05-02T12:41:12.999Z</time></trkpt><trkpt lat="43.054550518726295" lon="11.782271475379632"><ele>626.0</ele><time>2026-05-02T12:41:13.999Z</time></trkpt><trkpt lat="43.05468075303091" lon="11.782398093495713"><ele>626.0</ele><time>2026-05-02T12:41:14.999Z</time></trkpt><trkpt lat="43.054833873677936" lon="11.782498607348673"><ele>625.0</ele><time>2026-05-02T12:41:15.999Z</time></trkpt><trkpt lat="43.055001369635704" lon="11.78257344720929"><ele>624.0</ele><time>2026-05-02T12:41:16.999Z</time></trkpt><trkpt lat="43.055180798419244" lon="11.782634494257426"><ele>623.0</ele><time>2026-05-02T12:41:17.999Z</time></trkpt><trkpt lat="43.05536193084959" lon="11.78270499626308"><ele>623.0</ele><time>2026-05-02T12:41:18.999Z</time></trkpt><trkpt lat="43.05554781641418" lon="11.78278329342366"><ele>623.0</ele><time>2026-05-02T12:41:19.999Z</time></trkpt><trkpt lat="43.055738860747496" lon="11.78286813017694"><ele>623.0</ele><time>2026-05-02T12:41:20.999Z</time></trkpt><trkpt lat="43.05593905601179" lon="11.782953738305878"><ele>621.6666666666666</ele><time>2026-05-02T12:41:21.999Z</time></trkpt><trkpt lat="43.056138565267474" lon="11.783038661396464"><ele>620.3333333333334</ele><time>2026-05-02T12:41:22.999Z</time></trkpt><trkpt lat="43.05634105361905" lon="11.783126329105576"><ele>619.0</ele><time>2026-05-02T12:41:23.999Z</time></trkpt><trkpt lat="43.05655070988972" lon="11.783217181061696"><ele>617.3333333333334</ele><time>2026-05-02T12:41:24.999Z</time></trkpt><trkpt lat="43.05676035432724" lon="11.783307989235086"><ele>615.6666666666666</ele><time>2026-05-02T12:41:25.999Z</time></trkpt><trkpt lat="43.05697214385212" lon="11.783396501132351"><ele>614.0</ele><time>2026-05-02T12:41:26.999Z</time></trkpt><trkpt lat="43.05718246420937" lon="11.783486175413271"><ele>616.6666666666666</ele><time>2026-05-02T12:41:27.999Z</time></trkpt><trkpt lat="43.05739516761315" lon="11.783574664544762"><ele>619.3333333333334</ele><time>2026-05-02T12:41:28.999Z</time></trkpt><trkpt lat="43.057608123691494" lon="11.783665066775354"><ele>622.0</ele><time>2026-05-02T12:41:29.999Z</time></trkpt><trkpt lat="43.05782661149684" lon="11.783758050101124"><ele>613.5</ele><time>2026-05-02T12:41:30.999Z</time></trkpt><trkpt lat="43.0580441735274" lon="11.78385302366"><ele>605.0</ele><time>2026-05-02T12:41:31.999Z</time></trkpt><trkpt lat="43.05826380547427" lon="11.783947799058435"><ele>602.0</ele><time>2026-05-02T12:41:32.999Z</time></trkpt><trkpt lat="43.05848299355365" lon="11.784042750385005"><ele>599.0</ele><time>2026-05-02T12:41:33.999Z</time></trkpt><trkpt lat="43.05870370040725" lon="11.784137692751077"><ele>599.0</ele><time>2026-05-02T12:41:34.999Z</time></trkpt><trkpt lat="43.05892480014637" lon="11.784231266527556"><ele>599.0</ele><time>2026-05-02T12:41:35.999Z</time></trkpt><trkpt lat="43.05914525511002" lon="11.784325055514518"><ele>597.0</ele><time>2026-05-02T12:41:36.999Z</time></trkpt><trkpt lat="43.05936515304112" lon="11.784422233699928"><ele>595.0</ele><time>2026-05-02T12:41:37.999Z</time></trkpt><trkpt lat="43.05958218057291" lon="11.784519229189376"><ele>595.0</ele><time>2026-05-02T12:41:38.999Z</time></trkpt><trkpt lat="43.05979589101347" lon="11.784612883914484"><ele>595.0</ele><time>2026-05-02T12:41:39.999Z</time></trkpt><trkpt lat="43.06000423457665" lon="11.784688377899347"><ele>595.0</ele><time>2026-05-02T12:41:40.999Z</time></trkpt><trkpt lat="43.06021395042419" lon="11.784719276492885"><ele>594.6666666666667</ele><time>2026-05-02T12:41:42Z</time></trkpt><trkpt lat="43.06042322125302" lon="11.784701353149885"><ele>594.3333333333334</ele><time>2026-05-02T12:41:43Z</time></trkpt><trkpt lat="43.060631206927255" lon="11.784639642266267"><ele>594.0</ele><time>2026-05-02T12:41:44Z</time></trkpt><trkpt lat="43.06082576232985" lon="11.784535594944886"><ele>594.0</ele><time>2026-05-02T12:41:45Z</time></trkpt><trkpt lat="43.06101241422147" lon="11.78444164003989"><ele>594.0</ele><time>2026-05-02T12:41:46Z</time></trkpt><trkpt lat="43.061209773730745" lon="11.78442755577848"><ele>594.0</ele><time>2026-05-02T12:41:47Z</time></trkpt><trkpt lat="43.0614172208498" lon="11.784406804665627"><ele>594.3333333333334</ele><time>2026-05-02T12:41:48Z</time></trkpt><trkpt lat="43.06163353625823" lon="11.78436918718385"><ele>594.6666666666667</ele><time>2026-05-02T12:41:49Z</time></trkpt><trkpt lat="43.06185508628911" lon="11.784349827126391"><ele>595.0</ele><time>2026-05-02T12:41:50Z</time></trkpt><trkpt lat="43.06208077009021" lon="11.78432512903133"><ele>589.0</ele><time>2026-05-02T12:41:51Z</time></trkpt><trkpt lat="43.062305057935234" lon="11.78429942333338"><ele>583.0</ele><time>2026-05-02T12:41:52Z</time></trkpt><trkpt lat="43.062537530385875" lon="11.784297776056508"><ele>583.0</ele><time>2026-05-02T12:41:53Z</time></trkpt><trkpt lat="43.06276159135853" lon="11.784276753087461"><ele>583.0</ele><time>2026-05-02T12:41:54Z</time></trkpt><trkpt lat="43.06299388048385" lon="11.784254958015996"><ele>583.0</ele><time>2026-05-02T12:41:55Z</time></trkpt><trkpt lat="43.063201292162866" lon="11.784236024215438"><ele>583.0</ele><time>2026-05-02T12:41:56Z</time></trkpt><trkpt lat="43.063424254978656" lon="11.784207557355701"><ele>583.0</ele><time>2026-05-02T12:41:57Z</time></trkpt><trkpt lat="43.06364966399224" lon="11.78418457387859"><ele>584.0</ele><time>2026-05-02T12:41:58Z</time></trkpt><trkpt lat="43.063886772146965" lon="11.784158498624986"><ele>585.0</ele><time>2026-05-02T12:41:59Z</time></trkpt><trkpt lat="43.06412180678366" lon="11.784140779099154"><ele>582.5</ele><time>2026-05-02T12:42:00Z</time></trkpt><trkpt lat="43.06436193439908" lon="11.78411917337456"><ele>580.0</ele><time>2026-05-02T12:42:01Z</time></trkpt><trkpt lat="43.06460281900926" lon="11.784098227942911"><ele>580.0</ele><time>2026-05-02T12:42:02Z</time></trkpt><trkpt lat="43.0648438893711" lon="11.784077979469485"><ele>580.0</ele><time>2026-05-02T12:42:03Z</time></trkpt><trkpt lat="43.06508245263736" lon="11.784059536976965"><ele>577.5</ele><time>2026-05-02T12:42:04Z</time></trkpt><trkpt lat="43.06531763355432" lon="11.784037436644086"><ele>575.0</ele><time>2026-05-02T12:42:05Z</time></trkpt><trkpt lat="43.065543417248975" lon="11.784018839841691"><ele>575.0</ele><time>2026-05-02T12:42:06Z</time></trkpt><trkpt lat="43.06575819650343" lon="11.784004005496385"><ele>575.0</ele><time>2026-05-02T12:42:07Z</time></trkpt><trkpt lat="43.065962435087066" lon="11.784000632838008"><ele>575.0</ele><time>2026-05-02T12:42:08Z</time></trkpt><trkpt lat="43.06615247584064" lon="11.783966705181118"><ele>575.0</ele><time>2026-05-02T12:42:09Z</time></trkpt><trkpt lat="43.066323070165616" lon="11.783870208576937"><ele>575.0</ele><time>2026-05-02T12:42:10Z</time></trkpt><trkpt lat="43.06648741125287" lon="11.783723000773682"><ele>575.0</ele><time>2026-05-02T12:42:11Z</time></trkpt><trkpt lat="43.06664243240538" lon="11.783558875722118"><ele>575.0</ele><time>2026-05-02T12:42:12Z</time></trkpt><trkpt lat="43.066795517472514" lon="11.783393948692147"><ele>575.0</ele><time>2026-05-02T12:42:13Z</time></trkpt><trkpt lat="43.066950202615644" lon="11.783257110644353"><ele>575.0</ele><time>2026-05-02T12:42:14Z</time></trkpt><trkpt lat="43.06710826742205" lon="11.783192326337124"><ele>575.0</ele><time>2026-05-02T12:42:15Z</time></trkpt><trkpt lat="43.06727964721139" lon="11.783152576892595"><ele>575.0</ele><time>2026-05-02T12:42:16Z</time></trkpt><trkpt lat="43.06746035949732" lon="11.783129497861637"><ele>575.0</ele><time>2026-05-02T12:42:17Z</time></trkpt><trkpt lat="43.067652770956904" lon="11.783101569204389"><ele>577.3333333333333</ele><time>2026-05-02T12:42:18Z</time></trkpt><trkpt lat="43.06784443817089" lon="11.783058749269578"><ele>579.6666666666666</ele><time>2026-05-02T12:42:19Z</time></trkpt><trkpt lat="43.06804040973641" lon="11.783030444604506"><ele>582.0</ele><time>2026-05-02T12:42:20Z</time></trkpt><trkpt lat="43.068230146862874" lon="11.782999516003022"><ele>582.6666666666666</ele><time>2026-05-02T12:42:21Z</time></trkpt><trkpt lat="43.06841240203384" lon="11.78296447024501"><ele>583.3333333333333</ele><time>2026-05-02T12:42:22Z</time></trkpt><trkpt lat="43.0685934604864" lon="11.78293022014478"><ele>584.0</ele><time>2026-05-02T12:42:23Z</time></trkpt><trkpt lat="43.068777826001416" lon="11.782885611123085"><ele>584.0</ele><time>2026-05-02T12:42:24Z</time></trkpt><trkpt lat="43.068974891044896" lon="11.782836567464678"><ele>584.0</ele><time>2026-05-02T12:42:25Z</time></trkpt><trkpt lat="43.06917656649584" lon="11.78279395502028"><ele>584.0</ele><time>2026-05-02T12:42:26Z</time></trkpt><trkpt lat="43.069382610290035" lon="11.782743341601625"><ele>581.0</ele><time>2026-05-02T12:42:27Z</time></trkpt><trkpt lat="43.06958745749564" lon="11.782688718815661"><ele>578.0</ele><time>2026-05-02T12:42:28Z</time></trkpt><trkpt lat="43.06979717539947" lon="11.782628264172464"><ele>575.0</ele><time>2026-05-02T12:42:29Z</time></trkpt><trkpt lat="43.07000277536368" lon="11.782564084490632"><ele>573.6666666666666</ele><time>2026-05-02T12:42:30Z</time></trkpt><trkpt lat="43.07020174531605" lon="11.782501996358784"><ele>572.3333333333334</ele><time>2026-05-02T12:42:31Z</time></trkpt><trkpt lat="43.07039749824973" lon="11.782440085531402"><ele>571.0</ele><time>2026-05-02T12:42:32Z</time></trkpt><trkpt lat="43.07059904087241" lon="11.782410027063326"><ele>572.0</ele><time>2026-05-02T12:42:33Z</time></trkpt><trkpt lat="43.07079594063668" lon="11.782432552482407"><ele>573.0</ele><time>2026-05-02T12:42:34Z</time></trkpt><trkpt lat="43.070976500109076" lon="11.782520911967866"><ele>574.0</ele><time>2026-05-02T12:42:35Z</time></trkpt><trkpt lat="43.0711457035428" lon="11.782622310107442"><ele>574.0</ele><time>2026-05-02T12:42:36Z</time></trkpt><trkpt lat="43.07130683684272" lon="11.7826814669855"><ele>574.0</ele><time>2026-05-02T12:42:37Z</time></trkpt><trkpt lat="43.071480551810495" lon="11.782676574778561"><ele>574.0</ele><time>2026-05-02T12:42:38Z</time></trkpt><trkpt lat="43.07166258457446" lon="11.782619234575582"><ele>575.0</ele><time>2026-05-02T12:42:39Z</time></trkpt><trkpt lat="43.071847028173494" lon="11.782525048354351"><ele>576.0</ele><time>2026-05-02T12:42:40Z</time></trkpt><trkpt lat="43.07203472441685" lon="11.782428683518477"><ele>577.0</ele><time>2026-05-02T12:42:41Z</time></trkpt><trkpt lat="43.072223320982935" lon="11.782344949638226"><ele>577.0</ele><time>2026-05-02T12:42:42Z</time></trkpt><trkpt lat="43.07241587131294" lon="11.782308942626289"><ele>577.0</ele><time>2026-05-02T12:42:43Z</time></trkpt><trkpt lat="43.072608629874345" lon="11.782342106764535"><ele>577.0</ele><time>2026-05-02T12:42:44Z</time></trkpt><trkpt lat="43.07279101663827" lon="11.782449988311487"><ele>577.6666666666667</ele><time>2026-05-02T12:42:45Z</time></trkpt><trkpt lat="43.07296132299618" lon="11.782590012833259"><ele>578.3333333333334</ele><time>2026-05-02T12:42:46Z</time></trkpt><trkpt lat="43.07311569538043" lon="11.782768059688213"><ele>579.0</ele><time>2026-05-02T12:42:47Z</time></trkpt><trkpt lat="43.07326449653611" lon="11.782958959694337"><ele>576.3333333333334</ele><time>2026-05-02T12:42:48Z</time></trkpt><trkpt lat="43.07340792669167" lon="11.783169237680458"><ele>573.6666666666667</ele><time>2026-05-02T12:42:49Z</time></trkpt><trkpt lat="43.07353849514907" lon="11.783399065368778"><ele>571.0</ele><time>2026-05-02T12:42:50Z</time></trkpt><trkpt lat="43.07366060686975" lon="11.783629491705572"><ele>566.3333333333334</ele><time>2026-05-02T12:42:51Z</time></trkpt><trkpt lat="43.07376867952797" lon="11.78388453143868"><ele>561.6666666666666</ele><time>2026-05-02T12:42:51.999Z</time></trkpt><trkpt lat="43.07386893296401" lon="11.78413958972008"><ele>557.0</ele><time>2026-05-02T12:42:52.999Z</time></trkpt><trkpt lat="43.07396054060564" lon="11.784398315522804"><ele>554.0</ele><time>2026-05-02T12:42:53.999Z</time></trkpt><trkpt lat="43.07405060986468" lon="11.784653012941535"><ele>551.0</ele><time>2026-05-02T12:42:54.999Z</time></trkpt><trkpt lat="43.074134595892936" lon="11.784905300739677"><ele>548.0</ele><time>2026-05-02T12:42:55.999Z</time></trkpt><trkpt lat="43.074203660219" lon="11.78515597370845"><ele>551.0</ele><time>2026-05-02T12:42:56.999Z</time></trkpt><trkpt lat="43.074255352843906" lon="11.785401719302545"><ele>554.0</ele><time>2026-05-02T12:42:57.999Z</time></trkpt><trkpt lat="43.074307726266824" lon="11.785640532491511"><ele>557.0</ele><time>2026-05-02T12:42:58.999Z</time></trkpt><trkpt lat="43.074370681427176" lon="11.785866077221062"><ele>554.3333333333333</ele><time>2026-05-02T12:42:59.999Z</time></trkpt><trkpt lat="43.0744487806217" lon="11.786078961259323"><ele>551.6666666666666</ele><time>2026-05-02T12:43:00.999Z</time></trkpt><trkpt lat="43.074525999634425" lon="11.786279233111717"><ele>549.0</ele><time>2026-05-02T12:43:01.999Z</time></trkpt><trkpt lat="43.074603475793616" lon="11.786460898241614"><ele>549.0</ele><time>2026-05-02T12:43:02.999Z</time></trkpt><trkpt lat="43.07468195495376" lon="11.786616831126146"><ele>549.0</ele><time>2026-05-02T12:43:03.999Z</time></trkpt><trkpt lat="43.07476107894664" lon="11.786750003945961"><ele>549.0</ele><time>2026-05-02T12:43:04.999Z</time></trkpt><trkpt lat="43.07483543612093" lon="11.786871785319205"><ele>549.0</ele><time>2026-05-02T12:43:05.999Z</time></trkpt><trkpt lat="43.07489868299985" lon="11.786981132636331"><ele>550.4</ele><time>2026-05-02T12:43:06.999Z</time></trkpt><trkpt lat="43.0749568249942" lon="11.787074193373538"><ele>551.8</ele><time>2026-05-02T12:43:07.999Z</time></trkpt><trkpt lat="43.07501936806921" lon="11.787172218551818"><ele>553.2</ele><time>2026-05-02T12:43:09.999Z</time></trkpt><trkpt lat="43.07513907042483" lon="11.78720014393909"><ele>554.6</ele><time>2026-05-02T12:43:12.999Z</time></trkpt><trkpt lat="43.07523884223947" lon="11.787167073480497"><ele>556.0</ele><time>2026-05-02T12:43:13.999Z</time></trkpt><trkpt lat="43.0753339320989" lon="11.787111175646489"><ele>556.0</ele><time>2026-05-02T12:43:14.999Z</time></trkpt><trkpt lat="43.07542778323917" lon="11.787026979867232"><ele>556.0</ele><time>2026-05-02T12:43:15.999Z</time></trkpt><trkpt lat="43.07551243419286" lon="11.786908937506315"><ele>556.0</ele><time>2026-05-02T12:43:16.999Z</time></trkpt><trkpt lat="43.075589956104785" lon="11.786755901759202"><ele>556.0</ele><time>2026-05-02T12:43:17.999Z</time></trkpt><trkpt lat="43.075667357567454" lon="11.786577737632756"><ele>555.3333333333334</ele><time>2026-05-02T12:43:18.999Z</time></trkpt><trkpt lat="43.075753966178304" lon="11.786399591032355"><ele>554.6666666666666</ele><time>2026-05-02T12:43:19.999Z</time></trkpt><trkpt lat="43.075851029745266" lon="11.786236638435083"><ele>554.0</ele><time>2026-05-02T12:43:20.999Z</time></trkpt><trkpt lat="43.075948890339845" lon="11.786062707629355"><ele>559.6666666666666</ele><time>2026-05-02T12:43:21.999Z</time></trkpt><trkpt lat="43.07604611556442" lon="11.785882161552415"><ele>565.3333333333334</ele><time>2026-05-02T12:43:22.999Z</time></trkpt><trkpt lat="43.07614356363878" lon="11.785703285950452"><ele>571.0</ele><time>2026-05-02T12:43:23.999Z</time></trkpt><trkpt lat="43.076233594210244" lon="11.785527547938944"><ele>571.0</ele><time>2026-05-02T12:43:24.999Z</time></trkpt><trkpt lat="43.07631170285263" lon="11.785338845548017"><ele>571.0</ele><time>2026-05-02T12:43:25.999Z</time></trkpt><trkpt lat="43.076381506786426" lon="11.785134072209823"><ele>571.0</ele><time>2026-05-02T12:43:26.999Z</time></trkpt><trkpt lat="43.076444061006754" lon="11.784920546340445"><ele>567.3333333333334</ele><time>2026-05-02T12:43:27.999Z</time></trkpt><trkpt lat="43.076505050142764" lon="11.784706942215717"><ele>563.6666666666666</ele><time>2026-05-02T12:43:28.999Z</time></trkpt><trkpt lat="43.07657568301478" lon="11.78448821566305"><ele>560.0</ele><time>2026-05-02T12:43:29.999Z</time></trkpt><trkpt lat="43.076659017329256" lon="11.784271366813464"><ele>560.0</ele><time>2026-05-02T12:43:30.999Z</time></trkpt><trkpt lat="43.07676413257096" lon="11.78406036546562"><ele>560.0</ele><time>2026-05-02T12:43:31.999Z</time></trkpt><trkpt lat="43.07687423120928" lon="11.783857250046834"><ele>560.0</ele><time>2026-05-02T12:43:32.999Z</time></trkpt><trkpt lat="43.07699353826268" lon="11.78365912962151"><ele>561.3333333333333</ele><time>2026-05-02T12:43:33.999Z</time></trkpt><trkpt lat="43.07711485903022" lon="11.783462434475911"><ele>562.6666666666666</ele><time>2026-05-02T12:43:34.999Z</time></trkpt><trkpt lat="43.07723306246322" lon="11.783261345746242"><ele>564.0</ele><time>2026-05-02T12:43:35.999Z</time></trkpt><trkpt lat="43.07734973604661" lon="11.783060685446141"><ele>559.3333333333334</ele><time>2026-05-02T12:43:36.999Z</time></trkpt><trkpt lat="43.077467157964534" lon="11.7828687177653"><ele>554.6666666666667</ele><time>2026-05-02T12:43:37.999Z</time></trkpt><trkpt lat="43.07759675140884" lon="11.782691197926619"><ele>550.0</ele><time>2026-05-02T12:43:38.999Z</time></trkpt><trkpt lat="43.07776538306991" lon="11.782587449821953"><ele>550.0</ele><time>2026-05-02T12:43:39.999Z</time></trkpt><trkpt lat="43.07794024390815" lon="11.782481090740596"><ele>550.0</ele><time>2026-05-02T12:43:40.999Z</time></trkpt><trkpt lat="43.07812687301026" lon="11.782427433018517"><ele>550.0</ele><time>2026-05-02T12:43:41.999Z</time></trkpt><trkpt lat="43.0783063896131" lon="11.782365427394026"><ele>547.6666666666667</ele><time>2026-05-02T12:43:42.999Z</time></trkpt><trkpt lat="43.07847656608228" lon="11.782306371659002"><ele>545.3333333333334</ele><time>2026-05-02T12:43:43.999Z</time></trkpt><trkpt lat="43.078644562841625" lon="11.782247438745753"><ele>543.0</ele><time>2026-05-02T12:43:44.999Z</time></trkpt><trkpt lat="43.07881139795309" lon="11.78218612135909"><ele>543.0</ele><time>2026-05-02T12:43:45.999Z</time></trkpt><trkpt lat="43.07897796639412" lon="11.782128441367243"><ele>543.0</ele><time>2026-05-02T12:43:46.999Z</time></trkpt><trkpt lat="43.079138868388306" lon="11.782068259100734"><ele>543.0</ele><time>2026-05-02T12:43:48Z</time></trkpt><trkpt lat="43.079294526701425" lon="11.782008187592425"><ele>544.0</ele><time>2026-05-02T12:43:49Z</time></trkpt><trkpt lat="43.07944686274608" lon="11.781947686216167"><ele>545.0</ele><time>2026-05-02T12:43:50Z</time></trkpt><trkpt lat="43.079594800792634" lon="11.781890514147605"><ele>546.0</ele><time>2026-05-02T12:43:51Z</time></trkpt><trkpt lat="43.07974284528447" lon="11.781834658863618"><ele>546.0</ele><time>2026-05-02T12:43:52Z</time></trkpt><trkpt lat="43.079891865547985" lon="11.781771987374272"><ele>546.0</ele><time>2026-05-02T12:43:53Z</time></trkpt><trkpt lat="43.0800385488128" lon="11.781691585124271"><ele>546.0</ele><time>2026-05-02T12:43:54Z</time></trkpt><trkpt lat="43.08018060968487" lon="11.781576348021495"><ele>543.0</ele><time>2026-05-02T12:43:55Z</time></trkpt><trkpt lat="43.08031135308667" lon="11.781445905581403"><ele>540.0</ele><time>2026-05-02T12:43:56Z</time></trkpt><trkpt lat="43.080438459601424" lon="11.781299906364644"><ele>537.0</ele><time>2026-05-02T12:43:57Z</time></trkpt><trkpt lat="43.08055986877035" lon="11.781162156231916"><ele>537.0</ele><time>2026-05-02T12:43:58Z</time></trkpt><trkpt lat="43.08068023185912" lon="11.781032842868816"><ele>537.0</ele><time>2026-05-02T12:43:59Z</time></trkpt><trkpt lat="43.08080185111545" lon="11.780908140726199"><ele>537.0</ele><time>2026-05-02T12:44:00Z</time></trkpt><trkpt lat="43.08091524959692" lon="11.780793150137933"><ele>537.0</ele><time>2026-05-02T12:44:01Z</time></trkpt><trkpt lat="43.08102579722457" lon="11.780673973043536"><ele>537.25</ele><time>2026-05-02T12:44:02Z</time></trkpt><trkpt lat="43.0811288093183" lon="11.780549465460105"><ele>537.5</ele><time>2026-05-02T12:44:03Z</time></trkpt><trkpt lat="43.08122700954142" lon="11.780427284436428"><ele>537.75</ele><time>2026-05-02T12:44:04Z</time></trkpt><trkpt lat="43.08131464998315" lon="11.780312947214691"><ele>538.0</ele><time>2026-05-02T12:44:05Z</time></trkpt><trkpt lat="43.08138959577583" lon="11.780198207333248"><ele>536.6</ele><time>2026-05-02T12:44:06Z</time></trkpt><trkpt lat="43.08145696038829" lon="11.780087628122446"><ele>535.1999999999999</ele><time>2026-05-02T12:44:07Z</time></trkpt><trkpt lat="43.08152345529547" lon="11.779973040689953"><ele>533.8</ele><time>2026-05-02T12:44:08Z</time></trkpt><trkpt lat="43.081597181843755" lon="11.779852448911983"><ele>532.4</ele><time>2026-05-02T12:44:09Z</time></trkpt><trkpt lat="43.08167870761847" lon="11.779732083518425"><ele>531.0</ele><time>2026-05-02T12:44:10Z</time></trkpt><trkpt lat="43.08176057357818" lon="11.779607799266547"><ele>531.0</ele><time>2026-05-02T12:44:11Z</time></trkpt><trkpt lat="43.08185269039817" lon="11.779491850575045"><ele>531.0</ele><time>2026-05-02T12:44:12Z</time></trkpt><trkpt lat="43.081962676531205" lon="11.779394700282596"><ele>531.0</ele><time>2026-05-02T12:44:13Z</time></trkpt><trkpt lat="43.08207290780727" lon="11.779305305765373"><ele>531.0</ele><time>2026-05-02T12:44:14Z</time></trkpt><trkpt lat="43.082193054527245" lon="11.779227970247431"><ele>531.0</ele><time>2026-05-02T12:44:15Z</time></trkpt><trkpt lat="43.082319901612614" lon="11.779159106510775"><ele>531.0</ele><time>2026-05-02T12:44:16Z</time></trkpt><trkpt lat="43.08245123218024" lon="11.779101135914603"><ele>531.0</ele><time>2026-05-02T12:44:17Z</time></trkpt><trkpt lat="43.08258655980438" lon="11.779057733890813"><ele>531.0</ele><time>2026-05-02T12:44:18Z</time></trkpt><trkpt lat="43.08272683638633" lon="11.779032227584862"><ele>529.5</ele><time>2026-05-02T12:44:19Z</time></trkpt><trkpt lat="43.08287050362099" lon="11.779021118914432"><ele>528.0</ele><time>2026-05-02T12:44:20Z</time></trkpt><trkpt lat="43.083007467499556" lon="11.77902226301598"><ele>526.5</ele><time>2026-05-02T12:44:21Z</time></trkpt><trkpt lat="43.083142139342186" lon="11.779034643522355"><ele>525.0</ele><time>2026-05-02T12:44:22Z</time></trkpt><trkpt lat="43.08328056707651" lon="11.779044651028284"><ele>523.5</ele><time>2026-05-02T12:44:23Z</time></trkpt><trkpt lat="43.08341718017842" lon="11.77905882624947"><ele>522.0</ele><time>2026-05-02T12:44:24Z</time></trkpt><trkpt lat="43.0835573112112" lon="11.779073962311646"><ele>520.5</ele><time>2026-05-02T12:44:25Z</time></trkpt><trkpt lat="43.083694041296944" lon="11.779087737585897"><ele>519.0</ele><time>2026-05-02T12:44:26Z</time></trkpt><trkpt lat="43.08383616045814" lon="11.779077324697093"><ele>519.0</ele><time>2026-05-02T12:44:27Z</time></trkpt><trkpt lat="43.08397239089441" lon="11.779039041081534"><ele>519.0</ele><time>2026-05-02T12:44:28Z</time></trkpt><trkpt lat="43.08410376849957" lon="11.7789659947589"><ele>519.0</ele><time>2026-05-02T12:44:29Z</time></trkpt><trkpt lat="43.08422303043392" lon="11.77885996290197"><ele>519.0</ele><time>2026-05-02T12:44:30Z</time></trkpt><trkpt lat="43.0843383592707" lon="11.778744459493378"><ele>517.25</ele><time>2026-05-02T12:44:31Z</time></trkpt><trkpt lat="43.084451540830756" lon="11.778620087456797"><ele>515.5</ele><time>2026-05-02T12:44:32Z</time></trkpt><trkpt lat="43.0845697894762" lon="11.778493598162333"><ele>513.75</ele><time>2026-05-02T12:44:33Z</time></trkpt><trkpt lat="43.08469382657627" lon="11.778374158025802"><ele>512.0</ele><time>2026-05-02T12:44:34Z</time></trkpt><trkpt lat="43.08481579316603" lon="11.77825110503552"><ele>512.3333333333333</ele><time>2026-05-02T12:44:35Z</time></trkpt><trkpt lat="43.084944683779945" lon="11.778136001841926"><ele>512.6666666666666</ele><time>2026-05-02T12:44:36Z</time></trkpt><trkpt lat="43.08508539746108" lon="11.778035408305476"><ele>513.0</ele><time>2026-05-02T12:44:37Z</time></trkpt><trkpt lat="43.08522110143037" lon="11.777933175752526"><ele>513.0</ele><time>2026-05-02T12:44:38Z</time></trkpt><trkpt lat="43.08536305433725" lon="11.777831659575435"><ele>513.0</ele><time>2026-05-02T12:44:39Z</time></trkpt><trkpt lat="43.08549491273794" lon="11.77773027013148"><ele>513.0</ele><time>2026-05-02T12:44:40Z</time></trkpt><trkpt lat="43.085626934542766" lon="11.777628186684476"><ele>511.0</ele><time>2026-05-02T12:44:41Z</time></trkpt><trkpt lat="43.08576062213636" lon="11.777526170443567"><ele>509.0</ele><time>2026-05-02T12:44:42Z</time></trkpt><trkpt lat="43.0858895195813" lon="11.777411007235198"><ele>507.0</ele><time>2026-05-02T12:44:43Z</time></trkpt><trkpt lat="43.08600728711625" lon="11.77728066735773"><ele>507.0</ele><time>2026-05-02T12:44:43.999Z</time></trkpt><trkpt lat="43.08611957374422" lon="11.777142179838602"><ele>507.0</ele><time>2026-05-02T12:44:44.999Z</time></trkpt><trkpt lat="43.086230056115724" lon="11.777007670301291"><ele>507.0</ele><time>2026-05-02T12:44:45.999Z</time></trkpt><trkpt lat="43.08634033962122" lon="11.77687763813048"><ele>507.0</ele><time>2026-05-02T12:44:46.999Z</time></trkpt><trkpt lat="43.08645164344694" lon="11.77675958378237"><ele>507.25</ele><time>2026-05-02T12:44:47.999Z</time></trkpt><trkpt lat="43.08656285841006" lon="11.776654528447375"><ele>507.5</ele><time>2026-05-02T12:44:48.999Z</time></trkpt><trkpt lat="43.08667305346213" lon="11.77655972218381"><ele>507.75</ele><time>2026-05-02T12:44:49.999Z</time></trkpt><trkpt lat="43.08677879335675" lon="11.776471314733662"><ele>508.0</ele><time>2026-05-02T12:44:50.999Z</time></trkpt><trkpt lat="43.086881431537655" lon="11.776393207511054"><ele>507.33333333333337</ele><time>2026-05-02T12:44:51.999Z</time></trkpt><trkpt lat="43.086971797400835" lon="11.77632266289635"><ele>506.6666666666667</ele><time>2026-05-02T12:44:52.999Z</time></trkpt><trkpt lat="43.0870588661134" lon="11.776258687199219"><ele>506.0</ele><time>2026-05-02T12:44:53.999Z</time></trkpt><trkpt lat="43.08714357132137" lon="11.77621179056157"><ele>505.33333333333337</ele><time>2026-05-02T12:44:54.999Z</time></trkpt><trkpt lat="43.0872214230984" lon="11.776195827342256"><ele>504.6666666666667</ele><time>2026-05-02T12:44:55.999Z</time></trkpt><trkpt lat="43.08729650337964" lon="11.776211028059008"><ele>504.0</ele><time>2026-05-02T12:44:56.999Z</time></trkpt><trkpt lat="43.08736385327049" lon="11.776267649680326"><ele>504.0</ele><time>2026-05-02T12:44:57.999Z</time></trkpt><trkpt lat="43.087410480811066" lon="11.776356022006496"><ele>504.0</ele><time>2026-05-02T12:44:58.999Z</time></trkpt><trkpt lat="43.08743564738477" lon="11.776459721814248"><ele>504.0</ele><time>2026-05-02T12:44:59.999Z</time></trkpt><trkpt lat="43.08744771559993" lon="11.776572062850668"><ele>504.0</ele><time>2026-05-02T12:45:00.999Z</time></trkpt><trkpt lat="43.08746316727297" lon="11.776699647165895"><ele>504.0</ele><time>2026-05-02T12:45:01.999Z</time></trkpt><trkpt lat="43.08748387506978" lon="11.776831710794276"><ele>504.0</ele><time>2026-05-02T12:45:02.999Z</time></trkpt><trkpt lat="43.08750857300966" lon="11.776970985760515"><ele>505.75</ele><time>2026-05-02T12:45:03.999Z</time></trkpt><trkpt lat="43.08754095992809" lon="11.777118675963088"><ele>507.5</ele><time>2026-05-02T12:45:04.999Z</time></trkpt><trkpt lat="43.08758805018324" lon="11.777268866940464"><ele>509.25</ele><time>2026-05-02T12:45:05.999Z</time></trkpt><trkpt lat="43.08763571364352" lon="11.77741604690248"><ele>511.0</ele><time>2026-05-02T12:45:06.999Z</time></trkpt><trkpt lat="43.08769074341164" lon="11.777562044385949"><ele>509.75</ele><time>2026-05-02T12:45:07.999Z</time></trkpt><trkpt lat="43.08774438141041" lon="11.777713779465902"><ele>508.5</ele><time>2026-05-02T12:45:08.999Z</time></trkpt><trkpt lat="43.08778368305248" lon="11.777881326608801"><ele>507.25</ele><time>2026-05-02T12:45:09.999Z</time></trkpt><trkpt lat="43.087812580017875" lon="11.778046047196096"><ele>506.0</ele><time>2026-05-02T12:45:10.999Z</time></trkpt><trkpt lat="43.08783129333184" lon="11.778216041839467"><ele>506.0</ele><time>2026-05-02T12:45:11.999Z</time></trkpt><trkpt lat="43.08784835224263" lon="11.778384692728332"><ele>506.0</ele><time>2026-05-02T12:45:12.999Z</time></trkpt><trkpt lat="43.087875405873504" lon="11.778548027733311"><ele>506.0</ele><time>2026-05-02T12:45:13.999Z</time></trkpt><trkpt lat="43.0879150966094" lon="11.778709821255946"><ele>506.0</ele><time>2026-05-02T12:45:14.999Z</time></trkpt><trkpt lat="43.08797328295919" lon="11.778860459180873"><ele>504.25</ele><time>2026-05-02T12:45:15.999Z</time></trkpt><trkpt lat="43.088037034459965" lon="11.779005972274273"><ele>502.5</ele><time>2026-05-02T12:45:16.999Z</time></trkpt><trkpt lat="43.088120385702716" lon="11.779139621610232"><ele>500.75</ele><time>2026-05-02T12:45:17.999Z</time></trkpt><trkpt lat="43.088209885130475" lon="11.779270448615176"><ele>499.0</ele><time>2026-05-02T12:45:18.999Z</time></trkpt><trkpt lat="43.088302705670934" lon="11.779400524113264"><ele>502.75</ele><time>2026-05-02T12:45:19.999Z</time></trkpt><trkpt lat="43.08839730754966" lon="11.779530289782311"><ele>506.5</ele><time>2026-05-02T12:45:20.999Z</time></trkpt><trkpt lat="43.0884857143351" lon="11.779659234255117"><ele>510.25</ele><time>2026-05-02T12:45:21.999Z</time></trkpt><trkpt lat="43.088575662268546" lon="11.779787900625132"><ele>514.0</ele><time>2026-05-02T12:45:22.999Z</time></trkpt><trkpt lat="43.08866377618671" lon="11.77991300822005"><ele>514.0</ele><time>2026-05-02T12:45:23.999Z</time></trkpt><trkpt lat="43.088746734039105" lon="11.780035284257073"><ele>514.0</ele><time>2026-05-02T12:45:24.999Z</time></trkpt><trkpt lat="43.08882797168362" lon="11.780154794987356"><ele>514.0</ele><time>2026-05-02T12:45:25.999Z</time></trkpt><trkpt lat="43.08891299797834" lon="11.780278250417979"><ele>514.0</ele><time>2026-05-02T12:45:26.999Z</time></trkpt><trkpt lat="43.08899405025079" lon="11.780409429157489"><ele>511.25</ele><time>2026-05-02T12:45:27.999Z</time></trkpt><trkpt lat="43.08906491598525" lon="11.780549291789736"><ele>508.5</ele><time>2026-05-02T12:45:28.999Z</time></trkpt><trkpt lat="43.089128256468435" lon="11.780694926172043"><ele>505.75</ele><time>2026-05-02T12:45:29.999Z</time></trkpt><trkpt lat="43.0891853491057" lon="11.78083186978453"><ele>503.0</ele><time>2026-05-02T12:45:30.999Z</time></trkpt><trkpt lat="43.0892417541452" lon="11.780963744347563"><ele>507.5</ele><time>2026-05-02T12:45:31.999Z</time></trkpt><trkpt lat="43.08930509076553" lon="11.781166457245906"><ele>512.0</ele><time>2026-05-02T12:45:32.999Z</time></trkpt><trkpt lat="43.08933193952471" lon="11.781339131642186"><ele>516.5</ele><time>2026-05-02T12:45:33.999Z</time></trkpt><trkpt lat="43.08935169752969" lon="11.781505040083124"><ele>521.0</ele><time>2026-05-02T12:45:34.999Z</time></trkpt><trkpt lat="43.089355025879186" lon="11.781678021615788"><ele>517.0</ele><time>2026-05-02T12:45:35.999Z</time></trkpt><trkpt lat="43.08937005877796" lon="11.781850555201114"><ele>513.0</ele><time>2026-05-02T12:45:36.999Z</time></trkpt><trkpt lat="43.08936549222271" lon="11.782018677181716"><ele>509.0</ele><time>2026-05-02T12:45:37.999Z</time></trkpt><trkpt lat="43.08938422933128" lon="11.782178618114457"><ele>505.0</ele><time>2026-05-02T12:45:38.999Z</time></trkpt><trkpt lat="43.08942753066492" lon="11.782322411539257"><ele>505.0</ele><time>2026-05-02T12:45:39.999Z</time></trkpt><trkpt lat="43.08950523425994" lon="11.782446345714977"><ele>505.0</ele><time>2026-05-02T12:45:40.999Z</time></trkpt><trkpt lat="43.089599343415635" lon="11.782564328736429"><ele>505.0</ele><time>2026-05-02T12:45:41.999Z</time></trkpt><trkpt lat="43.08971848175324" lon="11.78262632705649"><ele>505.0</ele><time>2026-05-02T12:45:42.999Z</time></trkpt><trkpt lat="43.08985193351518" lon="11.782657038620629"><ele>512.75</ele><time>2026-05-02T12:45:43.999Z</time></trkpt><trkpt lat="43.08998859404771" lon="11.782588915508681"><ele>520.5</ele><time>2026-05-02T12:45:44.999Z</time></trkpt><trkpt lat="43.09011642169442" lon="11.782594174143167"><ele>528.25</ele><time>2026-05-02T12:45:45.999Z</time></trkpt><trkpt lat="43.09024864015376" lon="11.782612647563155"><ele>536.0</ele><time>2026-05-02T12:45:46.999Z</time></trkpt><trkpt lat="43.09038034571469" lon="11.782643339212651"><ele>532.75</ele><time>2026-05-02T12:45:47.999Z</time></trkpt><trkpt lat="43.09051069224111" lon="11.782696893448778"><ele>529.5</ele><time>2026-05-02T12:45:48.999Z</time></trkpt><trkpt lat="43.09063089498698" lon="11.782789976330996"><ele>526.25</ele><time>2026-05-02T12:45:49.999Z</time></trkpt><trkpt lat="43.090751082697295" lon="11.782894443084448"><ele>523.0</ele><time>2026-05-02T12:45:50.999Z</time></trkpt><trkpt lat="43.09087333514083" lon="11.78299137720189"><ele>523.0</ele><time>2026-05-02T12:45:51.999Z</time></trkpt><trkpt lat="43.090978307990966" lon="11.78310883680593"><ele>523.0</ele><time>2026-05-02T12:45:52.999Z</time></trkpt><trkpt lat="43.09109222219453" lon="11.783225121548094"><ele>523.0</ele><time>2026-05-02T12:45:54Z</time></trkpt><trkpt lat="43.09122147504274" lon="11.783316980990506"><ele>523.0</ele><time>2026-05-02T12:45:55Z</time></trkpt><trkpt lat="43.0913589471216" lon="11.783380145268023"><ele>523.0</ele><time>2026-05-02T12:45:56Z</time></trkpt><trkpt lat="43.09149409462088" lon="11.783416471254355"><ele>523.0</ele><time>2026-05-02T12:45:57Z</time></trkpt><trkpt lat="43.09163322761395" lon="11.7834404547279"><ele>523.0</ele><time>2026-05-02T12:45:58Z</time></trkpt><trkpt lat="43.09176792214197" lon="11.783476203092969"><ele>523.0</ele><time>2026-05-02T12:45:59Z</time></trkpt><trkpt lat="43.09189070664278" lon="11.78353462502502"><ele>523.0</ele><time>2026-05-02T12:46:00Z</time></trkpt><trkpt lat="43.092000521584296" lon="11.783602289027394"><ele>523.0</ele><time>2026-05-02T12:46:01Z</time></trkpt><trkpt lat="43.09210831874647" lon="11.783675923626367"><ele>523.0</ele><time>2026-05-02T12:46:02Z</time></trkpt><trkpt lat="43.09222120024019" lon="11.783737576667955"><ele>523.0</ele><time>2026-05-02T12:46:03Z</time></trkpt><trkpt lat="43.0923280644701" lon="11.78380204690706"><ele>524.0</ele><time>2026-05-02T12:46:04Z</time></trkpt><trkpt lat="43.09244406072239" lon="11.78386662466646"><ele>525.0</ele><time>2026-05-02T12:46:05Z</time></trkpt><trkpt lat="43.092562933806626" lon="11.783921884280044"><ele>526.0</ele><time>2026-05-02T12:46:06Z</time></trkpt><trkpt lat="43.09268764565783" lon="11.783967236398587"><ele>527.0</ele><time>2026-05-02T12:46:07Z</time></trkpt><trkpt lat="43.092811878313704" lon="11.784005318739288"><ele>527.0</ele><time>2026-05-02T12:46:08Z</time></trkpt><trkpt lat="43.09293622430916" lon="11.784015539633575"><ele>527.0</ele><time>2026-05-02T12:46:09Z</time></trkpt><trkpt lat="43.09305729904982" lon="11.783992810130332"><ele>527.0</ele><time>2026-05-02T12:46:10Z</time></trkpt><trkpt lat="43.09318043104824" lon="11.783944638267643"><ele>527.0</ele><time>2026-05-02T12:46:11Z</time></trkpt><trkpt lat="43.093299846166765" lon="11.783869050440623"><ele>526.25</ele><time>2026-05-02T12:46:12Z</time></trkpt><trkpt lat="43.093406085975595" lon="11.783757485324623"><ele>525.5</ele><time>2026-05-02T12:46:13Z</time></trkpt><trkpt lat="43.093496674702415" lon="11.78365565292506"><ele>524.75</ele><time>2026-05-02T12:46:14Z</time></trkpt><trkpt lat="43.09358545445698" lon="11.783551892014492"><ele>524.0</ele><time>2026-05-02T12:46:15Z</time></trkpt><trkpt lat="43.09366029372237" lon="11.78346074633993"><ele>529.0</ele><time>2026-05-02T12:46:16Z</time></trkpt><trkpt lat="43.09373197235224" lon="11.783370484539747"><ele>534.0</ele><time>2026-05-02T12:46:17Z</time></trkpt><trkpt lat="43.09380376622378" lon="11.783288296855236"><ele>539.0</ele><time>2026-05-02T12:46:18Z</time></trkpt><trkpt lat="43.093881610157034" lon="11.783231232669257"><ele>544.0</ele><time>2026-05-02T12:46:19Z</time></trkpt><trkpt lat="43.09397036177202" lon="11.783204727380014"><ele>549.0</ele><time>2026-05-02T12:46:20Z</time></trkpt><trkpt lat="43.094062736563764" lon="11.78319868044096"><ele>546.2</ele><time>2026-05-02T12:46:21Z</time></trkpt><trkpt lat="43.09415675428006" lon="11.783219302183403"><ele>543.4</ele><time>2026-05-02T12:46:22Z</time></trkpt><trkpt lat="43.09424701068554" lon="11.783262135875276"><ele>540.6</ele><time>2026-05-02T12:46:23Z</time></trkpt><trkpt lat="43.094341750180504" lon="11.783306317404266"><ele>537.8</ele><time>2026-05-02T12:46:24Z</time></trkpt><trkpt lat="43.09443409882244" lon="11.783358625933815"><ele>535.0</ele><time>2026-05-02T12:46:25Z</time></trkpt><trkpt lat="43.09452329709691" lon="11.783410384737756"><ele>535.0</ele><time>2026-05-02T12:46:26Z</time></trkpt><trkpt lat="43.094600878549784" lon="11.783462490453879"><ele>535.0</ele><time>2026-05-02T12:46:27Z</time></trkpt><trkpt lat="43.09466242316393" lon="11.783519253875706"><ele>535.0</ele><time>2026-05-02T12:46:28Z</time></trkpt><trkpt lat="43.09475642174174" lon="11.78361407523942"><ele>535.0</ele><time>2026-05-02T12:46:30Z</time></trkpt><trkpt lat="43.094835952391215" lon="11.783690225181987"><ele>535.0</ele><time>2026-05-02T12:46:32.001Z</time></trkpt><trkpt lat="43.094899066297515" lon="11.783747537050104"><ele>535.3333333333334</ele><time>2026-05-02T12:46:34.001Z</time></trkpt><trkpt lat="43.094949446428416" lon="11.78380508628562"><ele>535.6666666666667</ele><time>2026-05-02T12:46:36Z</time></trkpt><trkpt lat="43.094992616266424" lon="11.783872624270252"><ele>536.0</ele><time>2026-05-02T12:46:38Z</time></trkpt><trkpt lat="43.09504818366777" lon="11.783949274847465"><ele>536.3333333333334</ele><time>2026-05-02T12:46:40Z</time></trkpt><trkpt lat="43.0950804684164" lon="11.784090719138838"><ele>536.6666666666666</ele><time>2026-05-02T12:46:42Z</time></trkpt><trkpt lat="43.09510800903954" lon="11.784246187450886"><ele>537.0</ele><time>2026-05-02T12:46:44Z</time></trkpt><trkpt lat="43.09513120058293" lon="11.784406257119263"><ele>536.2857142857142</ele><time>2026-05-02T12:46:46Z</time></trkpt><trkpt lat="43.095139028400546" lon="11.784570793255464"><ele>535.5714285714286</ele><time>2026-05-02T12:46:48Z</time></trkpt><trkpt lat="43.09514583833861" lon="11.784658735342042"><ele>534.8571428571429</ele><time>2026-05-02T12:46:49Z</time></trkpt><trkpt lat="43.0951537798833" lon="11.78474649581654"><ele>534.1428571428571</ele><time>2026-05-02T12:46:50Z</time></trkpt><trkpt lat="43.095160776024144" lon="11.784834340286867"><ele>533.4285714285714</ele><time>2026-05-02T12:46:51Z</time></trkpt><trkpt lat="43.09517376082081" lon="11.78492445163256"><ele>532.7142857142857</ele><time>2026-05-02T12:46:52Z</time></trkpt><trkpt lat="43.09519575060016" lon="11.78500956923909"><ele>532.0</ele><time>2026-05-02T12:46:53Z</time></trkpt><trkpt lat="43.09522857913702" lon="11.785097378265077"><ele>530.8333333333334</ele><time>2026-05-02T12:46:54Z</time></trkpt><trkpt lat="43.095269497212485" lon="11.78518561063894"><ele>529.6666666666667</ele><time>2026-05-02T12:46:55Z</time></trkpt><trkpt lat="43.09532331531088" lon="11.7852667298631"><ele>528.5</ele><time>2026-05-02T12:46:56Z</time></trkpt><trkpt lat="43.095378139871016" lon="11.785339038166681"><ele>527.3333333333334</ele><time>2026-05-02T12:46:57Z</time></trkpt><trkpt lat="43.095437522393404" lon="11.785413306532162"><ele>526.1666666666666</ele><time>2026-05-02T12:46:58Z</time></trkpt><trkpt lat="43.09549981085292" lon="11.785487902581782"><ele>525.0</ele><time>2026-05-02T12:46:59Z</time></trkpt><trkpt lat="43.09556491374344" lon="11.785564412734772"><ele>525.0</ele><time>2026-05-02T12:47:00Z</time></trkpt><trkpt lat="43.09563685691743" lon="11.785637998920976"><ele>525.0</ele><time>2026-05-02T12:47:01Z</time></trkpt><trkpt lat="43.09571365305822" lon="11.78570630643933"><ele>525.0</ele><time>2026-05-02T12:47:02Z</time></trkpt><trkpt lat="43.09579607031434" lon="11.785776355866371"><ele>525.0</ele><time>2026-05-02T12:47:03Z</time></trkpt><trkpt lat="43.09588153438311" lon="11.785842029820362"><ele>525.0</ele><time>2026-05-02T12:47:04Z</time></trkpt><trkpt lat="43.095968827154316" lon="11.785912227074745"><ele>526.2</ele><time>2026-05-02T12:47:05Z</time></trkpt><trkpt lat="43.096056035356284" lon="11.785983841203386"><ele>527.4</ele><time>2026-05-02T12:47:06Z</time></trkpt><trkpt lat="43.09614221413971" lon="11.786061742690707"><ele>528.6</ele><time>2026-05-02T12:47:07Z</time></trkpt><trkpt lat="43.096231134595364" lon="11.786135246990865"><ele>529.8</ele><time>2026-05-02T12:47:08Z</time></trkpt><trkpt lat="43.096320734885545" lon="11.786206714660803"><ele>531.0</ele><time>2026-05-02T12:47:09Z</time></trkpt><trkpt lat="43.09640810139223" lon="11.78627993858715"><ele>528.2</ele><time>2026-05-02T12:47:10Z</time></trkpt><trkpt lat="43.09649512661448" lon="11.786355603361597"><ele>525.4000000000001</ele><time>2026-05-02T12:47:11Z</time></trkpt><trkpt lat="43.09658234950741" lon="11.786426606658965"><ele>522.6</ele><time>2026-05-02T12:47:12Z</time></trkpt><trkpt lat="43.09667074205381" lon="11.786500463648942"><ele>519.8000000000001</ele><time>2026-05-02T12:47:13Z</time></trkpt><trkpt lat="43.09675619098395" lon="11.78656656451154"><ele>517.0</ele><time>2026-05-02T12:47:14Z</time></trkpt><trkpt lat="43.09684071648632" lon="11.78663419435101"><ele>517.0</ele><time>2026-05-02T12:47:15Z</time></trkpt><trkpt lat="43.09692837474553" lon="11.786691660881067"><ele>517.0</ele><time>2026-05-02T12:47:16Z</time></trkpt><trkpt lat="43.09702122875421" lon="11.786735276049196"><ele>517.0</ele><time>2026-05-02T12:47:17Z</time></trkpt><trkpt lat="43.09711374373153" lon="11.786760533629694"><ele>517.0</ele><time>2026-05-02T12:47:18Z</time></trkpt><trkpt lat="43.097213656908856" lon="11.786775327362102"><ele>517.0</ele><time>2026-05-02T12:47:19Z</time></trkpt><trkpt lat="43.09731096938502" lon="11.78675828012275"><ele>517.0</ele><time>2026-05-02T12:47:20Z</time></trkpt><trkpt lat="43.09740424959193" lon="11.786725893776591"><ele>517.0</ele><time>2026-05-02T12:47:21Z</time></trkpt><trkpt lat="43.09750432145481" lon="11.786682385257485"><ele>517.0</ele><time>2026-05-02T12:47:22Z</time></trkpt><trkpt lat="43.09759613351861" lon="11.786624848209133"><ele>517.0</ele><time>2026-05-02T12:47:23Z</time></trkpt><trkpt lat="43.09768337630027" lon="11.786553537369251"><ele>517.0</ele><time>2026-05-02T12:47:24Z</time></trkpt><trkpt lat="43.09776371610817" lon="11.78648179284143"><ele>517.0</ele><time>2026-05-02T12:47:25Z</time></trkpt><trkpt lat="43.097834016384766" lon="11.78640062887345"><ele>517.0</ele><time>2026-05-02T12:47:26Z</time></trkpt><trkpt lat="43.09789368963463" lon="11.786321197076262"><ele>517.0</ele><time>2026-05-02T12:47:27Z</time></trkpt><trkpt lat="43.09793876278028" lon="11.7862460856445"><ele>517.0</ele><time>2026-05-02T12:47:28Z</time></trkpt><trkpt lat="43.09800807929463" lon="11.786111640812926"><ele>517.0</ele><time>2026-05-02T12:47:30Z</time></trkpt><trkpt lat="43.09804243372199" lon="11.785974971670989"><ele>518.6666666666667</ele><time>2026-05-02T12:47:32Z</time></trkpt><trkpt lat="43.098033524486816" lon="11.785866823756763"><ele>520.3333333333334</ele><time>2026-05-02T12:47:34Z</time></trkpt><trkpt lat="43.0980388046917" lon="11.78575869022332"><ele>522.0</ele><time>2026-05-02T12:47:37Z</time></trkpt><trkpt lat="43.09804976802803" lon="11.785662155762955"><ele>523.6666666666666</ele><time>2026-05-02T12:47:41Z</time></trkpt><trkpt lat="43.09804921817102" lon="11.785575883241533"><ele>525.3333333333333</ele><time>2026-05-02T12:47:43Z</time></trkpt><trkpt lat="43.09804817038107" lon="11.78546726014027"><ele>527.0</ele><time>2026-05-02T12:47:46Z</time></trkpt><trkpt lat="43.098046390414424" lon="11.785359418729131"><ele>527.0</ele><time>2026-05-02T12:47:50Z</time></trkpt><trkpt lat="43.0979436670917" lon="11.785308288429432"><ele>527.0</ele><time>2026-05-02T12:47:52Z</time></trkpt><trkpt lat="43.097879329401366" lon="11.78528102377561"><ele>527.0</ele><time>2026-05-02T12:47:54Z</time></trkpt><trkpt lat="43.09781346629779" lon="11.785261784427629"><ele>527.0</ele><time>2026-05-02T12:47:57Z</time></trkpt><trkpt lat="43.097736127769" lon="11.78522612776759"><ele>527.0</ele><time>2026-05-02T12:48:00.001Z</time></trkpt><trkpt lat="43.097666977385195" lon="11.785206001329723"><ele>527.0</ele><time>2026-05-02T12:48:03.001Z</time></trkpt><trkpt lat="43.0975999037364" lon="11.785207751182504"><ele>527.0</ele><time>2026-05-02T12:48:07.001Z</time></trkpt><trkpt lat="43.09750841909418" lon="11.785177582099122"><ele>527.0</ele><time>2026-05-02T12:48:11.001Z</time></trkpt><trkpt lat="43.0974575591876" lon="11.785121749191438"><ele>527.0</ele><time>2026-05-02T12:48:13.001Z</time></trkpt><trkpt lat="43.09739736600711" lon="11.785086856343549"><ele>527.0</ele><time>2026-05-02T12:48:43Z</time></trkpt><trkpt lat="43.09745395766529" lon="11.785141944285437"><ele>527.0</ele><time>2026-05-02T12:49:20Z</time></trkpt><trkpt lat="43.09752169907134" lon="11.785163237841296"><ele>527.0</ele><time>2026-05-02T12:49:33Z</time></trkpt><trkpt lat="43.09759039730143" lon="11.785238954670145"><ele>527.0</ele><time>2026-05-02T12:49:35Z</time></trkpt><trkpt lat="43.09769726713059" lon="11.785265079300627"><ele>527.0</ele><time>2026-05-02T12:49:37Z</time></trkpt><trkpt lat="43.09777180377555" lon="11.785284422885159"><ele>527.0</ele><time>2026-05-02T12:49:38Z</time></trkpt><trkpt lat="43.0978329767942" lon="11.785326440610412"><ele>527.0</ele><time>2026-05-02T12:49:40Z</time></trkpt><trkpt lat="43.09801424440223" lon="11.785370551359165"><ele>527.0</ele><time>2026-05-02T12:49:42Z</time></trkpt><trkpt lat="43.09796824638243" lon="11.785449074002017"><ele>527.0</ele><time>2026-05-02T12:50:09.001Z</time></trkpt><trkpt lat="43.097979433723495" lon="11.785567249334939"><ele>527.0</ele><time>2026-05-02T12:50:11.001Z</time></trkpt><trkpt lat="43.098008639592116" lon="11.785693525255326"><ele>527.0</ele><time>2026-05-02T12:50:13.001Z</time></trkpt><trkpt lat="43.098018070921555" lon="11.78587494785081"><ele>527.0</ele><time>2026-05-02T12:50:15.001Z</time></trkpt><trkpt lat="43.0980013828827" lon="11.785977535468898"><ele>527.0</ele><time>2026-05-02T12:50:16.001Z</time></trkpt><trkpt lat="43.097979707800064" lon="11.786081481715314"><ele>525.5714285714287</ele><time>2026-05-02T12:50:17.001Z</time></trkpt><trkpt lat="43.09794253836674" lon="11.786177056013036"><ele>524.1428571428571</ele><time>2026-05-02T12:50:18.001Z</time></trkpt><trkpt lat="43.097896777533045" lon="11.786251923351664"><ele>522.7142857142858</ele><time>2026-05-02T12:50:19.001Z</time></trkpt><trkpt lat="43.09784747615941" lon="11.786324894203595"><ele>521.2857142857143</ele><time>2026-05-02T12:50:20Z</time></trkpt><trkpt lat="43.09779236812698" lon="11.786391826243824"><ele>519.8571428571429</ele><time>2026-05-02T12:50:21Z</time></trkpt><trkpt lat="43.09773470768168" lon="11.786455510123433"><ele>518.4285714285714</ele><time>2026-05-02T12:50:22Z</time></trkpt><trkpt lat="43.09767591669172" lon="11.786511087983257"><ele>517.0</ele><time>2026-05-02T12:50:23Z</time></trkpt><trkpt lat="43.097611903045056" lon="11.786562840560979"><ele>517.0</ele><time>2026-05-02T12:50:24Z</time></trkpt><trkpt lat="43.09754101599829" lon="11.786610648145537"><ele>517.0</ele><time>2026-05-02T12:50:25Z</time></trkpt><trkpt lat="43.09746731780692" lon="11.786652266858052"><ele>517.0</ele><time>2026-05-02T12:50:26Z</time></trkpt><trkpt lat="43.0973914492443" lon="11.786686817448556"><ele>517.0</ele><time>2026-05-02T12:50:27Z</time></trkpt><trkpt lat="43.09731447301953" lon="11.786708750045417"><ele>517.0</ele><time>2026-05-02T12:50:28Z</time></trkpt><trkpt lat="43.09724075102352" lon="11.786718209812255"><ele>517.0</ele><time>2026-05-02T12:50:29Z</time></trkpt><trkpt lat="43.09717065990101" lon="11.786717265489152"><ele>517.0</ele><time>2026-05-02T12:50:30Z</time></trkpt><trkpt lat="43.09705036424283" lon="11.786700459606397"><ele>517.0</ele><time>2026-05-02T12:50:32Z</time></trkpt><trkpt lat="43.09695275001825" lon="11.786673066422518"><ele>517.0</ele><time>2026-05-02T12:50:34Z</time></trkpt><trkpt lat="43.09684406871284" lon="11.786611139575072"><ele>517.0</ele><time>2026-05-02T12:50:36Z</time></trkpt><trkpt lat="43.09678957440763" lon="11.786543953705946"><ele>517.0</ele><time>2026-05-02T12:50:37Z</time></trkpt><trkpt lat="43.09672547168927" lon="11.786492266882318"><ele>517.0</ele><time>2026-05-02T12:50:38Z</time></trkpt><trkpt lat="43.09665481307388" lon="11.786434562309868"><ele>517.0</ele><time>2026-05-02T12:50:39Z</time></trkpt><trkpt lat="43.09658038122626" lon="11.786372696995693"><ele>517.0</ele><time>2026-05-02T12:50:40Z</time></trkpt><trkpt lat="43.09650234311252" lon="11.786307460272184"><ele>517.0</ele><time>2026-05-02T12:50:41Z</time></trkpt><trkpt lat="43.09642288437812" lon="11.786241035960746"><ele>517.0</ele><time>2026-05-02T12:50:42Z</time></trkpt><trkpt lat="43.096342172527926" lon="11.786173385882494"><ele>517.0</ele><time>2026-05-02T12:50:43Z</time></trkpt><trkpt lat="43.0962618077639" lon="11.786105253915318"><ele>516.0</ele><time>2026-05-02T12:50:44Z</time></trkpt><trkpt lat="43.09617486354202" lon="11.78605461400429"><ele>515.0</ele><time>2026-05-02T12:50:45Z</time></trkpt><trkpt lat="43.09609596337244" lon="11.785986269958249"><ele>514.0</ele><time>2026-05-02T12:50:46Z</time></trkpt><trkpt lat="43.096018612176586" lon="11.785920018194176"><ele>513.0</ele><time>2026-05-02T12:50:47Z</time></trkpt><trkpt lat="43.09594876221541" lon="11.78586065939472"><ele>512.0</ele><time>2026-05-02T12:50:48Z</time></trkpt><trkpt lat="43.095889454632164" lon="11.785809537097547"><ele>511.0</ele><time>2026-05-02T12:50:49Z</time></trkpt><trkpt lat="43.095832730702725" lon="11.785760664535596"><ele>513.0</ele><time>2026-05-02T12:50:50Z</time></trkpt><trkpt lat="43.0957768184619" lon="11.785714951087487"><ele>515.0</ele><time>2026-05-02T12:50:51Z</time></trkpt><trkpt lat="43.095718952997295" lon="11.78566962598032"><ele>517.0</ele><time>2026-05-02T12:50:52Z</time></trkpt><trkpt lat="43.095660883953805" lon="11.785619290939099"><ele>519.0</ele><time>2026-05-02T12:50:53Z</time></trkpt><trkpt lat="43.09560305232297" lon="11.785561888653241"><ele>521.0</ele><time>2026-05-02T12:50:54Z</time></trkpt><trkpt lat="43.09554661889724" lon="11.785498761363911"><ele>523.0</ele><time>2026-05-02T12:50:55Z</time></trkpt><trkpt lat="43.095496947666895" lon="11.785437504623822"><ele>525.0</ele><time>2026-05-02T12:50:56Z</time></trkpt><trkpt lat="43.09545132943281" lon="11.785377233534849"><ele>525.0</ele><time>2026-05-02T12:50:57Z</time></trkpt><trkpt lat="43.09536457520831" lon="11.785263306426778"><ele>525.0</ele><time>2026-05-02T12:50:59Z</time></trkpt><trkpt lat="43.095320118169006" lon="11.785201831231602"><ele>525.0</ele><time>2026-05-02T12:51:00Z</time></trkpt><trkpt lat="43.09527590875414" lon="11.785133176630419"><ele>525.0</ele><time>2026-05-02T12:51:01Z</time></trkpt><trkpt lat="43.09523949782636" lon="11.785047136840396"><ele>525.0</ele><time>2026-05-02T12:51:02Z</time></trkpt><trkpt lat="43.095214259883896" lon="11.78494752037265"><ele>525.0</ele><time>2026-05-02T12:51:03Z</time></trkpt><trkpt lat="43.09520129553243" lon="11.784838116738264"><ele>526.1666666666666</ele><time>2026-05-02T12:51:04Z</time></trkpt><trkpt lat="43.09519083919584" lon="11.784723330113893"><ele>527.3333333333334</ele><time>2026-05-02T12:51:05Z</time></trkpt><trkpt lat="43.095183545985485" lon="11.784608476289968"><ele>528.5</ele><time>2026-05-02T12:51:06Z</time></trkpt><trkpt lat="43.09517731608545" lon="11.784488673901297"><ele>529.6666666666667</ele><time>2026-05-02T12:51:07Z</time></trkpt><trkpt lat="43.095168519284805" lon="11.784369458108735"><ele>530.8333333333334</ele><time>2026-05-02T12:51:08Z</time></trkpt><trkpt lat="43.095155381477774" lon="11.784251292676318"><ele>532.0</ele><time>2026-05-02T12:51:09Z</time></trkpt><trkpt lat="43.09513718528569" lon="11.784136956850904"><ele>532.8333333333334</ele><time>2026-05-02T12:51:10Z</time></trkpt><trkpt lat="43.09510742090399" lon="11.784027862233772"><ele>533.6666666666667</ele><time>2026-05-02T12:51:11Z</time></trkpt><trkpt lat="43.095065882232056" lon="11.783936719168764"><ele>534.5</ele><time>2026-05-02T12:51:12Z</time></trkpt><trkpt lat="43.09502150070116" lon="11.783858007214294"><ele>535.3333333333334</ele><time>2026-05-02T12:51:13Z</time></trkpt><trkpt lat="43.094973302790414" lon="11.783790249037825"><ele>536.1666666666666</ele><time>2026-05-02T12:51:14Z</time></trkpt><trkpt lat="43.09490365749696" lon="11.783713884461362"><ele>537.0</ele><time>2026-05-02T12:51:16Z</time></trkpt><trkpt lat="43.09484374326227" lon="11.783642714673988"><ele>536.7142857142857</ele><time>2026-05-02T12:51:18Z</time></trkpt><trkpt lat="43.09479176955889" lon="11.783588766185927"><ele>536.4285714285714</ele><time>2026-05-02T12:51:19Z</time></trkpt><trkpt lat="43.09472767173022" lon="11.783548493906999"><ele>536.1428571428571</ele><time>2026-05-02T12:51:20Z</time></trkpt><trkpt lat="43.094678907997185" lon="11.7834753104431"><ele>535.8571428571429</ele><time>2026-05-02T12:51:21Z</time></trkpt><trkpt lat="43.09461480630815" lon="11.783420383815715"><ele>535.5714285714286</ele><time>2026-05-02T12:51:22Z</time></trkpt><trkpt lat="43.0945440445273" lon="11.783392116345144"><ele>535.2857142857142</ele><time>2026-05-02T12:51:23Z</time></trkpt><trkpt lat="43.09448333019501" lon="11.783345456511212"><ele>535.0</ele><time>2026-05-02T12:51:24Z</time></trkpt><trkpt lat="43.09441944057399" lon="11.783307719803421"><ele>535.0</ele><time>2026-05-02T12:51:25Z</time></trkpt><trkpt lat="43.094351920380326" lon="11.783278041917413"><ele>535.0</ele><time>2026-05-02T12:51:26Z</time></trkpt><trkpt lat="43.094285127648526" lon="11.78324523050894"><ele>535.0</ele><time>2026-05-02T12:51:27Z</time></trkpt><trkpt lat="43.09419442414412" lon="11.783200990390677"><ele>535.0</ele><time>2026-05-02T12:51:29Z</time></trkpt><trkpt lat="43.094119769090504" lon="11.78316085703588"><ele>535.0</ele><time>2026-05-02T12:51:31Z</time></trkpt><trkpt lat="43.094050325247096" lon="11.783144713821667"><ele>535.0</ele><time>2026-05-02T12:51:32Z</time></trkpt><trkpt lat="43.09398447287851" lon="11.783166608069958"><ele>537.8</ele><time>2026-05-02T12:51:33Z</time></trkpt><trkpt lat="43.09389810221353" lon="11.783169477770938"><ele>540.6</ele><time>2026-05-02T12:51:34Z</time></trkpt><trkpt lat="43.093825986606944" lon="11.78324190649885"><ele>543.4</ele><time>2026-05-02T12:51:35Z</time></trkpt><trkpt lat="43.09375940281841" lon="11.783230700434368"><ele>546.2</ele><time>2026-05-02T12:51:36Z</time></trkpt><trkpt lat="43.09367254280636" lon="11.78342197588955"><ele>549.0</ele><time>2026-05-02T12:51:38Z</time></trkpt><trkpt lat="43.09360714393049" lon="11.783507770910221"><ele>543.5</ele><time>2026-05-02T12:51:39Z</time></trkpt><trkpt lat="43.09352400032698" lon="11.783608813587188"><ele>538.0</ele><time>2026-05-02T12:51:40Z</time></trkpt><trkpt lat="43.093432522200615" lon="11.783709495378782"><ele>532.5</ele><time>2026-05-02T12:51:40.999Z</time></trkpt><trkpt lat="43.09332069818527" lon="11.783775054802975"><ele>527.0</ele><time>2026-05-02T12:51:41.999Z</time></trkpt><trkpt lat="43.093218464772086" lon="11.783870841618327"><ele>527.0</ele><time>2026-05-02T12:51:42.999Z</time></trkpt><trkpt lat="43.09310102382859" lon="11.783926902656928"><ele>527.0</ele><time>2026-05-02T12:51:43.999Z</time></trkpt><trkpt lat="43.092980695528425" lon="11.783960468168058"><ele>527.0</ele><time>2026-05-02T12:51:44.999Z</time></trkpt><trkpt lat="43.09286248623059" lon="11.783968050094726"><ele>527.0</ele><time>2026-05-02T12:51:45.999Z</time></trkpt><trkpt lat="43.09275083207598" lon="11.783948347005923"><ele>527.0</ele><time>2026-05-02T12:51:46.999Z</time></trkpt><trkpt lat="43.09264241813216" lon="11.783909108998566"><ele>527.0</ele><time>2026-05-02T12:51:47.999Z</time></trkpt><trkpt lat="43.0925316998799" lon="11.783860943655041"><ele>527.0</ele><time>2026-05-02T12:51:48.999Z</time></trkpt><trkpt lat="43.092419999558906" lon="11.783811848383195"><ele>527.0</ele><time>2026-05-02T12:51:49.999Z</time></trkpt><trkpt lat="43.092310174659424" lon="11.783757577275779"><ele>526.0</ele><time>2026-05-02T12:51:50.999Z</time></trkpt><trkpt lat="43.09219877956157" lon="11.783693107504345"><ele>525.0</ele><time>2026-05-02T12:51:51.999Z</time></trkpt><trkpt lat="43.0920774121802" lon="11.783624696723432"><ele>524.0</ele><time>2026-05-02T12:51:52.999Z</time></trkpt><trkpt lat="43.091953896049695" lon="11.783553577587325"><ele>523.0</ele><time>2026-05-02T12:51:53.999Z</time></trkpt><trkpt lat="43.091830834226855" lon="11.78346929141429"><ele>523.0</ele><time>2026-05-02T12:51:54.999Z</time></trkpt><trkpt lat="43.0916988949066" lon="11.78341094456253"><ele>523.0</ele><time>2026-05-02T12:51:55.999Z</time></trkpt><trkpt lat="43.091539499050896" lon="11.78335306380055"><ele>523.0</ele><time>2026-05-02T12:51:56.999Z</time></trkpt><trkpt lat="43.091386498983674" lon="11.783318782220503"><ele>523.0</ele><time>2026-05-02T12:51:57.999Z</time></trkpt><trkpt lat="43.091253168889786" lon="11.783253954361774"><ele>523.0</ele><time>2026-05-02T12:51:58.999Z</time></trkpt><trkpt lat="43.09112580175861" lon="11.783173166582216"><ele>523.0</ele><time>2026-05-02T12:51:59.999Z</time></trkpt><trkpt lat="43.09100461428783" lon="11.783080252427117"><ele>523.0</ele><time>2026-05-02T12:52:00.999Z</time></trkpt><trkpt lat="43.0908887260147" lon="11.782969820161245"><ele>523.0</ele><time>2026-05-02T12:52:01.999Z</time></trkpt><trkpt lat="43.09077863653111" lon="11.782861779953462"><ele>523.0</ele><time>2026-05-02T12:52:02.999Z</time></trkpt><trkpt lat="43.09066596710416" lon="11.782767741721425"><ele>523.0</ele><time>2026-05-02T12:52:03.999Z</time></trkpt><trkpt lat="43.09053787344786" lon="11.782681400037122"><ele>523.0</ele><time>2026-05-02T12:52:04.999Z</time></trkpt><trkpt lat="43.090395278692895" lon="11.782587969209734"><ele>527.3333333333334</ele><time>2026-05-02T12:52:05.999Z</time></trkpt><trkpt lat="43.090249823231396" lon="11.782493057912909"><ele>531.6666666666666</ele><time>2026-05-02T12:52:06.999Z</time></trkpt><trkpt lat="43.09009274699631" lon="11.782484127810852"><ele>536.0</ele><time>2026-05-02T12:52:07.999Z</time></trkpt><trkpt lat="43.08992790808114" lon="11.782467266505597"><ele>530.8333333333333</ele><time>2026-05-02T12:52:08.999Z</time></trkpt><trkpt lat="43.08987398771478" lon="11.78251803950152"><ele>525.6666666666666</ele><time>2026-05-02T12:52:11Z</time></trkpt><trkpt lat="43.08978279303492" lon="11.782507538546508"><ele>520.5</ele><time>2026-05-02T12:52:12Z</time></trkpt><trkpt lat="43.08969603479067" lon="11.782482516875659"><ele>515.3333333333334</ele><time>2026-05-02T12:52:13Z</time></trkpt><trkpt lat="43.08961098953602" lon="11.782447083656333"><ele>510.1666666666667</ele><time>2026-05-02T12:52:14Z</time></trkpt><trkpt lat="43.08953297301782" lon="11.782388068881552"><ele>505.0</ele><time>2026-05-02T12:52:15Z</time></trkpt><trkpt lat="43.08946718347683" lon="11.78230308970831"><ele>505.00000000000006</ele><time>2026-05-02T12:52:16Z</time></trkpt><trkpt lat="43.08941758054045" lon="11.782208611024197"><ele>505.0</ele><time>2026-05-02T12:52:17Z</time></trkpt><trkpt lat="43.08940621116454" lon="11.782095780215142"><ele>505.0</ele><time>2026-05-02T12:52:18Z</time></trkpt><trkpt lat="43.089378946705665" lon="11.781993612004555"><ele>505.0</ele><time>2026-05-02T12:52:19Z</time></trkpt><trkpt lat="43.08937389702205" lon="11.78186772822096"><ele>505.00000000000006</ele><time>2026-05-02T12:52:20Z</time></trkpt><trkpt lat="43.08938348820678" lon="11.781720215853674"><ele>505.0</ele><time>2026-05-02T12:52:21Z</time></trkpt><trkpt lat="43.08938952729474" lon="11.781558558392208"><ele>509.0</ele><time>2026-05-02T12:52:22Z</time></trkpt><trkpt lat="43.089381412680574" lon="11.781390680839575"><ele>513.0</ele><time>2026-05-02T12:52:23Z</time></trkpt><trkpt lat="43.08935814398934" lon="11.781213833285069"><ele>517.0</ele><time>2026-05-02T12:52:24Z</time></trkpt><trkpt lat="43.08931566499462" lon="11.781042796465234"><ele>521.0</ele><time>2026-05-02T12:52:25Z</time></trkpt><trkpt lat="43.08924791799857" lon="11.7808723138649"><ele>523.75</ele><time>2026-05-02T12:52:26Z</time></trkpt><trkpt lat="43.08917152352912" lon="11.780703549149404"><ele>526.5</ele><time>2026-05-02T12:52:27Z</time></trkpt><trkpt lat="43.0890965521266" lon="11.780548310973188"><ele>529.25</ele><time>2026-05-02T12:52:28Z</time></trkpt><trkpt lat="43.08902851346826" lon="11.780402973841479"><ele>532.0</ele><time>2026-05-02T12:52:29Z</time></trkpt><trkpt lat="43.08895925619071" lon="11.780266311651927"><ele>527.5</ele><time>2026-05-02T12:52:30Z</time></trkpt><trkpt lat="43.088882300097524" lon="11.78014379575887"><ele>523.0</ele><time>2026-05-02T12:52:31Z</time></trkpt><trkpt lat="43.088793400282164" lon="11.780036195740024"><ele>518.5</ele><time>2026-05-02T12:52:32Z</time></trkpt><trkpt lat="43.08871738401439" lon="11.779918774837904"><ele>514.0</ele><time>2026-05-02T12:52:33Z</time></trkpt><trkpt lat="43.0886414252935" lon="11.779807037937255"><ele>514.0</ele><time>2026-05-02T12:52:34Z</time></trkpt><trkpt lat="43.08856691738694" lon="11.779700584305163"><ele>514.0</ele><time>2026-05-02T12:52:35Z</time></trkpt><trkpt lat="43.08849535529852" lon="11.779597146062624"><ele>514.0</ele><time>2026-05-02T12:52:36Z</time></trkpt><trkpt lat="43.08842020749945" lon="11.77949501237981"><ele>514.0</ele><time>2026-05-02T12:52:37Z</time></trkpt><trkpt lat="43.08834437751089" lon="11.779391363796856"><ele>514.0</ele><time>2026-05-02T12:52:38Z</time></trkpt><trkpt lat="43.08826589565557" lon="11.779289358727905"><ele>511.0</ele><time>2026-05-02T12:52:39Z</time></trkpt><trkpt lat="43.08818970660542" lon="11.779189183606366"><ele>508.0</ele><time>2026-05-02T12:52:40Z</time></trkpt><trkpt lat="43.08811834562924" lon="11.779085172563123"><ele>505.0</ele><time>2026-05-02T12:52:41Z</time></trkpt><trkpt lat="43.088050825931255" lon="11.778970226959744"><ele>502.0</ele><time>2026-05-02T12:52:42Z</time></trkpt><trkpt lat="43.08799325307214" lon="11.778842922526533"><ele>499.0</ele><time>2026-05-02T12:52:43Z</time></trkpt><trkpt lat="43.08794024097411" lon="11.778702288672989"><ele>499.0</ele><time>2026-05-02T12:52:44Z</time></trkpt><trkpt lat="43.08790196542282" lon="11.778555908940616"><ele>499.0</ele><time>2026-05-02T12:52:45Z</time></trkpt><trkpt lat="43.08786966467831" lon="11.77840100089737"><ele>499.0</ele><time>2026-05-02T12:52:46Z</time></trkpt><trkpt lat="43.0878521409563" lon="11.778250042989518"><ele>499.0</ele><time>2026-05-02T12:52:47Z</time></trkpt><trkpt lat="43.087840623638435" lon="11.778103828038933"><ele>500.4</ele><time>2026-05-02T12:52:48Z</time></trkpt><trkpt lat="43.087826326539606" lon="11.777962908976964"><ele>501.79999999999995</ele><time>2026-05-02T12:52:49Z</time></trkpt><trkpt lat="43.087802896331844" lon="11.77783337814032"><ele>503.20000000000005</ele><time>2026-05-02T12:52:50Z</time></trkpt><trkpt lat="43.08777093731662" lon="11.777708608246003"><ele>504.6</ele><time>2026-05-02T12:52:51Z</time></trkpt><trkpt lat="43.08773515323812" lon="11.77759380471603"><ele>506.0</ele><time>2026-05-02T12:52:52Z</time></trkpt><trkpt lat="43.0876960631283" lon="11.7774833589355"><ele>506.8333333333333</ele><time>2026-05-02T12:52:53Z</time></trkpt><trkpt lat="43.08765691185291" lon="11.777375865108825"><ele>507.66666666666663</ele><time>2026-05-02T12:52:54Z</time></trkpt><trkpt lat="43.0876142211206" lon="11.777267286281772"><ele>508.5</ele><time>2026-05-02T12:52:55Z</time></trkpt><trkpt lat="43.08758265172367" lon="11.777158065816094"><ele>509.33333333333337</ele><time>2026-05-02T12:52:56Z</time></trkpt><trkpt lat="43.08755737061556" lon="11.777055255179807"><ele>510.1666666666667</ele><time>2026-05-02T12:52:57Z</time></trkpt><trkpt lat="43.08753976989528" lon="11.7769652498956"><ele>511.0</ele><time>2026-05-02T12:52:58Z</time></trkpt><trkpt lat="43.08752619707785" lon="11.776878674531842"><ele>511.6</ele><time>2026-05-02T12:52:59Z</time></trkpt><trkpt lat="43.08750438074348" lon="11.776740498415936"><ele>512.2</ele><time>2026-05-02T12:53:01Z</time></trkpt><trkpt lat="43.087487769160376" lon="11.776617662012647"><ele>512.8</ele><time>2026-05-02T12:53:03Z</time></trkpt><trkpt lat="43.087471110067376" lon="11.776459549519243"><ele>513.4</ele><time>2026-05-02T12:53:05Z</time></trkpt><trkpt lat="43.087459038033366" lon="11.776364878450796"><ele>514.0</ele><time>2026-05-02T12:53:06Z</time></trkpt><trkpt lat="43.087433383156785" lon="11.776259671920464"><ele>512.4</ele><time>2026-05-02T12:53:07Z</time></trkpt><trkpt lat="43.08739312292969" lon="11.776161100299563"><ele>510.79999999999995</ele><time>2026-05-02T12:53:08Z</time></trkpt><trkpt lat="43.08736235847702" lon="11.776060114777385"><ele>509.20000000000005</ele><time>2026-05-02T12:53:09Z</time></trkpt><trkpt lat="43.087335348486064" lon="11.775936157907722"><ele>507.6</ele><time>2026-05-02T12:53:10Z</time></trkpt><trkpt lat="43.08731181853" lon="11.775791706666652"><ele>506.0</ele><time>2026-05-02T12:53:11Z</time></trkpt><trkpt lat="43.08728013995605" lon="11.775629207936552"><ele>506.0</ele><time>2026-05-02T12:53:12Z</time></trkpt><trkpt lat="43.087241951484096" lon="11.7754668214574"><ele>506.0</ele><time>2026-05-02T12:53:13Z</time></trkpt><trkpt lat="43.0872024445336" lon="11.775302573148403"><ele>506.0</ele><time>2026-05-02T12:53:14Z</time></trkpt><trkpt lat="43.08715765215037" lon="11.775138241241347"><ele>506.0</ele><time>2026-05-02T12:53:15Z</time></trkpt><trkpt lat="43.0871141048274" lon="11.774965531225757"><ele>506.5</ele><time>2026-05-02T12:53:16Z</time></trkpt><trkpt lat="43.08706696162721" lon="11.77479192265129"><ele>507.0</ele><time>2026-05-02T12:53:17Z</time></trkpt><trkpt lat="43.087012277685645" lon="11.774621510660808"><ele>507.5</ele><time>2026-05-02T12:53:18Z</time></trkpt><trkpt lat="43.086951997759485" lon="11.774455911850287"><ele>508.0</ele><time>2026-05-02T12:53:19Z</time></trkpt><trkpt lat="43.086907850347714" lon="11.774289306350388"><ele>509.25</ele><time>2026-05-02T12:53:20Z</time></trkpt><trkpt lat="43.08683705344575" lon="11.774150451178956"><ele>510.5</ele><time>2026-05-02T12:53:21Z</time></trkpt><trkpt lat="43.08678554128193" lon="11.77400557281317"><ele>511.75</ele><time>2026-05-02T12:53:22Z</time></trkpt><trkpt lat="43.08673533365937" lon="11.773863466102812"><ele>513.0</ele><time>2026-05-02T12:53:23Z</time></trkpt><trkpt lat="43.086685315004864" lon="11.773727485577716"><ele>513.0</ele><time>2026-05-02T12:53:24Z</time></trkpt><trkpt lat="43.08664196218065" lon="11.773595374727918"><ele>513.0</ele><time>2026-05-02T12:53:25Z</time></trkpt><trkpt lat="43.086604768277304" lon="11.773468854001663"><ele>513.0</ele><time>2026-05-02T12:53:26Z</time></trkpt><trkpt lat="43.08657076783746" lon="11.773339759434617"><ele>513.0</ele><time>2026-05-02T12:53:27Z</time></trkpt><trkpt lat="43.086534965921494" lon="11.773204097673698"><ele>513.0</ele><time>2026-05-02T12:53:28Z</time></trkpt><trkpt lat="43.08651370288157" lon="11.773048555822871"><ele>514.5</ele><time>2026-05-02T12:53:29Z</time></trkpt><trkpt lat="43.08649451425274" lon="11.77288633666313"><ele>516.0</ele><time>2026-05-02T12:53:30Z</time></trkpt><trkpt lat="43.08647207958162" lon="11.772718071599993"><ele>517.5</ele><time>2026-05-02T12:53:31Z</time></trkpt><trkpt lat="43.08648186629534" lon="11.772548899249596"><ele>519.0</ele><time>2026-05-02T12:53:32Z</time></trkpt><trkpt lat="43.086498229122974" lon="11.772393081766134"><ele>520.5</ele><time>2026-05-02T12:53:33Z</time></trkpt><trkpt lat="43.08651571201988" lon="11.77224462374953"><ele>522.0</ele><time>2026-05-02T12:53:34Z</time></trkpt><trkpt lat="43.08653103241034" lon="11.772094539114175"><ele>523.5</ele><time>2026-05-02T12:53:35Z</time></trkpt><trkpt lat="43.08654376853994" lon="11.771931426271244"><ele>525.0</ele><time>2026-05-02T12:53:36Z</time></trkpt><trkpt lat="43.08655298941016" lon="11.771762598449415"><ele>525.25</ele><time>2026-05-02T12:53:37Z</time></trkpt><trkpt lat="43.08654237809983" lon="11.771590681142529"><ele>525.5</ele><time>2026-05-02T12:53:38Z</time></trkpt><trkpt lat="43.08653186151886" lon="11.771417112881126"><ele>525.75</ele><time>2026-05-02T12:53:39Z</time></trkpt><trkpt lat="43.08651974110403" lon="11.771241566030085"><ele>526.0</ele><time>2026-05-02T12:53:39.999Z</time></trkpt><trkpt lat="43.086506322093356" lon="11.771070819426667"><ele>524.5</ele><time>2026-05-02T12:53:40.999Z</time></trkpt><trkpt lat="43.08649563649759" lon="11.7709061218339"><ele>523.0</ele><time>2026-05-02T12:53:41.999Z</time></trkpt><trkpt lat="43.086488329263574" lon="11.770743085101893"><ele>521.5</ele><time>2026-05-02T12:53:42.999Z</time></trkpt><trkpt lat="43.08647720062661" lon="11.77058003584325"><ele>520.0</ele><time>2026-05-02T12:53:43.999Z</time></trkpt><trkpt lat="43.08646678861032" lon="11.770419290293013"><ele>520.0</ele><time>2026-05-02T12:53:44.999Z</time></trkpt><trkpt lat="43.086460132643914" lon="11.770259242875124"><ele>520.0</ele><time>2026-05-02T12:53:45.999Z</time></trkpt><trkpt lat="43.08644924066341" lon="11.770098017211481"><ele>520.0</ele><time>2026-05-02T12:53:46.999Z</time></trkpt><trkpt lat="43.08642733249121" lon="11.769929402922026"><ele>520.0</ele><time>2026-05-02T12:53:47.999Z</time></trkpt><trkpt lat="43.0863978015432" lon="11.769729290440523"><ele>518.0</ele><time>2026-05-02T12:53:48.999Z</time></trkpt><trkpt lat="43.086365358086404" lon="11.769514086383301"><ele>516.0</ele><time>2026-05-02T12:53:49.999Z</time></trkpt><trkpt lat="43.086339999272894" lon="11.76930669533471"><ele>514.0</ele><time>2026-05-02T12:53:50.999Z</time></trkpt><trkpt lat="43.08632344735279" lon="11.769100388906308"><ele>513.0</ele><time>2026-05-02T12:53:51.999Z</time></trkpt><trkpt lat="43.086323274977644" lon="11.768894634098993"><ele>512.0</ele><time>2026-05-02T12:53:52.999Z</time></trkpt><trkpt lat="43.08635462241666" lon="11.768676655445855"><ele>511.0</ele><time>2026-05-02T12:53:53.999Z</time></trkpt><trkpt lat="43.08637815476456" lon="11.768438537697573"><ele>509.6666666666667</ele><time>2026-05-02T12:53:54.999Z</time></trkpt><trkpt lat="43.086402445492126" lon="11.768187954042954"><ele>508.33333333333337</ele><time>2026-05-02T12:53:55.999Z</time></trkpt><trkpt lat="43.08642764387206" lon="11.767925877974362"><ele>507.0</ele><time>2026-05-02T12:53:56.999Z</time></trkpt><trkpt lat="43.08645388834154" lon="11.767656050699383"><ele>504.0</ele><time>2026-05-02T12:53:57.999Z</time></trkpt><trkpt lat="43.08648180858376" lon="11.76736861892671"><ele>501.0</ele><time>2026-05-02T12:53:58.999Z</time></trkpt><trkpt lat="43.08651382595533" lon="11.767039008240877"><ele>499.0</ele><time>2026-05-02T12:53:59.999Z</time></trkpt><trkpt lat="43.08654913013415" lon="11.766676681500739"><ele>497.0</ele><time>2026-05-02T12:54:00.999Z</time></trkpt><trkpt lat="43.08658400953657" lon="11.766320396049197"><ele>497.5</ele><time>2026-05-02T12:54:01.999Z</time></trkpt><trkpt lat="43.086607107600656" lon="11.765978677063556"><ele>498.0</ele><time>2026-05-02T12:54:02.999Z</time></trkpt><trkpt lat="43.08664859936719" lon="11.765646257090797"><ele>498.0</ele><time>2026-05-02T12:54:03.999Z</time></trkpt><trkpt lat="43.0866849978128" lon="11.765323933629215"><ele>498.0</ele><time>2026-05-02T12:54:04.999Z</time></trkpt><trkpt lat="43.086714322380104" lon="11.765016218506386"><ele>497.33333333333337</ele><time>2026-05-02T12:54:05.999Z</time></trkpt><trkpt lat="43.086742823289626" lon="11.764716849868991"><ele>496.6666666666667</ele><time>2026-05-02T12:54:06.999Z</time></trkpt><trkpt lat="43.086773071306965" lon="11.764421420537"><ele>496.0</ele><time>2026-05-02T12:54:07.999Z</time></trkpt><trkpt lat="43.08680897399565" lon="11.764122513997926"><ele>494.6666666666667</ele><time>2026-05-02T12:54:08.999Z</time></trkpt><trkpt lat="43.086847464353156" lon="11.763825754611174"><ele>493.33333333333337</ele><time>2026-05-02T12:54:09.999Z</time></trkpt><trkpt lat="43.08688400141403" lon="11.76353148740069"><ele>492.0</ele><time>2026-05-02T12:54:10.999Z</time></trkpt><trkpt lat="43.0869170176629" lon="11.763237835304416"><ele>491.33333333333337</ele><time>2026-05-02T12:54:11.999Z</time></trkpt><trkpt lat="43.086944169094835" lon="11.762949301142676"><ele>490.6666666666667</ele><time>2026-05-02T12:54:12.999Z</time></trkpt><trkpt lat="43.08696239712583" lon="11.762665491717826"><ele>490.0</ele><time>2026-05-02T12:54:13.999Z</time></trkpt><trkpt lat="43.08696856802984" lon="11.76238135660202"><ele>490.0</ele><time>2026-05-02T12:54:14.999Z</time></trkpt><trkpt lat="43.08695584591999" lon="11.762098852385687"><ele>490.0</ele><time>2026-05-02T12:54:16Z</time></trkpt><trkpt lat="43.086923778641015" lon="11.761817260779926"><ele>490.0</ele><time>2026-05-02T12:54:17Z</time></trkpt><trkpt lat="43.08686165706618" lon="11.761541219153607"><ele>490.0</ele><time>2026-05-02T12:54:18Z</time></trkpt><trkpt lat="43.08677917991375" lon="11.76127872512025"><ele>490.0</ele><time>2026-05-02T12:54:19Z</time></trkpt><trkpt lat="43.08670480568847" lon="11.76101739334038"><ele>490.0</ele><time>2026-05-02T12:54:20Z</time></trkpt><trkpt lat="43.08663822132899" lon="11.760753864739915"><ele>490.0</ele><time>2026-05-02T12:54:21Z</time></trkpt><trkpt lat="43.08657335505256" lon="11.760489847736908"><ele>490.0</ele><time>2026-05-02T12:54:22Z</time></trkpt><trkpt lat="43.0865308197573" lon="11.760224105681464"><ele>490.0</ele><time>2026-05-02T12:54:23Z</time></trkpt><trkpt lat="43.08654268388051" lon="11.759957585048111"><ele>490.0</ele><time>2026-05-02T12:54:24Z</time></trkpt><trkpt lat="43.08659104200503" lon="11.759703327939567"><ele>490.0</ele><time>2026-05-02T12:54:25Z</time></trkpt><trkpt lat="43.0866759104792" lon="11.759447839390143"><ele>490.0</ele><time>2026-05-02T12:54:26Z</time></trkpt><trkpt lat="43.0867840257866" lon="11.75918887775143"><ele>490.5</ele><time>2026-05-02T12:54:27Z</time></trkpt><trkpt lat="43.08691402742193" lon="11.758936000551268"><ele>491.0</ele><time>2026-05-02T12:54:28Z</time></trkpt><trkpt lat="43.08704372796245" lon="11.758685423351775"><ele>494.3333333333333</ele><time>2026-05-02T12:54:29Z</time></trkpt><trkpt lat="43.08717029840933" lon="11.758440700678937"><ele>497.66666666666663</ele><time>2026-05-02T12:54:30Z</time></trkpt><trkpt lat="43.08729825468174" lon="11.7581968695957"><ele>501.0</ele><time>2026-05-02T12:54:31Z</time></trkpt><trkpt lat="43.08742593109403" lon="11.757953404170436"><ele>496.66666666666663</ele><time>2026-05-02T12:54:32Z</time></trkpt><trkpt lat="43.0875529768882" lon="11.757710119448161"><ele>492.3333333333333</ele><time>2026-05-02T12:54:33Z</time></trkpt><trkpt lat="43.08768448542154" lon="11.757473350224956"><ele>488.0</ele><time>2026-05-02T12:54:34Z</time></trkpt><trkpt lat="43.087828220459976" lon="11.757256401577804"><ele>488.0</ele><time>2026-05-02T12:54:35Z</time></trkpt><trkpt lat="43.08800169231546" lon="11.757083945251715"><ele>488.0</ele><time>2026-05-02T12:54:36Z</time></trkpt><trkpt lat="43.08816233368271" lon="11.75689033013059"><ele>488.0</ele><time>2026-05-02T12:54:37Z</time></trkpt><trkpt lat="43.088331531418625" lon="11.756714976949448"><ele>486.66666666666663</ele><time>2026-05-02T12:54:38Z</time></trkpt><trkpt lat="43.088491046165835" lon="11.75652565541049"><ele>485.33333333333337</ele><time>2026-05-02T12:54:39Z</time></trkpt><trkpt lat="43.088636211060624" lon="11.75631978650629"><ele>484.0</ele><time>2026-05-02T12:54:40Z</time></trkpt><trkpt lat="43.08876743952837" lon="11.75610055949285"><ele>483.0</ele><time>2026-05-02T12:54:41Z</time></trkpt><trkpt lat="43.08888569559523" lon="11.755867480761278"><ele>482.0</ele><time>2026-05-02T12:54:42Z</time></trkpt><trkpt lat="43.08900222497512" lon="11.755639434014599"><ele>481.0</ele><time>2026-05-02T12:54:43Z</time></trkpt><trkpt lat="43.08911576951458" lon="11.755413611747352"><ele>484.33333333333337</ele><time>2026-05-02T12:54:44Z</time></trkpt><trkpt lat="43.08922597808512" lon="11.755193316145967"><ele>487.66666666666663</ele><time>2026-05-02T12:54:45Z</time></trkpt><trkpt lat="43.08933408067005" lon="11.754975866839636"><ele>491.0</ele><time>2026-05-02T12:54:46Z</time></trkpt><trkpt lat="43.08944150906139" lon="11.75477173162136"><ele>491.0</ele><time>2026-05-02T12:54:47Z</time></trkpt><trkpt lat="43.0895726827052" lon="11.754602454575574"><ele>491.0</ele><time>2026-05-02T12:54:48Z</time></trkpt><trkpt lat="43.08972882234084" lon="11.754464086136165"><ele>491.0</ele><time>2026-05-02T12:54:49Z</time></trkpt><trkpt lat="43.089905269199534" lon="11.754368588671026"><ele>491.3333333333333</ele><time>2026-05-02T12:54:50Z</time></trkpt><trkpt lat="43.09009496342993" lon="11.754308010457816"><ele>491.66666666666663</ele><time>2026-05-02T12:54:51Z</time></trkpt><trkpt lat="43.090286345392464" lon="11.75426137991936"><ele>492.0</ele><time>2026-05-02T12:54:52Z</time></trkpt><trkpt lat="43.09047819319099" lon="11.754219046918113"><ele>492.0</ele><time>2026-05-02T12:54:53Z</time></trkpt><trkpt lat="43.090669018798664" lon="11.754177075438756"><ele>492.0</ele><time>2026-05-02T12:54:54Z</time></trkpt><trkpt lat="43.09085669866055" lon="11.7541328131802"><ele>492.0</ele><time>2026-05-02T12:54:55Z</time></trkpt><trkpt lat="43.091040261857565" lon="11.754088234146908"><ele>490.33333333333337</ele><time>2026-05-02T12:54:56Z</time></trkpt><trkpt lat="43.09121376654123" lon="11.754036951974479"><ele>488.6666666666667</ele><time>2026-05-02T12:54:57Z</time></trkpt><trkpt lat="43.091370295292954" lon="11.753954036008086"><ele>487.0</ele><time>2026-05-02T12:54:58Z</time></trkpt><trkpt lat="43.09150468958449" lon="11.753827482498375"><ele>489.0</ele><time>2026-05-02T12:54:59Z</time></trkpt><trkpt lat="43.09162645019278" lon="11.753669605317057"><ele>491.0</ele><time>2026-05-02T12:55:00Z</time></trkpt><trkpt lat="43.09175021921268" lon="11.753496857861679"><ele>493.0</ele><time>2026-05-02T12:55:01Z</time></trkpt><trkpt lat="43.0918854250532" lon="11.753327968719532"><ele>493.0</ele><time>2026-05-02T12:55:02Z</time></trkpt><trkpt lat="43.0920350154742" lon="11.753163270109509"><ele>493.0</ele><time>2026-05-02T12:55:03Z</time></trkpt><trkpt lat="43.09220679525209" lon="11.75300651204319"><ele>493.0</ele><time>2026-05-02T12:55:04Z</time></trkpt><trkpt lat="43.092379958735364" lon="11.75285835369901"><ele>495.33333333333337</ele><time>2026-05-02T12:55:05Z</time></trkpt><trkpt lat="43.09255439769889" lon="11.752708596530287"><ele>497.66666666666663</ele><time>2026-05-02T12:55:06Z</time></trkpt><trkpt lat="43.09273083747074" lon="11.752568842827465"><ele>500.0</ele><time>2026-05-02T12:55:07Z</time></trkpt><trkpt lat="43.09291429283718" lon="11.75245825781639"><ele>500.0</ele><time>2026-05-02T12:55:08Z</time></trkpt><trkpt lat="43.09310305590731" lon="11.75236451015805"><ele>500.0</ele><time>2026-05-02T12:55:09Z</time></trkpt><trkpt lat="43.09329274065717" lon="11.752278868170652"><ele>500.0</ele><time>2026-05-02T12:55:10Z</time></trkpt><trkpt lat="43.09348775647842" lon="11.75219446963153"><ele>496.3333333333333</ele><time>2026-05-02T12:55:11Z</time></trkpt><trkpt lat="43.0936608171075" lon="11.752113020095166"><ele>492.66666666666663</ele><time>2026-05-02T12:55:12Z</time></trkpt><trkpt lat="43.09384079178712" lon="11.752047024496482"><ele>489.0</ele><time>2026-05-02T12:55:13Z</time></trkpt><trkpt lat="43.09402152876281" lon="11.752001352142363"><ele>491.66666666666663</ele><time>2026-05-02T12:55:14Z</time></trkpt><trkpt lat="43.09419543737102" lon="11.751959205987527"><ele>494.3333333333333</ele><time>2026-05-02T12:55:15Z</time></trkpt><trkpt lat="43.0943646307761" lon="11.751855804432301"><ele>497.0</ele><time>2026-05-02T12:55:16Z</time></trkpt><trkpt lat="43.094503676564855" lon="11.751691424496908"><ele>497.0</ele><time>2026-05-02T12:55:17Z</time></trkpt><trkpt lat="43.09460609360395" lon="11.751469209853987"><ele>497.0</ele><time>2026-05-02T12:55:18Z</time></trkpt><trkpt lat="43.09465482446878" lon="11.75120918063312"><ele>497.0</ele><time>2026-05-02T12:55:19Z</time></trkpt><trkpt lat="43.09468114441603" lon="11.750936347571859"><ele>497.3333333333333</ele><time>2026-05-02T12:55:20Z</time></trkpt><trkpt lat="43.09474642216283" lon="11.750690551648642"><ele>497.66666666666663</ele><time>2026-05-02T12:55:21Z</time></trkpt><trkpt lat="43.09483825591791" lon="11.750475971233236"><ele>498.0</ele><time>2026-05-02T12:55:22Z</time></trkpt><trkpt lat="43.094957509180425" lon="11.75029146382741"><ele>502.33333333333337</ele><time>2026-05-02T12:55:23Z</time></trkpt><trkpt lat="43.09508513772925" lon="11.750131932130543"><ele>506.6666666666667</ele><time>2026-05-02T12:55:24Z</time></trkpt><trkpt lat="43.095243825023104" lon="11.750029811116033"><ele>511.0</ele><time>2026-05-02T12:55:25Z</time></trkpt><trkpt lat="43.095410508427804" lon="11.74998779094096"><ele>511.0</ele><time>2026-05-02T12:55:26Z</time></trkpt><trkpt lat="43.095559021952404" lon="11.749946341620996"><ele>511.0</ele><time>2026-05-02T12:55:27Z</time></trkpt><trkpt lat="43.09567439110791" lon="11.749815208049599"><ele>511.0</ele><time>2026-05-02T12:55:28Z</time></trkpt><trkpt lat="43.0957524729593" lon="11.749627011323797"><ele>511.0</ele><time>2026-05-02T12:55:29Z</time></trkpt><trkpt lat="43.09580089616411" lon="11.74944764333509"><ele>511.0</ele><time>2026-05-02T12:55:30Z</time></trkpt><trkpt lat="43.09586828567912" lon="11.749296923111674"><ele>511.0</ele><time>2026-05-02T12:55:31Z</time></trkpt><trkpt lat="43.09595815154141" lon="11.749188411644646"><ele>511.0</ele><time>2026-05-02T12:55:32Z</time></trkpt><trkpt lat="43.09607099946244" lon="11.749131103820368"><ele>511.0</ele><time>2026-05-02T12:55:33Z</time></trkpt><trkpt lat="43.09620674624219" lon="11.749096760362802"><ele>511.0</ele><time>2026-05-02T12:55:34Z</time></trkpt><trkpt lat="43.096361869740484" lon="11.74904142509881"><ele>511.0</ele><time>2026-05-02T12:55:35Z</time></trkpt><trkpt lat="43.09652831396799" lon="11.748920955596521"><ele>509.6666666666667</ele><time>2026-05-02T12:55:36Z</time></trkpt><trkpt lat="43.096710000951546" lon="11.7488488797307"><ele>508.33333333333337</ele><time>2026-05-02T12:55:37Z</time></trkpt><trkpt lat="43.09689591364825" lon="11.748848078186265"><ele>507.0</ele><time>2026-05-02T12:55:38Z</time></trkpt><trkpt lat="43.09708937824731" lon="11.748871498107263"><ele>507.0</ele><time>2026-05-02T12:55:38.999Z</time></trkpt><trkpt lat="43.09729316142554" lon="11.748904039135235"><ele>507.0</ele><time>2026-05-02T12:55:39.999Z</time></trkpt><trkpt lat="43.09746861835098" lon="11.748864686399001"><ele>507.0</ele><time>2026-05-02T12:55:40.999Z</time></trkpt><trkpt lat="43.09763239196679" lon="11.74875774872229"><ele>506.66666666666663</ele><time>2026-05-02T12:55:41.999Z</time></trkpt><trkpt lat="43.09778365522336" lon="11.748586589543267"><ele>506.3333333333333</ele><time>2026-05-02T12:55:42.999Z</time></trkpt><trkpt lat="43.09793683454539" lon="11.748371868740046"><ele>506.0</ele><time>2026-05-02T12:55:43.999Z</time></trkpt><trkpt lat="43.09809386438703" lon="11.748141650731437"><ele>506.0</ele><time>2026-05-02T12:55:44.999Z</time></trkpt><trkpt lat="43.098253661759315" lon="11.74792654182409"><ele>506.0</ele><time>2026-05-02T12:55:45.999Z</time></trkpt><trkpt lat="43.0984285769853" lon="11.74773788749436"><ele>506.0</ele><time>2026-05-02T12:55:46.999Z</time></trkpt><trkpt lat="43.098608461795806" lon="11.74758234767704"><ele>510.0</ele><time>2026-05-02T12:55:47.999Z</time></trkpt><trkpt lat="43.09877679253117" lon="11.74745980765309"><ele>514.0</ele><time>2026-05-02T12:55:48.999Z</time></trkpt><trkpt lat="43.09892928133227" lon="11.747340071178693"><ele>518.0</ele><time>2026-05-02T12:55:49.999Z</time></trkpt><trkpt lat="43.09906587728147" lon="11.747225429674149"><ele>517.25</ele><time>2026-05-02T12:55:50.999Z</time></trkpt><trkpt lat="43.099186313534844" lon="11.747110208000302"><ele>516.5</ele><time>2026-05-02T12:55:51.999Z</time></trkpt><trkpt lat="43.09928635407387" lon="11.74698423923336"><ele>515.75</ele><time>2026-05-02T12:55:52.999Z</time></trkpt><trkpt lat="43.09935493009987" lon="11.746833837306342"><ele>515.0</ele><time>2026-05-02T12:55:53.999Z</time></trkpt><trkpt lat="43.09940980241031" lon="11.746675650636885"><ele>515.0</ele><time>2026-05-02T12:55:54.999Z</time></trkpt><trkpt lat="43.0994486216813" lon="11.746518928035805"><ele>515.0</ele><time>2026-05-02T12:55:55.999Z</time></trkpt><trkpt lat="43.09949111243801" lon="11.746372674181062"><ele>515.0</ele><time>2026-05-02T12:55:56.999Z</time></trkpt><trkpt lat="43.09953430088963" lon="11.74623672603042"><ele>515.0</ele><time>2026-05-02T12:55:57.999Z</time></trkpt><trkpt lat="43.099579537936506" lon="11.74610859899723"><ele>515.0</ele><time>2026-05-02T12:55:58.999Z</time></trkpt><trkpt lat="43.09963958669699" lon="11.745988426367568"><ele>514.75</ele><time>2026-05-02T12:55:59.999Z</time></trkpt><trkpt lat="43.09972062483545" lon="11.74588146420482"><ele>514.5</ele><time>2026-05-02T12:56:00.999Z</time></trkpt><trkpt lat="43.09982442909839" lon="11.745794220473496"><ele>514.25</ele><time>2026-05-02T12:56:01.999Z</time></trkpt><trkpt lat="43.09994270424996" lon="11.745732851305542"><ele>514.0</ele><time>2026-05-02T12:56:02.999Z</time></trkpt><trkpt lat="43.10006444981522" lon="11.745699473265015"><ele>512.8</ele><time>2026-05-02T12:56:03.999Z</time></trkpt><trkpt lat="43.10018474633795" lon="11.745698681921919"><ele>511.59999999999997</ele><time>2026-05-02T12:56:04.999Z</time></trkpt><trkpt lat="43.100297363646774" lon="11.745702024856428"><ele>510.4</ele><time>2026-05-02T12:56:05.999Z</time></trkpt><trkpt lat="43.100401528334494" lon="11.745694499910257"><ele>509.2</ele><time>2026-05-02T12:56:06.999Z</time></trkpt><trkpt lat="43.10049335531436" lon="11.745656130826049"><ele>508.0</ele><time>2026-05-02T12:56:07.999Z</time></trkpt><trkpt lat="43.100581255622096" lon="11.745582529480117"><ele>508.0</ele><time>2026-05-02T12:56:08.999Z</time></trkpt><trkpt lat="43.1006595556949" lon="11.745472173324554"><ele>508.0</ele><time>2026-05-02T12:56:09.999Z</time></trkpt><trkpt lat="43.10072085662331" lon="11.745334429073758"><ele>508.0</ele><time>2026-05-02T12:56:10.999Z</time></trkpt><trkpt lat="43.10075324190826" lon="11.745164792701932"><ele>508.0</ele><time>2026-05-02T12:56:11.999Z</time></trkpt><trkpt lat="43.10076945325366" lon="11.744984773853847"><ele>507.75</ele><time>2026-05-02T12:56:12.999Z</time></trkpt><trkpt lat="43.100771215523096" lon="11.744799073794702"><ele>507.5</ele><time>2026-05-02T12:56:13.999Z</time></trkpt><trkpt lat="43.100777464327415" lon="11.744620504949976"><ele>507.25</ele><time>2026-05-02T12:56:14.999Z</time></trkpt><trkpt lat="43.1007823847462" lon="11.744444152379247"><ele>507.0</ele><time>2026-05-02T12:56:15.999Z</time></trkpt><trkpt lat="43.10079095957017" lon="11.74427019190053"><ele>507.0</ele><time>2026-05-02T12:56:16.999Z</time></trkpt><trkpt lat="43.100800677882596" lon="11.744097188333386"><ele>507.0</ele><time>2026-05-02T12:56:17.999Z</time></trkpt><trkpt lat="43.100809228810185" lon="11.743927966655107"><ele>507.0</ele><time>2026-05-02T12:56:18.999Z</time></trkpt><trkpt lat="43.10081878502473" lon="11.743766498749881"><ele>507.0</ele><time>2026-05-02T12:56:19.999Z</time></trkpt><trkpt lat="43.10082162624785" lon="11.74360742620149"><ele>506.25</ele><time>2026-05-02T12:56:20.999Z</time></trkpt><trkpt lat="43.10080321598886" lon="11.743447923160149"><ele>505.5</ele><time>2026-05-02T12:56:22Z</time></trkpt><trkpt lat="43.10076506685008" lon="11.743290966627464"><ele>504.75</ele><time>2026-05-02T12:56:23Z</time></trkpt><trkpt lat="43.10070081666452" lon="11.743140370266213"><ele>504.0</ele><time>2026-05-02T12:56:24Z</time></trkpt><trkpt lat="43.10062321068762" lon="11.742993823503841"><ele>504.0</ele><time>2026-05-02T12:56:25Z</time></trkpt><trkpt lat="43.10052442261922" lon="11.742860910688735"><ele>504.0</ele><time>2026-05-02T12:56:26Z</time></trkpt><trkpt lat="43.10041842901042" lon="11.742735315931533"><ele>504.0</ele><time>2026-05-02T12:56:27Z</time></trkpt><trkpt lat="43.10030862700617" lon="11.742617410491247"><ele>504.0</ele><time>2026-05-02T12:56:28Z</time></trkpt><trkpt lat="43.10020304154247" lon="11.742504610895002"><ele>504.0</ele><time>2026-05-02T12:56:29Z</time></trkpt><trkpt lat="43.10010799957938" lon="11.742400233461721"><ele>504.0</ele><time>2026-05-02T12:56:30Z</time></trkpt><trkpt lat="43.10001485749359" lon="11.742296902730342"><ele>504.0</ele><time>2026-05-02T12:56:31Z</time></trkpt><trkpt lat="43.09992008820154" lon="11.742190897702217"><ele>504.0</ele><time>2026-05-02T12:56:32Z</time></trkpt><trkpt lat="43.09982323606145" lon="11.742085098981427"><ele>504.2</ele><time>2026-05-02T12:56:33Z</time></trkpt><trkpt lat="43.09972569979943" lon="11.741983292714385"><ele>504.4</ele><time>2026-05-02T12:56:34Z</time></trkpt><trkpt lat="43.09963029860703" lon="11.741901053857237"><ele>504.6</ele><time>2026-05-02T12:56:35Z</time></trkpt><trkpt lat="43.09953575046973" lon="11.741841061962988"><ele>504.8</ele><time>2026-05-02T12:56:36Z</time></trkpt><trkpt lat="43.099443686924126" lon="11.741797776040572"><ele>505.0</ele><time>2026-05-02T12:56:37Z</time></trkpt><trkpt lat="43.0993549449356" lon="11.741763120846882"><ele>504.4</ele><time>2026-05-02T12:56:38Z</time></trkpt><trkpt lat="43.09926634648033" lon="11.741731198071431"><ele>503.8</ele><time>2026-05-02T12:56:39Z</time></trkpt><trkpt lat="43.09917042356764" lon="11.74169631405489"><ele>503.20000000000005</ele><time>2026-05-02T12:56:40Z</time></trkpt><trkpt lat="43.099069226838246" lon="11.741658919712874"><ele>502.6</ele><time>2026-05-02T12:56:41Z</time></trkpt><trkpt lat="43.098967524794595" lon="11.741605705327764"><ele>502.0</ele><time>2026-05-02T12:56:42Z</time></trkpt><trkpt lat="43.0988746630779" lon="11.741523262805087"><ele>501.0</ele><time>2026-05-02T12:56:43Z</time></trkpt><trkpt lat="43.09879737279578" lon="11.741402336542947"><ele>500.0</ele><time>2026-05-02T12:56:44Z</time></trkpt><trkpt lat="43.09876409894624" lon="11.741232343803595"><ele>499.0</ele><time>2026-05-02T12:56:45Z</time></trkpt><trkpt lat="43.098741844231206" lon="11.741053308508477"><ele>498.0</ele><time>2026-05-02T12:56:46Z</time></trkpt><trkpt lat="43.09871385629919" lon="11.740880694421591"><ele>497.5</ele><time>2026-05-02T12:56:47Z</time></trkpt><trkpt lat="43.09870713065476" lon="11.740710669360828"><ele>497.0</ele><time>2026-05-02T12:56:48Z</time></trkpt><trkpt lat="43.098691433254366" lon="11.740545076734644"><ele>496.5</ele><time>2026-05-02T12:56:49Z</time></trkpt><trkpt lat="43.09867257813148" lon="11.740375174990618"><ele>496.0</ele><time>2026-05-02T12:56:50Z</time></trkpt><trkpt lat="43.09865844006782" lon="11.74020245662617"><ele>495.75</ele><time>2026-05-02T12:56:51Z</time></trkpt><trkpt lat="43.09866015016795" lon="11.74002615472742"><ele>495.5</ele><time>2026-05-02T12:56:52Z</time></trkpt><trkpt lat="43.098688665933324" lon="11.739847465470106"><ele>495.25</ele><time>2026-05-02T12:56:53Z</time></trkpt><trkpt lat="43.09873851129291" lon="11.739677244969839"><ele>495.0</ele><time>2026-05-02T12:56:54Z</time></trkpt><trkpt lat="43.098798768457364" lon="11.739514187128565"><ele>495.25</ele><time>2026-05-02T12:56:55Z</time></trkpt><trkpt lat="43.098860077172446" lon="11.739359403629232"><ele>495.5</ele><time>2026-05-02T12:56:56Z</time></trkpt><trkpt lat="43.09891598533858" lon="11.739202441675259"><ele>495.75</ele><time>2026-05-02T12:56:57Z</time></trkpt><trkpt lat="43.098956810276626" lon="11.73903534424867"><ele>496.0</ele><time>2026-05-02T12:56:58Z</time></trkpt><trkpt lat="43.09897173907664" lon="11.738853525233548"><ele>496.0</ele><time>2026-05-02T12:56:59Z</time></trkpt><trkpt lat="43.098949771783154" lon="11.73867246352614"><ele>496.0</ele><time>2026-05-02T12:57:00Z</time></trkpt><trkpt lat="43.098918537665234" lon="11.738493780734576"><ele>496.0</ele><time>2026-05-02T12:57:01Z</time></trkpt><trkpt lat="43.098878043755256" lon="11.738328640438539"><ele>496.0</ele><time>2026-05-02T12:57:02Z</time></trkpt><trkpt lat="43.09883437803736" lon="11.73817154890777"><ele>496.25</ele><time>2026-05-02T12:57:03Z</time></trkpt><trkpt lat="43.09878170400608" lon="11.738022730889941"><ele>496.5</ele><time>2026-05-02T12:57:04Z</time></trkpt><trkpt lat="43.09872029348589" lon="11.737874317934091"><ele>496.75</ele><time>2026-05-02T12:57:05Z</time></trkpt><trkpt lat="43.09866535805782" lon="11.737716372181739"><ele>497.0</ele><time>2026-05-02T12:57:06Z</time></trkpt><trkpt lat="43.09862638573091" lon="11.737541750422881"><ele>497.5</ele><time>2026-05-02T12:57:07Z</time></trkpt><trkpt lat="43.098608733122035" lon="11.737351040674831"><ele>498.0</ele><time>2026-05-02T12:57:08Z</time></trkpt><trkpt lat="43.0986011057227" lon="11.737158909809766"><ele>498.5</ele><time>2026-05-02T12:57:09Z</time></trkpt><trkpt lat="43.09858761787617" lon="11.736972909149019"><ele>499.0</ele><time>2026-05-02T12:57:10Z</time></trkpt><trkpt lat="43.09857188990745" lon="11.736790799770896"><ele>499.5</ele><time>2026-05-02T12:57:11Z</time></trkpt><trkpt lat="43.09855757855954" lon="11.736612183544613"><ele>500.0</ele><time>2026-05-02T12:57:12Z</time></trkpt><trkpt lat="43.09854488277829" lon="11.73643752030234"><ele>500.5</ele><time>2026-05-02T12:57:13Z</time></trkpt><trkpt lat="43.09854389162669" lon="11.736248728641966"><ele>501.0</ele><time>2026-05-02T12:57:14Z</time></trkpt><trkpt lat="43.09854976989877" lon="11.736051757559194"><ele>501.5</ele><time>2026-05-02T12:57:15Z</time></trkpt><trkpt lat="43.09855171034584" lon="11.73585358218132"><ele>502.0</ele><time>2026-05-02T12:57:16Z</time></trkpt><trkpt lat="43.09853609992034" lon="11.735652133907237"><ele>502.5</ele><time>2026-05-02T12:57:17Z</time></trkpt><trkpt lat="43.09850081272051" lon="11.735462250959023"><ele>503.0</ele><time>2026-05-02T12:57:18Z</time></trkpt><trkpt lat="43.09845702901878" lon="11.735287234356008"><ele>501.75</ele><time>2026-05-02T12:57:19Z</time></trkpt><trkpt lat="43.09841160278937" lon="11.73512515621932"><ele>500.5</ele><time>2026-05-02T12:57:20Z</time></trkpt><trkpt lat="43.09837636335925" lon="11.734951287694535"><ele>499.25</ele><time>2026-05-02T12:57:21Z</time></trkpt><trkpt lat="43.09835554711353" lon="11.734763195353548"><ele>498.0</ele><time>2026-05-02T12:57:22Z</time></trkpt><trkpt lat="43.09834867909946" lon="11.73457237552544"><ele>497.5</ele><time>2026-05-02T12:57:23Z</time></trkpt><trkpt lat="43.0983533508438" lon="11.734384184624648"><ele>497.0</ele><time>2026-05-02T12:57:24Z</time></trkpt><trkpt lat="43.09836840326185" lon="11.734206393357077"><ele>496.5</ele><time>2026-05-02T12:57:25Z</time></trkpt><trkpt lat="43.098384828949946" lon="11.734031680200946"><ele>496.0</ele><time>2026-05-02T12:57:26Z</time></trkpt><trkpt lat="43.098398628642116" lon="11.73385432498621"><ele>496.0</ele><time>2026-05-02T12:57:27Z</time></trkpt><trkpt lat="43.09840981466101" lon="11.733671583344426"><ele>496.0</ele><time>2026-05-02T12:57:28Z</time></trkpt><trkpt lat="43.09842085796969" lon="11.733487611744193"><ele>496.0</ele><time>2026-05-02T12:57:29Z</time></trkpt><trkpt lat="43.09843396057065" lon="11.73330187288263"><ele>496.0</ele><time>2026-05-02T12:57:30Z</time></trkpt><trkpt lat="43.09844569907129" lon="11.73311830668205"><ele>495.0</ele><time>2026-05-02T12:57:31Z</time></trkpt><trkpt lat="43.09845920953572" lon="11.732937737565964"><ele>494.0</ele><time>2026-05-02T12:57:32Z</time></trkpt><trkpt lat="43.09847778107918" lon="11.732756641582267"><ele>493.0</ele><time>2026-05-02T12:57:33Z</time></trkpt><trkpt lat="43.09851146852529" lon="11.732573370202907"><ele>492.0</ele><time>2026-05-02T12:57:34Z</time></trkpt><trkpt lat="43.098560654814236" lon="11.732390750802045"><ele>491.0</ele><time>2026-05-02T12:57:35Z</time></trkpt><trkpt lat="43.098627064242145" lon="11.732210442125762"><ele>490.0</ele><time>2026-05-02T12:57:36Z</time></trkpt><trkpt lat="43.0987128933273" lon="11.732035172311283"><ele>489.0</ele><time>2026-05-02T12:57:36.999Z</time></trkpt><trkpt lat="43.098810885435626" lon="11.731862657062072"><ele>487.0</ele><time>2026-05-02T12:57:37.999Z</time></trkpt><trkpt lat="43.098911295494005" lon="11.731694527162102"><ele>485.0</ele><time>2026-05-02T12:57:38.999Z</time></trkpt><trkpt lat="43.099010470287624" lon="11.731525125898386"><ele>483.0</ele><time>2026-05-02T12:57:39.999Z</time></trkpt><trkpt lat="43.09910541200103" lon="11.731358590780019"><ele>483.0</ele><time>2026-05-02T12:57:40.999Z</time></trkpt><trkpt lat="43.09919619858715" lon="11.731191997042078"><ele>483.0</ele><time>2026-05-02T12:57:41.999Z</time></trkpt><trkpt lat="43.099284203475264" lon="11.73103077076888"><ele>483.0</ele><time>2026-05-02T12:57:42.999Z</time></trkpt><trkpt lat="43.09937473734584" lon="11.730871569995164"><ele>483.0</ele><time>2026-05-02T12:57:43.999Z</time></trkpt><trkpt lat="43.09947084307904" lon="11.730715611522983"><ele>482.33333333333337</ele><time>2026-05-02T12:57:44.999Z</time></trkpt><trkpt lat="43.099561912080794" lon="11.730557142014042"><ele>481.6666666666667</ele><time>2026-05-02T12:57:45.999Z</time></trkpt><trkpt lat="43.09965547934068" lon="11.730385683745165"><ele>481.0</ele><time>2026-05-02T12:57:46.999Z</time></trkpt><trkpt lat="43.099762459797546" lon="11.73020791418572"><ele>481.0</ele><time>2026-05-02T12:57:47.999Z</time></trkpt><trkpt lat="43.09987615020748" lon="11.729995636640446"><ele>481.0</ele><time>2026-05-02T12:57:48.999Z</time></trkpt><trkpt lat="43.10000008890326" lon="11.72976181920365"><ele>481.0</ele><time>2026-05-02T12:57:49.999Z</time></trkpt><trkpt lat="43.100094878938854" lon="11.729548010400356"><ele>483.6666666666667</ele><time>2026-05-02T12:57:50.999Z</time></trkpt><trkpt lat="43.10018839413223" lon="11.729350266145897"><ele>486.33333333333337</ele><time>2026-05-02T12:57:51.999Z</time></trkpt><trkpt lat="43.10027863433577" lon="11.729151745678836"><ele>489.0</ele><time>2026-05-02T12:57:52.999Z</time></trkpt><trkpt lat="43.100375735670255" lon="11.728934110812721"><ele>489.0</ele><time>2026-05-02T12:57:53.999Z</time></trkpt><trkpt lat="43.100482870252115" lon="11.728702192237815"><ele>489.0</ele><time>2026-05-02T12:57:54.999Z</time></trkpt><trkpt lat="43.100589718391944" lon="11.728498481131462"><ele>489.0</ele><time>2026-05-02T12:57:55.999Z</time></trkpt><trkpt lat="43.10068217089575" lon="11.728296183536502"><ele>490.33333333333337</ele><time>2026-05-02T12:57:56.999Z</time></trkpt><trkpt lat="43.100768197214585" lon="11.728080354274514"><ele>491.6666666666667</ele><time>2026-05-02T12:57:57.999Z</time></trkpt><trkpt lat="43.10084460648747" lon="11.727858457361304"><ele>493.0</ele><time>2026-05-02T12:57:58.999Z</time></trkpt><trkpt lat="43.10091334260698" lon="11.727642131192228"><ele>493.0</ele><time>2026-05-02T12:57:59.999Z</time></trkpt><trkpt lat="43.10098389590499" lon="11.727402105166579"><ele>493.0</ele><time>2026-05-02T12:58:00.999Z</time></trkpt><trkpt lat="43.10106609420811" lon="11.727119143667291"><ele>493.0</ele><time>2026-05-02T12:58:01.999Z</time></trkpt><trkpt lat="43.10113915477835" lon="11.726801300332571"><ele>495.0</ele><time>2026-05-02T12:58:02.999Z</time></trkpt><trkpt lat="43.10119615387392" lon="11.7264747676166"><ele>497.0</ele><time>2026-05-02T12:58:03.999Z</time></trkpt><trkpt lat="43.1012673005505" lon="11.72616772230513"><ele>495.5</ele><time>2026-05-02T12:58:04.999Z</time></trkpt><trkpt lat="43.10133081201147" lon="11.725854887649229"><ele>494.0</ele><time>2026-05-02T12:58:05.999Z</time></trkpt><trkpt lat="43.10139352269075" lon="11.725544126604616"><ele>494.0</ele><time>2026-05-02T12:58:06.999Z</time></trkpt><trkpt lat="43.10146129477455" lon="11.725239586782072"><ele>494.0</ele><time>2026-05-02T12:58:07.999Z</time></trkpt><trkpt lat="43.101539237191" lon="11.72494493516154"><ele>490.3333333333333</ele><time>2026-05-02T12:58:08.999Z</time></trkpt><trkpt lat="43.101631023334285" lon="11.724660580625809"><ele>486.66666666666663</ele><time>2026-05-02T12:58:09.999Z</time></trkpt><trkpt lat="43.101733342046636" lon="11.724400048811326"><ele>483.0</ele><time>2026-05-02T12:58:10.999Z</time></trkpt><trkpt lat="43.10183038380592" lon="11.724160856166007"><ele>483.0</ele><time>2026-05-02T12:58:11.999Z</time></trkpt><trkpt lat="43.10191391329112" lon="11.723944489117251"><ele>483.0</ele><time>2026-05-02T12:58:12.999Z</time></trkpt><trkpt lat="43.10200620527609" lon="11.723748671901136"><ele>483.0</ele><time>2026-05-02T12:58:13.999Z</time></trkpt><trkpt lat="43.10212548681393" lon="11.723616305117892"><ele>484.33333333333337</ele><time>2026-05-02T12:58:14.999Z</time></trkpt><trkpt lat="43.10227900332415" lon="11.723515382179116"><ele>485.6666666666667</ele><time>2026-05-02T12:58:15.999Z</time></trkpt><trkpt lat="43.10246986830949" lon="11.72345397649456"><ele>487.0</ele><time>2026-05-02T12:58:16.999Z</time></trkpt><trkpt lat="43.102688761372164" lon="11.723448284820439"><ele>487.0</ele><time>2026-05-02T12:58:17.999Z</time></trkpt><trkpt lat="43.10291591233268" lon="11.723458620426776"><ele>487.0</ele><time>2026-05-02T12:58:18.999Z</time></trkpt><trkpt lat="43.10314278466109" lon="11.723456117552017"><ele>486.0</ele><time>2026-05-02T12:58:19.999Z</time></trkpt><trkpt lat="43.103372060897186" lon="11.723442102662103"><ele>485.0</ele><time>2026-05-02T12:58:20.999Z</time></trkpt><trkpt lat="43.10359964467074" lon="11.723431507083252"><ele>485.0</ele><time>2026-05-02T12:58:21.999Z</time></trkpt><trkpt lat="43.10382457308928" lon="11.723428678378676"><ele>485.0</ele><time>2026-05-02T12:58:22.999Z</time></trkpt><trkpt lat="43.10404649159675" lon="11.723433817219286"><ele>485.0</ele><time>2026-05-02T12:58:23.999Z</time></trkpt><trkpt lat="43.10426333379446" lon="11.723441236556624"><ele>486.0</ele><time>2026-05-02T12:58:24.999Z</time></trkpt><trkpt lat="43.104472223655314" lon="11.723448620919044"><ele>487.0</ele><time>2026-05-02T12:58:25.999Z</time></trkpt><trkpt lat="43.104677084863205" lon="11.72345569970953"><ele>488.0</ele><time>2026-05-02T12:58:26.999Z</time></trkpt><trkpt lat="43.10487634672102" lon="11.723464826207104"><ele>488.0</ele><time>2026-05-02T12:58:28Z</time></trkpt><trkpt lat="43.10506545190881" lon="11.723491363436048"><ele>488.0</ele><time>2026-05-02T12:58:29Z</time></trkpt><trkpt lat="43.10525955060014" lon="11.72355932345009"><ele>488.0</ele><time>2026-05-02T12:58:30Z</time></trkpt><trkpt lat="43.10544136812761" lon="11.723640802532225"><ele>488.0</ele><time>2026-05-02T12:58:31Z</time></trkpt><trkpt lat="43.1056274762574" lon="11.723709251864562"><ele>488.0</ele><time>2026-05-02T12:58:32Z</time></trkpt><trkpt lat="43.10580023057488" lon="11.723794520450202"><ele>488.0</ele><time>2026-05-02T12:58:33Z</time></trkpt><trkpt lat="43.105970712533335" lon="11.72386730855079"><ele>488.66666666666663</ele><time>2026-05-02T12:58:34Z</time></trkpt><trkpt lat="43.106145302983116" lon="11.723925320370789"><ele>489.33333333333337</ele><time>2026-05-02T12:58:35Z</time></trkpt><trkpt lat="43.10632282965927" lon="11.723961257974354"><ele>490.0</ele><time>2026-05-02T12:58:36Z</time></trkpt><trkpt lat="43.10649582110015" lon="11.72397172273357"><ele>489.33333333333337</ele><time>2026-05-02T12:58:37Z</time></trkpt><trkpt lat="43.10666670333584" lon="11.723972029572986"><ele>488.66666666666663</ele><time>2026-05-02T12:58:38Z</time></trkpt><trkpt lat="43.106836395317146" lon="11.723968489353771"><ele>488.0</ele><time>2026-05-02T12:58:39Z</time></trkpt><trkpt lat="43.1070033349888" lon="11.723960336398056"><ele>488.0</ele><time>2026-05-02T12:58:40Z</time></trkpt><trkpt lat="43.10717047679028" lon="11.723958627060549"><ele>488.0</ele><time>2026-05-02T12:58:41Z</time></trkpt><trkpt lat="43.107332880430036" lon="11.72396381204355"><ele>488.0</ele><time>2026-05-02T12:58:42Z</time></trkpt><trkpt lat="43.10748721836482" lon="11.723969649481369"><ele>487.75</ele><time>2026-05-02T12:58:43Z</time></trkpt><trkpt lat="43.10763890752397" lon="11.723975364553587"><ele>487.5</ele><time>2026-05-02T12:58:44Z</time></trkpt><trkpt lat="43.10778006610643" lon="11.723977088637788"><ele>487.25</ele><time>2026-05-02T12:58:45Z</time></trkpt><trkpt lat="43.10791713082414" lon="11.723977786612952"><ele>487.0</ele><time>2026-05-02T12:58:46Z</time></trkpt><trkpt lat="43.108048197580004" lon="11.723977740139764"><ele>487.0</ele><time>2026-05-02T12:58:47Z</time></trkpt><trkpt lat="43.10818623310868" lon="11.723977130325652"><ele>487.0</ele><time>2026-05-02T12:58:48Z</time></trkpt><trkpt lat="43.108324575934226" lon="11.72393745653606"><ele>487.0</ele><time>2026-05-02T12:58:49Z</time></trkpt><trkpt lat="43.10845677666898" lon="11.72384708521744"><ele>487.0</ele><time>2026-05-02T12:58:50Z</time></trkpt><trkpt lat="43.108579853307006" lon="11.723734305724863"><ele>487.0</ele><time>2026-05-02T12:58:51Z</time></trkpt><trkpt lat="43.10868327939979" lon="11.72359471921109"><ele>487.0</ele><time>2026-05-02T12:58:52Z</time></trkpt><trkpt lat="43.10876201215756" lon="11.723419631799322"><ele>487.0</ele><time>2026-05-02T12:58:53Z</time></trkpt><trkpt lat="43.10882845197864" lon="11.723248762505982"><ele>487.0</ele><time>2026-05-02T12:58:54Z</time></trkpt><trkpt lat="43.108876074732144" lon="11.723064008568224"><ele>488.25</ele><time>2026-05-02T12:58:55Z</time></trkpt><trkpt lat="43.10889781850879" lon="11.72287225351396"><ele>489.5</ele><time>2026-05-02T12:58:56Z</time></trkpt><trkpt lat="43.10889374912938" lon="11.722675626822921"><ele>490.75</ele><time>2026-05-02T12:58:57Z</time></trkpt><trkpt lat="43.108900472919665" lon="11.722477680475048"><ele>492.0</ele><time>2026-05-02T12:58:58Z</time></trkpt><trkpt lat="43.10891111563979" lon="11.72228158766285"><ele>493.0</ele><time>2026-05-02T12:58:59Z</time></trkpt><trkpt lat="43.10877079535066" lon="11.722075252018234"><ele>494.0</ele><time>2026-05-02T12:59:00Z</time></trkpt><trkpt lat="43.108718705721444" lon="11.721879083899454"><ele>495.0</ele><time>2026-05-02T12:59:01Z</time></trkpt><trkpt lat="43.10867162058347" lon="11.721684397088554"><ele>495.75</ele><time>2026-05-02T12:59:02Z</time></trkpt><trkpt lat="43.10862560143205" lon="11.721489399208213"><ele>496.5</ele><time>2026-05-02T12:59:03Z</time></trkpt><trkpt lat="43.10857208810645" lon="11.72130125459623"><ele>497.25</ele><time>2026-05-02T12:59:04Z</time></trkpt><trkpt lat="43.10850130421575" lon="11.721117285024135"><ele>498.0</ele><time>2026-05-02T12:59:05Z</time></trkpt><trkpt lat="43.108420908568654" lon="11.720935918755458"><ele>498.33333333333337</ele><time>2026-05-02T12:59:06Z</time></trkpt><trkpt lat="43.10833462104684" lon="11.720756130482632"><ele>498.6666666666667</ele><time>2026-05-02T12:59:07Z</time></trkpt><trkpt lat="43.10824546294238" lon="11.720581336300926"><ele>499.0</ele><time>2026-05-02T12:59:08Z</time></trkpt><trkpt lat="43.108149548351264" lon="11.720404815614835"><ele>497.33333333333337</ele><time>2026-05-02T12:59:09Z</time></trkpt><trkpt lat="43.10804353237736" lon="11.720220330825946"><ele>495.66666666666663</ele><time>2026-05-02T12:59:10Z</time></trkpt><trkpt lat="43.10792934919632" lon="11.720021503036165"><ele>494.0</ele><time>2026-05-02T12:59:11Z</time></trkpt><trkpt lat="43.10781128423934" lon="11.719808918523745"><ele>494.0</ele><time>2026-05-02T12:59:12Z</time></trkpt><trkpt lat="43.107684804102774" lon="11.719564431035518"><ele>494.0</ele><time>2026-05-02T12:59:13Z</time></trkpt><trkpt lat="43.107556456959784" lon="11.71929088109777"><ele>494.0</ele><time>2026-05-02T12:59:14Z</time></trkpt><trkpt lat="43.1074299608898" lon="11.719003039653192"><ele>494.0</ele><time>2026-05-02T12:59:15Z</time></trkpt><trkpt lat="43.10730954960033" lon="11.718730048435882"><ele>494.5</ele><time>2026-05-02T12:59:16Z</time></trkpt><trkpt lat="43.107189564026484" lon="11.718467502683898"><ele>495.0</ele><time>2026-05-02T12:59:17Z</time></trkpt><trkpt lat="43.10706343936729" lon="11.718210615786761"><ele>495.0</ele><time>2026-05-02T12:59:18Z</time></trkpt><trkpt lat="43.10692871235286" lon="11.717974804554055"><ele>495.0</ele><time>2026-05-02T12:59:19Z</time></trkpt><trkpt lat="43.10677295336168" lon="11.717752337280734"><ele>495.0</ele><time>2026-05-02T12:59:20Z</time></trkpt><trkpt lat="43.106606124862786" lon="11.717538268566988"><ele>497.5</ele><time>2026-05-02T12:59:21Z</time></trkpt><trkpt lat="43.106434791865276" lon="11.717313875795117"><ele>500.0</ele><time>2026-05-02T12:59:22Z</time></trkpt><trkpt lat="43.106262722518" lon="11.717081692350442"><ele>500.5</ele><time>2026-05-02T12:59:23Z</time></trkpt><trkpt lat="43.10609304449361" lon="11.716849967479268"><ele>501.0</ele><time>2026-05-02T12:59:24Z</time></trkpt><trkpt lat="43.10592774933281" lon="11.716627013187136"><ele>501.0</ele><time>2026-05-02T12:59:25Z</time></trkpt><trkpt lat="43.10576766995588" lon="11.716413024686242"><ele>501.0</ele><time>2026-05-02T12:59:26Z</time></trkpt><trkpt lat="43.105616625866" lon="11.716207125537482"><ele>501.0</ele><time>2026-05-02T12:59:27Z</time></trkpt><trkpt lat="43.10548597154642" lon="11.716009770143227"><ele>501.0</ele><time>2026-05-02T12:59:28Z</time></trkpt><trkpt lat="43.105398212467634" lon="11.71581190117063"><ele>501.0</ele><time>2026-05-02T12:59:29Z</time></trkpt><trkpt lat="43.10536106091065" lon="11.71559032925407"><ele>501.0</ele><time>2026-05-02T12:59:30Z</time></trkpt><trkpt lat="43.105366866648424" lon="11.715338793767652"><ele>500.66666666666663</ele><time>2026-05-02T12:59:31Z</time></trkpt><trkpt lat="43.10539075250684" lon="11.715070645578443"><ele>500.3333333333333</ele><time>2026-05-02T12:59:32Z</time></trkpt><trkpt lat="43.10541552226535" lon="11.714793298801332"><ele>500.0</ele><time>2026-05-02T12:59:33Z</time></trkpt><trkpt lat="43.105437727835884" lon="11.714508531390239"><ele>499.0</ele><time>2026-05-02T12:59:34Z</time></trkpt><trkpt lat="43.10545400173604" lon="11.714224060051254"><ele>498.0</ele><time>2026-05-02T12:59:35Z</time></trkpt><trkpt lat="43.105465718344966" lon="11.713933084927824"><ele>497.0</ele><time>2026-05-02T12:59:36Z</time></trkpt><trkpt lat="43.1054771459627" lon="11.713642104291424"><ele>496.66666666666663</ele><time>2026-05-02T12:59:37Z</time></trkpt><trkpt lat="43.105495873615276" lon="11.713352922791637"><ele>496.33333333333337</ele><time>2026-05-02T12:59:38Z</time></trkpt><trkpt lat="43.10554523022545" lon="11.713067597422913"><ele>496.0</ele><time>2026-05-02T12:59:39Z</time></trkpt><trkpt lat="43.10562737685336" lon="11.712792128473154"><ele>498.6666666666667</ele><time>2026-05-02T12:59:39.999Z</time></trkpt><trkpt lat="43.10571674689755" lon="11.712522217291156"><ele>501.33333333333337</ele><time>2026-05-02T12:59:40.999Z</time></trkpt><trkpt lat="43.10579016831289" lon="11.712246662256028"><ele>504.0</ele><time>2026-05-02T12:59:41.999Z</time></trkpt><trkpt lat="43.1058627656818" lon="11.711978908820058"><ele>505.33333333333337</ele><time>2026-05-02T12:59:42.999Z</time></trkpt><trkpt lat="43.10595478674253" lon="11.711721837152334"><ele>506.6666666666667</ele><time>2026-05-02T12:59:43.999Z</time></trkpt><trkpt lat="43.106062410851095" lon="11.711468760958804"><ele>508.0</ele><time>2026-05-02T12:59:44.999Z</time></trkpt><trkpt lat="43.10617996915286" lon="11.711215481779833"><ele>506.0</ele><time>2026-05-02T12:59:45.999Z</time></trkpt><trkpt lat="43.10629442461663" lon="11.710953730189736"><ele>504.0</ele><time>2026-05-02T12:59:46.999Z</time></trkpt><trkpt lat="43.10638373252896" lon="11.71067938879093"><ele>502.0</ele><time>2026-05-02T12:59:47.999Z</time></trkpt><trkpt lat="43.10642250685424" lon="11.710384757763675"><ele>499.0</ele><time>2026-05-02T12:59:48.999Z</time></trkpt><trkpt lat="43.106423437406015" lon="11.710079932204518"><ele>496.0</ele><time>2026-05-02T12:59:49.999Z</time></trkpt><trkpt lat="43.10640573775358" lon="11.709783925781341"><ele>493.0</ele><time>2026-05-02T12:59:50.999Z</time></trkpt><trkpt lat="43.10639799501917" lon="11.709514000276133"><ele>491.0</ele><time>2026-05-02T12:59:51.999Z</time></trkpt><trkpt lat="43.10642612541961" lon="11.70926140875947"><ele>489.0</ele><time>2026-05-02T12:59:52.999Z</time></trkpt><trkpt lat="43.10651352046798" lon="11.709054138916947"><ele>487.0</ele><time>2026-05-02T12:59:53.999Z</time></trkpt><trkpt lat="43.106643797082846" lon="11.708899386964214"><ele>489.6666666666667</ele><time>2026-05-02T12:59:54.999Z</time></trkpt><trkpt lat="43.10679163624454" lon="11.708755234932886"><ele>492.33333333333337</ele><time>2026-05-02T12:59:55.999Z</time></trkpt><trkpt lat="43.1069204568808" lon="11.70861457136958"><ele>495.0</ele><time>2026-05-02T12:59:56.999Z</time></trkpt><trkpt lat="43.10700543519029" lon="11.708455565042051"><ele>495.0</ele><time>2026-05-02T12:59:57.999Z</time></trkpt><trkpt lat="43.10703103374083" lon="11.70824341332015"><ele>495.0</ele><time>2026-05-02T12:59:58.999Z</time></trkpt><trkpt lat="43.10700614459517" lon="11.708016548177076"><ele>495.0</ele><time>2026-05-02T12:59:59.999Z</time></trkpt><trkpt lat="43.1069320306031" lon="11.707795366652771"><ele>494.66666666666663</ele><time>2026-05-02T13:00:00.999Z</time></trkpt><trkpt lat="43.106830583930524" lon="11.70759275593373"><ele>494.3333333333333</ele><time>2026-05-02T13:00:01.999Z</time></trkpt><trkpt lat="43.10669832897271" lon="11.707405246132195"><ele>494.0</ele><time>2026-05-02T13:00:02.999Z</time></trkpt><trkpt lat="43.10655635242447" lon="11.707222987283368"><ele>495.66666666666663</ele><time>2026-05-02T13:00:03.999Z</time></trkpt><trkpt lat="43.106407951701605" lon="11.707049387813889"><ele>497.33333333333337</ele><time>2026-05-02T13:00:04.999Z</time></trkpt><trkpt lat="43.10624793593652" lon="11.70691569463102"><ele>499.0</ele><time>2026-05-02T13:00:05.999Z</time></trkpt><trkpt lat="43.10607096102463" lon="11.70683471980094"><ele>499.0</ele><time>2026-05-02T13:00:06.999Z</time></trkpt><trkpt lat="43.10589236780861" lon="11.70675697193906"><ele>499.0</ele><time>2026-05-02T13:00:07.999Z</time></trkpt><trkpt lat="43.105721063876" lon="11.70664142046354"><ele>499.0</ele><time>2026-05-02T13:00:08.999Z</time></trkpt><trkpt lat="43.105585651989244" lon="11.706452246232944"><ele>495.6666666666667</ele><time>2026-05-02T13:00:09.999Z</time></trkpt><trkpt lat="43.105457530923836" lon="11.706239021043833"><ele>492.33333333333337</ele><time>2026-05-02T13:00:10.999Z</time></trkpt><trkpt lat="43.10533036289583" lon="11.706002455052271"><ele>489.0</ele><time>2026-05-02T13:00:11.999Z</time></trkpt><trkpt lat="43.105178697266716" lon="11.705759255891083"><ele>489.0</ele><time>2026-05-02T13:00:12.999Z</time></trkpt><trkpt lat="43.10502479025247" lon="11.705511424275436"><ele>489.0</ele><time>2026-05-02T13:00:13.999Z</time></trkpt><trkpt lat="43.10485358059206" lon="11.705305515078656"><ele>487.66666666666663</ele><time>2026-05-02T13:00:14.999Z</time></trkpt><trkpt lat="43.10467118121201" lon="11.70513821543254"><ele>486.3333333333333</ele><time>2026-05-02T13:00:15.999Z</time></trkpt><trkpt lat="43.10446486088574" lon="11.705012433804972"><ele>485.0</ele><time>2026-05-02T13:00:16.999Z</time></trkpt><trkpt lat="43.104247056610824" lon="11.70491362409072"><ele>479.66666666666663</ele><time>2026-05-02T13:00:17.999Z</time></trkpt><trkpt lat="43.10404870514077" lon="11.70483570164823"><ele>474.33333333333337</ele><time>2026-05-02T13:00:18.999Z</time></trkpt><trkpt lat="43.103874012947365" lon="11.704746604362004"><ele>469.0</ele><time>2026-05-02T13:00:19.999Z</time></trkpt><trkpt lat="43.10372297690016" lon="11.704646433303173"><ele>469.0</ele><time>2026-05-02T13:00:20.999Z</time></trkpt><trkpt lat="43.103609913744954" lon="11.704499926543813"><ele>469.0</ele><time>2026-05-02T13:00:21.999Z</time></trkpt><trkpt lat="43.103521638512255" lon="11.704335895186757"><ele>469.0</ele><time>2026-05-02T13:00:22.999Z</time></trkpt><trkpt lat="43.10348614855203" lon="11.704143097038216"><ele>470.33333333333337</ele><time>2026-05-02T13:00:23.999Z</time></trkpt><trkpt lat="43.10350263867356" lon="11.703942524751946"><ele>471.66666666666663</ele><time>2026-05-02T13:00:24.999Z</time></trkpt><trkpt lat="43.103552458617465" lon="11.703727087655047"><ele>473.0</ele><time>2026-05-02T13:00:25.999Z</time></trkpt><trkpt lat="43.10362254256855" lon="11.703489592425962"><ele>473.0</ele><time>2026-05-02T13:00:26.999Z</time></trkpt><trkpt lat="43.103722478117135" lon="11.703258820638379"><ele>473.0</ele><time>2026-05-02T13:00:27.999Z</time></trkpt><trkpt lat="43.103843161071765" lon="11.703038904142032"><ele>473.0</ele><time>2026-05-02T13:00:28.999Z</time></trkpt><trkpt lat="43.103973547832524" lon="11.702833778473567"><ele>473.0</ele><time>2026-05-02T13:00:29.999Z</time></trkpt><trkpt lat="43.104090856406756" lon="11.702654880613782"><ele>473.0</ele><time>2026-05-02T13:00:30.999Z</time></trkpt><trkpt lat="43.104171658310904" lon="11.702481800654429"><ele>473.0</ele><time>2026-05-02T13:00:31.999Z</time></trkpt><trkpt lat="43.10421383955022" lon="11.702303241533858"><ele>473.0</ele><time>2026-05-02T13:00:32.999Z</time></trkpt><trkpt lat="43.10421431848347" lon="11.702115345459065"><ele>473.0</ele><time>2026-05-02T13:00:34Z</time></trkpt><trkpt lat="43.10417625049999" lon="11.701928657723277"><ele>473.0</ele><time>2026-05-02T13:00:35Z</time></trkpt><trkpt lat="43.10410838401678" lon="11.701733542939404"><ele>473.0</ele><time>2026-05-02T13:00:36Z</time></trkpt><trkpt lat="43.10403985727699" lon="11.701518136644298"><ele>472.0</ele><time>2026-05-02T13:00:37Z</time></trkpt><trkpt lat="43.10397781709829" lon="11.701286498363189"><ele>471.0</ele><time>2026-05-02T13:00:38Z</time></trkpt><trkpt lat="43.10389888249412" lon="11.701053595078534"><ele>470.0</ele><time>2026-05-02T13:00:39Z</time></trkpt><trkpt lat="43.103789713200634" lon="11.700837462652716"><ele>468.3333333333333</ele><time>2026-05-02T13:00:40Z</time></trkpt><trkpt lat="43.10365995646704" lon="11.700643829026513"><ele>466.66666666666663</ele><time>2026-05-02T13:00:41Z</time></trkpt><trkpt lat="43.103529193086594" lon="11.700449888963902"><ele>465.0</ele><time>2026-05-02T13:00:42Z</time></trkpt><trkpt lat="43.10340447657603" lon="11.700249183358226"><ele>463.0</ele><time>2026-05-02T13:00:43Z</time></trkpt><trkpt lat="43.10328938233297" lon="11.700039429838462"><ele>461.0</ele><time>2026-05-02T13:00:44Z</time></trkpt><trkpt lat="43.1031876943039" lon="11.699832569819595"><ele>459.0</ele><time>2026-05-02T13:00:45Z</time></trkpt><trkpt lat="43.10309873897966" lon="11.69963559990698"><ele>463.25</ele><time>2026-05-02T13:00:46Z</time></trkpt><trkpt lat="43.10302727933833" lon="11.699452365281122"><ele>467.5</ele><time>2026-05-02T13:00:47Z</time></trkpt><trkpt lat="43.102974740126946" lon="11.699293602334478"><ele>471.75</ele><time>2026-05-02T13:00:48Z</time></trkpt><trkpt lat="43.10292524497761" lon="11.699159000250647"><ele>476.0</ele><time>2026-05-02T13:00:49Z</time></trkpt><trkpt lat="43.102868968975265" lon="11.699042905924578"><ele>475.99999999999994</ele><time>2026-05-02T13:00:50Z</time></trkpt><trkpt lat="43.10281196038609" lon="11.698942851438604"><ele>476.0</ele><time>2026-05-02T13:00:51Z</time></trkpt><trkpt lat="43.102764689895146" lon="11.698858326612022"><ele>476.0</ele><time>2026-05-02T13:00:52Z</time></trkpt><trkpt lat="43.1027400589619" lon="11.698772310103852"><ele>476.0</ele><time>2026-05-02T13:00:53Z</time></trkpt><trkpt lat="43.102684952937594" lon="11.698665480669806"><ele>475.99999999999994</ele><time>2026-05-02T13:00:55Z</time></trkpt><trkpt lat="43.10263606112631" lon="11.698570698227472"><ele>476.0</ele><time>2026-05-02T13:00:58Z</time></trkpt><trkpt lat="43.10258638764766" lon="11.69848720041687"><ele>473.8333333333333</ele><time>2026-05-02T13:01:01Z</time></trkpt><trkpt lat="43.10255223595948" lon="11.698398103546948"><ele>471.66666666666663</ele><time>2026-05-02T13:01:04Z</time></trkpt><trkpt lat="43.10250433420045" lon="11.698316546333094"><ele>469.5</ele><time>2026-05-02T13:01:06Z</time></trkpt><trkpt lat="43.10244657481728" lon="11.698201887070974"><ele>467.33333333333337</ele><time>2026-05-02T13:01:08Z</time></trkpt><trkpt lat="43.1025060442395" lon="11.698249285514107"><ele>465.1666666666667</ele><time>2026-05-02T13:01:43.999Z</time></trkpt><trkpt lat="43.10252353744004" lon="11.698342670375446"><ele>463.0</ele><time>2026-05-02T13:01:59.999Z</time></trkpt><trkpt lat="43.10256555741563" lon="11.698425734723005"><ele>463.0</ele><time>2026-05-02T13:02:06.999Z</time></trkpt><trkpt lat="43.10261219661814" lon="11.698529906066113"><ele>462.99999999999994</ele><time>2026-05-02T13:02:35.999Z</time></trkpt><trkpt lat="43.10256713922065" lon="11.698448307802556"><ele>463.0</ele><time>2026-05-02T13:02:43Z</time></trkpt><trkpt lat="43.10253022111389" lon="11.698370993601117"><ele>463.0</ele><time>2026-05-02T13:02:48Z</time></trkpt><trkpt lat="43.1024880729295" lon="11.698287705859792"><ele>462.99999999999994</ele><time>2026-05-02T13:02:54Z</time></trkpt><trkpt lat="43.10245200623387" lon="11.698215326293758"><ele>463.0</ele><time>2026-05-02T13:03:00Z</time></trkpt><trkpt lat="43.10240951150613" lon="11.698141576011245"><ele>463.0</ele><time>2026-05-02T13:03:06Z</time></trkpt><trkpt lat="43.10234229271379" lon="11.698020092019894"><ele>463.4</ele><time>2026-05-02T13:03:43.999Z</time></trkpt><trkpt lat="43.10229068881119" lon="11.697917080217168"><ele>463.79999999999995</ele><time>2026-05-02T13:03:44.999Z</time></trkpt><trkpt lat="43.10222922795126" lon="11.697813894317173"><ele>464.2</ele><time>2026-05-02T13:03:45.999Z</time></trkpt><trkpt lat="43.10215619682314" lon="11.697709503971874"><ele>464.6</ele><time>2026-05-02T13:03:46.999Z</time></trkpt><trkpt lat="43.102073517114455" lon="11.697605569824587"><ele>465.0</ele><time>2026-05-02T13:03:47.999Z</time></trkpt><trkpt lat="43.10198425785633" lon="11.697503995544823"><ele>465.0</ele><time>2026-05-02T13:03:48.999Z</time></trkpt><trkpt lat="43.101894246148014" lon="11.69740491040076"><ele>465.0</ele><time>2026-05-02T13:03:49.999Z</time></trkpt><trkpt lat="43.10180392606596" lon="11.697305579369417"><ele>465.0</ele><time>2026-05-02T13:03:50.999Z</time></trkpt><trkpt lat="43.10170958367327" lon="11.69720467835464"><ele>465.0</ele><time>2026-05-02T13:03:51.999Z</time></trkpt><trkpt lat="43.10160890795063" lon="11.697102765565374"><ele>464.5</ele><time>2026-05-02T13:03:52.999Z</time></trkpt><trkpt lat="43.101503555285035" lon="11.697002637910293"><ele>464.0</ele><time>2026-05-02T13:03:53.999Z</time></trkpt><trkpt lat="43.10139522275466" lon="11.69690935488108"><ele>463.5</ele><time>2026-05-02T13:03:54.999Z</time></trkpt><trkpt lat="43.10128164198054" lon="11.69682323356954"><ele>463.0</ele><time>2026-05-02T13:03:55.999Z</time></trkpt><trkpt lat="43.101162707528125" lon="11.696746252424717"><ele>460.0</ele><time>2026-05-02T13:03:56.999Z</time></trkpt><trkpt lat="43.1010373789186" lon="11.69668808917028"><ele>457.0</ele><time>2026-05-02T13:03:57.999Z</time></trkpt><trkpt lat="43.100910507300675" lon="11.696644983258889"><ele>454.0</ele><time>2026-05-02T13:03:58.999Z</time></trkpt><trkpt lat="43.100785764515194" lon="11.696614614979957"><ele>451.0</ele><time>2026-05-02T13:03:59.999Z</time></trkpt><trkpt lat="43.10066307012635" lon="11.696594276161811"><ele>450.0</ele><time>2026-05-02T13:04:00.999Z</time></trkpt><trkpt lat="43.10054095054581" lon="11.69656704359092"><ele>449.0</ele><time>2026-05-02T13:04:01.999Z</time></trkpt><trkpt lat="43.10042053638236" lon="11.696533506041183"><ele>448.0</ele><time>2026-05-02T13:04:02.999Z</time></trkpt><trkpt lat="43.10030533718394" lon="11.69649934524769"><ele>447.0</ele><time>2026-05-02T13:04:03.999Z</time></trkpt><trkpt lat="43.100190737128706" lon="11.69646242883496"><ele>447.0</ele><time>2026-05-02T13:04:04.999Z</time></trkpt><trkpt lat="43.10007641095419" lon="11.6964218865492"><ele>447.0</ele><time>2026-05-02T13:04:05.999Z</time></trkpt><trkpt lat="43.099951344953105" lon="11.696384156879573"><ele>447.0</ele><time>2026-05-02T13:04:06.999Z</time></trkpt><trkpt lat="43.09982116195048" lon="11.696338733214104"><ele>447.0</ele><time>2026-05-02T13:04:07.999Z</time></trkpt><trkpt lat="43.09968779315507" lon="11.696285311641864"><ele>445.0</ele><time>2026-05-02T13:04:08.999Z</time></trkpt><trkpt lat="43.09956144376573" lon="11.696213466550674"><ele>443.0</ele><time>2026-05-02T13:04:09.999Z</time></trkpt><trkpt lat="43.09944680899849" lon="11.696125650273055"><ele>441.0</ele><time>2026-05-02T13:04:10.999Z</time></trkpt><trkpt lat="43.09934321970152" lon="11.696023312760156"><ele>439.0</ele><time>2026-05-02T13:04:11.999Z</time></trkpt><trkpt lat="43.09924737154047" lon="11.695914027103878"><ele>438.5</ele><time>2026-05-02T13:04:12.999Z</time></trkpt><trkpt lat="43.09915484808941" lon="11.69580687131916"><ele>438.0</ele><time>2026-05-02T13:04:13.999Z</time></trkpt><trkpt lat="43.09906178022858" lon="11.69570312712209"><ele>437.5</ele><time>2026-05-02T13:04:14.999Z</time></trkpt><trkpt lat="43.098967494017195" lon="11.695599825157217"><ele>437.0</ele><time>2026-05-02T13:04:15.999Z</time></trkpt><trkpt lat="43.09886771929811" lon="11.695489226390618"><ele>435.0</ele><time>2026-05-02T13:04:16.999Z</time></trkpt><trkpt lat="43.09875830819436" lon="11.695369981325646"><ele>433.0</ele><time>2026-05-02T13:04:17.999Z</time></trkpt><trkpt lat="43.09863377433011" lon="11.695241375223999"><ele>431.0</ele><time>2026-05-02T13:04:18.999Z</time></trkpt><trkpt lat="43.098503357762006" lon="11.695099590018685"><ele>429.66666666666663</ele><time>2026-05-02T13:04:19.999Z</time></trkpt><trkpt lat="43.09837607040839" lon="11.694952148500999"><ele>428.33333333333337</ele><time>2026-05-02T13:04:20.999Z</time></trkpt><trkpt lat="43.09825514827926" lon="11.69481200851093"><ele>427.0</ele><time>2026-05-02T13:04:21.999Z</time></trkpt><trkpt lat="43.0981370242833" lon="11.694675823744463"><ele>426.75</ele><time>2026-05-02T13:04:22.999Z</time></trkpt><trkpt lat="43.09803055442186" lon="11.694552339605625"><ele>426.5</ele><time>2026-05-02T13:04:23.999Z</time></trkpt><trkpt lat="43.09793126629648" lon="11.694438042546174"><ele>426.25</ele><time>2026-05-02T13:04:24.999Z</time></trkpt><trkpt lat="43.097834269730335" lon="11.694328770630989"><ele>426.0</ele><time>2026-05-02T13:04:25.999Z</time></trkpt><trkpt lat="43.09774066729055" lon="11.694226311449762"><ele>425.0</ele><time>2026-05-02T13:04:26.999Z</time></trkpt><trkpt lat="43.09764385632421" lon="11.694125424634242"><ele>424.0</ele><time>2026-05-02T13:04:27.999Z</time></trkpt><trkpt lat="43.09754380592119" lon="11.694019033725615"><ele>423.0</ele><time>2026-05-02T13:04:28.999Z</time></trkpt><trkpt lat="43.0974410510178" lon="11.693908201529906"><ele>422.0</ele><time>2026-05-02T13:04:29.999Z</time></trkpt><trkpt lat="43.097337419807374" lon="11.693795435258597"><ele>421.75</ele><time>2026-05-02T13:04:30.999Z</time></trkpt><trkpt lat="43.0972400827873" lon="11.69368508800901"><ele>421.5</ele><time>2026-05-02T13:04:31.999Z</time></trkpt><trkpt lat="43.09714936416762" lon="11.693580025177944"><ele>421.25</ele><time>2026-05-02T13:04:32.999Z</time></trkpt><trkpt lat="43.097063426985315" lon="11.693479292055292"><ele>421.0</ele><time>2026-05-02T13:04:33.999Z</time></trkpt><trkpt lat="43.096981936270076" lon="11.693386588183447"><ele>421.0</ele><time>2026-05-02T13:04:34.999Z</time></trkpt><trkpt lat="43.09690626257076" lon="11.693299122787407"><ele>421.0</ele><time>2026-05-02T13:04:35.999Z</time></trkpt><trkpt lat="43.09683668374482" lon="11.69321355771616"><ele>421.0</ele><time>2026-05-02T13:04:36.999Z</time></trkpt><trkpt lat="43.09677644829154" lon="11.693127350933189"><ele>421.0</ele><time>2026-05-02T13:04:37.999Z</time></trkpt><trkpt lat="43.09672424951495" lon="11.693030892780477"><ele>421.0</ele><time>2026-05-02T13:04:38.999Z</time></trkpt><trkpt lat="43.09667958103313" lon="11.692920418196145"><ele>421.0</ele><time>2026-05-02T13:04:39.999Z</time></trkpt><trkpt lat="43.09664544817392" lon="11.692796957500219"><ele>421.0</ele><time>2026-05-02T13:04:40.999Z</time></trkpt><trkpt lat="43.096625169091084" lon="11.692664086372869"><ele>421.0</ele><time>2026-05-02T13:04:41.999Z</time></trkpt><trkpt lat="43.09661613396336" lon="11.692523900306137"><ele>421.0</ele><time>2026-05-02T13:04:42.999Z</time></trkpt><trkpt lat="43.0966093657674" lon="11.692376652429715"><ele>421.0</ele><time>2026-05-02T13:04:43.999Z</time></trkpt><trkpt lat="43.09660284827659" lon="11.692222248346528"><ele>420.5</ele><time>2026-05-02T13:04:45Z</time></trkpt><trkpt lat="43.0965938481683" lon="11.692059150718661"><ele>420.0</ele><time>2026-05-02T13:04:46Z</time></trkpt><trkpt lat="43.09658134350446" lon="11.691887937368806"><ele>419.5</ele><time>2026-05-02T13:04:47Z</time></trkpt><trkpt lat="43.09657058652766" lon="11.691711981056699"><ele>419.0</ele><time>2026-05-02T13:04:48Z</time></trkpt><trkpt lat="43.09656011260154" lon="11.691536040486415"><ele>418.75</ele><time>2026-05-02T13:04:49Z</time></trkpt><trkpt lat="43.09654630499505" lon="11.691359595508423"><ele>418.5</ele><time>2026-05-02T13:04:50Z</time></trkpt><trkpt lat="43.09652029082254" lon="11.691183030713209"><ele>418.25</ele><time>2026-05-02T13:04:51Z</time></trkpt><trkpt lat="43.096479502665694" lon="11.691015128253456"><ele>418.0</ele><time>2026-05-02T13:04:52Z</time></trkpt><trkpt lat="43.09640955813014" lon="11.690882460732992"><ele>418.0</ele><time>2026-05-02T13:04:53Z</time></trkpt><trkpt lat="43.09635272685524" lon="11.690692616724258"><ele>418.0</ele><time>2026-05-02T13:04:54Z</time></trkpt><trkpt lat="43.096249382868706" lon="11.6905676032783"><ele>418.0</ele><time>2026-05-02T13:04:55Z</time></trkpt><trkpt lat="43.09614482247911" lon="11.690459535232115"><ele>418.0</ele><time>2026-05-02T13:04:56Z</time></trkpt><trkpt lat="43.09603717702331" lon="11.69035200231997"><ele>418.75</ele><time>2026-05-02T13:04:57Z</time></trkpt><trkpt lat="43.09592582846407" lon="11.690244471436683"><ele>419.5</ele><time>2026-05-02T13:04:58Z</time></trkpt><trkpt lat="43.095813580678296" lon="11.690125108651815"><ele>420.25</ele><time>2026-05-02T13:04:59Z</time></trkpt><trkpt lat="43.095699912289746" lon="11.690003230591639"><ele>421.0</ele><time>2026-05-02T13:05:00Z</time></trkpt><trkpt lat="43.09559193527803" lon="11.689880535122446"><ele>421.25</ele><time>2026-05-02T13:05:01Z</time></trkpt><trkpt lat="43.0954792974008" lon="11.689760229198564"><ele>421.5</ele><time>2026-05-02T13:05:02Z</time></trkpt><trkpt lat="43.09536507058275" lon="11.689641127602606"><ele>421.75</ele><time>2026-05-02T13:05:03Z</time></trkpt><trkpt lat="43.095250708385215" lon="11.68952084154428"><ele>422.0</ele><time>2026-05-02T13:05:04Z</time></trkpt><trkpt lat="43.095123587109455" lon="11.68941610794699"><ele>423.25</ele><time>2026-05-02T13:05:05Z</time></trkpt><trkpt lat="43.094994309251454" lon="11.689321202449976"><ele>424.5</ele><time>2026-05-02T13:05:06Z</time></trkpt><trkpt lat="43.094860946105236" lon="11.689235413246804"><ele>425.75</ele><time>2026-05-02T13:05:07Z</time></trkpt><trkpt lat="43.09472084855442" lon="11.689168785941641"><ele>427.0</ele><time>2026-05-02T13:05:08Z</time></trkpt><trkpt lat="43.09458291719326" lon="11.68910727982686"><ele>427.0</ele><time>2026-05-02T13:05:09Z</time></trkpt><trkpt lat="43.09443567699618" lon="11.68905514447631"><ele>427.0</ele><time>2026-05-02T13:05:10Z</time></trkpt><trkpt lat="43.09429127343201" lon="11.68900938075109"><ele>427.0</ele><time>2026-05-02T13:05:11Z</time></trkpt><trkpt lat="43.09413951803485" lon="11.688981376748684"><ele>426.75</ele><time>2026-05-02T13:05:12Z</time></trkpt><trkpt lat="43.0939825479486" lon="11.688961233626866"><ele>426.5</ele><time>2026-05-02T13:05:13Z</time></trkpt><trkpt lat="43.093835527142645" lon="11.68895123309475"><ele>426.25</ele><time>2026-05-02T13:05:14Z</time></trkpt><trkpt lat="43.09369393324454" lon="11.688937803274921"><ele>426.0</ele><time>2026-05-02T13:05:15Z</time></trkpt><trkpt lat="43.093557163793335" lon="11.68891634053619"><ele>426.0</ele><time>2026-05-02T13:05:16Z</time></trkpt><trkpt lat="43.09343348646479" lon="11.688865911552668"><ele>426.0</ele><time>2026-05-02T13:05:17Z</time></trkpt><trkpt lat="43.09330223409433" lon="11.688806415565528"><ele>426.0</ele><time>2026-05-02T13:05:18Z</time></trkpt><trkpt lat="43.09317067417698" lon="11.688733097672756"><ele>426.0</ele><time>2026-05-02T13:05:19Z</time></trkpt><trkpt lat="43.093042026681594" lon="11.68864648695683"><ele>426.75</ele><time>2026-05-02T13:05:20Z</time></trkpt><trkpt lat="43.092918382570225" lon="11.688551815672982"><ele>427.5</ele><time>2026-05-02T13:05:21Z</time></trkpt><trkpt lat="43.0928005870052" lon="11.688451749317183"><ele>428.25</ele><time>2026-05-02T13:05:22Z</time></trkpt><trkpt lat="43.09268097110996" lon="11.688356074915164"><ele>429.0</ele><time>2026-05-02T13:05:23Z</time></trkpt><trkpt lat="43.09257177609384" lon="11.688262566263068"><ele>429.0</ele><time>2026-05-02T13:05:24Z</time></trkpt><trkpt lat="43.09245974441165" lon="11.688171421963451"><ele>429.0</ele><time>2026-05-02T13:05:25Z</time></trkpt><trkpt lat="43.092357077290195" lon="11.688079747358994"><ele>429.0</ele><time>2026-05-02T13:05:26Z</time></trkpt><trkpt lat="43.092257362087246" lon="11.687994010517892"><ele>429.0</ele><time>2026-05-02T13:05:27Z</time></trkpt><trkpt lat="43.092168940238594" lon="11.687907529559418"><ele>430.4</ele><time>2026-05-02T13:05:28Z</time></trkpt><trkpt lat="43.09208891381285" lon="11.687829549781725"><ele>431.79999999999995</ele><time>2026-05-02T13:05:29Z</time></trkpt><trkpt lat="43.09200965087021" lon="11.687754058666838"><ele>433.20000000000005</ele><time>2026-05-02T13:05:30Z</time></trkpt><trkpt lat="43.09193612569655" lon="11.68767151796122"><ele>434.6</ele><time>2026-05-02T13:05:31Z</time></trkpt><trkpt lat="43.091871667442256" lon="11.687572231365767"><ele>436.0</ele><time>2026-05-02T13:05:32Z</time></trkpt><trkpt lat="43.09182636129116" lon="11.687453286365933"><ele>436.0</ele><time>2026-05-02T13:05:33Z</time></trkpt><trkpt lat="43.09179830147789" lon="11.687323748434618"><ele>436.0</ele><time>2026-05-02T13:05:33.999Z</time></trkpt><trkpt lat="43.09177394412352" lon="11.687194709519707"><ele>436.0</ele><time>2026-05-02T13:05:34.999Z</time></trkpt><trkpt lat="43.091751970537175" lon="11.687067753519017"><ele>436.0</ele><time>2026-05-02T13:05:35.999Z</time></trkpt><trkpt lat="43.091722997427574" lon="11.6869462618924"><ele>436.0</ele><time>2026-05-02T13:05:36.999Z</time></trkpt><trkpt lat="43.091675362727976" lon="11.686832053525038"><ele>435.6</ele><time>2026-05-02T13:05:37.999Z</time></trkpt><trkpt lat="43.09160103061488" lon="11.686737172309705"><ele>435.20000000000005</ele><time>2026-05-02T13:05:38.999Z</time></trkpt><trkpt lat="43.09150731498904" lon="11.686664621424983"><ele>434.79999999999995</ele><time>2026-05-02T13:05:39.999Z</time></trkpt><trkpt lat="43.09140336893538" lon="11.686604615291028"><ele>434.4</ele><time>2026-05-02T13:05:40.999Z</time></trkpt><trkpt lat="43.09129403826226" lon="11.686543359847802"><ele>434.0</ele><time>2026-05-02T13:05:41.999Z</time></trkpt><trkpt lat="43.091183191770966" lon="11.686478271453524"><ele>435.25</ele><time>2026-05-02T13:05:42.999Z</time></trkpt><trkpt lat="43.09106794902925" lon="11.686413039494473"><ele>436.5</ele><time>2026-05-02T13:05:43.999Z</time></trkpt><trkpt lat="43.0909527643687" lon="11.68634963711533"><ele>437.75</ele><time>2026-05-02T13:05:44.999Z</time></trkpt><trkpt lat="43.090838240337234" lon="11.686285601355857"><ele>439.0</ele><time>2026-05-02T13:05:45.999Z</time></trkpt><trkpt lat="43.09072164262405" lon="11.686222486396526"><ele>439.0</ele><time>2026-05-02T13:05:46.999Z</time></trkpt><trkpt lat="43.09061574060249" lon="11.686160253126738"><ele>439.0</ele><time>2026-05-02T13:05:47.999Z</time></trkpt><trkpt lat="43.090515205791505" lon="11.686096122405377"><ele>439.0</ele><time>2026-05-02T13:05:48.999Z</time></trkpt><trkpt lat="43.09041794342299" lon="11.686020902090213"><ele>439.0</ele><time>2026-05-02T13:05:49.999Z</time></trkpt><trkpt lat="43.090318975034954" lon="11.685932759294493"><ele>440.0</ele><time>2026-05-02T13:05:50.999Z</time></trkpt><trkpt lat="43.09021588494859" lon="11.68582937620193"><ele>441.0</ele><time>2026-05-02T13:05:51.999Z</time></trkpt><trkpt lat="43.090106924140066" lon="11.685715040705178"><ele>442.0</ele><time>2026-05-02T13:05:52.999Z</time></trkpt><trkpt lat="43.08999399226678" lon="11.685586275923605"><ele>443.0</ele><time>2026-05-02T13:05:53.999Z</time></trkpt><trkpt lat="43.08987472459121" lon="11.685457046376746"><ele>443.3333333333333</ele><time>2026-05-02T13:05:54.999Z</time></trkpt><trkpt lat="43.08975587978235" lon="11.685325371895635"><ele>443.66666666666663</ele><time>2026-05-02T13:05:55.999Z</time></trkpt><trkpt lat="43.0896372494082" lon="11.685195130232659"><ele>444.0</ele><time>2026-05-02T13:05:56.999Z</time></trkpt><trkpt lat="43.089520162136175" lon="11.685064810621839"><ele>444.75</ele><time>2026-05-02T13:05:57.999Z</time></trkpt><trkpt lat="43.089401231233616" lon="11.684937802201363"><ele>445.5</ele><time>2026-05-02T13:05:58.999Z</time></trkpt><trkpt lat="43.08928459762544" lon="11.684814020764387"><ele>446.25</ele><time>2026-05-02T13:05:59.999Z</time></trkpt><trkpt lat="43.08916823854872" lon="11.68468798215923"><ele>447.0</ele><time>2026-05-02T13:06:00.999Z</time></trkpt><trkpt lat="43.08906258999224" lon="11.684569214964945"><ele>448.0</ele><time>2026-05-02T13:06:01.999Z</time></trkpt><trkpt lat="43.0889637393853" lon="11.68446185300111"><ele>449.0</ele><time>2026-05-02T13:06:02.999Z</time></trkpt><trkpt lat="43.08886974139812" lon="11.684360218306834"><ele>450.0</ele><time>2026-05-02T13:06:03.999Z</time></trkpt><trkpt lat="43.088782487264325" lon="11.684258560015053"><ele>451.0</ele><time>2026-05-02T13:06:04.999Z</time></trkpt><trkpt lat="43.08870021448727" lon="11.684157213039542"><ele>451.5</ele><time>2026-05-02T13:06:05.999Z</time></trkpt><trkpt lat="43.08862113743103" lon="11.684052694149285"><ele>452.0</ele><time>2026-05-02T13:06:06.999Z</time></trkpt><trkpt lat="43.08854445916912" lon="11.683936568566695"><ele>452.5</ele><time>2026-05-02T13:06:07.999Z</time></trkpt><trkpt lat="43.08847421009975" lon="11.683807868227529"><ele>453.0</ele><time>2026-05-02T13:06:08.999Z</time></trkpt><trkpt lat="43.088410806429" lon="11.683666692225366"><ele>453.25</ele><time>2026-05-02T13:06:09.999Z</time></trkpt><trkpt lat="43.08835100088622" lon="11.683518045319428"><ele>453.5</ele><time>2026-05-02T13:06:10.999Z</time></trkpt><trkpt lat="43.08829785152663" lon="11.683363911676519"><ele>453.75</ele><time>2026-05-02T13:06:11.999Z</time></trkpt><trkpt lat="43.08824868314244" lon="11.68320826112266"><ele>454.0</ele><time>2026-05-02T13:06:12.999Z</time></trkpt><trkpt lat="43.08820184072735" lon="11.683049702112825"><ele>455.25</ele><time>2026-05-02T13:06:13.999Z</time></trkpt><trkpt lat="43.08815981343369" lon="11.682890269301783"><ele>456.5</ele><time>2026-05-02T13:06:14.999Z</time></trkpt><trkpt lat="43.08812237334864" lon="11.682732689903233"><ele>457.75</ele><time>2026-05-02T13:06:15.999Z</time></trkpt><trkpt lat="43.088085349060066" lon="11.682574570244437"><ele>459.0</ele><time>2026-05-02T13:06:16.999Z</time></trkpt><trkpt lat="43.08804595916672" lon="11.682417638888323"><ele>459.0</ele><time>2026-05-02T13:06:17.999Z</time></trkpt><trkpt lat="43.08800654274105" lon="11.682258510572492"><ele>459.0</ele><time>2026-05-02T13:06:18.999Z</time></trkpt><trkpt lat="43.08796549308761" lon="11.68209493040883"><ele>459.0</ele><time>2026-05-02T13:06:19.999Z</time></trkpt><trkpt lat="43.08792379122393" lon="11.681921540728064"><ele>459.0</ele><time>2026-05-02T13:06:20.999Z</time></trkpt><trkpt lat="43.08787924181116" lon="11.681738417799885"><ele>459.0</ele><time>2026-05-02T13:06:21.999Z</time></trkpt><trkpt lat="43.08783606580653" lon="11.681557334527355"><ele>459.0</ele><time>2026-05-02T13:06:22.999Z</time></trkpt><trkpt lat="43.087793219806194" lon="11.68136893256937"><ele>459.0</ele><time>2026-05-02T13:06:23.999Z</time></trkpt><trkpt lat="43.08775037840294" lon="11.681179011307119"><ele>459.0</ele><time>2026-05-02T13:06:24.999Z</time></trkpt><trkpt lat="43.08770630462932" lon="11.680986493809277"><ele>459.0</ele><time>2026-05-02T13:06:25.999Z</time></trkpt><trkpt lat="43.08765943032037" lon="11.680792872170477"><ele>459.0</ele><time>2026-05-02T13:06:26.999Z</time></trkpt><trkpt lat="43.08761320763842" lon="11.680600429310244"><ele>459.0</ele><time>2026-05-02T13:06:27.999Z</time></trkpt><trkpt lat="43.087567561482324" lon="11.680410601822535"><ele>459.0</ele><time>2026-05-02T13:06:28.999Z</time></trkpt><trkpt lat="43.08752129264022" lon="11.680232256240267"><ele>459.0</ele><time>2026-05-02T13:06:29.999Z</time></trkpt><trkpt lat="43.08747106275876" lon="11.68006691897178"><ele>459.0</ele><time>2026-05-02T13:06:30.999Z</time></trkpt><trkpt lat="43.087413668532065" lon="11.679916274142249"><ele>459.0</ele><time>2026-05-02T13:06:31.999Z</time></trkpt><trkpt lat="43.08734785605155" lon="11.679781182697896"><ele>459.0</ele><time>2026-05-02T13:06:32.999Z</time></trkpt><trkpt lat="43.08727577204657" lon="11.679663149317111"><ele>458.6</ele><time>2026-05-02T13:06:33.999Z</time></trkpt><trkpt lat="43.08720539369425" lon="11.679548727921613"><ele>458.2</ele><time>2026-05-02T13:06:34.999Z</time></trkpt><trkpt lat="43.087130826979624" lon="11.679440851265289"><ele>457.80000000000007</ele><time>2026-05-02T13:06:35.999Z</time></trkpt><trkpt lat="43.08705064031661" lon="11.679336850572339"><ele>457.40000000000003</ele><time>2026-05-02T13:06:36.999Z</time></trkpt><trkpt lat="43.08696054721737" lon="11.679242935320149"><ele>457.0</ele><time>2026-05-02T13:06:37.999Z</time></trkpt><trkpt lat="43.086865264980446" lon="11.679153493901476"><ele>457.0</ele><time>2026-05-02T13:06:38.999Z</time></trkpt><trkpt lat="43.086766358471145" lon="11.679064636849608"><ele>457.0</ele><time>2026-05-02T13:06:39.999Z</time></trkpt><trkpt lat="43.086663769258145" lon="11.678975067352887"><ele>457.0</ele><time>2026-05-02T13:06:40.999Z</time></trkpt><trkpt lat="43.086557804395376" lon="11.678884757509765"><ele>457.0</ele><time>2026-05-02T13:06:41.999Z</time></trkpt><trkpt lat="43.08645060021858" lon="11.678791151275403"><ele>456.5</ele><time>2026-05-02T13:06:42.999Z</time></trkpt><trkpt lat="43.08634307806259" lon="11.678697708553543"><ele>456.0</ele><time>2026-05-02T13:06:43.999Z</time></trkpt><trkpt lat="43.08623467678382" lon="11.678604102540842"><ele>455.5</ele><time>2026-05-02T13:06:44.999Z</time></trkpt><trkpt lat="43.08613148983115" lon="11.678516235405665"><ele>455.0</ele><time>2026-05-02T13:06:45.999Z</time></trkpt><trkpt lat="43.086031921644775" lon="11.678438849437477"><ele>455.0</ele><time>2026-05-02T13:06:46.999Z</time></trkpt><trkpt lat="43.085939576400854" lon="11.678361700209111"><ele>455.0</ele><time>2026-05-02T13:06:47.999Z</time></trkpt><trkpt lat="43.08585268086643" lon="11.678289264014996"><ele>455.0</ele><time>2026-05-02T13:06:48.999Z</time></trkpt><trkpt lat="43.08576836911788" lon="11.67822057885384"><ele>455.0</ele><time>2026-05-02T13:06:49.999Z</time></trkpt><trkpt lat="43.08568851701534" lon="11.678154732285364"><ele>455.0</ele><time>2026-05-02T13:06:51Z</time></trkpt><trkpt lat="43.08561135504713" lon="11.678091726866295"><ele>454.49999999999994</ele><time>2026-05-02T13:06:52Z</time></trkpt><trkpt lat="43.08553799038667" lon="11.678028104846305"><ele>454.0</ele><time>2026-05-02T13:06:53Z</time></trkpt><trkpt lat="43.08546488597052" lon="11.6779613113397"><ele>453.5</ele><time>2026-05-02T13:06:54Z</time></trkpt><trkpt lat="43.08539081277062" lon="11.677889187996985"><ele>453.0</ele><time>2026-05-02T13:06:55Z</time></trkpt><trkpt lat="43.0853183902089" lon="11.677811848653457"><ele>452.49999999999994</ele><time>2026-05-02T13:06:56Z</time></trkpt><trkpt lat="43.085247992577095" lon="11.677733102170759"><ele>452.0</ele><time>2026-05-02T13:06:57Z</time></trkpt><trkpt lat="43.08517870037764" lon="11.677645343313422"><ele>452.0</ele><time>2026-05-02T13:06:58Z</time></trkpt><trkpt lat="43.08511863398722" lon="11.67755185475552"><ele>452.00000000000006</ele><time>2026-05-02T13:06:59Z</time></trkpt><trkpt lat="43.085068319942486" lon="11.677451025216154"><ele>452.00000000000006</ele><time>2026-05-02T13:07:00Z</time></trkpt><trkpt lat="43.08501000276751" lon="11.67734755347512"><ele>452.0</ele><time>2026-05-02T13:07:01Z</time></trkpt><trkpt lat="43.0849556715915" lon="11.677240361844065"><ele>452.0</ele><time>2026-05-02T13:07:02Z</time></trkpt><trkpt lat="43.08489935359126" lon="11.677137023151264"><ele>451.66666666666663</ele><time>2026-05-02T13:07:03Z</time></trkpt><trkpt lat="43.08484125817695" lon="11.677030213722313"><ele>451.3333333333333</ele><time>2026-05-02T13:07:04Z</time></trkpt><trkpt lat="43.08478287907645" lon="11.676924348261366"><ele>451.0</ele><time>2026-05-02T13:07:05Z</time></trkpt><trkpt lat="43.08472239629861" lon="11.676827974290038"><ele>450.66666666666663</ele><time>2026-05-02T13:07:06Z</time></trkpt><trkpt lat="43.08466361566104" lon="11.676739394112731"><ele>450.3333333333333</ele><time>2026-05-02T13:07:07Z</time></trkpt><trkpt lat="43.0846092450755" lon="11.676670886210971"><ele>450.0</ele><time>2026-05-02T13:07:08Z</time></trkpt><trkpt lat="43.08454864676638" lon="11.676605832030688"><ele>450.0</ele><time>2026-05-02T13:07:10Z</time></trkpt><trkpt lat="43.08449589317627" lon="11.676510402949045"><ele>450.0</ele><time>2026-05-02T13:07:13Z</time></trkpt><trkpt lat="43.08445772865045" lon="11.676383563913584"><ele>450.0</ele><time>2026-05-02T13:07:15Z</time></trkpt><trkpt lat="43.08439694083051" lon="11.676234281311707"><ele>450.0</ele><time>2026-05-02T13:07:17Z</time></trkpt><trkpt lat="43.08436198271191" lon="11.676146535381779"><ele>450.0</ele><time>2026-05-02T13:07:18Z</time></trkpt><trkpt lat="43.084335650489464" lon="11.67603677284731"><ele>450.8</ele><time>2026-05-02T13:07:19Z</time></trkpt><trkpt lat="43.084313192533365" lon="11.675907725466498"><ele>451.6</ele><time>2026-05-02T13:07:20Z</time></trkpt><trkpt lat="43.08429416859518" lon="11.675773115137957"><ele>452.4</ele><time>2026-05-02T13:07:21Z</time></trkpt><trkpt lat="43.084271658771" lon="11.675627173885006"><ele>453.2</ele><time>2026-05-02T13:07:22Z</time></trkpt><trkpt lat="43.08423654269214" lon="11.675475735300898"><ele>454.0</ele><time>2026-05-02T13:07:23Z</time></trkpt><trkpt lat="43.08418187359334" lon="11.675318568432468"><ele>455.0</ele><time>2026-05-02T13:07:24Z</time></trkpt><trkpt lat="43.0841131037804" lon="11.675168443985125"><ele>456.0</ele><time>2026-05-02T13:07:25Z</time></trkpt><trkpt lat="43.084029424265694" lon="11.675017483035171"><ele>457.0</ele><time>2026-05-02T13:07:26Z</time></trkpt><trkpt lat="43.08393500628073" lon="11.674872280216322"><ele>458.0</ele><time>2026-05-02T13:07:27Z</time></trkpt><trkpt lat="43.08384531802841" lon="11.674732292177609"><ele>458.75</ele><time>2026-05-02T13:07:28Z</time></trkpt><trkpt lat="43.083754789714675" lon="11.674586208120099"><ele>459.5</ele><time>2026-05-02T13:07:29Z</time></trkpt><trkpt lat="43.08367271938174" lon="11.674430581537168"><ele>460.25</ele><time>2026-05-02T13:07:30Z</time></trkpt><trkpt lat="43.08359662321026" lon="11.6742689137984"><ele>461.0</ele><time>2026-05-02T13:07:31Z</time></trkpt><trkpt lat="43.08352775044951" lon="11.674099081039216"><ele>461.5</ele><time>2026-05-02T13:07:32Z</time></trkpt><trkpt lat="43.083472333142005" lon="11.67392443578656"><ele>462.0</ele><time>2026-05-02T13:07:33Z</time></trkpt><trkpt lat="43.08341925938835" lon="11.673742670866632"><ele>462.5</ele><time>2026-05-02T13:07:34Z</time></trkpt><trkpt lat="43.08337178020288" lon="11.673561908895486"><ele>463.0</ele><time>2026-05-02T13:07:35Z</time></trkpt><trkpt lat="43.08333004338041" lon="11.673380401001497"><ele>464.0</ele><time>2026-05-02T13:07:36Z</time></trkpt><trkpt lat="43.083291374376145" lon="11.673201978952882"><ele>465.0</ele><time>2026-05-02T13:07:37Z</time></trkpt><trkpt lat="43.08325418599155" lon="11.67302581120366"><ele>466.0</ele><time>2026-05-02T13:07:38Z</time></trkpt><trkpt lat="43.083217142372" lon="11.67285442651831"><ele>467.0</ele><time>2026-05-02T13:07:39Z</time></trkpt><trkpt lat="43.083175509212566" lon="11.672688768963175"><ele>468.25</ele><time>2026-05-02T13:07:40Z</time></trkpt><trkpt lat="43.08312932810681" lon="11.672526435400663"><ele>469.5</ele><time>2026-05-02T13:07:41Z</time></trkpt><trkpt lat="43.0830813179503" lon="11.672367327683778"><ele>470.75</ele><time>2026-05-02T13:07:42Z</time></trkpt><trkpt lat="43.08303045891053" lon="11.672222254833665"><ele>472.0</ele><time>2026-05-02T13:07:43Z</time></trkpt><trkpt lat="43.08297724505818" lon="11.672090463112816"><ele>472.0</ele><time>2026-05-02T13:07:43.999Z</time></trkpt><trkpt lat="43.08292295790172" lon="11.671970356944213"><ele>472.00000000000006</ele><time>2026-05-02T13:07:44.999Z</time></trkpt><trkpt lat="43.08286810269249" lon="11.67186129051748"><ele>472.00000000000006</ele><time>2026-05-02T13:07:45.999Z</time></trkpt><trkpt lat="43.08281972771079" lon="11.671768947940649"><ele>472.0</ele><time>2026-05-02T13:07:46.999Z</time></trkpt><trkpt lat="43.08277703743286" lon="11.67169052108654"><ele>472.0</ele><time>2026-05-02T13:07:47.999Z</time></trkpt><trkpt lat="43.082705339472646" lon="11.671566906084637"><ele>472.8</ele><time>2026-05-02T13:07:49.999Z</time></trkpt><trkpt lat="43.08265815161096" lon="11.671486145970672"><ele>473.6</ele><time>2026-05-02T13:07:51.999Z</time></trkpt><trkpt lat="43.08260708156358" lon="11.671377547328047"><ele>474.40000000000003</ele><time>2026-05-02T13:07:55.999Z</time></trkpt><trkpt lat="43.08257542357927" lon="11.671267598674719"><ele>475.20000000000005</ele><time>2026-05-02T13:07:57.999Z</time></trkpt><trkpt lat="43.08252850505277" lon="11.671123947455808"><ele>476.0</ele><time>2026-05-02T13:07:59.999Z</time></trkpt><trkpt lat="43.082415023651215" lon="11.671045724835665"><ele>476.0</ele><time>2026-05-02T13:08:01.999Z</time></trkpt><trkpt lat="43.0823386605152" lon="11.671084831861522"><ele>476.0</ele><time>2026-05-02T13:08:02.999Z</time></trkpt><trkpt lat="43.08226999339517" lon="11.67116877890491"><ele>476.0</ele><time>2026-05-02T13:08:03.999Z</time></trkpt><trkpt lat="43.08220012235006" lon="11.671262294204556"><ele>476.0</ele><time>2026-05-02T13:08:04.999Z</time></trkpt><trkpt lat="43.08212493065546" lon="11.671356196386402"><ele>476.0</ele><time>2026-05-02T13:08:05.999Z</time></trkpt><trkpt lat="43.082002630318954" lon="11.671378297905822"><ele>476.25</ele><time>2026-05-02T13:08:06.999Z</time></trkpt><trkpt lat="43.08188920761384" lon="11.671414825622284"><ele>476.5</ele><time>2026-05-02T13:08:07.999Z</time></trkpt><trkpt lat="43.08176939921129" lon="11.671445714881783"><ele>476.75</ele><time>2026-05-02T13:08:08.999Z</time></trkpt><trkpt lat="43.0816461782916" lon="11.671475527559338"><ele>477.0</ele><time>2026-05-02T13:08:09.999Z</time></trkpt><trkpt lat="43.08152274861654" lon="11.671508154508192"><ele>478.0</ele><time>2026-05-02T13:08:10.999Z</time></trkpt><trkpt lat="43.08139984702697" lon="11.671540182577662"><ele>479.0</ele><time>2026-05-02T13:08:11.999Z</time></trkpt><trkpt lat="43.08128026962345" lon="11.671572475420481"><ele>480.0</ele><time>2026-05-02T13:08:12.999Z</time></trkpt><trkpt lat="43.08116568578499" lon="11.671611554980903"><ele>481.0</ele><time>2026-05-02T13:08:13.999Z</time></trkpt><trkpt lat="43.081059551044895" lon="11.671671279390715"><ele>481.0</ele><time>2026-05-02T13:08:14.999Z</time></trkpt><trkpt lat="43.08096193827204" lon="11.671751159446366"><ele>481.0</ele><time>2026-05-02T13:08:15.999Z</time></trkpt><trkpt lat="43.08087376654557" lon="11.671844651619217"><ele>481.0</ele><time>2026-05-02T13:08:16.999Z</time></trkpt><trkpt lat="43.080792123491136" lon="11.671947431430294"><ele>481.0</ele><time>2026-05-02T13:08:17.999Z</time></trkpt><trkpt lat="43.080714816693" lon="11.672048458733519"><ele>481.0</ele><time>2026-05-02T13:08:18.999Z</time></trkpt><trkpt lat="43.08063930649383" lon="11.672143083324343"><ele>481.4</ele><time>2026-05-02T13:08:19.999Z</time></trkpt><trkpt lat="43.08056381191899" lon="11.672233653096173"><ele>481.8</ele><time>2026-05-02T13:08:20.999Z</time></trkpt><trkpt lat="43.08049470582155" lon="11.672320828216359"><ele>482.19999999999993</ele><time>2026-05-02T13:08:21.999Z</time></trkpt><trkpt lat="43.080428529932945" lon="11.672404271355424"><ele>482.59999999999997</ele><time>2026-05-02T13:08:22.999Z</time></trkpt><trkpt lat="43.08035638877927" lon="11.67248913275133"><ele>483.0</ele><time>2026-05-02T13:08:23.999Z</time></trkpt><trkpt lat="43.08028605558508" lon="11.672579029859003"><ele>483.0</ele><time>2026-05-02T13:08:24.999Z</time></trkpt><trkpt lat="43.080219100987186" lon="11.67267106686866"><ele>482.99999999999994</ele><time>2026-05-02T13:08:25.999Z</time></trkpt><trkpt lat="43.08015094227207" lon="11.672763681153684"><ele>482.99999999999994</ele><time>2026-05-02T13:08:26.999Z</time></trkpt><trkpt lat="43.08008550983264" lon="11.672855408044489"><ele>483.0</ele><time>2026-05-02T13:08:27.999Z</time></trkpt><trkpt lat="43.08001933936798" lon="11.672948597466968"><ele>483.0</ele><time>2026-05-02T13:08:28.999Z</time></trkpt><trkpt lat="43.079950498947234" lon="11.673041926978364"><ele>483.5</ele><time>2026-05-02T13:08:29.999Z</time></trkpt><trkpt lat="43.07988206030519" lon="11.673137784077928"><ele>484.0</ele><time>2026-05-02T13:08:30.999Z</time></trkpt><trkpt lat="43.07981843230376" lon="11.673229250922736"><ele>484.5</ele><time>2026-05-02T13:08:31.999Z</time></trkpt><trkpt lat="43.079760376381174" lon="11.673305929802394"><ele>485.0</ele><time>2026-05-02T13:08:32.999Z</time></trkpt><trkpt lat="43.079713284683564" lon="11.67337984970188"><ele>485.5</ele><time>2026-05-02T13:08:33.999Z</time></trkpt><trkpt lat="43.079672434572004" lon="11.673453820233604"><ele>486.0</ele><time>2026-05-02T13:08:34.999Z</time></trkpt><trkpt lat="43.079637968990106" lon="11.673534896462456"><ele>486.0</ele><time>2026-05-02T13:08:35.999Z</time></trkpt><trkpt lat="43.07960268934582" lon="11.673616214476196"><ele>486.0</ele><time>2026-05-02T13:08:36.999Z</time></trkpt><trkpt lat="43.07956433164322" lon="11.673697585064192"><ele>486.0</ele><time>2026-05-02T13:08:37.999Z</time></trkpt><trkpt lat="43.0795269723752" lon="11.673786423274192"><ele>486.0</ele><time>2026-05-02T13:08:38.999Z</time></trkpt><trkpt lat="43.0794851171382" lon="11.673878639088777"><ele>486.0</ele><time>2026-05-02T13:08:39.999Z</time></trkpt><trkpt lat="43.07944464885138" lon="11.673968650486199"><ele>486.0</ele><time>2026-05-02T13:08:40.999Z</time></trkpt><trkpt lat="43.0794038326632" lon="11.674049738719622"><ele>486.0</ele><time>2026-05-02T13:08:41.999Z</time></trkpt><trkpt lat="43.079366000442384" lon="11.674130240061109"><ele>486.0</ele><time>2026-05-02T13:08:42.999Z</time></trkpt><trkpt lat="43.079331099291025" lon="11.674206906601174"><ele>486.0</ele><time>2026-05-02T13:08:43.999Z</time></trkpt><trkpt lat="43.07929474682791" lon="11.674279505991572"><ele>486.0</ele><time>2026-05-02T13:08:44.999Z</time></trkpt><trkpt lat="43.07922363508864" lon="11.67441936119031"><ele>486.0</ele><time>2026-05-02T13:08:46.999Z</time></trkpt><trkpt lat="43.07918454878223" lon="11.674487992194674"><ele>486.0</ele><time>2026-05-02T13:08:47.999Z</time></trkpt><trkpt lat="43.07914628409917" lon="11.674556522881115"><ele>486.0</ele><time>2026-05-02T13:08:48.999Z</time></trkpt><trkpt lat="43.07910687359067" lon="11.674624163137642"><ele>486.0</ele><time>2026-05-02T13:08:49.999Z</time></trkpt><trkpt lat="43.07906382948804" lon="11.674690786945474"><ele>486.3333333333333</ele><time>2026-05-02T13:08:50.999Z</time></trkpt><trkpt lat="43.07901866692554" lon="11.674757732825539"><ele>486.66666666666663</ele><time>2026-05-02T13:08:51.999Z</time></trkpt><trkpt lat="43.078971703685006" lon="11.674828195314966"><ele>487.0</ele><time>2026-05-02T13:08:52.999Z</time></trkpt><trkpt lat="43.07892177168753" lon="11.674896684100347"><ele>487.3333333333333</ele><time>2026-05-02T13:08:53.999Z</time></trkpt><trkpt lat="43.07884590674183" lon="11.675015797076735"><ele>487.66666666666663</ele><time>2026-05-02T13:08:55.999Z</time></trkpt><trkpt lat="43.07877776358667" lon="11.675126365025578"><ele>488.0</ele><time>2026-05-02T13:08:58Z</time></trkpt><trkpt lat="43.07870777981889" lon="11.675236479010131"><ele>488.2</ele><time>2026-05-02T13:09:00Z</time></trkpt><trkpt lat="43.07862996268019" lon="11.675355747488767"><ele>488.4</ele><time>2026-05-02T13:09:02Z</time></trkpt><trkpt lat="43.0785587232777" lon="11.675463592234538"><ele>488.59999999999997</ele><time>2026-05-02T13:09:04Z</time></trkpt><trkpt lat="43.078501251098096" lon="11.675550611763535"><ele>488.79999999999995</ele><time>2026-05-02T13:09:06Z</time></trkpt><trkpt lat="43.078451519942654" lon="11.675639917635461"><ele>489.0</ele><time>2026-05-02T13:09:08Z</time></trkpt><trkpt lat="43.0784009531512" lon="11.675719778316326"><ele>489.0</ele><time>2026-05-02T13:09:10Z</time></trkpt><trkpt lat="43.078341549380276" lon="11.675808573504426"><ele>489.0</ele><time>2026-05-02T13:09:12Z</time></trkpt><trkpt lat="43.07827968806357" lon="11.675910310712402"><ele>489.0</ele><time>2026-05-02T13:09:14Z</time></trkpt><trkpt lat="43.07822369457906" lon="11.676001838317905"><ele>489.0</ele><time>2026-05-02T13:09:16Z</time></trkpt><trkpt lat="43.0781698039" lon="11.67608875258737"><ele>489.0</ele><time>2026-05-02T13:09:18Z</time></trkpt><trkpt lat="43.07810346226739" lon="11.676198893026887"><ele>489.0</ele><time>2026-05-02T13:09:20Z</time></trkpt><trkpt lat="43.07802452239642" lon="11.676323770322865"><ele>489.0</ele><time>2026-05-02T13:09:22Z</time></trkpt><trkpt lat="43.07794221058136" lon="11.6764478994278"><ele>489.0</ele><time>2026-05-02T13:09:24Z</time></trkpt><trkpt lat="43.077867484979784" lon="11.676566506164951"><ele>489.0</ele><time>2026-05-02T13:09:26Z</time></trkpt><trkpt lat="43.077794849682" lon="11.676673691748473"><ele>489.0</ele><time>2026-05-02T13:09:28Z</time></trkpt><trkpt lat="43.077725377804754" lon="11.67678191627574"><ele>489.0</ele><time>2026-05-02T13:09:30Z</time></trkpt><trkpt lat="43.077681748567116" lon="11.676907948101638"><ele>489.0</ele><time>2026-05-02T13:09:32Z</time></trkpt><trkpt lat="43.07765560960053" lon="11.677024767614723"><ele>489.0</ele><time>2026-05-02T13:09:34Z</time></trkpt><trkpt lat="43.07763403713228" lon="11.677118383335163"><ele>489.0</ele><time>2026-05-02T13:09:36Z</time></trkpt><trkpt lat="43.07761906782556" lon="11.677207625227595"><ele>489.0</ele><time>2026-05-02T13:09:38Z</time></trkpt><trkpt lat="43.07759010210818" lon="11.67730691989009"><ele>489.0</ele><time>2026-05-02T13:09:42Z</time></trkpt><trkpt lat="43.07754728293539" lon="11.677373658595858"><ele>489.00000000000006</ele><time>2026-05-02T13:09:52.999Z</time></trkpt><trkpt lat="43.07748229003508" lon="11.677399760363384"><ele>489.0</ele><time>2026-05-02T13:12:46.999Z</time></trkpt><trkpt lat="43.07741636440212" lon="11.677367045172277"><ele>489.0</ele><time>2026-05-02T13:12:54.999Z</time></trkpt><trkpt lat="43.077352419596814" lon="11.677346449603162"><ele>489.00000000000006</ele><time>2026-05-02T13:13:01.999Z</time></trkpt><trkpt lat="43.077291303134366" lon="11.67729647067955"><ele>489.0</ele><time>2026-05-02T13:13:09Z</time></trkpt><trkpt lat="43.07722458563788" lon="11.677296904471502"><ele>489.0</ele><time>2026-05-02T13:13:18Z</time></trkpt><trkpt lat="43.077192044781334" lon="11.677372829900488"><ele>489.0</ele><time>2026-05-02T13:13:26Z</time></trkpt><trkpt lat="43.07717574524482" lon="11.677470927656856"><ele>489.00000000000006</ele><time>2026-05-02T13:13:36Z</time></trkpt><trkpt lat="43.07712910417671" lon="11.677547917694024"><ele>489.0</ele><time>2026-05-02T13:13:47Z</time></trkpt><trkpt lat="43.077083534204135" lon="11.677619144181898"><ele>489.0</ele><time>2026-05-02T13:13:55.999Z</time></trkpt><trkpt lat="43.07707409187457" lon="11.677712635666364"><ele>489.00000000000006</ele><time>2026-05-02T13:14:02.999Z</time></trkpt><trkpt lat="43.07709541908585" lon="11.677807913718418"><ele>489.0</ele><time>2026-05-02T13:14:10.999Z</time></trkpt><trkpt lat="43.07703390760017" lon="11.677851296239275"><ele>489.0</ele><time>2026-05-02T13:14:27.999Z</time></trkpt><trkpt lat="43.07701550867627" lon="11.67794569735303"><ele>490.28571428571433</ele><time>2026-05-02T13:14:36.999Z</time></trkpt><trkpt lat="43.07698231282374" lon="11.67802182595522"><ele>491.5714285714286</ele><time>2026-05-02T13:14:46.999Z</time></trkpt><trkpt lat="43.076959208146484" lon="11.678107958914342"><ele>492.8571428571429</ele><time>2026-05-02T13:14:56.999Z</time></trkpt><trkpt lat="43.07693216439276" lon="11.678187188343276"><ele>494.1428571428571</ele><time>2026-05-02T13:15:06.999Z</time></trkpt><trkpt lat="43.076903964415976" lon="11.678275591518263"><ele>495.4285714285714</ele><time>2026-05-02T13:15:16Z</time></trkpt><trkpt lat="43.07685724815806" lon="11.678338317555284"><ele>496.71428571428567</ele><time>2026-05-02T13:15:24Z</time></trkpt><trkpt lat="43.07681593059049" lon="11.678407801522752"><ele>498.0</ele><time>2026-05-02T13:15:32Z</time></trkpt><trkpt lat="43.076774827359465" lon="11.678482978774575"><ele>498.0</ele><time>2026-05-02T13:15:38.999Z</time></trkpt><trkpt lat="43.07673980460554" lon="11.678566580865509"><ele>497.99999999999994</ele><time>2026-05-02T13:15:45.999Z</time></trkpt><trkpt lat="43.07673726213618" lon="11.678654749736985"><ele>498.0</ele><time>2026-05-02T13:15:52.999Z</time></trkpt><trkpt lat="43.076697051146475" lon="11.678728923108332"><ele>498.0</ele><time>2026-05-02T13:15:59.999Z</time></trkpt><trkpt lat="43.07665415411898" lon="11.678800282535391"><ele>497.99999999999994</ele><time>2026-05-02T13:16:08.999Z</time></trkpt><trkpt lat="43.076618539082695" lon="11.678872293633383"><ele>498.0</ele><time>2026-05-02T13:16:17.999Z</time></trkpt><trkpt lat="43.076619162871225" lon="11.678965227160756"><ele>498.0</ele><time>2026-05-02T13:16:42.999Z</time></trkpt><trkpt lat="43.07663528482884" lon="11.679052874178053"><ele>498.2857142857143</ele><time>2026-05-02T13:16:50.999Z</time></trkpt><trkpt lat="43.076610919348305" lon="11.679133274532905"><ele>498.57142857142856</ele><time>2026-05-02T13:16:58.999Z</time></trkpt><trkpt lat="43.076608610363024" lon="11.679227414368285"><ele>498.85714285714283</ele><time>2026-05-02T13:17:06.999Z</time></trkpt><trkpt lat="43.07656310960647" lon="11.679287231879915"><ele>499.1428571428571</ele><time>2026-05-02T13:17:17.998Z</time></trkpt><trkpt lat="43.07657166561214" lon="11.679381072475143"><ele>499.42857142857144</ele><time>2026-05-02T13:17:26Z</time></trkpt><trkpt lat="43.07658956279914" lon="11.679469557843374"><ele>499.71428571428567</ele><time>2026-05-02T13:17:34Z</time></trkpt><trkpt lat="43.07658823508903" lon="11.679565175228397"><ele>500.0</ele><time>2026-05-02T13:17:43.999Z</time></trkpt><trkpt lat="43.07658079070989" lon="11.679660881425146"><ele>496.85714285714283</ele><time>2026-05-02T13:17:52.999Z</time></trkpt><trkpt lat="43.07653599337498" lon="11.679723135235305"><ele>493.7142857142858</ele><time>2026-05-02T13:17:57.999Z</time></trkpt><trkpt lat="43.076512431924016" lon="11.679810622028995"><ele>490.5714285714286</ele><time>2026-05-02T13:18:04.999Z</time></trkpt><trkpt lat="43.07650625230659" lon="11.67989656400152"><ele>487.42857142857144</ele><time>2026-05-02T13:18:11.999Z</time></trkpt><trkpt lat="43.076485719976915" lon="11.679986177213799"><ele>484.28571428571433</ele><time>2026-05-02T13:18:22.999Z</time></trkpt><trkpt lat="43.07649429994059" lon="11.680085720391713"><ele>481.1428571428572</ele><time>2026-05-02T13:18:32.999Z</time></trkpt><trkpt lat="43.07641860219039" lon="11.680103167389998"><ele>478.00000000000006</ele><time>2026-05-02T13:18:43.999Z</time></trkpt><trkpt lat="43.07635690389048" lon="11.680084462626082"><ele>478.00000000000006</ele><time>2026-05-02T13:18:49.999Z</time></trkpt><trkpt lat="43.07629242660212" lon="11.680052051751124"><ele>478.0</ele><time>2026-05-02T13:18:56.999Z</time></trkpt><trkpt lat="43.07622671748982" lon="11.680048415596769"><ele>478.00000000000006</ele><time>2026-05-02T13:19:06.999Z</time></trkpt><trkpt lat="43.07618867041657" lon="11.679978467533267"><ele>478.00000000000006</ele><time>2026-05-02T13:19:13.999Z</time></trkpt><trkpt lat="43.07619808351792" lon="11.680064494041975"><ele>478.0</ele><time>2026-05-02T13:19:46.999Z</time></trkpt><trkpt lat="43.0761921476074" lon="11.680158161380906"><ele>478.00000000000006</ele><time>2026-05-02T13:19:54.999Z</time></trkpt><trkpt lat="43.07617933543791" lon="11.680244775819407"><ele>478.00000000000006</ele><time>2026-05-02T13:20:04.999Z</time></trkpt><trkpt lat="43.076156642201646" lon="11.680337309785655"><ele>478.00000000000006</ele><time>2026-05-02T13:20:13.999Z</time></trkpt><trkpt lat="43.076140486820265" lon="11.680434950895872"><ele>478.0</ele><time>2026-05-02T13:20:19.999Z</time></trkpt><trkpt lat="43.076110368957366" lon="11.680521126716789"><ele>478.00000000000006</ele><time>2026-05-02T13:20:26.999Z</time></trkpt><trkpt lat="43.076089920404264" lon="11.680606856741065"><ele>478.00000000000006</ele><time>2026-05-02T13:20:33.999Z</time></trkpt><trkpt lat="43.07608470687718" lon="11.68069948231825"><ele>478.0</ele><time>2026-05-02T13:20:41.999Z</time></trkpt><trkpt lat="43.07611429734152" lon="11.680783565730726"><ele>478.00000000000006</ele><time>2026-05-02T13:20:48.999Z</time></trkpt><trkpt lat="43.076143841694154" lon="11.680868682736579"><ele>478.00000000000006</ele><time>2026-05-02T13:20:55.999Z</time></trkpt><trkpt lat="43.07622230584207" lon="11.680952435127965"><ele>478.00000000000006</ele><time>2026-05-02T13:21:04.999Z</time></trkpt><trkpt lat="43.07621625504115" lon="11.68103892616589"><ele>478.0</ele><time>2026-05-02T13:21:14.999Z</time></trkpt><trkpt lat="43.07621950263026" lon="11.681143734966241"><ele>478.00000000000006</ele><time>2026-05-02T13:21:20.998Z</time></trkpt><trkpt lat="43.076223346576064" lon="11.681052806848518"><ele>478.00000000000006</ele><time>2026-05-02T13:21:52.999Z</time></trkpt><trkpt lat="43.07625005434366" lon="11.680972257038906"><ele>478.0</ele><time>2026-05-02T13:22:00.999Z</time></trkpt><trkpt lat="43.07627164276712" lon="11.680880348190327"><ele>478.00000000000006</ele><time>2026-05-02T13:22:09.999Z</time></trkpt><trkpt lat="43.07629785268484" lon="11.680789668401903"><ele>478.00000000000006</ele><time>2026-05-02T13:22:17.999Z</time></trkpt><trkpt lat="43.07634678449277" lon="11.680731608493064"><ele>478.00000000000006</ele><time>2026-05-02T13:22:36.999Z</time></trkpt><trkpt lat="43.07633170270494" lon="11.680644738404396"><ele>478.0</ele><time>2026-05-02T13:22:45.999Z</time></trkpt><trkpt lat="43.076370177964336" lon="11.680573260299447"><ele>478.00000000000006</ele><time>2026-05-02T13:22:53.999Z</time></trkpt><trkpt lat="43.07638981617399" lon="11.680484807973471"><ele>478.00000000000006</ele><time>2026-05-02T13:23:02.999Z</time></trkpt><trkpt lat="43.076419212657015" lon="11.680395428348469"><ele>478.0</ele><time>2026-05-02T13:23:11.999Z</time></trkpt><trkpt lat="43.07642112830818" lon="11.6803044012876"><ele>478.00000000000006</ele><time>2026-05-02T13:23:18.999Z</time></trkpt><trkpt lat="43.0764512028112" lon="11.680217457747695"><ele>478.00000000000006</ele><time>2026-05-02T13:23:25.998Z</time></trkpt><trkpt lat="43.07647660854583" lon="11.68012407814177"><ele>478.00000000000006</ele><time>2026-05-02T13:23:34.998Z</time></trkpt><trkpt lat="43.076492309500374" lon="11.680031972128203"><ele>478.0</ele><time>2026-05-02T13:23:42.999Z</time></trkpt><trkpt lat="43.07646076699706" lon="11.679951157099396"><ele>478.00000000000006</ele><time>2026-05-02T13:23:50.999Z</time></trkpt><trkpt lat="43.07652293807818" lon="11.679897854168743"><ele>478.00000000000006</ele><time>2026-05-02T13:24:17.999Z</time></trkpt><trkpt lat="43.076546743386174" lon="11.679812910248057"><ele>478.0</ele><time>2026-05-02T13:24:25.999Z</time></trkpt><trkpt lat="43.076530004271376" lon="11.679721319094782"><ele>478.00000000000006</ele><time>2026-05-02T13:24:31.999Z</time></trkpt><trkpt lat="43.07652635738878" lon="11.6796295566125"><ele>478.00000000000006</ele><time>2026-05-02T13:24:39.999Z</time></trkpt><trkpt lat="43.076559514042465" lon="11.679536151344772"><ele>478.00000000000006</ele><time>2026-05-02T13:24:47.999Z</time></trkpt><trkpt lat="43.07655720819903" lon="11.679444212800687"><ele>478.0</ele><time>2026-05-02T13:24:54.999Z</time></trkpt><trkpt lat="43.07657716960204" lon="11.679351221357747"><ele>478.00000000000006</ele><time>2026-05-02T13:25:02.999Z</time></trkpt><trkpt lat="43.07657729329965" lon="11.679253830720224"><ele>478.00000000000006</ele><time>2026-05-02T13:25:09.999Z</time></trkpt><trkpt lat="43.07662969303365" lon="11.679168278006228"><ele>478.0</ele><time>2026-05-02T13:25:21.999Z</time></trkpt><trkpt lat="43.076621617337445" lon="11.679076659476127"><ele>478.00000000000006</ele><time>2026-05-02T13:25:27.999Z</time></trkpt><trkpt lat="43.076626197158035" lon="11.678989168223602"><ele>478.00000000000006</ele><time>2026-05-02T13:25:34.999Z</time></trkpt><trkpt lat="43.07661695171028" lon="11.678900176084804"><ele>480.8571428571429</ele><time>2026-05-02T13:25:42.999Z</time></trkpt><trkpt lat="43.076646737125365" lon="11.67881414086306"><ele>483.7142857142857</ele><time>2026-05-02T13:25:51Z</time></trkpt><trkpt lat="43.07667493316696" lon="11.678724403971001"><ele>486.57142857142856</ele><time>2026-05-02T13:25:58Z</time></trkpt><trkpt lat="43.076697533991705" lon="11.678633873436116"><ele>489.42857142857144</ele><time>2026-05-02T13:26:06Z</time></trkpt><trkpt lat="43.076709504328505" lon="11.678546806727061"><ele>492.2857142857142</ele><time>2026-05-02T13:26:15Z</time></trkpt><trkpt lat="43.07676274149534" lon="11.678484741850225"><ele>495.1428571428571</ele><time>2026-05-02T13:26:21Z</time></trkpt><trkpt lat="43.07680321642402" lon="11.678403262193633"><ele>498.0</ele><time>2026-05-02T13:26:29Z</time></trkpt><trkpt lat="43.076842464590726" lon="11.678325112402069"><ele>498.0</ele><time>2026-05-02T13:26:38Z</time></trkpt><trkpt lat="43.07688875734871" lon="11.678266274845676"><ele>497.99999999999994</ele><time>2026-05-02T13:26:45Z</time></trkpt><trkpt lat="43.07693340841253" lon="11.678182768903328"><ele>498.0</ele><time>2026-05-02T13:26:53Z</time></trkpt><trkpt lat="43.076960464295496" lon="11.678099094058048"><ele>498.0</ele><time>2026-05-02T13:27:01Z</time></trkpt><trkpt lat="43.07699001702192" lon="11.678012816654753"><ele>497.99999999999994</ele><time>2026-05-02T13:27:12Z</time></trkpt><trkpt lat="43.07699668655259" lon="11.677926953727452"><ele>498.0</ele><time>2026-05-02T13:27:21Z</time></trkpt><trkpt lat="43.07703612832331" lon="11.6778590649056"><ele>498.0</ele><time>2026-05-02T13:27:55.001Z</time></trkpt><trkpt lat="43.07705824690509" lon="11.677774437289981"><ele>496.71428571428567</ele><time>2026-05-02T13:28:14Z</time></trkpt><trkpt lat="43.07708579563492" lon="11.677691839740746"><ele>495.4285714285714</ele><time>2026-05-02T13:28:25Z</time></trkpt><trkpt lat="43.077136515312006" lon="11.677626549133423"><ele>494.1428571428571</ele><time>2026-05-02T13:28:35Z</time></trkpt><trkpt lat="43.07716227074598" lon="11.677538743601323"><ele>492.8571428571429</ele><time>2026-05-02T13:28:48Z</time></trkpt><trkpt lat="43.07717018992348" lon="11.677452021243198"><ele>491.5714285714286</ele><time>2026-05-02T13:28:58Z</time></trkpt><trkpt lat="43.077207829656246" lon="11.677382667649802"><ele>490.28571428571433</ele><time>2026-05-02T13:29:08Z</time></trkpt><trkpt lat="43.077232428959555" lon="11.677288922455174"><ele>489.0</ele><time>2026-05-02T13:29:14Z</time></trkpt><trkpt lat="43.07729602120034" lon="11.677301820671017"><ele>489.0</ele><time>2026-05-02T13:29:20Z</time></trkpt><trkpt lat="43.0773562589532" lon="11.677349743229557"><ele>489.0</ele><time>2026-05-02T13:29:29Z</time></trkpt><trkpt lat="43.07743113083763" lon="11.677366099738297"><ele>489.0</ele><time>2026-05-02T13:29:38Z</time></trkpt><trkpt lat="43.077498324383576" lon="11.677346814037621"><ele>489.0</ele><time>2026-05-02T13:29:43.999Z</time></trkpt><trkpt lat="43.0776062195179" lon="11.677324255951076"><ele>489.0</ele><time>2026-05-02T13:36:18Z</time></trkpt><trkpt lat="43.07766285463992" lon="11.677183097403987"><ele>489.0</ele><time>2026-05-02T13:36:20Z</time></trkpt><trkpt lat="43.07768641879978" lon="11.677032474425092"><ele>489.0</ele><time>2026-05-02T13:36:22Z</time></trkpt><trkpt lat="43.07771620548778" lon="11.67688766462415"><ele>489.0</ele><time>2026-05-02T13:36:24Z</time></trkpt><trkpt lat="43.0777773886606" lon="11.676751877762582"><ele>489.0</ele><time>2026-05-02T13:36:26Z</time></trkpt><trkpt lat="43.07785282288755" lon="11.676617115902221"><ele>489.0</ele><time>2026-05-02T13:36:28Z</time></trkpt><trkpt lat="43.077925950948426" lon="11.676492404277006"><ele>489.0</ele><time>2026-05-02T13:36:30Z</time></trkpt><trkpt lat="43.0779984744986" lon="11.6763804923356"><ele>489.0</ele><time>2026-05-02T13:36:32Z</time></trkpt><trkpt lat="43.078065382618554" lon="11.676276440573481"><ele>489.0</ele><time>2026-05-02T13:36:34Z</time></trkpt><trkpt lat="43.078122747514826" lon="11.676192044184933"><ele>489.0</ele><time>2026-05-02T13:36:36Z</time></trkpt><trkpt lat="43.07817686148904" lon="11.676098430376511"><ele>489.0</ele><time>2026-05-02T13:36:38Z</time></trkpt><trkpt lat="43.07824992918763" lon="11.675980487700858"><ele>489.0</ele><time>2026-05-02T13:36:40Z</time></trkpt><trkpt lat="43.07832906529626" lon="11.675859316291552"><ele>489.0</ele><time>2026-05-02T13:36:42Z</time></trkpt><trkpt lat="43.07839777697608" lon="11.675750996642236"><ele>489.0</ele><time>2026-05-02T13:36:44Z</time></trkpt><trkpt lat="43.07845331394605" lon="11.675667348452432"><ele>489.0</ele><time>2026-05-02T13:36:46Z</time></trkpt><trkpt lat="43.078507171189756" lon="11.675590491105451"><ele>489.0</ele><time>2026-05-02T13:36:48Z</time></trkpt><trkpt lat="43.07856153005429" lon="11.675493907615916"><ele>489.0</ele><time>2026-05-02T13:36:50Z</time></trkpt><trkpt lat="43.078611879601596" lon="11.675416747181226"><ele>489.0</ele><time>2026-05-02T13:36:52Z</time></trkpt><trkpt lat="43.07866306105459" lon="11.675337423098764"><ele>489.0</ele><time>2026-05-02T13:36:54Z</time></trkpt><trkpt lat="43.078714614322436" lon="11.675259854535184"><ele>489.0</ele><time>2026-05-02T13:36:56Z</time></trkpt><trkpt lat="43.078758381022446" lon="11.675188558786827"><ele>489.0</ele><time>2026-05-02T13:36:58Z</time></trkpt><trkpt lat="43.0788122607026" lon="11.67510722904697"><ele>489.0</ele><time>2026-05-02T13:37:00Z</time></trkpt><trkpt lat="43.07887333564954" lon="11.675011894970028"><ele>488.8333333333333</ele><time>2026-05-02T13:37:02Z</time></trkpt><trkpt lat="43.07893109161926" lon="11.674921801225913"><ele>488.66666666666663</ele><time>2026-05-02T13:37:04Z</time></trkpt><trkpt lat="43.07897651948297" lon="11.674850829462997"><ele>488.5</ele><time>2026-05-02T13:37:06Z</time></trkpt><trkpt lat="43.07902024200747" lon="11.674782815515726"><ele>488.3333333333333</ele><time>2026-05-02T13:37:09Z</time></trkpt><trkpt lat="43.07909111082896" lon="11.674682999457666"><ele>488.16666666666663</ele><time>2026-05-02T13:37:12Z</time></trkpt><trkpt lat="43.079157298326024" lon="11.674580427392318"><ele>488.0</ele><time>2026-05-02T13:37:14Z</time></trkpt><trkpt lat="43.07921380754068" lon="11.674479493923767"><ele>487.59999999999997</ele><time>2026-05-02T13:37:16Z</time></trkpt><trkpt lat="43.07926741941307" lon="11.67437803060137"><ele>487.19999999999993</ele><time>2026-05-02T13:37:18Z</time></trkpt><trkpt lat="43.079316605144236" lon="11.674287897638463"><ele>486.8</ele><time>2026-05-02T13:37:20Z</time></trkpt><trkpt lat="43.07936027462236" lon="11.674194670802285"><ele>486.4</ele><time>2026-05-02T13:37:22Z</time></trkpt><trkpt lat="43.07941324734181" lon="11.6740780119904"><ele>486.0</ele><time>2026-05-02T13:37:24Z</time></trkpt><trkpt lat="43.079471397073725" lon="11.673935124161764"><ele>486.0</ele><time>2026-05-02T13:37:26Z</time></trkpt><trkpt lat="43.07951940829113" lon="11.673867880372867"><ele>486.0</ele><time>2026-05-02T13:37:27Z</time></trkpt><trkpt lat="43.07955525035746" lon="11.67378755291212"><ele>486.0</ele><time>2026-05-02T13:37:28Z</time></trkpt><trkpt lat="43.079591843323776" lon="11.673705542504662"><ele>486.0</ele><time>2026-05-02T13:37:29Z</time></trkpt><trkpt lat="43.07961607563073" lon="11.673612738458168"><ele>486.0</ele><time>2026-05-02T13:37:30Z</time></trkpt><trkpt lat="43.079659858976854" lon="11.673536324776046"><ele>486.0</ele><time>2026-05-02T13:37:31Z</time></trkpt><trkpt lat="43.079695679484324" lon="11.673463515039291"><ele>486.0</ele><time>2026-05-02T13:37:32Z</time></trkpt><trkpt lat="43.07976231021724" lon="11.673349125052868"><ele>486.0</ele><time>2026-05-02T13:37:34Z</time></trkpt><trkpt lat="43.0798435831702" lon="11.673237019155959"><ele>486.0</ele><time>2026-05-02T13:37:36Z</time></trkpt><trkpt lat="43.07989208102912" lon="11.673172642530258"><ele>486.0</ele><time>2026-05-02T13:37:37Z</time></trkpt><trkpt lat="43.079943440543765" lon="11.673106138747904"><ele>486.0</ele><time>2026-05-02T13:37:38Z</time></trkpt><trkpt lat="43.07999128200939" lon="11.673039210643466"><ele>486.0</ele><time>2026-05-02T13:37:39Z</time></trkpt><trkpt lat="43.080068299544635" lon="11.672920741507685"><ele>486.0</ele><time>2026-05-02T13:37:41Z</time></trkpt><trkpt lat="43.08014165432895" lon="11.672812910785295"><ele>485.5</ele><time>2026-05-02T13:37:43Z</time></trkpt><trkpt lat="43.08022988931627" lon="11.672689388742814"><ele>485.0</ele><time>2026-05-02T13:37:44.999Z</time></trkpt><trkpt lat="43.08028659776189" lon="11.672608824886208"><ele>484.5</ele><time>2026-05-02T13:37:45.999Z</time></trkpt><trkpt lat="43.080345520106334" lon="11.672527569548047"><ele>484.0</ele><time>2026-05-02T13:37:46.999Z</time></trkpt><trkpt lat="43.080399987783686" lon="11.672455687477163"><ele>483.5</ele><time>2026-05-02T13:37:47.999Z</time></trkpt><trkpt lat="43.08046431669886" lon="11.672404595679478"><ele>483.0</ele><time>2026-05-02T13:37:48.999Z</time></trkpt><trkpt lat="43.08052115220591" lon="11.672334601082012"><ele>483.0</ele><time>2026-05-02T13:37:49.999Z</time></trkpt><trkpt lat="43.08057745456179" lon="11.672265263110804"><ele>482.99999999999994</ele><time>2026-05-02T13:37:50.999Z</time></trkpt><trkpt lat="43.08062894653024" lon="11.672201849288019"><ele>482.99999999999994</ele><time>2026-05-02T13:37:51.999Z</time></trkpt><trkpt lat="43.080713809556514" lon="11.672097338040619"><ele>483.0</ele><time>2026-05-02T13:37:53.999Z</time></trkpt><trkpt lat="43.08077586902013" lon="11.672022260921239"><ele>483.0</ele><time>2026-05-02T13:37:55.999Z</time></trkpt><trkpt lat="43.08084840205168" lon="11.671910656033763"><ele>482.6666666666667</ele><time>2026-05-02T13:37:56.999Z</time></trkpt><trkpt lat="43.08093267978452" lon="11.67181751014913"><ele>482.33333333333337</ele><time>2026-05-02T13:37:58.999Z</time></trkpt><trkpt lat="43.08098493385339" lon="11.671765361954824"><ele>482.0</ele><time>2026-05-02T13:37:59.999Z</time></trkpt><trkpt lat="43.08104169592253" lon="11.671718986757675"><ele>481.6666666666667</ele><time>2026-05-02T13:38:00.999Z</time></trkpt><trkpt lat="43.08110810494579" lon="11.67168117626969"><ele>481.33333333333337</ele><time>2026-05-02T13:38:01.999Z</time></trkpt><trkpt lat="43.08117625657106" lon="11.67163993940234"><ele>481.0</ele><time>2026-05-02T13:38:02.999Z</time></trkpt><trkpt lat="43.08124789907229" lon="11.671606577903678"><ele>481.00000000000006</ele><time>2026-05-02T13:38:03.999Z</time></trkpt><trkpt lat="43.081323872259105" lon="11.671582503981615"><ele>481.0</ele><time>2026-05-02T13:38:04.999Z</time></trkpt><trkpt lat="43.08139174683662" lon="11.671567482646502"><ele>481.0</ele><time>2026-05-02T13:38:05.999Z</time></trkpt><trkpt lat="43.08150539283489" lon="11.671556511946953"><ele>481.0</ele><time>2026-05-02T13:38:07.999Z</time></trkpt><trkpt lat="43.08157908155141" lon="11.671538163024687"><ele>481.00000000000006</ele><time>2026-05-02T13:38:08.999Z</time></trkpt><trkpt lat="43.08167038280968" lon="11.671515428530647"><ele>481.0</ele><time>2026-05-02T13:38:09.999Z</time></trkpt><trkpt lat="43.081768721341724" lon="11.671469641010741"><ele>480.20000000000005</ele><time>2026-05-02T13:38:10.999Z</time></trkpt><trkpt lat="43.081881045707895" lon="11.67146218251188"><ele>479.40000000000003</ele><time>2026-05-02T13:38:11.999Z</time></trkpt><trkpt lat="43.08199444813041" lon="11.671431980292242"><ele>478.6</ele><time>2026-05-02T13:38:12.999Z</time></trkpt><trkpt lat="43.08209424799863" lon="11.67137789431958"><ele>477.8</ele><time>2026-05-02T13:38:13.999Z</time></trkpt><trkpt lat="43.082186122441804" lon="11.671354371344965"><ele>477.0</ele><time>2026-05-02T13:38:14.999Z</time></trkpt><trkpt lat="43.0822694275041" lon="11.671333750056066"><ele>477.0</ele><time>2026-05-02T13:38:15.999Z</time></trkpt><trkpt lat="43.08234115461617" lon="11.67133149391499"><ele>477.0</ele><time>2026-05-02T13:38:16.999Z</time></trkpt><trkpt lat="43.082404269789734" lon="11.671349825233493"><ele>477.0</ele><time>2026-05-02T13:38:17.999Z</time></trkpt><trkpt lat="43.08253094662299" lon="11.671340110072439"><ele>477.0</ele><time>2026-05-02T13:38:20Z</time></trkpt><trkpt lat="43.082564179487186" lon="11.671219132652638"><ele>477.0</ele><time>2026-05-02T13:38:21Z</time></trkpt><trkpt lat="43.08256908781476" lon="11.671117490369632"><ele>477.0</ele><time>2026-05-02T13:38:22Z</time></trkpt><trkpt lat="43.08256017175803" lon="11.671001634616802"><ele>476.8</ele><time>2026-05-02T13:38:23Z</time></trkpt><trkpt lat="43.08256638390794" lon="11.670888975618194"><ele>476.6</ele><time>2026-05-02T13:38:24Z</time></trkpt><trkpt lat="43.08260565701121" lon="11.670768802938507"><ele>476.40000000000003</ele><time>2026-05-02T13:38:25Z</time></trkpt><trkpt lat="43.08266602258401" lon="11.670635506193488"><ele>476.20000000000005</ele><time>2026-05-02T13:38:26Z</time></trkpt><trkpt lat="43.08274438793336" lon="11.67049480494995"><ele>476.0</ele><time>2026-05-02T13:38:27Z</time></trkpt><trkpt lat="43.082834526194496" lon="11.670334031119374"><ele>475.66666666666663</ele><time>2026-05-02T13:38:28Z</time></trkpt><trkpt lat="43.0829121685662" lon="11.670155329767635"><ele>475.33333333333337</ele><time>2026-05-02T13:38:29Z</time></trkpt><trkpt lat="43.08298533792406" lon="11.669951731420312"><ele>475.0</ele><time>2026-05-02T13:38:30Z</time></trkpt><trkpt lat="43.08306291599915" lon="11.669730361723012"><ele>475.0</ele><time>2026-05-02T13:38:31Z</time></trkpt><trkpt lat="43.08314252257836" lon="11.669509344550084"><ele>475.0</ele><time>2026-05-02T13:38:32Z</time></trkpt><trkpt lat="43.08322560357838" lon="11.66928475372899"><ele>475.0</ele><time>2026-05-02T13:38:33Z</time></trkpt><trkpt lat="43.083308101938165" lon="11.66905677725688"><ele>473.0</ele><time>2026-05-02T13:38:34Z</time></trkpt><trkpt lat="43.083389099453704" lon="11.668827768383911"><ele>471.0</ele><time>2026-05-02T13:38:35Z</time></trkpt><trkpt lat="43.08346949566481" lon="11.668598137685073"><ele>469.0</ele><time>2026-05-02T13:38:36Z</time></trkpt><trkpt lat="43.083547099343285" lon="11.668369809755987"><ele>468.6666666666667</ele><time>2026-05-02T13:38:37Z</time></trkpt><trkpt lat="43.08362323529835" lon="11.668140141238514"><ele>468.33333333333337</ele><time>2026-05-02T13:38:38Z</time></trkpt><trkpt lat="43.08369650837511" lon="11.667912211512924"><ele>468.0</ele><time>2026-05-02T13:38:39Z</time></trkpt><trkpt lat="43.083765098610556" lon="11.667681443796068"><ele>468.0</ele><time>2026-05-02T13:38:40Z</time></trkpt><trkpt lat="43.083831266990195" lon="11.667447074007175"><ele>468.0</ele><time>2026-05-02T13:38:41Z</time></trkpt><trkpt lat="43.08389879737236" lon="11.667209996348216"><ele>468.0</ele><time>2026-05-02T13:38:42Z</time></trkpt><trkpt lat="43.08396238214993" lon="11.666994402328854"><ele>467.0</ele><time>2026-05-02T13:38:43Z</time></trkpt><trkpt lat="43.08402984384959" lon="11.666797091020934"><ele>466.0</ele><time>2026-05-02T13:38:44Z</time></trkpt><trkpt lat="43.08411403690336" lon="11.666600476791265"><ele>465.0</ele><time>2026-05-02T13:38:45Z</time></trkpt><trkpt lat="43.08421339682758" lon="11.666402784660884"><ele>464.33333333333337</ele><time>2026-05-02T13:38:46Z</time></trkpt><trkpt lat="43.08432064104365" lon="11.666203205324942"><ele>463.6666666666667</ele><time>2026-05-02T13:38:47Z</time></trkpt><trkpt lat="43.08442450933169" lon="11.665999859952024"><ele>463.0</ele><time>2026-05-02T13:38:48Z</time></trkpt><trkpt lat="43.08452491258743" lon="11.665794262192874"><ele>462.6666666666667</ele><time>2026-05-02T13:38:49Z</time></trkpt><trkpt lat="43.084624267045854" lon="11.665589981718137"><ele>462.33333333333337</ele><time>2026-05-02T13:38:50Z</time></trkpt><trkpt lat="43.084721845500454" lon="11.665393348457222"><ele>462.0</ele><time>2026-05-02T13:38:51Z</time></trkpt><trkpt lat="43.08481733763154" lon="11.66520149114416"><ele>462.0</ele><time>2026-05-02T13:38:52Z</time></trkpt><trkpt lat="43.08491036902599" lon="11.665014961299454"><ele>462.0</ele><time>2026-05-02T13:38:53Z</time></trkpt><trkpt lat="43.08499983315701" lon="11.66482820281731"><ele>462.0</ele><time>2026-05-02T13:38:54Z</time></trkpt><trkpt lat="43.08508020694545" lon="11.664642025732496"><ele>460.66666666666663</ele><time>2026-05-02T13:38:55Z</time></trkpt><trkpt lat="43.08514890878715" lon="11.664444921849787"><ele>459.3333333333333</ele><time>2026-05-02T13:38:56Z</time></trkpt><trkpt lat="43.08520331976606" lon="11.66424037930595"><ele>458.0</ele><time>2026-05-02T13:38:57Z</time></trkpt><trkpt lat="43.085242997275756" lon="11.664043626902263"><ele>458.0</ele><time>2026-05-02T13:38:58Z</time></trkpt><trkpt lat="43.08528469332009" lon="11.663848020156973"><ele>458.0</ele><time>2026-05-02T13:38:59Z</time></trkpt><trkpt lat="43.085328695673354" lon="11.663658636011782"><ele>458.0</ele><time>2026-05-02T13:39:00Z</time></trkpt><trkpt lat="43.085368451939196" lon="11.663472762053173"><ele>458.0</ele><time>2026-05-02T13:39:01Z</time></trkpt><trkpt lat="43.08541085030314" lon="11.663278706653669"><ele>457.5</ele><time>2026-05-02T13:39:02Z</time></trkpt><trkpt lat="43.0854548908442" lon="11.663093596426405"><ele>457.0</ele><time>2026-05-02T13:39:03Z</time></trkpt><trkpt lat="43.085503043506925" lon="11.662919032062995"><ele>456.5</ele><time>2026-05-02T13:39:04Z</time></trkpt><trkpt lat="43.085548825821284" lon="11.662757130997912"><ele>456.0</ele><time>2026-05-02T13:39:05Z</time></trkpt><trkpt lat="43.08559702176164" lon="11.662602588419967"><ele>455.0</ele><time>2026-05-02T13:39:06Z</time></trkpt><trkpt lat="43.08564766230098" lon="11.66244700157057"><ele>454.0</ele><time>2026-05-02T13:39:07Z</time></trkpt><trkpt lat="43.08570466752348" lon="11.662290256121613"><ele>453.0</ele><time>2026-05-02T13:39:08Z</time></trkpt><trkpt lat="43.08576217940753" lon="11.662129095316507"><ele>452.0</ele><time>2026-05-02T13:39:09Z</time></trkpt><trkpt lat="43.08582254621342" lon="11.661967346314771"><ele>451.0</ele><time>2026-05-02T13:39:10Z</time></trkpt><trkpt lat="43.08588212354998" lon="11.66180575143006"><ele>450.0</ele><time>2026-05-02T13:39:11Z</time></trkpt><trkpt lat="43.08593965816332" lon="11.661648160282766"><ele>449.0</ele><time>2026-05-02T13:39:12Z</time></trkpt><trkpt lat="43.08599515074952" lon="11.66149209086478"><ele>448.0</ele><time>2026-05-02T13:39:13Z</time></trkpt><trkpt lat="43.08605041719672" lon="11.661340942208348"><ele>448.0</ele><time>2026-05-02T13:39:14Z</time></trkpt><trkpt lat="43.08611127513349" lon="11.661190103565938"><ele>448.0</ele><time>2026-05-02T13:39:15Z</time></trkpt><trkpt lat="43.086160992454715" lon="11.661036017848295"><ele>448.0</ele><time>2026-05-02T13:39:16Z</time></trkpt><trkpt lat="43.086222785812566" lon="11.660883865342567"><ele>448.0</ele><time>2026-05-02T13:39:17Z</time></trkpt><trkpt lat="43.08628932966905" lon="11.660730074226057"><ele>446.5</ele><time>2026-05-02T13:39:18Z</time></trkpt><trkpt lat="43.086353613584414" lon="11.66058343977489"><ele>445.0</ele><time>2026-05-02T13:39:19Z</time></trkpt><trkpt lat="43.08641800622512" lon="11.660429765186944"><ele>443.5</ele><time>2026-05-02T13:39:20Z</time></trkpt><trkpt lat="43.086484785639946" lon="11.660277756402552"><ele>442.0</ele><time>2026-05-02T13:39:21Z</time></trkpt><trkpt lat="43.08655766384198" lon="11.660144275654803"><ele>441.40000000000003</ele><time>2026-05-02T13:39:22Z</time></trkpt><trkpt lat="43.08664020522983" lon="11.660032072276273"><ele>440.80000000000007</ele><time>2026-05-02T13:39:23Z</time></trkpt><trkpt lat="43.08673530027593" lon="11.65995113277588"><ele>440.2</ele><time>2026-05-02T13:39:24Z</time></trkpt><trkpt lat="43.08683024895658" lon="11.65990112492996"><ele>439.6</ele><time>2026-05-02T13:39:25Z</time></trkpt><trkpt lat="43.086936098406085" lon="11.659874919784066"><ele>439.0</ele><time>2026-05-02T13:39:26Z</time></trkpt><trkpt lat="43.08705235628412" lon="11.659871965633544"><ele>439.0</ele><time>2026-05-02T13:39:27Z</time></trkpt><trkpt lat="43.08717477649188" lon="11.659890834583111"><ele>439.0</ele><time>2026-05-02T13:39:28Z</time></trkpt><trkpt lat="43.087295055372856" lon="11.659907331028927"><ele>439.0</ele><time>2026-05-02T13:39:29Z</time></trkpt><trkpt lat="43.08740970751119" lon="11.659922029971254"><ele>439.0</ele><time>2026-05-02T13:39:30Z</time></trkpt><trkpt lat="43.087519852745025" lon="11.659937641039232"><ele>438.6</ele><time>2026-05-02T13:39:31Z</time></trkpt><trkpt lat="43.087625081175055" lon="11.659952911580742"><ele>438.2</ele><time>2026-05-02T13:39:32Z</time></trkpt><trkpt lat="43.087734289385764" lon="11.65996655944414"><ele>437.80000000000007</ele><time>2026-05-02T13:39:33Z</time></trkpt><trkpt lat="43.087845322795864" lon="11.659981695276839"><ele>437.40000000000003</ele><time>2026-05-02T13:39:34Z</time></trkpt><trkpt lat="43.08795537882919" lon="11.659999318241384"><ele>437.0</ele><time>2026-05-02T13:39:35Z</time></trkpt><trkpt lat="43.08806062944629" lon="11.660014025341615"><ele>437.0</ele><time>2026-05-02T13:39:36Z</time></trkpt><trkpt lat="43.08816182093519" lon="11.66001809483464"><ele>437.00000000000006</ele><time>2026-05-02T13:39:37Z</time></trkpt><trkpt lat="43.08826417622279" lon="11.660001198318403"><ele>437.00000000000006</ele><time>2026-05-02T13:39:38Z</time></trkpt><trkpt lat="43.0883607137087" lon="11.659954180683128"><ele>437.0</ele><time>2026-05-02T13:39:39Z</time></trkpt><trkpt lat="43.088445764815276" lon="11.65988013472601"><ele>437.0</ele><time>2026-05-02T13:39:39.999Z</time></trkpt><trkpt lat="43.08851903531674" lon="11.659786273695419"><ele>436.20000000000005</ele><time>2026-05-02T13:39:40.999Z</time></trkpt><trkpt lat="43.08856846179402" lon="11.659663923266402"><ele>435.40000000000003</ele><time>2026-05-02T13:39:41.999Z</time></trkpt><trkpt lat="43.088588007196115" lon="11.659520068374759"><ele>434.59999999999997</ele><time>2026-05-02T13:39:42.999Z</time></trkpt><trkpt lat="43.08858018938907" lon="11.659371070089827"><ele>433.79999999999995</ele><time>2026-05-02T13:39:43.999Z</time></trkpt><trkpt lat="43.08854850076558" lon="11.659232303253816"><ele>433.0</ele><time>2026-05-02T13:39:44.999Z</time></trkpt><trkpt lat="43.08850262964188" lon="11.659108837749946"><ele>432.1666666666667</ele><time>2026-05-02T13:39:45.999Z</time></trkpt><trkpt lat="43.088454285567295" lon="11.659004520639733"><ele>431.33333333333337</ele><time>2026-05-02T13:39:46.999Z</time></trkpt><trkpt lat="43.08841806558653" lon="11.658900305437093"><ele>430.5</ele><time>2026-05-02T13:39:47.999Z</time></trkpt><trkpt lat="43.08840627315485" lon="11.658787814959972"><ele>429.66666666666663</ele><time>2026-05-02T13:39:48.999Z</time></trkpt><trkpt lat="43.088420266765176" lon="11.658664091569392"><ele>428.8333333333333</ele><time>2026-05-02T13:39:49.999Z</time></trkpt><trkpt lat="43.088457247212986" lon="11.658548662240603"><ele>428.0</ele><time>2026-05-02T13:39:50.999Z</time></trkpt><trkpt lat="43.08852944545123" lon="11.658460017614962"><ele>426.66666666666663</ele><time>2026-05-02T13:39:51.999Z</time></trkpt><trkpt lat="43.088612279964885" lon="11.658349299550448"><ele>425.33333333333337</ele><time>2026-05-02T13:39:52.999Z</time></trkpt><trkpt lat="43.088730697461656" lon="11.658202838589347"><ele>424.0</ele><time>2026-05-02T13:39:53.999Z</time></trkpt><trkpt lat="43.08887345576129" lon="11.658026272585476"><ele>424.0</ele><time>2026-05-02T13:39:54.999Z</time></trkpt><trkpt lat="43.089049728092306" lon="11.657807667519819"><ele>424.0</ele><time>2026-05-02T13:39:55.999Z</time></trkpt><trkpt lat="43.08923126790726" lon="11.657576736066328"><ele>422.33333333333337</ele><time>2026-05-02T13:39:56.999Z</time></trkpt><trkpt lat="43.08938146995631" lon="11.657369550219643"><ele>420.66666666666663</ele><time>2026-05-02T13:39:57.999Z</time></trkpt><trkpt lat="43.0895395724833" lon="11.657245510874159"><ele>419.0</ele><time>2026-05-02T13:39:58.999Z</time></trkpt><trkpt lat="43.08970479011486" lon="11.657168927866204"><ele>419.0</ele><time>2026-05-02T13:39:59.999Z</time></trkpt><trkpt lat="43.089868141380926" lon="11.65711152132699"><ele>419.0</ele><time>2026-05-02T13:40:00.999Z</time></trkpt><trkpt lat="43.09001688682628" lon="11.657038331761994"><ele>419.0</ele><time>2026-05-02T13:40:01.999Z</time></trkpt><trkpt lat="43.0901406390469" lon="11.656942348032299"><ele>418.5</ele><time>2026-05-02T13:40:02.999Z</time></trkpt><trkpt lat="43.090234719977964" lon="11.65679539309987"><ele>418.0</ele><time>2026-05-02T13:40:03.999Z</time></trkpt><trkpt lat="43.09029770997353" lon="11.65663527489444"><ele>417.5</ele><time>2026-05-02T13:40:04.999Z</time></trkpt><trkpt lat="43.09033313557979" lon="11.656473166525126"><ele>417.0</ele><time>2026-05-02T13:40:05.999Z</time></trkpt><trkpt lat="43.09034391808493" lon="11.65631240254342"><ele>417.0</ele><time>2026-05-02T13:40:06.999Z</time></trkpt><trkpt lat="43.090327897196886" lon="11.656149695308896"><ele>417.0</ele><time>2026-05-02T13:40:07.999Z</time></trkpt><trkpt lat="43.09030094485984" lon="11.65599026394864"><ele>417.0</ele><time>2026-05-02T13:40:08.999Z</time></trkpt><trkpt lat="43.09027426241791" lon="11.655831550324347"><ele>417.0</ele><time>2026-05-02T13:40:09.999Z</time></trkpt><trkpt lat="43.090269724178825" lon="11.655672276889513"><ele>416.20000000000005</ele><time>2026-05-02T13:40:10.999Z</time></trkpt><trkpt lat="43.09030092842369" lon="11.65552559651834"><ele>415.4</ele><time>2026-05-02T13:40:11.999Z</time></trkpt><trkpt lat="43.090328202561835" lon="11.65538634773158"><ele>414.6</ele><time>2026-05-02T13:40:12.999Z</time></trkpt><trkpt lat="43.090367342618855" lon="11.655247769891274"><ele>413.79999999999995</ele><time>2026-05-02T13:40:13.999Z</time></trkpt><trkpt lat="43.09042440256603" lon="11.65511208580166"><ele>413.0</ele><time>2026-05-02T13:40:14.999Z</time></trkpt><trkpt lat="43.0904983585696" lon="11.654984053747334"><ele>413.0</ele><time>2026-05-02T13:40:15.999Z</time></trkpt><trkpt lat="43.090591914344955" lon="11.654880415900427"><ele>413.0</ele><time>2026-05-02T13:40:16.999Z</time></trkpt><trkpt lat="43.09070525826889" lon="11.654786049989298"><ele>413.0</ele><time>2026-05-02T13:40:17.999Z</time></trkpt><trkpt lat="43.090846672519405" lon="11.654676952842603"><ele>413.0</ele><time>2026-05-02T13:40:18.999Z</time></trkpt><trkpt lat="43.09101009645731" lon="11.65455087566401"><ele>410.0</ele><time>2026-05-02T13:40:19.999Z</time></trkpt><trkpt lat="43.09118661394915" lon="11.654414697204146"><ele>407.0</ele><time>2026-05-02T13:40:20.999Z</time></trkpt><trkpt lat="43.091361693363716" lon="11.654282067890462"><ele>404.0</ele><time>2026-05-02T13:40:21.999Z</time></trkpt><trkpt lat="43.09152211508753" lon="11.654166952914006"><ele>405.0</ele><time>2026-05-02T13:40:22.999Z</time></trkpt><trkpt lat="43.09167345916912" lon="11.654090249398868"><ele>406.0</ele><time>2026-05-02T13:40:23.999Z</time></trkpt><trkpt lat="43.09182725651633" lon="11.654064842702834"><ele>407.0</ele><time>2026-05-02T13:40:25Z</time></trkpt><trkpt lat="43.091986803351865" lon="11.654075886467517"><ele>407.0</ele><time>2026-05-02T13:40:26Z</time></trkpt><trkpt lat="43.09214236949043" lon="11.654137627628664"><ele>407.0</ele><time>2026-05-02T13:40:27Z</time></trkpt><trkpt lat="43.09228727933609" lon="11.654211921335513"><ele>407.0</ele><time>2026-05-02T13:40:28Z</time></trkpt><trkpt lat="43.09242165663172" lon="11.654264440349639"><ele>406.40000000000003</ele><time>2026-05-02T13:40:29Z</time></trkpt><trkpt lat="43.09252770678841" lon="11.654323246739473"><ele>405.8</ele><time>2026-05-02T13:40:30Z</time></trkpt><trkpt lat="43.0926235629744" lon="11.654351020676001"><ele>405.2</ele><time>2026-05-02T13:40:31Z</time></trkpt><trkpt lat="43.09271704537001" lon="11.65435483828394"><ele>404.6</ele><time>2026-05-02T13:40:32Z</time></trkpt><trkpt lat="43.09280063270789" lon="11.654314608839616"><ele>404.0</ele><time>2026-05-02T13:40:33Z</time></trkpt><trkpt lat="43.09286277099513" lon="11.654236141876114"><ele>403.99999999999994</ele><time>2026-05-02T13:40:34Z</time></trkpt><trkpt lat="43.09290322049389" lon="11.654129437858268"><ele>404.0</ele><time>2026-05-02T13:40:35Z</time></trkpt><trkpt lat="43.09291431163579" lon="11.654004357815696"><ele>404.0</ele><time>2026-05-02T13:40:36Z</time></trkpt><trkpt lat="43.092890901331245" lon="11.653886295021987"><ele>404.0</ele><time>2026-05-02T13:40:37Z</time></trkpt><trkpt lat="43.09283759173449" lon="11.65378836689979"><ele>403.99999999999994</ele><time>2026-05-02T13:40:38Z</time></trkpt><trkpt lat="43.092763489925474" lon="11.653718356018597"><ele>404.0</ele><time>2026-05-02T13:40:39Z</time></trkpt><trkpt lat="43.09267445646789" lon="11.653681543702204"><ele>404.0</ele><time>2026-05-02T13:40:40Z</time></trkpt><trkpt lat="43.09257525364362" lon="11.653676951490876"><ele>404.0</ele><time>2026-05-02T13:40:41Z</time></trkpt><trkpt lat="43.09246038972207" lon="11.65368572070014"><ele>404.0</ele><time>2026-05-02T13:40:42Z</time></trkpt><trkpt lat="43.09230798994519" lon="11.653657050554141"><ele>404.0</ele><time>2026-05-02T13:40:43Z</time></trkpt><trkpt lat="43.092142456629844" lon="11.653618785107918"><ele>402.5</ele><time>2026-05-02T13:40:44Z</time></trkpt><trkpt lat="43.091996442124405" lon="11.6535457126183"><ele>401.0</ele><time>2026-05-02T13:40:45Z</time></trkpt><trkpt lat="43.09186272778995" lon="11.653488470119308"><ele>399.5</ele><time>2026-05-02T13:40:46Z</time></trkpt><trkpt lat="43.09173884022755" lon="11.653440526074212"><ele>398.0</ele><time>2026-05-02T13:40:47Z</time></trkpt><trkpt lat="43.091643284087766" lon="11.653406496493192"><ele>396.5</ele><time>2026-05-02T13:40:48Z</time></trkpt><trkpt lat="43.09153496654594" lon="11.653376204997056"><ele>395.0</ele><time>2026-05-02T13:40:49Z</time></trkpt><trkpt lat="43.091410661475976" lon="11.653366821219976"><ele>393.5</ele><time>2026-05-02T13:40:50Z</time></trkpt><trkpt lat="43.091277051310875" lon="11.653374664799685"><ele>392.0</ele><time>2026-05-02T13:40:51Z</time></trkpt><trkpt lat="43.091126656031" lon="11.653403204362716"><ele>392.0</ele><time>2026-05-02T13:40:52Z</time></trkpt><trkpt lat="43.09092831779608" lon="11.653429981212964"><ele>392.0</ele><time>2026-05-02T13:40:53Z</time></trkpt><trkpt lat="43.090715925088034" lon="11.653469857347924"><ele>392.0</ele><time>2026-05-02T13:40:54Z</time></trkpt><trkpt lat="43.09053525149271" lon="11.65348276900896"><ele>393.66666666666663</ele><time>2026-05-02T13:40:55Z</time></trkpt><trkpt lat="43.09038722027329" lon="11.653498986562159"><ele>395.33333333333337</ele><time>2026-05-02T13:40:56Z</time></trkpt><trkpt lat="43.090251728915895" lon="11.65353415174113"><ele>397.0</ele><time>2026-05-02T13:40:57Z</time></trkpt><trkpt lat="43.090034332526116" lon="11.653629088342512"><ele>395.0</ele><time>2026-05-02T13:40:58Z</time></trkpt><trkpt lat="43.089892648628386" lon="11.653788585709977"><ele>393.0</ele><time>2026-05-02T13:40:59Z</time></trkpt><trkpt lat="43.08974385838329" lon="11.653909731597945"><ele>391.0</ele><time>2026-05-02T13:41:00Z</time></trkpt><trkpt lat="43.08956592148882" lon="11.653899582656171"><ele>391.0</ele><time>2026-05-02T13:41:01Z</time></trkpt><trkpt lat="43.08937647782609" lon="11.653906827965256"><ele>391.0</ele><time>2026-05-02T13:41:02Z</time></trkpt><trkpt lat="43.089208116538565" lon="11.653894986320475"><ele>391.0</ele><time>2026-05-02T13:41:03Z</time></trkpt><trkpt lat="43.08906945804079" lon="11.653854672488624"><ele>389.5</ele><time>2026-05-02T13:41:04Z</time></trkpt><trkpt lat="43.08895393926458" lon="11.653772761400658"><ele>388.0</ele><time>2026-05-02T13:41:05Z</time></trkpt><trkpt lat="43.088872607163594" lon="11.653606523055082"><ele>386.5</ele><time>2026-05-02T13:41:06Z</time></trkpt><trkpt lat="43.08883199646929" lon="11.653395749542089"><ele>385.0</ele><time>2026-05-02T13:41:07Z</time></trkpt><trkpt lat="43.08879545099896" lon="11.653130396134657"><ele>384.0</ele><time>2026-05-02T13:41:08Z</time></trkpt><trkpt lat="43.08875918872229" lon="11.652829441353381"><ele>383.0</ele><time>2026-05-02T13:41:09Z</time></trkpt><trkpt lat="43.088756427681574" lon="11.652573557510207"><ele>382.0</ele><time>2026-05-02T13:41:10Z</time></trkpt><trkpt lat="43.08874409245857" lon="11.652369213930585"><ele>381.0</ele><time>2026-05-02T13:41:11Z</time></trkpt><trkpt lat="43.0886890906935" lon="11.652199348513712"><ele>380.0</ele><time>2026-05-02T13:41:12Z</time></trkpt><trkpt lat="43.08858787521893" lon="11.652070139166481"><ele>379.0</ele><time>2026-05-02T13:41:13Z</time></trkpt><trkpt lat="43.088457122944696" lon="11.65199323710129"><ele>378.0</ele><time>2026-05-02T13:41:14Z</time></trkpt><trkpt lat="43.08830462098838" lon="11.651976800162249"><ele>376.6666666666667</ele><time>2026-05-02T13:41:15Z</time></trkpt><trkpt lat="43.08811832693543" lon="11.65201237468383"><ele>375.33333333333337</ele><time>2026-05-02T13:41:16Z</time></trkpt><trkpt lat="43.08790276304128" lon="11.652049658857024"><ele>374.0</ele><time>2026-05-02T13:41:17Z</time></trkpt><trkpt lat="43.08769830603669" lon="11.652125352615089"><ele>374.0</ele><time>2026-05-02T13:41:18Z</time></trkpt><trkpt lat="43.0875171467535" lon="11.652260799881788"><ele>374.0</ele><time>2026-05-02T13:41:19Z</time></trkpt><trkpt lat="43.08733497960024" lon="11.652378161877929"><ele>374.0</ele><time>2026-05-02T13:41:20Z</time></trkpt><trkpt lat="43.08715092996162" lon="11.65237918041609"><ele>371.6666666666667</ele><time>2026-05-02T13:41:21Z</time></trkpt><trkpt lat="43.08697141100103" lon="11.652346997625152"><ele>369.3333333333333</ele><time>2026-05-02T13:41:22Z</time></trkpt><trkpt lat="43.08680100711833" lon="11.652201104545552"><ele>367.0</ele><time>2026-05-02T13:41:23Z</time></trkpt><trkpt lat="43.08661314177775" lon="11.65207755658571"><ele>367.66666666666663</ele><time>2026-05-02T13:41:24Z</time></trkpt><trkpt lat="43.08643288681557" lon="11.651932696368881"><ele>368.3333333333333</ele><time>2026-05-02T13:41:25Z</time></trkpt><trkpt lat="43.0862635016966" lon="11.651803373862244"><ele>369.0</ele><time>2026-05-02T13:41:26Z</time></trkpt><trkpt lat="43.086108208890565" lon="11.651686850508186"><ele>369.0</ele><time>2026-05-02T13:41:27Z</time></trkpt><trkpt lat="43.08596254520413" lon="11.651577376163559"><ele>369.0</ele><time>2026-05-02T13:41:28Z</time></trkpt><trkpt lat="43.085829185438335" lon="11.651467485565709"><ele>369.0</ele><time>2026-05-02T13:41:29Z</time></trkpt><trkpt lat="43.08570345429934" lon="11.651352348603513"><ele>369.0</ele><time>2026-05-02T13:41:30Z</time></trkpt><trkpt lat="43.08557785814049" lon="11.651229260528968"><ele>369.0</ele><time>2026-05-02T13:41:31Z</time></trkpt><trkpt lat="43.08545255552544" lon="11.651110645563625"><ele>369.0</ele><time>2026-05-02T13:41:32Z</time></trkpt><trkpt lat="43.085325341290236" lon="11.650993903782846"><ele>369.0</ele><time>2026-05-02T13:41:33Z</time></trkpt><trkpt lat="43.08518941226276" lon="11.650870241322014"><ele>369.0</ele><time>2026-05-02T13:41:34Z</time></trkpt><trkpt lat="43.08504440549677" lon="11.650743726200213"><ele>369.0</ele><time>2026-05-02T13:41:35Z</time></trkpt><trkpt lat="43.08488423078343" lon="11.650610523870427"><ele>367.6666666666667</ele><time>2026-05-02T13:41:35.999Z</time></trkpt><trkpt lat="43.084730456282024" lon="11.650447214326492"><ele>366.33333333333337</ele><time>2026-05-02T13:41:36.999Z</time></trkpt><trkpt lat="43.0845664819397" lon="11.65031006878138"><ele>365.0</ele><time>2026-05-02T13:41:37.999Z</time></trkpt><trkpt lat="43.08442348822999" lon="11.650139097074703"><ele>365.0</ele><time>2026-05-02T13:41:38.999Z</time></trkpt><trkpt lat="43.08429802516396" lon="11.649957981731536"><ele>365.0</ele><time>2026-05-02T13:41:39.999Z</time></trkpt><trkpt lat="43.08418732177102" lon="11.649782790471532"><ele>365.0</ele><time>2026-05-02T13:41:40.999Z</time></trkpt><trkpt lat="43.08409800004179" lon="11.649625993007893"><ele>364.75</ele><time>2026-05-02T13:41:41.999Z</time></trkpt><trkpt lat="43.084019111330505" lon="11.649485173584235"><ele>364.5</ele><time>2026-05-02T13:41:42.999Z</time></trkpt><trkpt lat="43.0839431127567" lon="11.649351853740198"><ele>364.25</ele><time>2026-05-02T13:41:43.999Z</time></trkpt><trkpt lat="43.08386959651956" lon="11.649224211922977"><ele>364.0</ele><time>2026-05-02T13:41:44.999Z</time></trkpt><trkpt lat="43.08379501860327" lon="11.649097036719493"><ele>364.0</ele><time>2026-05-02T13:41:45.999Z</time></trkpt><trkpt lat="43.083718309855364" lon="11.648964914148955"><ele>364.0</ele><time>2026-05-02T13:41:46.999Z</time></trkpt><trkpt lat="43.083642567915895" lon="11.64883516482387"><ele>364.0</ele><time>2026-05-02T13:41:47.999Z</time></trkpt><trkpt lat="43.08356840120361" lon="11.648710318920454"><ele>364.0</ele><time>2026-05-02T13:41:48.999Z</time></trkpt><trkpt lat="43.083495771736935" lon="11.648589356071135"><ele>363.75</ele><time>2026-05-02T13:41:49.999Z</time></trkpt><trkpt lat="43.08342477800184" lon="11.648465847208174"><ele>363.5</ele><time>2026-05-02T13:41:50.999Z</time></trkpt><trkpt lat="43.0833491454111" lon="11.6483393898223"><ele>363.25</ele><time>2026-05-02T13:41:51.999Z</time></trkpt><trkpt lat="43.083273405070805" lon="11.648210096624563"><ele>363.0</ele><time>2026-05-02T13:41:52.999Z</time></trkpt><trkpt lat="43.08319766730435" lon="11.648082349104204"><ele>363.0</ele><time>2026-05-02T13:41:53.999Z</time></trkpt><trkpt lat="43.08312827154253" lon="11.647967080700564"><ele>363.0</ele><time>2026-05-02T13:41:54.999Z</time></trkpt><trkpt lat="43.083066545385314" lon="11.647863250178276"><ele>363.0</ele><time>2026-05-02T13:41:55.999Z</time></trkpt><trkpt lat="43.083011466448575" lon="11.64777221433623"><ele>363.0</ele><time>2026-05-02T13:41:56.999Z</time></trkpt><trkpt lat="43.08296683649189" lon="11.647694863487388"><ele>363.0</ele><time>2026-05-02T13:41:57.999Z</time></trkpt><trkpt lat="43.08290188823627" lon="11.647582208593043"><ele>364.3333333333333</ele><time>2026-05-02T13:41:59.999Z</time></trkpt><trkpt lat="43.08285115449879" lon="11.647491484149683"><ele>365.6666666666667</ele><time>2026-05-02T13:42:01.999Z</time></trkpt><trkpt lat="43.082790945176555" lon="11.64739116622816"><ele>367.0</ele><time>2026-05-02T13:42:03.999Z</time></trkpt><trkpt lat="43.08270954834754" lon="11.647251312169999"><ele>368.33333333333337</ele><time>2026-05-02T13:42:05.999Z</time></trkpt><trkpt lat="43.082665867141344" lon="11.647177491853144"><ele>369.6666666666667</ele><time>2026-05-02T13:42:06.999Z</time></trkpt><trkpt lat="43.08262473303276" lon="11.647111249592763"><ele>371.0</ele><time>2026-05-02T13:42:07.999Z</time></trkpt><trkpt lat="43.08255999566811" lon="11.647003170826464"><ele>371.20000000000005</ele><time>2026-05-02T13:42:09.999Z</time></trkpt><trkpt lat="43.082510794315" lon="11.646914726238753"><ele>371.40000000000003</ele><time>2026-05-02T13:42:11.999Z</time></trkpt><trkpt lat="43.08244809415398" lon="11.646811040635273"><ele>371.6</ele><time>2026-05-02T13:42:13.999Z</time></trkpt><trkpt lat="43.08237552799406" lon="11.646695606578847"><ele>371.8</ele><time>2026-05-02T13:42:15.999Z</time></trkpt><trkpt lat="43.08232374561588" lon="11.64660662097761"><ele>372.0</ele><time>2026-05-02T13:42:17.999Z</time></trkpt><trkpt lat="43.082270267322905" lon="11.646507060973525"><ele>371.6666666666667</ele><time>2026-05-02T13:42:20.999Z</time></trkpt><trkpt lat="43.082214718905824" lon="11.646419834441048"><ele>371.3333333333333</ele><time>2026-05-02T13:42:23.999Z</time></trkpt><trkpt lat="43.082171367745225" lon="11.646352427553818"><ele>371.0</ele><time>2026-05-02T13:42:25.999Z</time></trkpt><trkpt lat="43.08212056739596" lon="11.646270181303496"><ele>370.66666666666663</ele><time>2026-05-02T13:42:27.999Z</time></trkpt><trkpt lat="43.08207913374016" lon="11.646184660393217"><ele>370.3333333333333</ele><time>2026-05-02T13:42:34Z</time></trkpt><trkpt lat="43.08201772710626" lon="11.646064003383216"><ele>370.0</ele><time>2026-05-02T13:42:36Z</time></trkpt><trkpt lat="43.08197837773821" lon="11.645984485995186"><ele>370.0</ele><time>2026-05-02T13:42:37Z</time></trkpt><trkpt lat="43.08193231341566" lon="11.645889254305756"><ele>370.0</ele><time>2026-05-02T13:42:38Z</time></trkpt><trkpt lat="43.08188493646815" lon="11.645783272579509"><ele>370.0</ele><time>2026-05-02T13:42:39Z</time></trkpt><trkpt lat="43.08183986168642" lon="11.645667567658892"><ele>370.0</ele><time>2026-05-02T13:42:40Z</time></trkpt><trkpt lat="43.081796252216705" lon="11.64553305275948"><ele>370.0</ele><time>2026-05-02T13:42:41Z</time></trkpt><trkpt lat="43.08175447807575" lon="11.645392461013728"><ele>370.5</ele><time>2026-05-02T13:42:42Z</time></trkpt><trkpt lat="43.08171563040674" lon="11.645241628107739"><ele>371.0</ele><time>2026-05-02T13:42:43Z</time></trkpt><trkpt lat="43.081680068654336" lon="11.64508023121228"><ele>371.5</ele><time>2026-05-02T13:42:44Z</time></trkpt><trkpt lat="43.08165122572978" lon="11.64490764815296"><ele>372.0</ele><time>2026-05-02T13:42:45Z</time></trkpt><trkpt lat="43.08163350301554" lon="11.644727365434557"><ele>372.0</ele><time>2026-05-02T13:42:46Z</time></trkpt><trkpt lat="43.081624325813344" lon="11.644548666283963"><ele>372.0</ele><time>2026-05-02T13:42:47Z</time></trkpt><trkpt lat="43.08162034675548" lon="11.644373384414036"><ele>372.0</ele><time>2026-05-02T13:42:48Z</time></trkpt><trkpt lat="43.08163800131048" lon="11.644196429942369"><ele>372.0</ele><time>2026-05-02T13:42:49Z</time></trkpt><trkpt lat="43.08164360663805" lon="11.644010180219482"><ele>372.0</ele><time>2026-05-02T13:42:50Z</time></trkpt><trkpt lat="43.081650094447774" lon="11.643815536791381"><ele>372.0</ele><time>2026-05-02T13:42:51Z</time></trkpt><trkpt lat="43.08164426041584" lon="11.643617341107886"><ele>372.0</ele><time>2026-05-02T13:42:52Z</time></trkpt><trkpt lat="43.08166078382063" lon="11.64342370436124"><ele>372.0</ele><time>2026-05-02T13:42:53Z</time></trkpt><trkpt lat="43.08167334893963" lon="11.643229160532591"><ele>372.0</ele><time>2026-05-02T13:42:54Z</time></trkpt><trkpt lat="43.08168002725327" lon="11.643039086042123"><ele>372.0</ele><time>2026-05-02T13:42:55Z</time></trkpt><trkpt lat="43.081687442049926" lon="11.642851122935115"><ele>372.0</ele><time>2026-05-02T13:42:56Z</time></trkpt><trkpt lat="43.08169751343687" lon="11.642660335900988"><ele>372.0</ele><time>2026-05-02T13:42:57Z</time></trkpt><trkpt lat="43.08170617459301" lon="11.642461144828532"><ele>371.6666666666667</ele><time>2026-05-02T13:42:58Z</time></trkpt><trkpt lat="43.081712987855994" lon="11.642255739216841"><ele>371.33333333333337</ele><time>2026-05-02T13:42:59Z</time></trkpt><trkpt lat="43.0817223488381" lon="11.642034626109842"><ele>371.0</ele><time>2026-05-02T13:43:00Z</time></trkpt><trkpt lat="43.08173609718587" lon="11.641804987087452"><ele>370.33333333333337</ele><time>2026-05-02T13:43:01Z</time></trkpt><trkpt lat="43.081773144551086" lon="11.641570108157675"><ele>369.6666666666667</ele><time>2026-05-02T13:43:02Z</time></trkpt><trkpt lat="43.081840114259094" lon="11.6413468925237"><ele>369.0</ele><time>2026-05-02T13:43:03Z</time></trkpt><trkpt lat="43.08193726304688" lon="11.641140359708366"><ele>369.3333333333333</ele><time>2026-05-02T13:43:04Z</time></trkpt><trkpt lat="43.08205639941502" lon="11.640960243715316"><ele>369.66666666666663</ele><time>2026-05-02T13:43:05Z</time></trkpt><trkpt lat="43.08218359394416" lon="11.640794766209478"><ele>370.0</ele><time>2026-05-02T13:43:06Z</time></trkpt><trkpt lat="43.082308214993866" lon="11.640633662839383"><ele>370.0</ele><time>2026-05-02T13:43:07Z</time></trkpt><trkpt lat="43.08242995639064" lon="11.640462033301928"><ele>370.0</ele><time>2026-05-02T13:43:08Z</time></trkpt><trkpt lat="43.08254592433721" lon="11.640271824056287"><ele>370.0</ele><time>2026-05-02T13:43:09Z</time></trkpt><trkpt lat="43.08265031859585" lon="11.640063155284281"><ele>367.66666666666663</ele><time>2026-05-02T13:43:10Z</time></trkpt><trkpt lat="43.0827399808272" lon="11.63984967454867"><ele>365.3333333333333</ele><time>2026-05-02T13:43:11Z</time></trkpt><trkpt lat="43.082818510315114" lon="11.639636358919573"><ele>363.0</ele><time>2026-05-02T13:43:12Z</time></trkpt><trkpt lat="43.08288781831426" lon="11.639425279035605"><ele>362.3333333333333</ele><time>2026-05-02T13:43:13Z</time></trkpt><trkpt lat="43.08295562272242" lon="11.639210090754068"><ele>361.66666666666663</ele><time>2026-05-02T13:43:14Z</time></trkpt><trkpt lat="43.083025032100146" lon="11.638984952237902"><ele>361.0</ele><time>2026-05-02T13:43:15Z</time></trkpt><trkpt lat="43.08310045667469" lon="11.638750838796577"><ele>359.66666666666663</ele><time>2026-05-02T13:43:16Z</time></trkpt><trkpt lat="43.08318263522533" lon="11.63850534834028"><ele>358.3333333333333</ele><time>2026-05-02T13:43:17Z</time></trkpt><trkpt lat="43.08326538819224" lon="11.638245457763226"><ele>357.0</ele><time>2026-05-02T13:43:18Z</time></trkpt><trkpt lat="43.08333930353181" lon="11.637977379219361"><ele>355.3333333333333</ele><time>2026-05-02T13:43:19Z</time></trkpt><trkpt lat="43.083397111363205" lon="11.637688114231489"><ele>353.66666666666663</ele><time>2026-05-02T13:43:20Z</time></trkpt><trkpt lat="43.08343165171236" lon="11.63738263019979"><ele>352.0</ele><time>2026-05-02T13:43:21Z</time></trkpt><trkpt lat="43.08344643171964" lon="11.637059975695141"><ele>350.5</ele><time>2026-05-02T13:43:22Z</time></trkpt><trkpt lat="43.08344898212423" lon="11.636733184585633"><ele>349.0</ele><time>2026-05-02T13:43:23Z</time></trkpt><trkpt lat="43.08345079856622" lon="11.636407690245958"><ele>348.0</ele><time>2026-05-02T13:43:24Z</time></trkpt><trkpt lat="43.08345468180802" lon="11.63608584616704"><ele>347.0</ele><time>2026-05-02T13:43:25Z</time></trkpt><trkpt lat="43.083463046819354" lon="11.635771435414446"><ele>347.0</ele><time>2026-05-02T13:43:26Z</time></trkpt><trkpt lat="43.08347246080411" lon="11.635460613722435"><ele>347.0</ele><time>2026-05-02T13:43:27Z</time></trkpt><trkpt lat="43.08348023533626" lon="11.635156325900404"><ele>347.6666666666667</ele><time>2026-05-02T13:43:28Z</time></trkpt><trkpt lat="43.08348815244967" lon="11.634857530696458"><ele>348.3333333333333</ele><time>2026-05-02T13:43:29Z</time></trkpt><trkpt lat="43.083508893371985" lon="11.6345661866537"><ele>349.0</ele><time>2026-05-02T13:43:30Z</time></trkpt><trkpt lat="43.08354843922275" lon="11.63428106362948"><ele>350.3333333333333</ele><time>2026-05-02T13:43:31Z</time></trkpt><trkpt lat="43.08358912836434" lon="11.634001614523115"><ele>351.6666666666667</ele><time>2026-05-02T13:43:32Z</time></trkpt><trkpt lat="43.08363133931963" lon="11.633722977529812"><ele>353.0</ele><time>2026-05-02T13:43:33Z</time></trkpt><trkpt lat="43.083668351683755" lon="11.633450048732739"><ele>354.0</ele><time>2026-05-02T13:43:34Z</time></trkpt><trkpt lat="43.08369982369614" lon="11.633174703605011"><ele>355.0</ele><time>2026-05-02T13:43:35Z</time></trkpt><trkpt lat="43.083726415162076" lon="11.632898831934005"><ele>356.0</ele><time>2026-05-02T13:43:36Z</time></trkpt><trkpt lat="43.08374639783456" lon="11.632623514523893"><ele>356.0</ele><time>2026-05-02T13:43:37Z</time></trkpt><trkpt lat="43.083759567053036" lon="11.63234499347733"><ele>356.0</ele><time>2026-05-02T13:43:38Z</time></trkpt><trkpt lat="43.08376891567713" lon="11.632064480171334"><ele>356.0</ele><time>2026-05-02T13:43:39Z</time></trkpt><trkpt lat="43.08377904698358" lon="11.631788546628824"><ele>352.33333333333337</ele><time>2026-05-02T13:43:40Z</time></trkpt><trkpt lat="43.08378937362287" lon="11.631531147248067"><ele>348.6666666666667</ele><time>2026-05-02T13:43:41Z</time></trkpt><trkpt lat="43.0837999617939" lon="11.631316682336646"><ele>345.0</ele><time>2026-05-02T13:43:42Z</time></trkpt><trkpt lat="43.083812197274646" lon="11.631045544279253"><ele>343.5</ele><time>2026-05-02T13:43:43Z</time></trkpt><trkpt lat="43.08381838446984" lon="11.630837837588258"><ele>342.0</ele><time>2026-05-02T13:43:44Z</time></trkpt><trkpt lat="43.083824859226766" lon="11.63062423651928"><ele>340.5</ele><time>2026-05-02T13:43:45Z</time></trkpt><trkpt lat="43.08382340036741" lon="11.630432159224872"><ele>339.0</ele><time>2026-05-02T13:43:45.999Z</time></trkpt><trkpt lat="43.08380997387104" lon="11.63024495998169"><ele>339.0</ele><time>2026-05-02T13:43:46.999Z</time></trkpt><trkpt lat="43.0837793223244" lon="11.630082009630293"><ele>339.0</ele><time>2026-05-02T13:43:47.999Z</time></trkpt><trkpt lat="43.08373213786841" lon="11.629931795404152"><ele>339.0</ele><time>2026-05-02T13:43:48.999Z</time></trkpt><trkpt lat="43.08367910383513" lon="11.629806977288686"><ele>339.0</ele><time>2026-05-02T13:43:49.999Z</time></trkpt><trkpt lat="43.08361971977815" lon="11.62968957169855"><ele>339.0</ele><time>2026-05-02T13:43:50.999Z</time></trkpt><trkpt lat="43.0835493337167" lon="11.629590025184575"><ele>339.0</ele><time>2026-05-02T13:43:51.999Z</time></trkpt><trkpt lat="43.08347044194141" lon="11.629498893065678"><ele>339.0</ele><time>2026-05-02T13:43:52.999Z</time></trkpt><trkpt lat="43.08338167054757" lon="11.629417978057592"><ele>339.0</ele><time>2026-05-02T13:43:53.999Z</time></trkpt><trkpt lat="43.083280986240375" lon="11.62935012842808"><ele>339.0</ele><time>2026-05-02T13:43:54.999Z</time></trkpt><trkpt lat="43.08317142479316" lon="11.629299250255285"><ele>338.0</ele><time>2026-05-02T13:43:55.999Z</time></trkpt><trkpt lat="43.08305805406979" lon="11.629261712409965"><ele>337.0</ele><time>2026-05-02T13:43:56.999Z</time></trkpt><trkpt lat="43.08294383567816" lon="11.629236128746673"><ele>336.0</ele><time>2026-05-02T13:43:57.999Z</time></trkpt><trkpt lat="43.0828278692403" lon="11.629224828761712"><ele>335.0</ele><time>2026-05-02T13:43:58.999Z</time></trkpt><trkpt lat="43.082711655396054" lon="11.629216266715588"><ele>335.0</ele><time>2026-05-02T13:43:59.999Z</time></trkpt><trkpt lat="43.08258766797952" lon="11.629204047625759"><ele>335.0</ele><time>2026-05-02T13:44:00.999Z</time></trkpt><trkpt lat="43.082461821215425" lon="11.629190754353877"><ele>335.0</ele><time>2026-05-02T13:44:01.999Z</time></trkpt><trkpt lat="43.08233414131369" lon="11.629181140006285"><ele>335.0</ele><time>2026-05-02T13:44:02.999Z</time></trkpt><trkpt lat="43.08220163869453" lon="11.629165277070168"><ele>335.5</ele><time>2026-05-02T13:44:03.999Z</time></trkpt><trkpt lat="43.08206872360971" lon="11.629150863036969"><ele>336.0</ele><time>2026-05-02T13:44:04.999Z</time></trkpt><trkpt lat="43.08192627287781" lon="11.629131489199073"><ele>336.5</ele><time>2026-05-02T13:44:05.999Z</time></trkpt><trkpt lat="43.08177557140579" lon="11.62911944315677"><ele>337.0</ele><time>2026-05-02T13:44:06.999Z</time></trkpt><trkpt lat="43.081616012966784" lon="11.629109614023152"><ele>339.0</ele><time>2026-05-02T13:44:07.999Z</time></trkpt><trkpt lat="43.081457458754606" lon="11.62909693648212"><ele>341.0</ele><time>2026-05-02T13:44:08.999Z</time></trkpt><trkpt lat="43.081295833942725" lon="11.629077478112091"><ele>343.0</ele><time>2026-05-02T13:44:09.999Z</time></trkpt><trkpt lat="43.081141268814186" lon="11.629026019368826"><ele>343.0</ele><time>2026-05-02T13:44:10.999Z</time></trkpt><trkpt lat="43.08100080738381" lon="11.628954072919694"><ele>343.0</ele><time>2026-05-02T13:44:11.999Z</time></trkpt><trkpt lat="43.08086755617352" lon="11.628863141645937"><ele>343.0</ele><time>2026-05-02T13:44:12.999Z</time></trkpt><trkpt lat="43.08074385777359" lon="11.628774268664415"><ele>343.0</ele><time>2026-05-02T13:44:13.999Z</time></trkpt><trkpt lat="43.080633204790345" lon="11.6286943469563"><ele>344.0</ele><time>2026-05-02T13:44:14.999Z</time></trkpt><trkpt lat="43.08052674608791" lon="11.628626081457082"><ele>345.0</ele><time>2026-05-02T13:44:15.999Z</time></trkpt><trkpt lat="43.080417951252464" lon="11.628573069405268"><ele>346.0</ele><time>2026-05-02T13:44:16.999Z</time></trkpt><trkpt lat="43.08029970500189" lon="11.62854427986738"><ele>347.0</ele><time>2026-05-02T13:44:17.999Z</time></trkpt><trkpt lat="43.080178168024034" lon="11.628534463003408"><ele>347.0</ele><time>2026-05-02T13:44:18.999Z</time></trkpt><trkpt lat="43.08005996254942" lon="11.62853650445099"><ele>347.0</ele><time>2026-05-02T13:44:19.999Z</time></trkpt><trkpt lat="43.07993564186151" lon="11.62856728618366"><ele>347.0</ele><time>2026-05-02T13:44:20.999Z</time></trkpt><trkpt lat="43.07981657896996" lon="11.628598870879717"><ele>347.0</ele><time>2026-05-02T13:44:21.999Z</time></trkpt><trkpt lat="43.07969724205405" lon="11.62863505836398"><ele>344.6666666666667</ele><time>2026-05-02T13:44:22.999Z</time></trkpt><trkpt lat="43.07956640432796" lon="11.628664548013969"><ele>342.3333333333333</ele><time>2026-05-02T13:44:23.999Z</time></trkpt><trkpt lat="43.07941659429796" lon="11.628696064883515"><ele>340.0</ele><time>2026-05-02T13:44:24.999Z</time></trkpt><trkpt lat="43.07924057912167" lon="11.628712005916784"><ele>340.66666666666663</ele><time>2026-05-02T13:44:25.999Z</time></trkpt><trkpt lat="43.079071326391535" lon="11.628760941484206"><ele>341.3333333333333</ele><time>2026-05-02T13:44:26.999Z</time></trkpt><trkpt lat="43.07891158314627" lon="11.628769299059188"><ele>342.0</ele><time>2026-05-02T13:44:27.999Z</time></trkpt><trkpt lat="43.078758650263815" lon="11.628772930288397"><ele>342.0</ele><time>2026-05-02T13:44:28.999Z</time></trkpt><trkpt lat="43.07861025960462" lon="11.628768130800223"><ele>342.0</ele><time>2026-05-02T13:44:29.999Z</time></trkpt><trkpt lat="43.07846374197093" lon="11.628729976544243"><ele>342.0</ele><time>2026-05-02T13:44:30.999Z</time></trkpt><trkpt lat="43.078315595387394" lon="11.628681097997173"><ele>343.3333333333333</ele><time>2026-05-02T13:44:31.999Z</time></trkpt><trkpt lat="43.07814514049009" lon="11.628609543341382"><ele>344.66666666666663</ele><time>2026-05-02T13:44:32.999Z</time></trkpt><trkpt lat="43.07794160633828" lon="11.628519404185322"><ele>346.0</ele><time>2026-05-02T13:44:33.999Z</time></trkpt><trkpt lat="43.07772449527782" lon="11.628434519019347"><ele>346.0</ele><time>2026-05-02T13:44:34.999Z</time></trkpt><trkpt lat="43.077533598789685" lon="11.628337123913987"><ele>346.0</ele><time>2026-05-02T13:44:35.999Z</time></trkpt><trkpt lat="43.07735374227099" lon="11.628258533022345"><ele>346.0</ele><time>2026-05-02T13:44:37Z</time></trkpt><trkpt lat="43.077187783175916" lon="11.628189334656271"><ele>345.3333333333333</ele><time>2026-05-02T13:44:38Z</time></trkpt><trkpt lat="43.077032295937016" lon="11.628120096289706"><ele>344.6666666666667</ele><time>2026-05-02T13:44:39Z</time></trkpt><trkpt lat="43.0768859273699" lon="11.628049020740628"><ele>344.0</ele><time>2026-05-02T13:44:40Z</time></trkpt><trkpt lat="43.07673312834657" lon="11.627977973021142"><ele>345.6666666666667</ele><time>2026-05-02T13:44:41Z</time></trkpt><trkpt lat="43.07657193513377" lon="11.627918489079205"><ele>347.3333333333333</ele><time>2026-05-02T13:44:42Z</time></trkpt><trkpt lat="43.076399474351" lon="11.627845393663266"><ele>349.0</ele><time>2026-05-02T13:44:43Z</time></trkpt><trkpt lat="43.07619845596239" lon="11.627762346022191"><ele>349.0</ele><time>2026-05-02T13:44:44Z</time></trkpt><trkpt lat="43.07598672517789" lon="11.627654676107376"><ele>349.0</ele><time>2026-05-02T13:44:45Z</time></trkpt><trkpt lat="43.075778758740285" lon="11.627543136881988"><ele>349.0</ele><time>2026-05-02T13:44:46Z</time></trkpt><trkpt lat="43.07556959550083" lon="11.627451823131613"><ele>351.0</ele><time>2026-05-02T13:44:47Z</time></trkpt><trkpt lat="43.07536408231756" lon="11.627369460842806"><ele>353.0</ele><time>2026-05-02T13:44:48Z</time></trkpt><trkpt lat="43.075162637240304" lon="11.627280255607651"><ele>355.0</ele><time>2026-05-02T13:44:49Z</time></trkpt><trkpt lat="43.07496315978558" lon="11.62719391823993"><ele>354.66666666666663</ele><time>2026-05-02T13:44:50Z</time></trkpt><trkpt lat="43.07477615753237" lon="11.627101326702435"><ele>354.3333333333333</ele><time>2026-05-02T13:44:51Z</time></trkpt><trkpt lat="43.07460803627485" lon="11.626968770334301"><ele>354.0</ele><time>2026-05-02T13:44:52Z</time></trkpt><trkpt lat="43.07448300425845" lon="11.626763081949711"><ele>354.0</ele><time>2026-05-02T13:44:53Z</time></trkpt><trkpt lat="43.07433819493646" lon="11.6265595741326"><ele>354.0</ele><time>2026-05-02T13:44:54Z</time></trkpt><trkpt lat="43.074223110947294" lon="11.626328508069237"><ele>354.0</ele><time>2026-05-02T13:44:55Z</time></trkpt><trkpt lat="43.07410685108831" lon="11.62611514658415"><ele>353.6666666666667</ele><time>2026-05-02T13:44:56Z</time></trkpt><trkpt lat="43.07399451042617" lon="11.625924203786758"><ele>353.33333333333337</ele><time>2026-05-02T13:44:57Z</time></trkpt><trkpt lat="43.073888060127985" lon="11.625740419191077"><ele>353.0</ele><time>2026-05-02T13:44:58Z</time></trkpt><trkpt lat="43.07378405434095" lon="11.62556416581125"><ele>353.0</ele><time>2026-05-02T13:44:59Z</time></trkpt><trkpt lat="43.07367962128168" lon="11.625400149802658"><ele>353.0</ele><time>2026-05-02T13:45:00Z</time></trkpt><trkpt lat="43.07357481100655" lon="11.625232981021151"><ele>353.0</ele><time>2026-05-02T13:45:01Z</time></trkpt><trkpt lat="43.07348032034024" lon="11.625075051679701"><ele>353.5</ele><time>2026-05-02T13:45:02Z</time></trkpt><trkpt lat="43.073397314640054" lon="11.62491361165563"><ele>354.0</ele><time>2026-05-02T13:45:03Z</time></trkpt><trkpt lat="43.07332553109547" lon="11.624749895365149"><ele>354.5</ele><time>2026-05-02T13:45:04Z</time></trkpt><trkpt lat="43.07326419173374" lon="11.62457925070351"><ele>355.0</ele><time>2026-05-02T13:45:05Z</time></trkpt><trkpt lat="43.0732190668299" lon="11.624395302646597"><ele>356.25</ele><time>2026-05-02T13:45:06Z</time></trkpt><trkpt lat="43.07318425725323" lon="11.624204508715804"><ele>357.5</ele><time>2026-05-02T13:45:07Z</time></trkpt><trkpt lat="43.07315718753036" lon="11.624006300066528"><ele>358.75</ele><time>2026-05-02T13:45:08Z</time></trkpt><trkpt lat="43.073134575330926" lon="11.623796222286234"><ele>360.0</ele><time>2026-05-02T13:45:09Z</time></trkpt><trkpt lat="43.07312488248048" lon="11.623571572002803"><ele>360.0</ele><time>2026-05-02T13:45:10Z</time></trkpt><trkpt lat="43.07313438724134" lon="11.62334090988892"><ele>360.0</ele><time>2026-05-02T13:45:11Z</time></trkpt><trkpt lat="43.07316473721368" lon="11.623106278110482"><ele>360.0</ele><time>2026-05-02T13:45:12Z</time></trkpt><trkpt lat="43.07321049266727" lon="11.622861164339476"><ele>360.6666666666667</ele><time>2026-05-02T13:45:13Z</time></trkpt><trkpt lat="43.07326752428603" lon="11.622610649609744"><ele>361.33333333333337</ele><time>2026-05-02T13:45:14Z</time></trkpt><trkpt lat="43.07333146861089" lon="11.622357343050398"><ele>362.0</ele><time>2026-05-02T13:45:15Z</time></trkpt><trkpt lat="43.07339528006776" lon="11.622097086583109"><ele>362.6666666666667</ele><time>2026-05-02T13:45:16Z</time></trkpt><trkpt lat="43.073450870416394" lon="11.621831972227803"><ele>363.3333333333333</ele><time>2026-05-02T13:45:17Z</time></trkpt><trkpt lat="43.07348328715943" lon="11.62155725017321"><ele>364.0</ele><time>2026-05-02T13:45:18Z</time></trkpt><trkpt lat="43.073486774339045" lon="11.621270198525334"><ele>365.0</ele><time>2026-05-02T13:45:19Z</time></trkpt><trkpt lat="43.073460480102476" lon="11.620986617840346"><ele>366.0</ele><time>2026-05-02T13:45:20Z</time></trkpt><trkpt lat="43.07340558647206" lon="11.620707844460162"><ele>367.0</ele><time>2026-05-02T13:45:21Z</time></trkpt><trkpt lat="43.07332835345438" lon="11.620444536010439"><ele>367.66666666666663</ele><time>2026-05-02T13:45:22Z</time></trkpt><trkpt lat="43.07321853097945" lon="11.62020288279589"><ele>368.3333333333333</ele><time>2026-05-02T13:45:23Z</time></trkpt><trkpt lat="43.073091022807006" lon="11.619979995507192"><ele>369.0</ele><time>2026-05-02T13:45:24Z</time></trkpt><trkpt lat="43.072949777718705" lon="11.61978198498667"><ele>369.0</ele><time>2026-05-02T13:45:25Z</time></trkpt><trkpt lat="43.072789961859996" lon="11.619613125114657"><ele>369.0</ele><time>2026-05-02T13:45:26Z</time></trkpt><trkpt lat="43.07261283197148" lon="11.619481990731863"><ele>369.0</ele><time>2026-05-02T13:45:27Z</time></trkpt><trkpt lat="43.07242995406702" lon="11.619374868909233"><ele>368.0</ele><time>2026-05-02T13:45:28Z</time></trkpt><trkpt lat="43.07224849237928" lon="11.619269587316724"><ele>367.0</ele><time>2026-05-02T13:45:29Z</time></trkpt><trkpt lat="43.07207032772256" lon="11.619160321387282"><ele>366.0</ele><time>2026-05-02T13:45:30Z</time></trkpt><trkpt lat="43.071895584458716" lon="11.619046463825942"><ele>366.0</ele><time>2026-05-02T13:45:31Z</time></trkpt><trkpt lat="43.07172032086409" lon="11.618930132546357"><ele>366.0</ele><time>2026-05-02T13:45:32Z</time></trkpt><trkpt lat="43.071545052472786" lon="11.618813215593732"><ele>366.0</ele><time>2026-05-02T13:45:33Z</time></trkpt><trkpt lat="43.07136910561576" lon="11.618696601720135"><ele>367.6666666666667</ele><time>2026-05-02T13:45:34Z</time></trkpt><trkpt lat="43.0711882050779" lon="11.618579960704825"><ele>369.33333333333337</ele><time>2026-05-02T13:45:35Z</time></trkpt><trkpt lat="43.07100093254565" lon="11.618462300398264"><ele>371.0</ele><time>2026-05-02T13:45:36Z</time></trkpt><trkpt lat="43.07081632625442" lon="11.618343021116107"><ele>373.33333333333337</ele><time>2026-05-02T13:45:37Z</time></trkpt><trkpt lat="43.07063622466998" lon="11.618212543416886"><ele>375.6666666666667</ele><time>2026-05-02T13:45:38Z</time></trkpt><trkpt lat="43.070470198571144" lon="11.618051948964855"><ele>378.0</ele><time>2026-05-02T13:45:39Z</time></trkpt><trkpt lat="43.07032466193997" lon="11.617853786193338"><ele>378.3333333333333</ele><time>2026-05-02T13:45:40Z</time></trkpt><trkpt lat="43.07020242955896" lon="11.617623959296171"><ele>378.66666666666663</ele><time>2026-05-02T13:45:41Z</time></trkpt><trkpt lat="43.070104047862486" lon="11.617374183405444"><ele>379.0</ele><time>2026-05-02T13:45:42Z</time></trkpt><trkpt lat="43.0700254928446" lon="11.61711566093483"><ele>379.0</ele><time>2026-05-02T13:45:43Z</time></trkpt><trkpt lat="43.06995297178698" lon="11.616859659626758"><ele>379.0</ele><time>2026-05-02T13:45:44Z</time></trkpt><trkpt lat="43.06988421056948" lon="11.616610920819731"><ele>379.0</ele><time>2026-05-02T13:45:45Z</time></trkpt><trkpt lat="43.06981653794969" lon="11.616377613125763"><ele>379.3333333333333</ele><time>2026-05-02T13:45:46Z</time></trkpt><trkpt lat="43.0697431822379" lon="11.616165263910096"><ele>379.6666666666667</ele><time>2026-05-02T13:45:46.999Z</time></trkpt><trkpt lat="43.06965301587678" lon="11.615971214623494"><ele>380.0</ele><time>2026-05-02T13:45:47.999Z</time></trkpt><trkpt lat="43.069546559932" lon="11.61579952257446"><ele>381.33333333333337</ele><time>2026-05-02T13:45:48.999Z</time></trkpt><trkpt lat="43.06942676439321" lon="11.615645150869044"><ele>382.6666666666667</ele><time>2026-05-02T13:45:49.999Z</time></trkpt><trkpt lat="43.069293515918375" lon="11.615511850867335"><ele>384.0</ele><time>2026-05-02T13:45:50.999Z</time></trkpt><trkpt lat="43.069155497280335" lon="11.61539556934979"><ele>387.0</ele><time>2026-05-02T13:45:51.999Z</time></trkpt><trkpt lat="43.069004412785496" lon="11.615306784462797"><ele>390.0</ele><time>2026-05-02T13:45:52.999Z</time></trkpt><trkpt lat="43.068849168436664" lon="11.615242237255242"><ele>393.0</ele><time>2026-05-02T13:45:53.999Z</time></trkpt><trkpt lat="43.06868772629993" lon="11.615188818859746"><ele>393.0</ele><time>2026-05-02T13:45:54.999Z</time></trkpt><trkpt lat="43.06852692215811" lon="11.615133271807476"><ele>393.0</ele><time>2026-05-02T13:45:55.999Z</time></trkpt><trkpt lat="43.06836413862356" lon="11.615073853391822"><ele>393.0</ele><time>2026-05-02T13:45:56.999Z</time></trkpt><trkpt lat="43.06820059805389" lon="11.615011036975943"><ele>394.0</ele><time>2026-05-02T13:45:57.999Z</time></trkpt><trkpt lat="43.068031903393305" lon="11.614947365857503"><ele>395.0</ele><time>2026-05-02T13:45:58.999Z</time></trkpt><trkpt lat="43.06786137191243" lon="11.614882930562688"><ele>396.0</ele><time>2026-05-02T13:45:59.999Z</time></trkpt><trkpt lat="43.06769040144568" lon="11.61481733149633"><ele>396.0</ele><time>2026-05-02T13:46:00.999Z</time></trkpt><trkpt lat="43.06752140148656" lon="11.614753900325585"><ele>396.0</ele><time>2026-05-02T13:46:01.999Z</time></trkpt><trkpt lat="43.06735808124474" lon="11.614691841521342"><ele>396.0</ele><time>2026-05-02T13:46:02.999Z</time></trkpt><trkpt lat="43.06720673494011" lon="11.614636895570925"><ele>396.25</ele><time>2026-05-02T13:46:03.999Z</time></trkpt><trkpt lat="43.0670600089451" lon="11.614589553230449"><ele>396.5</ele><time>2026-05-02T13:46:04.999Z</time></trkpt><trkpt lat="43.0669261168778" lon="11.614544625659125"><ele>396.75</ele><time>2026-05-02T13:46:05.999Z</time></trkpt><trkpt lat="43.066796315922986" lon="11.61449576913351"><ele>397.0</ele><time>2026-05-02T13:46:06.999Z</time></trkpt><trkpt lat="43.066664193587336" lon="11.614437246045958"><ele>397.75</ele><time>2026-05-02T13:46:07.999Z</time></trkpt><trkpt lat="43.06653543121331" lon="11.61435980418048"><ele>398.5</ele><time>2026-05-02T13:46:08.999Z</time></trkpt><trkpt lat="43.0664156193214" lon="11.614263854022782"><ele>399.25</ele><time>2026-05-02T13:46:09.999Z</time></trkpt><trkpt lat="43.0663056508354" lon="11.614151994035618"><ele>400.0</ele><time>2026-05-02T13:46:10.999Z</time></trkpt><trkpt lat="43.06620373413557" lon="11.614025805064811"><ele>400.0</ele><time>2026-05-02T13:46:11.999Z</time></trkpt><trkpt lat="43.066111201362666" lon="11.613884294030182"><ele>400.0</ele><time>2026-05-02T13:46:12.999Z</time></trkpt><trkpt lat="43.06602921729563" lon="11.613728799575972"><ele>400.0</ele><time>2026-05-02T13:46:13.999Z</time></trkpt><trkpt lat="43.06595785114424" lon="11.61356541493069"><ele>400.0</ele><time>2026-05-02T13:46:14.999Z</time></trkpt><trkpt lat="43.0658999721251" lon="11.613399209199827"><ele>400.0</ele><time>2026-05-02T13:46:15.999Z</time></trkpt><trkpt lat="43.06584545502283" lon="11.613239279177701"><ele>400.0</ele><time>2026-05-02T13:46:16.999Z</time></trkpt><trkpt lat="43.06578872944839" lon="11.613087330132114"><ele>400.0</ele><time>2026-05-02T13:46:17.999Z</time></trkpt><trkpt lat="43.065733204947755" lon="11.61294549455278"><ele>400.0</ele><time>2026-05-02T13:46:18.999Z</time></trkpt><trkpt lat="43.06568113217969" lon="11.612814184823565"><ele>399.8</ele><time>2026-05-02T13:46:19.999Z</time></trkpt><trkpt lat="43.06563494248089" lon="11.612689717951884"><ele>399.6</ele><time>2026-05-02T13:46:20.999Z</time></trkpt><trkpt lat="43.065592790502386" lon="11.612569154730377"><ele>399.4</ele><time>2026-05-02T13:46:21.999Z</time></trkpt><trkpt lat="43.065551775609116" lon="11.61245683330143"><ele>399.2</ele><time>2026-05-02T13:46:22.999Z</time></trkpt><trkpt lat="43.06551054298582" lon="11.612348428412728"><ele>399.0</ele><time>2026-05-02T13:46:23.999Z</time></trkpt><trkpt lat="43.06546709396981" lon="11.61223798753474"><ele>399.0</ele><time>2026-05-02T13:46:24.999Z</time></trkpt><trkpt lat="43.06542377395521" lon="11.61213012322684"><ele>399.0</ele><time>2026-05-02T13:46:25.999Z</time></trkpt><trkpt lat="43.06537824985804" lon="11.612022326934003"><ele>399.0</ele><time>2026-05-02T13:46:26.999Z</time></trkpt><trkpt lat="43.065332660560266" lon="11.61191598980034"><ele>399.0</ele><time>2026-05-02T13:46:27.999Z</time></trkpt><trkpt lat="43.06528803901221" lon="11.611806025422519"><ele>399.0</ele><time>2026-05-02T13:46:28.999Z</time></trkpt><trkpt lat="43.06524734637097" lon="11.611698609932947"><ele>399.2</ele><time>2026-05-02T13:46:29.999Z</time></trkpt><trkpt lat="43.06520472547737" lon="11.611593879802045"><ele>399.4</ele><time>2026-05-02T13:46:30.999Z</time></trkpt><trkpt lat="43.06515542705759" lon="11.61147945657492"><ele>399.6</ele><time>2026-05-02T13:46:31.999Z</time></trkpt><trkpt lat="43.065092087386866" lon="11.611352755656373"><ele>399.8</ele><time>2026-05-02T13:46:32.999Z</time></trkpt><trkpt lat="43.06499796256402" lon="11.611208865494293"><ele>400.0</ele><time>2026-05-02T13:46:33.999Z</time></trkpt><trkpt lat="43.06489463968941" lon="11.611048469040515"><ele>400.0</ele><time>2026-05-02T13:46:34.999Z</time></trkpt><trkpt lat="43.06478323094363" lon="11.610887944641265"><ele>400.0</ele><time>2026-05-02T13:46:35.999Z</time></trkpt><trkpt lat="43.06464231894554" lon="11.610723982127233"><ele>400.0</ele><time>2026-05-02T13:46:36.999Z</time></trkpt><trkpt lat="43.064484971776665" lon="11.610595910186696"><ele>400.0</ele><time>2026-05-02T13:46:37.999Z</time></trkpt><trkpt lat="43.06432270985466" lon="11.610485425259641"><ele>400.0</ele><time>2026-05-02T13:46:38.999Z</time></trkpt><trkpt lat="43.064160875704864" lon="11.610386315854326"><ele>400.0</ele><time>2026-05-02T13:46:39.999Z</time></trkpt><trkpt lat="43.06400118680205" lon="11.61028360159656"><ele>405.0</ele><time>2026-05-02T13:46:40.999Z</time></trkpt><trkpt lat="43.06384441343805" lon="11.610176796403826"><ele>410.0</ele><time>2026-05-02T13:46:41.999Z</time></trkpt><trkpt lat="43.06368957994298" lon="11.610070012660076"><ele>415.0</ele><time>2026-05-02T13:46:43Z</time></trkpt><trkpt lat="43.06353551119639" lon="11.609966672280065"><ele>415.0</ele><time>2026-05-02T13:46:44Z</time></trkpt><trkpt lat="43.06338277455222" lon="11.60986387144896"><ele>415.0</ele><time>2026-05-02T13:46:45Z</time></trkpt><trkpt lat="43.06323467939733" lon="11.609756349586247"><ele>415.0</ele><time>2026-05-02T13:46:46Z</time></trkpt><trkpt lat="43.06309413976732" lon="11.609650630215945"><ele>414.6666666666667</ele><time>2026-05-02T13:46:47Z</time></trkpt><trkpt lat="43.06295745779164" lon="11.609534394118"><ele>414.33333333333337</ele><time>2026-05-02T13:46:48Z</time></trkpt><trkpt lat="43.06283302087186" lon="11.609402202275302"><ele>414.0</ele><time>2026-05-02T13:46:49Z</time></trkpt><trkpt lat="43.062713483096935" lon="11.60925269388896"><ele>414.0</ele><time>2026-05-02T13:46:50Z</time></trkpt><trkpt lat="43.06259716375459" lon="11.609097839159597"><ele>414.0</ele><time>2026-05-02T13:46:51Z</time></trkpt><trkpt lat="43.062484626826965" lon="11.608944029784952"><ele>414.0</ele><time>2026-05-02T13:46:52Z</time></trkpt><trkpt lat="43.06236924137616" lon="11.608791885263498"><ele>411.0</ele><time>2026-05-02T13:46:53Z</time></trkpt><trkpt lat="43.06225519431877" lon="11.60864151836356"><ele>408.0</ele><time>2026-05-02T13:46:54Z</time></trkpt><trkpt lat="43.06214366975473" lon="11.608494609066998"><ele>405.0</ele><time>2026-05-02T13:46:55Z</time></trkpt><trkpt lat="43.06203458636819" lon="11.608351403585425"><ele>405.0</ele><time>2026-05-02T13:46:56Z</time></trkpt><trkpt lat="43.061929102210435" lon="11.608212924833436"><ele>405.0</ele><time>2026-05-02T13:46:57Z</time></trkpt><trkpt lat="43.06182907388183" lon="11.608077939110828"><ele>405.0</ele><time>2026-05-02T13:46:58Z</time></trkpt><trkpt lat="43.06173546409956" lon="11.607937514397591"><ele>405.0</ele><time>2026-05-02T13:46:59Z</time></trkpt><trkpt lat="43.06164370869267" lon="11.60778939540051"><ele>403.25</ele><time>2026-05-02T13:47:00Z</time></trkpt><trkpt lat="43.06155311926367" lon="11.60763761981154"><ele>401.5</ele><time>2026-05-02T13:47:01Z</time></trkpt><trkpt lat="43.06146271929632" lon="11.607493094234302"><ele>399.75</ele><time>2026-05-02T13:47:02Z</time></trkpt><trkpt lat="43.06137452544875" lon="11.607345188795238"><ele>398.0</ele><time>2026-05-02T13:47:03Z</time></trkpt><trkpt lat="43.06129005387431" lon="11.607198716399862"><ele>398.0</ele><time>2026-05-02T13:47:04Z</time></trkpt><trkpt lat="43.06120995755962" lon="11.6070472246126"><ele>398.0</ele><time>2026-05-02T13:47:05Z</time></trkpt><trkpt lat="43.061136160141864" lon="11.606895115293376"><ele>398.0</ele><time>2026-05-02T13:47:06Z</time></trkpt><trkpt lat="43.06107554306059" lon="11.606758087078553"><ele>398.0</ele><time>2026-05-02T13:47:07Z</time></trkpt><trkpt lat="43.061016318667114" lon="11.606630487187708"><ele>398.59999999999997</ele><time>2026-05-02T13:47:08Z</time></trkpt><trkpt lat="43.060966185256426" lon="11.6065087399105"><ele>399.2</ele><time>2026-05-02T13:47:09Z</time></trkpt><trkpt lat="43.06092187157306" lon="11.606399312701187"><ele>399.8</ele><time>2026-05-02T13:47:10Z</time></trkpt><trkpt lat="43.060880577040244" lon="11.606301050009844"><ele>400.4</ele><time>2026-05-02T13:47:11Z</time></trkpt><trkpt lat="43.06083508880514" lon="11.60620142909597"><ele>401.0</ele><time>2026-05-02T13:47:12Z</time></trkpt><trkpt lat="43.06078093998604" lon="11.606072716165418"><ele>401.5</ele><time>2026-05-02T13:47:14Z</time></trkpt><trkpt lat="43.060756699640244" lon="11.605883994717122"><ele>402.0</ele><time>2026-05-02T13:47:19Z</time></trkpt><trkpt lat="43.06080038813695" lon="11.605746716375217"><ele>402.5</ele><time>2026-05-02T13:47:20Z</time></trkpt><trkpt lat="43.06087053159019" lon="11.605619787028644"><ele>403.0</ele><time>2026-05-02T13:47:21Z</time></trkpt><trkpt lat="43.06094176486039" lon="11.605471332393073"><ele>405.0</ele><time>2026-05-02T13:47:22Z</time></trkpt><trkpt lat="43.06099501381819" lon="11.60528599337377"><ele>407.0</ele><time>2026-05-02T13:47:23Z</time></trkpt><trkpt lat="43.061021145528265" lon="11.605074454164043"><ele>409.0</ele><time>2026-05-02T13:47:24Z</time></trkpt><trkpt lat="43.061013129378374" lon="11.604854076300647"><ele>409.0</ele><time>2026-05-02T13:47:25Z</time></trkpt><trkpt lat="43.06098648684682" lon="11.60463704399022"><ele>409.0</ele><time>2026-05-02T13:47:26Z</time></trkpt><trkpt lat="43.06096683541772" lon="11.604417922514621"><ele>409.0</ele><time>2026-05-02T13:47:27Z</time></trkpt><trkpt lat="43.06095400599088" lon="11.604193489939664"><ele>409.0</ele><time>2026-05-02T13:47:28Z</time></trkpt><trkpt lat="43.060949179558264" lon="11.603966846957961"><ele>409.0</ele><time>2026-05-02T13:47:29Z</time></trkpt><trkpt lat="43.06096052946753" lon="11.603741926396992"><ele>409.0</ele><time>2026-05-02T13:47:30Z</time></trkpt><trkpt lat="43.0609690515566" lon="11.603517151608477"><ele>408.6666666666667</ele><time>2026-05-02T13:47:31Z</time></trkpt><trkpt lat="43.06097083328196" lon="11.603306892615658"><ele>408.33333333333337</ele><time>2026-05-02T13:47:32Z</time></trkpt><trkpt lat="43.06096680160831" lon="11.603095721831522"><ele>408.0</ele><time>2026-05-02T13:47:33Z</time></trkpt><trkpt lat="43.06095378119936" lon="11.602902328236413"><ele>406.25</ele><time>2026-05-02T13:47:34Z</time></trkpt><trkpt lat="43.06092659627652" lon="11.60272547631717"><ele>404.5</ele><time>2026-05-02T13:47:35Z</time></trkpt><trkpt lat="43.060906038360386" lon="11.602576083425582"><ele>402.75</ele><time>2026-05-02T13:47:36Z</time></trkpt><trkpt lat="43.06088371499905" lon="11.602435351650477"><ele>401.0</ele><time>2026-05-02T13:47:36.999Z</time></trkpt><trkpt lat="43.0608580455681" lon="11.602292523779388"><ele>401.0</ele><time>2026-05-02T13:47:37.999Z</time></trkpt><trkpt lat="43.06082242631121" lon="11.602143433853895"><ele>401.0</ele><time>2026-05-02T13:47:38.999Z</time></trkpt><trkpt lat="43.060774065188696" lon="11.601993667599114"><ele>401.0</ele><time>2026-05-02T13:47:39.999Z</time></trkpt><trkpt lat="43.060713729353054" lon="11.601865234224407"><ele>401.0</ele><time>2026-05-02T13:47:40.999Z</time></trkpt><trkpt lat="43.0606512187004" lon="11.601763921261607"><ele>401.0</ele><time>2026-05-02T13:47:41.999Z</time></trkpt><trkpt lat="43.06063143899135" lon="11.60165101072317"><ele>400.0</ele><time>2026-05-02T13:47:42.999Z</time></trkpt><trkpt lat="43.06069880278191" lon="11.60156588520818"><ele>399.0</ele><time>2026-05-02T13:47:43.999Z</time></trkpt><trkpt lat="43.06080613784845" lon="11.601490230047332"><ele>398.0</ele><time>2026-05-02T13:47:44.999Z</time></trkpt><trkpt lat="43.060909035650766" lon="11.601356143903779"><ele>397.0</ele><time>2026-05-02T13:47:45.999Z</time></trkpt><trkpt lat="43.06101159211236" lon="11.601192384588646"><ele>392.6666666666667</ele><time>2026-05-02T13:47:46.999Z</time></trkpt><trkpt lat="43.061074859662874" lon="11.600965898295438"><ele>388.33333333333337</ele><time>2026-05-02T13:47:47.999Z</time></trkpt><trkpt lat="43.06114260675896" lon="11.600735587325465"><ele>384.0</ele><time>2026-05-02T13:47:48.999Z</time></trkpt><trkpt lat="43.061215024953064" lon="11.600542543384408"><ele>384.0</ele><time>2026-05-02T13:47:49.999Z</time></trkpt><trkpt lat="43.061279204188345" lon="11.600382225680882"><ele>384.0</ele><time>2026-05-02T13:47:50.999Z</time></trkpt><trkpt lat="43.06134191511976" lon="11.600216920409697"><ele>384.0</ele><time>2026-05-02T13:47:51.999Z</time></trkpt><trkpt lat="43.061404349551395" lon="11.60005176804415"><ele>384.0</ele><time>2026-05-02T13:47:52.999Z</time></trkpt><trkpt lat="43.06147016403836" lon="11.599890205230436"><ele>384.25</ele><time>2026-05-02T13:47:53.999Z</time></trkpt><trkpt lat="43.06153442691321" lon="11.599720519780115"><ele>384.5</ele><time>2026-05-02T13:47:54.999Z</time></trkpt><trkpt lat="43.06158307838316" lon="11.599542122015274"><ele>384.75</ele><time>2026-05-02T13:47:55.999Z</time></trkpt><trkpt lat="43.06161266361806" lon="11.5993501323879"><ele>385.0</ele><time>2026-05-02T13:47:56.999Z</time></trkpt><trkpt lat="43.06162806654945" lon="11.599152954665014"><ele>385.0</ele><time>2026-05-02T13:47:57.999Z</time></trkpt><trkpt lat="43.06164282876672" lon="11.598956642126822"><ele>385.0</ele><time>2026-05-02T13:47:58.999Z</time></trkpt><trkpt lat="43.061658080090716" lon="11.598766131781078"><ele>385.0</ele><time>2026-05-02T13:47:59.999Z</time></trkpt><trkpt lat="43.06167400091667" lon="11.598585582592174"><ele>385.0</ele><time>2026-05-02T13:48:00.999Z</time></trkpt><trkpt lat="43.06169216516555" lon="11.598412773128928"><ele>385.25</ele><time>2026-05-02T13:48:01.999Z</time></trkpt><trkpt lat="43.06171735161258" lon="11.598236443378518"><ele>385.5</ele><time>2026-05-02T13:48:02.999Z</time></trkpt><trkpt lat="43.061765751371446" lon="11.59806395661887"><ele>385.75</ele><time>2026-05-02T13:48:03.999Z</time></trkpt><trkpt lat="43.06187043655101" lon="11.597919181373094"><ele>386.0</ele><time>2026-05-02T13:48:04.999Z</time></trkpt><trkpt lat="43.061973120698" lon="11.59777775809242"><ele>383.66666666666663</ele><time>2026-05-02T13:48:05.999Z</time></trkpt><trkpt lat="43.06209222856476" lon="11.597660279139538"><ele>381.3333333333333</ele><time>2026-05-02T13:48:06.999Z</time></trkpt><trkpt lat="43.062214881473075" lon="11.597536144235669"><ele>379.0</ele><time>2026-05-02T13:48:07.999Z</time></trkpt><trkpt lat="43.062357113453395" lon="11.597437238479372"><ele>381.3333333333333</ele><time>2026-05-02T13:48:08.999Z</time></trkpt><trkpt lat="43.06250232520874" lon="11.597320833831342"><ele>383.66666666666663</ele><time>2026-05-02T13:48:09.999Z</time></trkpt><trkpt lat="43.06265578242995" lon="11.597205509410184"><ele>386.0</ele><time>2026-05-02T13:48:10.999Z</time></trkpt><trkpt lat="43.06281593887377" lon="11.597087877835923"><ele>382.3333333333333</ele><time>2026-05-02T13:48:11.999Z</time></trkpt><trkpt lat="43.062967444585404" lon="11.596964354973334"><ele>378.66666666666663</ele><time>2026-05-02T13:48:12.999Z</time></trkpt><trkpt lat="43.063119655299275" lon="11.596841482047287"><ele>375.0</ele><time>2026-05-02T13:48:13.999Z</time></trkpt><trkpt lat="43.063264141302184" lon="11.596715924930441"><ele>375.3333333333333</ele><time>2026-05-02T13:48:14.999Z</time></trkpt><trkpt lat="43.06339742167083" lon="11.596573082314864"><ele>375.66666666666663</ele><time>2026-05-02T13:48:15.999Z</time></trkpt><trkpt lat="43.0635185753953" lon="11.596413559434023"><ele>376.0</ele><time>2026-05-02T13:48:16.999Z</time></trkpt><trkpt lat="43.06363843576526" lon="11.596243237446817"><ele>372.66666666666663</ele><time>2026-05-02T13:48:17.999Z</time></trkpt><trkpt lat="43.0637577663585" lon="11.59607440817758"><ele>369.3333333333333</ele><time>2026-05-02T13:48:18.999Z</time></trkpt><trkpt lat="43.06387589371021" lon="11.595906372950058"><ele>366.0</ele><time>2026-05-02T13:48:19.999Z</time></trkpt><trkpt lat="43.063985353788055" lon="11.595750407544335"><ele>366.0</ele><time>2026-05-02T13:48:20.999Z</time></trkpt><trkpt lat="43.064083991921635" lon="11.595612367910888"><ele>366.0</ele><time>2026-05-02T13:48:21.999Z</time></trkpt><trkpt lat="43.064176991855355" lon="11.595475660985805"><ele>366.0</ele><time>2026-05-02T13:48:22.999Z</time></trkpt><trkpt lat="43.064263168377835" lon="11.595320684571398"><ele>366.0</ele><time>2026-05-02T13:48:23.999Z</time></trkpt><trkpt lat="43.064348476257486" lon="11.595143741182596"><ele>364.6666666666667</ele><time>2026-05-02T13:48:24.999Z</time></trkpt><trkpt lat="43.06438174011502" lon="11.594916926790086"><ele>363.33333333333337</ele><time>2026-05-02T13:48:25.999Z</time></trkpt><trkpt lat="43.06441470874013" lon="11.594692277271257"><ele>362.0</ele><time>2026-05-02T13:48:26.999Z</time></trkpt><trkpt lat="43.064440151204" lon="11.594464651864918"><ele>359.6666666666667</ele><time>2026-05-02T13:48:27.999Z</time></trkpt><trkpt lat="43.06446176946492" lon="11.59424550841683"><ele>357.3333333333333</ele><time>2026-05-02T13:48:28.999Z</time></trkpt><trkpt lat="43.064487750018586" lon="11.594034933505451"><ele>355.0</ele><time>2026-05-02T13:48:29.999Z</time></trkpt><trkpt lat="43.064514367618536" lon="11.593832749348236"><ele>353.25</ele><time>2026-05-02T13:48:30.999Z</time></trkpt><trkpt lat="43.064538640459126" lon="11.593639312353188"><ele>351.5</ele><time>2026-05-02T13:48:31.999Z</time></trkpt><trkpt lat="43.06456197469034" lon="11.593461099378743"><ele>349.75</ele><time>2026-05-02T13:48:32.999Z</time></trkpt><trkpt lat="43.06459665192034" lon="11.593288975647763"><ele>348.0</ele><time>2026-05-02T13:48:33.999Z</time></trkpt><trkpt lat="43.064644508769895" lon="11.593116947185763"><ele>348.0</ele><time>2026-05-02T13:48:34.999Z</time></trkpt><trkpt lat="43.06470063757374" lon="11.592940425088655"><ele>348.0</ele><time>2026-05-02T13:48:35.999Z</time></trkpt><trkpt lat="43.06475402800001" lon="11.592768433355522"><ele>348.0</ele><time>2026-05-02T13:48:36.999Z</time></trkpt><trkpt lat="43.06479448471401" lon="11.592598227997378"><ele>348.0</ele><time>2026-05-02T13:48:37.999Z</time></trkpt><trkpt lat="43.064817119619384" lon="11.592413122011141"><ele>345.6666666666667</ele><time>2026-05-02T13:48:38.999Z</time></trkpt><trkpt lat="43.064805845041256" lon="11.592184122587957"><ele>343.33333333333337</ele><time>2026-05-02T13:48:39.999Z</time></trkpt><trkpt lat="43.06479110164501" lon="11.591928239082915"><ele>341.0</ele><time>2026-05-02T13:48:40.999Z</time></trkpt><trkpt lat="43.06478383528658" lon="11.591671599641234"><ele>339.0</ele><time>2026-05-02T13:48:41.999Z</time></trkpt><trkpt lat="43.06478218953047" lon="11.59141864247312"><ele>337.0</ele><time>2026-05-02T13:48:42.999Z</time></trkpt><trkpt lat="43.064801974802045" lon="11.591184153367951"><ele>335.0</ele><time>2026-05-02T13:48:43.999Z</time></trkpt><trkpt lat="43.064854884463685" lon="11.590978021024377"><ele>336.33333333333337</ele><time>2026-05-02T13:48:44.999Z</time></trkpt><trkpt lat="43.064964662384945" lon="11.590818306434088"><ele>337.6666666666667</ele><time>2026-05-02T13:48:45.999Z</time></trkpt><trkpt lat="43.065066863635934" lon="11.590642377119277"><ele>339.0</ele><time>2026-05-02T13:48:46.999Z</time></trkpt><trkpt lat="43.065222188160355" lon="11.590522761879503"><ele>339.0</ele><time>2026-05-02T13:48:48Z</time></trkpt><trkpt lat="43.0653819867613" lon="11.590407765888248"><ele>339.0</ele><time>2026-05-02T13:48:49Z</time></trkpt><trkpt lat="43.06554393844562" lon="11.590282413677928"><ele>339.0</ele><time>2026-05-02T13:48:50Z</time></trkpt><trkpt lat="43.0657088693608" lon="11.590214612641223"><ele>337.25</ele><time>2026-05-02T13:48:51Z</time></trkpt><trkpt lat="43.06586499153294" lon="11.590185400234622"><ele>335.5</ele><time>2026-05-02T13:48:52Z</time></trkpt><trkpt lat="43.066004621896596" lon="11.59021420514505"><ele>333.75</ele><time>2026-05-02T13:48:53Z</time></trkpt><trkpt lat="43.06614663494133" lon="11.590244369416967"><ele>332.0</ele><time>2026-05-02T13:48:54Z</time></trkpt><trkpt lat="43.06627444255565" lon="11.590285321008793"><ele>332.0</ele><time>2026-05-02T13:48:55Z</time></trkpt><trkpt lat="43.06639910509546" lon="11.590256785057685"><ele>332.0</ele><time>2026-05-02T13:48:56Z</time></trkpt><trkpt lat="43.06650372510994" lon="11.590148735866071"><ele>332.0</ele><time>2026-05-02T13:48:57Z</time></trkpt><trkpt lat="43.06658470493465" lon="11.589971576229694"><ele>332.0</ele><time>2026-05-02T13:48:58Z</time></trkpt><trkpt lat="43.0666458531858" lon="11.589748320356012"><ele>329.0</ele><time>2026-05-02T13:48:59Z</time></trkpt><trkpt lat="43.066697638600196" lon="11.589495961171231"><ele>326.0</ele><time>2026-05-02T13:49:00Z</time></trkpt><trkpt lat="43.066748589019234" lon="11.589243569078233"><ele>323.0</ele><time>2026-05-02T13:49:01Z</time></trkpt><trkpt lat="43.066811053227866" lon="11.589013343437498"><ele>323.0</ele><time>2026-05-02T13:49:02Z</time></trkpt><trkpt lat="43.06687919507358" lon="11.588804669897899"><ele>323.0</ele><time>2026-05-02T13:49:03Z</time></trkpt><trkpt lat="43.066968021147794" lon="11.588613419174747"><ele>323.0</ele><time>2026-05-02T13:49:04Z</time></trkpt><trkpt lat="43.06706168385501" lon="11.58841909151086"><ele>322.33333333333337</ele><time>2026-05-02T13:49:05Z</time></trkpt><trkpt lat="43.06716573476051" lon="11.58821813773548"><ele>321.6666666666667</ele><time>2026-05-02T13:49:06Z</time></trkpt><trkpt lat="43.067271651096355" lon="11.58800959520668"><ele>321.0</ele><time>2026-05-02T13:49:07Z</time></trkpt><trkpt lat="43.06738848574966" lon="11.587805200094442"><ele>319.6666666666667</ele><time>2026-05-02T13:49:08Z</time></trkpt><trkpt lat="43.06750122051971" lon="11.587597105094234"><ele>318.33333333333337</ele><time>2026-05-02T13:49:09Z</time></trkpt><trkpt lat="43.067614225577856" lon="11.587385919220099"><ele>317.0</ele><time>2026-05-02T13:49:10Z</time></trkpt><trkpt lat="43.06772640389465" lon="11.587174100725173"><ele>316.33333333333337</ele><time>2026-05-02T13:49:11Z</time></trkpt><trkpt lat="43.06782894838802" lon="11.58696685454196"><ele>315.6666666666667</ele><time>2026-05-02T13:49:12Z</time></trkpt><trkpt lat="43.06791217028592" lon="11.586748917059046"><ele>315.0</ele><time>2026-05-02T13:49:13Z</time></trkpt><trkpt lat="43.06795864207809" lon="11.586506226283541"><ele>315.0</ele><time>2026-05-02T13:49:14Z</time></trkpt><trkpt lat="43.06797141960093" lon="11.586232075577724"><ele>315.0</ele><time>2026-05-02T13:49:15Z</time></trkpt><trkpt lat="43.067974226371604" lon="11.58594281038236"><ele>315.0</ele><time>2026-05-02T13:49:16Z</time></trkpt><trkpt lat="43.06798418013797" lon="11.585664258579556"><ele>312.3333333333333</ele><time>2026-05-02T13:49:17Z</time></trkpt><trkpt lat="43.06800130359402" lon="11.585402788518442"><ele>309.66666666666663</ele><time>2026-05-02T13:49:18Z</time></trkpt><trkpt lat="43.068015726845644" lon="11.585161928228201"><ele>307.0</ele><time>2026-05-02T13:49:19Z</time></trkpt><trkpt lat="43.06802841528246" lon="11.584948863392313"><ele>305.0</ele><time>2026-05-02T13:49:20Z</time></trkpt><trkpt lat="43.068040224787374" lon="11.584770154038738"><ele>303.0</ele><time>2026-05-02T13:49:21Z</time></trkpt><trkpt lat="43.068069429631784" lon="11.58460764017069"><ele>301.0</ele><time>2026-05-02T13:49:22Z</time></trkpt><trkpt lat="43.06813310512069" lon="11.584457345883202"><ele>299.0</ele><time>2026-05-02T13:49:23Z</time></trkpt><trkpt lat="43.068251078255564" lon="11.584353428337678"><ele>299.5</ele><time>2026-05-02T13:49:24Z</time></trkpt><trkpt lat="43.068376862417395" lon="11.584232901254998"><ele>300.0</ele><time>2026-05-02T13:49:25Z</time></trkpt><trkpt lat="43.06850422143194" lon="11.584149394291567"><ele>300.5</ele><time>2026-05-02T13:49:26Z</time></trkpt><trkpt lat="43.068622525502995" lon="11.58413036742286"><ele>301.0</ele><time>2026-05-02T13:49:27Z</time></trkpt><trkpt lat="43.06873326667485" lon="11.584185687047032"><ele>301.0</ele><time>2026-05-02T13:49:28Z</time></trkpt><trkpt lat="43.06885556962087" lon="11.584291371043939"><ele>301.0</ele><time>2026-05-02T13:49:29Z</time></trkpt><trkpt lat="43.06899851494991" lon="11.584399061059408"><ele>301.0</ele><time>2026-05-02T13:49:30Z</time></trkpt><trkpt lat="43.06916079525741" lon="11.584496814924387"><ele>301.3333333333333</ele><time>2026-05-02T13:49:31Z</time></trkpt><trkpt lat="43.0693178864406" lon="11.584618635277511"><ele>301.6666666666667</ele><time>2026-05-02T13:49:32Z</time></trkpt><trkpt lat="43.069483454523535" lon="11.584745728411445"><ele>302.0</ele><time>2026-05-02T13:49:33Z</time></trkpt><trkpt lat="43.06965272498983" lon="11.584872789632872"><ele>302.0</ele><time>2026-05-02T13:49:34Z</time></trkpt><trkpt lat="43.069817237520866" lon="11.584996722375282"><ele>302.0</ele><time>2026-05-02T13:49:35Z</time></trkpt><trkpt lat="43.06996843049771" lon="11.585117481396948"><ele>302.0</ele><time>2026-05-02T13:49:36Z</time></trkpt><trkpt lat="43.070103664103556" lon="11.585222536952145"><ele>300.0</ele><time>2026-05-02T13:49:37Z</time></trkpt><trkpt lat="43.070221460755384" lon="11.58529144222952"><ele>298.0</ele><time>2026-05-02T13:49:38Z</time></trkpt><trkpt lat="43.070332174688616" lon="11.585303950574163"><ele>296.0</ele><time>2026-05-02T13:49:39Z</time></trkpt><trkpt lat="43.07044274730174" lon="11.585249177057127"><ele>294.0</ele><time>2026-05-02T13:49:40Z</time></trkpt><trkpt lat="43.0705324269939" lon="11.585129286443209"><ele>294.0</ele><time>2026-05-02T13:49:41Z</time></trkpt><trkpt lat="43.07059935890734" lon="11.58495446616348"><ele>294.0</ele><time>2026-05-02T13:49:42Z</time></trkpt><trkpt lat="43.070657889062474" lon="11.584732428040773"><ele>294.0</ele><time>2026-05-02T13:49:43Z</time></trkpt><trkpt lat="43.070727356682816" lon="11.584481711708138"><ele>292.0</ele><time>2026-05-02T13:49:43.999Z</time></trkpt><trkpt lat="43.07080839166563" lon="11.584219249985868"><ele>290.0</ele><time>2026-05-02T13:49:44.999Z</time></trkpt><trkpt lat="43.0709073375372" lon="11.583940380372294"><ele>288.0</ele><time>2026-05-02T13:49:45.999Z</time></trkpt><trkpt lat="43.07100852478049" lon="11.583659972051128"><ele>287.0</ele><time>2026-05-02T13:49:46.999Z</time></trkpt><trkpt lat="43.07109782320202" lon="11.583403961585482"><ele>286.0</ele><time>2026-05-02T13:49:47.999Z</time></trkpt><trkpt lat="43.07117026635808" lon="11.583164459299145"><ele>285.0</ele><time>2026-05-02T13:49:48.999Z</time></trkpt><trkpt lat="43.07121354708036" lon="11.58292568779591"><ele>284.3333333333333</ele><time>2026-05-02T13:49:49.999Z</time></trkpt><trkpt lat="43.07122497364464" lon="11.582677410198352"><ele>283.66666666666663</ele><time>2026-05-02T13:49:50.999Z</time></trkpt><trkpt lat="43.07118499284306" lon="11.582432929358557"><ele>283.0</ele><time>2026-05-02T13:49:51.999Z</time></trkpt><trkpt lat="43.07111314515387" lon="11.58219342303737"><ele>280.3333333333333</ele><time>2026-05-02T13:49:52.999Z</time></trkpt><trkpt lat="43.071005698191186" lon="11.581966552592867"><ele>277.6666666666667</ele><time>2026-05-02T13:49:53.999Z</time></trkpt><trkpt lat="43.070883370700734" lon="11.58175286759128"><ele>275.0</ele><time>2026-05-02T13:49:54.999Z</time></trkpt><trkpt lat="43.070785366099955" lon="11.581567036257479"><ele>275.4</ele><time>2026-05-02T13:49:55.999Z</time></trkpt><trkpt lat="43.070718696782166" lon="11.581421952666384"><ele>275.8</ele><time>2026-05-02T13:49:56.999Z</time></trkpt><trkpt lat="43.070681412077406" lon="11.581295942292524"><ele>276.2</ele><time>2026-05-02T13:49:57.999Z</time></trkpt><trkpt lat="43.07068510731481" lon="11.581167384204363"><ele>276.6</ele><time>2026-05-02T13:49:58.999Z</time></trkpt><trkpt lat="43.07073396427759" lon="11.581057476592502"><ele>277.0</ele><time>2026-05-02T13:49:59.999Z</time></trkpt><trkpt lat="43.070815409870704" lon="11.58098139471543"><ele>276.6</ele><time>2026-05-02T13:50:00.999Z</time></trkpt><trkpt lat="43.07092843810695" lon="11.580991526885889"><ele>276.2</ele><time>2026-05-02T13:50:01.999Z</time></trkpt><trkpt lat="43.071023772190095" lon="11.58104019542068"><ele>275.8</ele><time>2026-05-02T13:50:02.999Z</time></trkpt><trkpt lat="43.071074607300645" lon="11.581174880022367"><ele>275.4</ele><time>2026-05-02T13:50:03.999Z</time></trkpt><trkpt lat="43.07115071894735" lon="11.581299399550426"><ele>275.0</ele><time>2026-05-02T13:50:04.999Z</time></trkpt><trkpt lat="43.07122237943727" lon="11.58143915123867"><ele>275.0</ele><time>2026-05-02T13:50:05.999Z</time></trkpt><trkpt lat="43.071361117572295" lon="11.581513917520004"><ele>275.0</ele><time>2026-05-02T13:50:06.999Z</time></trkpt><trkpt lat="43.0715285160512" lon="11.581574747085785"><ele>275.0</ele><time>2026-05-02T13:50:07.999Z</time></trkpt><trkpt lat="43.07168299924519" lon="11.581682865487496"><ele>273.25</ele><time>2026-05-02T13:50:08.999Z</time></trkpt><trkpt lat="43.071801684215885" lon="11.581817314621679"><ele>271.5</ele><time>2026-05-02T13:50:09.999Z</time></trkpt><trkpt lat="43.071913375548434" lon="11.58192346016601"><ele>269.75</ele><time>2026-05-02T13:50:10.999Z</time></trkpt><trkpt lat="43.07199556929611" lon="11.581997510935713"><ele>268.0</ele><time>2026-05-02T13:50:11.999Z</time></trkpt><trkpt lat="43.07209019523551" lon="11.581990552646282"><ele>268.0</ele><time>2026-05-02T13:50:12.999Z</time></trkpt><trkpt lat="43.072174117659685" lon="11.581909279939158"><ele>268.0</ele><time>2026-05-02T13:50:13.999Z</time></trkpt><trkpt lat="43.07221751510501" lon="11.581770898102947"><ele>268.0</ele><time>2026-05-02T13:50:14.999Z</time></trkpt><trkpt lat="43.07221001825515" lon="11.58159721016964"><ele>268.0</ele><time>2026-05-02T13:50:15.999Z</time></trkpt><trkpt lat="43.072150199354546" lon="11.581411461281549"><ele>268.0</ele><time>2026-05-02T13:50:16.999Z</time></trkpt><trkpt lat="43.072069373644204" lon="11.58121004527396"><ele>268.0</ele><time>2026-05-02T13:50:17.999Z</time></trkpt><trkpt lat="43.072002264620195" lon="11.580994997041914"><ele>268.0</ele><time>2026-05-02T13:50:18.999Z</time></trkpt><trkpt lat="43.07197644989651" lon="11.580788944442398"><ele>266.75</ele><time>2026-05-02T13:50:19.999Z</time></trkpt><trkpt lat="43.071997734709846" lon="11.580591417105797"><ele>265.5</ele><time>2026-05-02T13:50:20.999Z</time></trkpt><trkpt lat="43.072058439957374" lon="11.580411505008305"><ele>264.25</ele><time>2026-05-02T13:50:21.999Z</time></trkpt><trkpt lat="43.07216120981804" lon="11.580252064524124"><ele>263.0</ele><time>2026-05-02T13:50:22.999Z</time></trkpt><trkpt lat="43.07227517297029" lon="11.58010168363468"><ele>262.33333333333337</ele><time>2026-05-02T13:50:23.999Z</time></trkpt><trkpt lat="43.07240540997182" lon="11.57994941397598"><ele>261.6666666666667</ele><time>2026-05-02T13:50:24.999Z</time></trkpt><trkpt lat="43.072529877100976" lon="11.57979462173301"><ele>261.0</ele><time>2026-05-02T13:50:25.999Z</time></trkpt><trkpt lat="43.07264852175769" lon="11.57962369763642"><ele>258.3333333333333</ele><time>2026-05-02T13:50:26.999Z</time></trkpt><trkpt lat="43.07275233677395" lon="11.579430838832108"><ele>255.66666666666666</ele><time>2026-05-02T13:50:27.999Z</time></trkpt><trkpt lat="43.07287433169964" lon="11.579238801012457"><ele>253.0</ele><time>2026-05-02T13:50:28.999Z</time></trkpt><trkpt lat="43.072981859745674" lon="11.57901945309262"><ele>253.0</ele><time>2026-05-02T13:50:29.999Z</time></trkpt><trkpt lat="43.07310002586058" lon="11.57883005633389"><ele>253.0</ele><time>2026-05-02T13:50:30.999Z</time></trkpt><trkpt lat="43.073216399591054" lon="11.578652569166634"><ele>253.0</ele><time>2026-05-02T13:50:31.999Z</time></trkpt><trkpt lat="43.073328692107445" lon="11.57847654725855"><ele>252.33333333333331</ele><time>2026-05-02T13:50:32.999Z</time></trkpt><trkpt lat="43.07343890534251" lon="11.578284495582247"><ele>251.66666666666669</ele><time>2026-05-02T13:50:33.999Z</time></trkpt><trkpt lat="43.073548367926556" lon="11.578083757700375"><ele>251.0</ele><time>2026-05-02T13:50:34.999Z</time></trkpt><trkpt lat="43.07361884483333" lon="11.57785495273957"><ele>250.33333333333334</ele><time>2026-05-02T13:50:35.999Z</time></trkpt><trkpt lat="43.07364776255546" lon="11.577606400538595"><ele>249.66666666666669</ele><time>2026-05-02T13:50:36.999Z</time></trkpt><trkpt lat="43.073641536829506" lon="11.577340004263254"><ele>249.0</ele><time>2026-05-02T13:50:37.999Z</time></trkpt><trkpt lat="43.0736186323416" lon="11.577078705026695"><ele>249.33333333333331</ele><time>2026-05-02T13:50:38.999Z</time></trkpt><trkpt lat="43.07358624867661" lon="11.576822731533422"><ele>249.66666666666666</ele><time>2026-05-02T13:50:39.999Z</time></trkpt><trkpt lat="43.073561549938084" lon="11.576564226767218"><ele>250.0</ele><time>2026-05-02T13:50:40.999Z</time></trkpt><trkpt lat="43.073554695030005" lon="11.576304873258113"><ele>250.66666666666666</ele><time>2026-05-02T13:50:41.999Z</time></trkpt><trkpt lat="43.07359125421295" lon="11.576054849095213"><ele>251.33333333333331</ele><time>2026-05-02T13:50:42.999Z</time></trkpt><trkpt lat="43.07361282309718" lon="11.575790334678965"><ele>252.0</ele><time>2026-05-02T13:50:43.999Z</time></trkpt><trkpt lat="43.073652932453605" lon="11.575540396006113"><ele>252.66666666666669</ele><time>2026-05-02T13:50:44.999Z</time></trkpt><trkpt lat="43.0736847188591" lon="11.575312433097276"><ele>253.33333333333334</ele><time>2026-05-02T13:50:45.999Z</time></trkpt><trkpt lat="43.07372426343746" lon="11.575108648062482"><ele>254.0</ele><time>2026-05-02T13:50:46.999Z</time></trkpt><trkpt lat="43.073809930413496" lon="11.574934108770625"><ele>254.0</ele><time>2026-05-02T13:50:47.999Z</time></trkpt><trkpt lat="43.07390258901483" lon="11.574753970807494"><ele>254.0</ele><time>2026-05-02T13:50:48.999Z</time></trkpt><trkpt lat="43.074006896883404" lon="11.574567807376104"><ele>254.0</ele><time>2026-05-02T13:50:49.999Z</time></trkpt><trkpt lat="43.07410141058317" lon="11.574367499361104"><ele>255.33333333333334</ele><time>2026-05-02T13:50:50.999Z</time></trkpt><trkpt lat="43.074216499165544" lon="11.574184679286523"><ele>256.6666666666667</ele><time>2026-05-02T13:50:51.999Z</time></trkpt><trkpt lat="43.07433631590633" lon="11.574023722491505"><ele>258.0</ele><time>2026-05-02T13:50:53Z</time></trkpt><trkpt lat="43.07445879079454" lon="11.573913296767683"><ele>258.0</ele><time>2026-05-02T13:50:54Z</time></trkpt><trkpt lat="43.07458743723807" lon="11.573884585511411"><ele>258.0</ele><time>2026-05-02T13:50:55Z</time></trkpt><trkpt lat="43.074726483284344" lon="11.573900491549955"><ele>258.0</ele><time>2026-05-02T13:50:56Z</time></trkpt><trkpt lat="43.07489618763909" lon="11.573911611732157"><ele>258.0</ele><time>2026-05-02T13:50:57Z</time></trkpt><trkpt lat="43.075063328393746" lon="11.57390148830825"><ele>258.25</ele><time>2026-05-02T13:50:58Z</time></trkpt><trkpt lat="43.07521660584804" lon="11.573854745539517"><ele>258.5</ele><time>2026-05-02T13:50:59Z</time></trkpt><trkpt lat="43.075338666077386" lon="11.573752467251008"><ele>258.75</ele><time>2026-05-02T13:51:00Z</time></trkpt><trkpt lat="43.07542111593934" lon="11.57363959226125"><ele>259.0</ele><time>2026-05-02T13:51:01Z</time></trkpt><trkpt lat="43.07544916162962" lon="11.573493747872606"><ele>261.0</ele><time>2026-05-02T13:51:02Z</time></trkpt><trkpt lat="43.07543129300491" lon="11.573332529354639"><ele>263.0</ele><time>2026-05-02T13:51:03Z</time></trkpt><trkpt lat="43.075357721799975" lon="11.573170236227226"><ele>265.0</ele><time>2026-05-02T13:51:04Z</time></trkpt><trkpt lat="43.07530276923189" lon="11.573019711832895"><ele>267.0</ele><time>2026-05-02T13:51:05Z</time></trkpt><trkpt lat="43.07534331484906" lon="11.572891395905021"><ele>267.0</ele><time>2026-05-02T13:51:06Z</time></trkpt><trkpt lat="43.075429650872515" lon="11.572803922304345"><ele>267.0</ele><time>2026-05-02T13:51:07Z</time></trkpt><trkpt lat="43.07553912266707" lon="11.572803506283071"><ele>267.0</ele><time>2026-05-02T13:51:08Z</time></trkpt><trkpt lat="43.0756466232105" lon="11.572866506898112"><ele>267.0</ele><time>2026-05-02T13:51:09Z</time></trkpt><trkpt lat="43.0757622045632" lon="11.572966388551844"><ele>269.0</ele><time>2026-05-02T13:51:10Z</time></trkpt><trkpt lat="43.0758785035163" lon="11.573088592469873"><ele>271.0</ele><time>2026-05-02T13:51:11Z</time></trkpt><trkpt lat="43.07598962537083" lon="11.573221297679673"><ele>273.0</ele><time>2026-05-02T13:51:12Z</time></trkpt><trkpt lat="43.07611220639505" lon="11.57332901348126"><ele>275.0</ele><time>2026-05-02T13:51:13Z</time></trkpt><trkpt lat="43.07623956224265" lon="11.57340323825269"><ele>275.0</ele><time>2026-05-02T13:51:14Z</time></trkpt><trkpt lat="43.076360892153794" lon="11.573423952204182"><ele>275.0</ele><time>2026-05-02T13:51:15Z</time></trkpt><trkpt lat="43.076465685956045" lon="11.57336677768151"><ele>275.0</ele><time>2026-05-02T13:51:16Z</time></trkpt><trkpt lat="43.07654246796427" lon="11.573238855034866"><ele>275.0</ele><time>2026-05-02T13:51:17Z</time></trkpt><trkpt lat="43.07657629586485" lon="11.573082397046885"><ele>275.0</ele><time>2026-05-02T13:51:18Z</time></trkpt><trkpt lat="43.07653523278248" lon="11.572931778975697"><ele>275.0</ele><time>2026-05-02T13:51:19Z</time></trkpt><trkpt lat="43.07644994713771" lon="11.572824724909472"><ele>275.0</ele><time>2026-05-02T13:51:20Z</time></trkpt><trkpt lat="43.07631542278949" lon="11.572756530740234"><ele>275.0</ele><time>2026-05-02T13:51:21Z</time></trkpt><trkpt lat="43.0761617308021" lon="11.572688362887739"><ele>277.5</ele><time>2026-05-02T13:51:22Z</time></trkpt><trkpt lat="43.07603156521356" lon="11.572598930412271"><ele>280.0</ele><time>2026-05-02T13:51:23Z</time></trkpt><trkpt lat="43.075950100647994" lon="11.572464277110363"><ele>282.5</ele><time>2026-05-02T13:51:24Z</time></trkpt><trkpt lat="43.075880667601474" lon="11.572321867192088"><ele>285.0</ele><time>2026-05-02T13:51:25Z</time></trkpt><trkpt lat="43.07582715878944" lon="11.572123817521787"><ele>284.3333333333333</ele><time>2026-05-02T13:51:26Z</time></trkpt><trkpt lat="43.075820356287494" lon="11.571879868203274"><ele>283.66666666666663</ele><time>2026-05-02T13:51:27Z</time></trkpt><trkpt lat="43.07578120035452" lon="11.57167076477506"><ele>283.0</ele><time>2026-05-02T13:51:28Z</time></trkpt><trkpt lat="43.07566405234198" lon="11.571509496863666"><ele>283.0</ele><time>2026-05-02T13:51:29Z</time></trkpt><trkpt lat="43.075513082483766" lon="11.571337357546367"><ele>283.0</ele><time>2026-05-02T13:51:30Z</time></trkpt><trkpt lat="43.07540412398758" lon="11.571160432404842"><ele>283.0</ele><time>2026-05-02T13:51:31Z</time></trkpt><trkpt lat="43.07534243172358" lon="11.571002713081484"><ele>284.8</ele><time>2026-05-02T13:51:32Z</time></trkpt><trkpt lat="43.07530334393549" lon="11.57085961407716"><ele>286.6</ele><time>2026-05-02T13:51:33Z</time></trkpt><trkpt lat="43.07528544962569" lon="11.570727046409026"><ele>288.4</ele><time>2026-05-02T13:51:34Z</time></trkpt><trkpt lat="43.07529495032664" lon="11.57060481719338"><ele>290.2</ele><time>2026-05-02T13:51:35Z</time></trkpt><trkpt lat="43.07533658553323" lon="11.57048075368564"><ele>292.0</ele><time>2026-05-02T13:51:36Z</time></trkpt><trkpt lat="43.075408108547315" lon="11.570378393148983"><ele>292.0</ele><time>2026-05-02T13:51:37Z</time></trkpt><trkpt lat="43.075501468958294" lon="11.570349078691875"><ele>292.0</ele><time>2026-05-02T13:51:38Z</time></trkpt><trkpt lat="43.07560918718743" lon="11.570396382094884"><ele>292.0</ele><time>2026-05-02T13:51:39Z</time></trkpt><trkpt lat="43.07570362617244" lon="11.570532526729366"><ele>292.0</ele><time>2026-05-02T13:51:40Z</time></trkpt><trkpt lat="43.075820219858215" lon="11.570675306721478"><ele>296.3333333333333</ele><time>2026-05-02T13:51:41Z</time></trkpt><trkpt lat="43.075964821387416" lon="11.57084139559996"><ele>300.6666666666667</ele><time>2026-05-02T13:51:42Z</time></trkpt><trkpt lat="43.07610284583415" lon="11.571015772701498"><ele>305.0</ele><time>2026-05-02T13:51:43Z</time></trkpt><trkpt lat="43.07623537585942" lon="11.571166802188248"><ele>305.6666666666667</ele><time>2026-05-02T13:51:44Z</time></trkpt><trkpt lat="43.076370173520154" lon="11.571285105859062"><ele>306.3333333333333</ele><time>2026-05-02T13:51:45Z</time></trkpt><trkpt lat="43.07652157498084" lon="11.571340409655106"><ele>307.0</ele><time>2026-05-02T13:51:46Z</time></trkpt><trkpt lat="43.07668450489123" lon="11.571320946296899"><ele>307.0</ele><time>2026-05-02T13:51:47Z</time></trkpt><trkpt lat="43.07684164266585" lon="11.571231959512778"><ele>307.0</ele><time>2026-05-02T13:51:48Z</time></trkpt><trkpt lat="43.0769922682999" lon="11.571087500931679"><ele>307.0</ele><time>2026-05-02T13:51:49Z</time></trkpt><trkpt lat="43.07713553812568" lon="11.5709044163201"><ele>310.66666666666663</ele><time>2026-05-02T13:51:50Z</time></trkpt><trkpt lat="43.07728663894872" lon="11.570727422056"><ele>314.3333333333333</ele><time>2026-05-02T13:51:51Z</time></trkpt><trkpt lat="43.077472412666644" lon="11.570609794712754"><ele>318.0</ele><time>2026-05-02T13:51:52Z</time></trkpt><trkpt lat="43.07767379055915" lon="11.5704849643524"><ele>322.3333333333333</ele><time>2026-05-02T13:51:53Z</time></trkpt><trkpt lat="43.077879495011075" lon="11.570348698823887"><ele>326.66666666666663</ele><time>2026-05-02T13:51:54Z</time></trkpt><trkpt lat="43.07808087153619" lon="11.57024010464645"><ele>331.0</ele><time>2026-05-02T13:51:55Z</time></trkpt><trkpt lat="43.078272705583935" lon="11.570120933703311"><ele>331.3333333333333</ele><time>2026-05-02T13:51:56Z</time></trkpt><trkpt lat="43.078453719760375" lon="11.570004505008258"><ele>331.6666666666667</ele><time>2026-05-02T13:51:57Z</time></trkpt><trkpt lat="43.078623799902076" lon="11.569952181280081"><ele>332.0</ele><time>2026-05-02T13:51:58Z</time></trkpt><trkpt lat="43.07876534726756" lon="11.56993160211105"><ele>332.0</ele><time>2026-05-02T13:51:59Z</time></trkpt><trkpt lat="43.07890099221881" lon="11.569946579011354"><ele>332.0</ele><time>2026-05-02T13:51:59.999Z</time></trkpt><trkpt lat="43.07904855728198" lon="11.56997992650115"><ele>332.0</ele><time>2026-05-02T13:52:00.999Z</time></trkpt><trkpt lat="43.07920325751799" lon="11.570019629227666"><ele>332.0</ele><time>2026-05-02T13:52:01.999Z</time></trkpt><trkpt lat="43.07934974693293" lon="11.570057980359607"><ele>331.75</ele><time>2026-05-02T13:52:02.999Z</time></trkpt><trkpt lat="43.07947998081435" lon="11.570095872355287"><ele>331.5</ele><time>2026-05-02T13:52:03.999Z</time></trkpt><trkpt lat="43.0795964069751" lon="11.570129746959992"><ele>331.25</ele><time>2026-05-02T13:52:04.999Z</time></trkpt><trkpt lat="43.079706633396505" lon="11.570160859736674"><ele>331.0</ele><time>2026-05-02T13:52:05.999Z</time></trkpt><trkpt lat="43.07981176525451" lon="11.57018950395904"><ele>331.0</ele><time>2026-05-02T13:52:06.999Z</time></trkpt><trkpt lat="43.079909841101454" lon="11.570216225762119"><ele>331.0</ele><time>2026-05-02T13:52:07.999Z</time></trkpt><trkpt lat="43.080004326839315" lon="11.570221307416427"><ele>331.0</ele><time>2026-05-02T13:52:08.999Z</time></trkpt><trkpt lat="43.080089229673604" lon="11.570245821847932"><ele>331.0</ele><time>2026-05-02T13:52:09.999Z</time></trkpt><trkpt lat="43.08016621016244" lon="11.57028714576125"><ele>331.0</ele><time>2026-05-02T13:52:10.999Z</time></trkpt><trkpt lat="43.08023584854375" lon="11.570306843795683"><ele>331.0</ele><time>2026-05-02T13:52:11.999Z</time></trkpt><trkpt lat="43.08034301577988" lon="11.570333429918614"><ele>333.20000000000005</ele><time>2026-05-02T13:52:13.999Z</time></trkpt><trkpt lat="43.08037792648732" lon="11.57041601629478"><ele>335.40000000000003</ele><time>2026-05-02T13:52:16.999Z</time></trkpt><trkpt lat="43.080289684308475" lon="11.570411391464559"><ele>337.6</ele><time>2026-05-02T13:52:18.999Z</time></trkpt><trkpt lat="43.080198657746685" lon="11.570436405106665"><ele>339.8</ele><time>2026-05-02T13:52:20.999Z</time></trkpt><trkpt lat="43.08009074673532" lon="11.570476882461508"><ele>342.0</ele><time>2026-05-02T13:52:46.999Z</time></trkpt><trkpt lat="43.079996898134986" lon="11.570505845535914"><ele>341.40000000000003</ele><time>2026-05-02T13:52:47.999Z</time></trkpt><trkpt lat="43.0799012306984" lon="11.570530612399958"><ele>340.8</ele><time>2026-05-02T13:52:48.999Z</time></trkpt><trkpt lat="43.07981965183952" lon="11.570557645593652"><ele>340.2</ele><time>2026-05-02T13:52:49.999Z</time></trkpt><trkpt lat="43.079747992945066" lon="11.5705795126773"><ele>339.6</ele><time>2026-05-02T13:52:50.999Z</time></trkpt><trkpt lat="43.07966783249812" lon="11.570685855099764"><ele>339.0</ele><time>2026-05-02T13:52:52.999Z</time></trkpt><trkpt lat="43.079702901980056" lon="11.570821275459908"><ele>339.0</ele><time>2026-05-02T13:52:54.999Z</time></trkpt><trkpt lat="43.079789705884764" lon="11.570866223592493"><ele>339.0</ele><time>2026-05-02T13:52:55.999Z</time></trkpt><trkpt lat="43.07990185797578" lon="11.57083676114028"><ele>339.0</ele><time>2026-05-02T13:52:56.999Z</time></trkpt><trkpt lat="43.08000963146508" lon="11.570884065751576"><ele>339.0</ele><time>2026-05-02T13:52:58Z</time></trkpt><trkpt lat="43.080119359382635" lon="11.570925731979253"><ele>339.0</ele><time>2026-05-02T13:52:59Z</time></trkpt><trkpt lat="43.08022224764958" lon="11.570979407424144"><ele>338.6</ele><time>2026-05-02T13:53:00Z</time></trkpt><trkpt lat="43.08033350658866" lon="11.571031421290245"><ele>338.2</ele><time>2026-05-02T13:53:01Z</time></trkpt><trkpt lat="43.08043511688412" lon="11.571099866772617"><ele>337.8</ele><time>2026-05-02T13:53:02Z</time></trkpt><trkpt lat="43.08053243148565" lon="11.571171684745986"><ele>337.40000000000003</ele><time>2026-05-02T13:53:03Z</time></trkpt><trkpt lat="43.080627523255906" lon="11.571236317203793"><ele>337.0</ele><time>2026-05-02T13:53:04Z</time></trkpt><trkpt lat="43.08072638308963" lon="11.571301106273802"><ele>339.0</ele><time>2026-05-02T13:53:05Z</time></trkpt><trkpt lat="43.080824098116075" lon="11.571369705299606"><ele>341.0</ele><time>2026-05-02T13:53:06Z</time></trkpt><trkpt lat="43.080923536526406" lon="11.571446017509672"><ele>343.0</ele><time>2026-05-02T13:53:07Z</time></trkpt><trkpt lat="43.0810221276908" lon="11.571524363454172"><ele>345.0</ele><time>2026-05-02T13:53:08Z</time></trkpt><trkpt lat="43.081122187381546" lon="11.571606240742986"><ele>345.0</ele><time>2026-05-02T13:53:09Z</time></trkpt><trkpt lat="43.08122661177674" lon="11.571690936086792"><ele>345.0</ele><time>2026-05-02T13:53:10Z</time></trkpt><trkpt lat="43.08132571055073" lon="11.57177729824091"><ele>345.0</ele><time>2026-05-02T13:53:11Z</time></trkpt><trkpt lat="43.08141959313652" lon="11.5718592412314"><ele>345.0</ele><time>2026-05-02T13:53:12Z</time></trkpt><trkpt lat="43.08151472530697" lon="11.571924730693647"><ele>345.8</ele><time>2026-05-02T13:53:13Z</time></trkpt><trkpt lat="43.08161043565411" lon="11.571989789805876"><ele>346.6</ele><time>2026-05-02T13:53:14Z</time></trkpt><trkpt lat="43.08169685096192" lon="11.572074766014326"><ele>347.4</ele><time>2026-05-02T13:53:15Z</time></trkpt><trkpt lat="43.081761681885" lon="11.57220169241255"><ele>348.2</ele><time>2026-05-02T13:53:16Z</time></trkpt><trkpt lat="43.08182732380703" lon="11.572332900710308"><ele>349.0</ele><time>2026-05-02T13:53:17Z</time></trkpt><trkpt lat="43.08190834946134" lon="11.572472153054429"><ele>349.0</ele><time>2026-05-02T13:53:18Z</time></trkpt><trkpt lat="43.08198326521618" lon="11.572640117391758"><ele>349.0</ele><time>2026-05-02T13:53:19Z</time></trkpt><trkpt lat="43.08205725398246" lon="11.572815029115656"><ele>349.0</ele><time>2026-05-02T13:53:20Z</time></trkpt><trkpt lat="43.08213093979297" lon="11.572986230178469"><ele>349.0</ele><time>2026-05-02T13:53:21Z</time></trkpt><trkpt lat="43.08220718622249" lon="11.573159855738858"><ele>345.3333333333333</ele><time>2026-05-02T13:53:22Z</time></trkpt><trkpt lat="43.082284210224124" lon="11.573337681044375"><ele>341.6666666666667</ele><time>2026-05-02T13:53:23Z</time></trkpt><trkpt lat="43.08235731115464" lon="11.57351567613596"><ele>338.0</ele><time>2026-05-02T13:53:24Z</time></trkpt><trkpt lat="43.08243071045056" lon="11.573699178797632"><ele>342.6666666666667</ele><time>2026-05-02T13:53:25Z</time></trkpt><trkpt lat="43.0825053095793" lon="11.573882232212055"><ele>347.3333333333333</ele><time>2026-05-02T13:53:26Z</time></trkpt><trkpt lat="43.082583552352524" lon="11.574070356754836"><ele>352.0</ele><time>2026-05-02T13:53:27Z</time></trkpt><trkpt lat="43.08266348048544" lon="11.57425960944397"><ele>352.0</ele><time>2026-05-02T13:53:28Z</time></trkpt><trkpt lat="43.08274477178454" lon="11.574449101232334"><ele>352.0</ele><time>2026-05-02T13:53:29Z</time></trkpt><trkpt lat="43.08282504029278" lon="11.574638957521943"><ele>352.0</ele><time>2026-05-02T13:53:30Z</time></trkpt><trkpt lat="43.08290047617417" lon="11.574828691614991"><ele>350.3333333333333</ele><time>2026-05-02T13:53:31Z</time></trkpt><trkpt lat="43.082973891547525" lon="11.575012849776613"><ele>348.6666666666667</ele><time>2026-05-02T13:53:32Z</time></trkpt><trkpt lat="43.08305000863759" lon="11.575192601663918"><ele>347.0</ele><time>2026-05-02T13:53:33Z</time></trkpt><trkpt lat="43.08312417768307" lon="11.575370273149554"><ele>348.75</ele><time>2026-05-02T13:53:34Z</time></trkpt><trkpt lat="43.083200037290666" lon="11.575543557960238"><ele>350.5</ele><time>2026-05-02T13:53:35Z</time></trkpt><trkpt lat="43.08328013209844" lon="11.575716429793273"><ele>352.25</ele><time>2026-05-02T13:53:36Z</time></trkpt><trkpt lat="43.08336108992391" lon="11.575891362352303"><ele>354.0</ele><time>2026-05-02T13:53:37Z</time></trkpt><trkpt lat="43.08344323086655" lon="11.576075393530228"><ele>352.6666666666667</ele><time>2026-05-02T13:53:38Z</time></trkpt><trkpt lat="43.0835082663539" lon="11.576275865681225"><ele>351.33333333333337</ele><time>2026-05-02T13:53:39Z</time></trkpt><trkpt lat="43.08358489494794" lon="11.576472141537888"><ele>350.0</ele><time>2026-05-02T13:53:40Z</time></trkpt><trkpt lat="43.083666455344925" lon="11.576667568971148"><ele>350.0</ele><time>2026-05-02T13:53:41Z</time></trkpt><trkpt lat="43.08370687764337" lon="11.576887458202856"><ele>350.0</ele><time>2026-05-02T13:53:42Z</time></trkpt><trkpt lat="43.08375859448414" lon="11.577099845097"><ele>350.0</ele><time>2026-05-02T13:53:43Z</time></trkpt><trkpt lat="43.083821670444394" lon="11.577306066219569"><ele>350.0</ele><time>2026-05-02T13:53:44Z</time></trkpt><trkpt lat="43.08386522714252" lon="11.577516427280795"><ele>350.0</ele><time>2026-05-02T13:53:45Z</time></trkpt><trkpt lat="43.0839123813472" lon="11.577725948541508"><ele>350.0</ele><time>2026-05-02T13:53:46Z</time></trkpt><trkpt lat="43.083958785206846" lon="11.577935807267083"><ele>350.0</ele><time>2026-05-02T13:53:47Z</time></trkpt><trkpt lat="43.08400247511022" lon="11.578139107522397"><ele>350.0</ele><time>2026-05-02T13:53:48Z</time></trkpt><trkpt lat="43.08404717899446" lon="11.578344227836338"><ele>350.0</ele><time>2026-05-02T13:53:49Z</time></trkpt><trkpt lat="43.08409151112266" lon="11.57854829276181"><ele>354.0</ele><time>2026-05-02T13:53:50Z</time></trkpt><trkpt lat="43.084135226010446" lon="11.578748421904026"><ele>358.0</ele><time>2026-05-02T13:53:51Z</time></trkpt><trkpt lat="43.08418583624815" lon="11.578943331259222"><ele>362.0</ele><time>2026-05-02T13:53:52Z</time></trkpt><trkpt lat="43.084251282457146" lon="11.579127860065844"><ele>362.0</ele><time>2026-05-02T13:53:53Z</time></trkpt><trkpt lat="43.08433938179232" lon="11.57929544356529"><ele>362.0</ele><time>2026-05-02T13:53:54Z</time></trkpt><trkpt lat="43.08443848756922" lon="11.579458873500187"><ele>362.0</ele><time>2026-05-02T13:53:55Z</time></trkpt><trkpt lat="43.084537873907685" lon="11.579622060712643"><ele>364.6666666666667</ele><time>2026-05-02T13:53:56Z</time></trkpt><trkpt lat="43.084632852630534" lon="11.579796307740184"><ele>367.3333333333333</ele><time>2026-05-02T13:53:57Z</time></trkpt><trkpt lat="43.08472101305127" lon="11.579968154722451"><ele>370.0</ele><time>2026-05-02T13:53:58Z</time></trkpt><trkpt lat="43.084805014572794" lon="11.580120766657412"><ele>370.0</ele><time>2026-05-02T13:53:58.999Z</time></trkpt><trkpt lat="43.08487551805487" lon="11.58025005820851"><ele>370.0</ele><time>2026-05-02T13:53:59.999Z</time></trkpt><trkpt lat="43.084911970725464" lon="11.580392644330942"><ele>370.0</ele><time>2026-05-02T13:54:00.999Z</time></trkpt><trkpt lat="43.084968892554365" lon="11.580528054466237"><ele>370.0</ele><time>2026-05-02T13:54:01.999Z</time></trkpt><trkpt lat="43.08500812583972" lon="11.580688810003565"><ele>370.25</ele><time>2026-05-02T13:54:02.999Z</time></trkpt><trkpt lat="43.08505540324172" lon="11.580856443778242"><ele>370.5</ele><time>2026-05-02T13:54:03.999Z</time></trkpt><trkpt lat="43.08510728904873" lon="11.581031435686132"><ele>370.75</ele><time>2026-05-02T13:54:04.999Z</time></trkpt><trkpt lat="43.08514070726129" lon="11.581221479508267"><ele>371.0</ele><time>2026-05-02T13:54:05.999Z</time></trkpt><trkpt lat="43.08518604815318" lon="11.581379048356535"><ele>371.0</ele><time>2026-05-02T13:54:06.999Z</time></trkpt><trkpt lat="43.085245435706504" lon="11.581515872494066"><ele>371.0</ele><time>2026-05-02T13:54:07.999Z</time></trkpt><trkpt lat="43.08529937575173" lon="11.581647686917279"><ele>371.0</ele><time>2026-05-02T13:54:08.999Z</time></trkpt><trkpt lat="43.085364478849456" lon="11.581777059517645"><ele>371.0</ele><time>2026-05-02T13:54:09.999Z</time></trkpt><trkpt lat="43.085441034132906" lon="11.5818995986447"><ele>367.0</ele><time>2026-05-02T13:54:10.999Z</time></trkpt><trkpt lat="43.08552246272903" lon="11.582018630313739"><ele>363.0</ele><time>2026-05-02T13:54:11.999Z</time></trkpt><trkpt lat="43.085603159505276" lon="11.582133548695191"><ele>359.0</ele><time>2026-05-02T13:54:12.999Z</time></trkpt><trkpt lat="43.08568195198559" lon="11.582246221484208"><ele>355.0</ele><time>2026-05-02T13:54:13.999Z</time></trkpt><trkpt lat="43.08575041691577" lon="11.582364298143093"><ele>355.3333333333333</ele><time>2026-05-02T13:54:14.999Z</time></trkpt><trkpt lat="43.08578219280488" lon="11.582497132649864"><ele>355.66666666666663</ele><time>2026-05-02T13:54:15.999Z</time></trkpt><trkpt lat="43.08584213868619" lon="11.582572110716137"><ele>356.0</ele><time>2026-05-02T13:54:16.999Z</time></trkpt><trkpt lat="43.08589378495388" lon="11.582642469137596"><ele>356.3333333333333</ele><time>2026-05-02T13:54:17.999Z</time></trkpt><trkpt lat="43.08596478451792" lon="11.582688332687503"><ele>356.6666666666667</ele><time>2026-05-02T13:54:18.999Z</time></trkpt><trkpt lat="43.08603688861622" lon="11.582773812871377"><ele>357.0</ele><time>2026-05-02T13:54:19.999Z</time></trkpt><trkpt lat="43.08612456187027" lon="11.582856728840813"><ele>357.0</ele><time>2026-05-02T13:54:20.999Z</time></trkpt><trkpt lat="43.086223482827414" lon="11.582924682252798"><ele>357.0</ele><time>2026-05-02T13:54:21.999Z</time></trkpt><trkpt lat="43.08630934681957" lon="11.583015447102948"><ele>357.0</ele><time>2026-05-02T13:54:22.999Z</time></trkpt><trkpt lat="43.08639370358621" lon="11.583098046532978"><ele>357.0</ele><time>2026-05-02T13:54:23.999Z</time></trkpt><trkpt lat="43.08647616216578" lon="11.583182361615062"><ele>357.0</ele><time>2026-05-02T13:54:24.999Z</time></trkpt><trkpt lat="43.08656068748652" lon="11.583269697595016"><ele>360.0</ele><time>2026-05-02T13:54:25.999Z</time></trkpt><trkpt lat="43.086655224950825" lon="11.583352452930505"><ele>363.0</ele><time>2026-05-02T13:54:26.999Z</time></trkpt><trkpt lat="43.08676202357816" lon="11.583440837828034"><ele>366.0</ele><time>2026-05-02T13:54:27.999Z</time></trkpt><trkpt lat="43.08687905431155" lon="11.583528049109235"><ele>369.0</ele><time>2026-05-02T13:54:28.999Z</time></trkpt><trkpt lat="43.08699677873632" lon="11.583610253739097"><ele>364.0</ele><time>2026-05-02T13:54:29.999Z</time></trkpt><trkpt lat="43.08710322828059" lon="11.583697895347477"><ele>359.0</ele><time>2026-05-02T13:54:30.999Z</time></trkpt><trkpt lat="43.08720814820445" lon="11.58378356928963"><ele>354.0</ele><time>2026-05-02T13:54:31.999Z</time></trkpt><trkpt lat="43.08731292141999" lon="11.583865834422722"><ele>349.0</ele><time>2026-05-02T13:54:32.999Z</time></trkpt><trkpt lat="43.08742460165093" lon="11.583951232048037"><ele>350.5</ele><time>2026-05-02T13:54:33.999Z</time></trkpt><trkpt lat="43.08754342143382" lon="11.584047552039998"><ele>352.0</ele><time>2026-05-02T13:54:34.999Z</time></trkpt><trkpt lat="43.08765642765456" lon="11.584142755799972"><ele>353.5</ele><time>2026-05-02T13:54:35.999Z</time></trkpt><trkpt lat="43.08777467028422" lon="11.584240433038715"><ele>355.0</ele><time>2026-05-02T13:54:36.999Z</time></trkpt><trkpt lat="43.08788790677598" lon="11.584340934526029"><ele>355.0</ele><time>2026-05-02T13:54:37.999Z</time></trkpt><trkpt lat="43.088004580080174" lon="11.584439507188437"><ele>355.0</ele><time>2026-05-02T13:54:38.999Z</time></trkpt><trkpt lat="43.08811988673963" lon="11.584524898067965"><ele>355.0</ele><time>2026-05-02T13:54:39.999Z</time></trkpt><trkpt lat="43.08822690612669" lon="11.584598565958274"><ele>355.0</ele><time>2026-05-02T13:54:40.999Z</time></trkpt><trkpt lat="43.08832701644148" lon="11.584661043221423"><ele>356.25</ele><time>2026-05-02T13:54:41.999Z</time></trkpt><trkpt lat="43.08842808955907" lon="11.584734208307928"><ele>357.5</ele><time>2026-05-02T13:54:42.999Z</time></trkpt><trkpt lat="43.08852840902221" lon="11.584801741562242"><ele>358.75</ele><time>2026-05-02T13:54:43.999Z</time></trkpt><trkpt lat="43.08863878772327" lon="11.58485924934708"><ele>360.0</ele><time>2026-05-02T13:54:44.999Z</time></trkpt><trkpt lat="43.08876156482154" lon="11.58496229826723"><ele>360.0</ele><time>2026-05-02T13:54:45.999Z</time></trkpt><trkpt lat="43.08891381356441" lon="11.585088192689533"><ele>360.0</ele><time>2026-05-02T13:54:46.999Z</time></trkpt><trkpt lat="43.089060500359" lon="11.585216348379982"><ele>360.0</ele><time>2026-05-02T13:54:47.999Z</time></trkpt><trkpt lat="43.08919297809315" lon="11.58533570505682"><ele>362.5</ele><time>2026-05-02T13:54:48.999Z</time></trkpt><trkpt lat="43.08930741218467" lon="11.58543550822938"><ele>365.0</ele><time>2026-05-02T13:54:49.999Z</time></trkpt><trkpt lat="43.08940877486568" lon="11.585526917089316"><ele>367.5</ele><time>2026-05-02T13:54:50.999Z</time></trkpt><trkpt lat="43.0895196996446" lon="11.585614103386973"><ele>370.0</ele><time>2026-05-02T13:54:51.999Z</time></trkpt><trkpt lat="43.08963563628068" lon="11.585711931832266"><ele>370.0</ele><time>2026-05-02T13:54:52.999Z</time></trkpt><trkpt lat="43.08974679036463" lon="11.585806429733216"><ele>370.0</ele><time>2026-05-02T13:54:53.999Z</time></trkpt><trkpt lat="43.089857126459606" lon="11.58590324088823"><ele>370.0</ele><time>2026-05-02T13:54:54.999Z</time></trkpt><trkpt lat="43.0899664988942" lon="11.585998529308275"><ele>370.0</ele><time>2026-05-02T13:54:55.999Z</time></trkpt><trkpt lat="43.09006720291819" lon="11.5860978127123"><ele>372.0</ele><time>2026-05-02T13:54:56.999Z</time></trkpt><trkpt lat="43.09015092122547" lon="11.586201665037843"><ele>374.0</ele><time>2026-05-02T13:54:57.999Z</time></trkpt><trkpt lat="43.09022578405626" lon="11.58632701491437"><ele>376.0</ele><time>2026-05-02T13:54:58.999Z</time></trkpt><trkpt lat="43.09029997283075" lon="11.586469547685871"><ele>378.0</ele><time>2026-05-02T13:54:59.999Z</time></trkpt><trkpt lat="43.090378396236915" lon="11.58662673171089"><ele>378.0</ele><time>2026-05-02T13:55:00.999Z</time></trkpt><trkpt lat="43.09045523616451" lon="11.586784078928293"><ele>378.0</ele><time>2026-05-02T13:55:01.999Z</time></trkpt><trkpt lat="43.09053785850157" lon="11.58693910815723"><ele>378.0</ele><time>2026-05-02T13:55:02.999Z</time></trkpt><trkpt lat="43.09061531043825" lon="11.587088235510814"><ele>378.0</ele><time>2026-05-02T13:55:04Z</time></trkpt><trkpt lat="43.090685265462774" lon="11.587240304333687"><ele>379.5</ele><time>2026-05-02T13:55:05Z</time></trkpt><trkpt lat="43.09074759371287" lon="11.587393742349409"><ele>381.0</ele><time>2026-05-02T13:55:06Z</time></trkpt><trkpt lat="43.090820715954926" lon="11.587532737375426"><ele>382.5</ele><time>2026-05-02T13:55:07Z</time></trkpt><trkpt lat="43.09090305214469" lon="11.5876382092847"><ele>384.0</ele><time>2026-05-02T13:55:08Z</time></trkpt><trkpt lat="43.09097527570681" lon="11.587734607686356"><ele>381.2</ele><time>2026-05-02T13:55:09Z</time></trkpt><trkpt lat="43.091054152962634" lon="11.587801739867606"><ele>378.4</ele><time>2026-05-02T13:55:10Z</time></trkpt><trkpt lat="43.09114621244304" lon="11.587846553879174"><ele>375.6</ele><time>2026-05-02T13:55:11Z</time></trkpt><trkpt lat="43.091240382405175" lon="11.587923015075013"><ele>372.8</ele><time>2026-05-02T13:55:12Z</time></trkpt><trkpt lat="43.09134770252097" lon="11.587984130110717"><ele>370.0</ele><time>2026-05-02T13:55:13Z</time></trkpt><trkpt lat="43.091459657121256" lon="11.588047884530823"><ele>370.0</ele><time>2026-05-02T13:55:14Z</time></trkpt><trkpt lat="43.091577209197844" lon="11.5880993444329"><ele>370.0</ele><time>2026-05-02T13:55:15Z</time></trkpt><trkpt lat="43.091689183954" lon="11.588180981574697"><ele>370.0</ele><time>2026-05-02T13:55:16Z</time></trkpt><trkpt lat="43.09179904196977" lon="11.588258734127741"><ele>370.0</ele><time>2026-05-02T13:55:17Z</time></trkpt><trkpt lat="43.09191027293966" lon="11.58833103981244"><ele>369.0</ele><time>2026-05-02T13:55:18Z</time></trkpt><trkpt lat="43.09202183592234" lon="11.588401923117528"><ele>368.0</ele><time>2026-05-02T13:55:19Z</time></trkpt><trkpt lat="43.09213170936806" lon="11.588471593156042"><ele>367.0</ele><time>2026-05-02T13:55:20Z</time></trkpt><trkpt lat="43.092237407712666" lon="11.588531613361614"><ele>366.0</ele><time>2026-05-02T13:55:21Z</time></trkpt><trkpt lat="43.09233748775954" lon="11.588589486621858"><ele>364.6</ele><time>2026-05-02T13:55:22Z</time></trkpt><trkpt lat="43.092433565556945" lon="11.588641998674593"><ele>363.20000000000005</ele><time>2026-05-02T13:55:23Z</time></trkpt><trkpt lat="43.09252744524235" lon="11.588706189936918"><ele>361.79999999999995</ele><time>2026-05-02T13:55:24Z</time></trkpt><trkpt lat="43.092610936720185" lon="11.588791454539278"><ele>360.4</ele><time>2026-05-02T13:55:25Z</time></trkpt><trkpt lat="43.09270736042477" lon="11.58885194657734"><ele>359.0</ele><time>2026-05-02T13:55:26Z</time></trkpt><trkpt lat="43.092790327069174" lon="11.588941378354178"><ele>358.79999999999995</ele><time>2026-05-02T13:55:27Z</time></trkpt><trkpt lat="43.09286976288755" lon="11.589031528812582"><ele>358.59999999999997</ele><time>2026-05-02T13:55:28Z</time></trkpt><trkpt lat="43.09293514968971" lon="11.58913960139456"><ele>358.4</ele><time>2026-05-02T13:55:29Z</time></trkpt><trkpt lat="43.09300763642505" lon="11.589236234340483"><ele>358.2</ele><time>2026-05-02T13:55:30Z</time></trkpt><trkpt lat="43.09307540701571" lon="11.58934089674928"><ele>358.0</ele><time>2026-05-02T13:55:31Z</time></trkpt><trkpt lat="43.09314265971308" lon="11.589461279276902"><ele>355.75</ele><time>2026-05-02T13:55:32Z</time></trkpt><trkpt lat="43.0932201075022" lon="11.58957537307086"><ele>353.5</ele><time>2026-05-02T13:55:33Z</time></trkpt><trkpt lat="43.093277914799216" lon="11.589709479472072"><ele>351.25</ele><time>2026-05-02T13:55:34Z</time></trkpt><trkpt lat="43.0933339993013" lon="11.58985029370894"><ele>349.0</ele><time>2026-05-02T13:55:35Z</time></trkpt><trkpt lat="43.09339433147196" lon="11.589989258123811"><ele>348.75</ele><time>2026-05-02T13:55:35.999Z</time></trkpt><trkpt lat="43.093460981884704" lon="11.590126288763987"><ele>348.5</ele><time>2026-05-02T13:55:36.999Z</time></trkpt><trkpt lat="43.09353731383145" lon="11.590255374651845"><ele>348.25</ele><time>2026-05-02T13:55:37.999Z</time></trkpt><trkpt lat="43.093622804168724" lon="11.590366819430557"><ele>348.0</ele><time>2026-05-02T13:55:38.999Z</time></trkpt><trkpt lat="43.0937253757751" lon="11.59046689372055"><ele>348.75</ele><time>2026-05-02T13:55:39.999Z</time></trkpt><trkpt lat="43.093835542598185" lon="11.590563431567674"><ele>349.5</ele><time>2026-05-02T13:55:40.999Z</time></trkpt><trkpt lat="43.09394596734455" lon="11.590664837598535"><ele>350.25</ele><time>2026-05-02T13:55:41.999Z</time></trkpt><trkpt lat="43.09405286106153" lon="11.590766739567414"><ele>351.0</ele><time>2026-05-02T13:55:42.999Z</time></trkpt><trkpt lat="43.094157139026514" lon="11.590865033030685"><ele>351.0</ele><time>2026-05-02T13:55:43.999Z</time></trkpt><trkpt lat="43.09426048853744" lon="11.590963187680542"><ele>351.0</ele><time>2026-05-02T13:55:44.999Z</time></trkpt><trkpt lat="43.09435274310718" lon="11.591071232851816"><ele>351.0</ele><time>2026-05-02T13:55:45.999Z</time></trkpt><trkpt lat="43.09440496218663" lon="11.591214435987713"><ele>351.0</ele><time>2026-05-02T13:55:46.999Z</time></trkpt><trkpt lat="43.09444894772327" lon="11.59136291172914"><ele>347.5</ele><time>2026-05-02T13:55:47.999Z</time></trkpt><trkpt lat="43.09450512605471" lon="11.591516517333618"><ele>344.0</ele><time>2026-05-02T13:55:48.999Z</time></trkpt><trkpt lat="43.094549317867354" lon="11.591678178379858"><ele>340.5</ele><time>2026-05-02T13:55:49.999Z</time></trkpt><trkpt lat="43.094606797493796" lon="11.591835849241798"><ele>337.0</ele><time>2026-05-02T13:55:50.999Z</time></trkpt><trkpt lat="43.09467199849983" lon="11.591988172318468"><ele>335.5</ele><time>2026-05-02T13:55:51.999Z</time></trkpt><trkpt lat="43.09473815825009" lon="11.592135341467422"><ele>334.0</ele><time>2026-05-02T13:55:52.999Z</time></trkpt><trkpt lat="43.09479883464674" lon="11.59228565204846"><ele>332.5</ele><time>2026-05-02T13:55:53.999Z</time></trkpt><trkpt lat="43.094859796185744" lon="11.592440700612755"><ele>331.0</ele><time>2026-05-02T13:55:54.999Z</time></trkpt><trkpt lat="43.09492490926603" lon="11.592596933483332"><ele>334.0</ele><time>2026-05-02T13:55:55.999Z</time></trkpt><trkpt lat="43.09499302334937" lon="11.592753001161551"><ele>337.0</ele><time>2026-05-02T13:55:56.999Z</time></trkpt><trkpt lat="43.0950638935599" lon="11.59291329453858"><ele>340.0</ele><time>2026-05-02T13:55:57.999Z</time></trkpt><trkpt lat="43.0951315111806" lon="11.59306529538437"><ele>343.0</ele><time>2026-05-02T13:55:58.999Z</time></trkpt><trkpt lat="43.09519419198619" lon="11.59321651344303"><ele>343.0</ele><time>2026-05-02T13:55:59.999Z</time></trkpt><trkpt lat="43.09525809396625" lon="11.593369655240991"><ele>343.0</ele><time>2026-05-02T13:56:00.999Z</time></trkpt><trkpt lat="43.09531796926952" lon="11.593522334286602"><ele>343.0</ele><time>2026-05-02T13:56:01.999Z</time></trkpt><trkpt lat="43.09537933131639" lon="11.593675119326837"><ele>343.0</ele><time>2026-05-02T13:56:02.999Z</time></trkpt><trkpt lat="43.09544225385117" lon="11.593832618570925"><ele>340.75</ele><time>2026-05-02T13:56:03.999Z</time></trkpt><trkpt lat="43.09550428426384" lon="11.59398674136308"><ele>338.5</ele><time>2026-05-02T13:56:04.999Z</time></trkpt><trkpt lat="43.09556616091846" lon="11.594132188125636"><ele>336.25</ele><time>2026-05-02T13:56:05.999Z</time></trkpt><trkpt lat="43.095624474731956" lon="11.594270674335185"><ele>334.0</ele><time>2026-05-02T13:56:06.999Z</time></trkpt><trkpt lat="43.095678182555766" lon="11.594403351666047"><ele>332.6</ele><time>2026-05-02T13:56:07.999Z</time></trkpt><trkpt lat="43.09573222737559" lon="11.594539050107365"><ele>331.2</ele><time>2026-05-02T13:56:08.999Z</time></trkpt><trkpt lat="43.095790505039716" lon="11.594663674167991"><ele>329.8</ele><time>2026-05-02T13:56:09.999Z</time></trkpt><trkpt lat="43.09586021565558" lon="11.594776868284553"><ele>328.40000000000003</ele><time>2026-05-02T13:56:10.999Z</time></trkpt><trkpt lat="43.09593819669168" lon="11.594868485600133"><ele>327.0</ele><time>2026-05-02T13:56:11.999Z</time></trkpt><trkpt lat="43.09602692749077" lon="11.594938646554889"><ele>330.8</ele><time>2026-05-02T13:56:12.999Z</time></trkpt><trkpt lat="43.09612227524565" lon="11.59499408085134"><ele>334.6</ele><time>2026-05-02T13:56:13.999Z</time></trkpt><trkpt lat="43.096209564542974" lon="11.595061051201535"><ele>338.40000000000003</ele><time>2026-05-02T13:56:14.999Z</time></trkpt><trkpt lat="43.09628456973455" lon="11.595153753025693"><ele>342.20000000000005</ele><time>2026-05-02T13:56:15.999Z</time></trkpt><trkpt lat="43.096347143457265" lon="11.595269469110555"><ele>346.0</ele><time>2026-05-02T13:56:16.999Z</time></trkpt><trkpt lat="43.09640129787191" lon="11.595396840147211"><ele>346.0</ele><time>2026-05-02T13:56:17.999Z</time></trkpt><trkpt lat="43.09644340416637" lon="11.595529697792124"><ele>346.0</ele><time>2026-05-02T13:56:18.999Z</time></trkpt><trkpt lat="43.09648209201768" lon="11.595654316330396"><ele>346.0</ele><time>2026-05-02T13:56:19.999Z</time></trkpt><trkpt lat="43.096519581109085" lon="11.595758307921194"><ele>346.0</ele><time>2026-05-02T13:56:20.999Z</time></trkpt><trkpt lat="43.096540966080966" lon="11.595872568603864"><ele>346.0</ele><time>2026-05-02T13:56:21.999Z</time></trkpt><trkpt lat="43.09658070365765" lon="11.595980701987845"><ele>347.8</ele><time>2026-05-02T13:56:22.999Z</time></trkpt><trkpt lat="43.096612285415446" lon="11.596106610289583"><ele>349.6</ele><time>2026-05-02T13:56:23.999Z</time></trkpt><trkpt lat="43.09664162971461" lon="11.596241263632773"><ele>351.4</ele><time>2026-05-02T13:56:24.999Z</time></trkpt><trkpt lat="43.09667625244825" lon="11.596378837103769"><ele>353.2</ele><time>2026-05-02T13:56:25.999Z</time></trkpt><trkpt lat="43.09670569187895" lon="11.596520369739446"><ele>355.0</ele><time>2026-05-02T13:56:26.999Z</time></trkpt><trkpt lat="43.096739987981834" lon="11.596653016944611"><ele>355.3333333333333</ele><time>2026-05-02T13:56:27.999Z</time></trkpt><trkpt lat="43.096767550548" lon="11.596785451094398"><ele>355.66666666666663</ele><time>2026-05-02T13:56:28.999Z</time></trkpt><trkpt lat="43.09679870855199" lon="11.596908882645423"><ele>356.0</ele><time>2026-05-02T13:56:29.999Z</time></trkpt><trkpt lat="43.096828724114495" lon="11.597025310626643"><ele>356.3333333333333</ele><time>2026-05-02T13:56:30.999Z</time></trkpt><trkpt lat="43.09686757838566" lon="11.597123954740011"><ele>356.6666666666667</ele><time>2026-05-02T13:56:31.999Z</time></trkpt><trkpt lat="43.09691365166855" lon="11.597203776576768"><ele>357.0</ele><time>2026-05-02T13:56:32.999Z</time></trkpt><trkpt lat="43.09697651343599" lon="11.597253053970045"><ele>358.0</ele><time>2026-05-02T13:56:33.999Z</time></trkpt><trkpt lat="43.09704741242916" lon="11.597284369507411"><ele>359.0</ele><time>2026-05-02T13:56:34.999Z</time></trkpt><trkpt lat="43.09713413495963" lon="11.597324234632334"><ele>360.0</ele><time>2026-05-02T13:56:35.999Z</time></trkpt><trkpt lat="43.097216256308464" lon="11.597389534383545"><ele>361.0</ele><time>2026-05-02T13:56:36.999Z</time></trkpt><trkpt lat="43.09728603056273" lon="11.597468636481317"><ele>362.0</ele><time>2026-05-02T13:56:37.999Z</time></trkpt><trkpt lat="43.09735168356772" lon="11.597555161458327"><ele>363.0</ele><time>2026-05-02T13:56:38.999Z</time></trkpt><trkpt lat="43.097417441060806" lon="11.597645690374534"><ele>362.2</ele><time>2026-05-02T13:56:39.999Z</time></trkpt><trkpt lat="43.09748512805695" lon="11.597743320082946"><ele>361.4</ele><time>2026-05-02T13:56:40.999Z</time></trkpt><trkpt lat="43.09755237434666" lon="11.59783862170689"><ele>360.59999999999997</ele><time>2026-05-02T13:56:41.999Z</time></trkpt><trkpt lat="43.097616696753875" lon="11.597932770724743"><ele>359.79999999999995</ele><time>2026-05-02T13:56:42.999Z</time></trkpt><trkpt lat="43.09767554095191" lon="11.598027400038177"><ele>359.0</ele><time>2026-05-02T13:56:43.999Z</time></trkpt><trkpt lat="43.097730707884466" lon="11.59811827240925"><ele>360.6666666666667</ele><time>2026-05-02T13:56:44.999Z</time></trkpt><trkpt lat="43.097793413951706" lon="11.598214028861564"><ele>362.33333333333337</ele><time>2026-05-02T13:56:45.999Z</time></trkpt><trkpt lat="43.09785458688946" lon="11.598315232813642"><ele>364.0</ele><time>2026-05-02T13:56:46.999Z</time></trkpt><trkpt lat="43.09791085673617" lon="11.598410302645208"><ele>365.6666666666667</ele><time>2026-05-02T13:56:47.999Z</time></trkpt><trkpt lat="43.09796200923136" lon="11.598492308830833"><ele>367.3333333333333</ele><time>2026-05-02T13:56:48.999Z</time></trkpt><trkpt lat="43.098010783198724" lon="11.598553616335053"><ele>369.0</ele><time>2026-05-02T13:56:49.999Z</time></trkpt><trkpt lat="43.09813459766994" lon="11.59860070012853"><ele>369.0</ele><time>2026-05-02T13:56:51.999Z</time></trkpt><trkpt lat="43.09821955014594" lon="11.598588483322416"><ele>369.0</ele><time>2026-05-02T13:56:52.999Z</time></trkpt><trkpt lat="43.09829370279314" lon="11.598539304601939"><ele>369.0</ele><time>2026-05-02T13:56:53.999Z</time></trkpt><trkpt lat="43.09837131453619" lon="11.598478689662137"><ele>369.0</ele><time>2026-05-02T13:56:54.999Z</time></trkpt><trkpt lat="43.0984251426646" lon="11.598388352966978"><ele>369.0</ele><time>2026-05-02T13:56:55.999Z</time></trkpt><trkpt lat="43.098470747221164" lon="11.598290382285848"><ele>369.0</ele><time>2026-05-02T13:56:56.999Z</time></trkpt><trkpt lat="43.09848986385076" lon="11.59818557684368"><ele>368.6666666666667</ele><time>2026-05-02T13:56:57.999Z</time></trkpt><trkpt lat="43.098510674303306" lon="11.598082268111368"><ele>368.3333333333333</ele><time>2026-05-02T13:56:58.999Z</time></trkpt><trkpt lat="43.09853869806798" lon="11.597958203703216"><ele>368.0</ele><time>2026-05-02T13:56:59.999Z</time></trkpt><trkpt lat="43.09857271470796" lon="11.597846142539861"><ele>367.66666666666663</ele><time>2026-05-02T13:57:00.999Z</time></trkpt><trkpt lat="43.09860708003148" lon="11.597738136227889"><ele>367.3333333333333</ele><time>2026-05-02T13:57:01.999Z</time></trkpt><trkpt lat="43.098641512029296" lon="11.59763299803353"><ele>367.0</ele><time>2026-05-02T13:57:02.999Z</time></trkpt><trkpt lat="43.098675759387454" lon="11.5975348677989"><ele>366.16666666666663</ele><time>2026-05-02T13:57:03.999Z</time></trkpt><trkpt lat="43.098721938218496" lon="11.597450054430304"><ele>365.3333333333333</ele><time>2026-05-02T13:57:04.999Z</time></trkpt><trkpt lat="43.09878645494929" lon="11.59739076590244"><ele>364.5</ele><time>2026-05-02T13:57:05.999Z</time></trkpt><trkpt lat="43.098858151594136" lon="11.597366139233428"><ele>363.6666666666667</ele><time>2026-05-02T13:57:06.999Z</time></trkpt><trkpt lat="43.09892667985911" lon="11.597399312190765"><ele>362.83333333333337</ele><time>2026-05-02T13:57:07.999Z</time></trkpt><trkpt lat="43.09901216538873" lon="11.597456730863719"><ele>362.0</ele><time>2026-05-02T13:57:08.999Z</time></trkpt><trkpt lat="43.0991061433864" lon="11.597532763938657"><ele>361.20000000000005</ele><time>2026-05-02T13:57:10Z</time></trkpt><trkpt lat="43.09919491061617" lon="11.597628459651155"><ele>360.4</ele><time>2026-05-02T13:57:11Z</time></trkpt><trkpt lat="43.09927590073437" lon="11.597729801621439"><ele>359.6</ele><time>2026-05-02T13:57:12Z</time></trkpt><trkpt lat="43.09935400513609" lon="11.597826466442651"><ele>358.79999999999995</ele><time>2026-05-02T13:57:13Z</time></trkpt><trkpt lat="43.09943140337148" lon="11.597937848585499"><ele>358.0</ele><time>2026-05-02T13:57:14Z</time></trkpt><trkpt lat="43.09950926816151" lon="11.598062412948773"><ele>360.0</ele><time>2026-05-02T13:57:15Z</time></trkpt><trkpt lat="43.09958826588222" lon="11.59819456718496"><ele>362.0</ele><time>2026-05-02T13:57:16Z</time></trkpt><trkpt lat="43.099667337639154" lon="11.598314967438709"><ele>364.0</ele><time>2026-05-02T13:57:17Z</time></trkpt><trkpt lat="43.09974655870496" lon="11.598435595663505"><ele>366.0</ele><time>2026-05-02T13:57:18Z</time></trkpt><trkpt lat="43.099824244936634" lon="11.598570025072899"><ele>366.75</ele><time>2026-05-02T13:57:19Z</time></trkpt><trkpt lat="43.099898636325484" lon="11.598705617711287"><ele>367.5</ele><time>2026-05-02T13:57:20Z</time></trkpt><trkpt lat="43.09997985335682" lon="11.598831047177615"><ele>368.25</ele><time>2026-05-02T13:57:21Z</time></trkpt><trkpt lat="43.100056904232865" lon="11.598944860479078"><ele>369.0</ele><time>2026-05-02T13:57:22Z</time></trkpt><trkpt lat="43.10013385257725" lon="11.599046490157798"><ele>366.0</ele><time>2026-05-02T13:57:23Z</time></trkpt><trkpt lat="43.10021660139743" lon="11.599128540325518"><ele>363.0</ele><time>2026-05-02T13:57:24Z</time></trkpt><trkpt lat="43.10031212145303" lon="11.599192010709803"><ele>360.0</ele><time>2026-05-02T13:57:25Z</time></trkpt><trkpt lat="43.10042066959509" lon="11.599233638874935"><ele>357.0</ele><time>2026-05-02T13:57:26Z</time></trkpt><trkpt lat="43.100543524072975" lon="11.599279391847436"><ele>354.0</ele><time>2026-05-02T13:57:27Z</time></trkpt><trkpt lat="43.10067916912523" lon="11.599273120647295"><ele>352.75</ele><time>2026-05-02T13:57:28Z</time></trkpt><trkpt lat="43.10081397704346" lon="11.59925647079501"><ele>351.5</ele><time>2026-05-02T13:57:29Z</time></trkpt><trkpt lat="43.100943088689434" lon="11.599213250548367"><ele>350.25</ele><time>2026-05-02T13:57:30Z</time></trkpt><trkpt lat="43.101071942492375" lon="11.599203424164447"><ele>349.0</ele><time>2026-05-02T13:57:31Z</time></trkpt><trkpt lat="43.101203833457156" lon="11.599191318724307"><ele>349.0</ele><time>2026-05-02T13:57:32Z</time></trkpt><trkpt lat="43.101333566172585" lon="11.599212369570377"><ele>349.0</ele><time>2026-05-02T13:57:33Z</time></trkpt><trkpt lat="43.10145903301052" lon="11.599264931930989"><ele>349.0</ele><time>2026-05-02T13:57:34Z</time></trkpt><trkpt lat="43.1015653036049" lon="11.599373202433041"><ele>349.0</ele><time>2026-05-02T13:57:35Z</time></trkpt><trkpt lat="43.10168402634773" lon="11.599453162972473"><ele>349.75</ele><time>2026-05-02T13:57:36Z</time></trkpt><trkpt lat="43.101788659005805" lon="11.599561945308382"><ele>350.5</ele><time>2026-05-02T13:57:37Z</time></trkpt><trkpt lat="43.10188062602948" lon="11.59967955204884"><ele>351.25</ele><time>2026-05-02T13:57:38Z</time></trkpt><trkpt lat="43.101933833477794" lon="11.599829499148319"><ele>352.0</ele><time>2026-05-02T13:57:39Z</time></trkpt><trkpt lat="43.102014528554314" lon="11.599969760630344"><ele>352.0</ele><time>2026-05-02T13:57:40Z</time></trkpt><trkpt lat="43.10208653084189" lon="11.600124577446069"><ele>352.0</ele><time>2026-05-02T13:57:41Z</time></trkpt><trkpt lat="43.10215415207208" lon="11.600269136554154"><ele>352.0</ele><time>2026-05-02T13:57:42Z</time></trkpt><trkpt lat="43.102212115588365" lon="11.60039244980882"><ele>352.0</ele><time>2026-05-02T13:57:43Z</time></trkpt><trkpt lat="43.10226834260338" lon="11.600510440032737"><ele>350.20000000000005</ele><time>2026-05-02T13:57:44Z</time></trkpt><trkpt lat="43.10231584663438" lon="11.60061168514981"><ele>348.4</ele><time>2026-05-02T13:57:45Z</time></trkpt><trkpt lat="43.10235342829619" lon="11.600700571230966"><ele>346.6</ele><time>2026-05-02T13:57:46Z</time></trkpt><trkpt lat="43.10241658255076" lon="11.600831884497378"><ele>344.79999999999995</ele><time>2026-05-02T13:57:48Z</time></trkpt><trkpt lat="43.1024911855868" lon="11.600936590863903"><ele>343.0</ele><time>2026-05-02T13:57:50Z</time></trkpt><trkpt lat="43.10255438307662" lon="11.601027852748718"><ele>346.79999999999995</ele><time>2026-05-02T13:57:51.999Z</time></trkpt><trkpt lat="43.102632698193084" lon="11.601072029436223"><ele>350.6</ele><time>2026-05-02T13:57:53.999Z</time></trkpt><trkpt lat="43.10273241224687" lon="11.60108892383251"><ele>354.4</ele><time>2026-05-02T13:57:55.999Z</time></trkpt><trkpt lat="43.10282342660366" lon="11.601009109555982"><ele>358.20000000000005</ele><time>2026-05-02T13:57:57.999Z</time></trkpt><trkpt lat="43.102908408032064" lon="11.600919078015645"><ele>362.0</ele><time>2026-05-02T13:57:59.999Z</time></trkpt><trkpt lat="43.102986694196055" lon="11.600816192488509"><ele>362.0</ele><time>2026-05-02T13:58:01.999Z</time></trkpt><trkpt lat="43.103076031594235" lon="11.600702160527508"><ele>362.0</ele><time>2026-05-02T13:58:03.999Z</time></trkpt><trkpt lat="43.10316714257141" lon="11.600597466349374"><ele>362.0</ele><time>2026-05-02T13:58:05.999Z</time></trkpt><trkpt lat="43.10326912958088" lon="11.60050115826458"><ele>362.0</ele><time>2026-05-02T13:58:07.999Z</time></trkpt><trkpt lat="43.103330124901966" lon="11.60047931857489"><ele>362.0</ele><time>2026-05-02T13:58:08.999Z</time></trkpt><trkpt lat="43.103455019615446" lon="11.600465368926011"><ele>362.1666666666667</ele><time>2026-05-02T13:58:10.999Z</time></trkpt><trkpt lat="43.10352228305322" lon="11.600469460205513"><ele>362.33333333333337</ele><time>2026-05-02T13:58:11.999Z</time></trkpt><trkpt lat="43.10358884227237" lon="11.600479190074097"><ele>362.5</ele><time>2026-05-02T13:58:12.999Z</time></trkpt><trkpt lat="43.10365475967285" lon="11.600489806769117"><ele>362.6666666666667</ele><time>2026-05-02T13:58:13.999Z</time></trkpt><trkpt lat="43.103720686331094" lon="11.600503924117966"><ele>362.8333333333333</ele><time>2026-05-02T13:58:14.999Z</time></trkpt><trkpt lat="43.103785566335986" lon="11.600516337879055"><ele>363.0</ele><time>2026-05-02T13:58:15.999Z</time></trkpt><trkpt lat="43.10390726258231" lon="11.600534585636442"><ele>363.0</ele><time>2026-05-02T13:58:17.999Z</time></trkpt><trkpt lat="43.104024622117926" lon="11.600560756260549"><ele>363.0</ele><time>2026-05-02T13:58:19.999Z</time></trkpt><trkpt lat="43.10414678583837" lon="11.600576754190392"><ele>363.0</ele><time>2026-05-02T13:58:21.999Z</time></trkpt><trkpt lat="43.104211038185355" lon="11.600584032022962"><ele>363.0</ele><time>2026-05-02T13:58:22.999Z</time></trkpt><trkpt lat="43.10433741794015" lon="11.600614084385564"><ele>363.0</ele><time>2026-05-02T13:58:24.999Z</time></trkpt><trkpt lat="43.10440831689804" lon="11.60062883714089"><ele>363.4</ele><time>2026-05-02T13:58:25.999Z</time></trkpt><trkpt lat="43.10448585699379" lon="11.600644669838005"><ele>363.79999999999995</ele><time>2026-05-02T13:58:26.999Z</time></trkpt><trkpt lat="43.10457323266952" lon="11.600660993500357"><ele>364.2</ele><time>2026-05-02T13:58:27.999Z</time></trkpt><trkpt lat="43.10467403760242" lon="11.600675424870559"><ele>364.6</ele><time>2026-05-02T13:58:28.999Z</time></trkpt><trkpt lat="43.10478672439797" lon="11.60069369783207"><ele>365.0</ele><time>2026-05-02T13:58:29.999Z</time></trkpt><trkpt lat="43.10491987065025" lon="11.60071929396893"><ele>365.6666666666667</ele><time>2026-05-02T13:58:30.999Z</time></trkpt><trkpt lat="43.10507420726386" lon="11.600746918600052"><ele>366.3333333333333</ele><time>2026-05-02T13:58:31.999Z</time></trkpt><trkpt lat="43.105225791953686" lon="11.600760863212646"><ele>367.0</ele><time>2026-05-02T13:58:32.999Z</time></trkpt><trkpt lat="43.10536952121423" lon="11.600748374472008"><ele>367.0</ele><time>2026-05-02T13:58:33.999Z</time></trkpt><trkpt lat="43.10550322389491" lon="11.60071306789178"><ele>367.0</ele><time>2026-05-02T13:58:34.999Z</time></trkpt><trkpt lat="43.10564418675206" lon="11.600647282778107"><ele>367.0</ele><time>2026-05-02T13:58:35.999Z</time></trkpt><trkpt lat="43.10579188364389" lon="11.600558913166097"><ele>367.0</ele><time>2026-05-02T13:58:36.999Z</time></trkpt><trkpt lat="43.10592417429365" lon="11.600472313492228"><ele>367.20000000000005</ele><time>2026-05-02T13:58:37.999Z</time></trkpt><trkpt lat="43.10603671701558" lon="11.60039732618985"><ele>367.4</ele><time>2026-05-02T13:58:38.999Z</time></trkpt><trkpt lat="43.106137313168745" lon="11.600340727820434"><ele>367.6</ele><time>2026-05-02T13:58:39.999Z</time></trkpt><trkpt lat="43.10623100218323" lon="11.600309546295168"><ele>367.79999999999995</ele><time>2026-05-02T13:58:40.999Z</time></trkpt><trkpt lat="43.106325566681" lon="11.600308476300084"><ele>368.0</ele><time>2026-05-02T13:58:41.999Z</time></trkpt><trkpt lat="43.10641508987292" lon="11.600338635641293"><ele>369.25</ele><time>2026-05-02T13:58:42.999Z</time></trkpt><trkpt lat="43.10651377541681" lon="11.6003872468952"><ele>370.5</ele><time>2026-05-02T13:58:43.999Z</time></trkpt><trkpt lat="43.1066155905488" lon="11.600476745034218"><ele>371.75</ele><time>2026-05-02T13:58:44.999Z</time></trkpt><trkpt lat="43.10673838767026" lon="11.60055381470481"><ele>373.0</ele><time>2026-05-02T13:58:45.999Z</time></trkpt><trkpt lat="43.10687641375166" lon="11.600641784348014"><ele>375.75</ele><time>2026-05-02T13:58:46.999Z</time></trkpt><trkpt lat="43.10702298412875" lon="11.600719675690971"><ele>378.5</ele><time>2026-05-02T13:58:47.999Z</time></trkpt><trkpt lat="43.10715371374405" lon="11.600812558799989"><ele>381.25</ele><time>2026-05-02T13:58:48.999Z</time></trkpt><trkpt lat="43.107272601745734" lon="11.600901981268592"><ele>384.0</ele><time>2026-05-02T13:58:49.999Z</time></trkpt><trkpt lat="43.10738259640009" lon="11.60100759509594"><ele>383.79999999999995</ele><time>2026-05-02T13:58:50.999Z</time></trkpt><trkpt lat="43.10748935066612" lon="11.601067702154158"><ele>383.59999999999997</ele><time>2026-05-02T13:58:51.999Z</time></trkpt><trkpt lat="43.1075777359142" lon="11.601138739913518"><ele>383.4</ele><time>2026-05-02T13:58:52.999Z</time></trkpt><trkpt lat="43.10765841851856" lon="11.601201196842432"><ele>383.2</ele><time>2026-05-02T13:58:53.999Z</time></trkpt><trkpt lat="43.10772125402108" lon="11.60125755826797"><ele>383.0</ele><time>2026-05-02T13:58:54.999Z</time></trkpt><trkpt lat="43.107802928048834" lon="11.601351536178544"><ele>384.6666666666667</ele><time>2026-05-02T13:58:56.999Z</time></trkpt><trkpt lat="43.10786113246699" lon="11.601413944436944"><ele>386.33333333333337</ele><time>2026-05-02T13:58:59.999Z</time></trkpt><trkpt lat="43.107894294858525" lon="11.60133287050435"><ele>388.0</ele><time>2026-05-02T14:02:01.999Z</time></trkpt><trkpt lat="43.10786924118464" lon="11.601251280256712"><ele>389.6666666666667</ele><time>2026-05-02T14:02:11.999Z</time></trkpt><trkpt lat="43.10791464512338" lon="11.601327546339409"><ele>391.3333333333333</ele><time>2026-05-02T14:22:36Z</time></trkpt><trkpt lat="43.10792442954338" lon="11.601433439061747"><ele>393.0</ele><time>2026-05-02T14:22:39Z</time></trkpt><trkpt lat="43.10797835155545" lon="11.601547280952378"><ele>393.0</ele><time>2026-05-02T14:22:41Z</time></trkpt><trkpt lat="43.10804089553593" lon="11.601681271149427"><ele>393.0</ele><time>2026-05-02T14:22:43Z</time></trkpt><trkpt lat="43.10806467058624" lon="11.601778109309768"><ele>393.0</ele><time>2026-05-02T14:22:44Z</time></trkpt><trkpt lat="43.10807565264173" lon="11.601891026383617"><ele>393.0</ele><time>2026-05-02T14:22:45Z</time></trkpt><trkpt lat="43.10805078300796" lon="11.60200793140133"><ele>393.0</ele><time>2026-05-02T14:22:46Z</time></trkpt><trkpt lat="43.108053531432425" lon="11.602133767320927"><ele>392.3333333333333</ele><time>2026-05-02T14:22:47Z</time></trkpt><trkpt lat="43.10804005903631" lon="11.602254094307863"><ele>391.66666666666663</ele><time>2026-05-02T14:22:48Z</time></trkpt><trkpt lat="43.10802194255263" lon="11.602375844458944"><ele>391.0</ele><time>2026-05-02T14:22:49Z</time></trkpt><trkpt lat="43.10800055154681" lon="11.602498816017349"><ele>390.3333333333333</ele><time>2026-05-02T14:22:50Z</time></trkpt><trkpt lat="43.107992576499356" lon="11.60261981633211"><ele>389.66666666666663</ele><time>2026-05-02T14:22:51Z</time></trkpt><trkpt lat="43.107966705954894" lon="11.602729839549458"><ele>389.0</ele><time>2026-05-02T14:22:52Z</time></trkpt><trkpt lat="43.10793990817994" lon="11.60283047257193"><ele>387.16666666666663</ele><time>2026-05-02T14:22:53Z</time></trkpt><trkpt lat="43.107900906696706" lon="11.602919886321121"><ele>385.3333333333333</ele><time>2026-05-02T14:22:54Z</time></trkpt><trkpt lat="43.107891544563316" lon="11.603013642648143"><ele>383.5</ele><time>2026-05-02T14:22:55Z</time></trkpt><trkpt lat="43.107869924606" lon="11.603096750523902"><ele>381.66666666666663</ele><time>2026-05-02T14:22:56Z</time></trkpt><trkpt lat="43.10783098230192" lon="11.60317079566864"><ele>379.8333333333333</ele><time>2026-05-02T14:22:57Z</time></trkpt><trkpt lat="43.10781104829585" lon="11.603335893150627"><ele>378.0</ele><time>2026-05-02T14:22:59Z</time></trkpt><trkpt lat="43.10782410018879" lon="11.6034208430205"><ele>378.0</ele><time>2026-05-02T14:23:00Z</time></trkpt><trkpt lat="43.1078542312288" lon="11.603573766069752"><ele>378.0</ele><time>2026-05-02T14:23:02Z</time></trkpt><trkpt lat="43.107889966086844" lon="11.603703074384367"><ele>378.0</ele><time>2026-05-02T14:23:04Z</time></trkpt><trkpt lat="43.10793812818347" lon="11.603814754693673"><ele>378.0</ele><time>2026-05-02T14:23:06Z</time></trkpt><trkpt lat="43.10798008359963" lon="11.603971435031484"><ele>378.0</ele><time>2026-05-02T14:23:08Z</time></trkpt><trkpt lat="43.10800827476719" lon="11.60405486738557"><ele>377.6666666666667</ele><time>2026-05-02T14:23:09Z</time></trkpt><trkpt lat="43.10803532331493" lon="11.604136979105817"><ele>377.3333333333333</ele><time>2026-05-02T14:23:10Z</time></trkpt><trkpt lat="43.10806139777054" lon="11.604217187262158"><ele>377.0</ele><time>2026-05-02T14:23:11Z</time></trkpt><trkpt lat="43.108109367866994" lon="11.604349053965628"><ele>376.66666666666663</ele><time>2026-05-02T14:23:13Z</time></trkpt><trkpt lat="43.10812987217251" lon="11.604433495710653"><ele>376.3333333333333</ele><time>2026-05-02T14:23:15Z</time></trkpt><trkpt lat="43.10823781742058" lon="11.604556509185306"><ele>376.0</ele><time>2026-05-02T14:24:39Z</time></trkpt><trkpt lat="43.10831887365124" lon="11.604637700372017"><ele>376.0</ele><time>2026-05-02T14:24:40Z</time></trkpt><trkpt lat="43.10841717267217" lon="11.60470461570837"><ele>376.0</ele><time>2026-05-02T14:24:41Z</time></trkpt><trkpt lat="43.108515226827116" lon="11.604825424813692"><ele>376.0</ele><time>2026-05-02T14:24:42Z</time></trkpt><trkpt lat="43.10863794327882" lon="11.604939582052648"><ele>376.0</ele><time>2026-05-02T14:24:43Z</time></trkpt><trkpt lat="43.10876428885241" lon="11.605056051254772"><ele>376.0</ele><time>2026-05-02T14:24:44Z</time></trkpt><trkpt lat="43.108896277835115" lon="11.605177722437261"><ele>376.0</ele><time>2026-05-02T14:24:45Z</time></trkpt><trkpt lat="43.10903240169206" lon="11.605303164942868"><ele>376.0</ele><time>2026-05-02T14:24:46Z</time></trkpt><trkpt lat="43.10915918745597" lon="11.605419903709288"><ele>375.75</ele><time>2026-05-02T14:24:47Z</time></trkpt><trkpt lat="43.109278598880124" lon="11.605529852443382"><ele>375.5</ele><time>2026-05-02T14:24:48Z</time></trkpt><trkpt lat="43.109403871670324" lon="11.605646681302801"><ele>375.25</ele><time>2026-05-02T14:24:49Z</time></trkpt><trkpt lat="43.10952687476687" lon="11.605763613477203"><ele>375.0</ele><time>2026-05-02T14:24:50Z</time></trkpt><trkpt lat="43.10964289159638" lon="11.60587561186279"><ele>375.0</ele><time>2026-05-02T14:24:51Z</time></trkpt><trkpt lat="43.10975799657895" lon="11.605987881630885"><ele>375.0</ele><time>2026-05-02T14:24:52Z</time></trkpt><trkpt lat="43.109871222213584" lon="11.60609946802953"><ele>375.0</ele><time>2026-05-02T14:24:53Z</time></trkpt><trkpt lat="43.109981667137184" lon="11.606209805045975"><ele>375.0</ele><time>2026-05-02T14:24:54Z</time></trkpt><trkpt lat="43.110092600096586" lon="11.606320631210393"><ele>374.25</ele><time>2026-05-02T14:24:55Z</time></trkpt><trkpt lat="43.11019817274541" lon="11.606428361778407"><ele>373.5</ele><time>2026-05-02T14:24:56Z</time></trkpt><trkpt lat="43.11029504903482" lon="11.60652972985454"><ele>372.75</ele><time>2026-05-02T14:24:57Z</time></trkpt><trkpt lat="43.11037897417762" lon="11.6066175464784"><ele>372.0</ele><time>2026-05-02T14:24:58Z</time></trkpt><trkpt lat="43.11045483104831" lon="11.606686315755796"><ele>372.00000000000006</ele><time>2026-05-02T14:24:59Z</time></trkpt><trkpt lat="43.11053024556135" lon="11.606739494540014"><ele>372.0</ele><time>2026-05-02T14:25:00Z</time></trkpt><trkpt lat="43.11061060284075" lon="11.606773089182537"><ele>372.0</ele><time>2026-05-02T14:25:01Z</time></trkpt><trkpt lat="43.110680148504706" lon="11.606793669744725"><ele>372.0</ele><time>2026-05-02T14:25:02Z</time></trkpt><trkpt lat="43.11074837608799" lon="11.606821179461754"><ele>372.0</ele><time>2026-05-02T14:25:03Z</time></trkpt><trkpt lat="43.110815489877794" lon="11.60684824002957"><ele>372.00000000000006</ele><time>2026-05-02T14:25:04Z</time></trkpt><trkpt lat="43.1108820862263" lon="11.606857739691415"><ele>372.0</ele><time>2026-05-02T14:25:05Z</time></trkpt><trkpt lat="43.11094314040998" lon="11.60690358369879"><ele>371.14285714285717</ele><time>2026-05-02T14:25:06Z</time></trkpt><trkpt lat="43.111004513668625" lon="11.606950069883252"><ele>370.2857142857143</ele><time>2026-05-02T14:25:07Z</time></trkpt><trkpt lat="43.111056949878865" lon="11.607018154354401"><ele>369.42857142857144</ele><time>2026-05-02T14:25:08Z</time></trkpt><trkpt lat="43.11112385402248" lon="11.607052336182914"><ele>368.57142857142856</ele><time>2026-05-02T14:25:09Z</time></trkpt><trkpt lat="43.11118197229408" lon="11.607107659354828"><ele>367.7142857142857</ele><time>2026-05-02T14:25:10Z</time></trkpt><trkpt lat="43.11124296048626" lon="11.607163404984664"><ele>366.8571428571429</ele><time>2026-05-02T14:25:11Z</time></trkpt><trkpt lat="43.11129417359183" lon="11.607237516400707"><ele>366.0</ele><time>2026-05-02T14:25:12Z</time></trkpt><trkpt lat="43.111360428607405" lon="11.607273717335804"><ele>365.8571428571429</ele><time>2026-05-02T14:25:13Z</time></trkpt><trkpt lat="43.11141933706755" lon="11.607329419210977"><ele>365.7142857142857</ele><time>2026-05-02T14:25:14Z</time></trkpt><trkpt lat="43.11147822924672" lon="11.60738520436197"><ele>365.57142857142856</ele><time>2026-05-02T14:25:15Z</time></trkpt><trkpt lat="43.11153532403705" lon="11.607445544730096"><ele>365.42857142857144</ele><time>2026-05-02T14:25:16Z</time></trkpt><trkpt lat="43.11159574067714" lon="11.60749657293508"><ele>365.2857142857143</ele><time>2026-05-02T14:25:17Z</time></trkpt><trkpt lat="43.111655323864596" lon="11.60755174500794"><ele>365.14285714285717</ele><time>2026-05-02T14:25:18Z</time></trkpt><trkpt lat="43.11171604012685" lon="11.607604621270939"><ele>365.0</ele><time>2026-05-02T14:25:19Z</time></trkpt><trkpt lat="43.11177496216045" lon="11.6076572496137"><ele>365.0</ele><time>2026-05-02T14:25:20Z</time></trkpt><trkpt lat="43.11183582272058" lon="11.607707058677125"><ele>365.0</ele><time>2026-05-02T14:25:21Z</time></trkpt><trkpt lat="43.111905405140405" lon="11.607769143524694"><ele>365.0</ele><time>2026-05-02T14:25:22Z</time></trkpt><trkpt lat="43.11198328371744" lon="11.607831084266008"><ele>365.0</ele><time>2026-05-02T14:25:23Z</time></trkpt><trkpt lat="43.11206641763521" lon="11.607902274318532"><ele>365.0</ele><time>2026-05-02T14:25:24Z</time></trkpt><trkpt lat="43.11215468549029" lon="11.60797765065493"><ele>365.0</ele><time>2026-05-02T14:25:25Z</time></trkpt><trkpt lat="43.112237581697485" lon="11.608056524847651"><ele>365.0</ele><time>2026-05-02T14:25:26Z</time></trkpt><trkpt lat="43.112318927202864" lon="11.608137448744836"><ele>365.0</ele><time>2026-05-02T14:25:27Z</time></trkpt><trkpt lat="43.112403230557895" lon="11.608222920982278"><ele>365.0</ele><time>2026-05-02T14:25:28Z</time></trkpt><trkpt lat="43.112487362604504" lon="11.608310581128194"><ele>365.0</ele><time>2026-05-02T14:25:29Z</time></trkpt><trkpt lat="43.11257101304923" lon="11.608403135667535"><ele>365.0</ele><time>2026-05-02T14:25:30Z</time></trkpt><trkpt lat="43.11265578100799" lon="11.608498824800902"><ele>365.0</ele><time>2026-05-02T14:25:31Z</time></trkpt><trkpt lat="43.112741833550466" lon="11.608597783862095"><ele>365.0</ele><time>2026-05-02T14:25:32Z</time></trkpt><trkpt lat="43.112811274951675" lon="11.608733403771067"><ele>365.0</ele><time>2026-05-02T14:25:32.999Z</time></trkpt><trkpt lat="43.11289771499026" lon="11.608876608081857"><ele>365.0</ele><time>2026-05-02T14:25:33.999Z</time></trkpt><trkpt lat="43.11297677020457" lon="11.609021162593685"><ele>366.0</ele><time>2026-05-02T14:25:34.999Z</time></trkpt><trkpt lat="43.113052789831336" lon="11.609171212949672"><ele>367.0</ele><time>2026-05-02T14:25:35.999Z</time></trkpt><trkpt lat="43.11312308880415" lon="11.609326660915047"><ele>368.0</ele><time>2026-05-02T14:25:36.999Z</time></trkpt><trkpt lat="43.113194251762465" lon="11.609477308308954"><ele>369.0</ele><time>2026-05-02T14:25:37.999Z</time></trkpt><trkpt lat="43.11325068164375" lon="11.609630308917017"><ele>369.0</ele><time>2026-05-02T14:25:38.999Z</time></trkpt><trkpt lat="43.113282781983074" lon="11.60978259662095"><ele>369.0</ele><time>2026-05-02T14:25:39.999Z</time></trkpt><trkpt lat="43.11333625366031" lon="11.609926892780601"><ele>369.0</ele><time>2026-05-02T14:25:40.999Z</time></trkpt><trkpt lat="43.113408835173544" lon="11.61005166442323"><ele>369.0</ele><time>2026-05-02T14:25:41.999Z</time></trkpt><trkpt lat="43.1134706387893" lon="11.610184205009169"><ele>369.0</ele><time>2026-05-02T14:25:42.999Z</time></trkpt><trkpt lat="43.113523487588125" lon="11.610320125643032"><ele>369.0</ele><time>2026-05-02T14:25:43.999Z</time></trkpt><trkpt lat="43.11358844631498" lon="11.610443530461898"><ele>369.0</ele><time>2026-05-02T14:25:44.999Z</time></trkpt><trkpt lat="43.113653200282435" lon="11.610564402615438"><ele>369.0</ele><time>2026-05-02T14:25:45.999Z</time></trkpt><trkpt lat="43.11372776401142" lon="11.610673789533971"><ele>369.0</ele><time>2026-05-02T14:25:46.999Z</time></trkpt><trkpt lat="43.113785256356465" lon="11.610791251361196"><ele>368.79999999999995</ele><time>2026-05-02T14:25:47.999Z</time></trkpt><trkpt lat="43.11384583247716" lon="11.610901108197437"><ele>368.59999999999997</ele><time>2026-05-02T14:25:48.999Z</time></trkpt><trkpt lat="43.11390620383642" lon="11.61100561735743"><ele>368.4</ele><time>2026-05-02T14:25:49.999Z</time></trkpt><trkpt lat="43.11396983748164" lon="11.611100598746463"><ele>368.2</ele><time>2026-05-02T14:25:50.999Z</time></trkpt><trkpt lat="43.11404146523558" lon="11.611185294269806"><ele>368.0</ele><time>2026-05-02T14:25:51.999Z</time></trkpt><trkpt lat="43.1141185546315" lon="11.611259303308023"><ele>368.0</ele><time>2026-05-02T14:25:52.999Z</time></trkpt><trkpt lat="43.11419329874541" lon="11.611333356511983"><ele>368.0</ele><time>2026-05-02T14:25:53.999Z</time></trkpt><trkpt lat="43.11425753680353" lon="11.611407303144091"><ele>368.0</ele><time>2026-05-02T14:25:54.999Z</time></trkpt><trkpt lat="43.11432195753084" lon="11.611491918859288"><ele>368.0</ele><time>2026-05-02T14:25:55.999Z</time></trkpt><trkpt lat="43.11438201002523" lon="11.611578313913572"><ele>368.0</ele><time>2026-05-02T14:25:56.999Z</time></trkpt><trkpt lat="43.11444187700624" lon="11.611673572415624"><ele>368.0</ele><time>2026-05-02T14:25:57.999Z</time></trkpt><trkpt lat="43.114496137083414" lon="11.611764359987689"><ele>368.0</ele><time>2026-05-02T14:25:58.999Z</time></trkpt><trkpt lat="43.11454320879898" lon="11.61185394644826"><ele>368.0</ele><time>2026-05-02T14:25:59.999Z</time></trkpt><trkpt lat="43.11457438317936" lon="11.611964465014633"><ele>368.0</ele><time>2026-05-02T14:26:00.999Z</time></trkpt><trkpt lat="43.11461238330552" lon="11.612076133261194"><ele>368.0</ele><time>2026-05-02T14:26:01.999Z</time></trkpt><trkpt lat="43.11463983614193" lon="11.612197282422333"><ele>368.0</ele><time>2026-05-02T14:26:02.999Z</time></trkpt><trkpt lat="43.11466503895494" lon="11.612330884058334"><ele>366.4</ele><time>2026-05-02T14:26:03.999Z</time></trkpt><trkpt lat="43.11469201683998" lon="11.612460498893203"><ele>364.79999999999995</ele><time>2026-05-02T14:26:04.999Z</time></trkpt><trkpt lat="43.11472079361302" lon="11.612595369608627"><ele>363.2</ele><time>2026-05-02T14:26:05.999Z</time></trkpt><trkpt lat="43.11477617869234" lon="11.61271562580329"><ele>361.6</ele><time>2026-05-02T14:26:06.999Z</time></trkpt><trkpt lat="43.11482172671084" lon="11.612832483479531"><ele>360.0</ele><time>2026-05-02T14:26:07.999Z</time></trkpt><trkpt lat="43.11487770981755" lon="11.612934535576583"><ele>362.0</ele><time>2026-05-02T14:26:08.999Z</time></trkpt><trkpt lat="43.11494622716761" lon="11.613030508682101"><ele>364.0</ele><time>2026-05-02T14:26:09.999Z</time></trkpt><trkpt lat="43.115018766108285" lon="11.613130145664663"><ele>366.0</ele><time>2026-05-02T14:26:10.999Z</time></trkpt><trkpt lat="43.11508851328297" lon="11.613239001555103"><ele>368.0</ele><time>2026-05-02T14:26:11.999Z</time></trkpt><trkpt lat="43.11515942897856" lon="11.613350998060582"><ele>370.0</ele><time>2026-05-02T14:26:12.999Z</time></trkpt><trkpt lat="43.115231940402786" lon="11.613460781445047"><ele>370.0</ele><time>2026-05-02T14:26:13.999Z</time></trkpt><trkpt lat="43.11530096182486" lon="11.613574708879687"><ele>370.0</ele><time>2026-05-02T14:26:14.999Z</time></trkpt><trkpt lat="43.115366525140004" lon="11.613683420109988"><ele>370.0</ele><time>2026-05-02T14:26:15.999Z</time></trkpt><trkpt lat="43.115430204002145" lon="11.613783557246368"><ele>370.0</ele><time>2026-05-02T14:26:16.999Z</time></trkpt><trkpt lat="43.115506164011585" lon="11.61387522883991"><ele>370.0</ele><time>2026-05-02T14:26:17.999Z</time></trkpt><trkpt lat="43.11558581279923" lon="11.613990659412611"><ele>368.75</ele><time>2026-05-02T14:26:18.999Z</time></trkpt><trkpt lat="43.115710363875245" lon="11.614069070231034"><ele>367.5</ele><time>2026-05-02T14:26:19.999Z</time></trkpt><trkpt lat="43.11582694233346" lon="11.614174022925509"><ele>366.25</ele><time>2026-05-02T14:26:20.999Z</time></trkpt><trkpt lat="43.11590569364538" lon="11.614304597314788"><ele>365.0</ele><time>2026-05-02T14:26:21.999Z</time></trkpt><trkpt lat="43.1159722327962" lon="11.61442470236681"><ele>368.0</ele><time>2026-05-02T14:26:22.999Z</time></trkpt><trkpt lat="43.11604198813399" lon="11.614558800262705"><ele>371.0</ele><time>2026-05-02T14:26:23.999Z</time></trkpt><trkpt lat="43.116082228581504" lon="11.614727218635728"><ele>374.0</ele><time>2026-05-02T14:26:24.999Z</time></trkpt><trkpt lat="43.11608442723081" lon="11.614913339439475"><ele>377.0</ele><time>2026-05-02T14:26:25.999Z</time></trkpt><trkpt lat="43.11609004858499" lon="11.61510358864123"><ele>377.6666666666667</ele><time>2026-05-02T14:26:26.999Z</time></trkpt><trkpt lat="43.116100183799034" lon="11.615329141910554"><ele>378.3333333333333</ele><time>2026-05-02T14:26:27.999Z</time></trkpt><trkpt lat="43.11608827726219" lon="11.615577497048143"><ele>379.0</ele><time>2026-05-02T14:26:28.999Z</time></trkpt><trkpt lat="43.116070709621766" lon="11.615822173142618"><ele>379.0</ele><time>2026-05-02T14:26:29.999Z</time></trkpt><trkpt lat="43.116020240078676" lon="11.616030733061944"><ele>379.0</ele><time>2026-05-02T14:26:31Z</time></trkpt><trkpt lat="43.11597234179166" lon="11.616216875697464"><ele>379.0</ele><time>2026-05-02T14:26:32Z</time></trkpt><trkpt lat="43.115907128228365" lon="11.616400862385873"><ele>379.66666666666663</ele><time>2026-05-02T14:26:33Z</time></trkpt><trkpt lat="43.11583475391381" lon="11.616614162666158"><ele>380.3333333333333</ele><time>2026-05-02T14:26:34Z</time></trkpt><trkpt lat="43.11572875930562" lon="11.61685415084976"><ele>381.0</ele><time>2026-05-02T14:26:35Z</time></trkpt><trkpt lat="43.11561143581015" lon="11.617119156070824"><ele>381.3333333333333</ele><time>2026-05-02T14:26:36Z</time></trkpt><trkpt lat="43.115503957739236" lon="11.617361843348183"><ele>381.66666666666663</ele><time>2026-05-02T14:26:37Z</time></trkpt><trkpt lat="43.11541055585587" lon="11.617570779097804"><ele>382.0</ele><time>2026-05-02T14:26:38Z</time></trkpt><trkpt lat="43.11533194626624" lon="11.617757292405562"><ele>383.40000000000003</ele><time>2026-05-02T14:26:39Z</time></trkpt><trkpt lat="43.11527101706401" lon="11.61792234607409"><ele>384.8</ele><time>2026-05-02T14:26:40Z</time></trkpt><trkpt lat="43.115224618520784" lon="11.618069569324453"><ele>386.2</ele><time>2026-05-02T14:26:41Z</time></trkpt><trkpt lat="43.11519500837197" lon="11.618191856048016"><ele>387.6</ele><time>2026-05-02T14:26:42Z</time></trkpt><trkpt lat="43.115159137662424" lon="11.61827685477625"><ele>389.0</ele><time>2026-05-02T14:26:43Z</time></trkpt><trkpt lat="43.11513402790148" lon="11.618398004792892"><ele>389.0</ele><time>2026-05-02T14:26:45Z</time></trkpt><trkpt lat="43.11530189984851" lon="11.618526255528101"><ele>389.0</ele><time>2026-05-02T14:26:48Z</time></trkpt><trkpt lat="43.1153722293286" lon="11.618548184279247"><ele>389.0</ele><time>2026-05-02T14:26:49Z</time></trkpt><trkpt lat="43.115439013754866" lon="11.618567364811971"><ele>389.0</ele><time>2026-05-02T14:26:50Z</time></trkpt><trkpt lat="43.115502603505654" lon="11.618584432191925"><ele>389.0</ele><time>2026-05-02T14:26:51Z</time></trkpt><trkpt lat="43.115609073202656" lon="11.618635228146205"><ele>388.6</ele><time>2026-05-02T14:26:53Z</time></trkpt><trkpt lat="43.11572290831681" lon="11.618654819051516"><ele>388.2</ele><time>2026-05-02T14:26:55Z</time></trkpt><trkpt lat="43.11585268689887" lon="11.618646054436272"><ele>387.8</ele><time>2026-05-02T14:26:57Z</time></trkpt><trkpt lat="43.11591916200289" lon="11.618654441924512"><ele>387.40000000000003</ele><time>2026-05-02T14:26:58Z</time></trkpt><trkpt lat="43.11602126845636" lon="11.618660625598748"><ele>387.0</ele><time>2026-05-02T14:27:00Z</time></trkpt><trkpt lat="43.11610353562705" lon="11.618645823112358"><ele>386.8333333333333</ele><time>2026-05-02T14:27:02Z</time></trkpt><trkpt lat="43.11619913353269" lon="11.618601227968451"><ele>386.66666666666663</ele><time>2026-05-02T14:27:04Z</time></trkpt><trkpt lat="43.1162660467211" lon="11.618572658183977"><ele>386.5</ele><time>2026-05-02T14:27:05Z</time></trkpt><trkpt lat="43.11633907419257" lon="11.618544429858389"><ele>386.3333333333333</ele><time>2026-05-02T14:27:06Z</time></trkpt><trkpt lat="43.11641724353199" lon="11.618514950434156"><ele>386.16666666666663</ele><time>2026-05-02T14:27:07Z</time></trkpt><trkpt lat="43.11650105222154" lon="11.61848981585224"><ele>386.0</ele><time>2026-05-02T14:27:08Z</time></trkpt><trkpt lat="43.11658156810335" lon="11.618478329813188"><ele>384.66666666666663</ele><time>2026-05-02T14:27:09Z</time></trkpt><trkpt lat="43.11666679904234" lon="11.618466258401595"><ele>383.3333333333333</ele><time>2026-05-02T14:27:10Z</time></trkpt><trkpt lat="43.11675076054026" lon="11.618464485425218"><ele>382.0</ele><time>2026-05-02T14:27:11Z</time></trkpt><trkpt lat="43.11683316370249" lon="11.618470584317523"><ele>380.66666666666663</ele><time>2026-05-02T14:27:12Z</time></trkpt><trkpt lat="43.11691365481642" lon="11.618481267671752"><ele>379.3333333333333</ele><time>2026-05-02T14:27:13Z</time></trkpt><trkpt lat="43.11699132746815" lon="11.618494191126779"><ele>378.0</ele><time>2026-05-02T14:27:14Z</time></trkpt><trkpt lat="43.11705832311333" lon="11.618504715312564"><ele>378.0</ele><time>2026-05-02T14:27:15Z</time></trkpt><trkpt lat="43.11716269660498" lon="11.618518313195736"><ele>378.0</ele><time>2026-05-02T14:27:17Z</time></trkpt><trkpt lat="43.11723727076783" lon="11.618526076863018"><ele>378.0</ele><time>2026-05-02T14:27:19Z</time></trkpt><trkpt lat="43.11731625499138" lon="11.618538102564436"><ele>378.0</ele><time>2026-05-02T14:27:21Z</time></trkpt><trkpt lat="43.11740489560014" lon="11.618545883845815"><ele>378.0</ele><time>2026-05-02T14:27:23Z</time></trkpt><trkpt lat="43.11752877172021" lon="11.618557823272791"><ele>377.1666666666667</ele><time>2026-05-02T14:27:25Z</time></trkpt><trkpt lat="43.117604985557456" lon="11.618560926486184"><ele>376.3333333333333</ele><time>2026-05-02T14:27:26Z</time></trkpt><trkpt lat="43.11768585819852" lon="11.618563993441775"><ele>375.5</ele><time>2026-05-02T14:27:27Z</time></trkpt><trkpt lat="43.1177757113063" lon="11.618565435451998"><ele>374.66666666666663</ele><time>2026-05-02T14:27:28Z</time></trkpt><trkpt lat="43.11787098604339" lon="11.618564597655647"><ele>373.8333333333333</ele><time>2026-05-02T14:27:29Z</time></trkpt><trkpt lat="43.11797048648312" lon="11.618567321028628"><ele>373.0</ele><time>2026-05-02T14:27:30Z</time></trkpt><trkpt lat="43.118075803357065" lon="11.618567229364421"><ele>373.0</ele><time>2026-05-02T14:27:31Z</time></trkpt><trkpt lat="43.118188973096295" lon="11.61856951913424"><ele>373.0</ele><time>2026-05-02T14:27:32Z</time></trkpt><trkpt lat="43.1183061837253" lon="11.618570037195202"><ele>373.0</ele><time>2026-05-02T14:27:32.999Z</time></trkpt><trkpt lat="43.1184250329354" lon="11.618575856459827"><ele>373.0</ele><time>2026-05-02T14:27:33.999Z</time></trkpt><trkpt lat="43.11854234353512" lon="11.618582607687644"><ele>372.5</ele><time>2026-05-02T14:27:34.999Z</time></trkpt><trkpt lat="43.11866269659018" lon="11.618588040548152"><ele>372.0</ele><time>2026-05-02T14:27:35.999Z</time></trkpt><trkpt lat="43.11878490303985" lon="11.618596424716232"><ele>371.5</ele><time>2026-05-02T14:27:36.999Z</time></trkpt><trkpt lat="43.11890560508184" lon="11.618609116444928"><ele>371.0</ele><time>2026-05-02T14:27:37.999Z</time></trkpt><trkpt lat="43.11902328974483" lon="11.618623556138651"><ele>370.5</ele><time>2026-05-02T14:27:38.999Z</time></trkpt><trkpt lat="43.1191426776902" lon="11.618636986310527"><ele>370.0</ele><time>2026-05-02T14:27:39.999Z</time></trkpt><trkpt lat="43.119260755435796" lon="11.618650210195344"><ele>369.5</ele><time>2026-05-02T14:27:40.999Z</time></trkpt><trkpt lat="43.11937753746138" lon="11.618664934036527"><ele>369.0</ele><time>2026-05-02T14:27:41.999Z</time></trkpt><trkpt lat="43.119495943585164" lon="11.618677653874977"><ele>369.0</ele><time>2026-05-02T14:27:42.999Z</time></trkpt><trkpt lat="43.119615302263966" lon="11.61869067025512"><ele>369.0</ele><time>2026-05-02T14:27:43.999Z</time></trkpt><trkpt lat="43.11973492386568" lon="11.618701677265282"><ele>369.0</ele><time>2026-05-02T14:27:44.999Z</time></trkpt><trkpt lat="43.119851545399534" lon="11.618709161982652"><ele>369.0</ele><time>2026-05-02T14:27:45.999Z</time></trkpt><trkpt lat="43.119972710777205" lon="11.618712111642806"><ele>370.5</ele><time>2026-05-02T14:27:46.999Z</time></trkpt><trkpt lat="43.12009664378254" lon="11.618719555130749"><ele>372.0</ele><time>2026-05-02T14:27:47.999Z</time></trkpt><trkpt lat="43.120221889343064" lon="11.618733088622072"><ele>373.5</ele><time>2026-05-02T14:27:48.999Z</time></trkpt><trkpt lat="43.12033879454753" lon="11.618752726868848"><ele>375.0</ele><time>2026-05-02T14:27:49.999Z</time></trkpt><trkpt lat="43.12044157953685" lon="11.618768108331091"><ele>375.0</ele><time>2026-05-02T14:27:50.999Z</time></trkpt><trkpt lat="43.12053655126024" lon="11.618783636963826"><ele>375.0</ele><time>2026-05-02T14:27:51.999Z</time></trkpt><trkpt lat="43.12063730177696" lon="11.618766982963404"><ele>375.0</ele><time>2026-05-02T14:27:52.999Z</time></trkpt><trkpt lat="43.120738860856605" lon="11.618733647994786"><ele>375.0</ele><time>2026-05-02T14:27:53.999Z</time></trkpt><trkpt lat="43.120838296611005" lon="11.618683971172864"><ele>375.0</ele><time>2026-05-02T14:27:54.999Z</time></trkpt><trkpt lat="43.12092956318449" lon="11.618607312246136"><ele>376.0</ele><time>2026-05-02T14:27:55.999Z</time></trkpt><trkpt lat="43.12101746540348" lon="11.618517342727316"><ele>377.0</ele><time>2026-05-02T14:27:56.999Z</time></trkpt><trkpt lat="43.12110361364549" lon="11.61841875194605"><ele>378.0</ele><time>2026-05-02T14:27:57.999Z</time></trkpt><trkpt lat="43.12119075017849" lon="11.618323119538715"><ele>379.0</ele><time>2026-05-02T14:27:58.999Z</time></trkpt><trkpt lat="43.12128059477904" lon="11.618229317188925"><ele>380.0</ele><time>2026-05-02T14:27:59.999Z</time></trkpt><trkpt lat="43.12137104986412" lon="11.618134308989264"><ele>380.0</ele><time>2026-05-02T14:28:00.999Z</time></trkpt><trkpt lat="43.121464481557204" lon="11.618038754187483"><ele>380.0</ele><time>2026-05-02T14:28:01.999Z</time></trkpt><trkpt lat="43.121556729667255" lon="11.617945783545547"><ele>380.0</ele><time>2026-05-02T14:28:02.999Z</time></trkpt><trkpt lat="43.12164430383775" lon="11.617854233444078"><ele>380.0</ele><time>2026-05-02T14:28:03.999Z</time></trkpt><trkpt lat="43.12173015047869" lon="11.617765203796388"><ele>380.0</ele><time>2026-05-02T14:28:04.999Z</time></trkpt><trkpt lat="43.12181410719036" lon="11.617676908866079"><ele>380.6</ele><time>2026-05-02T14:28:05.999Z</time></trkpt><trkpt lat="43.121897620168035" lon="11.617588076941253"><ele>381.2</ele><time>2026-05-02T14:28:06.999Z</time></trkpt><trkpt lat="43.12198137414886" lon="11.617504126221776"><ele>381.79999999999995</ele><time>2026-05-02T14:28:07.999Z</time></trkpt><trkpt lat="43.122063148672595" lon="11.617419866503514"><ele>382.4</ele><time>2026-05-02T14:28:08.999Z</time></trkpt><trkpt lat="43.12214284951323" lon="11.617338365092776"><ele>383.0</ele><time>2026-05-02T14:28:09.999Z</time></trkpt><trkpt lat="43.12222144867879" lon="11.617264206581726"><ele>383.0</ele><time>2026-05-02T14:28:10.999Z</time></trkpt><trkpt lat="43.12229685513242" lon="11.617187217716369"><ele>383.0</ele><time>2026-05-02T14:28:11.999Z</time></trkpt><trkpt lat="43.12236651774268" lon="11.617115516336472"><ele>383.0</ele><time>2026-05-02T14:28:12.999Z</time></trkpt><trkpt lat="43.12243458368648" lon="11.617035734708978"><ele>383.0</ele><time>2026-05-02T14:28:13.999Z</time></trkpt><trkpt lat="43.12250054082552" lon="11.616954346350893"><ele>383.0</ele><time>2026-05-02T14:28:14.999Z</time></trkpt><trkpt lat="43.12256893258795" lon="11.616864692904937"><ele>381.2</ele><time>2026-05-02T14:28:15.999Z</time></trkpt><trkpt lat="43.12263218366202" lon="11.616766724910315"><ele>379.4</ele><time>2026-05-02T14:28:16.999Z</time></trkpt><trkpt lat="43.12270553876046" lon="11.616672339511998"><ele>377.59999999999997</ele><time>2026-05-02T14:28:17.999Z</time></trkpt><trkpt lat="43.12276837873525" lon="11.616564712029549"><ele>375.79999999999995</ele><time>2026-05-02T14:28:18.999Z</time></trkpt><trkpt lat="43.122818286718484" lon="11.616472949182242"><ele>374.0</ele><time>2026-05-02T14:28:19.999Z</time></trkpt><trkpt lat="43.12286177753734" lon="11.616387159691628"><ele>374.0</ele><time>2026-05-02T14:28:20.999Z</time></trkpt><trkpt lat="43.122908478387444" lon="11.616289791120558"><ele>374.0</ele><time>2026-05-02T14:28:21.999Z</time></trkpt><trkpt lat="43.12294423768064" lon="11.616173589240468"><ele>374.0</ele><time>2026-05-02T14:28:22.999Z</time></trkpt><trkpt lat="43.12300013035554" lon="11.616061768026913"><ele>374.0</ele><time>2026-05-02T14:28:23.999Z</time></trkpt><trkpt lat="43.12306523283381" lon="11.615918518951647"><ele>374.0</ele><time>2026-05-02T14:28:24.999Z</time></trkpt><trkpt lat="43.12314439442326" lon="11.615745660157355"><ele>374.33333333333337</ele><time>2026-05-02T14:28:25.999Z</time></trkpt><trkpt lat="43.123248067147124" lon="11.61553268139306"><ele>374.6666666666667</ele><time>2026-05-02T14:28:26.999Z</time></trkpt><trkpt lat="43.123365783090094" lon="11.615310084935201"><ele>375.0</ele><time>2026-05-02T14:28:27.999Z</time></trkpt><trkpt lat="43.12349515388937" lon="11.615082316207625"><ele>377.3333333333333</ele><time>2026-05-02T14:28:28.999Z</time></trkpt><trkpt lat="43.123620788089454" lon="11.614875667707354"><ele>379.66666666666663</ele><time>2026-05-02T14:28:29.999Z</time></trkpt><trkpt lat="43.12373280556532" lon="11.614720286460548"><ele>382.0</ele><time>2026-05-02T14:28:30.999Z</time></trkpt><trkpt lat="43.12385444465899" lon="11.614591276327445"><ele>384.0</ele><time>2026-05-02T14:28:31.999Z</time></trkpt><trkpt lat="43.12399068648653" lon="11.61448274885362"><ele>386.0</ele><time>2026-05-02T14:28:32.999Z</time></trkpt><trkpt lat="43.12412813179026" lon="11.614398416528491"><ele>388.0</ele><time>2026-05-02T14:28:33.999Z</time></trkpt><trkpt lat="43.124263603676546" lon="11.614340205955296"><ele>388.33333333333337</ele><time>2026-05-02T14:28:34.999Z</time></trkpt><trkpt lat="43.12442077934772" lon="11.61429690907163"><ele>388.66666666666663</ele><time>2026-05-02T14:28:35.999Z</time></trkpt><trkpt lat="43.124606022166695" lon="11.614263042006359"><ele>389.0</ele><time>2026-05-02T14:28:37Z</time></trkpt><trkpt lat="43.12479507848181" lon="11.614229920531917"><ele>386.66666666666663</ele><time>2026-05-02T14:28:38Z</time></trkpt><trkpt lat="43.12495631930738" lon="11.614258636308252"><ele>384.3333333333333</ele><time>2026-05-02T14:28:39Z</time></trkpt><trkpt lat="43.125096445135604" lon="11.614318266778884"><ele>382.0</ele><time>2026-05-02T14:28:40Z</time></trkpt><trkpt lat="43.12523397124418" lon="11.614389756123193"><ele>382.0</ele><time>2026-05-02T14:28:41Z</time></trkpt><trkpt lat="43.12536138604403" lon="11.614448534871443"><ele>382.0</ele><time>2026-05-02T14:28:42Z</time></trkpt><trkpt lat="43.12548220167055" lon="11.614510505806642"><ele>382.0</ele><time>2026-05-02T14:28:43Z</time></trkpt><trkpt lat="43.125608546597434" lon="11.614568302894744"><ele>382.0</ele><time>2026-05-02T14:28:44Z</time></trkpt><trkpt lat="43.12575525856971" lon="11.614542724095042"><ele>380.3333333333333</ele><time>2026-05-02T14:28:45Z</time></trkpt><trkpt lat="43.125896959945905" lon="11.614532889492402"><ele>378.6666666666667</ele><time>2026-05-02T14:28:46Z</time></trkpt><trkpt lat="43.12606077758497" lon="11.614529162495383"><ele>377.0</ele><time>2026-05-02T14:28:47Z</time></trkpt><trkpt lat="43.12624422443809" lon="11.61449729879836"><ele>377.33333333333337</ele><time>2026-05-02T14:28:48Z</time></trkpt><trkpt lat="43.12641809437297" lon="11.614453501372015"><ele>377.6666666666667</ele><time>2026-05-02T14:28:49Z</time></trkpt><trkpt lat="43.12659032355715" lon="11.614445623350555"><ele>378.0</ele><time>2026-05-02T14:28:50Z</time></trkpt><trkpt lat="43.126737463063314" lon="11.614432297877055"><ele>378.0</ele><time>2026-05-02T14:28:51Z</time></trkpt><trkpt lat="43.12686033431725" lon="11.61442500576547"><ele>378.0</ele><time>2026-05-02T14:28:52Z</time></trkpt><trkpt lat="43.1269697025022" lon="11.614414071020173"><ele>378.0</ele><time>2026-05-02T14:28:53Z</time></trkpt><trkpt lat="43.12706624377458" lon="11.614400082185155"><ele>378.0</ele><time>2026-05-02T14:28:54Z</time></trkpt><trkpt lat="43.12715745176536" lon="11.614382353265173"><ele>378.0</ele><time>2026-05-02T14:28:55Z</time></trkpt><trkpt lat="43.127240389726495" lon="11.61435328337266"><ele>378.0</ele><time>2026-05-02T14:28:56Z</time></trkpt><trkpt lat="43.12731768347004" lon="11.614310148988716"><ele>378.0</ele><time>2026-05-02T14:28:57Z</time></trkpt><trkpt lat="43.12739191956411" lon="11.61424958644143"><ele>378.0</ele><time>2026-05-02T14:28:58Z</time></trkpt><trkpt lat="43.127462829542054" lon="11.614167846339596"><ele>378.0</ele><time>2026-05-02T14:28:59Z</time></trkpt><trkpt lat="43.12753371484402" lon="11.614071631455715"><ele>378.0</ele><time>2026-05-02T14:29:00Z</time></trkpt><trkpt lat="43.127610519364346" lon="11.61395237088463"><ele>377.25</ele><time>2026-05-02T14:29:01Z</time></trkpt><trkpt lat="43.127690245069644" lon="11.613831296178633"><ele>376.5</ele><time>2026-05-02T14:29:02Z</time></trkpt><trkpt lat="43.12777225616219" lon="11.613713723000355"><ele>375.75</ele><time>2026-05-02T14:29:03Z</time></trkpt><trkpt lat="43.12786123266873" lon="11.61359772794838"><ele>375.0</ele><time>2026-05-02T14:29:04Z</time></trkpt><trkpt lat="43.12794802768159" lon="11.613499657833252"><ele>373.75</ele><time>2026-05-02T14:29:05Z</time></trkpt><trkpt lat="43.128045012777314" lon="11.613413581856808"><ele>372.5</ele><time>2026-05-02T14:29:06Z</time></trkpt><trkpt lat="43.1281505222412" lon="11.61332681917911"><ele>371.25</ele><time>2026-05-02T14:29:07Z</time></trkpt><trkpt lat="43.128262869093355" lon="11.61324190313669"><ele>370.0</ele><time>2026-05-02T14:29:08Z</time></trkpt><trkpt lat="43.128373430045" lon="11.6131632700567"><ele>369.6</ele><time>2026-05-02T14:29:09Z</time></trkpt><trkpt lat="43.12848193888465" lon="11.61309137801226"><ele>369.2</ele><time>2026-05-02T14:29:10Z</time></trkpt><trkpt lat="43.12858491909946" lon="11.613025576364128"><ele>368.79999999999995</ele><time>2026-05-02T14:29:11Z</time></trkpt><trkpt lat="43.12867302957974" lon="11.612965486514291"><ele>368.4</ele><time>2026-05-02T14:29:12Z</time></trkpt><trkpt lat="43.128735240384316" lon="11.61291375996432"><ele>368.0</ele><time>2026-05-02T14:29:13Z</time></trkpt><trkpt lat="43.12881313600179" lon="11.612780670385558"><ele>366.59999999999997</ele><time>2026-05-02T14:29:15Z</time></trkpt><trkpt lat="43.12883482192044" lon="11.612675177767157"><ele>365.2</ele><time>2026-05-02T14:29:16Z</time></trkpt><trkpt lat="43.12883889557492" lon="11.61255396536125"><ele>363.8</ele><time>2026-05-02T14:29:17Z</time></trkpt><trkpt lat="43.128833438878495" lon="11.612422958025164"><ele>362.4</ele><time>2026-05-02T14:29:18Z</time></trkpt><trkpt lat="43.12883067120655" lon="11.612279695703393"><ele>361.0</ele><time>2026-05-02T14:29:19Z</time></trkpt><trkpt lat="43.12883392772501" lon="11.612126415284171"><ele>359.25</ele><time>2026-05-02T14:29:20Z</time></trkpt><trkpt lat="43.12884029687203" lon="11.611964653666035"><ele>357.5</ele><time>2026-05-02T14:29:21Z</time></trkpt><trkpt lat="43.128846600248444" lon="11.611794594256754"><ele>355.75</ele><time>2026-05-02T14:29:22Z</time></trkpt><trkpt lat="43.12885549738856" lon="11.611620988818789"><ele>354.0</ele><time>2026-05-02T14:29:23Z</time></trkpt><trkpt lat="43.128864360923416" lon="11.611453111091498"><ele>354.0</ele><time>2026-05-02T14:29:24Z</time></trkpt><trkpt lat="43.1288716049589" lon="11.61128788192372"><ele>354.0</ele><time>2026-05-02T14:29:25Z</time></trkpt><trkpt lat="43.12887916428851" lon="11.611125007337009"><ele>354.0</ele><time>2026-05-02T14:29:26Z</time></trkpt><trkpt lat="43.12888728302009" lon="11.610965112480551"><ele>354.0</ele><time>2026-05-02T14:29:27Z</time></trkpt><trkpt lat="43.1288937380781" lon="11.610810284565586"><ele>353.5</ele><time>2026-05-02T14:29:28Z</time></trkpt><trkpt lat="43.128900624162846" lon="11.610656772600244"><ele>353.0</ele><time>2026-05-02T14:29:29Z</time></trkpt><trkpt lat="43.12890281607765" lon="11.610502556519988"><ele>352.5</ele><time>2026-05-02T14:29:30Z</time></trkpt><trkpt lat="43.12888755260987" lon="11.610347606375901"><ele>352.0</ele><time>2026-05-02T14:29:31Z</time></trkpt><trkpt lat="43.128857703130656" lon="11.610184054820396"><ele>353.75</ele><time>2026-05-02T14:29:31.999Z</time></trkpt><trkpt lat="43.12881936985291" lon="11.610024356805962"><ele>355.5</ele><time>2026-05-02T14:29:32.999Z</time></trkpt><trkpt lat="43.128772959040155" lon="11.609864768368917"><ele>357.25</ele><time>2026-05-02T14:29:33.999Z</time></trkpt><trkpt lat="43.12871997063344" lon="11.609707402465808"><ele>359.0</ele><time>2026-05-02T14:29:34.999Z</time></trkpt><trkpt lat="43.12865877531529" lon="11.60955534223433"><ele>361.5</ele><time>2026-05-02T14:29:35.999Z</time></trkpt><trkpt lat="43.12859208660749" lon="11.609410608081602"><ele>364.0</ele><time>2026-05-02T14:29:36.999Z</time></trkpt><trkpt lat="43.12852279014492" lon="11.60926805014993"><ele>366.5</ele><time>2026-05-02T14:29:37.999Z</time></trkpt><trkpt lat="43.12845528182556" lon="11.609122261822252"><ele>369.0</ele><time>2026-05-02T14:29:38.999Z</time></trkpt><trkpt lat="43.12839263221469" lon="11.608973959926066"><ele>369.0</ele><time>2026-05-02T14:29:39.999Z</time></trkpt><trkpt lat="43.12834054382836" lon="11.60881691997047"><ele>369.0</ele><time>2026-05-02T14:29:40.999Z</time></trkpt><trkpt lat="43.12828922530645" lon="11.608656712482222"><ele>369.0</ele><time>2026-05-02T14:29:41.999Z</time></trkpt><trkpt lat="43.128233753446324" lon="11.608496506703483"><ele>369.0</ele><time>2026-05-02T14:29:42.999Z</time></trkpt><trkpt lat="43.1281564820356" lon="11.608358490583345"><ele>367.0</ele><time>2026-05-02T14:29:43.999Z</time></trkpt><trkpt lat="43.12808280565576" lon="11.6082287126814"><ele>365.0</ele><time>2026-05-02T14:29:44.999Z</time></trkpt><trkpt lat="43.12800675606573" lon="11.608106490934073"><ele>363.0</ele><time>2026-05-02T14:29:45.999Z</time></trkpt><trkpt lat="43.127926144547814" lon="11.607989754754362"><ele>361.0</ele><time>2026-05-02T14:29:46.999Z</time></trkpt><trkpt lat="43.1278459872663" lon="11.607875850503495"><ele>363.25</ele><time>2026-05-02T14:29:47.999Z</time></trkpt><trkpt lat="43.12777555122565" lon="11.607751175288817"><ele>365.5</ele><time>2026-05-02T14:29:48.999Z</time></trkpt><trkpt lat="43.12771288222975" lon="11.607622043221046"><ele>367.75</ele><time>2026-05-02T14:29:49.999Z</time></trkpt><trkpt lat="43.12766113994535" lon="11.607484125039566"><ele>370.0</ele><time>2026-05-02T14:29:50.999Z</time></trkpt><trkpt lat="43.127617504171305" lon="11.60734112664961"><ele>370.0</ele><time>2026-05-02T14:29:51.999Z</time></trkpt><trkpt lat="43.127580778870346" lon="11.607204153520337"><ele>370.0</ele><time>2026-05-02T14:29:52.999Z</time></trkpt><trkpt lat="43.12754061153711" lon="11.607071816929816"><ele>370.0</ele><time>2026-05-02T14:29:53.999Z</time></trkpt><trkpt lat="43.12750148617837" lon="11.606945914795116"><ele>370.0</ele><time>2026-05-02T14:29:54.999Z</time></trkpt><trkpt lat="43.127468555887816" lon="11.606830565532947"><ele>370.0</ele><time>2026-05-02T14:29:55.999Z</time></trkpt><trkpt lat="43.12744034796483" lon="11.606721073125115"><ele>370.4</ele><time>2026-05-02T14:29:56.999Z</time></trkpt><trkpt lat="43.12741503263776" lon="11.606613258560973"><ele>370.8</ele><time>2026-05-02T14:29:57.999Z</time></trkpt><trkpt lat="43.12739084170874" lon="11.606496026630476"><ele>371.20000000000005</ele><time>2026-05-02T14:29:58.999Z</time></trkpt><trkpt lat="43.12737200115021" lon="11.606373233017809"><ele>371.6</ele><time>2026-05-02T14:29:59.999Z</time></trkpt><trkpt lat="43.127352268851794" lon="11.606240790814242"><ele>372.0</ele><time>2026-05-02T14:30:00.999Z</time></trkpt><trkpt lat="43.12732657308643" lon="11.606110448924872"><ele>370.0</ele><time>2026-05-02T14:30:01.999Z</time></trkpt><trkpt lat="43.127289599854315" lon="11.605979871665262"><ele>368.0</ele><time>2026-05-02T14:30:02.999Z</time></trkpt><trkpt lat="43.12724010191253" lon="11.605858940444277"><ele>366.0</ele><time>2026-05-02T14:30:03.999Z</time></trkpt><trkpt lat="43.12717783886418" lon="11.60574271605122"><ele>364.0</ele><time>2026-05-02T14:30:04.999Z</time></trkpt><trkpt lat="43.127105530902774" lon="11.605635054014336"><ele>362.0</ele><time>2026-05-02T14:30:05.999Z</time></trkpt><trkpt lat="43.12702560437388" lon="11.605541579633169"><ele>362.0</ele><time>2026-05-02T14:30:06.999Z</time></trkpt><trkpt lat="43.1269414652522" lon="11.605462558002007"><ele>362.0</ele><time>2026-05-02T14:30:07.999Z</time></trkpt><trkpt lat="43.12685646583625" lon="11.605389745552955"><ele>362.0</ele><time>2026-05-02T14:30:08.999Z</time></trkpt><trkpt lat="43.126772076496025" lon="11.605313326629025"><ele>362.0</ele><time>2026-05-02T14:30:09.999Z</time></trkpt><trkpt lat="43.12669148863538" lon="11.605237387086259"><ele>362.0</ele><time>2026-05-02T14:30:10.999Z</time></trkpt><trkpt lat="43.126610355859775" lon="11.605160678132869"><ele>361.8</ele><time>2026-05-02T14:30:11.999Z</time></trkpt><trkpt lat="43.126535444818266" lon="11.605072676533938"><ele>361.6</ele><time>2026-05-02T14:30:12.999Z</time></trkpt><trkpt lat="43.126465869343285" lon="11.604976261229131"><ele>361.40000000000003</ele><time>2026-05-02T14:30:13.999Z</time></trkpt><trkpt lat="43.12640507787643" lon="11.604869334130752"><ele>361.20000000000005</ele><time>2026-05-02T14:30:14.999Z</time></trkpt><trkpt lat="43.1263513378515" lon="11.604764357658434"><ele>361.0</ele><time>2026-05-02T14:30:15.999Z</time></trkpt><trkpt lat="43.12630426254101" lon="11.604653437380183"><ele>361.0</ele><time>2026-05-02T14:30:16.999Z</time></trkpt><trkpt lat="43.12626147967355" lon="11.604542988076082"><ele>361.0</ele><time>2026-05-02T14:30:17.999Z</time></trkpt><trkpt lat="43.1262181370105" lon="11.604428661225137"><ele>361.0</ele><time>2026-05-02T14:30:18.999Z</time></trkpt><trkpt lat="43.12617277343685" lon="11.604316858638406"><ele>361.0</ele><time>2026-05-02T14:30:19.999Z</time></trkpt><trkpt lat="43.12612586817565" lon="11.604205399939694"><ele>361.0</ele><time>2026-05-02T14:30:20.999Z</time></trkpt><trkpt lat="43.126079768208065" lon="11.604094208985051"><ele>361.8</ele><time>2026-05-02T14:30:21.999Z</time></trkpt><trkpt lat="43.12602986660773" lon="11.603978589598322"><ele>362.6</ele><time>2026-05-02T14:30:22.999Z</time></trkpt><trkpt lat="43.12598260936179" lon="11.603857566964217"><ele>363.4</ele><time>2026-05-02T14:30:23.999Z</time></trkpt><trkpt lat="43.125934928558316" lon="11.603742159236525"><ele>364.2</ele><time>2026-05-02T14:30:24.999Z</time></trkpt><trkpt lat="43.125888636849304" lon="11.603630114814376"><ele>365.0</ele><time>2026-05-02T14:30:25.999Z</time></trkpt><trkpt lat="43.12584112666227" lon="11.603515298109043"><ele>365.0</ele><time>2026-05-02T14:30:26.999Z</time></trkpt><trkpt lat="43.12579297870773" lon="11.60340127256535"><ele>365.0</ele><time>2026-05-02T14:30:27.999Z</time></trkpt><trkpt lat="43.125746413212156" lon="11.60328803450535"><ele>365.0</ele><time>2026-05-02T14:30:28.999Z</time></trkpt><trkpt lat="43.12569973493486" lon="11.603177632972455"><ele>365.0</ele><time>2026-05-02T14:30:29.999Z</time></trkpt><trkpt lat="43.1256549247218" lon="11.60307080931368"><ele>365.0</ele><time>2026-05-02T14:30:30.999Z</time></trkpt><trkpt lat="43.12561442005579" lon="11.602967965707785"><ele>364.5</ele><time>2026-05-02T14:30:31.999Z</time></trkpt><trkpt lat="43.125573652620986" lon="11.602868371551653"><ele>364.0</ele><time>2026-05-02T14:30:32.999Z</time></trkpt><trkpt lat="43.12553082795897" lon="11.602773004535024"><ele>363.5</ele><time>2026-05-02T14:30:33.999Z</time></trkpt><trkpt lat="43.125487352009955" lon="11.602676874630328"><ele>363.0</ele><time>2026-05-02T14:30:34.999Z</time></trkpt><trkpt lat="43.125446137898294" lon="11.602572558584146"><ele>362.5</ele><time>2026-05-02T14:30:35.999Z</time></trkpt><trkpt lat="43.12540485930604" lon="11.602466795919316"><ele>362.0</ele><time>2026-05-02T14:30:36.999Z</time></trkpt><trkpt lat="43.125363421929" lon="11.602367186918443"><ele>362.0</ele><time>2026-05-02T14:30:37.999Z</time></trkpt><trkpt lat="43.125322428628934" lon="11.60226604700196"><ele>362.0</ele><time>2026-05-02T14:30:38.999Z</time></trkpt><trkpt lat="43.12527856846126" lon="11.60216644455286"><ele>362.0</ele><time>2026-05-02T14:30:39.999Z</time></trkpt><trkpt lat="43.125233964294075" lon="11.602063696882183"><ele>362.0</ele><time>2026-05-02T14:30:40.999Z</time></trkpt><trkpt lat="43.125192847934954" lon="11.601959922969442"><ele>362.0</ele><time>2026-05-02T14:30:41.999Z</time></trkpt><trkpt lat="43.12515454040632" lon="11.601855583592823"><ele>362.0</ele><time>2026-05-02T14:30:43Z</time></trkpt><trkpt lat="43.12511295482905" lon="11.601750408842667"><ele>363.0</ele><time>2026-05-02T14:30:44Z</time></trkpt><trkpt lat="43.125072833400296" lon="11.601638711636868"><ele>364.0</ele><time>2026-05-02T14:30:45Z</time></trkpt><trkpt lat="43.12503262046321" lon="11.601529746631785"><ele>365.0</ele><time>2026-05-02T14:30:46Z</time></trkpt><trkpt lat="43.12499496164867" lon="11.601416625572561"><ele>366.0</ele><time>2026-05-02T14:30:47Z</time></trkpt><trkpt lat="43.12495619113255" lon="11.601300159654409"><ele>367.0</ele><time>2026-05-02T14:30:48Z</time></trkpt><trkpt lat="43.12491606336328" lon="11.601190909500346"><ele>366.20000000000005</ele><time>2026-05-02T14:30:49Z</time></trkpt><trkpt lat="43.1248796044443" lon="11.601076492065333"><ele>365.4</ele><time>2026-05-02T14:30:50Z</time></trkpt><trkpt lat="43.12484090156123" lon="11.600963351649414"><ele>364.6</ele><time>2026-05-02T14:30:51Z</time></trkpt><trkpt lat="43.124803865331906" lon="11.600854511221046"><ele>363.79999999999995</ele><time>2026-05-02T14:30:52Z</time></trkpt><trkpt lat="43.12476599643288" lon="11.6007439322169"><ele>363.0</ele><time>2026-05-02T14:30:53Z</time></trkpt><trkpt lat="43.12472461547237" lon="11.600633257808772"><ele>363.0</ele><time>2026-05-02T14:30:54Z</time></trkpt><trkpt lat="43.1246810181904" lon="11.600527786716539"><ele>363.0</ele><time>2026-05-02T14:30:55Z</time></trkpt><trkpt lat="43.12463501313428" lon="11.600429653837441"><ele>363.0</ele><time>2026-05-02T14:30:56Z</time></trkpt><trkpt lat="43.12458862017796" lon="11.60033720416838"><ele>363.0</ele><time>2026-05-02T14:30:57Z</time></trkpt><trkpt lat="43.12453959982327" lon="11.600245629016994"><ele>363.0</ele><time>2026-05-02T14:30:58Z</time></trkpt><trkpt lat="43.124488930551955" lon="11.600158704941318"><ele>363.0</ele><time>2026-05-02T14:30:59Z</time></trkpt><trkpt lat="43.12443896316555" lon="11.60006161678284"><ele>364.59999999999997</ele><time>2026-05-02T14:31:00Z</time></trkpt><trkpt lat="43.12439047860366" lon="11.599968463623034"><ele>366.2</ele><time>2026-05-02T14:31:01Z</time></trkpt><trkpt lat="43.124338370495174" lon="11.599871894912008"><ele>367.8</ele><time>2026-05-02T14:31:02Z</time></trkpt><trkpt lat="43.124282596921994" lon="11.599770536332827"><ele>369.4</ele><time>2026-05-02T14:31:03Z</time></trkpt><trkpt lat="43.124224463816184" lon="11.59966491312366"><ele>371.0</ele><time>2026-05-02T14:31:04Z</time></trkpt><trkpt lat="43.1241653726727" lon="11.599559463257853"><ele>370.8</ele><time>2026-05-02T14:31:05Z</time></trkpt><trkpt lat="43.12411193110033" lon="11.599452499634602"><ele>370.6</ele><time>2026-05-02T14:31:06Z</time></trkpt><trkpt lat="43.124067636543224" lon="11.599343800658467"><ele>370.4</ele><time>2026-05-02T14:31:07Z</time></trkpt><trkpt lat="43.12403775392876" lon="11.599225526165021"><ele>370.2</ele><time>2026-05-02T14:31:08Z</time></trkpt><trkpt lat="43.12402729446735" lon="11.599093684853576"><ele>370.0</ele><time>2026-05-02T14:31:09Z</time></trkpt><trkpt lat="43.12404544608953" lon="11.598952892325256"><ele>369.6</ele><time>2026-05-02T14:31:10Z</time></trkpt><trkpt lat="43.12411199851559" lon="11.598832157408957"><ele>369.2</ele><time>2026-05-02T14:31:11Z</time></trkpt><trkpt lat="43.12415467040149" lon="11.598691246192613"><ele>368.79999999999995</ele><time>2026-05-02T14:31:12Z</time></trkpt><trkpt lat="43.124213660420516" lon="11.598560303897523"><ele>368.4</ele><time>2026-05-02T14:31:13Z</time></trkpt><trkpt lat="43.124259106354494" lon="11.598435336245267"><ele>368.0</ele><time>2026-05-02T14:31:14Z</time></trkpt><trkpt lat="43.12429768459522" lon="11.59830751888736"><ele>368.0</ele><time>2026-05-02T14:31:15Z</time></trkpt><trkpt lat="43.12433376042152" lon="11.598173213750137"><ele>368.0</ele><time>2026-05-02T14:31:16Z</time></trkpt><trkpt lat="43.124358846706755" lon="11.598033389021461"><ele>368.0</ele><time>2026-05-02T14:31:17Z</time></trkpt><trkpt lat="43.12435921252095" lon="11.597882660536278"><ele>368.0</ele><time>2026-05-02T14:31:18Z</time></trkpt><trkpt lat="43.124374787453206" lon="11.597734232773098"><ele>368.0</ele><time>2026-05-02T14:31:19Z</time></trkpt><trkpt lat="43.12436176733482" lon="11.59757513397751"><ele>367.59999999999997</ele><time>2026-05-02T14:31:20Z</time></trkpt><trkpt lat="43.124372028261426" lon="11.597417958019678"><ele>367.2</ele><time>2026-05-02T14:31:21Z</time></trkpt><trkpt lat="43.124378586151735" lon="11.597260174925117"><ele>366.8</ele><time>2026-05-02T14:31:22Z</time></trkpt><trkpt lat="43.12438832850665" lon="11.597110980247098"><ele>366.4</ele><time>2026-05-02T14:31:23Z</time></trkpt><trkpt lat="43.12439557871791" lon="11.596971272047382"><ele>366.0</ele><time>2026-05-02T14:31:24Z</time></trkpt><trkpt lat="43.124398582749365" lon="11.596832086666248"><ele>364.6</ele><time>2026-05-02T14:31:25Z</time></trkpt><trkpt lat="43.12442452876978" lon="11.596692099469267"><ele>363.20000000000005</ele><time>2026-05-02T14:31:26Z</time></trkpt><trkpt lat="43.12443584982063" lon="11.596544737255426"><ele>361.79999999999995</ele><time>2026-05-02T14:31:27Z</time></trkpt><trkpt lat="43.124448097733485" lon="11.59639362037856"><ele>360.4</ele><time>2026-05-02T14:31:28Z</time></trkpt><trkpt lat="43.124454951245355" lon="11.59624764369864"><ele>359.0</ele><time>2026-05-02T14:31:29Z</time></trkpt><trkpt lat="43.12446772200967" lon="11.596108124946337"><ele>359.0</ele><time>2026-05-02T14:31:30Z</time></trkpt><trkpt lat="43.12448302457698" lon="11.595971945851568"><ele>359.0</ele><time>2026-05-02T14:31:31Z</time></trkpt><trkpt lat="43.12449752580752" lon="11.595837016122124"><ele>359.0</ele><time>2026-05-02T14:31:31.999Z</time></trkpt><trkpt lat="43.124502320122694" lon="11.595705752336416"><ele>359.0</ele><time>2026-05-02T14:31:32.999Z</time></trkpt><trkpt lat="43.12449429167583" lon="11.595575382973701"><ele>359.0</ele><time>2026-05-02T14:31:33.999Z</time></trkpt><trkpt lat="43.12447498045682" lon="11.595444135266037"><ele>360.0</ele><time>2026-05-02T14:31:34.999Z</time></trkpt><trkpt lat="43.12444864449405" lon="11.595315294621647"><ele>361.0</ele><time>2026-05-02T14:31:35.999Z</time></trkpt><trkpt lat="43.12441472223644" lon="11.595189758348528"><ele>362.0</ele><time>2026-05-02T14:31:36.999Z</time></trkpt><trkpt lat="43.12437798389929" lon="11.595064449243058"><ele>363.0</ele><time>2026-05-02T14:31:37.999Z</time></trkpt><trkpt lat="43.12435682085577" lon="11.594935935506141"><ele>364.0</ele><time>2026-05-02T14:31:38.999Z</time></trkpt><trkpt lat="43.12431918868376" lon="11.594813178318947"><ele>364.0</ele><time>2026-05-02T14:31:39.999Z</time></trkpt><trkpt lat="43.124281354034615" lon="11.594697398317708"><ele>364.0</ele><time>2026-05-02T14:31:40.999Z</time></trkpt><trkpt lat="43.12424270749779" lon="11.594580211197457"><ele>364.0</ele><time>2026-05-02T14:31:41.999Z</time></trkpt><trkpt lat="43.12420492487206" lon="11.594475209828806"><ele>364.0</ele><time>2026-05-02T14:31:42.999Z</time></trkpt><trkpt lat="43.12415692284646" lon="11.594393400897474"><ele>364.0</ele><time>2026-05-02T14:31:43.999Z</time></trkpt><trkpt lat="43.124128395943316" lon="11.594309486920476"><ele>364.0</ele><time>2026-05-02T14:31:44.999Z</time></trkpt><trkpt lat="43.12409833765097" lon="11.594158127999513"><ele>364.3333333333333</ele><time>2026-05-02T14:31:46.999Z</time></trkpt><trkpt lat="43.124092753708176" lon="11.594068999292688"><ele>364.66666666666663</ele><time>2026-05-02T14:31:47.999Z</time></trkpt><trkpt lat="43.12409164113124" lon="11.593971666022089"><ele>365.0</ele><time>2026-05-02T14:31:48.999Z</time></trkpt><trkpt lat="43.124118377224534" lon="11.593878174544239"><ele>365.3333333333333</ele><time>2026-05-02T14:31:49.999Z</time></trkpt><trkpt lat="43.12412592398834" lon="11.59378335427865"><ele>365.6666666666667</ele><time>2026-05-02T14:31:50.999Z</time></trkpt><trkpt lat="43.12413124399292" lon="11.59369322502887"><ele>366.0</ele><time>2026-05-02T14:31:51.999Z</time></trkpt><trkpt lat="43.12414028435919" lon="11.593539663748208"><ele>366.6</ele><time>2026-05-02T14:31:53.999Z</time></trkpt><trkpt lat="43.12414513271408" lon="11.593412255035384"><ele>367.20000000000005</ele><time>2026-05-02T14:31:55.999Z</time></trkpt><trkpt lat="43.124136462580495" lon="11.593298408243818"><ele>367.79999999999995</ele><time>2026-05-02T14:31:58.999Z</time></trkpt><trkpt lat="43.12421812687238" lon="11.593202148690965"><ele>368.4</ele><time>2026-05-02T14:32:01.999Z</time></trkpt><trkpt lat="43.12432536020727" lon="11.593175870968189"><ele>369.0</ele><time>2026-05-02T14:32:03.999Z</time></trkpt><trkpt lat="43.12442895071818" lon="11.59312092103115"><ele>369.0</ele><time>2026-05-02T14:32:05.999Z</time></trkpt><trkpt lat="43.12449389949435" lon="11.593086423425618"><ele>369.0</ele><time>2026-05-02T14:32:06.999Z</time></trkpt><trkpt lat="43.12456835746805" lon="11.593052227716845"><ele>369.0</ele><time>2026-05-02T14:32:07.999Z</time></trkpt><trkpt lat="43.12464895615193" lon="11.593006102770358"><ele>369.0</ele><time>2026-05-02T14:32:08.999Z</time></trkpt><trkpt lat="43.12473220517087" lon="11.592953902938014"><ele>369.0</ele><time>2026-05-02T14:32:09.999Z</time></trkpt><trkpt lat="43.12482321965648" lon="11.592905631443724"><ele>369.0</ele><time>2026-05-02T14:32:10.999Z</time></trkpt><trkpt lat="43.124916147940866" lon="11.592849859666703"><ele>370.0</ele><time>2026-05-02T14:32:11.999Z</time></trkpt><trkpt lat="43.125013164961196" lon="11.592794165114672"><ele>371.0</ele><time>2026-05-02T14:32:12.999Z</time></trkpt><trkpt lat="43.125116348593934" lon="11.59274193728067"><ele>372.0</ele><time>2026-05-02T14:32:13.999Z</time></trkpt><trkpt lat="43.12521977525011" lon="11.592693663840866"><ele>373.0</ele><time>2026-05-02T14:32:14.999Z</time></trkpt><trkpt lat="43.12532784123326" lon="11.592651383683679"><ele>374.0</ele><time>2026-05-02T14:32:15.999Z</time></trkpt><trkpt lat="43.12543234633984" lon="11.59261362254974"><ele>374.0</ele><time>2026-05-02T14:32:16.999Z</time></trkpt><trkpt lat="43.1255394262333" lon="11.592588374506343"><ele>374.0</ele><time>2026-05-02T14:32:17.999Z</time></trkpt><trkpt lat="43.125640893610026" lon="11.59256175826033"><ele>374.0</ele><time>2026-05-02T14:32:18.999Z</time></trkpt><trkpt lat="43.12573638862795" lon="11.592534979539474"><ele>374.0</ele><time>2026-05-02T14:32:19.999Z</time></trkpt><trkpt lat="43.12582303163707" lon="11.59251036445664"><ele>374.0</ele><time>2026-05-02T14:32:20.999Z</time></trkpt><trkpt lat="43.12591079194484" lon="11.592466707457566"><ele>371.6</ele><time>2026-05-02T14:32:21.999Z</time></trkpt><trkpt lat="43.125989199285506" lon="11.59241108889942"><ele>369.2</ele><time>2026-05-02T14:32:22.999Z</time></trkpt><trkpt lat="43.1260574959517" lon="11.592332229849351"><ele>366.8</ele><time>2026-05-02T14:32:23.999Z</time></trkpt><trkpt lat="43.126122397753846" lon="11.59222798957249"><ele>364.40000000000003</ele><time>2026-05-02T14:32:24.999Z</time></trkpt><trkpt lat="43.1261771519518" lon="11.592108598985378"><ele>362.0</ele><time>2026-05-02T14:32:25.999Z</time></trkpt><trkpt lat="43.12623282372819" lon="11.591984111474089"><ele>362.0</ele><time>2026-05-02T14:32:26.999Z</time></trkpt><trkpt lat="43.12628803308324" lon="11.591858643716288"><ele>362.0</ele><time>2026-05-02T14:32:27.999Z</time></trkpt><trkpt lat="43.126334508149085" lon="11.591737996360548"><ele>362.0</ele><time>2026-05-02T14:32:28.999Z</time></trkpt><trkpt lat="43.126375399902464" lon="11.591617753517317"><ele>362.0</ele><time>2026-05-02T14:32:29.999Z</time></trkpt><trkpt lat="43.12642473626159" lon="11.59152259293433"><ele>362.0</ele><time>2026-05-02T14:32:30.999Z</time></trkpt><trkpt lat="43.12645481218228" lon="11.591430543640973"><ele>362.0</ele><time>2026-05-02T14:32:31.999Z</time></trkpt><trkpt lat="43.126480669778196" lon="11.591328635297135"><ele>362.0</ele><time>2026-05-02T14:32:32.999Z</time></trkpt><trkpt lat="43.12648787644643" lon="11.591215587677498"><ele>362.0</ele><time>2026-05-02T14:32:33.999Z</time></trkpt><trkpt lat="43.1264718852572" lon="11.591096091646262"><ele>362.0</ele><time>2026-05-02T14:32:34.999Z</time></trkpt><trkpt lat="43.1264383277059" lon="11.590987216602278"><ele>362.0</ele><time>2026-05-02T14:32:35.999Z</time></trkpt><trkpt lat="43.12641136821819" lon="11.590882660831545"><ele>362.0</ele><time>2026-05-02T14:32:36.999Z</time></trkpt><trkpt lat="43.12637398255758" lon="11.590770386506271"><ele>360.1666666666667</ele><time>2026-05-02T14:32:37.999Z</time></trkpt><trkpt lat="43.1263455898361" lon="11.590680608103316"><ele>358.33333333333337</ele><time>2026-05-02T14:32:38.999Z</time></trkpt><trkpt lat="43.126324064854835" lon="11.590585400447893"><ele>356.5</ele><time>2026-05-02T14:32:39.999Z</time></trkpt><trkpt lat="43.12630448882135" lon="11.590465336390992"><ele>354.6666666666667</ele><time>2026-05-02T14:32:40.999Z</time></trkpt><trkpt lat="43.12630461212769" lon="11.590364532894654"><ele>352.8333333333333</ele><time>2026-05-02T14:32:41.999Z</time></trkpt><trkpt lat="43.12630092958629" lon="11.590259645783775"><ele>351.0</ele><time>2026-05-02T14:32:42.999Z</time></trkpt><trkpt lat="43.12633050583565" lon="11.590170114590618"><ele>350.0</ele><time>2026-05-02T14:32:43.999Z</time></trkpt><trkpt lat="43.126364136674816" lon="11.590094289901872"><ele>349.0</ele><time>2026-05-02T14:32:44.999Z</time></trkpt><trkpt lat="43.126407607661086" lon="11.590014083801076"><ele>348.0</ele><time>2026-05-02T14:32:45.999Z</time></trkpt><trkpt lat="43.126468267118526" lon="11.58992332601498"><ele>347.0</ele><time>2026-05-02T14:32:46.999Z</time></trkpt><trkpt lat="43.12650933857177" lon="11.589845171316648"><ele>346.0</ele><time>2026-05-02T14:32:47.999Z</time></trkpt><trkpt lat="43.12655701272481" lon="11.589756339078864"><ele>345.0</ele><time>2026-05-02T14:32:49Z</time></trkpt><trkpt lat="43.12661006012606" lon="11.589677202577485"><ele>345.0</ele><time>2026-05-02T14:32:50Z</time></trkpt><trkpt lat="43.12666869332344" lon="11.58960744822208"><ele>345.0</ele><time>2026-05-02T14:32:51Z</time></trkpt><trkpt lat="43.12672281451205" lon="11.589531210416084"><ele>345.0</ele><time>2026-05-02T14:32:52Z</time></trkpt><trkpt lat="43.12677328982742" lon="11.589450797927697"><ele>345.0</ele><time>2026-05-02T14:32:53Z</time></trkpt><trkpt lat="43.126827014500876" lon="11.589369167393508"><ele>345.0</ele><time>2026-05-02T14:32:54Z</time></trkpt><trkpt lat="43.12689106464484" lon="11.589286665110206"><ele>345.0</ele><time>2026-05-02T14:32:55Z</time></trkpt><trkpt lat="43.12695559172953" lon="11.589208787678057"><ele>343.8333333333333</ele><time>2026-05-02T14:32:56Z</time></trkpt><trkpt lat="43.127018267357805" lon="11.589121578163505"><ele>342.6666666666667</ele><time>2026-05-02T14:32:57Z</time></trkpt><trkpt lat="43.127076703421544" lon="11.589033033608752"><ele>341.5</ele><time>2026-05-02T14:32:58Z</time></trkpt><trkpt lat="43.127132200609594" lon="11.5889540745668"><ele>340.33333333333337</ele><time>2026-05-02T14:32:59Z</time></trkpt><trkpt lat="43.12718562264398" lon="11.588886310006195"><ele>339.1666666666667</ele><time>2026-05-02T14:33:00Z</time></trkpt><trkpt lat="43.12724303368781" lon="11.588805036238934"><ele>338.0</ele><time>2026-05-02T14:33:01Z</time></trkpt><trkpt lat="43.127312087454925" lon="11.588719521538502"><ele>337.59999999999997</ele><time>2026-05-02T14:33:02Z</time></trkpt><trkpt lat="43.12738500560074" lon="11.588626511092258"><ele>337.2</ele><time>2026-05-02T14:33:03Z</time></trkpt><trkpt lat="43.12745655462233" lon="11.588525152094858"><ele>336.8</ele><time>2026-05-02T14:33:04Z</time></trkpt><trkpt lat="43.12752492674755" lon="11.588421900455673"><ele>336.4</ele><time>2026-05-02T14:33:05Z</time></trkpt><trkpt lat="43.12759068694879" lon="11.588325634106086"><ele>336.0</ele><time>2026-05-02T14:33:06Z</time></trkpt><trkpt lat="43.12765821064843" lon="11.588237666025279"><ele>336.0</ele><time>2026-05-02T14:33:07Z</time></trkpt><trkpt lat="43.127723754986405" lon="11.588146726537985"><ele>336.0</ele><time>2026-05-02T14:33:08Z</time></trkpt><trkpt lat="43.12778149136593" lon="11.588048689146989"><ele>336.0</ele><time>2026-05-02T14:33:09Z</time></trkpt><trkpt lat="43.12782872790344" lon="11.587931931192896"><ele>336.0</ele><time>2026-05-02T14:33:10Z</time></trkpt><trkpt lat="43.12786094315097" lon="11.58779941741217"><ele>336.0</ele><time>2026-05-02T14:33:11Z</time></trkpt><trkpt lat="43.12789387389379" lon="11.587663514562182"><ele>335.6666666666667</ele><time>2026-05-02T14:33:12Z</time></trkpt><trkpt lat="43.12791563797585" lon="11.58752913203362"><ele>335.3333333333333</ele><time>2026-05-02T14:33:13Z</time></trkpt><trkpt lat="43.12793631385772" lon="11.587414784266027"><ele>335.0</ele><time>2026-05-02T14:33:14Z</time></trkpt><trkpt lat="43.12795619751253" lon="11.587310587785577"><ele>334.66666666666663</ele><time>2026-05-02T14:33:15Z</time></trkpt><trkpt lat="43.127973451035444" lon="11.587214047533536"><ele>334.3333333333333</ele><time>2026-05-02T14:33:16Z</time></trkpt><trkpt lat="43.12799037389226" lon="11.587117261683957"><ele>334.0</ele><time>2026-05-02T14:33:17Z</time></trkpt><trkpt lat="43.12800180382522" lon="11.587024434018595"><ele>333.57142857142856</ele><time>2026-05-02T14:33:18Z</time></trkpt><trkpt lat="43.128024622427205" lon="11.586937426712872"><ele>333.14285714285717</ele><time>2026-05-02T14:33:19Z</time></trkpt><trkpt lat="43.12804120653595" lon="11.58684556929242"><ele>332.7142857142857</ele><time>2026-05-02T14:33:20Z</time></trkpt><trkpt lat="43.128060294688694" lon="11.586740317255558"><ele>332.2857142857143</ele><time>2026-05-02T14:33:21Z</time></trkpt><trkpt lat="43.12808323256469" lon="11.586645157510855"><ele>331.85714285714283</ele><time>2026-05-02T14:33:22Z</time></trkpt><trkpt lat="43.12810493345159" lon="11.586546771085084"><ele>331.42857142857144</ele><time>2026-05-02T14:33:23Z</time></trkpt><trkpt lat="43.12812833792706" lon="11.586453678560998"><ele>331.0</ele><time>2026-05-02T14:33:24Z</time></trkpt><trkpt lat="43.1281546144397" lon="11.586352553585684"><ele>331.0</ele><time>2026-05-02T14:33:25Z</time></trkpt><trkpt lat="43.12818335500519" lon="11.586244635690694"><ele>331.0</ele><time>2026-05-02T14:33:26Z</time></trkpt><trkpt lat="43.128204926627205" lon="11.586142448900558"><ele>331.0</ele><time>2026-05-02T14:33:27Z</time></trkpt><trkpt lat="43.128221215112646" lon="11.586052860876892"><ele>331.0</ele><time>2026-05-02T14:33:28Z</time></trkpt><trkpt lat="43.128236436009054" lon="11.585956996415613"><ele>331.0</ele><time>2026-05-02T14:33:29Z</time></trkpt><trkpt lat="43.12824129479093" lon="11.585868638313302"><ele>331.0</ele><time>2026-05-02T14:33:32Z</time></trkpt><trkpt lat="43.128258969225996" lon="11.585757762535838"><ele>331.0</ele><time>2026-05-02T14:33:51.999Z</time></trkpt><trkpt lat="43.1282686491217" lon="11.585663699430183"><ele>329.6</ele><time>2026-05-02T14:33:52.999Z</time></trkpt><trkpt lat="43.12827910698279" lon="11.585550463174393"><ele>328.20000000000005</ele><time>2026-05-02T14:33:53.999Z</time></trkpt><trkpt lat="43.12828978999433" lon="11.58542625931685"><ele>326.79999999999995</ele><time>2026-05-02T14:33:54.999Z</time></trkpt><trkpt lat="43.12829795841468" lon="11.585291375876414"><ele>325.4</ele><time>2026-05-02T14:33:55.999Z</time></trkpt><trkpt lat="43.12830436221114" lon="11.585143019979329"><ele>324.0</ele><time>2026-05-02T14:33:56.999Z</time></trkpt><trkpt lat="43.128311696591254" lon="11.584986657190843"><ele>323.2</ele><time>2026-05-02T14:33:57.999Z</time></trkpt><trkpt lat="43.12831985308683" lon="11.58483675755858"><ele>322.4</ele><time>2026-05-02T14:33:58.999Z</time></trkpt><trkpt lat="43.12833006316062" lon="11.584694135250164"><ele>321.6</ele><time>2026-05-02T14:33:59.999Z</time></trkpt><trkpt lat="43.12834730015533" lon="11.584551588236485"><ele>320.8</ele><time>2026-05-02T14:34:00.999Z</time></trkpt><trkpt lat="43.128375919003425" lon="11.584411497300277"><ele>320.0</ele><time>2026-05-02T14:34:01.999Z</time></trkpt><trkpt lat="43.128420545782674" lon="11.584264792046243"><ele>318.0</ele><time>2026-05-02T14:34:02.999Z</time></trkpt><trkpt lat="43.12848517940501" lon="11.584128864001398"><ele>316.0</ele><time>2026-05-02T14:34:03.999Z</time></trkpt><trkpt lat="43.12856177267239" lon="11.583999893889386"><ele>314.0</ele><time>2026-05-02T14:34:04.999Z</time></trkpt><trkpt lat="43.1286422906501" lon="11.583897054900673"><ele>312.0</ele><time>2026-05-02T14:34:05.999Z</time></trkpt><trkpt lat="43.12874162189738" lon="11.583827747413915"><ele>312.0</ele><time>2026-05-02T14:34:06.999Z</time></trkpt><trkpt lat="43.12885137628932" lon="11.583767725790137"><ele>312.0</ele><time>2026-05-02T14:34:07.999Z</time></trkpt><trkpt lat="43.12895414422268" lon="11.583723555805747"><ele>312.0</ele><time>2026-05-02T14:34:08.999Z</time></trkpt><trkpt lat="43.12904332071172" lon="11.583663225409607"><ele>312.0</ele><time>2026-05-02T14:34:09.999Z</time></trkpt><trkpt lat="43.12910972922558" lon="11.58355515481563"><ele>312.0</ele><time>2026-05-02T14:34:10.999Z</time></trkpt><trkpt lat="43.129170430064924" lon="11.583441165296172"><ele>308.4</ele><time>2026-05-02T14:34:11.999Z</time></trkpt><trkpt lat="43.12921261549921" lon="11.583299286124625"><ele>304.79999999999995</ele><time>2026-05-02T14:34:12.999Z</time></trkpt><trkpt lat="43.12924665245973" lon="11.583167877218417"><ele>301.2</ele><time>2026-05-02T14:34:13.999Z</time></trkpt><trkpt lat="43.12927799337611" lon="11.583025280257965"><ele>297.59999999999997</ele><time>2026-05-02T14:34:14.999Z</time></trkpt><trkpt lat="43.12930668793701" lon="11.582873131678193"><ele>294.0</ele><time>2026-05-02T14:34:15.999Z</time></trkpt><trkpt lat="43.12933543955365" lon="11.582702090258392"><ele>290.3333333333333</ele><time>2026-05-02T14:34:16.999Z</time></trkpt><trkpt lat="43.12936117100609" lon="11.582512367865998"><ele>286.66666666666663</ele><time>2026-05-02T14:34:17.999Z</time></trkpt><trkpt lat="43.129388212793714" lon="11.582302331663662"><ele>283.0</ele><time>2026-05-02T14:34:18.999Z</time></trkpt><trkpt lat="43.1294160925488" lon="11.582090325628979"><ele>279.0</ele><time>2026-05-02T14:34:19.999Z</time></trkpt><trkpt lat="43.12944307745507" lon="11.581885122702914"><ele>275.0</ele><time>2026-05-02T14:34:20.999Z</time></trkpt><trkpt lat="43.129470594482896" lon="11.581677854911156"><ele>271.0</ele><time>2026-05-02T14:34:21.999Z</time></trkpt><trkpt lat="43.12949837123184" lon="11.581469421840014"><ele>271.0</ele><time>2026-05-02T14:34:22.999Z</time></trkpt><trkpt lat="43.12952556946438" lon="11.58126532988023"><ele>271.0</ele><time>2026-05-02T14:34:23.999Z</time></trkpt><trkpt lat="43.12955147195068" lon="11.581074750544353"><ele>271.0</ele><time>2026-05-02T14:34:24.999Z</time></trkpt><trkpt lat="43.12957581546746" lon="11.580896057733423"><ele>271.0</ele><time>2026-05-02T14:34:25.999Z</time></trkpt><trkpt lat="43.12959866357637" lon="11.580728341426894"><ele>269.25</ele><time>2026-05-02T14:34:26.999Z</time></trkpt><trkpt lat="43.12962068957871" lon="11.580563897138683"><ele>267.5</ele><time>2026-05-02T14:34:27.999Z</time></trkpt><trkpt lat="43.12964207210096" lon="11.580409478625704"><ele>265.75</ele><time>2026-05-02T14:34:28.999Z</time></trkpt><trkpt lat="43.129666309230345" lon="11.580254799510623"><ele>264.0</ele><time>2026-05-02T14:34:29.999Z</time></trkpt><trkpt lat="43.129692192256215" lon="11.580099880586536"><ele>263.5</ele><time>2026-05-02T14:34:30.999Z</time></trkpt><trkpt lat="43.1297302381011" lon="11.579927227449481"><ele>263.0</ele><time>2026-05-02T14:34:31.999Z</time></trkpt><trkpt lat="43.12979410861001" lon="11.579747835620722"><ele>262.5</ele><time>2026-05-02T14:34:32.999Z</time></trkpt><trkpt lat="43.129873367580814" lon="11.579563842123472"><ele>262.0</ele><time>2026-05-02T14:34:33.999Z</time></trkpt><trkpt lat="43.12995276470351" lon="11.579400193883416"><ele>262.0</ele><time>2026-05-02T14:34:34.999Z</time></trkpt><trkpt lat="43.13002485824013" lon="11.57924365068606"><ele>262.0</ele><time>2026-05-02T14:34:35.999Z</time></trkpt><trkpt lat="43.13009470548184" lon="11.579087998270827"><ele>262.0</ele><time>2026-05-02T14:34:36.999Z</time></trkpt><trkpt lat="43.130157498226964" lon="11.578929627066007"><ele>262.0</ele><time>2026-05-02T14:34:37.999Z</time></trkpt><trkpt lat="43.130189695178174" lon="11.578768726252552"><ele>261.6</ele><time>2026-05-02T14:34:38.999Z</time></trkpt><trkpt lat="43.130223354085125" lon="11.57862571482126"><ele>261.2</ele><time>2026-05-02T14:34:39.999Z</time></trkpt><trkpt lat="43.130258214650674" lon="11.57848692193181"><ele>260.8</ele><time>2026-05-02T14:34:40.999Z</time></trkpt><trkpt lat="43.13026075169163" lon="11.578340225570848"><ele>260.4</ele><time>2026-05-02T14:34:41.999Z</time></trkpt><trkpt lat="43.13025093825684" lon="11.57820500471646"><ele>260.0</ele><time>2026-05-02T14:34:42.999Z</time></trkpt><trkpt lat="43.13023178618253" lon="11.578086394314616"><ele>260.0</ele><time>2026-05-02T14:34:43.999Z</time></trkpt><trkpt lat="43.13019953773961" lon="11.57796801236749"><ele>260.0</ele><time>2026-05-02T14:34:44.999Z</time></trkpt><trkpt lat="43.13013134233963" lon="11.577852654774961"><ele>260.0</ele><time>2026-05-02T14:34:45.999Z</time></trkpt><trkpt lat="43.130066763483455" lon="11.577725386144285"><ele>260.0</ele><time>2026-05-02T14:34:46.999Z</time></trkpt><trkpt lat="43.13000664997917" lon="11.577588184489171"><ele>260.0</ele><time>2026-05-02T14:34:47.999Z</time></trkpt><trkpt lat="43.129913644101464" lon="11.57748175137595"><ele>258.25</ele><time>2026-05-02T14:34:48.999Z</time></trkpt><trkpt lat="43.12982610789517" lon="11.577377051149426"><ele>256.5</ele><time>2026-05-02T14:34:49.999Z</time></trkpt><trkpt lat="43.129739301704994" lon="11.577289260547916"><ele>254.75</ele><time>2026-05-02T14:34:50.999Z</time></trkpt><trkpt lat="43.1296219119307" lon="11.577292508433498"><ele>253.0</ele><time>2026-05-02T14:34:51.999Z</time></trkpt><trkpt lat="43.12950506745097" lon="11.577298664871577"><ele>253.0</ele><time>2026-05-02T14:34:52.999Z</time></trkpt><trkpt lat="43.12939192072386" lon="11.57726250110586"><ele>253.0</ele><time>2026-05-02T14:34:53.999Z</time></trkpt><trkpt lat="43.12929251355435" lon="11.577233757139183"><ele>253.0</ele><time>2026-05-02T14:34:55Z</time></trkpt><trkpt lat="43.129199872643966" lon="11.577167466962093"><ele>253.0</ele><time>2026-05-02T14:34:56Z</time></trkpt><trkpt lat="43.129141989903445" lon="11.577064383373994"><ele>253.0</ele><time>2026-05-02T14:34:57Z</time></trkpt><trkpt lat="43.129132867882596" lon="11.576969073818649"><ele>253.4</ele><time>2026-05-02T14:34:58Z</time></trkpt><trkpt lat="43.12911691679023" lon="11.576868180118804"><ele>253.8</ele><time>2026-05-02T14:34:59Z</time></trkpt><trkpt lat="43.12911093254284" lon="11.57674388354905"><ele>254.2</ele><time>2026-05-02T14:35:00Z</time></trkpt><trkpt lat="43.12910955170954" lon="11.57661029165662"><ele>254.6</ele><time>2026-05-02T14:35:01Z</time></trkpt><trkpt lat="43.12909946169926" lon="11.57646690569692"><ele>255.0</ele><time>2026-05-02T14:35:02Z</time></trkpt><trkpt lat="43.129105837695406" lon="11.576315254721454"><ele>255.75</ele><time>2026-05-02T14:35:03Z</time></trkpt><trkpt lat="43.12912767466766" lon="11.576160518543226"><ele>256.5</ele><time>2026-05-02T14:35:04Z</time></trkpt><trkpt lat="43.1291367903162" lon="11.576002957506871"><ele>257.25</ele><time>2026-05-02T14:35:05Z</time></trkpt><trkpt lat="43.12914650859209" lon="11.575847541434985"><ele>258.0</ele><time>2026-05-02T14:35:06Z</time></trkpt><trkpt lat="43.12915600278572" lon="11.575695708786498"><ele>258.0</ele><time>2026-05-02T14:35:07Z</time></trkpt><trkpt lat="43.129165843020104" lon="11.575546626883556"><ele>258.0</ele><time>2026-05-02T14:35:08Z</time></trkpt><trkpt lat="43.129159270327555" lon="11.575405966926184"><ele>258.0</ele><time>2026-05-02T14:35:09Z</time></trkpt><trkpt lat="43.12917446829013" lon="11.57528601554054"><ele>258.0</ele><time>2026-05-02T14:35:10Z</time></trkpt><trkpt lat="43.129177587505566" lon="11.575180193765584"><ele>258.0</ele><time>2026-05-02T14:35:11Z</time></trkpt><trkpt lat="43.1292280716662" lon="11.575027040348434"><ele>258.3333333333333</ele><time>2026-05-02T14:35:13Z</time></trkpt><trkpt lat="43.1292919715169" lon="11.57498035699198"><ele>258.6666666666667</ele><time>2026-05-02T14:35:14Z</time></trkpt><trkpt lat="43.129362106927914" lon="11.574933001718199"><ele>259.0</ele><time>2026-05-02T14:35:15Z</time></trkpt><trkpt lat="43.129436989883175" lon="11.57490627231458"><ele>259.33333333333337</ele><time>2026-05-02T14:35:16Z</time></trkpt><trkpt lat="43.12950201263893" lon="11.574861102806098"><ele>259.6666666666667</ele><time>2026-05-02T14:35:17Z</time></trkpt><trkpt lat="43.12957534566507" lon="11.574836314852858"><ele>260.0</ele><time>2026-05-02T14:35:18Z</time></trkpt><trkpt lat="43.1296597212218" lon="11.574830722261005"><ele>260.0</ele><time>2026-05-02T14:35:19Z</time></trkpt><trkpt lat="43.12975516287935" lon="11.574853594272474"><ele>260.0</ele><time>2026-05-02T14:35:20Z</time></trkpt><trkpt lat="43.12985743762026" lon="11.574887390531885"><ele>260.0</ele><time>2026-05-02T14:35:21Z</time></trkpt><trkpt lat="43.129970515475364" lon="11.57491824747878"><ele>260.0</ele><time>2026-05-02T14:35:22Z</time></trkpt><trkpt lat="43.1300947205412" lon="11.57494974889127"><ele>260.0</ele><time>2026-05-02T14:35:23Z</time></trkpt><trkpt lat="43.13022718568101" lon="11.574985922226356"><ele>260.0</ele><time>2026-05-02T14:35:24Z</time></trkpt><trkpt lat="43.13036692058623" lon="11.57502482108339"><ele>260.0</ele><time>2026-05-02T14:35:25Z</time></trkpt><trkpt lat="43.13050997529818" lon="11.575062280232077"><ele>260.0</ele><time>2026-05-02T14:35:26Z</time></trkpt><trkpt lat="43.13065704726148" lon="11.575102906533035"><ele>260.0</ele><time>2026-05-02T14:35:27Z</time></trkpt><trkpt lat="43.13081188693913" lon="11.57514702791926"><ele>260.33333333333337</ele><time>2026-05-02T14:35:28Z</time></trkpt><trkpt lat="43.130975479820414" lon="11.57519096731708"><ele>260.6666666666667</ele><time>2026-05-02T14:35:28.999Z</time></trkpt><trkpt lat="43.131151190016745" lon="11.575238462997113"><ele>261.0</ele><time>2026-05-02T14:35:29.999Z</time></trkpt><trkpt lat="43.13132301087726" lon="11.575283580098828"><ele>261.0</ele><time>2026-05-02T14:35:30.999Z</time></trkpt><trkpt lat="43.131498480846375" lon="11.575330058920457"><ele>261.0</ele><time>2026-05-02T14:35:31.999Z</time></trkpt><trkpt lat="43.13165662886433" lon="11.575369424789473"><ele>261.0</ele><time>2026-05-02T14:35:32.999Z</time></trkpt><trkpt lat="43.13182486130373" lon="11.575415127033812"><ele>261.6666666666667</ele><time>2026-05-02T14:35:33.999Z</time></trkpt><trkpt lat="43.13199664671702" lon="11.575458411620524"><ele>262.33333333333337</ele><time>2026-05-02T14:35:34.999Z</time></trkpt><trkpt lat="43.13216311508907" lon="11.575503766832986"><ele>263.0</ele><time>2026-05-02T14:35:35.999Z</time></trkpt><trkpt lat="43.13232995427079" lon="11.57555174812761"><ele>263.6666666666667</ele><time>2026-05-02T14:35:36.999Z</time></trkpt><trkpt lat="43.132493824619566" lon="11.575608028160882"><ele>264.3333333333333</ele><time>2026-05-02T14:35:37.999Z</time></trkpt><trkpt lat="43.13266005465729" lon="11.575663977755642"><ele>265.0</ele><time>2026-05-02T14:35:38.999Z</time></trkpt><trkpt lat="43.13282756932376" lon="11.575710227348916"><ele>265.0</ele><time>2026-05-02T14:35:39.999Z</time></trkpt><trkpt lat="43.1329907447622" lon="11.57575894724526"><ele>265.0</ele><time>2026-05-02T14:35:40.999Z</time></trkpt><trkpt lat="43.133155956013304" lon="11.575816925595323"><ele>265.0</ele><time>2026-05-02T14:35:41.999Z</time></trkpt><trkpt lat="43.13331993850767" lon="11.575871870356272"><ele>265.0</ele><time>2026-05-02T14:35:42.999Z</time></trkpt><trkpt lat="43.13348376506528" lon="11.575931065198315"><ele>265.0</ele><time>2026-05-02T14:35:43.999Z</time></trkpt><trkpt lat="43.133647390379366" lon="11.575983347412922"><ele>265.0</ele><time>2026-05-02T14:35:44.999Z</time></trkpt><trkpt lat="43.13381243331213" lon="11.576032669549495"><ele>265.0</ele><time>2026-05-02T14:35:45.999Z</time></trkpt><trkpt lat="43.13398354029181" lon="11.576091097634936"><ele>265.0</ele><time>2026-05-02T14:35:46.999Z</time></trkpt><trkpt lat="43.134151888356755" lon="11.576147656250386"><ele>265.0</ele><time>2026-05-02T14:35:47.999Z</time></trkpt><trkpt lat="43.13431290258456" lon="11.57619971943931"><ele>263.66666666666663</ele><time>2026-05-02T14:35:48.999Z</time></trkpt><trkpt lat="43.13447318244629" lon="11.576246637828456"><ele>262.3333333333333</ele><time>2026-05-02T14:35:49.999Z</time></trkpt><trkpt lat="43.13462570646152" lon="11.576296396423999"><ele>261.0</ele><time>2026-05-02T14:35:50.999Z</time></trkpt><trkpt lat="43.13477391162636" lon="11.57635508558438"><ele>261.6666666666667</ele><time>2026-05-02T14:35:51.999Z</time></trkpt><trkpt lat="43.1349109466555" lon="11.576451139209237"><ele>262.33333333333337</ele><time>2026-05-02T14:35:52.999Z</time></trkpt><trkpt lat="43.13504718060614" lon="11.576536001461271"><ele>263.0</ele><time>2026-05-02T14:35:53.999Z</time></trkpt><trkpt lat="43.135181175069945" lon="11.57661794979265"><ele>263.0</ele><time>2026-05-02T14:35:54.999Z</time></trkpt><trkpt lat="43.135309077807115" lon="11.576729730046818"><ele>263.0</ele><time>2026-05-02T14:35:55.999Z</time></trkpt><trkpt lat="43.13543440492845" lon="11.576841897374528"><ele>263.0</ele><time>2026-05-02T14:35:56.999Z</time></trkpt><trkpt lat="43.13556108713021" lon="11.576958322134903"><ele>262.6666666666667</ele><time>2026-05-02T14:35:57.999Z</time></trkpt><trkpt lat="43.13568551809501" lon="11.577074790454212"><ele>262.3333333333333</ele><time>2026-05-02T14:35:58.999Z</time></trkpt><trkpt lat="43.135818284669206" lon="11.577189516675968"><ele>262.0</ele><time>2026-05-02T14:35:59.999Z</time></trkpt><trkpt lat="43.13594475694271" lon="11.577325916420882"><ele>262.0</ele><time>2026-05-02T14:36:00.999Z</time></trkpt><trkpt lat="43.13608301163033" lon="11.577449813545817"><ele>262.0</ele><time>2026-05-02T14:36:01.999Z</time></trkpt><trkpt lat="43.13622056462075" lon="11.577573081595325"><ele>262.0</ele><time>2026-05-02T14:36:02.999Z</time></trkpt><trkpt lat="43.13635533927131" lon="11.577693859950983"><ele>262.0</ele><time>2026-05-02T14:36:03.999Z</time></trkpt><trkpt lat="43.13649776950421" lon="11.577795145232054"><ele>262.0</ele><time>2026-05-02T14:36:04.999Z</time></trkpt><trkpt lat="43.13662936895552" lon="11.577911753700318"><ele>262.0</ele><time>2026-05-02T14:36:05.999Z</time></trkpt><trkpt lat="43.136758564635365" lon="11.578026857548119"><ele>262.5</ele><time>2026-05-02T14:36:06.999Z</time></trkpt><trkpt lat="43.136884883108564" lon="11.578141899318464"><ele>263.0</ele><time>2026-05-02T14:36:07.999Z</time></trkpt><trkpt lat="43.13699973606219" lon="11.578272558393898"><ele>263.5</ele><time>2026-05-02T14:36:08.999Z</time></trkpt><trkpt lat="43.13711768091737" lon="11.578379111641713"><ele>264.0</ele><time>2026-05-02T14:36:09.999Z</time></trkpt><trkpt lat="43.13722971123282" lon="11.578480164958922"><ele>264.0</ele><time>2026-05-02T14:36:10.999Z</time></trkpt><trkpt lat="43.137328220143615" lon="11.578569021797287"><ele>264.0</ele><time>2026-05-02T14:36:11.999Z</time></trkpt><trkpt lat="43.137406972090744" lon="11.578640057430817"><ele>264.0</ele><time>2026-05-02T14:36:12.999Z</time></trkpt><trkpt lat="43.13746886768094" lon="11.578695888424976"><ele>264.0</ele><time>2026-05-02T14:36:13.999Z</time></trkpt><trkpt lat="43.13753739571324" lon="11.578757701866351"><ele>264.0</ele><time>2026-05-02T14:36:15.999Z</time></trkpt><trkpt lat="43.13760939568543" lon="11.578822631351915"><ele>264.1666666666667</ele><time>2026-05-02T14:36:29.999Z</time></trkpt><trkpt lat="43.13767799574783" lon="11.578699987043445"><ele>264.3333333333333</ele><time>2026-05-02T14:36:30.999Z</time></trkpt><trkpt lat="43.13770462980288" lon="11.578603495831358"><ele>264.5</ele><time>2026-05-02T14:36:31.999Z</time></trkpt><trkpt lat="43.13773827353938" lon="11.578516624885232"><ele>264.66666666666663</ele><time>2026-05-02T14:36:32.999Z</time></trkpt><trkpt lat="43.13778426121715" lon="11.578434425908952"><ele>264.8333333333333</ele><time>2026-05-02T14:36:33.999Z</time></trkpt><trkpt lat="43.137839721808724" lon="11.578333418786533"><ele>265.0</ele><time>2026-05-02T14:36:34.999Z</time></trkpt><trkpt lat="43.13791221413559" lon="11.578243102140153"><ele>265.2</ele><time>2026-05-02T14:36:35.999Z</time></trkpt><trkpt lat="43.137973196558725" lon="11.57813845077735"><ele>265.4</ele><time>2026-05-02T14:36:36.999Z</time></trkpt><trkpt lat="43.13803922065027" lon="11.578026087453186"><ele>265.6</ele><time>2026-05-02T14:36:37.999Z</time></trkpt><trkpt lat="43.13810473784261" lon="11.577914586910717"><ele>265.8</ele><time>2026-05-02T14:36:38.999Z</time></trkpt><trkpt lat="43.13817450434393" lon="11.57779652489316"><ele>266.0</ele><time>2026-05-02T14:36:39.999Z</time></trkpt><trkpt lat="43.138244946409664" lon="11.577677790323776"><ele>268.25</ele><time>2026-05-02T14:36:40.999Z</time></trkpt><trkpt lat="43.13832032561802" lon="11.577550734170202"><ele>270.5</ele><time>2026-05-02T14:36:41.999Z</time></trkpt><trkpt lat="43.138398094112425" lon="11.577426501822616"><ele>272.75</ele><time>2026-05-02T14:36:42.999Z</time></trkpt><trkpt lat="43.138476654876044" lon="11.577299752583135"><ele>275.0</ele><time>2026-05-02T14:36:43.999Z</time></trkpt><trkpt lat="43.13855382054331" lon="11.577169898497486"><ele>275.0</ele><time>2026-05-02T14:36:44.999Z</time></trkpt><trkpt lat="43.13862613856002" lon="11.577044183083395"><ele>275.0</ele><time>2026-05-02T14:36:45.999Z</time></trkpt><trkpt lat="43.13868806165675" lon="11.576922082172395"><ele>275.0</ele><time>2026-05-02T14:36:46.999Z</time></trkpt><trkpt lat="43.13873556397259" lon="11.576794407606863"><ele>275.0</ele><time>2026-05-02T14:36:47.999Z</time></trkpt><trkpt lat="43.13876956606299" lon="11.576653531967189"><ele>275.0</ele><time>2026-05-02T14:36:48.999Z</time></trkpt><trkpt lat="43.1387874066305" lon="11.576502387659623"><ele>275.75</ele><time>2026-05-02T14:36:49.999Z</time></trkpt><trkpt lat="43.138776427956564" lon="11.57634819558073"><ele>276.5</ele><time>2026-05-02T14:36:50.999Z</time></trkpt><trkpt lat="43.13877885949999" lon="11.576190276613241"><ele>277.25</ele><time>2026-05-02T14:36:51.999Z</time></trkpt><trkpt lat="43.138775664319084" lon="11.576029040449749"><ele>278.0</ele><time>2026-05-02T14:36:52.998Z</time></trkpt><trkpt lat="43.13878667959802" lon="11.575861475909718"><ele>279.75</ele><time>2026-05-02T14:36:53.998Z</time></trkpt><trkpt lat="43.13875856631863" lon="11.575697516667844"><ele>281.5</ele><time>2026-05-02T14:36:54.998Z</time></trkpt><trkpt lat="43.138732849726914" lon="11.575538717899622"><ele>283.25</ele><time>2026-05-02T14:36:55.998Z</time></trkpt><trkpt lat="43.13868248836846" lon="11.575394426938386"><ele>285.0</ele><time>2026-05-02T14:36:56.998Z</time></trkpt><trkpt lat="43.13860767547385" lon="11.575270185332657"><ele>288.25</ele><time>2026-05-02T14:36:57.998Z</time></trkpt><trkpt lat="43.13852084038196" lon="11.575159570961294"><ele>291.5</ele><time>2026-05-02T14:36:58.998Z</time></trkpt><trkpt lat="43.13842787802622" lon="11.57505848355613"><ele>294.75</ele><time>2026-05-02T14:37:00Z</time></trkpt><trkpt lat="43.13832795232973" lon="11.574958065138222"><ele>298.0</ele><time>2026-05-02T14:37:01Z</time></trkpt><trkpt lat="43.13823435677211" lon="11.574853725363266"><ele>298.75</ele><time>2026-05-02T14:37:02Z</time></trkpt><trkpt lat="43.13814174298098" lon="11.57474318234601"><ele>299.5</ele><time>2026-05-02T14:37:03Z</time></trkpt><trkpt lat="43.13807377163389" lon="11.574608019755326"><ele>300.25</ele><time>2026-05-02T14:37:04Z</time></trkpt><trkpt lat="43.138020891744745" lon="11.574474485600941"><ele>301.0</ele><time>2026-05-02T14:37:05Z</time></trkpt><trkpt lat="43.138011540288176" lon="11.574327485008132"><ele>301.0</ele><time>2026-05-02T14:37:06Z</time></trkpt><trkpt lat="43.13800798715958" lon="11.57416426645347"><ele>301.0</ele><time>2026-05-02T14:37:07Z</time></trkpt><trkpt lat="43.137976905047054" lon="11.573986490492922"><ele>301.0</ele><time>2026-05-02T14:37:08Z</time></trkpt><trkpt lat="43.13797187863945" lon="11.573813445895393"><ele>301.0</ele><time>2026-05-02T14:37:09Z</time></trkpt><trkpt lat="43.13796456277322" lon="11.573640940630886"><ele>300.25</ele><time>2026-05-02T14:37:10Z</time></trkpt><trkpt lat="43.137960830328126" lon="11.573473902691045"><ele>299.5</ele><time>2026-05-02T14:37:11Z</time></trkpt><trkpt lat="43.13795336523071" lon="11.57330551623576"><ele>298.75</ele><time>2026-05-02T14:37:12Z</time></trkpt><trkpt lat="43.13794511894725" lon="11.573134994506104"><ele>298.0</ele><time>2026-05-02T14:37:13Z</time></trkpt><trkpt lat="43.13796313235957" lon="11.572965920946816"><ele>297.0</ele><time>2026-05-02T14:37:14Z</time></trkpt><trkpt lat="43.13795811527612" lon="11.572792709395078"><ele>296.0</ele><time>2026-05-02T14:37:15Z</time></trkpt><trkpt lat="43.13795285131321" lon="11.572618354011318"><ele>295.0</ele><time>2026-05-02T14:37:16Z</time></trkpt><trkpt lat="43.13794908045866" lon="11.572460927302822"><ele>294.0</ele><time>2026-05-02T14:37:17Z</time></trkpt><trkpt lat="43.137952871700385" lon="11.57231498051179"><ele>294.0</ele><time>2026-05-02T14:37:18Z</time></trkpt><trkpt lat="43.13797212678344" lon="11.57218803618663"><ele>294.0</ele><time>2026-05-02T14:37:19Z</time></trkpt><trkpt lat="43.13800830444775" lon="11.572072531131614"><ele>294.0</ele><time>2026-05-02T14:37:20Z</time></trkpt><trkpt lat="43.13807974221994" lon="11.571981546877147"><ele>294.0</ele><time>2026-05-02T14:37:21Z</time></trkpt><trkpt lat="43.13817982737169" lon="11.571928155823782"><ele>294.0</ele><time>2026-05-02T14:37:22Z</time></trkpt><trkpt lat="43.13828675203407" lon="11.571869488808948"><ele>296.0</ele><time>2026-05-02T14:37:23Z</time></trkpt><trkpt lat="43.13839288076321" lon="11.571799221736592"><ele>298.0</ele><time>2026-05-02T14:37:24Z</time></trkpt><trkpt lat="43.138501891952004" lon="11.571723127480485"><ele>300.0</ele><time>2026-05-02T14:37:25Z</time></trkpt><trkpt lat="43.13859454024864" lon="11.571647352288236"><ele>302.0</ele><time>2026-05-02T14:37:26Z</time></trkpt><trkpt lat="43.13866808139747" lon="11.571540205102357"><ele>302.0</ele><time>2026-05-02T14:37:26.999Z</time></trkpt><trkpt lat="43.13869419616156" lon="11.571387374545814"><ele>302.0</ele><time>2026-05-02T14:37:27.999Z</time></trkpt><trkpt lat="43.13871859889301" lon="11.571246889826847"><ele>302.0</ele><time>2026-05-02T14:37:28.999Z</time></trkpt><trkpt lat="43.138739258182454" lon="11.571096191257045"><ele>302.0</ele><time>2026-05-02T14:37:29.999Z</time></trkpt><trkpt lat="43.13869124790136" lon="11.57094283830895"><ele>301.6</ele><time>2026-05-02T14:37:30.999Z</time></trkpt><trkpt lat="43.13863739645269" lon="11.570811718520849"><ele>301.2</ele><time>2026-05-02T14:37:31.999Z</time></trkpt><trkpt lat="43.13856767483786" lon="11.570696175684343"><ele>300.8</ele><time>2026-05-02T14:37:32.999Z</time></trkpt><trkpt lat="43.138512791005915" lon="11.570574349986863"><ele>300.4</ele><time>2026-05-02T14:37:33.999Z</time></trkpt><trkpt lat="43.13846964403881" lon="11.570454036276047"><ele>300.0</ele><time>2026-05-02T14:37:34.999Z</time></trkpt><trkpt lat="43.13844324198734" lon="11.570319876576773"><ele>301.25</ele><time>2026-05-02T14:37:35.999Z</time></trkpt><trkpt lat="43.138465429553825" lon="11.570177615968772"><ele>302.5</ele><time>2026-05-02T14:37:36.999Z</time></trkpt><trkpt lat="43.138502951163254" lon="11.570030678825296"><ele>303.75</ele><time>2026-05-02T14:37:37.999Z</time></trkpt><trkpt lat="43.13852921143945" lon="11.569863827667126"><ele>305.0</ele><time>2026-05-02T14:37:38.999Z</time></trkpt><trkpt lat="43.13853283867246" lon="11.569670153900601"><ele>305.25</ele><time>2026-05-02T14:37:39.999Z</time></trkpt><trkpt lat="43.13854779230225" lon="11.569476553404069"><ele>305.5</ele><time>2026-05-02T14:37:40.999Z</time></trkpt><trkpt lat="43.13853789643288" lon="11.569285290791468"><ele>305.75</ele><time>2026-05-02T14:37:41.999Z</time></trkpt><trkpt lat="43.13852126433558" lon="11.569101518341823"><ele>306.0</ele><time>2026-05-02T14:37:42.999Z</time></trkpt><trkpt lat="43.138495887832065" lon="11.568932025246594"><ele>306.0</ele><time>2026-05-02T14:37:43.999Z</time></trkpt><trkpt lat="43.13844840595068" lon="11.568786173787819"><ele>306.0</ele><time>2026-05-02T14:37:44.999Z</time></trkpt><trkpt lat="43.13837861735385" lon="11.568669477450587"><ele>306.0</ele><time>2026-05-02T14:37:45.999Z</time></trkpt><trkpt lat="43.13830583978898" lon="11.56854989192652"><ele>306.0</ele><time>2026-05-02T14:37:46.999Z</time></trkpt><trkpt lat="43.13821545202953" lon="11.56843037115752"><ele>300.0</ele><time>2026-05-02T14:37:47.999Z</time></trkpt><trkpt lat="43.138118041498174" lon="11.568320794525574"><ele>294.0</ele><time>2026-05-02T14:37:48.999Z</time></trkpt><trkpt lat="43.138037578950104" lon="11.568197932632437"><ele>288.0</ele><time>2026-05-02T14:37:49.999Z</time></trkpt><trkpt lat="43.13797060730932" lon="11.56808947963462"><ele>282.0</ele><time>2026-05-02T14:37:50.999Z</time></trkpt><trkpt lat="43.13791012633122" lon="11.567970523728482"><ele>283.75</ele><time>2026-05-02T14:37:51.999Z</time></trkpt><trkpt lat="43.13787320360163" lon="11.56783128720348"><ele>285.5</ele><time>2026-05-02T14:37:52.999Z</time></trkpt><trkpt lat="43.13787942676144" lon="11.567683335981652"><ele>287.25</ele><time>2026-05-02T14:37:53.999Z</time></trkpt><trkpt lat="43.13789542567187" lon="11.567506930920425"><ele>289.0</ele><time>2026-05-02T14:37:54.999Z</time></trkpt><trkpt lat="43.13792098264248" lon="11.567318557243494"><ele>289.0</ele><time>2026-05-02T14:37:55.999Z</time></trkpt><trkpt lat="43.137922975509305" lon="11.56712802154697"><ele>289.0</ele><time>2026-05-02T14:37:56.999Z</time></trkpt><trkpt lat="43.137938087102846" lon="11.566956107509379"><ele>289.0</ele><time>2026-05-02T14:37:57.999Z</time></trkpt><trkpt lat="43.1379422894288" lon="11.566788442174465"><ele>289.0</ele><time>2026-05-02T14:37:58.999Z</time></trkpt><trkpt lat="43.137930068803136" lon="11.566611437374052"><ele>288.75</ele><time>2026-05-02T14:37:59.999Z</time></trkpt><trkpt lat="43.13791594641228" lon="11.56643801244207"><ele>288.5</ele><time>2026-05-02T14:38:00.999Z</time></trkpt><trkpt lat="43.137902136866344" lon="11.566273731780633"><ele>288.25</ele><time>2026-05-02T14:38:01.999Z</time></trkpt><trkpt lat="43.13789209859428" lon="11.566109946154482"><ele>288.0</ele><time>2026-05-02T14:38:02.999Z</time></trkpt><trkpt lat="43.13788248916779" lon="11.565941522842122"><ele>288.0</ele><time>2026-05-02T14:38:03.999Z</time></trkpt><trkpt lat="43.137876353008586" lon="11.565769712847956"><ele>288.0</ele><time>2026-05-02T14:38:04.999Z</time></trkpt><trkpt lat="43.137871201035395" lon="11.565601905657832"><ele>288.0</ele><time>2026-05-02T14:38:05.999Z</time></trkpt><trkpt lat="43.13785961666104" lon="11.565435859673265"><ele>288.0</ele><time>2026-05-02T14:38:06.999Z</time></trkpt><trkpt lat="43.137827222384864" lon="11.565286982837026"><ele>288.0</ele><time>2026-05-02T14:38:07.999Z</time></trkpt><trkpt lat="43.13779501812328" lon="11.565129146055648"><ele>288.0</ele><time>2026-05-02T14:38:08.999Z</time></trkpt><trkpt lat="43.13774147631735" lon="11.564975365878668"><ele>288.0</ele><time>2026-05-02T14:38:09.999Z</time></trkpt><trkpt lat="43.13766850697599" lon="11.564841950652744"><ele>288.0</ele><time>2026-05-02T14:38:10.999Z</time></trkpt><trkpt lat="43.137622663400805" lon="11.564707768538982"><ele>288.0</ele><time>2026-05-02T14:38:11.999Z</time></trkpt><trkpt lat="43.137565415245305" lon="11.564597333154584"><ele>288.0</ele><time>2026-05-02T14:38:12.999Z</time></trkpt><trkpt lat="43.13751420857092" lon="11.56450054781519"><ele>288.0</ele><time>2026-05-02T14:38:13.999Z</time></trkpt><trkpt lat="43.1374554992687" lon="11.564431812767653"><ele>288.0</ele><time>2026-05-02T14:38:14.999Z</time></trkpt><trkpt lat="43.13741185337879" lon="11.564356434708877"><ele>288.0</ele><time>2026-05-02T14:38:15.999Z</time></trkpt><trkpt lat="43.13735260749729" lon="11.564306703318985"><ele>288.0</ele><time>2026-05-02T14:38:16.999Z</time></trkpt><trkpt lat="43.13727355447308" lon="11.564292554775495"><ele>284.2</ele><time>2026-05-02T14:38:17.999Z</time></trkpt><trkpt lat="43.137181529365556" lon="11.564315560808454"><ele>280.4</ele><time>2026-05-02T14:38:18.999Z</time></trkpt><trkpt lat="43.13709383210012" lon="11.564378694744844"><ele>276.59999999999997</ele><time>2026-05-02T14:38:19.999Z</time></trkpt><trkpt lat="43.13701636647764" lon="11.564460574151326"><ele>272.8</ele><time>2026-05-02T14:38:20.999Z</time></trkpt><trkpt lat="43.136955847460584" lon="11.564563779266713"><ele>269.0</ele><time>2026-05-02T14:38:21.999Z</time></trkpt><trkpt lat="43.13693095453091" lon="11.564692102120123"><ele>269.0</ele><time>2026-05-02T14:38:22.999Z</time></trkpt><trkpt lat="43.13692951003747" lon="11.564827949384595"><ele>269.0</ele><time>2026-05-02T14:38:23.999Z</time></trkpt><trkpt lat="43.136947682914766" lon="11.564952095149797"><ele>269.0</ele><time>2026-05-02T14:38:24.999Z</time></trkpt><trkpt lat="43.1369977172965" lon="11.565075939967455"><ele>269.0</ele><time>2026-05-02T14:38:25.999Z</time></trkpt><trkpt lat="43.13706847154772" lon="11.565213249905014"><ele>269.0</ele><time>2026-05-02T14:38:26.999Z</time></trkpt><trkpt lat="43.137138037260215" lon="11.565334148921396"><ele>268.59999999999997</ele><time>2026-05-02T14:38:27.999Z</time></trkpt><trkpt lat="43.13718871101113" lon="11.56544467655832"><ele>268.2</ele><time>2026-05-02T14:38:28.999Z</time></trkpt><trkpt lat="43.137205101508506" lon="11.56556239751126"><ele>267.79999999999995</ele><time>2026-05-02T14:38:29.999Z</time></trkpt><trkpt lat="43.13721085028978" lon="11.565692066210977"><ele>267.4</ele><time>2026-05-02T14:38:30.999Z</time></trkpt><trkpt lat="43.13720474629099" lon="11.565829099034273"><ele>267.0</ele><time>2026-05-02T14:38:31.999Z</time></trkpt><trkpt lat="43.13717961674487" lon="11.56595617767345"><ele>267.0</ele><time>2026-05-02T14:38:32.999Z</time></trkpt><trkpt lat="43.137127089357556" lon="11.566068178866153"><ele>267.0</ele><time>2026-05-02T14:38:33.999Z</time></trkpt><trkpt lat="43.137059729320136" lon="11.566167731285164"><ele>267.0</ele><time>2026-05-02T14:38:34.999Z</time></trkpt><trkpt lat="43.13697883051181" lon="11.566257101540536"><ele>267.0</ele><time>2026-05-02T14:38:35.999Z</time></trkpt><trkpt lat="43.136872472041645" lon="11.566330413723119"><ele>267.0</ele><time>2026-05-02T14:38:36.999Z</time></trkpt><trkpt lat="43.13674110178166" lon="11.566389641942434"><ele>267.8</ele><time>2026-05-02T14:38:37.999Z</time></trkpt><trkpt lat="43.13660526848002" lon="11.566434915520945"><ele>268.6</ele><time>2026-05-02T14:38:38.999Z</time></trkpt><trkpt lat="43.13648759876067" lon="11.56648161528389"><ele>269.40000000000003</ele><time>2026-05-02T14:38:39.999Z</time></trkpt><trkpt lat="43.13639713641787" lon="11.566526775612523"><ele>270.2</ele><time>2026-05-02T14:38:40.999Z</time></trkpt><trkpt lat="43.13632527998617" lon="11.566567133799719"><ele>271.0</ele><time>2026-05-02T14:38:41.999Z</time></trkpt><trkpt lat="43.13620324761969" lon="11.56656346344685"><ele>267.16666666666663</ele><time>2026-05-02T14:38:43.999Z</time></trkpt><trkpt lat="43.13613537804395" lon="11.566532947306287"><ele>263.3333333333333</ele><time>2026-05-02T14:38:44.999Z</time></trkpt><trkpt lat="43.136099215361874" lon="11.566452964916785"><ele>259.5</ele><time>2026-05-02T14:38:45.999Z</time></trkpt><trkpt lat="43.13606988039268" lon="11.566354234854026"><ele>255.66666666666669</ele><time>2026-05-02T14:38:46.999Z</time></trkpt><trkpt lat="43.13609976146364" lon="11.5662281917303"><ele>251.83333333333334</ele><time>2026-05-02T14:38:47.999Z</time></trkpt><trkpt lat="43.13619894474116" lon="11.566138571953697"><ele>248.0</ele><time>2026-05-02T14:38:48.999Z</time></trkpt><trkpt lat="43.13627906931384" lon="11.566034747633097"><ele>248.0</ele><time>2026-05-02T14:38:49.998Z</time></trkpt><trkpt lat="43.13633410157425" lon="11.56590514311111"><ele>248.0</ele><time>2026-05-02T14:38:50.998Z</time></trkpt><trkpt lat="43.13637948236037" lon="11.56580045541089"><ele>248.0</ele><time>2026-05-02T14:38:51.998Z</time></trkpt><trkpt lat="43.136406280764604" lon="11.565676382284703"><ele>248.0</ele><time>2026-05-02T14:38:52.998Z</time></trkpt><trkpt lat="43.13638529801759" lon="11.565531887950955"><ele>248.0</ele><time>2026-05-02T14:38:53.998Z</time></trkpt><trkpt lat="43.136328864190986" lon="11.565406415397346"><ele>247.4</ele><time>2026-05-02T14:38:54.998Z</time></trkpt><trkpt lat="43.13622574499073" lon="11.565322983790137"><ele>246.8</ele><time>2026-05-02T14:38:55.998Z</time></trkpt><trkpt lat="43.136145544328215" lon="11.56521380648344"><ele>246.2</ele><time>2026-05-02T14:38:56.998Z</time></trkpt><trkpt lat="43.1360851672114" lon="11.565123170052868"><ele>245.6</ele><time>2026-05-02T14:38:57.998Z</time></trkpt><trkpt lat="43.13605159475625" lon="11.565026969331603"><ele>245.0</ele><time>2026-05-02T14:38:58.998Z</time></trkpt><trkpt lat="43.136038775223135" lon="11.564894367508712"><ele>245.0</ele><time>2026-05-02T14:38:59.998Z</time></trkpt><trkpt lat="43.13605018795044" lon="11.564751593165848"><ele>245.0</ele><time>2026-05-02T14:39:00.998Z</time></trkpt><trkpt lat="43.136086813193714" lon="11.564597763502462"><ele>245.0</ele><time>2026-05-02T14:39:01.998Z</time></trkpt><trkpt lat="43.13615568597571" lon="11.564452498506565"><ele>245.0</ele><time>2026-05-02T14:39:02.998Z</time></trkpt><trkpt lat="43.136236764250846" lon="11.564275610071078"><ele>244.0</ele><time>2026-05-02T14:39:03.998Z</time></trkpt><trkpt lat="43.13630102700858" lon="11.564116843655855"><ele>243.0</ele><time>2026-05-02T14:39:04.998Z</time></trkpt><trkpt lat="43.136349486419405" lon="11.56397823195144"><ele>242.0</ele><time>2026-05-02T14:39:06Z</time></trkpt><trkpt lat="43.13636966502166" lon="11.563818511690538"><ele>241.0</ele><time>2026-05-02T14:39:07Z</time></trkpt><trkpt lat="43.13636893872807" lon="11.563641252410461"><ele>241.0</ele><time>2026-05-02T14:39:08Z</time></trkpt><trkpt lat="43.136346423172284" lon="11.563472070749693"><ele>241.0</ele><time>2026-05-02T14:39:09Z</time></trkpt><trkpt lat="43.13629703804299" lon="11.563331307196222"><ele>241.0</ele><time>2026-05-02T14:39:10Z</time></trkpt><trkpt lat="43.13621504739633" lon="11.563188762754251"><ele>241.0</ele><time>2026-05-02T14:39:11Z</time></trkpt><trkpt lat="43.136101008530275" lon="11.563043638423743"><ele>241.0</ele><time>2026-05-02T14:39:12Z</time></trkpt><trkpt lat="43.13596799291611" lon="11.56290015166503"><ele>241.0</ele><time>2026-05-02T14:39:13Z</time></trkpt><trkpt lat="43.135853400819684" lon="11.562746759040337"><ele>241.0</ele><time>2026-05-02T14:39:14Z</time></trkpt><trkpt lat="43.13573390959792" lon="11.562629587952463"><ele>237.75</ele><time>2026-05-02T14:39:15Z</time></trkpt><trkpt lat="43.13563527097797" lon="11.562503715843226"><ele>234.5</ele><time>2026-05-02T14:39:16Z</time></trkpt><trkpt lat="43.13555289741321" lon="11.56236150509909"><ele>231.25</ele><time>2026-05-02T14:39:17Z</time></trkpt><trkpt lat="43.13546635135374" lon="11.562235678507705"><ele>228.0</ele><time>2026-05-02T14:39:18Z</time></trkpt><trkpt lat="43.13537378222229" lon="11.56212050990124"><ele>229.25</ele><time>2026-05-02T14:39:19Z</time></trkpt><trkpt lat="43.135299485061" lon="11.561984180703805"><ele>230.5</ele><time>2026-05-02T14:39:20Z</time></trkpt><trkpt lat="43.13522679027805" lon="11.561850911327507"><ele>231.75</ele><time>2026-05-02T14:39:21Z</time></trkpt><trkpt lat="43.135158220168414" lon="11.56172296488561"><ele>233.0</ele><time>2026-05-02T14:39:22Z</time></trkpt><trkpt lat="43.13508508263001" lon="11.561584446697362"><ele>233.0</ele><time>2026-05-02T14:39:23Z</time></trkpt><trkpt lat="43.13500375140287" lon="11.56143679508389"><ele>233.0</ele><time>2026-05-02T14:39:24Z</time></trkpt><trkpt lat="43.13492018541809" lon="11.561276426980891"><ele>233.0</ele><time>2026-05-02T14:39:25Z</time></trkpt><trkpt lat="43.134852103862784" lon="11.561099801004618"><ele>233.0</ele><time>2026-05-02T14:39:26Z</time></trkpt><trkpt lat="43.13477333050754" lon="11.560946004202975"><ele>228.75</ele><time>2026-05-02T14:39:26.999Z</time></trkpt><trkpt lat="43.134696630465136" lon="11.560798015883956"><ele>224.5</ele><time>2026-05-02T14:39:27.999Z</time></trkpt><trkpt lat="43.134612390864014" lon="11.560637820630088"><ele>220.25</ele><time>2026-05-02T14:39:28.999Z</time></trkpt><trkpt lat="43.13452803620728" lon="11.560478089560347"><ele>216.0</ele><time>2026-05-02T14:39:29.999Z</time></trkpt><trkpt lat="43.134447059304975" lon="11.560327048550922"><ele>216.0</ele><time>2026-05-02T14:39:30.999Z</time></trkpt><trkpt lat="43.134369344923215" lon="11.56018376610278"><ele>216.0</ele><time>2026-05-02T14:39:31.999Z</time></trkpt><trkpt lat="43.13429414550006" lon="11.560045569038522"><ele>216.0</ele><time>2026-05-02T14:39:32.999Z</time></trkpt><trkpt lat="43.13421999556246" lon="11.559914601686833"><ele>216.0</ele><time>2026-05-02T14:39:33.999Z</time></trkpt><trkpt lat="43.13414731619627" lon="11.559789871053253"><ele>216.0</ele><time>2026-05-02T14:39:34.999Z</time></trkpt><trkpt lat="43.13408377295751" lon="11.559667909833161"><ele>216.0</ele><time>2026-05-02T14:39:35.999Z</time></trkpt><trkpt lat="43.13402411430047" lon="11.559537368803081"><ele>216.0</ele><time>2026-05-02T14:39:36.999Z</time></trkpt><trkpt lat="43.1340113310296" lon="11.55937465869665"><ele>216.0</ele><time>2026-05-02T14:39:37.999Z</time></trkpt><trkpt lat="43.134001234026144" lon="11.559207056186585"><ele>210.66666666666669</ele><time>2026-05-02T14:39:38.999Z</time></trkpt><trkpt lat="43.13400448306755" lon="11.559023025411436"><ele>205.33333333333334</ele><time>2026-05-02T14:39:39.999Z</time></trkpt><trkpt lat="43.1340104214946" lon="11.558810097049577"><ele>200.0</ele><time>2026-05-02T14:39:40.999Z</time></trkpt><trkpt lat="43.13401878154688" lon="11.558588132959404"><ele>200.0</ele><time>2026-05-02T14:39:41.999Z</time></trkpt><trkpt lat="43.13402629010878" lon="11.558388778432612"><ele>200.0</ele><time>2026-05-02T14:39:42.999Z</time></trkpt><trkpt lat="43.13403344135635" lon="11.558198910713282"><ele>200.0</ele><time>2026-05-02T14:39:43.999Z</time></trkpt><trkpt lat="43.13400634212881" lon="11.558007285157618"><ele>200.0</ele><time>2026-05-02T14:39:44.999Z</time></trkpt><trkpt lat="43.13399281195423" lon="11.557805664918957"><ele>200.0</ele><time>2026-05-02T14:39:45.999Z</time></trkpt><trkpt lat="43.133963873491375" lon="11.55759205597394"><ele>200.0</ele><time>2026-05-02T14:39:46.999Z</time></trkpt><trkpt lat="43.1339327670461" lon="11.55737396093445"><ele>200.0</ele><time>2026-05-02T14:39:47.999Z</time></trkpt><trkpt lat="43.1339002036013" lon="11.557169678428869"><ele>201.25</ele><time>2026-05-02T14:39:48.999Z</time></trkpt><trkpt lat="43.1338727890782" lon="11.556960365323034"><ele>202.5</ele><time>2026-05-02T14:39:49.999Z</time></trkpt><trkpt lat="43.133838460902666" lon="11.556760484832294"><ele>203.75</ele><time>2026-05-02T14:39:50.999Z</time></trkpt><trkpt lat="43.13380455353932" lon="11.556574511087677"><ele>205.0</ele><time>2026-05-02T14:39:51.999Z</time></trkpt><trkpt lat="43.13377440066754" lon="11.55640702610656"><ele>205.0</ele><time>2026-05-02T14:39:52.999Z</time></trkpt><trkpt lat="43.13374215038782" lon="11.556267870244715"><ele>205.0</ele><time>2026-05-02T14:39:53.999Z</time></trkpt><trkpt lat="43.13370632369662" lon="11.556155381375548"><ele>205.0</ele><time>2026-05-02T14:39:54.999Z</time></trkpt><trkpt lat="43.13366144935597" lon="11.556050612174491"><ele>205.0</ele><time>2026-05-02T14:39:55.999Z</time></trkpt><trkpt lat="43.13359573700238" lon="11.55596809956522"><ele>205.0</ele><time>2026-05-02T14:39:56.999Z</time></trkpt><trkpt lat="43.1335129750372" lon="11.55589124002879"><ele>207.0</ele><time>2026-05-02T14:39:57.999Z</time></trkpt><trkpt lat="43.13341884700905" lon="11.555846543896257"><ele>209.0</ele><time>2026-05-02T14:39:58.999Z</time></trkpt><trkpt lat="43.133316980109036" lon="11.555824295989185"><ele>211.0</ele><time>2026-05-02T14:39:59.999Z</time></trkpt><trkpt lat="43.13321710616428" lon="11.555832702987187"><ele>213.0</ele><time>2026-05-02T14:40:00.999Z</time></trkpt><trkpt lat="43.133123759680956" lon="11.555870167243176"><ele>215.0</ele><time>2026-05-02T14:40:01.999Z</time></trkpt><trkpt lat="43.13303987381392" lon="11.55592408675957"><ele>215.50000000000003</ele><time>2026-05-02T14:40:02.999Z</time></trkpt><trkpt lat="43.132965569339916" lon="11.555990461876359"><ele>216.0</ele><time>2026-05-02T14:40:03.999Z</time></trkpt><trkpt lat="43.132909225411716" lon="11.556072126143413"><ele>216.5</ele><time>2026-05-02T14:40:04.999Z</time></trkpt><trkpt lat="43.13286177874567" lon="11.556151448394269"><ele>217.0</ele><time>2026-05-02T14:40:05.999Z</time></trkpt><trkpt lat="43.1328140828085" lon="11.556228729501576"><ele>217.50000000000003</ele><time>2026-05-02T14:40:06.999Z</time></trkpt><trkpt lat="43.132763029373486" lon="11.55629606611745"><ele>218.0</ele><time>2026-05-02T14:40:07.999Z</time></trkpt><trkpt lat="43.13266839555124" lon="11.556423918961057"><ele>218.0</ele><time>2026-05-02T14:40:09.999Z</time></trkpt><trkpt lat="43.13262157400811" lon="11.55649342147457"><ele>218.0</ele><time>2026-05-02T14:40:10.999Z</time></trkpt><trkpt lat="43.13257274473741" lon="11.556569822964018"><ele>218.0</ele><time>2026-05-02T14:40:11.999Z</time></trkpt><trkpt lat="43.13252285978075" lon="11.556643072963217"><ele>218.0</ele><time>2026-05-02T14:40:12.999Z</time></trkpt><trkpt lat="43.132471025826234" lon="11.556717623684264"><ele>218.0</ele><time>2026-05-02T14:40:13.999Z</time></trkpt><trkpt lat="43.132420842628875" lon="11.55679630039149"><ele>218.0</ele><time>2026-05-02T14:40:14.999Z</time></trkpt><trkpt lat="43.13236860707955" lon="11.556868509674958"><ele>218.0</ele><time>2026-05-02T14:40:15.999Z</time></trkpt><trkpt lat="43.13229575730276" lon="11.556938199555969"><ele>217.2</ele><time>2026-05-02T14:40:16.999Z</time></trkpt><trkpt lat="43.13222264735537" lon="11.557002867859252"><ele>216.4</ele><time>2026-05-02T14:40:17.999Z</time></trkpt><trkpt lat="43.13214278908116" lon="11.557054657985033"><ele>215.59999999999997</ele><time>2026-05-02T14:40:18.999Z</time></trkpt><trkpt lat="43.13205382194879" lon="11.557094093578447"><ele>214.79999999999998</ele><time>2026-05-02T14:40:19.999Z</time></trkpt><trkpt lat="43.13194990070054" lon="11.557127964583474"><ele>214.0</ele><time>2026-05-02T14:40:20.999Z</time></trkpt><trkpt lat="43.13182898969529" lon="11.557172550621768"><ele>214.0</ele><time>2026-05-02T14:40:21.999Z</time></trkpt><trkpt lat="43.13170892338496" lon="11.557218727683617"><ele>213.99999999999997</ele><time>2026-05-02T14:40:22.999Z</time></trkpt><trkpt lat="43.131570387269456" lon="11.557259665143336"><ele>213.99999999999997</ele><time>2026-05-02T14:40:23.999Z</time></trkpt><trkpt lat="43.13154886037282" lon="11.557346363605141"><ele>214.0</ele><time>2026-05-02T14:40:24.999Z</time></trkpt><trkpt lat="43.13145831860202" lon="11.557382217252488"><ele>214.0</ele><time>2026-05-02T14:40:25.999Z</time></trkpt><trkpt lat="43.13136505111513" lon="11.557391529742391"><ele>213.6</ele><time>2026-05-02T14:40:26.999Z</time></trkpt><trkpt lat="43.131275133464456" lon="11.557372657201835"><ele>213.2</ele><time>2026-05-02T14:40:27.999Z</time></trkpt><trkpt lat="43.13119169915903" lon="11.557331242994636"><ele>212.79999999999998</ele><time>2026-05-02T14:40:28.999Z</time></trkpt><trkpt lat="43.13113003795394" lon="11.557259905591318"><ele>212.39999999999998</ele><time>2026-05-02T14:40:29.999Z</time></trkpt><trkpt lat="43.131071942168774" lon="11.557138684942592"><ele>212.0</ele><time>2026-05-02T14:40:30.999Z</time></trkpt><trkpt lat="43.131034728551356" lon="11.557008008757569"><ele>215.6</ele><time>2026-05-02T14:40:31.999Z</time></trkpt><trkpt lat="43.13102221163117" lon="11.556869361696512"><ele>219.2</ele><time>2026-05-02T14:40:32.999Z</time></trkpt><trkpt lat="43.13104208190634" lon="11.556734413742273"><ele>222.8</ele><time>2026-05-02T14:40:33.999Z</time></trkpt><trkpt lat="43.13110105397947" lon="11.556630492989107"><ele>226.4</ele><time>2026-05-02T14:40:34.999Z</time></trkpt><trkpt lat="43.131191170498255" lon="11.556540336993159"><ele>230.0</ele><time>2026-05-02T14:40:35.999Z</time></trkpt><trkpt lat="43.13130095589575" lon="11.556475142289253"><ele>230.0</ele><time>2026-05-02T14:40:36.999Z</time></trkpt><trkpt lat="43.13141999871851" lon="11.556407115218544"><ele>230.0</ele><time>2026-05-02T14:40:37.999Z</time></trkpt><trkpt lat="43.13153758827165" lon="11.5563271040539"><ele>230.0</ele><time>2026-05-02T14:40:38.999Z</time></trkpt><trkpt lat="43.13165488821896" lon="11.556232240743672"><ele>230.0</ele><time>2026-05-02T14:40:39.999Z</time></trkpt><trkpt lat="43.131786860937765" lon="11.556118800456652"><ele>234.33333333333334</ele><time>2026-05-02T14:40:40.999Z</time></trkpt><trkpt lat="43.131931880782936" lon="11.55598528256321"><ele>238.66666666666669</ele><time>2026-05-02T14:40:41.999Z</time></trkpt><trkpt lat="43.13208811038466" lon="11.555838490612922"><ele>243.0</ele><time>2026-05-02T14:40:42.999Z</time></trkpt><trkpt lat="43.13225484733464" lon="11.555665593609865"><ele>244.0</ele><time>2026-05-02T14:40:43.999Z</time></trkpt><trkpt lat="43.132420107784476" lon="11.555482378978954"><ele>245.0</ele><time>2026-05-02T14:40:44.999Z</time></trkpt><trkpt lat="43.132576302999844" lon="11.555317758066085"><ele>246.0</ele><time>2026-05-02T14:40:45.999Z</time></trkpt><trkpt lat="43.132688760613725" lon="11.555208225464732"><ele>246.0</ele><time>2026-05-02T14:40:46.999Z</time></trkpt><trkpt lat="43.13276850201556" lon="11.55511738571951"><ele>246.00000000000003</ele><time>2026-05-02T14:40:47.999Z</time></trkpt><trkpt lat="43.1328229175681" lon="11.55502272085992"><ele>246.00000000000003</ele><time>2026-05-02T14:40:48.999Z</time></trkpt><trkpt lat="43.13286096097995" lon="11.554909288676294"><ele>246.0</ele><time>2026-05-02T14:40:49.999Z</time></trkpt><trkpt lat="43.132878598393155" lon="11.554778158577836"><ele>246.0</ele><time>2026-05-02T14:40:50.999Z</time></trkpt><trkpt lat="43.13287201733286" lon="11.554634093424305"><ele>246.8</ele><time>2026-05-02T14:40:51.999Z</time></trkpt><trkpt lat="43.132831570927344" lon="11.554510908252576"><ele>247.60000000000002</ele><time>2026-05-02T14:40:52.998Z</time></trkpt><trkpt lat="43.13277218709944" lon="11.554398184741117"><ele>248.4</ele><time>2026-05-02T14:40:53.998Z</time></trkpt><trkpt lat="43.1326906355491" lon="11.554286980026577"><ele>249.2</ele><time>2026-05-02T14:40:54.998Z</time></trkpt><trkpt lat="43.13261428522486" lon="11.554186661493787"><ele>250.0</ele><time>2026-05-02T14:40:55.998Z</time></trkpt><trkpt lat="43.1325353160499" lon="11.55410172665674"><ele>250.0</ele><time>2026-05-02T14:40:56.998Z</time></trkpt><trkpt lat="43.13245323665628" lon="11.55404902511268"><ele>250.0</ele><time>2026-05-02T14:40:57.998Z</time></trkpt><trkpt lat="43.13236232481516" lon="11.554028642405312"><ele>250.0</ele><time>2026-05-02T14:40:58.998Z</time></trkpt><trkpt lat="43.13226542703611" lon="11.554042665842317"><ele>250.0</ele><time>2026-05-02T14:40:59.998Z</time></trkpt><trkpt lat="43.1321660004755" lon="11.554097989990591"><ele>250.0</ele><time>2026-05-02T14:41:00.998Z</time></trkpt><trkpt lat="43.132075004804584" lon="11.554187139039552"><ele>251.5</ele><time>2026-05-02T14:41:01.998Z</time></trkpt><trkpt lat="43.13199199354619" lon="11.55431136706247"><ele>253.0</ele><time>2026-05-02T14:41:02.998Z</time></trkpt><trkpt lat="43.131897760305606" lon="11.554471673116137"><ele>254.5</ele><time>2026-05-02T14:41:03.998Z</time></trkpt><trkpt lat="43.13178598148322" lon="11.554651318352825"><ele>256.0</ele><time>2026-05-02T14:41:04.998Z</time></trkpt><trkpt lat="43.13167283522972" lon="11.5548074038571"><ele>256.0</ele><time>2026-05-02T14:41:05.998Z</time></trkpt><trkpt lat="43.13157148808996" lon="11.554936347479458"><ele>256.0</ele><time>2026-05-02T14:41:06.998Z</time></trkpt><trkpt lat="43.1314711454183" lon="11.55504184597631"><ele>256.0</ele><time>2026-05-02T14:41:07.998Z</time></trkpt><trkpt lat="43.131372630362854" lon="11.555118698602465"><ele>256.0</ele><time>2026-05-02T14:41:08.998Z</time></trkpt><trkpt lat="43.13127767367598" lon="11.555162952868166"><ele>257.2</ele><time>2026-05-02T14:41:09.998Z</time></trkpt><trkpt lat="43.13117822014926" lon="11.55517504064608"><ele>258.40000000000003</ele><time>2026-05-02T14:41:10.998Z</time></trkpt><trkpt lat="43.13107080385045" lon="11.555161219853138"><ele>259.6</ele><time>2026-05-02T14:41:12Z</time></trkpt><trkpt lat="43.130967313214235" lon="11.55510353640284"><ele>260.8</ele><time>2026-05-02T14:41:13Z</time></trkpt><trkpt lat="43.13087482367726" lon="11.55500884855735"><ele>262.0</ele><time>2026-05-02T14:41:14Z</time></trkpt><trkpt lat="43.13079565055995" lon="11.554881850615567"><ele>263.0</ele><time>2026-05-02T14:41:15Z</time></trkpt><trkpt lat="43.13071464665121" lon="11.554751704695631"><ele>264.0</ele><time>2026-05-02T14:41:16Z</time></trkpt><trkpt lat="43.130603506459764" lon="11.554598942255835"><ele>265.0</ele><time>2026-05-02T14:41:17Z</time></trkpt><trkpt lat="43.130488274324364" lon="11.554498218426925"><ele>266.0</ele><time>2026-05-02T14:41:18Z</time></trkpt><trkpt lat="43.130361120021526" lon="11.554406874234722"><ele>266.0</ele><time>2026-05-02T14:41:19Z</time></trkpt><trkpt lat="43.13022983126196" lon="11.554273363154048"><ele>266.0</ele><time>2026-05-02T14:41:20Z</time></trkpt><trkpt lat="43.130121055822954" lon="11.554130774757606"><ele>266.0</ele><time>2026-05-02T14:41:21Z</time></trkpt><trkpt lat="43.13002114844949" lon="11.553999338346305"><ele>266.0</ele><time>2026-05-02T14:41:22Z</time></trkpt><trkpt lat="43.12990869616015" lon="11.553899711018673"><ele>266.0</ele><time>2026-05-02T14:41:23Z</time></trkpt><trkpt lat="43.12979376321209" lon="11.553815254641592"><ele>266.0</ele><time>2026-05-02T14:41:24Z</time></trkpt><trkpt lat="43.129668986543074" lon="11.553787727442552"><ele>266.0</ele><time>2026-05-02T14:41:25Z</time></trkpt><trkpt lat="43.129541594585525" lon="11.55377469574617"><ele>266.2</ele><time>2026-05-02T14:41:26Z</time></trkpt><trkpt lat="43.129452546019266" lon="11.553757070126137"><ele>266.40000000000003</ele><time>2026-05-02T14:41:26.999Z</time></trkpt><trkpt lat="43.12935141885745" lon="11.55365264614644"><ele>266.6</ele><time>2026-05-02T14:41:28.999Z</time></trkpt><trkpt lat="43.1293175921978" lon="11.55354573983373"><ele>266.8</ele><time>2026-05-02T14:41:29.999Z</time></trkpt><trkpt lat="43.129288668957585" lon="11.5534273589646"><ele>267.0</ele><time>2026-05-02T14:41:30.999Z</time></trkpt><trkpt lat="43.12932184957353" lon="11.553307802636192"><ele>269.2</ele><time>2026-05-02T14:41:31.999Z</time></trkpt><trkpt lat="43.129391331304014" lon="11.553211928897175"><ele>271.4</ele><time>2026-05-02T14:41:32.999Z</time></trkpt><trkpt lat="43.12948046894317" lon="11.553146657606296"><ele>273.6</ele><time>2026-05-02T14:41:33.999Z</time></trkpt><trkpt lat="43.12959446261592" lon="11.553114285999705"><ele>275.8</ele><time>2026-05-02T14:41:34.999Z</time></trkpt><trkpt lat="43.12967758164675" lon="11.553137510084095"><ele>278.0</ele><time>2026-05-02T14:41:35.999Z</time></trkpt><trkpt lat="43.129807441002306" lon="11.553164978443112"><ele>278.0</ele><time>2026-05-02T14:41:36.999Z</time></trkpt><trkpt lat="43.129956051716576" lon="11.553221784362274"><ele>278.0</ele><time>2026-05-02T14:41:37.999Z</time></trkpt><trkpt lat="43.13013778045318" lon="11.553282144944756"><ele>278.0</ele><time>2026-05-02T14:41:38.999Z</time></trkpt><trkpt lat="43.130290808378845" lon="11.553345224738875"><ele>278.0</ele><time>2026-05-02T14:41:39.999Z</time></trkpt><trkpt lat="43.13041064340074" lon="11.55338787547716"><ele>278.0</ele><time>2026-05-02T14:41:40.999Z</time></trkpt><trkpt lat="43.130519607164906" lon="11.553419561137124"><ele>278.0</ele><time>2026-05-02T14:41:41.999Z</time></trkpt><trkpt lat="43.130633375423834" lon="11.55343028382142"><ele>278.0</ele><time>2026-05-02T14:41:42.999Z</time></trkpt><trkpt lat="43.13074712069385" lon="11.553413409989549"><ele>279.0</ele><time>2026-05-02T14:41:43.999Z</time></trkpt><trkpt lat="43.130848243884046" lon="11.553363701998883"><ele>280.0</ele><time>2026-05-02T14:41:44.999Z</time></trkpt><trkpt lat="43.13093882778425" lon="11.553291803442795"><ele>281.0</ele><time>2026-05-02T14:41:45.999Z</time></trkpt><trkpt lat="43.13101643380827" lon="11.553202864260816"><ele>282.0</ele><time>2026-05-02T14:41:46.999Z</time></trkpt><trkpt lat="43.131074135630996" lon="11.553093441920847"><ele>283.0</ele><time>2026-05-02T14:41:47.999Z</time></trkpt><trkpt lat="43.13110425136042" lon="11.552962039017714"><ele>285.25</ele><time>2026-05-02T14:41:48.999Z</time></trkpt><trkpt lat="43.13112140517439" lon="11.552825293262238"><ele>287.5</ele><time>2026-05-02T14:41:49.999Z</time></trkpt><trkpt lat="43.13111243131292" lon="11.552674617613468"><ele>289.75</ele><time>2026-05-02T14:41:50.999Z</time></trkpt><trkpt lat="43.13109784038603" lon="11.552498223572293"><ele>292.0</ele><time>2026-05-02T14:41:51.999Z</time></trkpt><trkpt lat="43.13107545413395" lon="11.552285188265921"><ele>292.0</ele><time>2026-05-02T14:41:52.999Z</time></trkpt><trkpt lat="43.13106941086847" lon="11.552085122342941"><ele>292.0</ele><time>2026-05-02T14:41:53.999Z</time></trkpt><trkpt lat="43.13108868905217" lon="11.551914857311528"><ele>292.0</ele><time>2026-05-02T14:41:54.999Z</time></trkpt><trkpt lat="43.131137128177954" lon="11.551750881261132"><ele>292.0</ele><time>2026-05-02T14:41:55.999Z</time></trkpt><trkpt lat="43.13123022749223" lon="11.551615238430873"><ele>295.0</ele><time>2026-05-02T14:41:56.999Z</time></trkpt><trkpt lat="43.131319427557564" lon="11.551455271957865"><ele>298.0</ele><time>2026-05-02T14:41:57.999Z</time></trkpt><trkpt lat="43.13141502744548" lon="11.551257511246881"><ele>301.0</ele><time>2026-05-02T14:41:58.999Z</time></trkpt><trkpt lat="43.13153597926051" lon="11.551058131841401"><ele>300.0</ele><time>2026-05-02T14:41:59.999Z</time></trkpt><trkpt lat="43.13165476333751" lon="11.550832322694397"><ele>299.0</ele><time>2026-05-02T14:42:00.999Z</time></trkpt><trkpt lat="43.13178040142715" lon="11.55058044590454"><ele>298.0</ele><time>2026-05-02T14:42:01.999Z</time></trkpt><trkpt lat="43.1319181114868" lon="11.550323190143843"><ele>301.0</ele><time>2026-05-02T14:42:02.999Z</time></trkpt><trkpt lat="43.13204733646549" lon="11.550085999209962"><ele>304.0</ele><time>2026-05-02T14:42:03.999Z</time></trkpt><trkpt lat="43.13215832856089" lon="11.549904520684159"><ele>307.0</ele><time>2026-05-02T14:42:04.999Z</time></trkpt><trkpt lat="43.13224504612648" lon="11.549746221218326"><ele>307.0</ele><time>2026-05-02T14:42:05.999Z</time></trkpt><trkpt lat="43.1323283874756" lon="11.549603595646506"><ele>307.0</ele><time>2026-05-02T14:42:06.999Z</time></trkpt><trkpt lat="43.132421491193796" lon="11.549461613518218"><ele>307.0</ele><time>2026-05-02T14:42:07.999Z</time></trkpt><trkpt lat="43.132518937447806" lon="11.54933273286672"><ele>307.0</ele><time>2026-05-02T14:42:08.999Z</time></trkpt><trkpt lat="43.13262596108362" lon="11.549220052388467"><ele>307.66666666666663</ele><time>2026-05-02T14:42:09.999Z</time></trkpt><trkpt lat="43.13274122843421" lon="11.549100884505323"><ele>308.3333333333333</ele><time>2026-05-02T14:42:10.999Z</time></trkpt><trkpt lat="43.13288169695958" lon="11.54901042940509"><ele>309.0</ele><time>2026-05-02T14:42:11.999Z</time></trkpt><trkpt lat="43.133025663418394" lon="11.548915522124624"><ele>309.0</ele><time>2026-05-02T14:42:12.999Z</time></trkpt><trkpt lat="43.13314806883982" lon="11.54882816586855"><ele>309.0</ele><time>2026-05-02T14:42:13.999Z</time></trkpt><trkpt lat="43.13324629102292" lon="11.548747293712076"><ele>309.0</ele><time>2026-05-02T14:42:14.999Z</time></trkpt><trkpt lat="43.13332585831995" lon="11.548655516667736"><ele>309.0</ele><time>2026-05-02T14:42:15.999Z</time></trkpt><trkpt lat="43.13338491270426" lon="11.548549065201483"><ele>309.4</ele><time>2026-05-02T14:42:16.999Z</time></trkpt><trkpt lat="43.133432456814106" lon="11.548413968554737"><ele>309.79999999999995</ele><time>2026-05-02T14:42:17.999Z</time></trkpt><trkpt lat="43.133464664546" lon="11.548268305223854"><ele>310.20000000000005</ele><time>2026-05-02T14:42:18.999Z</time></trkpt><trkpt lat="43.13348100815339" lon="11.548117281046725"><ele>310.6</ele><time>2026-05-02T14:42:19.999Z</time></trkpt><trkpt lat="43.13347932934574" lon="11.54796113687281"><ele>311.0</ele><time>2026-05-02T14:42:20.999Z</time></trkpt><trkpt lat="43.133451874083974" lon="11.54779353152269"><ele>311.0</ele><time>2026-05-02T14:42:21.999Z</time></trkpt><trkpt lat="43.13340573175694" lon="11.547615741104295"><ele>311.0</ele><time>2026-05-02T14:42:22.999Z</time></trkpt><trkpt lat="43.13336336244073" lon="11.547406017790452"><ele>311.0</ele><time>2026-05-02T14:42:23.999Z</time></trkpt><trkpt lat="43.133303122624596" lon="11.547175684370114"><ele>310.6666666666667</ele><time>2026-05-02T14:42:24.999Z</time></trkpt><trkpt lat="43.13324682583309" lon="11.546935584634006"><ele>310.3333333333333</ele><time>2026-05-02T14:42:25.999Z</time></trkpt><trkpt lat="43.13318583341561" lon="11.54666776484239"><ele>310.0</ele><time>2026-05-02T14:42:26.999Z</time></trkpt><trkpt lat="43.133112943238395" lon="11.54635540090276"><ele>302.5</ele><time>2026-05-02T14:42:27.999Z</time></trkpt><trkpt lat="43.133034836004605" lon="11.546037608086095"><ele>295.0</ele><time>2026-05-02T14:42:28.999Z</time></trkpt><trkpt lat="43.13295333831985" lon="11.545701092889443"><ele>295.0</ele><time>2026-05-02T14:42:29.999Z</time></trkpt><trkpt lat="43.13286708601105" lon="11.545395312191236"><ele>295.0</ele><time>2026-05-02T14:42:30.999Z</time></trkpt><trkpt lat="43.13280420119847" lon="11.54512383654697"><ele>295.0</ele><time>2026-05-02T14:42:31.999Z</time></trkpt><trkpt lat="43.13274579278504" lon="11.544874830673377"><ele>296.0</ele><time>2026-05-02T14:42:32.999Z</time></trkpt><trkpt lat="43.132691247639016" lon="11.544640630824606"><ele>297.0</ele><time>2026-05-02T14:42:33.999Z</time></trkpt><trkpt lat="43.1326391909927" lon="11.544424023380007"><ele>298.0</ele><time>2026-05-02T14:42:34.999Z</time></trkpt><trkpt lat="43.132589618167046" lon="11.544227970684451"><ele>299.0</ele><time>2026-05-02T14:42:35.999Z</time></trkpt><trkpt lat="43.13254169140784" lon="11.5440642229801"><ele>300.0</ele><time>2026-05-02T14:42:36.999Z</time></trkpt><trkpt lat="43.13249761833527" lon="11.543915541396542"><ele>301.0</ele><time>2026-05-02T14:42:37.999Z</time></trkpt><trkpt lat="43.13245787263893" lon="11.543779467009657"><ele>302.0</ele><time>2026-05-02T14:42:38.999Z</time></trkpt><trkpt lat="43.132410044001425" lon="11.543662657978347"><ele>302.0</ele><time>2026-05-02T14:42:39.999Z</time></trkpt><trkpt lat="43.13236961649487" lon="11.54355374106937"><ele>302.0</ele><time>2026-05-02T14:42:40.999Z</time></trkpt><trkpt lat="43.132330870413234" lon="11.543457299008153"><ele>302.0</ele><time>2026-05-02T14:42:41.999Z</time></trkpt><trkpt lat="43.13229586409648" lon="11.543369264345426"><ele>302.0</ele><time>2026-05-02T14:42:42.999Z</time></trkpt><trkpt lat="43.132254130750766" lon="11.543265665857984"><ele>302.0</ele><time>2026-05-02T14:42:43.999Z</time></trkpt><trkpt lat="43.13219962685199" lon="11.543128476850152"><ele>302.0</ele><time>2026-05-02T14:42:44.999Z</time></trkpt><trkpt lat="43.13212919859394" lon="11.542955750611037"><ele>302.5</ele><time>2026-05-02T14:42:45.999Z</time></trkpt><trkpt lat="43.13205475655283" lon="11.54275986489064"><ele>303.0</ele><time>2026-05-02T14:42:46.999Z</time></trkpt><trkpt lat="43.1319848152847" lon="11.542577899278905"><ele>303.5</ele><time>2026-05-02T14:42:47.999Z</time></trkpt><trkpt lat="43.131919151596804" lon="11.542430430625808"><ele>304.0</ele><time>2026-05-02T14:42:49Z</time></trkpt><trkpt lat="43.13185982556028" lon="11.542296894469558"><ele>304.0</ele><time>2026-05-02T14:42:50Z</time></trkpt><trkpt lat="43.13184062587332" lon="11.542142253699334"><ele>304.0</ele><time>2026-05-02T14:42:50.999Z</time></trkpt><trkpt lat="43.131791862841474" lon="11.54199530526628"><ele>304.0</ele><time>2026-05-02T14:42:51.999Z</time></trkpt><trkpt lat="43.13180195570748" lon="11.541815940143026"><ele>304.0</ele><time>2026-05-02T14:42:52.999Z</time></trkpt><trkpt lat="43.13183501285818" lon="11.541625797740538"><ele>304.25</ele><time>2026-05-02T14:42:53.999Z</time></trkpt><trkpt lat="43.13189407173451" lon="11.541449509460632"><ele>304.5</ele><time>2026-05-02T14:42:54.999Z</time></trkpt><trkpt lat="43.13191439670789" lon="11.541254970713872"><ele>304.75</ele><time>2026-05-02T14:42:55.999Z</time></trkpt><trkpt lat="43.13193720401788" lon="11.541049198780954"><ele>305.0</ele><time>2026-05-02T14:42:56.999Z</time></trkpt><trkpt lat="43.131971213609624" lon="11.540846380820039"><ele>305.33333333333337</ele><time>2026-05-02T14:42:57.999Z</time></trkpt><trkpt lat="43.13200624231003" lon="11.540644022038935"><ele>305.6666666666667</ele><time>2026-05-02T14:42:58.999Z</time></trkpt><trkpt lat="43.132058275580846" lon="11.540445188144982"><ele>306.0</ele><time>2026-05-02T14:42:59.999Z</time></trkpt><trkpt lat="43.13211043568526" lon="11.540248767978833"><ele>306.0</ele><time>2026-05-02T14:43:00.999Z</time></trkpt><trkpt lat="43.13214777782103" lon="11.540061859053704"><ele>306.0</ele><time>2026-05-02T14:43:01.999Z</time></trkpt><trkpt lat="43.132186113581085" lon="11.539874101229028"><ele>306.0</ele><time>2026-05-02T14:43:02.999Z</time></trkpt><trkpt lat="43.13220006239481" lon="11.539694499622579"><ele>306.0</ele><time>2026-05-02T14:43:03.999Z</time></trkpt><trkpt lat="43.13219637651987" lon="11.539505470071106"><ele>304.75</ele><time>2026-05-02T14:43:04.999Z</time></trkpt><trkpt lat="43.13218393795978" lon="11.539298741947444"><ele>303.5</ele><time>2026-05-02T14:43:05.999Z</time></trkpt><trkpt lat="43.13218380397383" lon="11.539092385996105"><ele>302.25</ele><time>2026-05-02T14:43:06.999Z</time></trkpt><trkpt lat="43.13220017445513" lon="11.53890041148266"><ele>301.0</ele><time>2026-05-02T14:43:07.999Z</time></trkpt><trkpt lat="43.132223871413814" lon="11.538708337884467"><ele>298.3333333333333</ele><time>2026-05-02T14:43:08.999Z</time></trkpt><trkpt lat="43.1322525405102" lon="11.538505877945942"><ele>295.6666666666667</ele><time>2026-05-02T14:43:09.999Z</time></trkpt><trkpt lat="43.13229022406578" lon="11.538302112483274"><ele>293.0</ele><time>2026-05-02T14:43:10.999Z</time></trkpt><trkpt lat="43.1323581565929" lon="11.53811952578899"><ele>291.0</ele><time>2026-05-02T14:43:11.999Z</time></trkpt><trkpt lat="43.1323971057447" lon="11.53794166107541"><ele>289.0</ele><time>2026-05-02T14:43:12.999Z</time></trkpt><trkpt lat="43.132450124755216" lon="11.53778027626884"><ele>287.0</ele><time>2026-05-02T14:43:13.999Z</time></trkpt><trkpt lat="43.13249949221417" lon="11.537612709622454"><ele>285.0</ele><time>2026-05-02T14:43:14.999Z</time></trkpt><trkpt lat="43.13257734242211" lon="11.537449262926394"><ele>284.5</ele><time>2026-05-02T14:43:15.999Z</time></trkpt><trkpt lat="43.132647259830186" lon="11.537279868808387"><ele>284.0</ele><time>2026-05-02T14:43:16.999Z</time></trkpt><trkpt lat="43.13272321385696" lon="11.537121380962816"><ele>283.5</ele><time>2026-05-02T14:43:18Z</time></trkpt><trkpt lat="43.132814031032815" lon="11.536966621391858"><ele>283.0</ele><time>2026-05-02T14:43:19Z</time></trkpt><trkpt lat="43.13292282124018" lon="11.536815714684309"><ele>280.66666666666663</ele><time>2026-05-02T14:43:20Z</time></trkpt><trkpt lat="43.133024039166926" lon="11.53665047352196"><ele>278.3333333333333</ele><time>2026-05-02T14:43:21Z</time></trkpt><trkpt lat="43.133138970831695" lon="11.536501781938668"><ele>276.0</ele><time>2026-05-02T14:43:22Z</time></trkpt><trkpt lat="43.133247958300416" lon="11.536355442475983"><ele>275.0</ele><time>2026-05-02T14:43:23Z</time></trkpt><trkpt lat="43.13334843420025" lon="11.53620820613005"><ele>274.0</ele><time>2026-05-02T14:43:24Z</time></trkpt><trkpt lat="43.1334429363479" lon="11.536051742433743"><ele>273.0</ele><time>2026-05-02T14:43:25Z</time></trkpt><trkpt lat="43.13353196740237" lon="11.535875559660091"><ele>273.0</ele><time>2026-05-02T14:43:26Z</time></trkpt><trkpt lat="43.13363118825346" lon="11.53569049189433"><ele>273.0</ele><time>2026-05-02T14:43:27Z</time></trkpt><trkpt lat="43.13372186542761" lon="11.535487982713228"><ele>273.0</ele><time>2026-05-02T14:43:28Z</time></trkpt><trkpt lat="43.13380995757521" lon="11.535282127584795"><ele>271.3333333333333</ele><time>2026-05-02T14:43:29Z</time></trkpt><trkpt lat="43.13388341529422" lon="11.53506656406131"><ele>269.66666666666663</ele><time>2026-05-02T14:43:30Z</time></trkpt><trkpt lat="43.133984134079824" lon="11.534876710810613"><ele>268.0</ele><time>2026-05-02T14:43:31Z</time></trkpt><trkpt lat="43.13406919304018" lon="11.534679388502095"><ele>268.0</ele><time>2026-05-02T14:43:32Z</time></trkpt><trkpt lat="43.13415067345797" lon="11.534490367269276"><ele>268.0</ele><time>2026-05-02T14:43:33Z</time></trkpt><trkpt lat="43.13422984604177" lon="11.534303344988924"><ele>268.0</ele><time>2026-05-02T14:43:34Z</time></trkpt><trkpt lat="43.13430366985711" lon="11.534127665997572"><ele>268.0</ele><time>2026-05-02T14:43:35Z</time></trkpt><trkpt lat="43.1343773301049" lon="11.53394891870501"><ele>268.0</ele><time>2026-05-02T14:43:36Z</time></trkpt><trkpt lat="43.13444884397929" lon="11.533765547376385"><ele>268.0</ele><time>2026-05-02T14:43:37Z</time></trkpt><trkpt lat="43.134512678369425" lon="11.533578962619949"><ele>266.66666666666663</ele><time>2026-05-02T14:43:38Z</time></trkpt><trkpt lat="43.13457142391359" lon="11.533388727707305"><ele>265.3333333333333</ele><time>2026-05-02T14:43:39Z</time></trkpt><trkpt lat="43.13462646628578" lon="11.533196649857723"><ele>264.0</ele><time>2026-05-02T14:43:40Z</time></trkpt><trkpt lat="43.13467899750889" lon="11.533005110103648"><ele>263.6666666666667</ele><time>2026-05-02T14:43:41Z</time></trkpt><trkpt lat="43.13472985521193" lon="11.53281030467226"><ele>263.33333333333337</ele><time>2026-05-02T14:43:42Z</time></trkpt><trkpt lat="43.134776552667766" lon="11.532616238776681"><ele>263.0</ele><time>2026-05-02T14:43:43Z</time></trkpt><trkpt lat="43.13482253633805" lon="11.532416481515007"><ele>263.0</ele><time>2026-05-02T14:43:44Z</time></trkpt><trkpt lat="43.13486536681405" lon="11.532215240619061"><ele>263.0</ele><time>2026-05-02T14:43:45Z</time></trkpt><trkpt lat="43.13490643753403" lon="11.532015864710653"><ele>263.0</ele><time>2026-05-02T14:43:46Z</time></trkpt><trkpt lat="43.13494460839036" lon="11.531818182742592"><ele>265.0</ele><time>2026-05-02T14:43:47Z</time></trkpt><trkpt lat="43.13497703276735" lon="11.531622626837763"><ele>267.0</ele><time>2026-05-02T14:43:48Z</time></trkpt><trkpt lat="43.13500393263006" lon="11.531429742399661"><ele>269.0</ele><time>2026-05-02T14:43:49Z</time></trkpt><trkpt lat="43.13502704962795" lon="11.531244876516167"><ele>271.0</ele><time>2026-05-02T14:43:50Z</time></trkpt><trkpt lat="43.135045374042534" lon="11.531075284419073"><ele>272.0</ele><time>2026-05-02T14:43:51Z</time></trkpt><trkpt lat="43.135060902912414" lon="11.530911168865558"><ele>273.0</ele><time>2026-05-02T14:43:52Z</time></trkpt><trkpt lat="43.13506727911157" lon="11.530752548608676"><ele>274.0</ele><time>2026-05-02T14:43:53Z</time></trkpt><trkpt lat="43.13505610223955" lon="11.53059494912009"><ele>275.0</ele><time>2026-05-02T14:43:54Z</time></trkpt><trkpt lat="43.135014020218286" lon="11.530438319182055"><ele>275.0</ele><time>2026-05-02T14:43:55Z</time></trkpt><trkpt lat="43.13496336462651" lon="11.53028086148365"><ele>275.0</ele><time>2026-05-02T14:43:56Z</time></trkpt><trkpt lat="43.13491292124129" lon="11.530127553112411"><ele>275.0</ele><time>2026-05-02T14:43:57Z</time></trkpt><trkpt lat="43.1348570023179" lon="11.52996428572444"><ele>275.0</ele><time>2026-05-02T14:43:58Z</time></trkpt><trkpt lat="43.134802800251684" lon="11.529806186085285"><ele>271.75</ele><time>2026-05-02T14:43:59Z</time></trkpt><trkpt lat="43.13474677910744" lon="11.529649316737025"><ele>268.5</ele><time>2026-05-02T14:44:00Z</time></trkpt><trkpt lat="43.13469004599636" lon="11.529491585741319"><ele>265.25</ele><time>2026-05-02T14:44:01Z</time></trkpt><trkpt lat="43.13463461159312" lon="11.529342133943135"><ele>262.0</ele><time>2026-05-02T14:44:02Z</time></trkpt><trkpt lat="43.13456494478451" lon="11.529194937575282"><ele>262.0</ele><time>2026-05-02T14:44:03Z</time></trkpt><trkpt lat="43.13450843417531" lon="11.52903998347685"><ele>262.0</ele><time>2026-05-02T14:44:04Z</time></trkpt><trkpt lat="43.13445826752994" lon="11.52889461361858"><ele>262.0</ele><time>2026-05-02T14:44:05Z</time></trkpt><trkpt lat="43.13442334847326" lon="11.528744433720604"><ele>262.0</ele><time>2026-05-02T14:44:06Z</time></trkpt><trkpt lat="43.13438939306506" lon="11.528601391099379"><ele>262.2</ele><time>2026-05-02T14:44:07Z</time></trkpt><trkpt lat="43.13436933370472" lon="11.528461369245273"><ele>262.4</ele><time>2026-05-02T14:44:08Z</time></trkpt><trkpt lat="43.13436295166094" lon="11.528319777899922"><ele>262.6</ele><time>2026-05-02T14:44:09Z</time></trkpt><trkpt lat="43.13435338133265" lon="11.528170394266253"><ele>262.8</ele><time>2026-05-02T14:44:10Z</time></trkpt><trkpt lat="43.13436836442254" lon="11.528017063329324"><ele>263.0</ele><time>2026-05-02T14:44:11Z</time></trkpt><trkpt lat="43.13437777902329" lon="11.5278524160914"><ele>262.25</ele><time>2026-05-02T14:44:12Z</time></trkpt><trkpt lat="43.13440662626101" lon="11.527688356142061"><ele>261.5</ele><time>2026-05-02T14:44:13Z</time></trkpt><trkpt lat="43.13442170199206" lon="11.527522135606937"><ele>260.75</ele><time>2026-05-02T14:44:14Z</time></trkpt><trkpt lat="43.13443669545172" lon="11.527356081993542"><ele>260.0</ele><time>2026-05-02T14:44:15Z</time></trkpt><trkpt lat="43.1344502646486" lon="11.527188980734278"><ele>258.5</ele><time>2026-05-02T14:44:16Z</time></trkpt><trkpt lat="43.134462047826595" lon="11.527026059756885"><ele>257.0</ele><time>2026-05-02T14:44:17Z</time></trkpt><trkpt lat="43.134473692940496" lon="11.526865047285355"><ele>255.5</ele><time>2026-05-02T14:44:18Z</time></trkpt><trkpt lat="43.13447109685573" lon="11.526701921530606"><ele>254.0</ele><time>2026-05-02T14:44:19Z</time></trkpt><trkpt lat="43.13448593357057" lon="11.526539641787746"><ele>254.0</ele><time>2026-05-02T14:44:20Z</time></trkpt><trkpt lat="43.13449714359282" lon="11.526379006540663"><ele>254.0</ele><time>2026-05-02T14:44:21Z</time></trkpt><trkpt lat="43.13452648999219" lon="11.526223017396479"><ele>254.0</ele><time>2026-05-02T14:44:22Z</time></trkpt><trkpt lat="43.134545566018474" lon="11.526068105638956"><ele>254.0</ele><time>2026-05-02T14:44:23Z</time></trkpt><trkpt lat="43.1345761926761" lon="11.525921820443214"><ele>253.0</ele><time>2026-05-02T14:44:24Z</time></trkpt><trkpt lat="43.13460506458795" lon="11.525771531969944"><ele>252.0</ele><time>2026-05-02T14:44:25Z</time></trkpt><trkpt lat="43.134664476064295" lon="11.52563666889518"><ele>251.0</ele><time>2026-05-02T14:44:26Z</time></trkpt><trkpt lat="43.1347252440069" lon="11.525497200689134"><ele>250.0</ele><time>2026-05-02T14:44:27Z</time></trkpt><trkpt lat="43.13478063856602" lon="11.525352607860162"><ele>249.75</ele><time>2026-05-02T14:44:28Z</time></trkpt><trkpt lat="43.13483223835201" lon="11.525202009864252"><ele>249.5</ele><time>2026-05-02T14:44:29Z</time></trkpt><trkpt lat="43.134880197587144" lon="11.525045352738733"><ele>249.25</ele><time>2026-05-02T14:44:30Z</time></trkpt><trkpt lat="43.13492872891863" lon="11.52488457689521"><ele>249.0</ele><time>2026-05-02T14:44:31Z</time></trkpt><trkpt lat="43.134969816409615" lon="11.524724590288304"><ele>249.75</ele><time>2026-05-02T14:44:32Z</time></trkpt><trkpt lat="43.13501268407608" lon="11.524570794317414"><ele>250.5</ele><time>2026-05-02T14:44:33Z</time></trkpt><trkpt lat="43.13504294163303" lon="11.52441441152353"><ele>251.25</ele><time>2026-05-02T14:44:34Z</time></trkpt><trkpt lat="43.13505786258896" lon="11.524256076574506"><ele>252.0</ele><time>2026-05-02T14:44:35Z</time></trkpt><trkpt lat="43.135053495594626" lon="11.524093853295014"><ele>252.0</ele><time>2026-05-02T14:44:36Z</time></trkpt><trkpt lat="43.13504107778366" lon="11.523929985330263"><ele>252.0</ele><time>2026-05-02T14:44:37Z</time></trkpt><trkpt lat="43.13504553784595" lon="11.523761720308224"><ele>252.0</ele><time>2026-05-02T14:44:38Z</time></trkpt><trkpt lat="43.13503584659943" lon="11.523591479490083"><ele>252.0</ele><time>2026-05-02T14:44:39Z</time></trkpt><trkpt lat="43.13502554153984" lon="11.52342177542508"><ele>250.75</ele><time>2026-05-02T14:44:40Z</time></trkpt><trkpt lat="43.13501526485793" lon="11.523252538666544"><ele>249.5</ele><time>2026-05-02T14:44:41Z</time></trkpt><trkpt lat="43.13498868755523" lon="11.52308491679314"><ele>248.25</ele><time>2026-05-02T14:44:42Z</time></trkpt><trkpt lat="43.13498329590189" lon="11.522922201986564"><ele>247.0</ele><time>2026-05-02T14:44:43Z</time></trkpt><trkpt lat="43.13497276912596" lon="11.52276421368936"><ele>245.5</ele><time>2026-05-02T14:44:44Z</time></trkpt><trkpt lat="43.13496742554313" lon="11.522601193900169"><ele>244.0</ele><time>2026-05-02T14:44:45Z</time></trkpt><trkpt lat="43.13496461286118" lon="11.522441133012787"><ele>242.5</ele><time>2026-05-02T14:44:46Z</time></trkpt><trkpt lat="43.13496395948697" lon="11.522283048968077"><ele>241.0</ele><time>2026-05-02T14:44:47Z</time></trkpt><trkpt lat="43.134970261215756" lon="11.522123520228316"><ele>240.0</ele><time>2026-05-02T14:44:48Z</time></trkpt><trkpt lat="43.13497894264959" lon="11.521965330324077"><ele>239.0</ele><time>2026-05-02T14:44:49Z</time></trkpt><trkpt lat="43.134985181528755" lon="11.52180785530487"><ele>238.0</ele><time>2026-05-02T14:44:50Z</time></trkpt><trkpt lat="43.13498919610714" lon="11.521649264694533"><ele>237.0</ele><time>2026-05-02T14:44:51Z</time></trkpt><trkpt lat="43.13499344159058" lon="11.521490593419745"><ele>237.0</ele><time>2026-05-02T14:44:52Z</time></trkpt><trkpt lat="43.13499470951742" lon="11.521331286427063"><ele>237.0</ele><time>2026-05-02T14:44:53Z</time></trkpt><trkpt lat="43.13499396388827" lon="11.521169724174543"><ele>237.0</ele><time>2026-05-02T14:44:54Z</time></trkpt><trkpt lat="43.13499243592433" lon="11.521006541307784"><ele>237.0</ele><time>2026-05-02T14:44:54.999Z</time></trkpt><trkpt lat="43.13500417665323" lon="11.520839333437078"><ele>236.75</ele><time>2026-05-02T14:44:55.999Z</time></trkpt><trkpt lat="43.13499499693632" lon="11.520669512096557"><ele>236.5</ele><time>2026-05-02T14:44:56.999Z</time></trkpt><trkpt lat="43.134976820997984" lon="11.52050468910231"><ele>236.25</ele><time>2026-05-02T14:44:57.999Z</time></trkpt><trkpt lat="43.13495065762981" lon="11.520344302891777"><ele>236.0</ele><time>2026-05-02T14:44:58.999Z</time></trkpt><trkpt lat="43.13491988041394" lon="11.520184040912833"><ele>231.5</ele><time>2026-05-02T14:44:59.999Z</time></trkpt><trkpt lat="43.13488494452492" lon="11.520026079246149"><ele>227.0</ele><time>2026-05-02T14:45:00.999Z</time></trkpt><trkpt lat="43.13484808349671" lon="11.519869053814128"><ele>222.5</ele><time>2026-05-02T14:45:01.999Z</time></trkpt><trkpt lat="43.13480882627613" lon="11.519714668364923"><ele>218.0</ele><time>2026-05-02T14:45:02.999Z</time></trkpt><trkpt lat="43.13474980353475" lon="11.519572884543203"><ele>221.0</ele><time>2026-05-02T14:45:03.999Z</time></trkpt><trkpt lat="43.134711253418345" lon="11.519422878767811"><ele>224.0</ele><time>2026-05-02T14:45:04.999Z</time></trkpt><trkpt lat="43.13469976614739" lon="11.519266101114615"><ele>227.0</ele><time>2026-05-02T14:45:05.999Z</time></trkpt><trkpt lat="43.13468050601475" lon="11.519110293344077"><ele>230.0</ele><time>2026-05-02T14:45:06.999Z</time></trkpt><trkpt lat="43.134651182453865" lon="11.518949541657136"><ele>230.0</ele><time>2026-05-02T14:45:07.999Z</time></trkpt><trkpt lat="43.13464139528044" lon="11.518782338664227"><ele>230.0</ele><time>2026-05-02T14:45:08.999Z</time></trkpt><trkpt lat="43.13463258772228" lon="11.518613515370843"><ele>230.0</ele><time>2026-05-02T14:45:09.999Z</time></trkpt><trkpt lat="43.13464385173373" lon="11.51844484596006"><ele>230.0</ele><time>2026-05-02T14:45:10.999Z</time></trkpt><trkpt lat="43.13463067431778" lon="11.518277704286154"><ele>232.6</ele><time>2026-05-02T14:45:11.999Z</time></trkpt><trkpt lat="43.13464948108607" lon="11.518115863871888"><ele>235.2</ele><time>2026-05-02T14:45:12.999Z</time></trkpt><trkpt lat="43.13466959720426" lon="11.517969663809227"><ele>237.8</ele><time>2026-05-02T14:45:13.999Z</time></trkpt><trkpt lat="43.13471407572646" lon="11.517841760661936"><ele>240.4</ele><time>2026-05-02T14:45:14.999Z</time></trkpt><trkpt lat="43.13477667420498" lon="11.517727428669287"><ele>243.0</ele><time>2026-05-02T14:45:15.999Z</time></trkpt><trkpt lat="43.13485078701212" lon="11.51760570648718"><ele>241.0</ele><time>2026-05-02T14:45:16.999Z</time></trkpt><trkpt lat="43.13492458637058" lon="11.517485747741409"><ele>239.0</ele><time>2026-05-02T14:45:17.999Z</time></trkpt><trkpt lat="43.13500069199932" lon="11.517353656358694"><ele>237.0</ele><time>2026-05-02T14:45:18.999Z</time></trkpt><trkpt lat="43.1350776187344" lon="11.517220548552517"><ele>235.0</ele><time>2026-05-02T14:45:19.999Z</time></trkpt><trkpt lat="43.13515353834325" lon="11.51708830010142"><ele>236.25</ele><time>2026-05-02T14:45:20.999Z</time></trkpt><trkpt lat="43.13523427863662" lon="11.516962451601934"><ele>237.5</ele><time>2026-05-02T14:45:21.999Z</time></trkpt><trkpt lat="43.135320376192276" lon="11.51684393980025"><ele>238.75</ele><time>2026-05-02T14:45:22.999Z</time></trkpt><trkpt lat="43.13539268814324" lon="11.516724598082265"><ele>240.0</ele><time>2026-05-02T14:45:24Z</time></trkpt><trkpt lat="43.13545785535979" lon="11.516617048231966"><ele>240.0</ele><time>2026-05-02T14:45:25Z</time></trkpt><trkpt lat="43.135519093815226" lon="11.51651443524819"><ele>240.0</ele><time>2026-05-02T14:45:26Z</time></trkpt><trkpt lat="43.13557285947535" lon="11.516419690309785"><ele>240.0</ele><time>2026-05-02T14:45:27Z</time></trkpt><trkpt lat="43.13562046493961" lon="11.516334241646778"><ele>240.0</ele><time>2026-05-02T14:45:28Z</time></trkpt><trkpt lat="43.13566054408152" lon="11.51626230243001"><ele>240.0</ele><time>2026-05-02T14:45:29Z</time></trkpt><trkpt lat="43.13573782434838" lon="11.516140990488434"><ele>240.0</ele><time>2026-05-02T14:45:31Z</time></trkpt><trkpt lat="43.135786332793934" lon="11.516074900692109"><ele>238.42857142857144</ele><time>2026-05-02T14:45:32Z</time></trkpt><trkpt lat="43.13582925436907" lon="11.515999887839065"><ele>236.85714285714283</ele><time>2026-05-02T14:45:33Z</time></trkpt><trkpt lat="43.135884925001456" lon="11.51594969088655"><ele>235.28571428571428</ele><time>2026-05-02T14:45:34Z</time></trkpt><trkpt lat="43.13594429597362" lon="11.515899813441312"><ele>233.71428571428572</ele><time>2026-05-02T14:45:35Z</time></trkpt><trkpt lat="43.13600208153369" lon="11.515853841125734"><ele>232.14285714285717</ele><time>2026-05-02T14:45:36Z</time></trkpt><trkpt lat="43.13608972741716" lon="11.515795096143526"><ele>230.57142857142856</ele><time>2026-05-02T14:45:38Z</time></trkpt><trkpt lat="43.136144140527854" lon="11.515738242092896"><ele>229.0</ele><time>2026-05-02T14:45:41Z</time></trkpt><trkpt lat="43.13620434042094" lon="11.51561776487386"><ele>228.99999999999997</ele><time>2026-05-02T14:47:44Z</time></trkpt><trkpt lat="43.13624056265711" lon="11.5155394303405"><ele>229.0</ele><time>2026-05-02T14:47:45Z</time></trkpt><trkpt lat="43.136271030264396" lon="11.515453838309563"><ele>229.0</ele><time>2026-05-02T14:47:46Z</time></trkpt><trkpt lat="43.13629288155537" lon="11.51536788746289"><ele>229.0</ele><time>2026-05-02T14:47:47Z</time></trkpt><trkpt lat="43.13632301218546" lon="11.515229192510605"><ele>228.99999999999997</ele><time>2026-05-02T14:47:49Z</time></trkpt><trkpt lat="43.136346066290535" lon="11.515129960106215"><ele>229.0</ele><time>2026-05-02T14:47:51Z</time></trkpt><trkpt lat="43.1363505362636" lon="11.515032908645125"><ele>228.99999999999997</ele><time>2026-05-02T14:47:53Z</time></trkpt><trkpt lat="43.13634990348076" lon="11.514934211114413"><ele>229.0</ele><time>2026-05-02T14:47:55Z</time></trkpt><trkpt lat="43.1363499034827" lon="11.514821638506737"><ele>229.0</ele><time>2026-05-02T14:47:58Z</time></trkpt><trkpt lat="43.136325317434334" lon="11.514694122770024"><ele>229.0</ele><time>2026-05-02T14:48:02Z</time></trkpt><trkpt lat="43.136305221311815" lon="11.514587422003629"><ele>228.99999999999997</ele><time>2026-05-02T14:48:04Z</time></trkpt><trkpt lat="43.13627006442185" lon="11.514467133011589"><ele>229.0</ele><time>2026-05-02T14:48:06Z</time></trkpt><trkpt lat="43.13623289013399" lon="11.514370536686688"><ele>228.99999999999997</ele><time>2026-05-02T14:48:08Z</time></trkpt><trkpt lat="43.136196704867544" lon="11.514287334968115"><ele>229.0</ele><time>2026-05-02T14:48:10Z</time></trkpt><trkpt lat="43.13614602554183" lon="11.514170804755228"><ele>229.0</ele><time>2026-05-02T14:48:12Z</time></trkpt><trkpt lat="43.13618834595381" lon="11.514056419316248"><ele>229.0</ele><time>2026-05-02T14:48:14Z</time></trkpt><trkpt lat="43.13615471648349" lon="11.513954625001151"><ele>228.99999999999997</ele><time>2026-05-02T14:48:18Z</time></trkpt><trkpt lat="43.13616179466202" lon="11.513812241544636"><ele>229.0</ele><time>2026-05-02T14:48:20Z</time></trkpt><trkpt lat="43.1361508009041" lon="11.51371113791636"><ele>228.99999999999997</ele><time>2026-05-02T14:48:22Z</time></trkpt><trkpt lat="43.136061902824295" lon="11.513692054925137"><ele>229.0</ele><time>2026-05-02T14:48:24Z</time></trkpt><trkpt lat="43.13605992738558" lon="11.513788479781924"><ele>229.0</ele><time>2026-05-02T14:48:26Z</time></trkpt><trkpt lat="43.13612864392368" lon="11.513864446740895"><ele>229.0</ele><time>2026-05-02T14:48:28Z</time></trkpt><trkpt lat="43.136170623564176" lon="11.513985046592317"><ele>228.99999999999997</ele><time>2026-05-02T14:48:31Z</time></trkpt><trkpt lat="43.13618480903015" lon="11.514118408796882"><ele>229.0</ele><time>2026-05-02T14:48:33Z</time></trkpt><trkpt lat="43.13620368884533" lon="11.514212699393116"><ele>228.99999999999997</ele><time>2026-05-02T14:48:35Z</time></trkpt><trkpt lat="43.13614733251453" lon="11.514277097426472"><ele>229.0</ele><time>2026-05-02T14:48:40Z</time></trkpt><trkpt lat="43.13607300615354" lon="11.514159279040845"><ele>229.0</ele><time>2026-05-02T14:48:42Z</time></trkpt><trkpt lat="43.13605031148871" lon="11.514074290272175"><ele>229.0</ele><time>2026-05-02T14:48:43Z</time></trkpt><trkpt lat="43.136009209799205" lon="11.514004442834343"><ele>228.99999999999997</ele><time>2026-05-02T14:48:43.999Z</time></trkpt><trkpt lat="43.135965301021606" lon="11.513924706067284"><ele>229.0</ele><time>2026-05-02T14:48:44.999Z</time></trkpt><trkpt lat="43.1359217886049" lon="11.513838865540073"><ele>228.99999999999997</ele><time>2026-05-02T14:48:45.999Z</time></trkpt><trkpt lat="43.13587760618215" lon="11.513749767345882"><ele>229.0</ele><time>2026-05-02T14:48:46.999Z</time></trkpt><trkpt lat="43.13583026716024" lon="11.513651187265339"><ele>229.0</ele><time>2026-05-02T14:48:47.999Z</time></trkpt><trkpt lat="43.13578492621134" lon="11.51355300306407"><ele>229.0</ele><time>2026-05-02T14:48:48.999Z</time></trkpt><trkpt lat="43.13574123536133" lon="11.513457636187725"><ele>228.99999999999997</ele><time>2026-05-02T14:48:49.999Z</time></trkpt><trkpt lat="43.13569526964831" lon="11.513351058589311"><ele>229.0</ele><time>2026-05-02T14:48:50.999Z</time></trkpt><trkpt lat="43.135651103176514" lon="11.513243387342001"><ele>228.66666666666666</ele><time>2026-05-02T14:48:51.999Z</time></trkpt><trkpt lat="43.135607652073816" lon="11.513139353996486"><ele>228.33333333333331</ele><time>2026-05-02T14:48:52.999Z</time></trkpt><trkpt lat="43.135586526235436" lon="11.513024074718802"><ele>228.0</ele><time>2026-05-02T14:48:53.999Z</time></trkpt><trkpt lat="43.13555337576313" lon="11.512919889513203"><ele>227.66666666666669</ele><time>2026-05-02T14:48:54.999Z</time></trkpt><trkpt lat="43.13550895019321" lon="11.512825506683713"><ele>227.33333333333334</ele><time>2026-05-02T14:48:55.999Z</time></trkpt><trkpt lat="43.13548434342707" lon="11.512729690998553"><ele>227.0</ele><time>2026-05-02T14:48:56.999Z</time></trkpt><trkpt lat="43.135467061599755" lon="11.512634905461438"><ele>227.0</ele><time>2026-05-02T14:48:57.999Z</time></trkpt><trkpt lat="43.13543738198179" lon="11.512552327655188"><ele>227.0</ele><time>2026-05-02T14:48:58.999Z</time></trkpt><trkpt lat="43.13541280431969" lon="11.512472735915132"><ele>227.0</ele><time>2026-05-02T14:48:59.999Z</time></trkpt><trkpt lat="43.13535213421452" lon="11.512327367149519"><ele>227.0</ele><time>2026-05-02T14:49:01.999Z</time></trkpt><trkpt lat="43.13528640961665" lon="11.512197331258687"><ele>227.0</ele><time>2026-05-02T14:49:03.999Z</time></trkpt><trkpt lat="43.1352127302111" lon="11.512061941976604"><ele>227.66666666666669</ele><time>2026-05-02T14:49:05.999Z</time></trkpt><trkpt lat="43.13516971474163" lon="11.511984325527703"><ele>228.33333333333334</ele><time>2026-05-02T14:49:06.999Z</time></trkpt><trkpt lat="43.13512037639656" lon="11.511903333458998"><ele>229.0</ele><time>2026-05-02T14:49:07.999Z</time></trkpt><trkpt lat="43.1350636314049" lon="11.51180684316798"><ele>229.66666666666669</ele><time>2026-05-02T14:49:08.999Z</time></trkpt><trkpt lat="43.13499982150067" lon="11.511694984475843"><ele>230.33333333333334</ele><time>2026-05-02T14:49:09.999Z</time></trkpt><trkpt lat="43.13493960708027" lon="11.511579032667953"><ele>231.0</ele><time>2026-05-02T14:49:10.999Z</time></trkpt><trkpt lat="43.13487811121075" lon="11.511454159793525"><ele>231.0</ele><time>2026-05-02T14:49:11.999Z</time></trkpt><trkpt lat="43.13481751645478" lon="11.511323615308573"><ele>231.00000000000003</ele><time>2026-05-02T14:49:12.999Z</time></trkpt><trkpt lat="43.13475834012092" lon="11.51122385097131"><ele>231.00000000000003</ele><time>2026-05-02T14:49:13.999Z</time></trkpt><trkpt lat="43.13470855382511" lon="11.511110516083242"><ele>231.0</ele><time>2026-05-02T14:49:14.999Z</time></trkpt><trkpt lat="43.13465930312257" lon="11.511000457709269"><ele>231.0</ele><time>2026-05-02T14:49:15.999Z</time></trkpt><trkpt lat="43.13461308751232" lon="11.510887522697764"><ele>231.4</ele><time>2026-05-02T14:49:16.999Z</time></trkpt><trkpt lat="43.13457033360112" lon="11.510777044194716"><ele>231.8</ele><time>2026-05-02T14:49:17.999Z</time></trkpt><trkpt lat="43.13452130414597" lon="11.51066846262827"><ele>232.20000000000002</ele><time>2026-05-02T14:49:18.999Z</time></trkpt><trkpt lat="43.13446980318062" lon="11.510560681824854"><ele>232.60000000000002</ele><time>2026-05-02T14:49:19.999Z</time></trkpt><trkpt lat="43.1344154789583" lon="11.510448367601946"><ele>233.0</ele><time>2026-05-02T14:49:20.999Z</time></trkpt><trkpt lat="43.1343600863837" lon="11.510335863050038"><ele>233.0</ele><time>2026-05-02T14:49:21.999Z</time></trkpt><trkpt lat="43.134302389054795" lon="11.51022228406256"><ele>233.0</ele><time>2026-05-02T14:49:22.999Z</time></trkpt><trkpt lat="43.134263169629804" lon="11.510100589406068"><ele>233.0</ele><time>2026-05-02T14:49:23.999Z</time></trkpt><trkpt lat="43.13421290434065" lon="11.509990518073481"><ele>233.0</ele><time>2026-05-02T14:49:24.999Z</time></trkpt><trkpt lat="43.13416196778896" lon="11.509879407633516"><ele>233.0</ele><time>2026-05-02T14:49:25.999Z</time></trkpt><trkpt lat="43.13411231989968" lon="11.50977110819195"><ele>233.0</ele><time>2026-05-02T14:49:26.999Z</time></trkpt><trkpt lat="43.134063209069005" lon="11.509663980332482"><ele>233.0</ele><time>2026-05-02T14:49:27.999Z</time></trkpt><trkpt lat="43.13401379105011" lon="11.509558004019432"><ele>233.0</ele><time>2026-05-02T14:49:28.999Z</time></trkpt><trkpt lat="43.13395408311729" lon="11.509464084624021"><ele>233.0</ele><time>2026-05-02T14:49:29.999Z</time></trkpt><trkpt lat="43.13390489578679" lon="11.509355275088984"><ele>233.0</ele><time>2026-05-02T14:49:30.999Z</time></trkpt><trkpt lat="43.13386106029971" lon="11.509235609377704"><ele>231.25</ele><time>2026-05-02T14:49:31.999Z</time></trkpt><trkpt lat="43.13381595149533" lon="11.509092379001789"><ele>229.5</ele><time>2026-05-02T14:49:32.999Z</time></trkpt><trkpt lat="43.13377378469344" lon="11.508934710550367"><ele>227.75</ele><time>2026-05-02T14:49:33.999Z</time></trkpt><trkpt lat="43.13372749724475" lon="11.508770707558838"><ele>226.0</ele><time>2026-05-02T14:49:34.999Z</time></trkpt><trkpt lat="43.13369477577138" lon="11.508613875977893"><ele>224.5</ele><time>2026-05-02T14:49:36Z</time></trkpt><trkpt lat="43.133657056145964" lon="11.508460655353844"><ele>223.0</ele><time>2026-05-02T14:49:37Z</time></trkpt><trkpt lat="43.13362153029009" lon="11.508307814202055"><ele>221.5</ele><time>2026-05-02T14:49:38Z</time></trkpt><trkpt lat="43.13358899940379" lon="11.508150717419955"><ele>220.0</ele><time>2026-05-02T14:49:39Z</time></trkpt><trkpt lat="43.133558625956674" lon="11.50797615103564"><ele>218.5</ele><time>2026-05-02T14:49:40Z</time></trkpt><trkpt lat="43.13354107483343" lon="11.507790204404865"><ele>217.0</ele><time>2026-05-02T14:49:41Z</time></trkpt><trkpt lat="43.13354031471391" lon="11.507586034611112"><ele>215.5</ele><time>2026-05-02T14:49:42Z</time></trkpt><trkpt lat="43.133551655953646" lon="11.507370741466685"><ele>214.0</ele><time>2026-05-02T14:49:43Z</time></trkpt><trkpt lat="43.13357140773645" lon="11.50718273618651"><ele>213.5</ele><time>2026-05-02T14:49:44Z</time></trkpt><trkpt lat="43.13359573328993" lon="11.506983303530712"><ele>213.0</ele><time>2026-05-02T14:49:45Z</time></trkpt><trkpt lat="43.13362117131802" lon="11.506780817316569"><ele>212.5</ele><time>2026-05-02T14:49:46Z</time></trkpt><trkpt lat="43.133647554044494" lon="11.506581759786796"><ele>212.0</ele><time>2026-05-02T14:49:47Z</time></trkpt><trkpt lat="43.13367568607822" lon="11.506376053940429"><ele>211.0</ele><time>2026-05-02T14:49:48Z</time></trkpt><trkpt lat="43.13370233283974" lon="11.50616752244186"><ele>210.0</ele><time>2026-05-02T14:49:49Z</time></trkpt><trkpt lat="43.1337262556077" lon="11.505964287192175"><ele>209.0</ele><time>2026-05-02T14:49:50Z</time></trkpt><trkpt lat="43.13374966710145" lon="11.505762241235674"><ele>209.0</ele><time>2026-05-02T14:49:51Z</time></trkpt><trkpt lat="43.13377248264216" lon="11.505562924828386"><ele>209.0</ele><time>2026-05-02T14:49:52Z</time></trkpt><trkpt lat="43.133794998302534" lon="11.505368491685784"><ele>209.0</ele><time>2026-05-02T14:49:53Z</time></trkpt><trkpt lat="43.13381927485907" lon="11.505177804495329"><ele>209.0</ele><time>2026-05-02T14:49:54Z</time></trkpt><trkpt lat="43.133844194911646" lon="11.50498980049753"><ele>209.5</ele><time>2026-05-02T14:49:55Z</time></trkpt><trkpt lat="43.13386761697878" lon="11.504801878204393"><ele>210.0</ele><time>2026-05-02T14:49:56Z</time></trkpt><trkpt lat="43.13389148665637" lon="11.504609992583799"><ele>210.5</ele><time>2026-05-02T14:49:57Z</time></trkpt><trkpt lat="43.13391561269529" lon="11.504428620058956"><ele>211.0</ele><time>2026-05-02T14:49:58Z</time></trkpt><trkpt lat="43.133939217053424" lon="11.504243662492485"><ele>211.5</ele><time>2026-05-02T14:49:59Z</time></trkpt><trkpt lat="43.133965757486294" lon="11.504056856748043"><ele>212.0</ele><time>2026-05-02T14:50:00Z</time></trkpt><trkpt lat="43.133996928600745" lon="11.503869214780071"><ele>212.5</ele><time>2026-05-02T14:50:01Z</time></trkpt><trkpt lat="43.13403156525454" lon="11.503676580717116"><ele>213.0</ele><time>2026-05-02T14:50:02Z</time></trkpt><trkpt lat="43.134071637933985" lon="11.503476789560171"><ele>211.66666666666669</ele><time>2026-05-02T14:50:03Z</time></trkpt><trkpt lat="43.13411474408935" lon="11.503274290677739"><ele>210.33333333333334</ele><time>2026-05-02T14:50:04Z</time></trkpt><trkpt lat="43.134157866824275" lon="11.50306722380764"><ele>209.0</ele><time>2026-05-02T14:50:05Z</time></trkpt><trkpt lat="43.1342000704422" lon="11.502859196430123"><ele>206.66666666666669</ele><time>2026-05-02T14:50:06Z</time></trkpt><trkpt lat="43.13423973269077" lon="11.502651167390006"><ele>204.33333333333331</ele><time>2026-05-02T14:50:07Z</time></trkpt><trkpt lat="43.1342786662144" lon="11.502444827431162"><ele>202.0</ele><time>2026-05-02T14:50:08Z</time></trkpt><trkpt lat="43.134317055320466" lon="11.502233753315068"><ele>199.33333333333331</ele><time>2026-05-02T14:50:09Z</time></trkpt><trkpt lat="43.13435756943711" lon="11.502028516586202"><ele>196.66666666666669</ele><time>2026-05-02T14:50:10Z</time></trkpt><trkpt lat="43.13439850060131" lon="11.501822958616568"><ele>194.0</ele><time>2026-05-02T14:50:11Z</time></trkpt><trkpt lat="43.1344417718555" lon="11.501612969382764"><ele>194.0</ele><time>2026-05-02T14:50:12Z</time></trkpt><trkpt lat="43.13448233580407" lon="11.501405178467605"><ele>194.0</ele><time>2026-05-02T14:50:13Z</time></trkpt><trkpt lat="43.134520664376154" lon="11.501192918248584"><ele>194.0</ele><time>2026-05-02T14:50:14Z</time></trkpt><trkpt lat="43.1345593535937" lon="11.500982398370244"><ele>191.0</ele><time>2026-05-02T14:50:15Z</time></trkpt><trkpt lat="43.13459570624623" lon="11.500768391914757"><ele>188.0</ele><time>2026-05-02T14:50:16Z</time></trkpt><trkpt lat="43.134635665005334" lon="11.500560415341356"><ele>185.0</ele><time>2026-05-02T14:50:17Z</time></trkpt><trkpt lat="43.13467771098483" lon="11.500345855887602"><ele>182.0</ele><time>2026-05-02T14:50:18Z</time></trkpt><trkpt lat="43.13471930901639" lon="11.500137935994038"><ele>179.0</ele><time>2026-05-02T14:50:19Z</time></trkpt><trkpt lat="43.134767090560835" lon="11.499923259928211"><ele>176.0</ele><time>2026-05-02T14:50:20Z</time></trkpt><trkpt lat="43.134817951777855" lon="11.49969867528144"><ele>173.66666666666666</ele><time>2026-05-02T14:50:21Z</time></trkpt><trkpt lat="43.134880825590834" lon="11.49946212911931"><ele>171.33333333333334</ele><time>2026-05-02T14:50:22Z</time></trkpt><trkpt lat="43.134951601802214" lon="11.49922301878762"><ele>169.0</ele><time>2026-05-02T14:50:23Z</time></trkpt><trkpt lat="43.135039396057046" lon="11.498986424858266"><ele>166.66666666666669</ele><time>2026-05-02T14:50:24Z</time></trkpt><trkpt lat="43.135116413720404" lon="11.498739227012928"><ele>164.33333333333334</ele><time>2026-05-02T14:50:25Z</time></trkpt><trkpt lat="43.13519193265809" lon="11.498497181747158"><ele>162.0</ele><time>2026-05-02T14:50:26Z</time></trkpt><trkpt lat="43.135265769811745" lon="11.498260544480882"><ele>162.0</ele><time>2026-05-02T14:50:27Z</time></trkpt><trkpt lat="43.13533838485423" lon="11.49802836137286"><ele>162.0</ele><time>2026-05-02T14:50:28Z</time></trkpt><trkpt lat="43.13541235649042" lon="11.497801442342247"><ele>162.0</ele><time>2026-05-02T14:50:29Z</time></trkpt><trkpt lat="43.13548907519032" lon="11.497574680509315"><ele>162.0</ele><time>2026-05-02T14:50:30Z</time></trkpt><trkpt lat="43.13557649230358" lon="11.49736397569187"><ele>162.0</ele><time>2026-05-02T14:50:31Z</time></trkpt><trkpt lat="43.13568135273325" lon="11.497165285460019"><ele>162.0</ele><time>2026-05-02T14:50:32Z</time></trkpt><trkpt lat="43.13579207496514" lon="11.496965814164597"><ele>162.0</ele><time>2026-05-02T14:50:33Z</time></trkpt><trkpt lat="43.135905366054956" lon="11.496770498931255"><ele>162.0</ele><time>2026-05-02T14:50:34Z</time></trkpt><trkpt lat="43.136007491882516" lon="11.496561268339397"><ele>162.0</ele><time>2026-05-02T14:50:35Z</time></trkpt><trkpt lat="43.13612286667687" lon="11.496366908440724"><ele>162.33333333333334</ele><time>2026-05-02T14:50:36Z</time></trkpt><trkpt lat="43.136236057976376" lon="11.49617430357645"><ele>162.66666666666669</ele><time>2026-05-02T14:50:37Z</time></trkpt><trkpt lat="43.13635252660231" lon="11.495984297817573"><ele>163.0</ele><time>2026-05-02T14:50:38Z</time></trkpt><trkpt lat="43.13646579091447" lon="11.495794493935199"><ele>162.33333333333334</ele><time>2026-05-02T14:50:39Z</time></trkpt><trkpt lat="43.13657553177692" lon="11.495605070738256"><ele>161.66666666666666</ele><time>2026-05-02T14:50:40Z</time></trkpt><trkpt lat="43.13668527027074" lon="11.495413503416298"><ele>161.0</ele><time>2026-05-02T14:50:41Z</time></trkpt><trkpt lat="43.136807559266344" lon="11.495235785691557"><ele>163.0</ele><time>2026-05-02T14:50:42Z</time></trkpt><trkpt lat="43.136904097084866" lon="11.49503868146776"><ele>165.0</ele><time>2026-05-02T14:50:43Z</time></trkpt><trkpt lat="43.1370102398132" lon="11.494860417301373"><ele>167.0</ele><time>2026-05-02T14:50:44Z</time></trkpt><trkpt lat="43.13711289361725" lon="11.494689293395249"><ele>166.5</ele><time>2026-05-02T14:50:45Z</time></trkpt><trkpt lat="43.13720705509373" lon="11.494525659377855"><ele>166.0</ele><time>2026-05-02T14:50:46Z</time></trkpt><trkpt lat="43.13729561398603" lon="11.494364692108627"><ele>165.5</ele><time>2026-05-02T14:50:47Z</time></trkpt><trkpt lat="43.13737139062295" lon="11.494203718219394"><ele>165.0</ele><time>2026-05-02T14:50:48Z</time></trkpt><trkpt lat="43.13743073239203" lon="11.494030270921117"><ele>165.0</ele><time>2026-05-02T14:50:49Z</time></trkpt><trkpt lat="43.137464107528395" lon="11.493835385387666"><ele>165.0</ele><time>2026-05-02T14:50:50Z</time></trkpt><trkpt lat="43.137479336020206" lon="11.493629345220437"><ele>165.0</ele><time>2026-05-02T14:50:50.999Z</time></trkpt><trkpt lat="43.13748985969023" lon="11.493416673768753"><ele>166.33333333333334</ele><time>2026-05-02T14:50:51.999Z</time></trkpt><trkpt lat="43.13752914610773" lon="11.49320908105832"><ele>167.66666666666669</ele><time>2026-05-02T14:50:52.999Z</time></trkpt><trkpt lat="43.1375539045518" lon="11.492994860256367"><ele>169.0</ele><time>2026-05-02T14:50:53.999Z</time></trkpt><trkpt lat="43.137579313678174" lon="11.492775607568346"><ele>169.66666666666669</ele><time>2026-05-02T14:50:54.999Z</time></trkpt><trkpt lat="43.13760432901112" lon="11.492559752942915"><ele>170.33333333333334</ele><time>2026-05-02T14:50:55.999Z</time></trkpt><trkpt lat="43.13761398548753" lon="11.49233532174106"><ele>171.0</ele><time>2026-05-02T14:50:56.999Z</time></trkpt><trkpt lat="43.137642778660194" lon="11.49211840706662"><ele>173.33333333333334</ele><time>2026-05-02T14:50:57.999Z</time></trkpt><trkpt lat="43.137663917096646" lon="11.491901950998743"><ele>175.66666666666669</ele><time>2026-05-02T14:50:58.999Z</time></trkpt><trkpt lat="43.13769693772815" lon="11.491686099868211"><ele>178.0</ele><time>2026-05-02T14:50:59.999Z</time></trkpt><trkpt lat="43.13773091112999" lon="11.491483836020581"><ele>178.0</ele><time>2026-05-02T14:51:00.999Z</time></trkpt><trkpt lat="43.13775900858072" lon="11.491280778449445"><ele>178.0</ele><time>2026-05-02T14:51:01.999Z</time></trkpt><trkpt lat="43.13778025406297" lon="11.491087750555737"><ele>178.0</ele><time>2026-05-02T14:51:02.999Z</time></trkpt><trkpt lat="43.13779617420438" lon="11.490906820520463"><ele>178.0</ele><time>2026-05-02T14:51:03.999Z</time></trkpt><trkpt lat="43.13780329870406" lon="11.49075161270667"><ele>177.8</ele><time>2026-05-02T14:51:04.999Z</time></trkpt><trkpt lat="43.13780834994456" lon="11.490619195192128"><ele>177.60000000000002</ele><time>2026-05-02T14:51:05.999Z</time></trkpt><trkpt lat="43.137798786521024" lon="11.490483569547987"><ele>177.39999999999998</ele><time>2026-05-02T14:51:06.999Z</time></trkpt><trkpt lat="43.13777659142204" lon="11.490330653795965"><ele>177.2</ele><time>2026-05-02T14:51:07.999Z</time></trkpt><trkpt lat="43.13775592927144" lon="11.490168310164506"><ele>177.0</ele><time>2026-05-02T14:51:08.999Z</time></trkpt><trkpt lat="43.1377441515157" lon="11.489998284387656"><ele>177.0</ele><time>2026-05-02T14:51:09.999Z</time></trkpt><trkpt lat="43.13773158553623" lon="11.489825969549338"><ele>177.0</ele><time>2026-05-02T14:51:10.999Z</time></trkpt><trkpt lat="43.1377237013106" lon="11.489641899382681"><ele>177.0</ele><time>2026-05-02T14:51:11.999Z</time></trkpt><trkpt lat="43.137714708850524" lon="11.489451814585241"><ele>177.0</ele><time>2026-05-02T14:51:12.999Z</time></trkpt><trkpt lat="43.13770828861219" lon="11.489259600813464"><ele>174.0</ele><time>2026-05-02T14:51:13.999Z</time></trkpt><trkpt lat="43.13770071964275" lon="11.489057236284298"><ele>171.0</ele><time>2026-05-02T14:51:14.999Z</time></trkpt><trkpt lat="43.13769145751279" lon="11.488854092235213"><ele>168.0</ele><time>2026-05-02T14:51:15.999Z</time></trkpt><trkpt lat="43.13768290613068" lon="11.488647232961574"><ele>165.0</ele><time>2026-05-02T14:51:16.999Z</time></trkpt><trkpt lat="43.137674475188966" lon="11.48844926116763"><ele>162.5</ele><time>2026-05-02T14:51:17.999Z</time></trkpt><trkpt lat="43.13766978971855" lon="11.488265896553488"><ele>160.0</ele><time>2026-05-02T14:51:18.999Z</time></trkpt><trkpt lat="43.1376713873115" lon="11.48808202172923"><ele>157.5</ele><time>2026-05-02T14:51:19.999Z</time></trkpt><trkpt lat="43.137673293709405" lon="11.487897232747763"><ele>155.0</ele><time>2026-05-02T14:51:20.999Z</time></trkpt><trkpt lat="43.13767830991726" lon="11.487726806151773"><ele>154.0</ele><time>2026-05-02T14:51:21.999Z</time></trkpt><trkpt lat="43.13768147443728" lon="11.487569113889858"><ele>153.0</ele><time>2026-05-02T14:51:22.999Z</time></trkpt><trkpt lat="43.13767968409699" lon="11.48740797857329"><ele>152.0</ele><time>2026-05-02T14:51:23.999Z</time></trkpt><trkpt lat="43.13767509009533" lon="11.487234145042535"><ele>151.0</ele><time>2026-05-02T14:51:24.999Z</time></trkpt><trkpt lat="43.13768495197164" lon="11.487052065743214"><ele>150.25</ele><time>2026-05-02T14:51:25.999Z</time></trkpt><trkpt lat="43.13767342221322" lon="11.486866719340465"><ele>149.5</ele><time>2026-05-02T14:51:26.999Z</time></trkpt><trkpt lat="43.1376739746099" lon="11.48668436063365"><ele>148.75</ele><time>2026-05-02T14:51:27.999Z</time></trkpt><trkpt lat="43.13767518442177" lon="11.486508339677432"><ele>148.0</ele><time>2026-05-02T14:51:28.999Z</time></trkpt><trkpt lat="43.137677930775745" lon="11.4863455291907"><ele>148.0</ele><time>2026-05-02T14:51:29.999Z</time></trkpt><trkpt lat="43.13767666665053" lon="11.486194343767986"><ele>148.0</ele><time>2026-05-02T14:51:30.999Z</time></trkpt><trkpt lat="43.137673807581805" lon="11.486061090084778"><ele>148.0</ele><time>2026-05-02T14:51:31.999Z</time></trkpt><trkpt lat="43.13767544638992" lon="11.485947914197888"><ele>148.0</ele><time>2026-05-02T14:51:32.999Z</time></trkpt><trkpt lat="43.137691615181964" lon="11.485854928289333"><ele>148.0</ele><time>2026-05-02T14:51:33.999Z</time></trkpt><trkpt lat="43.13752765511319" lon="11.485780911814645"><ele>148.0</ele><time>2026-05-02T14:51:36.999Z</time></trkpt><trkpt lat="43.13744604912819" lon="11.485802997713195"><ele>148.0</ele><time>2026-05-02T14:51:37.999Z</time></trkpt><trkpt lat="43.137352380792514" lon="11.485815207687859"><ele>148.0</ele><time>2026-05-02T14:51:38.999Z</time></trkpt><trkpt lat="43.13725343296843" lon="11.485809386675573"><ele>148.0</ele><time>2026-05-02T14:51:39.999Z</time></trkpt><trkpt lat="43.137151132889436" lon="11.48580372241055"><ele>148.0</ele><time>2026-05-02T14:51:40.999Z</time></trkpt><trkpt lat="43.137047575137544" lon="11.485793981718977"><ele>147.5</ele><time>2026-05-02T14:51:42Z</time></trkpt><trkpt lat="43.13693921214235" lon="11.485787466727384"><ele>147.0</ele><time>2026-05-02T14:51:43Z</time></trkpt><trkpt lat="43.13682584592369" lon="11.485785535083927"><ele>146.5</ele><time>2026-05-02T14:51:44Z</time></trkpt><trkpt lat="43.13671119165471" lon="11.485784693724687"><ele>146.0</ele><time>2026-05-02T14:51:45Z</time></trkpt><trkpt lat="43.136592638707974" lon="11.485782610404582"><ele>146.25</ele><time>2026-05-02T14:51:46Z</time></trkpt><trkpt lat="43.13647659281182" lon="11.485783582070734"><ele>146.5</ele><time>2026-05-02T14:51:47Z</time></trkpt><trkpt lat="43.13635563648058" lon="11.485787073079024"><ele>146.75</ele><time>2026-05-02T14:51:48Z</time></trkpt><trkpt lat="43.136232510441474" lon="11.485792731728857"><ele>147.0</ele><time>2026-05-02T14:51:49Z</time></trkpt><trkpt lat="43.13610827916785" lon="11.485794726673246"><ele>147.0</ele><time>2026-05-02T14:51:50Z</time></trkpt><trkpt lat="43.13598245618405" lon="11.485787277371566"><ele>147.0</ele><time>2026-05-02T14:51:51Z</time></trkpt><trkpt lat="43.13585590239014" lon="11.48576907862623"><ele>147.0</ele><time>2026-05-02T14:51:52Z</time></trkpt><trkpt lat="43.13572845732708" lon="11.485757754652758"><ele>147.0</ele><time>2026-05-02T14:51:53Z</time></trkpt><trkpt lat="43.135603075132835" lon="11.485754012106003"><ele>147.0</ele><time>2026-05-02T14:51:54Z</time></trkpt><trkpt lat="43.13547652736566" lon="11.485751179900655"><ele>147.0</ele><time>2026-05-02T14:51:55Z</time></trkpt><trkpt lat="43.13535268832369" lon="11.48574651952888"><ele>147.0</ele><time>2026-05-02T14:51:56Z</time></trkpt><trkpt lat="43.13523122038059" lon="11.48574271658661"><ele>147.0</ele><time>2026-05-02T14:51:57Z</time></trkpt><trkpt lat="43.13511767538296" lon="11.485740886444976"><ele>147.0</ele><time>2026-05-02T14:51:58Z</time></trkpt><trkpt lat="43.13501486515631" lon="11.485736957725784"><ele>147.0</ele><time>2026-05-02T14:51:59Z</time></trkpt><trkpt lat="43.13492155742965" lon="11.485715976195484"><ele>147.0</ele><time>2026-05-02T14:52:00Z</time></trkpt><trkpt lat="43.13484417427546" lon="11.485659113239555"><ele>147.0</ele><time>2026-05-02T14:52:01Z</time></trkpt><trkpt lat="43.134754758848096" lon="11.48562077681408"><ele>147.0</ele><time>2026-05-02T14:52:02Z</time></trkpt><trkpt lat="43.13471008972511" lon="11.485465119057421"><ele>146.75</ele><time>2026-05-02T14:52:03Z</time></trkpt><trkpt lat="43.13465590630913" lon="11.485329534475644"><ele>146.5</ele><time>2026-05-02T14:52:04Z</time></trkpt><trkpt lat="43.13461188362857" lon="11.485177193862205"><ele>146.25</ele><time>2026-05-02T14:52:05Z</time></trkpt><trkpt lat="43.13457141975932" lon="11.485018576296492"><ele>146.0</ele><time>2026-05-02T14:52:06Z</time></trkpt><trkpt lat="43.13452941042107" lon="11.48485130462885"><ele>146.0</ele><time>2026-05-02T14:52:07Z</time></trkpt><trkpt lat="43.13448599484219" lon="11.484684501246154"><ele>146.0</ele><time>2026-05-02T14:52:08Z</time></trkpt><trkpt lat="43.13444496256583" lon="11.48452694522839"><ele>146.0</ele><time>2026-05-02T14:52:09Z</time></trkpt><trkpt lat="43.13440079294187" lon="11.484369335910555"><ele>146.0</ele><time>2026-05-02T14:52:10Z</time></trkpt><trkpt lat="43.13436089121599" lon="11.48421562214909"><ele>145.8</ele><time>2026-05-02T14:52:11Z</time></trkpt><trkpt lat="43.13432086691613" lon="11.484060606566427"><ele>145.6</ele><time>2026-05-02T14:52:12Z</time></trkpt><trkpt lat="43.134283522883074" lon="11.48391566412094"><ele>145.4</ele><time>2026-05-02T14:52:13Z</time></trkpt><trkpt lat="43.134252421422495" lon="11.483782906613978"><ele>145.2</ele><time>2026-05-02T14:52:14Z</time></trkpt><trkpt lat="43.13422061078784" lon="11.483665542602644"><ele>145.0</ele><time>2026-05-02T14:52:15Z</time></trkpt><trkpt lat="43.13419042423358" lon="11.483566695755353"><ele>145.0</ele><time>2026-05-02T14:52:16Z</time></trkpt><trkpt lat="43.13416515997497" lon="11.483481203076883"><ele>145.0</ele><time>2026-05-02T14:52:17Z</time></trkpt><trkpt lat="43.134118909373875" lon="11.483325476986547"><ele>145.0</ele><time>2026-05-02T14:52:19Z</time></trkpt><trkpt lat="43.134109511899005" lon="11.483203222828473"><ele>145.0</ele><time>2026-05-02T14:52:21Z</time></trkpt><trkpt lat="43.13428281655086" lon="11.483162188228059"><ele>145.0</ele><time>2026-05-02T14:52:35Z</time></trkpt><trkpt lat="43.134364500470205" lon="11.483181102669976"><ele>145.0</ele><time>2026-05-02T14:52:36Z</time></trkpt><trkpt lat="43.13444939346675" lon="11.483192414680682"><ele>145.0</ele><time>2026-05-02T14:52:37Z</time></trkpt><trkpt lat="43.134536676086114" lon="11.483209620716323"><ele>145.0</ele><time>2026-05-02T14:52:38Z</time></trkpt><trkpt lat="43.134630305348296" lon="11.483226033813652"><ele>145.0</ele><time>2026-05-02T14:52:39Z</time></trkpt><trkpt lat="43.134726932227615" lon="11.48324419272314"><ele>145.0</ele><time>2026-05-02T14:52:40Z</time></trkpt><trkpt lat="43.13482426441152" lon="11.483263499155935"><ele>145.16666666666669</ele><time>2026-05-02T14:52:41Z</time></trkpt><trkpt lat="43.13492286668226" lon="11.483284867700924"><ele>145.33333333333334</ele><time>2026-05-02T14:52:42Z</time></trkpt><trkpt lat="43.13502223797969" lon="11.483300342672138"><ele>145.5</ele><time>2026-05-02T14:52:43Z</time></trkpt><trkpt lat="43.135108620826685" lon="11.483308844170013"><ele>145.66666666666666</ele><time>2026-05-02T14:52:44Z</time></trkpt><trkpt lat="43.135188181953424" lon="11.4833242202015"><ele>145.83333333333331</ele><time>2026-05-02T14:52:45Z</time></trkpt><trkpt lat="43.135256357304044" lon="11.483335125636989"><ele>146.0</ele><time>2026-05-02T14:52:46Z</time></trkpt><trkpt lat="43.13532796919325" lon="11.483345059469553"><ele>146.0</ele><time>2026-05-02T14:52:47Z</time></trkpt><trkpt lat="43.13541075531551" lon="11.483357522308014"><ele>146.0</ele><time>2026-05-02T14:52:48Z</time></trkpt><trkpt lat="43.135492237218024" lon="11.483374528076073"><ele>146.0</ele><time>2026-05-02T14:52:49Z</time></trkpt><trkpt lat="43.13558596352146" lon="11.483391046662325"><ele>146.0</ele><time>2026-05-02T14:52:50Z</time></trkpt><trkpt lat="43.135680675680106" lon="11.483409185329547"><ele>146.0</ele><time>2026-05-02T14:52:51Z</time></trkpt><trkpt lat="43.135779649136985" lon="11.483418887468444"><ele>146.0</ele><time>2026-05-02T14:52:52Z</time></trkpt><trkpt lat="43.13587790733105" lon="11.483422231878667"><ele>146.0</ele><time>2026-05-02T14:52:53Z</time></trkpt><trkpt lat="43.13598551132063" lon="11.483418723617772"><ele>146.0</ele><time>2026-05-02T14:52:54Z</time></trkpt><trkpt lat="43.13609003609778" lon="11.483414257282574"><ele>146.0</ele><time>2026-05-02T14:52:55Z</time></trkpt><trkpt lat="43.136184571233294" lon="11.483409933941099"><ele>146.0</ele><time>2026-05-02T14:52:56Z</time></trkpt><trkpt lat="43.13627653636821" lon="11.483407469172313"><ele>146.0</ele><time>2026-05-02T14:52:57Z</time></trkpt><trkpt lat="43.13636350659013" lon="11.483406767188598"><ele>146.0</ele><time>2026-05-02T14:52:58Z</time></trkpt><trkpt lat="43.136447254429086" lon="11.483402784769932"><ele>146.0</ele><time>2026-05-02T14:52:59Z</time></trkpt><trkpt lat="43.13651998192752" lon="11.483401432511258"><ele>146.0</ele><time>2026-05-02T14:53:00Z</time></trkpt><trkpt lat="43.13658848688673" lon="11.483404869839056"><ele>146.0</ele><time>2026-05-02T14:53:01Z</time></trkpt><trkpt lat="43.136655490926934" lon="11.483407190492894"><ele>146.0</ele><time>2026-05-02T14:53:02Z</time></trkpt><trkpt lat="43.13672320614455" lon="11.48340823458487"><ele>146.0</ele><time>2026-05-02T14:53:03Z</time></trkpt><trkpt lat="43.136793339372886" lon="11.483412992903016"><ele>146.0</ele><time>2026-05-02T14:53:04Z</time></trkpt><trkpt lat="43.13686168975064" lon="11.483404488527567"><ele>146.0</ele><time>2026-05-02T14:53:05Z</time></trkpt><trkpt lat="43.13692848443056" lon="11.483402664294967"><ele>146.0</ele><time>2026-05-02T14:53:06Z</time></trkpt><trkpt lat="43.13699184069628" lon="11.483401605085188"><ele>146.0</ele><time>2026-05-02T14:53:06.999Z</time></trkpt><trkpt lat="43.13710400926952" lon="11.483392544196628"><ele>146.0</ele><time>2026-05-02T14:53:08.999Z</time></trkpt><trkpt lat="43.13720991671491" lon="11.483382683366242"><ele>146.0</ele><time>2026-05-02T14:53:10.999Z</time></trkpt><trkpt lat="43.137315868826136" lon="11.483397222402438"><ele>146.2</ele><time>2026-05-02T14:53:12.999Z</time></trkpt><trkpt lat="43.137426684375185" lon="11.483394645295975"><ele>146.39999999999998</ele><time>2026-05-02T14:53:14.999Z</time></trkpt><trkpt lat="43.13753390514091" lon="11.483370013301691"><ele>146.6</ele><time>2026-05-02T14:53:16.999Z</time></trkpt><trkpt lat="43.137629715340665" lon="11.483370731206065"><ele>146.79999999999998</ele><time>2026-05-02T14:53:18.999Z</time></trkpt><trkpt lat="43.13769624257203" lon="11.483381418171312"><ele>147.0</ele><time>2026-05-02T14:53:21.999Z</time></trkpt><trkpt lat="43.13778145862042" lon="11.483387859504466"><ele>147.0</ele><time>2026-05-02T14:53:23.999Z</time></trkpt><trkpt lat="43.137853255090036" lon="11.48338306560908"><ele>147.0</ele><time>2026-05-02T14:53:24.999Z</time></trkpt><trkpt lat="43.137928448587786" lon="11.48338155116268"><ele>147.0</ele><time>2026-05-02T14:53:25.999Z</time></trkpt><trkpt lat="43.138010068482025" lon="11.483377000748291"><ele>147.0</ele><time>2026-05-02T14:53:26.999Z</time></trkpt><trkpt lat="43.13810860595006" lon="11.48337370171276"><ele>147.0</ele><time>2026-05-02T14:53:27.999Z</time></trkpt><trkpt lat="43.13821137489343" lon="11.483369306646"><ele>147.0</ele><time>2026-05-02T14:53:28.999Z</time></trkpt><trkpt lat="43.13832069007031" lon="11.483359489549326"><ele>146.75</ele><time>2026-05-02T14:53:29.999Z</time></trkpt><trkpt lat="43.13842855124061" lon="11.48333812028151"><ele>146.5</ele><time>2026-05-02T14:53:30.999Z</time></trkpt><trkpt lat="43.13854310888562" lon="11.483308247076902"><ele>146.25</ele><time>2026-05-02T14:53:31.999Z</time></trkpt><trkpt lat="43.13866285971176" lon="11.483271379509075"><ele>146.0</ele><time>2026-05-02T14:53:32.999Z</time></trkpt><trkpt lat="43.1387898071197" lon="11.48322590461082"><ele>146.0</ele><time>2026-05-02T14:53:33.999Z</time></trkpt><trkpt lat="43.13891718562327" lon="11.483169208120394"><ele>146.0</ele><time>2026-05-02T14:53:34.999Z</time></trkpt><trkpt lat="43.139034726386036" lon="11.483107761023835"><ele>146.0</ele><time>2026-05-02T14:53:35.999Z</time></trkpt><trkpt lat="43.139132952101484" lon="11.483047903336306"><ele>146.0</ele><time>2026-05-02T14:53:36.999Z</time></trkpt><trkpt lat="43.13922272457157" lon="11.482985792934894"><ele>146.25</ele><time>2026-05-02T14:53:37.999Z</time></trkpt><trkpt lat="43.13931743978279" lon="11.482918735192715"><ele>146.5</ele><time>2026-05-02T14:53:38.999Z</time></trkpt><trkpt lat="43.139418850663816" lon="11.482847397995805"><ele>146.75</ele><time>2026-05-02T14:53:39.999Z</time></trkpt><trkpt lat="43.13952647616336" lon="11.482770457382081"><ele>147.0</ele><time>2026-05-02T14:53:40.999Z</time></trkpt><trkpt lat="43.13963807307007" lon="11.482690163300566"><ele>147.0</ele><time>2026-05-02T14:53:41.999Z</time></trkpt><trkpt lat="43.13975408015451" lon="11.482609133592849"><ele>147.0</ele><time>2026-05-02T14:53:42.999Z</time></trkpt><trkpt lat="43.139869375541025" lon="11.482530001715086"><ele>147.0</ele><time>2026-05-02T14:53:43.999Z</time></trkpt><trkpt lat="43.13998265356303" lon="11.482453188464145"><ele>147.0</ele><time>2026-05-02T14:53:44.999Z</time></trkpt><trkpt lat="43.140096593641175" lon="11.482369371418725"><ele>146.0</ele><time>2026-05-02T14:53:45.999Z</time></trkpt><trkpt lat="43.140209431809" lon="11.482290422721713"><ele>145.0</ele><time>2026-05-02T14:53:46.999Z</time></trkpt><trkpt lat="43.14032189790369" lon="11.482208444153343"><ele>144.0</ele><time>2026-05-02T14:53:48Z</time></trkpt><trkpt lat="43.140437946599135" lon="11.482125731370882"><ele>143.0</ele><time>2026-05-02T14:53:49Z</time></trkpt><trkpt lat="43.140557320419845" lon="11.482039335229262"><ele>142.75</ele><time>2026-05-02T14:53:50Z</time></trkpt><trkpt lat="43.14068741129878" lon="11.481953581513027"><ele>142.5</ele><time>2026-05-02T14:53:51Z</time></trkpt><trkpt lat="43.140810513501265" lon="11.48186360927184"><ele>142.25</ele><time>2026-05-02T14:53:52Z</time></trkpt><trkpt lat="43.14093388749764" lon="11.481774801080386"><ele>142.0</ele><time>2026-05-02T14:53:53Z</time></trkpt><trkpt lat="43.14106256807534" lon="11.481684812344357"><ele>141.75</ele><time>2026-05-02T14:53:54Z</time></trkpt><trkpt lat="43.14119396579712" lon="11.481589747498505"><ele>141.5</ele><time>2026-05-02T14:53:55Z</time></trkpt><trkpt lat="43.141321831657365" lon="11.481495622103079"><ele>141.25</ele><time>2026-05-02T14:53:56Z</time></trkpt><trkpt lat="43.14144868782635" lon="11.4813921862291"><ele>141.0</ele><time>2026-05-02T14:53:57Z</time></trkpt><trkpt lat="43.141559402283235" lon="11.481284659922887"><ele>141.2</ele><time>2026-05-02T14:53:58Z</time></trkpt><trkpt lat="43.141654686236784" lon="11.481187669906632"><ele>141.39999999999998</ele><time>2026-05-02T14:53:59Z</time></trkpt><trkpt lat="43.14172400121947" lon="11.481097488747041"><ele>141.6</ele><time>2026-05-02T14:54:00Z</time></trkpt><trkpt lat="43.14178652868985" lon="11.481017352858807"><ele>141.79999999999998</ele><time>2026-05-02T14:54:01Z</time></trkpt><trkpt lat="43.14187588499633" lon="11.480894702412554"><ele>142.0</ele><time>2026-05-02T14:54:03Z</time></trkpt><trkpt lat="43.14193378311037" lon="11.480819664001528"><ele>142.0</ele><time>2026-05-02T14:54:04Z</time></trkpt><trkpt lat="43.142006189818375" lon="11.480737056032666"><ele>142.0</ele><time>2026-05-02T14:54:05Z</time></trkpt><trkpt lat="43.14208402539653" lon="11.480648286364524"><ele>142.0</ele><time>2026-05-02T14:54:06Z</time></trkpt><trkpt lat="43.14216274611115" lon="11.480549463313979"><ele>142.0</ele><time>2026-05-02T14:54:07Z</time></trkpt><trkpt lat="43.14224673408007" lon="11.48044987364115"><ele>142.0</ele><time>2026-05-02T14:54:08Z</time></trkpt><trkpt lat="43.14233592309703" lon="11.480343317034375"><ele>142.5</ele><time>2026-05-02T14:54:09Z</time></trkpt><trkpt lat="43.14242458745484" lon="11.480229541215742"><ele>143.0</ele><time>2026-05-02T14:54:10Z</time></trkpt><trkpt lat="43.1425138012325" lon="11.480107655886558"><ele>143.5</ele><time>2026-05-02T14:54:11Z</time></trkpt><trkpt lat="43.14259644796715" lon="11.479970598049675"><ele>144.0</ele><time>2026-05-02T14:54:12Z</time></trkpt><trkpt lat="43.142671260660414" lon="11.479816960344484"><ele>144.0</ele><time>2026-05-02T14:54:13Z</time></trkpt><trkpt lat="43.14273917161448" lon="11.479644158906652"><ele>144.0</ele><time>2026-05-02T14:54:14Z</time></trkpt><trkpt lat="43.14279102997623" lon="11.479447802312524"><ele>144.0</ele><time>2026-05-02T14:54:15Z</time></trkpt><trkpt lat="43.14282873042864" lon="11.479245551778796"><ele>144.0</ele><time>2026-05-02T14:54:16Z</time></trkpt><trkpt lat="43.142854128005844" lon="11.47904228785525"><ele>143.75</ele><time>2026-05-02T14:54:17Z</time></trkpt><trkpt lat="43.14287936750266" lon="11.478841936478561"><ele>143.5</ele><time>2026-05-02T14:54:18Z</time></trkpt><trkpt lat="43.14291057788571" lon="11.478641592440113"><ele>143.25</ele><time>2026-05-02T14:54:19Z</time></trkpt><trkpt lat="43.14294802621332" lon="11.478440428193238"><ele>143.0</ele><time>2026-05-02T14:54:20Z</time></trkpt><trkpt lat="43.142985389886356" lon="11.478240507106078"><ele>143.0</ele><time>2026-05-02T14:54:21Z</time></trkpt><trkpt lat="43.143016715847125" lon="11.478044335852996"><ele>143.0</ele><time>2026-05-02T14:54:22Z</time></trkpt><trkpt lat="43.14304907171023" lon="11.477865840030354"><ele>143.0</ele><time>2026-05-02T14:54:23Z</time></trkpt><trkpt lat="43.14309047224313" lon="11.477709994987576"><ele>143.0</ele><time>2026-05-02T14:54:24Z</time></trkpt><trkpt lat="43.14315341381458" lon="11.477587850392645"><ele>143.0</ele><time>2026-05-02T14:54:25Z</time></trkpt><trkpt lat="43.14319468565944" lon="11.477454636578756"><ele>143.0</ele><time>2026-05-02T14:54:26Z</time></trkpt><trkpt lat="43.1432596596607" lon="11.477335702466934"><ele>143.0</ele><time>2026-05-02T14:54:27Z</time></trkpt><trkpt lat="43.143332901668" lon="11.477223634409318"><ele>143.0</ele><time>2026-05-02T14:54:28Z</time></trkpt><trkpt lat="43.14341557507539" lon="11.477109505735923"><ele>143.0</ele><time>2026-05-02T14:54:29Z</time></trkpt><trkpt lat="43.14350532053269" lon="11.476995442549605"><ele>143.0</ele><time>2026-05-02T14:54:30Z</time></trkpt><trkpt lat="43.14362148065183" lon="11.476882778220936"><ele>143.0</ele><time>2026-05-02T14:54:31Z</time></trkpt><trkpt lat="43.14375966733381" lon="11.476734575652412"><ele>143.0</ele><time>2026-05-02T14:54:32Z</time></trkpt><trkpt lat="43.14392233104008" lon="11.476560121903844"><ele>142.66666666666666</ele><time>2026-05-02T14:54:33Z</time></trkpt><trkpt lat="43.14407516633347" lon="11.476390193991547"><ele>142.33333333333334</ele><time>2026-05-02T14:54:34Z</time></trkpt><trkpt lat="43.144230883362596" lon="11.476255694468149"><ele>142.0</ele><time>2026-05-02T14:54:35Z</time></trkpt><trkpt lat="43.14440266889461" lon="11.476202019688566"><ele>142.0</ele><time>2026-05-02T14:54:36Z</time></trkpt><trkpt lat="43.14458673075442" lon="11.476207706407056"><ele>142.0</ele><time>2026-05-02T14:54:37Z</time></trkpt><trkpt lat="43.14478217606128" lon="11.476252100790875"><ele>142.0</ele><time>2026-05-02T14:54:38Z</time></trkpt><trkpt lat="43.144997222631766" lon="11.4762762900908"><ele>142.0</ele><time>2026-05-02T14:54:39Z</time></trkpt><trkpt lat="43.14520542458369" lon="11.476271079619584"><ele>142.0</ele><time>2026-05-02T14:54:40Z</time></trkpt><trkpt lat="43.145466475319886" lon="11.476233288587618"><ele>143.5</ele><time>2026-05-02T14:54:41Z</time></trkpt><trkpt lat="43.14572272891341" lon="11.476151704610915"><ele>145.0</ele><time>2026-05-02T14:54:42Z</time></trkpt><trkpt lat="43.14597592205745" lon="11.47605625595766"><ele>145.0</ele><time>2026-05-02T14:54:43Z</time></trkpt><trkpt lat="43.14622206699758" lon="11.475960449935927"><ele>145.0</ele><time>2026-05-02T14:54:44Z</time></trkpt><trkpt lat="43.14646704876301" lon="11.475867377557558"><ele>146.5</ele><time>2026-05-02T14:54:45Z</time></trkpt><trkpt lat="43.146713549905414" lon="11.475770199761692"><ele>148.0</ele><time>2026-05-02T14:54:46Z</time></trkpt><trkpt lat="43.14696128492458" lon="11.475678205659264"><ele>148.0</ele><time>2026-05-02T14:54:47Z</time></trkpt><trkpt lat="43.147207119449746" lon="11.47558641757455"><ele>148.0</ele><time>2026-05-02T14:54:48Z</time></trkpt><trkpt lat="43.14745469711103" lon="11.475495361049058"><ele>146.0</ele><time>2026-05-02T14:54:49Z</time></trkpt><trkpt lat="43.147698528851336" lon="11.475404818316825"><ele>144.0</ele><time>2026-05-02T14:54:50Z</time></trkpt><trkpt lat="43.14793526252566" lon="11.475316557410965"><ele>144.0</ele><time>2026-05-02T14:54:51Z</time></trkpt><trkpt lat="43.14816857008961" lon="11.47522869450627"><ele>144.0</ele><time>2026-05-02T14:54:52Z</time></trkpt><trkpt lat="43.14839784707483" lon="11.475144480546629"><ele>145.0</ele><time>2026-05-02T14:54:53Z</time></trkpt><trkpt lat="43.14862325981667" lon="11.475059134608683"><ele>146.0</ele><time>2026-05-02T14:54:54Z</time></trkpt><trkpt lat="43.148845099619564" lon="11.474976733770774"><ele>146.66666666666666</ele><time>2026-05-02T14:54:55Z</time></trkpt><trkpt lat="43.14905908012075" lon="11.474896388383124"><ele>147.33333333333334</ele><time>2026-05-02T14:54:56Z</time></trkpt><trkpt lat="43.14926769196498" lon="11.474803268178547"><ele>148.0</ele><time>2026-05-02T14:54:57Z</time></trkpt><trkpt lat="43.14946820092465" lon="11.474690663698103"><ele>147.66666666666669</ele><time>2026-05-02T14:54:58Z</time></trkpt><trkpt lat="43.149663559920256" lon="11.474562248818769"><ele>147.33333333333334</ele><time>2026-05-02T14:54:59Z</time></trkpt><trkpt lat="43.149857612558264" lon="11.474435914012393"><ele>147.0</ele><time>2026-05-02T14:55:00Z</time></trkpt><trkpt lat="43.15004933277291" lon="11.474315269860082"><ele>147.0</ele><time>2026-05-02T14:55:01Z</time></trkpt><trkpt lat="43.150237049659125" lon="11.474195843692923"><ele>147.0</ele><time>2026-05-02T14:55:02Z</time></trkpt><trkpt lat="43.15041880437586" lon="11.474067669429168"><ele>147.0</ele><time>2026-05-02T14:55:03Z</time></trkpt><trkpt lat="43.150587241630625" lon="11.473924162384044"><ele>147.33333333333334</ele><time>2026-05-02T14:55:04Z</time></trkpt><trkpt lat="43.150744571850844" lon="11.473765442551734"><ele>147.66666666666669</ele><time>2026-05-02T14:55:05Z</time></trkpt><trkpt lat="43.150895392108666" lon="11.473608756089511"><ele>148.0</ele><time>2026-05-02T14:55:06Z</time></trkpt><trkpt lat="43.15104381778267" lon="11.473456162646455"><ele>148.0</ele><time>2026-05-02T14:55:07Z</time></trkpt><trkpt lat="43.15118937695174" lon="11.473311065957288"><ele>148.0</ele><time>2026-05-02T14:55:08Z</time></trkpt><trkpt lat="43.1513358211257" lon="11.473171652886988"><ele>148.0</ele><time>2026-05-02T14:55:09Z</time></trkpt><trkpt lat="43.15148288640789" lon="11.473044217452259"><ele>146.33333333333334</ele><time>2026-05-02T14:55:10Z</time></trkpt><trkpt lat="43.151632302523794" lon="11.47292637875614"><ele>144.66666666666666</ele><time>2026-05-02T14:55:11Z</time></trkpt><trkpt lat="43.15177912808773" lon="11.472819373708601"><ele>143.0</ele><time>2026-05-02T14:55:12Z</time></trkpt><trkpt lat="43.15192951588981" lon="11.472727654635504"><ele>143.0</ele><time>2026-05-02T14:55:12.999Z</time></trkpt><trkpt lat="43.15208426566657" lon="11.472653135326672"><ele>143.0</ele><time>2026-05-02T14:55:13.999Z</time></trkpt><trkpt lat="43.15224496357606" lon="11.472589689218294"><ele>143.0</ele><time>2026-05-02T14:55:14.999Z</time></trkpt><trkpt lat="43.15240529460802" lon="11.472528593881687"><ele>143.0</ele><time>2026-05-02T14:55:15.999Z</time></trkpt><trkpt lat="43.1525695427494" lon="11.47248079598095"><ele>143.0</ele><time>2026-05-02T14:55:16.999Z</time></trkpt><trkpt lat="43.15273574098772" lon="11.472440053768764"><ele>143.0</ele><time>2026-05-02T14:55:17.999Z</time></trkpt><trkpt lat="43.15289970532114" lon="11.472403675272735"><ele>143.0</ele><time>2026-05-02T14:55:18.999Z</time></trkpt><trkpt lat="43.15305845279204" lon="11.472369936377566"><ele>143.0</ele><time>2026-05-02T14:55:19.999Z</time></trkpt><trkpt lat="43.15321495122671" lon="11.472338365694869"><ele>143.0</ele><time>2026-05-02T14:55:20.999Z</time></trkpt><trkpt lat="43.153365290696726" lon="11.47230192835039"><ele>143.0</ele><time>2026-05-02T14:55:21.999Z</time></trkpt><trkpt lat="43.15351165828799" lon="11.472267114134945"><ele>143.0</ele><time>2026-05-02T14:55:22.999Z</time></trkpt><trkpt lat="43.15365330686591" lon="11.47222801152812"><ele>143.0</ele><time>2026-05-02T14:55:23.999Z</time></trkpt><trkpt lat="43.15379297901073" lon="11.472197865587221"><ele>143.0</ele><time>2026-05-02T14:55:24.999Z</time></trkpt><trkpt lat="43.15393375467347" lon="11.472167640680551"><ele>143.25</ele><time>2026-05-02T14:55:25.999Z</time></trkpt><trkpt lat="43.154069942599534" lon="11.472134691096866"><ele>143.5</ele><time>2026-05-02T14:55:26.999Z</time></trkpt><trkpt lat="43.15420622052028" lon="11.472102694187582"><ele>143.75</ele><time>2026-05-02T14:55:27.999Z</time></trkpt><trkpt lat="43.15433870191223" lon="11.472072450847746"><ele>144.0</ele><time>2026-05-02T14:55:28.999Z</time></trkpt><trkpt lat="43.15447036389964" lon="11.472045756241222"><ele>144.0</ele><time>2026-05-02T14:55:29.999Z</time></trkpt><trkpt lat="43.154600073886805" lon="11.472019052140382"><ele>144.0</ele><time>2026-05-02T14:55:30.999Z</time></trkpt><trkpt lat="43.1547312123532" lon="11.471988707784824"><ele>144.0</ele><time>2026-05-02T14:55:31.999Z</time></trkpt><trkpt lat="43.15485608461386" lon="11.47195889826954"><ele>144.0</ele><time>2026-05-02T14:55:32.999Z</time></trkpt><trkpt lat="43.15497234531963" lon="11.471931422333084"><ele>144.25</ele><time>2026-05-02T14:55:33.999Z</time></trkpt><trkpt lat="43.15508240868093" lon="11.471903819191652"><ele>144.5</ele><time>2026-05-02T14:55:34.999Z</time></trkpt><trkpt lat="43.155194226034986" lon="11.47187705064009"><ele>144.75</ele><time>2026-05-02T14:55:35.999Z</time></trkpt><trkpt lat="43.15530798781906" lon="11.471852683417705"><ele>145.0</ele><time>2026-05-02T14:55:36.999Z</time></trkpt><trkpt lat="43.15542297431492" lon="11.471826462705826"><ele>145.0</ele><time>2026-05-02T14:55:37.999Z</time></trkpt><trkpt lat="43.15554526779699" lon="11.471798643370349"><ele>145.0</ele><time>2026-05-02T14:55:38.999Z</time></trkpt><trkpt lat="43.15567272078881" lon="11.471769581144942"><ele>145.0</ele><time>2026-05-02T14:55:39.999Z</time></trkpt><trkpt lat="43.15580665953344" lon="11.471741463034501"><ele>145.0</ele><time>2026-05-02T14:55:40.999Z</time></trkpt><trkpt lat="43.15594556409157" lon="11.47170998212497"><ele>145.75</ele><time>2026-05-02T14:55:41.999Z</time></trkpt><trkpt lat="43.15608865556767" lon="11.471677281466386"><ele>146.5</ele><time>2026-05-02T14:55:42.999Z</time></trkpt><trkpt lat="43.15623504308923" lon="11.471641162751444"><ele>147.25</ele><time>2026-05-02T14:55:43.999Z</time></trkpt><trkpt lat="43.15638334130045" lon="11.471609026904968"><ele>148.0</ele><time>2026-05-02T14:55:44.999Z</time></trkpt><trkpt lat="43.15653696573789" lon="11.47157897577573"><ele>148.33333333333334</ele><time>2026-05-02T14:55:45.999Z</time></trkpt><trkpt lat="43.15668952432729" lon="11.471542874600182"><ele>148.66666666666666</ele><time>2026-05-02T14:55:46.999Z</time></trkpt><trkpt lat="43.15683879164482" lon="11.471507289154411"><ele>149.0</ele><time>2026-05-02T14:55:47.999Z</time></trkpt><trkpt lat="43.156984603673344" lon="11.47147349935357"><ele>149.0</ele><time>2026-05-02T14:55:48.999Z</time></trkpt><trkpt lat="43.157130145996135" lon="11.471435868534519"><ele>149.0</ele><time>2026-05-02T14:55:49.999Z</time></trkpt><trkpt lat="43.15727420325257" lon="11.471402713707876"><ele>149.0</ele><time>2026-05-02T14:55:50.999Z</time></trkpt><trkpt lat="43.15741449548046" lon="11.471373097492553"><ele>149.0</ele><time>2026-05-02T14:55:51.999Z</time></trkpt><trkpt lat="43.15755446163499" lon="11.471342021315822"><ele>149.0</ele><time>2026-05-02T14:55:52.999Z</time></trkpt><trkpt lat="43.15769120487656" lon="11.471302572942491"><ele>149.0</ele><time>2026-05-02T14:55:54Z</time></trkpt><trkpt lat="43.15782418691957" lon="11.471250579935036"><ele>149.0</ele><time>2026-05-02T14:55:55Z</time></trkpt><trkpt lat="43.1579544582913" lon="11.471181152060032"><ele>149.0</ele><time>2026-05-02T14:55:56Z</time></trkpt><trkpt lat="43.158084265784524" lon="11.471094860327158"><ele>148.5</ele><time>2026-05-02T14:55:57Z</time></trkpt><trkpt lat="43.158214951341975" lon="11.47099838332724"><ele>148.0</ele><time>2026-05-02T14:55:58Z</time></trkpt><trkpt lat="43.15834671348899" lon="11.47089541955874"><ele>147.5</ele><time>2026-05-02T14:55:59Z</time></trkpt><trkpt lat="43.15847685872893" lon="11.470795174240521"><ele>147.0</ele><time>2026-05-02T14:56:00Z</time></trkpt><trkpt lat="43.158603828789474" lon="11.470702014004702"><ele>147.0</ele><time>2026-05-02T14:56:01Z</time></trkpt><trkpt lat="43.15872254260892" lon="11.470614353206965"><ele>147.0</ele><time>2026-05-02T14:56:02Z</time></trkpt><trkpt lat="43.15883726740476" lon="11.470521523341374"><ele>147.0</ele><time>2026-05-02T14:56:03Z</time></trkpt><trkpt lat="43.15894857967667" lon="11.470425934955413"><ele>147.0</ele><time>2026-05-02T14:56:04Z</time></trkpt><trkpt lat="43.15905898600412" lon="11.470331739221058"><ele>147.0</ele><time>2026-05-02T14:56:05Z</time></trkpt><trkpt lat="43.15916573513153" lon="11.470237151104774"><ele>147.0</ele><time>2026-05-02T14:56:06Z</time></trkpt><trkpt lat="43.159270178849106" lon="11.470140391873288"><ele>147.0</ele><time>2026-05-02T14:56:07Z</time></trkpt><trkpt lat="43.159370875539494" lon="11.470044591026957"><ele>147.0</ele><time>2026-05-02T14:56:08Z</time></trkpt><trkpt lat="43.15946938072907" lon="11.469952254341583"><ele>147.0</ele><time>2026-05-02T14:56:09Z</time></trkpt><trkpt lat="43.15956515018543" lon="11.46986200856364"><ele>147.0</ele><time>2026-05-02T14:56:10Z</time></trkpt><trkpt lat="43.159657850513454" lon="11.469774559044795"><ele>147.0</ele><time>2026-05-02T14:56:11Z</time></trkpt><trkpt lat="43.159758729825576" lon="11.469678249507293"><ele>147.0</ele><time>2026-05-02T14:56:12Z</time></trkpt><trkpt lat="43.15986159902145" lon="11.46957518058467"><ele>146.75</ele><time>2026-05-02T14:56:13Z</time></trkpt><trkpt lat="43.15996403510324" lon="11.4694732110996"><ele>146.5</ele><time>2026-05-02T14:56:14Z</time></trkpt><trkpt lat="43.16007168923192" lon="11.469370427421286"><ele>146.25</ele><time>2026-05-02T14:56:15Z</time></trkpt><trkpt lat="43.160186347379934" lon="11.469264673864386"><ele>146.0</ele><time>2026-05-02T14:56:16Z</time></trkpt><trkpt lat="43.160300537394576" lon="11.469161262648386"><ele>146.0</ele><time>2026-05-02T14:56:17Z</time></trkpt><trkpt lat="43.16041692664662" lon="11.469055056428894"><ele>146.0</ele><time>2026-05-02T14:56:18Z</time></trkpt><trkpt lat="43.160535732639346" lon="11.468950080631465"><ele>146.0</ele><time>2026-05-02T14:56:19Z</time></trkpt><trkpt lat="43.160660515176424" lon="11.468851022495901"><ele>146.0</ele><time>2026-05-02T14:56:20Z</time></trkpt><trkpt lat="43.16080182510206" lon="11.468795171891642"><ele>146.75</ele><time>2026-05-02T14:56:21Z</time></trkpt><trkpt lat="43.16094348091798" lon="11.46874018635006"><ele>147.5</ele><time>2026-05-02T14:56:22Z</time></trkpt><trkpt lat="43.1610902721342" lon="11.468702146110388"><ele>148.25</ele><time>2026-05-02T14:56:23Z</time></trkpt><trkpt lat="43.16123661761213" lon="11.468649803638513"><ele>149.0</ele><time>2026-05-02T14:56:24Z</time></trkpt><trkpt lat="43.1613858664972" lon="11.468623253501821"><ele>149.5</ele><time>2026-05-02T14:56:25Z</time></trkpt><trkpt lat="43.16153244379898" lon="11.468596724158617"><ele>150.0</ele><time>2026-05-02T14:56:26Z</time></trkpt><trkpt lat="43.16168034173648" lon="11.468567561727642"><ele>150.5</ele><time>2026-05-02T14:56:27Z</time></trkpt><trkpt lat="43.16182738053107" lon="11.468539372322887"><ele>151.0</ele><time>2026-05-02T14:56:28Z</time></trkpt><trkpt lat="43.161972915540325" lon="11.468511891104317"><ele>151.0</ele><time>2026-05-02T14:56:29Z</time></trkpt><trkpt lat="43.16211823730097" lon="11.468484728364711"><ele>151.0</ele><time>2026-05-02T14:56:30Z</time></trkpt><trkpt lat="43.162261488058675" lon="11.468458108623501"><ele>151.0</ele><time>2026-05-02T14:56:31Z</time></trkpt><trkpt lat="43.162398154997604" lon="11.468434108438903"><ele>151.0</ele><time>2026-05-02T14:56:32Z</time></trkpt><trkpt lat="43.16253444964041" lon="11.468410732874336"><ele>150.25</ele><time>2026-05-02T14:56:33Z</time></trkpt><trkpt lat="43.1626699986552" lon="11.468384303384525"><ele>149.5</ele><time>2026-05-02T14:56:34Z</time></trkpt><trkpt lat="43.16280419609298" lon="11.468348235615563"><ele>148.75</ele><time>2026-05-02T14:56:35Z</time></trkpt><trkpt lat="43.162932451294495" lon="11.46829466177676"><ele>148.0</ele><time>2026-05-02T14:56:36Z</time></trkpt><trkpt lat="43.16305779341332" lon="11.468226660154516"><ele>148.0</ele><time>2026-05-02T14:56:37Z</time></trkpt><trkpt lat="43.1631758595864" lon="11.468145923795571"><ele>148.0</ele><time>2026-05-02T14:56:38Z</time></trkpt><trkpt lat="43.16328708270518" lon="11.46806104535755"><ele>148.0</ele><time>2026-05-02T14:56:39Z</time></trkpt><trkpt lat="43.16339708672008" lon="11.467983698778506"><ele>148.0</ele><time>2026-05-02T14:56:40Z</time></trkpt><trkpt lat="43.16350022406036" lon="11.46791282001541"><ele>147.6</ele><time>2026-05-02T14:56:41Z</time></trkpt><trkpt lat="43.163598975631174" lon="11.467852498727124"><ele>147.20000000000002</ele><time>2026-05-02T14:56:42Z</time></trkpt><trkpt lat="43.16368399561828" lon="11.467809205048132"><ele>146.8</ele><time>2026-05-02T14:56:43Z</time></trkpt><trkpt lat="43.163758203161706" lon="11.467789009692028"><ele>146.4</ele><time>2026-05-02T14:56:44Z</time></trkpt><trkpt lat="43.16384745753328" lon="11.467771930740664"><ele>146.0</ele><time>2026-05-02T14:56:46Z</time></trkpt><trkpt lat="43.16390155914828" lon="11.467944587467638"><ele>146.0</ele><time>2026-05-02T14:56:47Z</time></trkpt><trkpt lat="43.16393083272028" lon="11.468040228314523"><ele>146.0</ele><time>2026-05-02T14:56:48Z</time></trkpt><trkpt lat="43.16396646054403" lon="11.468149916661345"><ele>146.0</ele><time>2026-05-02T14:56:49Z</time></trkpt><trkpt lat="43.16401724849345" lon="11.468257236952155"><ele>146.0</ele><time>2026-05-02T14:56:50Z</time></trkpt><trkpt lat="43.16404801435593" lon="11.468370351758871"><ele>146.0</ele><time>2026-05-02T14:56:51Z</time></trkpt><trkpt lat="43.16407948839402" lon="11.468471275796118"><ele>146.0</ele><time>2026-05-02T14:56:52Z</time></trkpt><trkpt lat="43.16408947871614" lon="11.46858272068198"><ele>146.5</ele><time>2026-05-02T14:56:53Z</time></trkpt><trkpt lat="43.16410255103935" lon="11.468679979734407"><ele>147.0</ele><time>2026-05-02T14:56:54Z</time></trkpt><trkpt lat="43.1640905757447" lon="11.468766138834097"><ele>147.5</ele><time>2026-05-02T14:56:55Z</time></trkpt><trkpt lat="43.16403652685109" lon="11.468926954757922"><ele>148.0</ele><time>2026-05-02T14:56:57Z</time></trkpt><trkpt lat="43.16397767585358" lon="11.468986465013696"><ele>148.5</ele><time>2026-05-02T14:56:58Z</time></trkpt><trkpt lat="43.16391374315103" lon="11.469019695274453"><ele>149.0</ele><time>2026-05-02T14:56:59Z</time></trkpt><trkpt lat="43.16384455830153" lon="11.4690343571365"><ele>149.57142857142856</ele><time>2026-05-02T14:57:00Z</time></trkpt><trkpt lat="43.163779646423805" lon="11.469047176802402"><ele>150.14285714285714</ele><time>2026-05-02T14:57:01Z</time></trkpt><trkpt lat="43.16371039604885" lon="11.469056263934181"><ele>150.71428571428572</ele><time>2026-05-02T14:57:02Z</time></trkpt><trkpt lat="43.163641480690806" lon="11.46907014053789"><ele>151.28571428571428</ele><time>2026-05-02T14:57:03Z</time></trkpt><trkpt lat="43.16357469035234" lon="11.469086728190137"><ele>151.85714285714286</ele><time>2026-05-02T14:57:04Z</time></trkpt><trkpt lat="43.16350929448996" lon="11.46910569870105"><ele>152.42857142857142</ele><time>2026-05-02T14:57:05Z</time></trkpt><trkpt lat="43.16344518776413" lon="11.469126660095414"><ele>153.0</ele><time>2026-05-02T14:57:06Z</time></trkpt><trkpt lat="43.16338026281937" lon="11.469149993319501"><ele>153.0</ele><time>2026-05-02T14:57:07Z</time></trkpt><trkpt lat="43.16331127465552" lon="11.46917643743362"><ele>153.0</ele><time>2026-05-02T14:57:08Z</time></trkpt><trkpt lat="43.16323141847675" lon="11.469213904414511"><ele>153.0</ele><time>2026-05-02T14:57:09Z</time></trkpt><trkpt lat="43.16315039430648" lon="11.469267709808857"><ele>153.0</ele><time>2026-05-02T14:57:10Z</time></trkpt><trkpt lat="43.16307753092904" lon="11.469332798434582"><ele>153.0</ele><time>2026-05-02T14:57:11Z</time></trkpt><trkpt lat="43.16300498984609" lon="11.469401947507249"><ele>153.0</ele><time>2026-05-02T14:57:12Z</time></trkpt><trkpt lat="43.162937248617" lon="11.46947934750133"><ele>152.83333333333334</ele><time>2026-05-02T14:57:13Z</time></trkpt><trkpt lat="43.162872797193884" lon="11.469559879744596"><ele>152.66666666666666</ele><time>2026-05-02T14:57:13.999Z</time></trkpt><trkpt lat="43.16281624681269" lon="11.469642959602455"><ele>152.5</ele><time>2026-05-02T14:57:14.999Z</time></trkpt><trkpt lat="43.16276885298431" lon="11.469729233463156"><ele>152.33333333333331</ele><time>2026-05-02T14:57:15.999Z</time></trkpt><trkpt lat="43.162737817380744" lon="11.469815754310039"><ele>152.16666666666666</ele><time>2026-05-02T14:57:16.999Z</time></trkpt><trkpt lat="43.162714817174475" lon="11.46990712518397"><ele>152.0</ele><time>2026-05-02T14:57:17.999Z</time></trkpt><trkpt lat="43.16269183441659" lon="11.470001669400967"><ele>153.0</ele><time>2026-05-02T14:57:18.999Z</time></trkpt><trkpt lat="43.16267194077177" lon="11.470112193876208"><ele>154.0</ele><time>2026-05-02T14:57:19.999Z</time></trkpt><trkpt lat="43.162657074287274" lon="11.470238730293175"><ele>155.0</ele><time>2026-05-02T14:57:20.999Z</time></trkpt><trkpt lat="43.162647982146474" lon="11.47038434548578"><ele>156.0</ele><time>2026-05-02T14:57:21.999Z</time></trkpt><trkpt lat="43.162640748373164" lon="11.470538530735547"><ele>157.0</ele><time>2026-05-02T14:57:22.999Z</time></trkpt><trkpt lat="43.162616957407266" lon="11.470692275607988"><ele>158.25</ele><time>2026-05-02T14:57:23.999Z</time></trkpt><trkpt lat="43.16260870202633" lon="11.470862758963166"><ele>159.5</ele><time>2026-05-02T14:57:24.999Z</time></trkpt><trkpt lat="43.162600600728595" lon="11.47103006020942"><ele>160.75</ele><time>2026-05-02T14:57:25.999Z</time></trkpt><trkpt lat="43.162592508518436" lon="11.471188020102112"><ele>162.0</ele><time>2026-05-02T14:57:26.999Z</time></trkpt><trkpt lat="43.16258233579771" lon="11.47135119518923"><ele>163.0</ele><time>2026-05-02T14:57:27.999Z</time></trkpt><trkpt lat="43.162564224345545" lon="11.471504153556598"><ele>164.0</ele><time>2026-05-02T14:57:28.999Z</time></trkpt><trkpt lat="43.16254402534942" lon="11.471649271480675"><ele>165.0</ele><time>2026-05-02T14:57:29.999Z</time></trkpt><trkpt lat="43.162495387666496" lon="11.471773332497335"><ele>166.0</ele><time>2026-05-02T14:57:30.999Z</time></trkpt><trkpt lat="43.16243619015012" lon="11.471892704387697"><ele>167.0</ele><time>2026-05-02T14:57:31.999Z</time></trkpt><trkpt lat="43.16236737791962" lon="11.472007819730452"><ele>168.0</ele><time>2026-05-02T14:57:32.999Z</time></trkpt><trkpt lat="43.1623059323919" lon="11.472122943376748"><ele>169.0</ele><time>2026-05-02T14:57:33.999Z</time></trkpt><trkpt lat="43.162251609520204" lon="11.472248039652326"><ele>170.0</ele><time>2026-05-02T14:57:34.999Z</time></trkpt><trkpt lat="43.16219986970215" lon="11.472364519605195"><ele>171.0</ele><time>2026-05-02T14:57:35.999Z</time></trkpt><trkpt lat="43.16214356526742" lon="11.472479661658987"><ele>172.0</ele><time>2026-05-02T14:57:36.999Z</time></trkpt><trkpt lat="43.16208503267634" lon="11.47259303608784"><ele>172.0</ele><time>2026-05-02T14:57:37.999Z</time></trkpt><trkpt lat="43.162030898552686" lon="11.472696632575378"><ele>172.0</ele><time>2026-05-02T14:57:38.999Z</time></trkpt><trkpt lat="43.16197782206012" lon="11.472797210065343"><ele>172.0</ele><time>2026-05-02T14:57:39.999Z</time></trkpt><trkpt lat="43.161930190767436" lon="11.472894977317956"><ele>172.0</ele><time>2026-05-02T14:57:40.999Z</time></trkpt><trkpt lat="43.161881930743" lon="11.472996616037536"><ele>172.0</ele><time>2026-05-02T14:57:41.999Z</time></trkpt><trkpt lat="43.16184471150876" lon="11.473098972304777"><ele>172.0</ele><time>2026-05-02T14:57:42.999Z</time></trkpt><trkpt lat="43.1618191056617" lon="11.473206235301763"><ele>173.0</ele><time>2026-05-02T14:57:43.999Z</time></trkpt><trkpt lat="43.16177989390809" lon="11.473317437597794"><ele>174.0</ele><time>2026-05-02T14:57:44.999Z</time></trkpt><trkpt lat="43.16177396528929" lon="11.473437568908594"><ele>175.0</ele><time>2026-05-02T14:57:45.999Z</time></trkpt><trkpt lat="43.161781607761505" lon="11.473548576860443"><ele>176.0</ele><time>2026-05-02T14:57:46.999Z</time></trkpt><trkpt lat="43.16181097470079" lon="11.473665935620192"><ele>177.0</ele><time>2026-05-02T14:57:47.999Z</time></trkpt><trkpt lat="43.16184071743726" lon="11.473771399696277"><ele>178.0</ele><time>2026-05-02T14:57:48.999Z</time></trkpt><trkpt lat="43.161873714753774" lon="11.473884474720405"><ele>178.83333333333334</ele><time>2026-05-02T14:57:49.999Z</time></trkpt><trkpt lat="43.16189728078898" lon="11.473975711207846"><ele>179.66666666666669</ele><time>2026-05-02T14:57:50.999Z</time></trkpt><trkpt lat="43.16191153707798" lon="11.474075279481085"><ele>180.5</ele><time>2026-05-02T14:57:51.999Z</time></trkpt><trkpt lat="43.16190174134224" lon="11.47417829033835"><ele>181.33333333333334</ele><time>2026-05-02T14:57:52.999Z</time></trkpt><trkpt lat="43.16189466779804" lon="11.474305377265498"><ele>182.16666666666666</ele><time>2026-05-02T14:57:53.999Z</time></trkpt><trkpt lat="43.16189614975828" lon="11.474424549126296"><ele>183.0</ele><time>2026-05-02T14:57:54.999Z</time></trkpt><trkpt lat="43.16191499716659" lon="11.474560033962218"><ele>182.4</ele><time>2026-05-02T14:57:55.999Z</time></trkpt><trkpt lat="43.161955188576506" lon="11.47467974944535"><ele>181.8</ele><time>2026-05-02T14:57:56.999Z</time></trkpt><trkpt lat="43.162014542146075" lon="11.474788039397689"><ele>181.2</ele><time>2026-05-02T14:57:57.999Z</time></trkpt><trkpt lat="43.16208631405254" lon="11.474877648067011"><ele>180.6</ele><time>2026-05-02T14:57:58.999Z</time></trkpt><trkpt lat="43.16217288852296" lon="11.47494838446729"><ele>180.0</ele><time>2026-05-02T14:58:00Z</time></trkpt><trkpt lat="43.16226795819707" lon="11.474996177201868"><ele>182.0</ele><time>2026-05-02T14:58:01Z</time></trkpt><trkpt lat="43.162370630298845" lon="11.475007054455435"><ele>184.0</ele><time>2026-05-02T14:58:02Z</time></trkpt><trkpt lat="43.162460235597884" lon="11.475015947226803"><ele>186.0</ele><time>2026-05-02T14:58:03Z</time></trkpt><trkpt lat="43.16254632287331" lon="11.475023772839437"><ele>188.0</ele><time>2026-05-02T14:58:04Z</time></trkpt><trkpt lat="43.162637066037135" lon="11.475039283126925"><ele>190.0</ele><time>2026-05-02T14:58:05Z</time></trkpt><trkpt lat="43.162712023666465" lon="11.475113386926374"><ele>190.0</ele><time>2026-05-02T14:58:06Z</time></trkpt><trkpt lat="43.16280347248381" lon="11.475178823517812"><ele>190.0</ele><time>2026-05-02T14:58:07Z</time></trkpt><trkpt lat="43.162896883654575" lon="11.47523853990021"><ele>190.0</ele><time>2026-05-02T14:58:08Z</time></trkpt><trkpt lat="43.16300096654179" lon="11.475294209442756"><ele>190.0</ele><time>2026-05-02T14:58:09Z</time></trkpt><trkpt lat="43.16310083604203" lon="11.475345735635914"><ele>190.0</ele><time>2026-05-02T14:58:10Z</time></trkpt><trkpt lat="43.16319803750002" lon="11.475395885271835"><ele>189.4</ele><time>2026-05-02T14:58:11Z</time></trkpt><trkpt lat="43.16330499364337" lon="11.475451067700277"><ele>188.8</ele><time>2026-05-02T14:58:12Z</time></trkpt><trkpt lat="43.16341603784985" lon="11.475489697519745"><ele>188.2</ele><time>2026-05-02T14:58:13Z</time></trkpt><trkpt lat="43.16351951639291" lon="11.475540582437997"><ele>187.6</ele><time>2026-05-02T14:58:14Z</time></trkpt><trkpt lat="43.16361758373481" lon="11.475598348736161"><ele>187.0</ele><time>2026-05-02T14:58:15Z</time></trkpt><trkpt lat="43.163725295366106" lon="11.475638263610046"><ele>187.0</ele><time>2026-05-02T14:58:16Z</time></trkpt><trkpt lat="43.16383372437901" lon="11.475692579119595"><ele>187.0</ele><time>2026-05-02T14:58:17Z</time></trkpt><trkpt lat="43.163929864135014" lon="11.475749083572914"><ele>187.0</ele><time>2026-05-02T14:58:18Z</time></trkpt><trkpt lat="43.164045458882946" lon="11.475783045337174"><ele>187.0</ele><time>2026-05-02T14:58:19Z</time></trkpt><trkpt lat="43.16415261980513" lon="11.47584733103382"><ele>187.0</ele><time>2026-05-02T14:58:20Z</time></trkpt><trkpt lat="43.16427898571389" lon="11.475914608964755"><ele>187.0</ele><time>2026-05-02T14:58:21Z</time></trkpt><trkpt lat="43.16439142030432" lon="11.47598700935612"><ele>187.0</ele><time>2026-05-02T14:58:22Z</time></trkpt><trkpt lat="43.164515189606256" lon="11.47604806565109"><ele>187.0</ele><time>2026-05-02T14:58:23Z</time></trkpt><trkpt lat="43.16464612627149" lon="11.476097391366398"><ele>187.0</ele><time>2026-05-02T14:58:24Z</time></trkpt><trkpt lat="43.16477144175229" lon="11.47616292209127"><ele>187.0</ele><time>2026-05-02T14:58:25Z</time></trkpt><trkpt lat="43.164895416190156" lon="11.47618487589244"><ele>187.0</ele><time>2026-05-02T14:58:26Z</time></trkpt><trkpt lat="43.165006632905" lon="11.476244220327864"><ele>187.0</ele><time>2026-05-02T14:58:27Z</time></trkpt><trkpt lat="43.165116239880454" lon="11.476278546197495"><ele>186.39999999999998</ele><time>2026-05-02T14:58:28Z</time></trkpt><trkpt lat="43.16523001351586" lon="11.47628835775994"><ele>185.79999999999998</ele><time>2026-05-02T14:58:29Z</time></trkpt><trkpt lat="43.16532902758913" lon="11.47632845497781"><ele>185.2</ele><time>2026-05-02T14:58:30Z</time></trkpt><trkpt lat="43.165424203816116" lon="11.4763677459314"><ele>184.6</ele><time>2026-05-02T14:58:31Z</time></trkpt><trkpt lat="43.165526805171524" lon="11.476432256889739"><ele>184.0</ele><time>2026-05-02T14:58:32Z</time></trkpt><trkpt lat="43.165624695980824" lon="11.476508979807566"><ele>185.75</ele><time>2026-05-02T14:58:33Z</time></trkpt><trkpt lat="43.16573513053306" lon="11.476573744594315"><ele>187.5</ele><time>2026-05-02T14:58:34Z</time></trkpt><trkpt lat="43.16584423859521" lon="11.47664825087289"><ele>189.25</ele><time>2026-05-02T14:58:35Z</time></trkpt><trkpt lat="43.16595853278683" lon="11.47672459319643"><ele>191.0</ele><time>2026-05-02T14:58:36Z</time></trkpt><trkpt lat="43.16607428201406" lon="11.47680161635915"><ele>191.0</ele><time>2026-05-02T14:58:37Z</time></trkpt><trkpt lat="43.16618177427327" lon="11.476867058304784"><ele>191.0</ele><time>2026-05-02T14:58:38Z</time></trkpt><trkpt lat="43.16628270965797" lon="11.476942465284584"><ele>191.0</ele><time>2026-05-02T14:58:39Z</time></trkpt><trkpt lat="43.166395034032" lon="11.477016180132795"><ele>191.0</ele><time>2026-05-02T14:58:40Z</time></trkpt><trkpt lat="43.166486712277134" lon="11.477110052785976"><ele>191.4</ele><time>2026-05-02T14:58:41Z</time></trkpt><trkpt lat="43.16657019816345" lon="11.477191324121149"><ele>191.8</ele><time>2026-05-02T14:58:42Z</time></trkpt><trkpt lat="43.16665245176222" lon="11.477273913335356"><ele>192.20000000000002</ele><time>2026-05-02T14:58:43Z</time></trkpt><trkpt lat="43.166730230376785" lon="11.477362718161812"><ele>192.60000000000002</ele><time>2026-05-02T14:58:44Z</time></trkpt><trkpt lat="43.166831390443946" lon="11.477428991817149"><ele>193.0</ele><time>2026-05-02T14:58:45Z</time></trkpt><trkpt lat="43.16691283472154" lon="11.477512275153138"><ele>193.0</ele><time>2026-05-02T14:58:46Z</time></trkpt><trkpt lat="43.16699347875883" lon="11.477601170728104"><ele>193.0</ele><time>2026-05-02T14:58:47Z</time></trkpt><trkpt lat="43.16707591039779" lon="11.47767749804127"><ele>193.0</ele><time>2026-05-02T14:58:48Z</time></trkpt><trkpt lat="43.16714363629755" lon="11.477767503326117"><ele>193.0</ele><time>2026-05-02T14:58:49Z</time></trkpt><trkpt lat="43.167217967070464" lon="11.477801395147836"><ele>193.0</ele><time>2026-05-02T14:58:50Z</time></trkpt><trkpt lat="43.167332271141966" lon="11.477814778245085"><ele>193.2</ele><time>2026-05-02T14:58:51Z</time></trkpt><trkpt lat="43.16743959135049" lon="11.477845626499851"><ele>193.4</ele><time>2026-05-02T14:58:52Z</time></trkpt><trkpt lat="43.16754172556935" lon="11.47784755852096"><ele>193.6</ele><time>2026-05-02T14:58:53Z</time></trkpt><trkpt lat="43.16764272078493" lon="11.477826272003467"><ele>193.79999999999998</ele><time>2026-05-02T14:58:54Z</time></trkpt><trkpt lat="43.1677390272946" lon="11.4778288713594"><ele>194.0</ele><time>2026-05-02T14:58:55Z</time></trkpt><trkpt lat="43.16783881833576" lon="11.477823067052343"><ele>194.0</ele><time>2026-05-02T14:58:56Z</time></trkpt><trkpt lat="43.16793543434657" lon="11.477816287192477"><ele>194.0</ele><time>2026-05-02T14:58:57Z</time></trkpt><trkpt lat="43.1680326384848" lon="11.477817466367542"><ele>194.0</ele><time>2026-05-02T14:58:58Z</time></trkpt><trkpt lat="43.1681281341566" lon="11.477812684040943"><ele>194.0</ele><time>2026-05-02T14:58:59Z</time></trkpt><trkpt lat="43.168228829869605" lon="11.477822242169553"><ele>194.0</ele><time>2026-05-02T14:59:00Z</time></trkpt><trkpt lat="43.168330547866894" lon="11.477840030790027"><ele>194.39999999999998</ele><time>2026-05-02T14:59:01Z</time></trkpt><trkpt lat="43.168432604892594" lon="11.47786483275238"><ele>194.8</ele><time>2026-05-02T14:59:02Z</time></trkpt><trkpt lat="43.16853450053698" lon="11.477902164516758"><ele>195.2</ele><time>2026-05-02T14:59:03Z</time></trkpt><trkpt lat="43.168639497838875" lon="11.47793053871137"><ele>195.60000000000002</ele><time>2026-05-02T14:59:04Z</time></trkpt><trkpt lat="43.16874188007718" lon="11.477949680909902"><ele>196.0</ele><time>2026-05-02T14:59:05Z</time></trkpt><trkpt lat="43.1688439837609" lon="11.477966857039744"><ele>196.0</ele><time>2026-05-02T14:59:06Z</time></trkpt><trkpt lat="43.1689423619808" lon="11.477988764325193"><ele>196.0</ele><time>2026-05-02T14:59:07Z</time></trkpt><trkpt lat="43.16903960080538" lon="11.47801775786237"><ele>196.0</ele><time>2026-05-02T14:59:08Z</time></trkpt><trkpt lat="43.16913493165941" lon="11.47805973953289"><ele>196.0</ele><time>2026-05-02T14:59:09Z</time></trkpt><trkpt lat="43.16922695661591" lon="11.478117380172064"><ele>196.0</ele><time>2026-05-02T14:59:10Z</time></trkpt><trkpt lat="43.16930796517604" lon="11.478188808021345"><ele>196.0</ele><time>2026-05-02T14:59:11Z</time></trkpt><trkpt lat="43.16936692589255" lon="11.4782902354231"><ele>196.0</ele><time>2026-05-02T14:59:12Z</time></trkpt><trkpt lat="43.1694284495631" lon="11.478386630148233"><ele>196.0</ele><time>2026-05-02T14:59:12.999Z</time></trkpt><trkpt lat="43.169486430875715" lon="11.478479515650768"><ele>196.0</ele><time>2026-05-02T14:59:13.999Z</time></trkpt><trkpt lat="43.16952623844978" lon="11.478598040183714"><ele>196.0</ele><time>2026-05-02T14:59:14.999Z</time></trkpt><trkpt lat="43.169573525832305" lon="11.478716318771301"><ele>197.0</ele><time>2026-05-02T14:59:15.999Z</time></trkpt><trkpt lat="43.16962798847217" lon="11.478831106955061"><ele>198.0</ele><time>2026-05-02T14:59:16.999Z</time></trkpt><trkpt lat="43.16968740252004" lon="11.4789425585279"><ele>199.0</ele><time>2026-05-02T14:59:17.999Z</time></trkpt><trkpt lat="43.16974527274779" lon="11.479049002120568"><ele>200.0</ele><time>2026-05-02T14:59:18.999Z</time></trkpt><trkpt lat="43.16980339973026" lon="11.479153481625366"><ele>201.0</ele><time>2026-05-02T14:59:19.999Z</time></trkpt><trkpt lat="43.16986745109554" lon="11.479242565632143"><ele>201.0</ele><time>2026-05-02T14:59:20.999Z</time></trkpt><trkpt lat="43.16994246633409" lon="11.479314708210337"><ele>201.0</ele><time>2026-05-02T14:59:21.999Z</time></trkpt><trkpt lat="43.17002836025928" lon="11.47936810235313"><ele>201.0</ele><time>2026-05-02T14:59:22.999Z</time></trkpt><trkpt lat="43.170116565099235" lon="11.479408727513473"><ele>201.0</ele><time>2026-05-02T14:59:23.999Z</time></trkpt><trkpt lat="43.170208140932935" lon="11.479447783434823"><ele>201.0</ele><time>2026-05-02T14:59:24.999Z</time></trkpt><trkpt lat="43.17030348070239" lon="11.479490977210938"><ele>201.0</ele><time>2026-05-02T14:59:25.999Z</time></trkpt><trkpt lat="43.17038557250024" lon="11.479525642318947"><ele>201.0</ele><time>2026-05-02T14:59:26.999Z</time></trkpt><trkpt lat="43.170487685378696" lon="11.479569519246947"><ele>201.0</ele><time>2026-05-02T14:59:27.999Z</time></trkpt><trkpt lat="43.170574233191864" lon="11.479612064011535"><ele>201.0</ele><time>2026-05-02T14:59:28.999Z</time></trkpt><trkpt lat="43.17066184283237" lon="11.479668314651029"><ele>201.0</ele><time>2026-05-02T14:59:29.999Z</time></trkpt><trkpt lat="43.17074070900266" lon="11.47973618269605"><ele>201.60000000000002</ele><time>2026-05-02T14:59:30.999Z</time></trkpt><trkpt lat="43.170806041763704" lon="11.47980993967461"><ele>202.2</ele><time>2026-05-02T14:59:31.999Z</time></trkpt><trkpt lat="43.17085221775105" lon="11.479903867726652"><ele>202.8</ele><time>2026-05-02T14:59:32.999Z</time></trkpt><trkpt lat="43.1708972001191" lon="11.480000818154425"><ele>203.39999999999998</ele><time>2026-05-02T14:59:33.999Z</time></trkpt><trkpt lat="43.170952275132926" lon="11.480109901459787"><ele>204.0</ele><time>2026-05-02T14:59:34.999Z</time></trkpt><trkpt lat="43.17098947260158" lon="11.480242016458433"><ele>204.0</ele><time>2026-05-02T14:59:35.999Z</time></trkpt><trkpt lat="43.17102722049682" lon="11.48037850246203"><ele>204.0</ele><time>2026-05-02T14:59:36.999Z</time></trkpt><trkpt lat="43.171059316541985" lon="11.48052464140831"><ele>204.0</ele><time>2026-05-02T14:59:37.999Z</time></trkpt><trkpt lat="43.17108366382265" lon="11.480671492320665"><ele>204.0</ele><time>2026-05-02T14:59:38.999Z</time></trkpt><trkpt lat="43.171108866344134" lon="11.480818405794087"><ele>204.0</ele><time>2026-05-02T14:59:39.999Z</time></trkpt><trkpt lat="43.1711330687562" lon="11.480968004242783"><ele>203.79999999999998</ele><time>2026-05-02T14:59:40.999Z</time></trkpt><trkpt lat="43.17115800375332" lon="11.481114016905247"><ele>203.6</ele><time>2026-05-02T14:59:41.999Z</time></trkpt><trkpt lat="43.1711837390491" lon="11.481256847137088"><ele>203.4</ele><time>2026-05-02T14:59:42.999Z</time></trkpt><trkpt lat="43.17120328632474" lon="11.481401718133316"><ele>203.2</ele><time>2026-05-02T14:59:43.999Z</time></trkpt><trkpt lat="43.17123111509937" lon="11.48154650377186"><ele>203.0</ele><time>2026-05-02T14:59:44.999Z</time></trkpt><trkpt lat="43.17125078838457" lon="11.481688788628016"><ele>203.0</ele><time>2026-05-02T14:59:45.999Z</time></trkpt><trkpt lat="43.17127472457782" lon="11.481821429626779"><ele>203.0</ele><time>2026-05-02T14:59:46.999Z</time></trkpt><trkpt lat="43.171295050976966" lon="11.481948821107132"><ele>203.0</ele><time>2026-05-02T14:59:47.999Z</time></trkpt><trkpt lat="43.17132024812974" lon="11.482070139116956"><ele>203.0</ele><time>2026-05-02T14:59:48.999Z</time></trkpt><trkpt lat="43.17135659352649" lon="11.482196391064294"><ele>203.0</ele><time>2026-05-02T14:59:49.999Z</time></trkpt><trkpt lat="43.17140169516257" lon="11.482319111502184"><ele>201.8</ele><time>2026-05-02T14:59:50.999Z</time></trkpt><trkpt lat="43.17146194495983" lon="11.482445573496937"><ele>200.60000000000002</ele><time>2026-05-02T14:59:51.999Z</time></trkpt><trkpt lat="43.17152338933358" lon="11.482575289848068"><ele>199.39999999999998</ele><time>2026-05-02T14:59:52.999Z</time></trkpt><trkpt lat="43.171579772608986" lon="11.48270873974567"><ele>198.2</ele><time>2026-05-02T14:59:53.999Z</time></trkpt><trkpt lat="43.17163604339761" lon="11.482838335795064"><ele>197.0</ele><time>2026-05-02T14:59:54.999Z</time></trkpt><trkpt lat="43.17169287709901" lon="11.482963896285625"><ele>199.8</ele><time>2026-05-02T14:59:55.999Z</time></trkpt><trkpt lat="43.17175884170325" lon="11.48308016990715"><ele>202.6</ele><time>2026-05-02T14:59:56.999Z</time></trkpt><trkpt lat="43.17183080494" lon="11.483180089076273"><ele>205.4</ele><time>2026-05-02T14:59:57.999Z</time></trkpt><trkpt lat="43.17190449571812" lon="11.483285679553408"><ele>208.20000000000002</ele><time>2026-05-02T14:59:58.999Z</time></trkpt><trkpt lat="43.171984621577025" lon="11.483369765054128"><ele>211.0</ele><time>2026-05-02T14:59:59.999Z</time></trkpt><trkpt lat="43.17206490626884" lon="11.483451042718881"><ele>211.0</ele><time>2026-05-02T15:00:00.999Z</time></trkpt><trkpt lat="43.17215661806829" lon="11.483516301453726"><ele>211.0</ele><time>2026-05-02T15:00:01.999Z</time></trkpt><trkpt lat="43.17222209383429" lon="11.48361190503795"><ele>211.0</ele><time>2026-05-02T15:00:02.999Z</time></trkpt><trkpt lat="43.172305017435626" lon="11.48367307796165"><ele>211.0</ele><time>2026-05-02T15:00:03.999Z</time></trkpt><trkpt lat="43.172377530948935" lon="11.483744308733039"><ele>211.0</ele><time>2026-05-02T15:00:05Z</time></trkpt><trkpt lat="43.17246909212108" lon="11.483798825560099"><ele>213.8</ele><time>2026-05-02T15:00:06Z</time></trkpt><trkpt lat="43.17256150366748" lon="11.483842814880703"><ele>216.60000000000002</ele><time>2026-05-02T15:00:07Z</time></trkpt><trkpt lat="43.17265193053629" lon="11.48388053246832"><ele>219.4</ele><time>2026-05-02T15:00:08Z</time></trkpt><trkpt lat="43.172740628437026" lon="11.483922994438334"><ele>222.2</ele><time>2026-05-02T15:00:09Z</time></trkpt><trkpt lat="43.17282917560365" lon="11.483976683709766"><ele>225.0</ele><time>2026-05-02T15:00:10Z</time></trkpt><trkpt lat="43.17291428197013" lon="11.483986615545104"><ele>225.0</ele><time>2026-05-02T15:00:11Z</time></trkpt><trkpt lat="43.17299656736394" lon="11.484021568774885"><ele>225.0</ele><time>2026-05-02T15:00:12Z</time></trkpt><trkpt lat="43.173070175076404" lon="11.484050951421738"><ele>225.0</ele><time>2026-05-02T15:00:13Z</time></trkpt><trkpt lat="43.173160430800245" lon="11.484085878431713"><ele>225.0</ele><time>2026-05-02T15:00:14Z</time></trkpt><trkpt lat="43.173239004663856" lon="11.484109417051238"><ele>225.0</ele><time>2026-05-02T15:00:15Z</time></trkpt><trkpt lat="43.17334097233494" lon="11.484132494928105"><ele>225.0</ele><time>2026-05-02T15:00:16Z</time></trkpt><trkpt lat="43.173429764815516" lon="11.484159499233643"><ele>225.8</ele><time>2026-05-02T15:00:17Z</time></trkpt><trkpt lat="43.1735270009337" lon="11.48419203368548"><ele>226.6</ele><time>2026-05-02T15:00:18Z</time></trkpt><trkpt lat="43.17362880735695" lon="11.484226147507236"><ele>227.39999999999998</ele><time>2026-05-02T15:00:19Z</time></trkpt><trkpt lat="43.17372424009353" lon="11.484251492756801"><ele>228.2</ele><time>2026-05-02T15:00:20Z</time></trkpt><trkpt lat="43.173821787444304" lon="11.484285853209755"><ele>229.0</ele><time>2026-05-02T15:00:21Z</time></trkpt><trkpt lat="43.173917598849236" lon="11.484322081957865"><ele>229.0</ele><time>2026-05-02T15:00:22Z</time></trkpt><trkpt lat="43.17401472918746" lon="11.48435887664278"><ele>228.99999999999997</ele><time>2026-05-02T15:00:23Z</time></trkpt><trkpt lat="43.17411401443442" lon="11.484376385554162"><ele>228.99999999999997</ele><time>2026-05-02T15:00:24Z</time></trkpt><trkpt lat="43.17420843174379" lon="11.484407226700194"><ele>229.0</ele><time>2026-05-02T15:00:25Z</time></trkpt><trkpt lat="43.174301706845704" lon="11.484425299376406"><ele>229.0</ele><time>2026-05-02T15:00:26Z</time></trkpt><trkpt lat="43.17438824785336" lon="11.484456350555805"><ele>228.99999999999997</ele><time>2026-05-02T15:00:27Z</time></trkpt><trkpt lat="43.1744764721724" lon="11.484493576140567"><ele>229.0</ele><time>2026-05-02T15:00:28Z</time></trkpt><trkpt lat="43.174564019280176" lon="11.484532180280636"><ele>229.0</ele><time>2026-05-02T15:00:29Z</time></trkpt><trkpt lat="43.17465206137991" lon="11.484584364997104"><ele>229.0</ele><time>2026-05-02T15:00:30Z</time></trkpt><trkpt lat="43.1747306108955" lon="11.48463767408401"><ele>228.99999999999997</ele><time>2026-05-02T15:00:31Z</time></trkpt><trkpt lat="43.17479996543508" lon="11.484682231861004"><ele>229.0</ele><time>2026-05-02T15:00:32Z</time></trkpt><trkpt lat="43.174869141417915" lon="11.484728499806964"><ele>229.0</ele><time>2026-05-02T15:00:33Z</time></trkpt><trkpt lat="43.17497835440065" lon="11.484790811307203"><ele>228.99999999999997</ele><time>2026-05-02T15:00:35Z</time></trkpt><trkpt lat="43.1750697057059" lon="11.484853142247674"><ele>228.99999999999997</ele><time>2026-05-02T15:00:37Z</time></trkpt><trkpt lat="43.17516397624846" lon="11.484912730374642"><ele>229.0</ele><time>2026-05-02T15:00:39Z</time></trkpt><trkpt lat="43.17525241827953" lon="11.48495419619069"><ele>229.0</ele><time>2026-05-02T15:00:41Z</time></trkpt><trkpt lat="43.17533257782635" lon="11.485013042632966"><ele>228.99999999999997</ele><time>2026-05-02T15:00:43Z</time></trkpt><trkpt lat="43.175396289626896" lon="11.48507877186184"><ele>229.0</ele><time>2026-05-02T15:00:45Z</time></trkpt><trkpt lat="43.17546610147359" lon="11.484960929001463"><ele>229.0</ele><time>2026-05-02T15:00:46Z</time></trkpt><trkpt lat="43.17551233866428" lon="11.484881323380167"><ele>229.0</ele><time>2026-05-02T15:00:47Z</time></trkpt><trkpt lat="43.1755739198652" lon="11.484797253736167"><ele>228.99999999999997</ele><time>2026-05-02T15:00:48Z</time></trkpt><trkpt lat="43.17562187882816" lon="11.484703295358035"><ele>229.0</ele><time>2026-05-02T15:00:49Z</time></trkpt><trkpt lat="43.17565462690066" lon="11.484597245743673"><ele>228.99999999999997</ele><time>2026-05-02T15:00:50Z</time></trkpt><trkpt lat="43.175703474822534" lon="11.48451120720499"><ele>229.0</ele><time>2026-05-02T15:00:51Z</time></trkpt><trkpt lat="43.17575026194179" lon="11.484419025442003"><ele>229.0</ele><time>2026-05-02T15:00:52Z</time></trkpt><trkpt lat="43.17578864948365" lon="11.4843264092096"><ele>229.0</ele><time>2026-05-02T15:00:53Z</time></trkpt><trkpt lat="43.1758110241315" lon="11.484227251038774"><ele>228.99999999999997</ele><time>2026-05-02T15:00:54Z</time></trkpt><trkpt lat="43.17584194985565" lon="11.484127448604255"><ele>229.0</ele><time>2026-05-02T15:00:55Z</time></trkpt><trkpt lat="43.1758350618214" lon="11.48403145346442"><ele>229.0</ele><time>2026-05-02T15:00:56Z</time></trkpt><trkpt lat="43.17582572095544" lon="11.483875086630803"><ele>228.99999999999997</ele><time>2026-05-02T15:00:58Z</time></trkpt><trkpt lat="43.175809809944084" lon="11.483770344428063"><ele>228.99999999999997</ele><time>2026-05-02T15:00:59Z</time></trkpt><trkpt lat="43.17581431029918" lon="11.483631363947959"><ele>229.0</ele><time>2026-05-02T15:01:00Z</time></trkpt><trkpt lat="43.17580275808115" lon="11.483492232014964"><ele>229.0</ele><time>2026-05-02T15:01:01Z</time></trkpt><trkpt lat="43.175782334348234" lon="11.483364463731016"><ele>227.66666666666666</ele><time>2026-05-02T15:01:02Z</time></trkpt><trkpt lat="43.1757716348008" lon="11.483242479432668"><ele>226.33333333333331</ele><time>2026-05-02T15:01:03Z</time></trkpt><trkpt lat="43.175763418898875" lon="11.48312836394443"><ele>225.0</ele><time>2026-05-02T15:01:04Z</time></trkpt><trkpt lat="43.17575616404952" lon="11.483022464354407"><ele>223.66666666666669</ele><time>2026-05-02T15:01:05Z</time></trkpt><trkpt lat="43.17575291742429" lon="11.482932107582295"><ele>222.33333333333334</ele><time>2026-05-02T15:01:06Z</time></trkpt><trkpt lat="43.175717853459865" lon="11.482779577565385"><ele>221.0</ele><time>2026-05-02T15:01:08Z</time></trkpt><trkpt lat="43.175646642594685" lon="11.482647725230429"><ele>218.66666666666669</ele><time>2026-05-02T15:01:09.999Z</time></trkpt><trkpt lat="43.175625585623536" lon="11.482563262617434"><ele>216.33333333333334</ele><time>2026-05-02T15:01:10.999Z</time></trkpt><trkpt lat="43.17561376791336" lon="11.482455163368593"><ele>214.0</ele><time>2026-05-02T15:01:11.999Z</time></trkpt><trkpt lat="43.17564465674237" lon="11.482342004199948"><ele>211.66666666666669</ele><time>2026-05-02T15:01:12.999Z</time></trkpt><trkpt lat="43.17564461795854" lon="11.482222927160294"><ele>209.33333333333334</ele><time>2026-05-02T15:01:13.999Z</time></trkpt><trkpt lat="43.175669038605434" lon="11.482104971195508"><ele>207.0</ele><time>2026-05-02T15:01:14.999Z</time></trkpt><trkpt lat="43.17569253121246" lon="11.481992233108825"><ele>207.00000000000003</ele><time>2026-05-02T15:01:15.999Z</time></trkpt><trkpt lat="43.17570957601477" lon="11.48189397802825"><ele>207.0</ele><time>2026-05-02T15:01:16.999Z</time></trkpt><trkpt lat="43.17573579511406" lon="11.481804291105655"><ele>207.0</ele><time>2026-05-02T15:01:17.999Z</time></trkpt><trkpt lat="43.1757781019054" lon="11.48173072637088"><ele>207.0</ele><time>2026-05-02T15:01:18.999Z</time></trkpt><trkpt lat="43.17583964828813" lon="11.481688507292832"><ele>207.0</ele><time>2026-05-02T15:01:19.999Z</time></trkpt><trkpt lat="43.175892377258606" lon="11.481633861461031"><ele>207.00000000000003</ele><time>2026-05-02T15:01:20.999Z</time></trkpt><trkpt lat="43.17593714750354" lon="11.481563855596939"><ele>207.0</ele><time>2026-05-02T15:01:21.999Z</time></trkpt><trkpt lat="43.17599184187475" lon="11.481496788159719"><ele>207.0</ele><time>2026-05-02T15:01:22.999Z</time></trkpt><trkpt lat="43.17603767692893" lon="11.481413815322826"><ele>207.0</ele><time>2026-05-02T15:01:23.999Z</time></trkpt><trkpt lat="43.17607070278495" lon="11.481319370159435"><ele>207.0</ele><time>2026-05-02T15:01:24.999Z</time></trkpt><trkpt lat="43.17609957844158" lon="11.481203771310721"><ele>207.0</ele><time>2026-05-02T15:01:25.999Z</time></trkpt><trkpt lat="43.1761224489969" lon="11.48108227749445"><ele>207.0</ele><time>2026-05-02T15:01:26.999Z</time></trkpt><trkpt lat="43.17613809172741" lon="11.480957652798597"><ele>207.0</ele><time>2026-05-02T15:01:27.999Z</time></trkpt><trkpt lat="43.17615720233614" lon="11.480825201268882"><ele>205.5</ele><time>2026-05-02T15:01:28.999Z</time></trkpt><trkpt lat="43.17616974368014" lon="11.480696220557785"><ele>204.0</ele><time>2026-05-02T15:01:29.999Z</time></trkpt><trkpt lat="43.17618175941579" lon="11.480572524916074"><ele>202.5</ele><time>2026-05-02T15:01:30.999Z</time></trkpt><trkpt lat="43.17619260905607" lon="11.480454775418254"><ele>201.0</ele><time>2026-05-02T15:01:31.999Z</time></trkpt><trkpt lat="43.17620946300613" lon="11.480342709902656"><ele>199.5</ele><time>2026-05-02T15:01:32.999Z</time></trkpt><trkpt lat="43.17623824158759" lon="11.4802371552234"><ele>198.0</ele><time>2026-05-02T15:01:33.999Z</time></trkpt><trkpt lat="43.176280078084105" lon="11.480142048057957"><ele>197.5</ele><time>2026-05-02T15:01:34.999Z</time></trkpt><trkpt lat="43.17633796846606" lon="11.480063780526134"><ele>197.0</ele><time>2026-05-02T15:01:35.999Z</time></trkpt><trkpt lat="43.17640748753263" lon="11.479992644396797"><ele>196.5</ele><time>2026-05-02T15:01:36.999Z</time></trkpt><trkpt lat="43.1764752738847" lon="11.479919723354055"><ele>196.0</ele><time>2026-05-02T15:01:37.999Z</time></trkpt><trkpt lat="43.17653724369113" lon="11.479839376288858"><ele>195.5</ele><time>2026-05-02T15:01:38.999Z</time></trkpt><trkpt lat="43.17659089729369" lon="11.479752833043017"><ele>195.0</ele><time>2026-05-02T15:01:39.999Z</time></trkpt><trkpt lat="43.176637190135345" lon="11.479661156819386"><ele>193.66666666666666</ele><time>2026-05-02T15:01:40.999Z</time></trkpt><trkpt lat="43.17667590867584" lon="11.479569658989105"><ele>192.33333333333334</ele><time>2026-05-02T15:01:41.999Z</time></trkpt><trkpt lat="43.176708029357776" lon="11.479470245188102"><ele>191.0</ele><time>2026-05-02T15:01:42.999Z</time></trkpt><trkpt lat="43.17672415464659" lon="11.479365817766187"><ele>189.66666666666669</ele><time>2026-05-02T15:01:43.999Z</time></trkpt><trkpt lat="43.176730584198665" lon="11.479253652160386"><ele>188.33333333333334</ele><time>2026-05-02T15:01:44.999Z</time></trkpt><trkpt lat="43.176725968558145" lon="11.47913310074567"><ele>187.0</ele><time>2026-05-02T15:01:45.999Z</time></trkpt><trkpt lat="43.17670942777026" lon="11.479004488756209"><ele>187.0</ele><time>2026-05-02T15:01:46.999Z</time></trkpt><trkpt lat="43.17669104845352" lon="11.478875992872025"><ele>187.0</ele><time>2026-05-02T15:01:47.999Z</time></trkpt><trkpt lat="43.17667939914016" lon="11.478752318701694"><ele>187.0</ele><time>2026-05-02T15:01:48.999Z</time></trkpt><trkpt lat="43.176672921925224" lon="11.478644316950401"><ele>187.0</ele><time>2026-05-02T15:01:49.999Z</time></trkpt><trkpt lat="43.17667179986247" lon="11.478548291452686"><ele>187.0</ele><time>2026-05-02T15:01:50.999Z</time></trkpt><trkpt lat="43.17667210005495" lon="11.478434281994504"><ele>187.0</ele><time>2026-05-02T15:01:51.999Z</time></trkpt><trkpt lat="43.176679751154936" lon="11.478308346575085"><ele>185.66666666666669</ele><time>2026-05-02T15:01:52.999Z</time></trkpt><trkpt lat="43.17669824250736" lon="11.478181093562398"><ele>184.33333333333334</ele><time>2026-05-02T15:01:53.999Z</time></trkpt><trkpt lat="43.17671227604523" lon="11.478090981661849"><ele>183.0</ele><time>2026-05-02T15:01:54.999Z</time></trkpt><trkpt lat="43.1767255977819" lon="11.478005336171647"><ele>181.66666666666666</ele><time>2026-05-02T15:01:55.999Z</time></trkpt><trkpt lat="43.17673972513218" lon="11.477900662024622"><ele>180.33333333333331</ele><time>2026-05-02T15:01:56.999Z</time></trkpt><trkpt lat="43.17676284797901" lon="11.477784489951038"><ele>179.0</ele><time>2026-05-02T15:01:57.999Z</time></trkpt><trkpt lat="43.17680313091897" lon="11.477690463282133"><ele>177.0</ele><time>2026-05-02T15:01:58.999Z</time></trkpt><trkpt lat="43.17686636656096" lon="11.477614975584496"><ele>175.0</ele><time>2026-05-02T15:01:59.999Z</time></trkpt><trkpt lat="43.17694306473043" lon="11.477565429445912"><ele>173.0</ele><time>2026-05-02T15:02:00.999Z</time></trkpt><trkpt lat="43.177034715173804" lon="11.477523659006664"><ele>171.0</ele><time>2026-05-02T15:02:01.999Z</time></trkpt><trkpt lat="43.177142140965906" lon="11.477493615076467"><ele>169.0</ele><time>2026-05-02T15:02:02.999Z</time></trkpt><trkpt lat="43.17725710919813" lon="11.47746859419195"><ele>167.0</ele><time>2026-05-02T15:02:03.999Z</time></trkpt><trkpt lat="43.17737277655759" lon="11.477450109433224"><ele>165.0</ele><time>2026-05-02T15:02:04.999Z</time></trkpt><trkpt lat="43.17748956230523" lon="11.477435646832046"><ele>163.0</ele><time>2026-05-02T15:02:05.999Z</time></trkpt><trkpt lat="43.17760770185217" lon="11.47742160056984"><ele>161.0</ele><time>2026-05-02T15:02:06.999Z</time></trkpt><trkpt lat="43.17772562718112" lon="11.477401478160898"><ele>161.0</ele><time>2026-05-02T15:02:07.999Z</time></trkpt><trkpt lat="43.17784371319127" lon="11.477386135009363"><ele>161.0</ele><time>2026-05-02T15:02:08.999Z</time></trkpt><trkpt lat="43.17796125965484" lon="11.477370880451877"><ele>161.0</ele><time>2026-05-02T15:02:09.999Z</time></trkpt><trkpt lat="43.178077631166204" lon="11.47735460611797"><ele>161.0</ele><time>2026-05-02T15:02:11Z</time></trkpt><trkpt lat="43.17819056188098" lon="11.477336879695908"><ele>160.0</ele><time>2026-05-02T15:02:12Z</time></trkpt><trkpt lat="43.17830557399231" lon="11.477313420832742"><ele>159.0</ele><time>2026-05-02T15:02:13Z</time></trkpt><trkpt lat="43.17842093356534" lon="11.477288816557918"><ele>158.0</ele><time>2026-05-02T15:02:14Z</time></trkpt><trkpt lat="43.17853770510924" lon="11.477261915974019"><ele>157.0</ele><time>2026-05-02T15:02:15Z</time></trkpt><trkpt lat="43.178653388158814" lon="11.47723212549632"><ele>157.0</ele><time>2026-05-02T15:02:16Z</time></trkpt><trkpt lat="43.17876942462748" lon="11.477199838497315"><ele>157.0</ele><time>2026-05-02T15:02:17Z</time></trkpt><trkpt lat="43.178884610262514" lon="11.477164583471534"><ele>157.0</ele><time>2026-05-02T15:02:18Z</time></trkpt><trkpt lat="43.17899604866776" lon="11.477134811783209"><ele>157.0</ele><time>2026-05-02T15:02:19Z</time></trkpt><trkpt lat="43.17910719935085" lon="11.4771063044407"><ele>156.5</ele><time>2026-05-02T15:02:20Z</time></trkpt><trkpt lat="43.179219521274916" lon="11.477090076531164"><ele>156.0</ele><time>2026-05-02T15:02:21Z</time></trkpt><trkpt lat="43.179332882781466" lon="11.477085525953736"><ele>155.5</ele><time>2026-05-02T15:02:22Z</time></trkpt><trkpt lat="43.17944678778508" lon="11.47709515808887"><ele>155.0</ele><time>2026-05-02T15:02:23Z</time></trkpt><trkpt lat="43.17956169216686" lon="11.477112346149024"><ele>155.0</ele><time>2026-05-02T15:02:24Z</time></trkpt><trkpt lat="43.17968278757645" lon="11.477140021498784"><ele>155.0</ele><time>2026-05-02T15:02:25Z</time></trkpt><trkpt lat="43.17980457415941" lon="11.47717623381495"><ele>155.0</ele><time>2026-05-02T15:02:26Z</time></trkpt><trkpt lat="43.17993611440067" lon="11.47720796963682"><ele>155.0</ele><time>2026-05-02T15:02:27Z</time></trkpt><trkpt lat="43.180075846277646" lon="11.477249706174266"><ele>155.0</ele><time>2026-05-02T15:02:28Z</time></trkpt><trkpt lat="43.18021702902541" lon="11.47729376261585"><ele>155.0</ele><time>2026-05-02T15:02:29Z</time></trkpt><trkpt lat="43.18035479880642" lon="11.477335395596906"><ele>155.0</ele><time>2026-05-02T15:02:30Z</time></trkpt><trkpt lat="43.18048930069856" lon="11.47736062187076"><ele>155.0</ele><time>2026-05-02T15:02:31Z</time></trkpt><trkpt lat="43.18063209967599" lon="11.477392688049273"><ele>155.25</ele><time>2026-05-02T15:02:32Z</time></trkpt><trkpt lat="43.18078286877594" lon="11.477421912751835"><ele>155.5</ele><time>2026-05-02T15:02:33Z</time></trkpt><trkpt lat="43.18092671063657" lon="11.477455289171779"><ele>155.75</ele><time>2026-05-02T15:02:34Z</time></trkpt><trkpt lat="43.181069720414335" lon="11.477489509797575"><ele>156.0</ele><time>2026-05-02T15:02:35Z</time></trkpt><trkpt lat="43.18121420908223" lon="11.47752384535698"><ele>156.0</ele><time>2026-05-02T15:02:36Z</time></trkpt><trkpt lat="43.18136601508076" lon="11.477564787156549"><ele>156.0</ele><time>2026-05-02T15:02:37Z</time></trkpt><trkpt lat="43.18151300057126" lon="11.477603992146049"><ele>156.0</ele><time>2026-05-02T15:02:38Z</time></trkpt><trkpt lat="43.181654265369794" lon="11.47764788097335"><ele>156.0</ele><time>2026-05-02T15:02:39Z</time></trkpt><trkpt lat="43.18179010032942" lon="11.477687612812836"><ele>156.0</ele><time>2026-05-02T15:02:40Z</time></trkpt><trkpt lat="43.18190680869864" lon="11.477724029572242"><ele>156.0</ele><time>2026-05-02T15:02:41Z</time></trkpt><trkpt lat="43.1820158553476" lon="11.477758277669711"><ele>156.0</ele><time>2026-05-02T15:02:42Z</time></trkpt><trkpt lat="43.18212352528" lon="11.47779491969954"><ele>156.0</ele><time>2026-05-02T15:02:43Z</time></trkpt><trkpt lat="43.18222024042198" lon="11.477828123830797"><ele>156.0</ele><time>2026-05-02T15:02:44Z</time></trkpt><trkpt lat="43.182318460633354" lon="11.47784354372602"><ele>155.75</ele><time>2026-05-02T15:02:45Z</time></trkpt><trkpt lat="43.18241534666837" lon="11.477850554752495"><ele>155.5</ele><time>2026-05-02T15:02:46Z</time></trkpt><trkpt lat="43.18251959998905" lon="11.47776741606885"><ele>155.25</ele><time>2026-05-02T15:02:47Z</time></trkpt><trkpt lat="43.182634775012545" lon="11.477677982816578"><ele>155.0</ele><time>2026-05-02T15:02:48Z</time></trkpt><trkpt lat="43.18274791539639" lon="11.477575496605859"><ele>155.0</ele><time>2026-05-02T15:02:49Z</time></trkpt><trkpt lat="43.18286288872694" lon="11.4774672212165"><ele>155.0</ele><time>2026-05-02T15:02:50Z</time></trkpt><trkpt lat="43.18298434140912" lon="11.477358683337556"><ele>155.0</ele><time>2026-05-02T15:02:51Z</time></trkpt><trkpt lat="43.18310615477296" lon="11.477258335097911"><ele>155.0</ele><time>2026-05-02T15:02:52Z</time></trkpt><trkpt lat="43.18322934143465" lon="11.47716094187212"><ele>154.5</ele><time>2026-05-02T15:02:53Z</time></trkpt><trkpt lat="43.18335257960192" lon="11.477064753364214"><ele>154.0</ele><time>2026-05-02T15:02:54Z</time></trkpt><trkpt lat="43.18347923339009" lon="11.476962510530882"><ele>153.5</ele><time>2026-05-02T15:02:55Z</time></trkpt><trkpt lat="43.183603414033286" lon="11.476858932099347"><ele>153.0</ele><time>2026-05-02T15:02:56Z</time></trkpt><trkpt lat="43.1837268146246" lon="11.476756570528474"><ele>153.0</ele><time>2026-05-02T15:02:57Z</time></trkpt><trkpt lat="43.18385158199901" lon="11.47665729801656"><ele>153.0</ele><time>2026-05-02T15:02:58Z</time></trkpt><trkpt lat="43.18397819732432" lon="11.476560454715825"><ele>153.0</ele><time>2026-05-02T15:02:59Z</time></trkpt><trkpt lat="43.18409991557076" lon="11.476464404394006"><ele>153.0</ele><time>2026-05-02T15:03:00Z</time></trkpt><trkpt lat="43.18422255155884" lon="11.476367479040956"><ele>153.25</ele><time>2026-05-02T15:03:01Z</time></trkpt><trkpt lat="43.184349410852676" lon="11.47627001928255"><ele>153.5</ele><time>2026-05-02T15:03:02Z</time></trkpt><trkpt lat="43.18447224798784" lon="11.476170607220709"><ele>153.75</ele><time>2026-05-02T15:03:03Z</time></trkpt><trkpt lat="43.18459577621021" lon="11.47607065990238"><ele>154.0</ele><time>2026-05-02T15:03:04Z</time></trkpt><trkpt lat="43.18471690878913" lon="11.47597193378183"><ele>154.0</ele><time>2026-05-02T15:03:05Z</time></trkpt><trkpt lat="43.18483254444546" lon="11.475869471330359"><ele>154.0</ele><time>2026-05-02T15:03:06Z</time></trkpt><trkpt lat="43.184950436379644" lon="11.475771650820937"><ele>154.0</ele><time>2026-05-02T15:03:07Z</time></trkpt><trkpt lat="43.18506773763215" lon="11.47567678512485"><ele>154.0</ele><time>2026-05-02T15:03:08Z</time></trkpt><trkpt lat="43.18518948005" lon="11.475580138641883"><ele>154.0</ele><time>2026-05-02T15:03:08.999Z</time></trkpt><trkpt lat="43.18530474333912" lon="11.475483274848424"><ele>154.0</ele><time>2026-05-02T15:03:09.999Z</time></trkpt><trkpt lat="43.185417207631126" lon="11.475383035703537"><ele>154.0</ele><time>2026-05-02T15:03:10.999Z</time></trkpt><trkpt lat="43.1855287409851" lon="11.475287301976014"><ele>154.0</ele><time>2026-05-02T15:03:11.999Z</time></trkpt><trkpt lat="43.18563675476361" lon="11.475197654890632"><ele>154.0</ele><time>2026-05-02T15:03:12.999Z</time></trkpt><trkpt lat="43.185738659906775" lon="11.475113276038762"><ele>154.0</ele><time>2026-05-02T15:03:13.999Z</time></trkpt><trkpt lat="43.18583974922229" lon="11.475029687790508"><ele>154.0</ele><time>2026-05-02T15:03:14.999Z</time></trkpt><trkpt lat="43.18594897491916" lon="11.474956344674771"><ele>154.0</ele><time>2026-05-02T15:03:15.999Z</time></trkpt><trkpt lat="43.18606566957379" lon="11.474884786752947"><ele>154.0</ele><time>2026-05-02T15:03:16.999Z</time></trkpt><trkpt lat="43.186182768328756" lon="11.474835620591474"><ele>154.0</ele><time>2026-05-02T15:03:17.999Z</time></trkpt><trkpt lat="43.18629779198296" lon="11.474848519764803"><ele>154.0</ele><time>2026-05-02T15:03:18.999Z</time></trkpt><trkpt lat="43.18641440052982" lon="11.474831021532056"><ele>154.0</ele><time>2026-05-02T15:03:19.999Z</time></trkpt><trkpt lat="43.186533306459275" lon="11.474839911426752"><ele>154.2</ele><time>2026-05-02T15:03:20.999Z</time></trkpt><trkpt lat="43.18664869027584" lon="11.474833731047998"><ele>154.4</ele><time>2026-05-02T15:03:21.999Z</time></trkpt><trkpt lat="43.18676020600149" lon="11.474819951012291"><ele>154.6</ele><time>2026-05-02T15:03:22.999Z</time></trkpt><trkpt lat="43.1868683467917" lon="11.474803372262146"><ele>154.8</ele><time>2026-05-02T15:03:23.999Z</time></trkpt><trkpt lat="43.18696895834167" lon="11.47478057845032"><ele>155.0</ele><time>2026-05-02T15:03:24.999Z</time></trkpt><trkpt lat="43.1870593795376" lon="11.474765797309633"><ele>155.0</ele><time>2026-05-02T15:03:25.999Z</time></trkpt><trkpt lat="43.18714788813108" lon="11.474758192221927"><ele>155.0</ele><time>2026-05-02T15:03:26.999Z</time></trkpt><trkpt lat="43.18724288986765" lon="11.47475898795867"><ele>155.0</ele><time>2026-05-02T15:03:27.999Z</time></trkpt><trkpt lat="43.18732630047055" lon="11.474802090362871"><ele>155.0</ele><time>2026-05-02T15:03:28.999Z</time></trkpt><trkpt lat="43.18738929495899" lon="11.474846711178118"><ele>155.0</ele><time>2026-05-02T15:03:29.999Z</time></trkpt><trkpt lat="43.18745258807635" lon="11.474886089847438"><ele>155.0</ele><time>2026-05-02T15:03:30.999Z</time></trkpt><trkpt lat="43.18751057442599" lon="11.474930578470264"><ele>155.66666666666666</ele><time>2026-05-02T15:03:31.999Z</time></trkpt><trkpt lat="43.18756646611434" lon="11.474972284548162"><ele>156.33333333333331</ele><time>2026-05-02T15:03:32.999Z</time></trkpt><trkpt lat="43.187632084328904" lon="11.474983156399327"><ele>157.0</ele><time>2026-05-02T15:03:33.999Z</time></trkpt><trkpt lat="43.1877517377852" lon="11.475007031040947"><ele>157.66666666666666</ele><time>2026-05-02T15:03:35.999Z</time></trkpt><trkpt lat="43.18781470240841" lon="11.474984510403894"><ele>158.33333333333334</ele><time>2026-05-02T15:03:36.999Z</time></trkpt><trkpt lat="43.18790777447953" lon="11.474867116985763"><ele>159.0</ele><time>2026-05-02T15:03:38.999Z</time></trkpt><trkpt lat="43.187940716341636" lon="11.474776744051747"><ele>159.0</ele><time>2026-05-02T15:03:39.999Z</time></trkpt><trkpt lat="43.18796086290785" lon="11.474665861879199"><ele>159.0</ele><time>2026-05-02T15:03:40.999Z</time></trkpt><trkpt lat="43.187987848141475" lon="11.474538815592346"><ele>159.0</ele><time>2026-05-02T15:03:41.999Z</time></trkpt><trkpt lat="43.18802559953515" lon="11.474428802611971"><ele>159.0</ele><time>2026-05-02T15:03:42.999Z</time></trkpt><trkpt lat="43.188072426491516" lon="11.474351466490498"><ele>159.0</ele><time>2026-05-02T15:03:43.999Z</time></trkpt><trkpt lat="43.188137190179134" lon="11.474285695936876"><ele>159.0</ele><time>2026-05-02T15:03:44.999Z</time></trkpt><trkpt lat="43.18822683962423" lon="11.474234426392051"><ele>160.2</ele><time>2026-05-02T15:03:45.999Z</time></trkpt><trkpt lat="43.18832274305772" lon="11.474175730735277"><ele>161.4</ele><time>2026-05-02T15:03:46.999Z</time></trkpt><trkpt lat="43.188406118497724" lon="11.474096609238154"><ele>162.6</ele><time>2026-05-02T15:03:47.999Z</time></trkpt><trkpt lat="43.18847609313382" lon="11.474001958992654"><ele>163.8</ele><time>2026-05-02T15:03:48.999Z</time></trkpt><trkpt lat="43.18853140237852" lon="11.473887328486972"><ele>165.0</ele><time>2026-05-02T15:03:49.999Z</time></trkpt><trkpt lat="43.18857323757936" lon="11.47376444056326"><ele>165.0</ele><time>2026-05-02T15:03:50.999Z</time></trkpt><trkpt lat="43.18861008666461" lon="11.473641853640176"><ele>165.0</ele><time>2026-05-02T15:03:51.999Z</time></trkpt><trkpt lat="43.18864652974726" lon="11.473520231383455"><ele>165.0</ele><time>2026-05-02T15:03:52.999Z</time></trkpt><trkpt lat="43.188683934105434" lon="11.473400411808692"><ele>165.0</ele><time>2026-05-02T15:03:53.999Z</time></trkpt><trkpt lat="43.18873055485907" lon="11.473281432721981"><ele>165.0</ele><time>2026-05-02T15:03:54.999Z</time></trkpt><trkpt lat="43.18877574665532" lon="11.473161495727467"><ele>165.0</ele><time>2026-05-02T15:03:55.999Z</time></trkpt><trkpt lat="43.18884899124832" lon="11.473053829041895"><ele>165.0</ele><time>2026-05-02T15:03:56.999Z</time></trkpt><trkpt lat="43.18889674189959" lon="11.472923183880042"><ele>165.0</ele><time>2026-05-02T15:03:57.999Z</time></trkpt><trkpt lat="43.18894900155915" lon="11.472792898573848"><ele>165.0</ele><time>2026-05-02T15:03:58.999Z</time></trkpt><trkpt lat="43.18899406707976" lon="11.472668335244558"><ele>165.0</ele><time>2026-05-02T15:03:59.999Z</time></trkpt><trkpt lat="43.1890302857255" lon="11.47252557996568"><ele>165.4</ele><time>2026-05-02T15:04:00.999Z</time></trkpt><trkpt lat="43.18906020022275" lon="11.47238021439213"><ele>165.8</ele><time>2026-05-02T15:04:01.999Z</time></trkpt><trkpt lat="43.18909039112001" lon="11.472240386252842"><ele>166.2</ele><time>2026-05-02T15:04:02.999Z</time></trkpt><trkpt lat="43.18912499229003" lon="11.472100491164268"><ele>166.6</ele><time>2026-05-02T15:04:03.999Z</time></trkpt><trkpt lat="43.189164553222824" lon="11.471951127513632"><ele>167.0</ele><time>2026-05-02T15:04:04.999Z</time></trkpt><trkpt lat="43.189205352271216" lon="11.471811595859808"><ele>167.0</ele><time>2026-05-02T15:04:05.999Z</time></trkpt><trkpt lat="43.189263814143075" lon="11.471676667261749"><ele>167.0</ele><time>2026-05-02T15:04:06.999Z</time></trkpt><trkpt lat="43.18934213059559" lon="11.471573153812201"><ele>167.0</ele><time>2026-05-02T15:04:07.999Z</time></trkpt><trkpt lat="43.18943612496809" lon="11.47144714772882"><ele>167.0</ele><time>2026-05-02T15:04:08.999Z</time></trkpt><trkpt lat="43.18953185055004" lon="11.471359105826734"><ele>167.0</ele><time>2026-05-02T15:04:09.999Z</time></trkpt><trkpt lat="43.18963450060291" lon="11.471280102382408"><ele>167.0</ele><time>2026-05-02T15:04:10.999Z</time></trkpt><trkpt lat="43.189746133486764" lon="11.471220473016283"><ele>167.0</ele><time>2026-05-02T15:04:11.999Z</time></trkpt><trkpt lat="43.18986077726427" lon="11.471166927090387"><ele>167.0</ele><time>2026-05-02T15:04:12.999Z</time></trkpt><trkpt lat="43.189967505428584" lon="11.471106317360805"><ele>166.5</ele><time>2026-05-02T15:04:13.999Z</time></trkpt><trkpt lat="43.19007152942835" lon="11.471044315487305"><ele>166.0</ele><time>2026-05-02T15:04:14.999Z</time></trkpt><trkpt lat="43.190165895644455" lon="11.470962448679467"><ele>165.5</ele><time>2026-05-02T15:04:16Z</time></trkpt><trkpt lat="43.19025786322731" lon="11.470871838235698"><ele>165.0</ele><time>2026-05-02T15:04:17Z</time></trkpt><trkpt lat="43.190349024290555" lon="11.470772281173462"><ele>165.0</ele><time>2026-05-02T15:04:18Z</time></trkpt><trkpt lat="43.190434424842714" lon="11.470682907313828"><ele>165.0</ele><time>2026-05-02T15:04:19Z</time></trkpt><trkpt lat="43.19051718803613" lon="11.470581588997335"><ele>165.0</ele><time>2026-05-02T15:04:20Z</time></trkpt><trkpt lat="43.19059878506067" lon="11.470484799896557"><ele>165.0</ele><time>2026-05-02T15:04:21Z</time></trkpt><trkpt lat="43.19068040836599" lon="11.470383350399674"><ele>165.0</ele><time>2026-05-02T15:04:22Z</time></trkpt><trkpt lat="43.190757356080724" lon="11.470274424482872"><ele>164.25</ele><time>2026-05-02T15:04:23Z</time></trkpt><trkpt lat="43.19083562292949" lon="11.470153184153844"><ele>163.5</ele><time>2026-05-02T15:04:24Z</time></trkpt><trkpt lat="43.19090102738693" lon="11.470020085098062"><ele>162.75</ele><time>2026-05-02T15:04:25Z</time></trkpt><trkpt lat="43.19096191949404" lon="11.46988262266186"><ele>162.0</ele><time>2026-05-02T15:04:26Z</time></trkpt><trkpt lat="43.19101790573615" lon="11.469738414626704"><ele>160.75</ele><time>2026-05-02T15:04:27Z</time></trkpt><trkpt lat="43.19107039377447" lon="11.469591790975745"><ele>159.5</ele><time>2026-05-02T15:04:28Z</time></trkpt><trkpt lat="43.19112433210425" lon="11.469449786619352"><ele>158.25</ele><time>2026-05-02T15:04:29Z</time></trkpt><trkpt lat="43.191176202712356" lon="11.469306075835252"><ele>157.0</ele><time>2026-05-02T15:04:30Z</time></trkpt><trkpt lat="43.19123678957298" lon="11.469170785808013"><ele>157.0</ele><time>2026-05-02T15:04:31Z</time></trkpt><trkpt lat="43.19131457187054" lon="11.469048732054524"><ele>157.0</ele><time>2026-05-02T15:04:32Z</time></trkpt><trkpt lat="43.191408932555014" lon="11.468942352514366"><ele>157.0</ele><time>2026-05-02T15:04:33Z</time></trkpt><trkpt lat="43.19150906612789" lon="11.468849459601412"><ele>157.0</ele><time>2026-05-02T15:04:34Z</time></trkpt><trkpt lat="43.19161053331234" lon="11.46876266207975"><ele>157.5</ele><time>2026-05-02T15:04:35Z</time></trkpt><trkpt lat="43.19170675856042" lon="11.46867274182202"><ele>158.0</ele><time>2026-05-02T15:04:36Z</time></trkpt><trkpt lat="43.19180077329989" lon="11.468580310594524"><ele>158.5</ele><time>2026-05-02T15:04:37Z</time></trkpt><trkpt lat="43.19190071528665" lon="11.468497987854768"><ele>159.0</ele><time>2026-05-02T15:04:38Z</time></trkpt><trkpt lat="43.19200991229806" lon="11.468397993893038"><ele>159.0</ele><time>2026-05-02T15:04:39Z</time></trkpt><trkpt lat="43.192117903351296" lon="11.468285369742466"><ele>159.0</ele><time>2026-05-02T15:04:40Z</time></trkpt><trkpt lat="43.192232613574724" lon="11.468171125862211"><ele>159.0</ele><time>2026-05-02T15:04:41Z</time></trkpt><trkpt lat="43.192350037733966" lon="11.468060426457981"><ele>159.0</ele><time>2026-05-02T15:04:42Z</time></trkpt><trkpt lat="43.19246658851417" lon="11.467944804748141"><ele>158.25</ele><time>2026-05-02T15:04:43Z</time></trkpt><trkpt lat="43.192581290194205" lon="11.467827649419222"><ele>157.5</ele><time>2026-05-02T15:04:44Z</time></trkpt><trkpt lat="43.1926939036281" lon="11.467715424687142"><ele>156.75</ele><time>2026-05-02T15:04:45Z</time></trkpt><trkpt lat="43.19280738737165" lon="11.467606191133301"><ele>156.0</ele><time>2026-05-02T15:04:46Z</time></trkpt><trkpt lat="43.19292202942446" lon="11.467497158973714"><ele>156.0</ele><time>2026-05-02T15:04:47Z</time></trkpt><trkpt lat="43.19303559172013" lon="11.467381580198632"><ele>156.0</ele><time>2026-05-02T15:04:48Z</time></trkpt><trkpt lat="43.193147576008926" lon="11.467269950892677"><ele>156.0</ele><time>2026-05-02T15:04:49Z</time></trkpt><trkpt lat="43.19325700043216" lon="11.467164574946757"><ele>156.0</ele><time>2026-05-02T15:04:50Z</time></trkpt><trkpt lat="43.19336899460851" lon="11.4670628034617"><ele>156.0</ele><time>2026-05-02T15:04:51Z</time></trkpt><trkpt lat="43.19348083890743" lon="11.466961599058203"><ele>156.0</ele><time>2026-05-02T15:04:52Z</time></trkpt><trkpt lat="43.193594487371094" lon="11.466858865763689"><ele>156.0</ele><time>2026-05-02T15:04:53Z</time></trkpt><trkpt lat="43.193711184509645" lon="11.4667506823431"><ele>156.0</ele><time>2026-05-02T15:04:54Z</time></trkpt><trkpt lat="43.193831208579" lon="11.466637489168802"><ele>156.0</ele><time>2026-05-02T15:04:55Z</time></trkpt><trkpt lat="43.19394615087978" lon="11.466532277262585"><ele>156.0</ele><time>2026-05-02T15:04:56Z</time></trkpt><trkpt lat="43.19406079993804" lon="11.466434638649734"><ele>156.0</ele><time>2026-05-02T15:04:57Z</time></trkpt><trkpt lat="43.19417248119128" lon="11.466338565340891"><ele>156.0</ele><time>2026-05-02T15:04:58Z</time></trkpt><trkpt lat="43.194259485289464" lon="11.466249003573674"><ele>155.8</ele><time>2026-05-02T15:04:59Z</time></trkpt><trkpt lat="43.1943432645456" lon="11.466158940788329"><ele>155.6</ele><time>2026-05-02T15:05:00Z</time></trkpt><trkpt lat="43.19442218910212" lon="11.466081235560429"><ele>155.4</ele><time>2026-05-02T15:05:01Z</time></trkpt><trkpt lat="43.19449369086977" lon="11.466005939228529"><ele>155.2</ele><time>2026-05-02T15:05:02Z</time></trkpt><trkpt lat="43.19456166105481" lon="11.465942329948374"><ele>155.0</ele><time>2026-05-02T15:05:03Z</time></trkpt><trkpt lat="43.19462233325676" lon="11.465884119190129"><ele>155.0</ele><time>2026-05-02T15:05:04Z</time></trkpt><trkpt lat="43.19467993802882" lon="11.465822822439254"><ele>155.0</ele><time>2026-05-02T15:05:05Z</time></trkpt><trkpt lat="43.194735533001605" lon="11.465770250557787"><ele>155.0</ele><time>2026-05-02T15:05:06Z</time></trkpt><trkpt lat="43.194828902485305" lon="11.465696256706995"><ele>155.0</ele><time>2026-05-02T15:05:08Z</time></trkpt><trkpt lat="43.19490165961821" lon="11.465792591810951"><ele>155.0</ele><time>2026-05-02T15:05:10Z</time></trkpt><trkpt lat="43.19494905880803" lon="11.46585765370704"><ele>155.0</ele><time>2026-05-02T15:05:10.999Z</time></trkpt><trkpt lat="43.194997830003956" lon="11.46592460257967"><ele>155.0</ele><time>2026-05-02T15:05:11.999Z</time></trkpt><trkpt lat="43.195050470088425" lon="11.46598994158739"><ele>155.0</ele><time>2026-05-02T15:05:12.999Z</time></trkpt><trkpt lat="43.19510180464139" lon="11.466053410510138"><ele>155.0</ele><time>2026-05-02T15:05:13.999Z</time></trkpt><trkpt lat="43.19515335566238" lon="11.466118705393868"><ele>155.0</ele><time>2026-05-02T15:05:14.999Z</time></trkpt><trkpt lat="43.19520503314399" lon="11.466184957270292"><ele>155.0</ele><time>2026-05-02T15:05:15.999Z</time></trkpt><trkpt lat="43.19525255434368" lon="11.466250129360622"><ele>155.0</ele><time>2026-05-02T15:05:16.999Z</time></trkpt><trkpt lat="43.19529719899101" lon="11.466318582253553"><ele>155.0</ele><time>2026-05-02T15:05:17.999Z</time></trkpt><trkpt lat="43.19533485645058" lon="11.466388805380017"><ele>155.42857142857144</ele><time>2026-05-02T15:05:18.999Z</time></trkpt><trkpt lat="43.19536705217471" lon="11.466463072040161"><ele>155.85714285714286</ele><time>2026-05-02T15:05:19.999Z</time></trkpt><trkpt lat="43.19540859024387" lon="11.466539509218965"><ele>156.28571428571428</ele><time>2026-05-02T15:05:20.999Z</time></trkpt><trkpt lat="43.195420645583724" lon="11.46663113533344"><ele>156.71428571428572</ele><time>2026-05-02T15:05:21.999Z</time></trkpt><trkpt lat="43.195435518081034" lon="11.466733053100613"><ele>157.14285714285714</ele><time>2026-05-02T15:05:22.999Z</time></trkpt><trkpt lat="43.195448550473785" lon="11.466838263691455"><ele>157.57142857142858</ele><time>2026-05-02T15:05:23.999Z</time></trkpt><trkpt lat="43.19545820646339" lon="11.466943574523746"><ele>158.0</ele><time>2026-05-02T15:05:24.999Z</time></trkpt><trkpt lat="43.19547098119216" lon="11.467049170237354"><ele>158.2857142857143</ele><time>2026-05-02T15:05:25.999Z</time></trkpt><trkpt lat="43.19546818192181" lon="11.467158077390502"><ele>158.57142857142858</ele><time>2026-05-02T15:05:26.999Z</time></trkpt><trkpt lat="43.19548312985193" lon="11.467261898860038"><ele>158.85714285714286</ele><time>2026-05-02T15:05:27.999Z</time></trkpt><trkpt lat="43.195504150914836" lon="11.467362637139724"><ele>159.14285714285717</ele><time>2026-05-02T15:05:28.999Z</time></trkpt><trkpt lat="43.19553158716356" lon="11.467456636543892"><ele>159.42857142857144</ele><time>2026-05-02T15:05:29.999Z</time></trkpt><trkpt lat="43.19558810351916" lon="11.467528287573845"><ele>159.71428571428572</ele><time>2026-05-02T15:05:30.999Z</time></trkpt><trkpt lat="43.19563665463647" lon="11.467588822825068"><ele>160.0</ele><time>2026-05-02T15:05:31.999Z</time></trkpt><trkpt lat="43.19569810020496" lon="11.467635968024904"><ele>160.83333333333334</ele><time>2026-05-02T15:05:32.999Z</time></trkpt><trkpt lat="43.19576094258127" lon="11.467664446018764"><ele>161.66666666666669</ele><time>2026-05-02T15:05:33.999Z</time></trkpt><trkpt lat="43.19582775046289" lon="11.467684989099094"><ele>162.5</ele><time>2026-05-02T15:05:34.999Z</time></trkpt><trkpt lat="43.19590336621843" lon="11.467705749284415"><ele>163.33333333333334</ele><time>2026-05-02T15:05:35.999Z</time></trkpt><trkpt lat="43.19598297448045" lon="11.467737429770187"><ele>164.16666666666666</ele><time>2026-05-02T15:05:36.999Z</time></trkpt><trkpt lat="43.19606028136989" lon="11.4677743009545"><ele>165.0</ele><time>2026-05-02T15:05:37.999Z</time></trkpt><trkpt lat="43.196132820721836" lon="11.467824226651995"><ele>165.0</ele><time>2026-05-02T15:05:38.999Z</time></trkpt><trkpt lat="43.19620211968641" lon="11.467891401874285"><ele>165.0</ele><time>2026-05-02T15:05:39.999Z</time></trkpt><trkpt lat="43.196267424681906" lon="11.467964496902907"><ele>165.0</ele><time>2026-05-02T15:05:40.999Z</time></trkpt><trkpt lat="43.196320393169" lon="11.468067944353505"><ele>165.0</ele><time>2026-05-02T15:05:41.999Z</time></trkpt><trkpt lat="43.1963842547373" lon="11.468170289892155"><ele>165.0</ele><time>2026-05-02T15:05:42.999Z</time></trkpt><trkpt lat="43.19645210021398" lon="11.468255464326825"><ele>167.0</ele><time>2026-05-02T15:05:43.999Z</time></trkpt><trkpt lat="43.196513443291416" lon="11.468357686545247"><ele>169.0</ele><time>2026-05-02T15:05:44.999Z</time></trkpt><trkpt lat="43.19656630234632" lon="11.468459344388743"><ele>171.0</ele><time>2026-05-02T15:05:45.999Z</time></trkpt><trkpt lat="43.196603937399686" lon="11.468581249642856"><ele>173.0</ele><time>2026-05-02T15:05:46.999Z</time></trkpt><trkpt lat="43.19658734716951" lon="11.468731153133813"><ele>175.0</ele><time>2026-05-02T15:05:47.999Z</time></trkpt><trkpt lat="43.19662999166617" lon="11.468844247432367"><ele>176.2</ele><time>2026-05-02T15:05:48.999Z</time></trkpt><trkpt lat="43.196650753107264" lon="11.468960419692056"><ele>177.4</ele><time>2026-05-02T15:05:49.999Z</time></trkpt><trkpt lat="43.196697989164946" lon="11.4690623969574"><ele>178.60000000000002</ele><time>2026-05-02T15:05:50.999Z</time></trkpt><trkpt lat="43.196764891000065" lon="11.46915183651472"><ele>179.8</ele><time>2026-05-02T15:05:51.999Z</time></trkpt><trkpt lat="43.19683471304031" lon="11.469238933339089"><ele>181.0</ele><time>2026-05-02T15:05:52.999Z</time></trkpt><trkpt lat="43.19689227208952" lon="11.469333750078151"><ele>181.0</ele><time>2026-05-02T15:05:53.999Z</time></trkpt><trkpt lat="43.1969529705968" lon="11.46943349029092"><ele>181.0</ele><time>2026-05-02T15:05:54.999Z</time></trkpt><trkpt lat="43.197007364410126" lon="11.469533672834851"><ele>181.0</ele><time>2026-05-02T15:05:55.999Z</time></trkpt><trkpt lat="43.19706226714129" lon="11.469651511945328"><ele>181.0</ele><time>2026-05-02T15:05:56.999Z</time></trkpt><trkpt lat="43.19711211799226" lon="11.469782055515036"><ele>181.0</ele><time>2026-05-02T15:05:57.999Z</time></trkpt><trkpt lat="43.19716002194857" lon="11.469913010286295"><ele>181.20000000000002</ele><time>2026-05-02T15:05:58.999Z</time></trkpt><trkpt lat="43.197207799319955" lon="11.470042615788762"><ele>181.4</ele><time>2026-05-02T15:05:59.999Z</time></trkpt><trkpt lat="43.19724356436339" lon="11.470165540009317"><ele>181.6</ele><time>2026-05-02T15:06:00.999Z</time></trkpt><trkpt lat="43.19728291555752" lon="11.470285149405806"><ele>181.8</ele><time>2026-05-02T15:06:01.999Z</time></trkpt><trkpt lat="43.19732995512191" lon="11.470386295014716"><ele>182.0</ele><time>2026-05-02T15:06:02.999Z</time></trkpt><trkpt lat="43.19738655116934" lon="11.470470297012445"><ele>185.6</ele><time>2026-05-02T15:06:03.999Z</time></trkpt><trkpt lat="43.19744392655461" lon="11.470555297428177"><ele>189.2</ele><time>2026-05-02T15:06:04.999Z</time></trkpt><trkpt lat="43.19753609371318" lon="11.470581921749359"><ele>192.8</ele><time>2026-05-02T15:06:05.999Z</time></trkpt><trkpt lat="43.19762535003852" lon="11.470608714790995"><ele>196.4</ele><time>2026-05-02T15:06:06.999Z</time></trkpt><trkpt lat="43.197717375336374" lon="11.47063357286716"><ele>200.0</ele><time>2026-05-02T15:06:07.999Z</time></trkpt><trkpt lat="43.19780829469806" lon="11.47065232585146"><ele>200.0</ele><time>2026-05-02T15:06:08.999Z</time></trkpt><trkpt lat="43.19789884988483" lon="11.470649488970968"><ele>200.0</ele><time>2026-05-02T15:06:09.999Z</time></trkpt><trkpt lat="43.197983318604784" lon="11.470679593323721"><ele>200.0</ele><time>2026-05-02T15:06:10.999Z</time></trkpt><trkpt lat="43.1980502629533" lon="11.470759383352524"><ele>200.0</ele><time>2026-05-02T15:06:11.999Z</time></trkpt><trkpt lat="43.198126832525446" lon="11.470834849638232"><ele>200.0</ele><time>2026-05-02T15:06:12.999Z</time></trkpt><trkpt lat="43.19819872235416" lon="11.4709169941427"><ele>200.8</ele><time>2026-05-02T15:06:13.999Z</time></trkpt><trkpt lat="43.19827158572443" lon="11.471013276708295"><ele>201.6</ele><time>2026-05-02T15:06:14.999Z</time></trkpt><trkpt lat="43.19833103338626" lon="11.47111389925351"><ele>202.39999999999998</ele><time>2026-05-02T15:06:15.999Z</time></trkpt><trkpt lat="43.1983759915612" lon="11.471207830518178"><ele>203.2</ele><time>2026-05-02T15:06:16.999Z</time></trkpt><trkpt lat="43.19842540143142" lon="11.471334249266318"><ele>204.0</ele><time>2026-05-02T15:06:17.999Z</time></trkpt><trkpt lat="43.19846576423503" lon="11.471460033094777"><ele>205.2</ele><time>2026-05-02T15:06:18.999Z</time></trkpt><trkpt lat="43.198502489037054" lon="11.471587287939247"><ele>206.39999999999998</ele><time>2026-05-02T15:06:19.999Z</time></trkpt><trkpt lat="43.19852357283646" lon="11.47169903760553"><ele>207.6</ele><time>2026-05-02T15:06:20.999Z</time></trkpt><trkpt lat="43.19853630202154" lon="11.471823499879687"><ele>208.8</ele><time>2026-05-02T15:06:22Z</time></trkpt><trkpt lat="43.19853975707763" lon="11.471963719382964"><ele>210.0</ele><time>2026-05-02T15:06:23Z</time></trkpt><trkpt lat="43.19853498218161" lon="11.472108628946305"><ele>210.6</ele><time>2026-05-02T15:06:24Z</time></trkpt><trkpt lat="43.19851719271728" lon="11.47225608812011"><ele>211.2</ele><time>2026-05-02T15:06:25Z</time></trkpt><trkpt lat="43.19849779852487" lon="11.472404054363876"><ele>211.8</ele><time>2026-05-02T15:06:26Z</time></trkpt><trkpt lat="43.19850197732194" lon="11.472555612243116"><ele>212.4</ele><time>2026-05-02T15:06:27Z</time></trkpt><trkpt lat="43.19848347720085" lon="11.472698621163426"><ele>213.0</ele><time>2026-05-02T15:06:28Z</time></trkpt><trkpt lat="43.1984934731253" lon="11.472836361030167"><ele>213.2</ele><time>2026-05-02T15:06:29Z</time></trkpt><trkpt lat="43.19852711027641" lon="11.47297691300632"><ele>213.4</ele><time>2026-05-02T15:06:30Z</time></trkpt><trkpt lat="43.198597124723904" lon="11.473103675355485"><ele>213.59999999999997</ele><time>2026-05-02T15:06:31Z</time></trkpt><trkpt lat="43.19865682437962" lon="11.47322197732275"><ele>213.79999999999998</ele><time>2026-05-02T15:06:32Z</time></trkpt><trkpt lat="43.19873770684527" lon="11.473336188824868"><ele>214.0</ele><time>2026-05-02T15:06:33Z</time></trkpt><trkpt lat="43.19878852190106" lon="11.473447245820584"><ele>214.0</ele><time>2026-05-02T15:06:34Z</time></trkpt><trkpt lat="43.19882191460745" lon="11.473573502049172"><ele>213.99999999999997</ele><time>2026-05-02T15:06:35Z</time></trkpt><trkpt lat="43.198844524767146" lon="11.47370816286867"><ele>213.99999999999997</ele><time>2026-05-02T15:06:36Z</time></trkpt><trkpt lat="43.198858169367355" lon="11.47384507917914"><ele>214.0</ele><time>2026-05-02T15:06:37Z</time></trkpt><trkpt lat="43.198851042494034" lon="11.473999766637025"><ele>214.0</ele><time>2026-05-02T15:06:38Z</time></trkpt><trkpt lat="43.198843148348324" lon="11.474170771506097"><ele>212.2</ele><time>2026-05-02T15:06:39Z</time></trkpt><trkpt lat="43.19886558582138" lon="11.474329275522107"><ele>210.39999999999998</ele><time>2026-05-02T15:06:40Z</time></trkpt><trkpt lat="43.198906751795654" lon="11.474465101011885"><ele>208.6</ele><time>2026-05-02T15:06:41Z</time></trkpt><trkpt lat="43.198975124792746" lon="11.474580384614981"><ele>206.8</ele><time>2026-05-02T15:06:42Z</time></trkpt><trkpt lat="43.19902757970721" lon="11.474717947843859"><ele>205.0</ele><time>2026-05-02T15:06:43Z</time></trkpt><trkpt lat="43.199096359111365" lon="11.474843599159056"><ele>203.8</ele><time>2026-05-02T15:06:44Z</time></trkpt><trkpt lat="43.19916745418" lon="11.474969586605532"><ele>202.6</ele><time>2026-05-02T15:06:45Z</time></trkpt><trkpt lat="43.199236704774734" lon="11.475087827939634"><ele>201.39999999999998</ele><time>2026-05-02T15:06:46Z</time></trkpt><trkpt lat="43.19931601180647" lon="11.475193277769247"><ele>200.2</ele><time>2026-05-02T15:06:47Z</time></trkpt><trkpt lat="43.19938287390936" lon="11.475307408969757"><ele>199.0</ele><time>2026-05-02T15:06:48Z</time></trkpt><trkpt lat="43.19945308242194" lon="11.475420559496001"><ele>200.39999999999998</ele><time>2026-05-02T15:06:49Z</time></trkpt><trkpt lat="43.1995283749239" lon="11.47552521199126"><ele>201.8</ele><time>2026-05-02T15:06:50Z</time></trkpt><trkpt lat="43.199607154760486" lon="11.475614816113477"><ele>203.2</ele><time>2026-05-02T15:06:51Z</time></trkpt><trkpt lat="43.19969720882787" lon="11.475687472540114"><ele>204.60000000000002</ele><time>2026-05-02T15:06:52Z</time></trkpt><trkpt lat="43.19978186366349" lon="11.475750820385354"><ele>206.0</ele><time>2026-05-02T15:06:53Z</time></trkpt><trkpt lat="43.19986988529018" lon="11.475812957707074"><ele>206.0</ele><time>2026-05-02T15:06:54Z</time></trkpt><trkpt lat="43.199948862976" lon="11.475900577169126"><ele>206.0</ele><time>2026-05-02T15:06:55Z</time></trkpt><trkpt lat="43.20003605084672" lon="11.47597505875175"><ele>206.0</ele><time>2026-05-02T15:06:56Z</time></trkpt><trkpt lat="43.20012955161066" lon="11.476042723534665"><ele>206.0</ele><time>2026-05-02T15:06:57Z</time></trkpt><trkpt lat="43.200203438142424" lon="11.47614926507581"><ele>206.0</ele><time>2026-05-02T15:06:58Z</time></trkpt><trkpt lat="43.20028364349655" lon="11.476246936981685"><ele>203.75</ele><time>2026-05-02T15:06:59Z</time></trkpt><trkpt lat="43.20037589125732" lon="11.476336489108935"><ele>201.5</ele><time>2026-05-02T15:07:00Z</time></trkpt><trkpt lat="43.20047220520143" lon="11.476426556831155"><ele>199.25</ele><time>2026-05-02T15:07:01Z</time></trkpt><trkpt lat="43.20056674444552" lon="11.476523016885315"><ele>197.0</ele><time>2026-05-02T15:07:02Z</time></trkpt><trkpt lat="43.20065539928386" lon="11.47663629902739"><ele>199.25</ele><time>2026-05-02T15:07:03Z</time></trkpt><trkpt lat="43.20073703853838" lon="11.476766694488624"><ele>201.5</ele><time>2026-05-02T15:07:04Z</time></trkpt><trkpt lat="43.20081307238491" lon="11.4769124255685"><ele>203.75</ele><time>2026-05-02T15:07:05Z</time></trkpt><trkpt lat="43.200885409098014" lon="11.477071051031293"><ele>206.0</ele><time>2026-05-02T15:07:06Z</time></trkpt><trkpt lat="43.20095699314097" lon="11.47724066382883"><ele>206.0</ele><time>2026-05-02T15:07:07Z</time></trkpt><trkpt lat="43.20103834324949" lon="11.477430545210025"><ele>206.0</ele><time>2026-05-02T15:07:08Z</time></trkpt><trkpt lat="43.20111531029746" lon="11.477635529615709"><ele>206.0</ele><time>2026-05-02T15:07:09Z</time></trkpt><trkpt lat="43.201189283795436" lon="11.47784170322147"><ele>204.33333333333334</ele><time>2026-05-02T15:07:10Z</time></trkpt><trkpt lat="43.201265199609914" lon="11.478034509550424"><ele>202.66666666666669</ele><time>2026-05-02T15:07:11Z</time></trkpt><trkpt lat="43.201327626142366" lon="11.47824234436546"><ele>201.0</ele><time>2026-05-02T15:07:12Z</time></trkpt><trkpt lat="43.201405379124665" lon="11.478442136678286"><ele>201.0</ele><time>2026-05-02T15:07:13Z</time></trkpt><trkpt lat="43.20148172623268" lon="11.478638316224885"><ele>201.0</ele><time>2026-05-02T15:07:14Z</time></trkpt><trkpt lat="43.201552894863376" lon="11.478829137660947"><ele>201.0</ele><time>2026-05-02T15:07:15Z</time></trkpt><trkpt lat="43.20162031282178" lon="11.479018746639277"><ele>204.66666666666669</ele><time>2026-05-02T15:07:16Z</time></trkpt><trkpt lat="43.20168480753262" lon="11.479220561028153"><ele>208.33333333333334</ele><time>2026-05-02T15:07:17Z</time></trkpt><trkpt lat="43.20174812947047" lon="11.47942643920946"><ele>212.0</ele><time>2026-05-02T15:07:18Z</time></trkpt><trkpt lat="43.20182011547215" lon="11.479618435788451"><ele>212.0</ele><time>2026-05-02T15:07:18.999Z</time></trkpt><trkpt lat="43.20186990307697" lon="11.479813209016863"><ele>212.0</ele><time>2026-05-02T15:07:19.999Z</time></trkpt><trkpt lat="43.20192340973828" lon="11.479995478877742"><ele>212.0</ele><time>2026-05-02T15:07:20.999Z</time></trkpt><trkpt lat="43.201980369735125" lon="11.480168038894153"><ele>212.0</ele><time>2026-05-02T15:07:21.999Z</time></trkpt><trkpt lat="43.20204727615591" lon="11.480333370746505"><ele>211.25</ele><time>2026-05-02T15:07:22.999Z</time></trkpt><trkpt lat="43.20211011777932" lon="11.480485611623335"><ele>210.5</ele><time>2026-05-02T15:07:23.999Z</time></trkpt><trkpt lat="43.2021457792249" lon="11.480648880736776"><ele>209.75</ele><time>2026-05-02T15:07:24.999Z</time></trkpt><trkpt lat="43.20218408928921" lon="11.480811813038457"><ele>209.0</ele><time>2026-05-02T15:07:25.999Z</time></trkpt><trkpt lat="43.20221908774196" lon="11.480984677745177"><ele>209.0</ele><time>2026-05-02T15:07:26.999Z</time></trkpt><trkpt lat="43.20224559731202" lon="11.481162417655025"><ele>209.0</ele><time>2026-05-02T15:07:27.999Z</time></trkpt><trkpt lat="43.20228728014211" lon="11.481338415843938"><ele>209.0</ele><time>2026-05-02T15:07:28.999Z</time></trkpt><trkpt lat="43.20231083827232" lon="11.481507144941212"><ele>209.0</ele><time>2026-05-02T15:07:29.999Z</time></trkpt><trkpt lat="43.20232584153103" lon="11.481676596435541"><ele>210.25</ele><time>2026-05-02T15:07:30.999Z</time></trkpt><trkpt lat="43.202319948422435" lon="11.481839643304525"><ele>211.5</ele><time>2026-05-02T15:07:31.999Z</time></trkpt><trkpt lat="43.20231937976214" lon="11.482004401874981"><ele>212.75</ele><time>2026-05-02T15:07:32.999Z</time></trkpt><trkpt lat="43.20227187604288" lon="11.482165767709102"><ele>214.0</ele><time>2026-05-02T15:07:33.999Z</time></trkpt><trkpt lat="43.202233384883634" lon="11.482334317588245"><ele>216.25</ele><time>2026-05-02T15:07:34.999Z</time></trkpt><trkpt lat="43.20222014304508" lon="11.482504162007535"><ele>218.5</ele><time>2026-05-02T15:07:35.999Z</time></trkpt><trkpt lat="43.20220676426676" lon="11.482670731536134"><ele>220.75</ele><time>2026-05-02T15:07:36.999Z</time></trkpt><trkpt lat="43.20221118855991" lon="11.48284466256646"><ele>223.0</ele><time>2026-05-02T15:07:37.999Z</time></trkpt><trkpt lat="43.20221904790383" lon="11.483010047945191"><ele>225.8</ele><time>2026-05-02T15:07:38.999Z</time></trkpt><trkpt lat="43.202215381347806" lon="11.483153171440055"><ele>228.60000000000002</ele><time>2026-05-02T15:07:39.999Z</time></trkpt><trkpt lat="43.202164445525746" lon="11.483261096099078"><ele>231.39999999999998</ele><time>2026-05-02T15:07:40.999Z</time></trkpt><trkpt lat="43.20210715916412" lon="11.483362878412219"><ele>234.2</ele><time>2026-05-02T15:07:41.999Z</time></trkpt><trkpt lat="43.2020372064038" lon="11.48348418987481"><ele>237.0</ele><time>2026-05-02T15:07:42.999Z</time></trkpt><trkpt lat="43.20195479052228" lon="11.483613217868848"><ele>237.0</ele><time>2026-05-02T15:07:43.999Z</time></trkpt><trkpt lat="43.20187255239067" lon="11.483737425136319"><ele>237.0</ele><time>2026-05-02T15:07:44.999Z</time></trkpt><trkpt lat="43.201827808918694" lon="11.483860528425833"><ele>237.0</ele><time>2026-05-02T15:07:45.999Z</time></trkpt><trkpt lat="43.201790614554795" lon="11.48395049914071"><ele>237.0</ele><time>2026-05-02T15:07:46.999Z</time></trkpt><trkpt lat="43.20177123420422" lon="11.48406082929907"><ele>237.0</ele><time>2026-05-02T15:07:47.999Z</time></trkpt><trkpt lat="43.20177622572326" lon="11.484183638353635"><ele>240.2</ele><time>2026-05-02T15:07:48.999Z</time></trkpt><trkpt lat="43.20181381438034" lon="11.484287444977689"><ele>243.39999999999998</ele><time>2026-05-02T15:07:49.999Z</time></trkpt><trkpt lat="43.201878012839394" lon="11.484376977961062"><ele>246.60000000000002</ele><time>2026-05-02T15:07:50.999Z</time></trkpt><trkpt lat="43.20191890602184" lon="11.48450277224237"><ele>249.8</ele><time>2026-05-02T15:07:51.999Z</time></trkpt><trkpt lat="43.201971643702976" lon="11.484613829647673"><ele>253.0</ele><time>2026-05-02T15:07:52.999Z</time></trkpt><trkpt lat="43.202015138906965" lon="11.484721017419396"><ele>254.8</ele><time>2026-05-02T15:07:53.999Z</time></trkpt><trkpt lat="43.20206851317786" lon="11.484843798064976"><ele>256.6</ele><time>2026-05-02T15:07:54.999Z</time></trkpt><trkpt lat="43.20208416507944" lon="11.484981377774595"><ele>258.4</ele><time>2026-05-02T15:07:55.999Z</time></trkpt><trkpt lat="43.20212593791232" lon="11.485116933647797"><ele>260.2</ele><time>2026-05-02T15:07:56.999Z</time></trkpt><trkpt lat="43.20215153121473" lon="11.485246005364592"><ele>262.0</ele><time>2026-05-02T15:07:57.999Z</time></trkpt><trkpt lat="43.20217773704976" lon="11.485367292525018"><ele>260.8</ele><time>2026-05-02T15:07:58.999Z</time></trkpt><trkpt lat="43.20219523918428" lon="11.485483692649192"><ele>259.6</ele><time>2026-05-02T15:07:59.999Z</time></trkpt><trkpt lat="43.202231032917126" lon="11.485602159633103"><ele>258.40000000000003</ele><time>2026-05-02T15:08:00.999Z</time></trkpt><trkpt lat="43.20225634662756" lon="11.4857412157955"><ele>257.2</ele><time>2026-05-02T15:08:01.999Z</time></trkpt><trkpt lat="43.202294869016285" lon="11.485874744321084"><ele>256.0</ele><time>2026-05-02T15:08:02.999Z</time></trkpt><trkpt lat="43.202339413239216" lon="11.486002776285233"><ele>256.0</ele><time>2026-05-02T15:08:03.999Z</time></trkpt><trkpt lat="43.2023895413688" lon="11.486121978514785"><ele>256.0</ele><time>2026-05-02T15:08:04.999Z</time></trkpt><trkpt lat="43.202451861143764" lon="11.486227661197251"><ele>256.0</ele><time>2026-05-02T15:08:05.999Z</time></trkpt><trkpt lat="43.202517546948975" lon="11.486332255536102"><ele>256.0</ele><time>2026-05-02T15:08:06.999Z</time></trkpt><trkpt lat="43.20258441744044" lon="11.486438516102927"><ele>256.0</ele><time>2026-05-02T15:08:07.999Z</time></trkpt><trkpt lat="43.20266778720717" lon="11.486534397708663"><ele>254.4</ele><time>2026-05-02T15:08:08.999Z</time></trkpt><trkpt lat="43.20274556977246" lon="11.486623865354774"><ele>252.8</ele><time>2026-05-02T15:08:09.999Z</time></trkpt><trkpt lat="43.202824766458676" lon="11.486715971727298"><ele>251.20000000000002</ele><time>2026-05-02T15:08:10.999Z</time></trkpt><trkpt lat="43.202896770102946" lon="11.486805148212293"><ele>249.60000000000002</ele><time>2026-05-02T15:08:11.999Z</time></trkpt><trkpt lat="43.20297481984962" lon="11.486906053676277"><ele>248.0</ele><time>2026-05-02T15:08:12.999Z</time></trkpt><trkpt lat="43.20305225403382" lon="11.487002290685357"><ele>248.2</ele><time>2026-05-02T15:08:13.999Z</time></trkpt><trkpt lat="43.203128591725424" lon="11.487100309222436"><ele>248.4</ele><time>2026-05-02T15:08:14.999Z</time></trkpt><trkpt lat="43.2032021271079" lon="11.487197528530553"><ele>248.59999999999997</ele><time>2026-05-02T15:08:15.999Z</time></trkpt><trkpt lat="43.20327725987284" lon="11.487293061624014"><ele>248.79999999999998</ele><time>2026-05-02T15:08:16.999Z</time></trkpt><trkpt lat="43.20335364108825" lon="11.487390871821056"><ele>249.0</ele><time>2026-05-02T15:08:17.999Z</time></trkpt><trkpt lat="43.203429317178184" lon="11.487489125478195"><ele>249.0</ele><time>2026-05-02T15:08:18.999Z</time></trkpt><trkpt lat="43.203504374228814" lon="11.4875782793372"><ele>248.99999999999997</ele><time>2026-05-02T15:08:19.999Z</time></trkpt><trkpt lat="43.20358503457985" lon="11.487675317577953"><ele>248.99999999999997</ele><time>2026-05-02T15:08:20.999Z</time></trkpt><trkpt lat="43.20365858571696" lon="11.487767930221281"><ele>249.0</ele><time>2026-05-02T15:08:21.999Z</time></trkpt><trkpt lat="43.20372005864059" lon="11.48787620109186"><ele>249.0</ele><time>2026-05-02T15:08:22.999Z</time></trkpt><trkpt lat="43.20377472472573" lon="11.4879968263556"><ele>246.39999999999998</ele><time>2026-05-02T15:08:23.999Z</time></trkpt><trkpt lat="43.20383891357391" lon="11.488119464359508"><ele>243.79999999999998</ele><time>2026-05-02T15:08:24.999Z</time></trkpt><trkpt lat="43.20390359154091" lon="11.48823746587492"><ele>241.20000000000002</ele><time>2026-05-02T15:08:25.999Z</time></trkpt><trkpt lat="43.20395973648926" lon="11.488354575313771"><ele>238.60000000000002</ele><time>2026-05-02T15:08:26.999Z</time></trkpt><trkpt lat="43.20402591095485" lon="11.488466035883391"><ele>236.0</ele><time>2026-05-02T15:08:28Z</time></trkpt><trkpt lat="43.204093979195044" lon="11.488574626461187"><ele>238.4</ele><time>2026-05-02T15:08:29Z</time></trkpt><trkpt lat="43.20416523901096" lon="11.488688343768276"><ele>240.8</ele><time>2026-05-02T15:08:30Z</time></trkpt><trkpt lat="43.20424060026269" lon="11.48879792927468"><ele>243.20000000000002</ele><time>2026-05-02T15:08:31Z</time></trkpt><trkpt lat="43.20431954174641" lon="11.488902444004951"><ele>245.60000000000002</ele><time>2026-05-02T15:08:32Z</time></trkpt><trkpt lat="43.204397799627564" lon="11.489009264153191"><ele>248.0</ele><time>2026-05-02T15:08:33Z</time></trkpt><trkpt lat="43.204468606310485" lon="11.48912365217487"><ele>248.0</ele><time>2026-05-02T15:08:34Z</time></trkpt><trkpt lat="43.20450981586953" lon="11.489262509003705"><ele>248.0</ele><time>2026-05-02T15:08:35Z</time></trkpt><trkpt lat="43.204562846385954" lon="11.489413214250126"><ele>248.0</ele><time>2026-05-02T15:08:36Z</time></trkpt><trkpt lat="43.2046254197063" lon="11.489556252771537"><ele>248.0</ele><time>2026-05-02T15:08:37Z</time></trkpt><trkpt lat="43.204665819289936" lon="11.489705665783342"><ele>251.0</ele><time>2026-05-02T15:08:38Z</time></trkpt><trkpt lat="43.204708509888" lon="11.489848560826372"><ele>254.0</ele><time>2026-05-02T15:08:39Z</time></trkpt><trkpt lat="43.204745996481485" lon="11.48999699329807"><ele>257.0</ele><time>2026-05-02T15:08:40Z</time></trkpt><trkpt lat="43.20479374621912" lon="11.490133808943973"><ele>260.0</ele><time>2026-05-02T15:08:41Z</time></trkpt><trkpt lat="43.204850126131966" lon="11.490270430413965"><ele>260.0</ele><time>2026-05-02T15:08:42Z</time></trkpt><trkpt lat="43.20492125484589" lon="11.490397458380704"><ele>260.0</ele><time>2026-05-02T15:08:43Z</time></trkpt><trkpt lat="43.20500887278643" lon="11.490516682688781"><ele>260.0</ele><time>2026-05-02T15:08:44Z</time></trkpt><trkpt lat="43.205108723784015" lon="11.49063321212284"><ele>260.0</ele><time>2026-05-02T15:08:45Z</time></trkpt><trkpt lat="43.20520520850095" lon="11.490747818134986"><ele>259.6</ele><time>2026-05-02T15:08:46Z</time></trkpt><trkpt lat="43.20530067545468" lon="11.490835298121892"><ele>259.2</ele><time>2026-05-02T15:08:47Z</time></trkpt><trkpt lat="43.20540885682044" lon="11.490875699769974"><ele>258.8</ele><time>2026-05-02T15:08:48Z</time></trkpt><trkpt lat="43.20551667308834" lon="11.490897772634542"><ele>258.4</ele><time>2026-05-02T15:08:49Z</time></trkpt><trkpt lat="43.20562844220085" lon="11.490913057068274"><ele>258.0</ele><time>2026-05-02T15:08:50Z</time></trkpt><trkpt lat="43.20573856416369" lon="11.490913130199962"><ele>258.0</ele><time>2026-05-02T15:08:51Z</time></trkpt><trkpt lat="43.2058551939951" lon="11.49090559343237"><ele>258.0</ele><time>2026-05-02T15:08:52Z</time></trkpt><trkpt lat="43.2059738362922" lon="11.490881720766746"><ele>258.0</ele><time>2026-05-02T15:08:53Z</time></trkpt><trkpt lat="43.20608845039337" lon="11.490884240899803"><ele>258.0</ele><time>2026-05-02T15:08:54Z</time></trkpt><trkpt lat="43.206187656110394" lon="11.490899891829827"><ele>258.0</ele><time>2026-05-02T15:08:55Z</time></trkpt><trkpt lat="43.2062756061212" lon="11.49091561354718"><ele>258.0</ele><time>2026-05-02T15:08:56Z</time></trkpt><trkpt lat="43.20635856961555" lon="11.490946571966154"><ele>258.0</ele><time>2026-05-02T15:08:57Z</time></trkpt><trkpt lat="43.206432002911974" lon="11.490988462234217"><ele>258.0</ele><time>2026-05-02T15:08:58Z</time></trkpt><trkpt lat="43.206503255843465" lon="11.491037373228535"><ele>258.0</ele><time>2026-05-02T15:08:59Z</time></trkpt><trkpt lat="43.20657218129788" lon="11.491097210416426"><ele>258.0</ele><time>2026-05-02T15:09:00Z</time></trkpt><trkpt lat="43.206630503748634" lon="11.491178126326547"><ele>257.0</ele><time>2026-05-02T15:09:01Z</time></trkpt><trkpt lat="43.2066781361506" lon="11.491280336970783"><ele>256.0</ele><time>2026-05-02T15:09:02Z</time></trkpt><trkpt lat="43.206728336029656" lon="11.491391440323904"><ele>255.0</ele><time>2026-05-02T15:09:03Z</time></trkpt><trkpt lat="43.20678009235697" lon="11.491509104581132"><ele>254.0</ele><time>2026-05-02T15:09:04Z</time></trkpt><trkpt lat="43.20683094634729" lon="11.49162103650362"><ele>253.0</ele><time>2026-05-02T15:09:05Z</time></trkpt><trkpt lat="43.206884570336506" lon="11.49173194116274"><ele>253.0</ele><time>2026-05-02T15:09:06Z</time></trkpt><trkpt lat="43.20695450601414" lon="11.491831565511092"><ele>253.0</ele><time>2026-05-02T15:09:07Z</time></trkpt><trkpt lat="43.207014446536945" lon="11.491938745882608"><ele>253.0</ele><time>2026-05-02T15:09:08Z</time></trkpt><trkpt lat="43.207086680803485" lon="11.492042678117892"><ele>253.0</ele><time>2026-05-02T15:09:09Z</time></trkpt><trkpt lat="43.2071782649807" lon="11.492144586057686"><ele>253.0</ele><time>2026-05-02T15:09:10Z</time></trkpt><trkpt lat="43.20728595719706" lon="11.492249532722585"><ele>251.33333333333331</ele><time>2026-05-02T15:09:11Z</time></trkpt><trkpt lat="43.20739961807745" lon="11.492385962767933"><ele>249.66666666666669</ele><time>2026-05-02T15:09:12Z</time></trkpt><trkpt lat="43.20752718516495" lon="11.492515966398589"><ele>248.0</ele><time>2026-05-02T15:09:13Z</time></trkpt><trkpt lat="43.207654456553" lon="11.492645970969848"><ele>248.0</ele><time>2026-05-02T15:09:14Z</time></trkpt><trkpt lat="43.20778760370948" lon="11.492755767696742"><ele>248.0</ele><time>2026-05-02T15:09:15Z</time></trkpt><trkpt lat="43.207899275793686" lon="11.492882014986819"><ele>248.0</ele><time>2026-05-02T15:09:16Z</time></trkpt><trkpt lat="43.20801647589718" lon="11.492995205397703"><ele>248.0</ele><time>2026-05-02T15:09:16.999Z</time></trkpt><trkpt lat="43.20813709747745" lon="11.493119070191907"><ele>248.5</ele><time>2026-05-02T15:09:17.999Z</time></trkpt><trkpt lat="43.20826231272008" lon="11.49323872401816"><ele>249.0</ele><time>2026-05-02T15:09:18.999Z</time></trkpt><trkpt lat="43.208373915685975" lon="11.493365532725045"><ele>249.5</ele><time>2026-05-02T15:09:19.999Z</time></trkpt><trkpt lat="43.208480069783974" lon="11.49345889531287"><ele>250.0</ele><time>2026-05-02T15:09:20.999Z</time></trkpt><trkpt lat="43.20858940616318" lon="11.49350784345059"><ele>250.0</ele><time>2026-05-02T15:09:21.999Z</time></trkpt><trkpt lat="43.20868038825733" lon="11.493579011703822"><ele>250.0</ele><time>2026-05-02T15:09:22.999Z</time></trkpt><trkpt lat="43.20874890843129" lon="11.493691377903904"><ele>250.0</ele><time>2026-05-02T15:09:23.999Z</time></trkpt><trkpt lat="43.20881972076435" lon="11.493796849480727"><ele>250.0</ele><time>2026-05-02T15:09:24.999Z</time></trkpt><trkpt lat="43.20888692339115" lon="11.493925430797749"><ele>250.0</ele><time>2026-05-02T15:09:25.999Z</time></trkpt><trkpt lat="43.20894608880295" lon="11.49407248547028"><ele>252.25</ele><time>2026-05-02T15:09:26.999Z</time></trkpt><trkpt lat="43.20900326610413" lon="11.494234867966297"><ele>254.5</ele><time>2026-05-02T15:09:27.999Z</time></trkpt><trkpt lat="43.20905055030475" lon="11.49439666765001"><ele>256.75</ele><time>2026-05-02T15:09:28.999Z</time></trkpt><trkpt lat="43.20909431474394" lon="11.494571280551728"><ele>259.0</ele><time>2026-05-02T15:09:29.999Z</time></trkpt><trkpt lat="43.20913001579136" lon="11.494741984076716"><ele>259.5</ele><time>2026-05-02T15:09:30.999Z</time></trkpt><trkpt lat="43.20916239932437" lon="11.494907342646927"><ele>260.0</ele><time>2026-05-02T15:09:31.999Z</time></trkpt><trkpt lat="43.2091896285256" lon="11.4950712834633"><ele>260.5</ele><time>2026-05-02T15:09:32.999Z</time></trkpt><trkpt lat="43.20920472821389" lon="11.49522363702693"><ele>261.0</ele><time>2026-05-02T15:09:33.999Z</time></trkpt><trkpt lat="43.209227230572495" lon="11.495360406628922"><ele>261.40000000000003</ele><time>2026-05-02T15:09:34.999Z</time></trkpt><trkpt lat="43.20927453495622" lon="11.495484001071116"><ele>261.8</ele><time>2026-05-02T15:09:35.999Z</time></trkpt><trkpt lat="43.209319325176054" lon="11.495604160868142"><ele>262.20000000000005</ele><time>2026-05-02T15:09:36.999Z</time></trkpt><trkpt lat="43.20936570386292" lon="11.495752743087982"><ele>262.6</ele><time>2026-05-02T15:09:37.999Z</time></trkpt><trkpt lat="43.20941359056467" lon="11.495895659404779"><ele>263.0</ele><time>2026-05-02T15:09:38.999Z</time></trkpt><trkpt lat="43.20945803123761" lon="11.49603694783581"><ele>263.0</ele><time>2026-05-02T15:09:39.999Z</time></trkpt><trkpt lat="43.20950395739709" lon="11.496178637912237"><ele>263.0</ele><time>2026-05-02T15:09:40.999Z</time></trkpt><trkpt lat="43.20955122237017" lon="11.49631033992653"><ele>263.0</ele><time>2026-05-02T15:09:41.999Z</time></trkpt><trkpt lat="43.20960920442177" lon="11.496431608649292"><ele>263.0</ele><time>2026-05-02T15:09:42.999Z</time></trkpt><trkpt lat="43.209679755317374" lon="11.496529908498353"><ele>263.0</ele><time>2026-05-02T15:09:43.999Z</time></trkpt><trkpt lat="43.209750457355135" lon="11.496641904777666"><ele>263.4</ele><time>2026-05-02T15:09:44.999Z</time></trkpt><trkpt lat="43.209836632183325" lon="11.496747511828813"><ele>263.8</ele><time>2026-05-02T15:09:45.999Z</time></trkpt><trkpt lat="43.20993182659705" lon="11.496826628561005"><ele>264.2</ele><time>2026-05-02T15:09:46.999Z</time></trkpt><trkpt lat="43.21002735799207" lon="11.496894021222396"><ele>264.6</ele><time>2026-05-02T15:09:47.999Z</time></trkpt><trkpt lat="43.21011765288929" lon="11.49696789000789"><ele>265.0</ele><time>2026-05-02T15:09:48.999Z</time></trkpt><trkpt lat="43.21020704795707" lon="11.497027535282328"><ele>264.8</ele><time>2026-05-02T15:09:49.999Z</time></trkpt><trkpt lat="43.2103027281063" lon="11.497099760734777"><ele>264.6</ele><time>2026-05-02T15:09:50.999Z</time></trkpt><trkpt lat="43.210400697768804" lon="11.49717726170409"><ele>264.4</ele><time>2026-05-02T15:09:51.999Z</time></trkpt><trkpt lat="43.210498747397494" lon="11.497256649430915"><ele>264.2</ele><time>2026-05-02T15:09:52.999Z</time></trkpt><trkpt lat="43.21059337279288" lon="11.497332764207073"><ele>264.0</ele><time>2026-05-02T15:09:53.999Z</time></trkpt><trkpt lat="43.210671984719646" lon="11.497423416599984"><ele>264.0</ele><time>2026-05-02T15:09:54.999Z</time></trkpt><trkpt lat="43.21074509564049" lon="11.49751279432521"><ele>264.0</ele><time>2026-05-02T15:09:55.999Z</time></trkpt><trkpt lat="43.210794321588985" lon="11.497614834372193"><ele>264.0</ele><time>2026-05-02T15:09:56.999Z</time></trkpt><trkpt lat="43.21082547781816" lon="11.497728092594583"><ele>264.0</ele><time>2026-05-02T15:09:57.999Z</time></trkpt><trkpt lat="43.210849710228196" lon="11.497856872168823"><ele>264.0</ele><time>2026-05-02T15:09:58.999Z</time></trkpt><trkpt lat="43.21087334479295" lon="11.497993160611749"><ele>263.0</ele><time>2026-05-02T15:09:59.999Z</time></trkpt><trkpt lat="43.21089475347872" lon="11.498128265666438"><ele>262.0</ele><time>2026-05-02T15:10:00.999Z</time></trkpt><trkpt lat="43.21091408909287" lon="11.498250288149563"><ele>261.0</ele><time>2026-05-02T15:10:01.999Z</time></trkpt><trkpt lat="43.21094088131308" lon="11.4983709532021"><ele>260.0</ele><time>2026-05-02T15:10:02.999Z</time></trkpt><trkpt lat="43.210985715371855" lon="11.498476613982291"><ele>259.0</ele><time>2026-05-02T15:10:03.999Z</time></trkpt><trkpt lat="43.211060119462424" lon="11.498549357840346"><ele>259.0</ele><time>2026-05-02T15:10:04.999Z</time></trkpt><trkpt lat="43.21112591222835" lon="11.498615710044692"><ele>259.0</ele><time>2026-05-02T15:10:05.999Z</time></trkpt><trkpt lat="43.21120109415305" lon="11.498659488885382"><ele>259.0</ele><time>2026-05-02T15:10:06.999Z</time></trkpt><trkpt lat="43.211273023268866" lon="11.498686044123707"><ele>259.0</ele><time>2026-05-02T15:10:07.999Z</time></trkpt><trkpt lat="43.21134938453543" lon="11.498702157012659"><ele>259.0</ele><time>2026-05-02T15:10:08.999Z</time></trkpt><trkpt lat="43.211431597651924" lon="11.498704417225307"><ele>259.0</ele><time>2026-05-02T15:10:09.999Z</time></trkpt><trkpt lat="43.211524228184224" lon="11.498693519533223"><ele>257.5</ele><time>2026-05-02T15:10:10.999Z</time></trkpt><trkpt lat="43.21161335567285" lon="11.498668369029494"><ele>256.0</ele><time>2026-05-02T15:10:11.999Z</time></trkpt><trkpt lat="43.21169180928525" lon="11.498645752276802"><ele>254.5</ele><time>2026-05-02T15:10:12.999Z</time></trkpt><trkpt lat="43.21176458015273" lon="11.498622653912205"><ele>253.0</ele><time>2026-05-02T15:10:13.999Z</time></trkpt><trkpt lat="43.211833671462216" lon="11.498602391316656"><ele>251.49999999999997</ele><time>2026-05-02T15:10:14.999Z</time></trkpt><trkpt lat="43.21194704735063" lon="11.498591884341613"><ele>250.0</ele><time>2026-05-02T15:10:16.999Z</time></trkpt><trkpt lat="43.21199745060214" lon="11.49865563049525"><ele>248.8</ele><time>2026-05-02T15:10:17.999Z</time></trkpt><trkpt lat="43.21208976936195" lon="11.498789844073022"><ele>247.6</ele><time>2026-05-02T15:10:19.999Z</time></trkpt><trkpt lat="43.21213638641636" lon="11.49887987186646"><ele>246.39999999999998</ele><time>2026-05-02T15:10:20.999Z</time></trkpt><trkpt lat="43.2121715728647" lon="11.498984041158977"><ele>245.2</ele><time>2026-05-02T15:10:21.999Z</time></trkpt><trkpt lat="43.212195695999945" lon="11.499106591020624"><ele>244.0</ele><time>2026-05-02T15:10:22.999Z</time></trkpt><trkpt lat="43.21220032061454" lon="11.499231671559047"><ele>243.99999999999997</ele><time>2026-05-02T15:10:23.999Z</time></trkpt><trkpt lat="43.21218854273492" lon="11.499332921941262"><ele>244.0</ele><time>2026-05-02T15:10:24.999Z</time></trkpt><trkpt lat="43.21213439477149" lon="11.499466950830026"><ele>244.0</ele><time>2026-05-02T15:10:26.999Z</time></trkpt><trkpt lat="43.21207707006109" lon="11.499533123471517"><ele>244.0</ele><time>2026-05-02T15:10:27.999Z</time></trkpt><trkpt lat="43.21200179657747" lon="11.499565493603258"><ele>243.99999999999997</ele><time>2026-05-02T15:10:28.999Z</time></trkpt><trkpt lat="43.21191233499663" lon="11.499608763993272"><ele>244.0</ele><time>2026-05-02T15:10:29.999Z</time></trkpt><trkpt lat="43.21183088899512" lon="11.499664735532694"><ele>241.39999999999998</ele><time>2026-05-02T15:10:30.999Z</time></trkpt><trkpt lat="43.21174986506724" lon="11.499694203369964"><ele>238.79999999999998</ele><time>2026-05-02T15:10:31.999Z</time></trkpt><trkpt lat="43.21166601987326" lon="11.499733706836803"><ele>236.20000000000002</ele><time>2026-05-02T15:10:33Z</time></trkpt><trkpt lat="43.21159307564504" lon="11.499825798177168"><ele>233.60000000000002</ele><time>2026-05-02T15:10:34Z</time></trkpt><trkpt lat="43.21155480474271" lon="11.499949819530944"><ele>231.0</ele><time>2026-05-02T15:10:35Z</time></trkpt><trkpt lat="43.21154364761014" lon="11.500069190063549"><ele>231.0</ele><time>2026-05-02T15:10:36Z</time></trkpt><trkpt lat="43.21149836162339" lon="11.500209891710337"><ele>231.00000000000003</ele><time>2026-05-02T15:10:37Z</time></trkpt><trkpt lat="43.21147337929939" lon="11.500358699089844"><ele>231.00000000000003</ele><time>2026-05-02T15:10:38Z</time></trkpt><trkpt lat="43.21144832058712" lon="11.500499493334102"><ele>231.0</ele><time>2026-05-02T15:10:39Z</time></trkpt><trkpt lat="43.21141820928356" lon="11.500630890851394"><ele>231.0</ele><time>2026-05-02T15:10:40Z</time></trkpt><trkpt lat="43.21138801927709" lon="11.500758628068903"><ele>229.0</ele><time>2026-05-02T15:10:41Z</time></trkpt><trkpt lat="43.21135855668935" lon="11.500855914928787"><ele>227.0</ele><time>2026-05-02T15:10:42Z</time></trkpt><trkpt lat="43.21130042113865" lon="11.50094009240983"><ele>225.0</ele><time>2026-05-02T15:10:43Z</time></trkpt><trkpt lat="43.21122964111237" lon="11.501012572134183"><ele>223.0</ele><time>2026-05-02T15:10:44Z</time></trkpt><trkpt lat="43.211146899880404" lon="11.501049341186011"><ele>221.0</ele><time>2026-05-02T15:10:45Z</time></trkpt><trkpt lat="43.211048789966966" lon="11.501100650188848"><ele>219.0</ele><time>2026-05-02T15:10:46Z</time></trkpt><trkpt lat="43.21092114119493" lon="11.501177474405502"><ele>219.25</ele><time>2026-05-02T15:10:47Z</time></trkpt><trkpt lat="43.21081966122475" lon="11.501264909055086"><ele>219.5</ele><time>2026-05-02T15:10:48Z</time></trkpt><trkpt lat="43.210727549552864" lon="11.501358881051583"><ele>219.75</ele><time>2026-05-02T15:10:49Z</time></trkpt><trkpt lat="43.21064803306459" lon="11.501465618267254"><ele>220.0</ele><time>2026-05-02T15:10:50Z</time></trkpt><trkpt lat="43.210583527248176" lon="11.501584644976932"><ele>220.0</ele><time>2026-05-02T15:10:51Z</time></trkpt><trkpt lat="43.210531308641265" lon="11.501716768562813"><ele>220.0</ele><time>2026-05-02T15:10:52Z</time></trkpt><trkpt lat="43.21048807207346" lon="11.501857792582884"><ele>220.0</ele><time>2026-05-02T15:10:53Z</time></trkpt><trkpt lat="43.21044591779355" lon="11.501993312788871"><ele>220.0</ele><time>2026-05-02T15:10:54Z</time></trkpt><trkpt lat="43.21040009555083" lon="11.502129761684332"><ele>220.0</ele><time>2026-05-02T15:10:55Z</time></trkpt><trkpt lat="43.21035925400416" lon="11.502243018430018"><ele>221.66666666666666</ele><time>2026-05-02T15:10:56Z</time></trkpt><trkpt lat="43.21031109451379" lon="11.502315738965624"><ele>223.33333333333331</ele><time>2026-05-02T15:10:57Z</time></trkpt><trkpt lat="43.21025269611786" lon="11.502383752370832"><ele>225.0</ele><time>2026-05-02T15:10:58Z</time></trkpt><trkpt lat="43.210188011593566" lon="11.50244795524103"><ele>226.66666666666669</ele><time>2026-05-02T15:10:59Z</time></trkpt><trkpt lat="43.21011930996947" lon="11.502515475088547"><ele>228.33333333333334</ele><time>2026-05-02T15:11:00Z</time></trkpt><trkpt lat="43.21002455248021" lon="11.502606896285927"><ele>230.0</ele><time>2026-05-02T15:11:01Z</time></trkpt><trkpt lat="43.20991492313993" lon="11.502713894032222"><ele>228.6</ele><time>2026-05-02T15:11:02Z</time></trkpt><trkpt lat="43.2098218168237" lon="11.502806058738896"><ele>227.2</ele><time>2026-05-02T15:11:03Z</time></trkpt><trkpt lat="43.20972635165457" lon="11.502903988330154"><ele>225.8</ele><time>2026-05-02T15:11:04Z</time></trkpt><trkpt lat="43.20964245090619" lon="11.502991912665141"><ele>224.4</ele><time>2026-05-02T15:11:05Z</time></trkpt><trkpt lat="43.20956226777486" lon="11.503079061458829"><ele>223.0</ele><time>2026-05-02T15:11:06Z</time></trkpt><trkpt lat="43.20948984925706" lon="11.503159213966113"><ele>222.2</ele><time>2026-05-02T15:11:07Z</time></trkpt><trkpt lat="43.20942055742613" lon="11.503236134619714"><ele>221.4</ele><time>2026-05-02T15:11:08Z</time></trkpt><trkpt lat="43.20934832351457" lon="11.503320739486345"><ele>220.59999999999997</ele><time>2026-05-02T15:11:09Z</time></trkpt><trkpt lat="43.20928079249992" lon="11.503414385968354"><ele>219.79999999999998</ele><time>2026-05-02T15:11:10Z</time></trkpt><trkpt lat="43.209213458129575" lon="11.503525741087298"><ele>219.0</ele><time>2026-05-02T15:11:11Z</time></trkpt><trkpt lat="43.20914840412601" lon="11.503641001637419"><ele>216.79999999999998</ele><time>2026-05-02T15:11:12Z</time></trkpt><trkpt lat="43.20909014691906" lon="11.50374694723161"><ele>214.59999999999997</ele><time>2026-05-02T15:11:13Z</time></trkpt><trkpt lat="43.20903447982843" lon="11.503848137568763"><ele>212.4</ele><time>2026-05-02T15:11:14Z</time></trkpt><trkpt lat="43.20897892031056" lon="11.503949132272208"><ele>210.2</ele><time>2026-05-02T15:11:15Z</time></trkpt><trkpt lat="43.208921661228935" lon="11.504053216477017"><ele>208.0</ele><time>2026-05-02T15:11:16Z</time></trkpt><trkpt lat="43.208860673223434" lon="11.504160519355013"><ele>207.99999999999997</ele><time>2026-05-02T15:11:16.999Z</time></trkpt><trkpt lat="43.20879813673727" lon="11.504265389685346"><ele>208.0</ele><time>2026-05-02T15:11:17.999Z</time></trkpt><trkpt lat="43.20873897185096" lon="11.504353092650252"><ele>208.0</ele><time>2026-05-02T15:11:18.999Z</time></trkpt><trkpt lat="43.20867938229226" lon="11.504426329863344"><ele>208.0</ele><time>2026-05-02T15:11:19.999Z</time></trkpt><trkpt lat="43.20861503733234" lon="11.504480415111061"><ele>207.99999999999997</ele><time>2026-05-02T15:11:20.999Z</time></trkpt><trkpt lat="43.208545205578766" lon="11.504516609261268"><ele>208.0</ele><time>2026-05-02T15:11:21.999Z</time></trkpt><trkpt lat="43.20846958414087" lon="11.504561105532497"><ele>207.99999999999997</ele><time>2026-05-02T15:11:22.999Z</time></trkpt><trkpt lat="43.208376712818406" lon="11.50457867747888"><ele>208.0</ele><time>2026-05-02T15:11:23.999Z</time></trkpt><trkpt lat="43.20828970028243" lon="11.504585811021277"><ele>208.0</ele><time>2026-05-02T15:11:24.999Z</time></trkpt><trkpt lat="43.20820035333846" lon="11.504594874954927"><ele>208.0</ele><time>2026-05-02T15:11:25.999Z</time></trkpt><trkpt lat="43.20811974937202" lon="11.504602383001258"><ele>207.99999999999997</ele><time>2026-05-02T15:11:26.999Z</time></trkpt><trkpt lat="43.20805214057339" lon="11.504600715409168"><ele>208.0</ele><time>2026-05-02T15:11:27.999Z</time></trkpt><trkpt lat="43.20798816459412" lon="11.504584700806596"><ele>205.33333333333331</ele><time>2026-05-02T15:11:28.999Z</time></trkpt><trkpt lat="43.20787545401464" lon="11.504529793463034"><ele>202.66666666666666</ele><time>2026-05-02T15:11:30.999Z</time></trkpt><trkpt lat="43.20778198791308" lon="11.504540582818487"><ele>200.0</ele><time>2026-05-02T15:11:32.999Z</time></trkpt><trkpt lat="43.20771784318997" lon="11.504631930702299"><ele>197.33333333333331</ele><time>2026-05-02T15:11:34.999Z</time></trkpt><trkpt lat="43.20774458308734" lon="11.504720187926798"><ele>194.66666666666666</ele><time>2026-05-02T15:11:35.999Z</time></trkpt><trkpt lat="43.20781195712969" lon="11.504752974323534"><ele>192.0</ele><time>2026-05-02T15:11:36.999Z</time></trkpt><trkpt lat="43.2078747673417" lon="11.504774042944433"><ele>192.0</ele><time>2026-05-02T15:11:37.999Z</time></trkpt><trkpt lat="43.20794200650423" lon="11.504832065757103"><ele>192.0</ele><time>2026-05-02T15:11:38.999Z</time></trkpt><trkpt lat="43.20802929145016" lon="11.504873878506672"><ele>192.0</ele><time>2026-05-02T15:11:39.999Z</time></trkpt><trkpt lat="43.20811678143082" lon="11.504917264035711"><ele>192.0</ele><time>2026-05-02T15:11:40.999Z</time></trkpt><trkpt lat="43.20820126857803" lon="11.504959160516632"><ele>192.0</ele><time>2026-05-02T15:11:41.999Z</time></trkpt><trkpt lat="43.208285084882405" lon="11.504978386970484"><ele>192.0</ele><time>2026-05-02T15:11:42.999Z</time></trkpt><trkpt lat="43.20836270705639" lon="11.505036811680693"><ele>192.0</ele><time>2026-05-02T15:11:43.999Z</time></trkpt><trkpt lat="43.208449045153465" lon="11.5050884552553"><ele>192.0</ele><time>2026-05-02T15:11:44.999Z</time></trkpt><trkpt lat="43.20852382483249" lon="11.505108549071128"><ele>192.0</ele><time>2026-05-02T15:11:45.999Z</time></trkpt><trkpt lat="43.2086425195187" lon="11.50512033445106"><ele>192.0</ele><time>2026-05-02T15:11:47.999Z</time></trkpt><trkpt lat="43.20874466939376" lon="11.50512852441277"><ele>192.0</ele><time>2026-05-02T15:11:49.999Z</time></trkpt><trkpt lat="43.20885469364931" lon="11.505144282484437"><ele>191.99999999999997</ele><time>2026-05-02T15:11:51.999Z</time></trkpt><trkpt lat="43.20892092875109" lon="11.505159492232544"><ele>192.0</ele><time>2026-05-02T15:11:52.999Z</time></trkpt><trkpt lat="43.20899238343319" lon="11.50516987599319"><ele>192.0</ele><time>2026-05-02T15:11:53.999Z</time></trkpt><trkpt lat="43.20906594629129" lon="11.505168355510678"><ele>192.0</ele><time>2026-05-02T15:11:54.999Z</time></trkpt><trkpt lat="43.20913486790727" lon="11.505139229860088"><ele>192.0</ele><time>2026-05-02T15:11:55.999Z</time></trkpt><trkpt lat="43.209200432466396" lon="11.50509833066986"><ele>191.99999999999997</ele><time>2026-05-02T15:11:56.999Z</time></trkpt><trkpt lat="43.20926621595309" lon="11.50504932407829"><ele>192.0</ele><time>2026-05-02T15:11:57.999Z</time></trkpt><trkpt lat="43.209328287779954" lon="11.504996479648614"><ele>190.83333333333334</ele><time>2026-05-02T15:11:58.999Z</time></trkpt><trkpt lat="43.20939553944789" lon="11.504948294950857"><ele>189.66666666666666</ele><time>2026-05-02T15:11:59.999Z</time></trkpt><trkpt lat="43.209467400036004" lon="11.504917587192184"><ele>188.5</ele><time>2026-05-02T15:12:00.999Z</time></trkpt><trkpt lat="43.209547001146035" lon="11.504929260210673"><ele>187.33333333333331</ele><time>2026-05-02T15:12:01.999Z</time></trkpt><trkpt lat="43.209627940291135" lon="11.50493241268506"><ele>186.16666666666666</ele><time>2026-05-02T15:12:02.999Z</time></trkpt><trkpt lat="43.20971037024174" lon="11.504974721316136"><ele>185.0</ele><time>2026-05-02T15:12:03.999Z</time></trkpt><trkpt lat="43.20979663725396" lon="11.50503582457373"><ele>183.4</ele><time>2026-05-02T15:12:04.999Z</time></trkpt><trkpt lat="43.20988090237459" lon="11.505106029757448"><ele>181.8</ele><time>2026-05-02T15:12:05.999Z</time></trkpt><trkpt lat="43.209961976670506" lon="11.505186502883163"><ele>180.2</ele><time>2026-05-02T15:12:06.999Z</time></trkpt><trkpt lat="43.210039348797814" lon="11.505272419048028"><ele>178.6</ele><time>2026-05-02T15:12:07.999Z</time></trkpt><trkpt lat="43.21012738232735" lon="11.505324095738244"><ele>177.0</ele><time>2026-05-02T15:12:08.999Z</time></trkpt><trkpt lat="43.21020886724891" lon="11.505385870510336"><ele>174.8</ele><time>2026-05-02T15:12:09.999Z</time></trkpt><trkpt lat="43.210304402422175" lon="11.505423968688575"><ele>172.6</ele><time>2026-05-02T15:12:10.999Z</time></trkpt><trkpt lat="43.21040173516659" lon="11.505445784111107"><ele>170.4</ele><time>2026-05-02T15:12:11.999Z</time></trkpt><trkpt lat="43.21049286073578" lon="11.505464017441858"><ele>168.20000000000002</ele><time>2026-05-02T15:12:12.999Z</time></trkpt><trkpt lat="43.210580221579114" lon="11.505474861448832"><ele>166.0</ele><time>2026-05-02T15:12:13.999Z</time></trkpt><trkpt lat="43.21066671798124" lon="11.505479334037208"><ele>165.60000000000002</ele><time>2026-05-02T15:12:14.999Z</time></trkpt><trkpt lat="43.210758696357466" lon="11.505467817571962"><ele>165.2</ele><time>2026-05-02T15:12:15.999Z</time></trkpt><trkpt lat="43.2108510183895" lon="11.505442773667706"><ele>164.8</ele><time>2026-05-02T15:12:16.999Z</time></trkpt><trkpt lat="43.210939489724915" lon="11.505402270230995"><ele>164.39999999999998</ele><time>2026-05-02T15:12:17.999Z</time></trkpt><trkpt lat="43.21103120141082" lon="11.50536853280939"><ele>164.0</ele><time>2026-05-02T15:12:18.999Z</time></trkpt><trkpt lat="43.21111118477269" lon="11.505345535374762"><ele>164.0</ele><time>2026-05-02T15:12:19.999Z</time></trkpt><trkpt lat="43.2111898393086" lon="11.505348057899694"><ele>164.0</ele><time>2026-05-02T15:12:20.999Z</time></trkpt><trkpt lat="43.21126890536564" lon="11.50540781804558"><ele>164.0</ele><time>2026-05-02T15:12:21.999Z</time></trkpt><trkpt lat="43.21132197814562" lon="11.505498209935919"><ele>164.0</ele><time>2026-05-02T15:12:22.999Z</time></trkpt><trkpt lat="43.211373061740154" lon="11.505600628940503"><ele>164.0</ele><time>2026-05-02T15:12:23.999Z</time></trkpt><trkpt lat="43.21140795281444" lon="11.505729670144962"><ele>164.0</ele><time>2026-05-02T15:12:24.999Z</time></trkpt><trkpt lat="43.211456684760726" lon="11.505901684889384"><ele>164.33333333333331</ele><time>2026-05-02T15:12:25.999Z</time></trkpt><trkpt lat="43.21151287049046" lon="11.506098379130318"><ele>164.66666666666666</ele><time>2026-05-02T15:12:26.999Z</time></trkpt><trkpt lat="43.211575159569215" lon="11.506316439962074"><ele>165.0</ele><time>2026-05-02T15:12:27.999Z</time></trkpt><trkpt lat="43.2116459550425" lon="11.506564279842319"><ele>165.0</ele><time>2026-05-02T15:12:28.999Z</time></trkpt><trkpt lat="43.211717134347424" lon="11.50681346328797"><ele>165.0</ele><time>2026-05-02T15:12:29.999Z</time></trkpt><trkpt lat="43.21178582803578" lon="11.507053945429485"><ele>165.0</ele><time>2026-05-02T15:12:30.999Z</time></trkpt><trkpt lat="43.211848131495394" lon="11.507270318215651"><ele>164.8</ele><time>2026-05-02T15:12:31.999Z</time></trkpt><trkpt lat="43.21190238565092" lon="11.507441294677358"><ele>164.6</ele><time>2026-05-02T15:12:32.999Z</time></trkpt><trkpt lat="43.211956449170124" lon="11.50757498865908"><ele>164.39999999999998</ele><time>2026-05-02T15:12:33.999Z</time></trkpt><trkpt lat="43.21201538735365" lon="11.50768371667457"><ele>164.2</ele><time>2026-05-02T15:12:34.999Z</time></trkpt><trkpt lat="43.212109023862844" lon="11.507743865660167"><ele>164.0</ele><time>2026-05-02T15:12:35.999Z</time></trkpt><trkpt lat="43.212203052346766" lon="11.507807640511052"><ele>164.0</ele><time>2026-05-02T15:12:36.999Z</time></trkpt><trkpt lat="43.21231952171334" lon="11.507855631021817"><ele>164.0</ele><time>2026-05-02T15:12:37.999Z</time></trkpt><trkpt lat="43.21242561145356" lon="11.50794445608834"><ele>164.0</ele><time>2026-05-02T15:12:39Z</time></trkpt><trkpt lat="43.21250958516763" lon="11.508023142511798"><ele>164.0</ele><time>2026-05-02T15:12:40Z</time></trkpt><trkpt lat="43.21257836270956" lon="11.508130756449084"><ele>163.5</ele><time>2026-05-02T15:12:41Z</time></trkpt><trkpt lat="43.21264071956639" lon="11.508269620166258"><ele>163.0</ele><time>2026-05-02T15:12:42Z</time></trkpt><trkpt lat="43.21271751374851" lon="11.508441747824483"><ele>162.5</ele><time>2026-05-02T15:12:43Z</time></trkpt><trkpt lat="43.21279433927419" lon="11.508614088881911"><ele>162.0</ele><time>2026-05-02T15:12:44Z</time></trkpt><trkpt lat="43.21288157988932" lon="11.508800024365744"><ele>161.66666666666666</ele><time>2026-05-02T15:12:45Z</time></trkpt><trkpt lat="43.212976133421826" lon="11.508994784593249"><ele>161.33333333333331</ele><time>2026-05-02T15:12:46Z</time></trkpt><trkpt lat="43.21307095741103" lon="11.50918743429432"><ele>161.0</ele><time>2026-05-02T15:12:47Z</time></trkpt><trkpt lat="43.21315880465416" lon="11.509361999198697"><ele>161.5</ele><time>2026-05-02T15:12:48Z</time></trkpt><trkpt lat="43.21323950467574" lon="11.509511689998861"><ele>162.0</ele><time>2026-05-02T15:12:49Z</time></trkpt><trkpt lat="43.21333876945048" lon="11.50962776269374"><ele>162.5</ele><time>2026-05-02T15:12:50Z</time></trkpt><trkpt lat="43.213434381615734" lon="11.509770043800645"><ele>163.0</ele><time>2026-05-02T15:12:51Z</time></trkpt><trkpt lat="43.213554927252375" lon="11.509881719078166"><ele>163.0</ele><time>2026-05-02T15:12:52Z</time></trkpt><trkpt lat="43.21366628929574" lon="11.51000416980477"><ele>163.0</ele><time>2026-05-02T15:12:53Z</time></trkpt><trkpt lat="43.213749716788975" lon="11.510146945998754"><ele>163.0</ele><time>2026-05-02T15:12:54Z</time></trkpt><trkpt lat="43.21383099245856" lon="11.510233137061519"><ele>163.0</ele><time>2026-05-02T15:12:55Z</time></trkpt><trkpt lat="43.21389067405341" lon="11.510363404580144"><ele>163.2</ele><time>2026-05-02T15:12:56Z</time></trkpt><trkpt lat="43.21394407406134" lon="11.510461957699434"><ele>163.4</ele><time>2026-05-02T15:12:57Z</time></trkpt><trkpt lat="43.21400317835479" lon="11.510540096692317"><ele>163.6</ele><time>2026-05-02T15:12:58Z</time></trkpt><trkpt lat="43.214040432027744" lon="11.510622270502745"><ele>163.79999999999998</ele><time>2026-05-02T15:12:59Z</time></trkpt><trkpt lat="43.214096119950106" lon="11.510767343536113"><ele>164.0</ele><time>2026-05-02T15:13:01Z</time></trkpt><trkpt lat="43.21416263565723" lon="11.510896090866954"><ele>164.0</ele><time>2026-05-02T15:13:03Z</time></trkpt><trkpt lat="43.21422778683191" lon="11.511048630937946"><ele>164.0</ele><time>2026-05-02T15:13:05Z</time></trkpt><trkpt lat="43.21424484293756" lon="11.511139750613372"><ele>164.0</ele><time>2026-05-02T15:13:06Z</time></trkpt><trkpt lat="43.21424851319658" lon="11.511236780824238"><ele>164.0</ele><time>2026-05-02T15:13:07Z</time></trkpt><trkpt lat="43.214242233568974" lon="11.511338426780272"><ele>164.0</ele><time>2026-05-02T15:13:08Z</time></trkpt><trkpt lat="43.21422329885739" lon="11.511439655948838"><ele>164.0</ele><time>2026-05-02T15:13:09Z</time></trkpt><trkpt lat="43.21419642106898" lon="11.511575411332572"><ele>164.39999999999998</ele><time>2026-05-02T15:13:10Z</time></trkpt><trkpt lat="43.214178325581706" lon="11.511710599605102"><ele>164.8</ele><time>2026-05-02T15:13:11Z</time></trkpt><trkpt lat="43.214176448275126" lon="11.511851353805374"><ele>165.2</ele><time>2026-05-02T15:13:12Z</time></trkpt><trkpt lat="43.21422119802584" lon="11.511971614064516"><ele>165.60000000000002</ele><time>2026-05-02T15:13:13Z</time></trkpt><trkpt lat="43.21423829399466" lon="11.512067114234664"><ele>166.0</ele><time>2026-05-02T15:13:14Z</time></trkpt><trkpt lat="43.21428973936614" lon="11.512179511965607"><ele>166.4</ele><time>2026-05-02T15:13:15Z</time></trkpt><trkpt lat="43.214365857468906" lon="11.512271650390685"><ele>166.8</ele><time>2026-05-02T15:13:16Z</time></trkpt><trkpt lat="43.21443420014701" lon="11.51236077723644"><ele>167.20000000000002</ele><time>2026-05-02T15:13:17Z</time></trkpt><trkpt lat="43.214505829929244" lon="11.512448133925663"><ele>167.60000000000002</ele><time>2026-05-02T15:13:18Z</time></trkpt><trkpt lat="43.21457451721788" lon="11.512547224711929"><ele>168.0</ele><time>2026-05-02T15:13:18.999Z</time></trkpt><trkpt lat="43.21471015702576" lon="11.512638116813623"><ele>168.0</ele><time>2026-05-02T15:13:19.999Z</time></trkpt><trkpt lat="43.214805820333645" lon="11.512731347792492"><ele>168.0</ele><time>2026-05-02T15:13:20.999Z</time></trkpt><trkpt lat="43.21489051923142" lon="11.512812273627306"><ele>168.0</ele><time>2026-05-02T15:13:21.999Z</time></trkpt><trkpt lat="43.21495323502552" lon="11.51287000878418"><ele>168.0</ele><time>2026-05-02T15:13:22.999Z</time></trkpt><trkpt lat="43.21501387414289" lon="11.512925832126697"><ele>168.0</ele><time>2026-05-02T15:13:23.999Z</time></trkpt><trkpt lat="43.215100077344545" lon="11.513012700461417"><ele>170.4</ele><time>2026-05-02T15:13:25.999Z</time></trkpt><trkpt lat="43.21516883619348" lon="11.51309179047752"><ele>172.8</ele><time>2026-05-02T15:13:27.999Z</time></trkpt><trkpt lat="43.21524289450982" lon="11.513184509225463"><ele>175.2</ele><time>2026-05-02T15:13:29.999Z</time></trkpt><trkpt lat="43.215316636652794" lon="11.51329282161455"><ele>177.6</ele><time>2026-05-02T15:13:31.999Z</time></trkpt><trkpt lat="43.21538917221153" lon="11.513433679995922"><ele>180.0</ele><time>2026-05-02T15:13:33.999Z</time></trkpt><trkpt lat="43.21542227639728" lon="11.51351908717975"><ele>180.0</ele><time>2026-05-02T15:13:34.999Z</time></trkpt><trkpt lat="43.21544435178779" lon="11.513606944370197"><ele>180.0</ele><time>2026-05-02T15:13:35.999Z</time></trkpt><trkpt lat="43.21546711887855" lon="11.513697106076988"><ele>180.0</ele><time>2026-05-02T15:13:36.999Z</time></trkpt><trkpt lat="43.21549032930597" lon="11.51378902318352"><ele>180.0</ele><time>2026-05-02T15:13:37.999Z</time></trkpt><trkpt lat="43.21551574233201" lon="11.513889662941521"><ele>180.0</ele><time>2026-05-02T15:13:38.999Z</time></trkpt><trkpt lat="43.21555166127609" lon="11.513983225238425"><ele>180.0</ele><time>2026-05-02T15:13:39.999Z</time></trkpt><trkpt lat="43.21556638893818" lon="11.514095620669433"><ele>180.0</ele><time>2026-05-02T15:13:40.999Z</time></trkpt><trkpt lat="43.21560113409875" lon="11.514225348453946"><ele>180.5</ele><time>2026-05-02T15:13:41.999Z</time></trkpt><trkpt lat="43.21563964689711" lon="11.514365580672834"><ele>181.0</ele><time>2026-05-02T15:13:42.999Z</time></trkpt><trkpt lat="43.21568762557467" lon="11.514510853128423"><ele>181.5</ele><time>2026-05-02T15:13:43.999Z</time></trkpt><trkpt lat="43.215751218299545" lon="11.514692736798054"><ele>182.0</ele><time>2026-05-02T15:13:44.999Z</time></trkpt><trkpt lat="43.21582432063938" lon="11.514913222281665"><ele>179.33333333333331</ele><time>2026-05-02T15:13:45.999Z</time></trkpt><trkpt lat="43.215911473762574" lon="11.515153708073486"><ele>176.66666666666666</ele><time>2026-05-02T15:13:46.999Z</time></trkpt><trkpt lat="43.21598642174267" lon="11.515371001821896"><ele>174.0</ele><time>2026-05-02T15:13:47.999Z</time></trkpt><trkpt lat="43.21606361315998" lon="11.51558156635034"><ele>172.0</ele><time>2026-05-02T15:13:48.999Z</time></trkpt><trkpt lat="43.21615289041591" lon="11.515784094501333"><ele>170.0</ele><time>2026-05-02T15:13:49.999Z</time></trkpt><trkpt lat="43.21624885530562" lon="11.515979987317658"><ele>168.0</ele><time>2026-05-02T15:13:50.999Z</time></trkpt><trkpt lat="43.21634939800315" lon="11.516169761839965"><ele>168.33333333333334</ele><time>2026-05-02T15:13:51.999Z</time></trkpt><trkpt lat="43.216449522549205" lon="11.516358210726837"><ele>168.66666666666669</ele><time>2026-05-02T15:13:52.999Z</time></trkpt><trkpt lat="43.216549726295035" lon="11.516543736012103"><ele>169.0</ele><time>2026-05-02T15:13:53.999Z</time></trkpt><trkpt lat="43.21664147442752" lon="11.51672221288127"><ele>169.0</ele><time>2026-05-02T15:13:54.999Z</time></trkpt><trkpt lat="43.21673054481893" lon="11.51690611893398"><ele>169.0</ele><time>2026-05-02T15:13:55.999Z</time></trkpt><trkpt lat="43.21681203353329" lon="11.517087140971155"><ele>169.0</ele><time>2026-05-02T15:13:56.999Z</time></trkpt><trkpt lat="43.21688927233924" lon="11.517264384220562"><ele>169.0</ele><time>2026-05-02T15:13:57.999Z</time></trkpt><trkpt lat="43.216958866196244" lon="11.51743817801732"><ele>169.0</ele><time>2026-05-02T15:13:58.999Z</time></trkpt><trkpt lat="43.21702365898062" lon="11.517612395134655"><ele>169.0</ele><time>2026-05-02T15:13:59.999Z</time></trkpt><trkpt lat="43.21708994860492" lon="11.517787089341674"><ele>169.0</ele><time>2026-05-02T15:14:00.999Z</time></trkpt><trkpt lat="43.21715534671869" lon="11.517955944277007"><ele>169.0</ele><time>2026-05-02T15:14:01.999Z</time></trkpt><trkpt lat="43.21722085810324" lon="11.51812150672229"><ele>169.0</ele><time>2026-05-02T15:14:02.999Z</time></trkpt><trkpt lat="43.21727804293637" lon="11.518274319493095"><ele>169.0</ele><time>2026-05-02T15:14:03.999Z</time></trkpt><trkpt lat="43.21733289349493" lon="11.518417214785233"><ele>169.0</ele><time>2026-05-02T15:14:04.999Z</time></trkpt><trkpt lat="43.21738683355183" lon="11.518560380623995"><ele>170.25</ele><time>2026-05-02T15:14:05.999Z</time></trkpt><trkpt lat="43.2174333643369" lon="11.518712858359745"><ele>171.5</ele><time>2026-05-02T15:14:06.999Z</time></trkpt><trkpt lat="43.21747021135221" lon="11.51888837384103"><ele>172.75</ele><time>2026-05-02T15:14:07.999Z</time></trkpt><trkpt lat="43.21749733923812" lon="11.519071483945375"><ele>174.0</ele><time>2026-05-02T15:14:08.999Z</time></trkpt><trkpt lat="43.21750686650068" lon="11.519254724460822"><ele>174.0</ele><time>2026-05-02T15:14:09.999Z</time></trkpt><trkpt lat="43.217493113837854" lon="11.519444310476143"><ele>174.0</ele><time>2026-05-02T15:14:10.999Z</time></trkpt><trkpt lat="43.21746452530493" lon="11.519638157247039"><ele>174.0</ele><time>2026-05-02T15:14:11.999Z</time></trkpt><trkpt lat="43.2174440292668" lon="11.519839620526621"><ele>174.0</ele><time>2026-05-02T15:14:12.999Z</time></trkpt><trkpt lat="43.21743464788419" lon="11.520062428887714"><ele>176.0</ele><time>2026-05-02T15:14:13.999Z</time></trkpt><trkpt lat="43.21742392744115" lon="11.520309533973403"><ele>178.0</ele><time>2026-05-02T15:14:14.999Z</time></trkpt><trkpt lat="43.21741216885256" lon="11.5205269966662"><ele>180.0</ele><time>2026-05-02T15:14:15.999Z</time></trkpt><trkpt lat="43.21741131595654" lon="11.520688970053094"><ele>179.8</ele><time>2026-05-02T15:14:16.999Z</time></trkpt><trkpt lat="43.21741653561222" lon="11.520807344465231"><ele>179.6</ele><time>2026-05-02T15:14:17.999Z</time></trkpt><trkpt lat="43.21742512234917" lon="11.520931025544341"><ele>179.39999999999998</ele><time>2026-05-02T15:14:18.999Z</time></trkpt><trkpt lat="43.217441212108646" lon="11.521066869324457"><ele>179.2</ele><time>2026-05-02T15:14:19.999Z</time></trkpt><trkpt lat="43.21752757762898" lon="11.521149755761835"><ele>179.0</ele><time>2026-05-02T15:14:20.999Z</time></trkpt><trkpt lat="43.2175843619462" lon="11.521264583801097"><ele>179.0</ele><time>2026-05-02T15:14:21.999Z</time></trkpt><trkpt lat="43.21765923528029" lon="11.521348450808572"><ele>179.0</ele><time>2026-05-02T15:14:22.999Z</time></trkpt><trkpt lat="43.21773188329085" lon="11.521420239529258"><ele>179.0</ele><time>2026-05-02T15:14:23.999Z</time></trkpt><trkpt lat="43.21783217827735" lon="11.521488140300443"><ele>179.0</ele><time>2026-05-02T15:14:24.999Z</time></trkpt><trkpt lat="43.21793670025734" lon="11.521529543272527"><ele>179.0</ele><time>2026-05-02T15:14:25.999Z</time></trkpt><trkpt lat="43.21803161138231" lon="11.521576438526813"><ele>179.0</ele><time>2026-05-02T15:14:26.999Z</time></trkpt><trkpt lat="43.21810980051924" lon="11.521642022206292"><ele>179.0</ele><time>2026-05-02T15:14:27.999Z</time></trkpt><trkpt lat="43.21816243472736" lon="11.52172613499511"><ele>179.0</ele><time>2026-05-02T15:14:28.999Z</time></trkpt><trkpt lat="43.21817960690452" lon="11.521824952769931"><ele>179.0</ele><time>2026-05-02T15:14:29.999Z</time></trkpt><trkpt lat="43.21818370402259" lon="11.521956800163979"><ele>179.0</ele><time>2026-05-02T15:14:30.999Z</time></trkpt><trkpt lat="43.2181930256918" lon="11.522076456540308"><ele>179.0</ele><time>2026-05-02T15:14:31.999Z</time></trkpt><trkpt lat="43.218206958977966" lon="11.522214362724524"><ele>179.2</ele><time>2026-05-02T15:14:32.999Z</time></trkpt><trkpt lat="43.218237851022295" lon="11.522345814633375"><ele>179.39999999999998</ele><time>2026-05-02T15:14:33.999Z</time></trkpt><trkpt lat="43.21827477853954" lon="11.522483434520321"><ele>179.6</ele><time>2026-05-02T15:14:34.999Z</time></trkpt><trkpt lat="43.21831659879181" lon="11.522612891574882"><ele>179.8</ele><time>2026-05-02T15:14:35.999Z</time></trkpt><trkpt lat="43.21835668566248" lon="11.522741664500707"><ele>180.0</ele><time>2026-05-02T15:14:36.999Z</time></trkpt><trkpt lat="43.2183920487886" lon="11.522873101411253"><ele>178.4</ele><time>2026-05-02T15:14:37.999Z</time></trkpt><trkpt lat="43.21843138459365" lon="11.523003682048039"><ele>176.8</ele><time>2026-05-02T15:14:38.999Z</time></trkpt><trkpt lat="43.218484525494034" lon="11.52313549151238"><ele>175.2</ele><time>2026-05-02T15:14:39.999Z</time></trkpt><trkpt lat="43.21853306818857" lon="11.523264338109177"><ele>173.6</ele><time>2026-05-02T15:14:40.999Z</time></trkpt><trkpt lat="43.218607780879296" lon="11.523392978576554"><ele>172.0</ele><time>2026-05-02T15:14:41.999Z</time></trkpt><trkpt lat="43.21868218462596" lon="11.523523355831774"><ele>172.0</ele><time>2026-05-02T15:14:42.999Z</time></trkpt><trkpt lat="43.21876004315143" lon="11.52366310987446"><ele>172.0</ele><time>2026-05-02T15:14:43.999Z</time></trkpt><trkpt lat="43.21883788262674" lon="11.523803712932896"><ele>172.0</ele><time>2026-05-02T15:14:45Z</time></trkpt><trkpt lat="43.21891913824337" lon="11.523943884685728"><ele>172.0</ele><time>2026-05-02T15:14:46Z</time></trkpt><trkpt lat="43.219001678491445" lon="11.524083239841524"><ele>172.0</ele><time>2026-05-02T15:14:47Z</time></trkpt><trkpt lat="43.219085238715614" lon="11.524217710669195"><ele>172.0</ele><time>2026-05-02T15:14:48Z</time></trkpt><trkpt lat="43.219164693468365" lon="11.524353218169422"><ele>172.0</ele><time>2026-05-02T15:14:49Z</time></trkpt><trkpt lat="43.219244463304555" lon="11.524490622924986"><ele>172.0</ele><time>2026-05-02T15:14:50Z</time></trkpt><trkpt lat="43.219323798328645" lon="11.524622519373164"><ele>170.75</ele><time>2026-05-02T15:14:51Z</time></trkpt><trkpt lat="43.21940076815541" lon="11.524747941782467"><ele>169.5</ele><time>2026-05-02T15:14:52Z</time></trkpt><trkpt lat="43.21948241805332" lon="11.524860131055485"><ele>168.25</ele><time>2026-05-02T15:14:53Z</time></trkpt><trkpt lat="43.21957561794474" lon="11.524952443659526"><ele>167.0</ele><time>2026-05-02T15:14:54Z</time></trkpt><trkpt lat="43.21967295505649" lon="11.525025381784976"><ele>167.0</ele><time>2026-05-02T15:14:55Z</time></trkpt><trkpt lat="43.219774462769244" lon="11.525057119218802"><ele>167.0</ele><time>2026-05-02T15:14:56Z</time></trkpt><trkpt lat="43.21987511787687" lon="11.525052193838343"><ele>167.0</ele><time>2026-05-02T15:14:57Z</time></trkpt><trkpt lat="43.21997936809753" lon="11.525015881602068"><ele>167.0</ele><time>2026-05-02T15:14:58Z</time></trkpt><trkpt lat="43.22008677920435" lon="11.524954739435831"><ele>167.0</ele><time>2026-05-02T15:14:59Z</time></trkpt><trkpt lat="43.22020166008093" lon="11.524893193647607"><ele>168.5</ele><time>2026-05-02T15:15:00Z</time></trkpt><trkpt lat="43.220311829798284" lon="11.524852733000827"><ele>170.0</ele><time>2026-05-02T15:15:01Z</time></trkpt><trkpt lat="43.2204226976851" lon="11.52484137469424"><ele>171.5</ele><time>2026-05-02T15:15:02Z</time></trkpt><trkpt lat="43.22054115934537" lon="11.52486667318356"><ele>173.0</ele><time>2026-05-02T15:15:03Z</time></trkpt><trkpt lat="43.22064002132245" lon="11.52496681489718"><ele>174.25</ele><time>2026-05-02T15:15:04Z</time></trkpt><trkpt lat="43.22075461164525" lon="11.525066839669048"><ele>175.5</ele><time>2026-05-02T15:15:05Z</time></trkpt><trkpt lat="43.2208707311509" lon="11.525154769738647"><ele>176.75</ele><time>2026-05-02T15:15:06Z</time></trkpt><trkpt lat="43.22097894000944" lon="11.525235336739584"><ele>178.0</ele><time>2026-05-02T15:15:07Z</time></trkpt><trkpt lat="43.22110325412459" lon="11.525285076625261"><ele>178.0</ele><time>2026-05-02T15:15:08Z</time></trkpt><trkpt lat="43.221236794430546" lon="11.525310980315885"><ele>178.0</ele><time>2026-05-02T15:15:09Z</time></trkpt><trkpt lat="43.22137850478246" lon="11.525326463678818"><ele>178.0</ele><time>2026-05-02T15:15:10Z</time></trkpt><trkpt lat="43.22152165898464" lon="11.525351648243026"><ele>178.0</ele><time>2026-05-02T15:15:11Z</time></trkpt><trkpt lat="43.2216613953632" lon="11.525378332104088"><ele>176.25</ele><time>2026-05-02T15:15:12Z</time></trkpt><trkpt lat="43.22179869074283" lon="11.525398890221888"><ele>174.5</ele><time>2026-05-02T15:15:13Z</time></trkpt><trkpt lat="43.22193413471006" lon="11.525416415918619"><ele>172.75</ele><time>2026-05-02T15:15:14Z</time></trkpt><trkpt lat="43.22206366513268" lon="11.525433697209793"><ele>171.0</ele><time>2026-05-02T15:15:15Z</time></trkpt><trkpt lat="43.22218879920122" lon="11.525458476058335"><ele>171.0</ele><time>2026-05-02T15:15:16Z</time></trkpt><trkpt lat="43.22230766396034" lon="11.525480759190545"><ele>171.0</ele><time>2026-05-02T15:15:17Z</time></trkpt><trkpt lat="43.22241204032313" lon="11.525493451338013"><ele>171.0</ele><time>2026-05-02T15:15:18Z</time></trkpt><trkpt lat="43.22250946024503" lon="11.525489998069908"><ele>171.0</ele><time>2026-05-02T15:15:19Z</time></trkpt><trkpt lat="43.22260682097365" lon="11.525493715592532"><ele>171.0</ele><time>2026-05-02T15:15:20Z</time></trkpt><trkpt lat="43.22270648980584" lon="11.525508114318775"><ele>170.60000000000002</ele><time>2026-05-02T15:15:20.999Z</time></trkpt><trkpt lat="43.2227947347161" lon="11.525582804707678"><ele>170.2</ele><time>2026-05-02T15:15:21.999Z</time></trkpt><trkpt lat="43.22288005669436" lon="11.525671133824686"><ele>169.8</ele><time>2026-05-02T15:15:22.999Z</time></trkpt><trkpt lat="43.22297342126098" lon="11.525765862699819"><ele>169.39999999999998</ele><time>2026-05-02T15:15:23.999Z</time></trkpt><trkpt lat="43.22305509952764" lon="11.525865854533345"><ele>169.0</ele><time>2026-05-02T15:15:24.999Z</time></trkpt><trkpt lat="43.22314322353766" lon="11.525934526212659"><ele>170.39999999999998</ele><time>2026-05-02T15:15:25.999Z</time></trkpt><trkpt lat="43.22323408734554" lon="11.52597329108342"><ele>171.8</ele><time>2026-05-02T15:15:26.999Z</time></trkpt><trkpt lat="43.22333389895973" lon="11.525997990963322"><ele>173.2</ele><time>2026-05-02T15:15:27.999Z</time></trkpt><trkpt lat="43.223440866315386" lon="11.526001608522886"><ele>174.60000000000002</ele><time>2026-05-02T15:15:28.999Z</time></trkpt><trkpt lat="43.223551857476146" lon="11.525992517344935"><ele>176.0</ele><time>2026-05-02T15:15:29.999Z</time></trkpt><trkpt lat="43.22366983213862" lon="11.525983880825144"><ele>176.0</ele><time>2026-05-02T15:15:30.999Z</time></trkpt><trkpt lat="43.22378722661774" lon="11.525984810611948"><ele>176.0</ele><time>2026-05-02T15:15:31.999Z</time></trkpt><trkpt lat="43.22390784761466" lon="11.525981602718929"><ele>176.0</ele><time>2026-05-02T15:15:32.999Z</time></trkpt><trkpt lat="43.224027214459916" lon="11.525963336320581"><ele>176.0</ele><time>2026-05-02T15:15:33.999Z</time></trkpt><trkpt lat="43.224145780810964" lon="11.525936684321364"><ele>176.25</ele><time>2026-05-02T15:15:34.999Z</time></trkpt><trkpt lat="43.22426487055762" lon="11.525917398191224"><ele>176.5</ele><time>2026-05-02T15:15:35.999Z</time></trkpt><trkpt lat="43.224391733777836" lon="11.525922878903334"><ele>176.75</ele><time>2026-05-02T15:15:36.999Z</time></trkpt><trkpt lat="43.22452131781602" lon="11.525951577365612"><ele>177.0</ele><time>2026-05-02T15:15:37.999Z</time></trkpt><trkpt lat="43.22464804064441" lon="11.525986496220462"><ele>177.0</ele><time>2026-05-02T15:15:38.999Z</time></trkpt><trkpt lat="43.224772301884876" lon="11.52602501820903"><ele>177.0</ele><time>2026-05-02T15:15:39.999Z</time></trkpt><trkpt lat="43.22489410271359" lon="11.526060190882177"><ele>177.0</ele><time>2026-05-02T15:15:40.999Z</time></trkpt><trkpt lat="43.225013839386705" lon="11.526094152070833"><ele>177.0</ele><time>2026-05-02T15:15:41.999Z</time></trkpt><trkpt lat="43.225135659017944" lon="11.526127407402623"><ele>177.75</ele><time>2026-05-02T15:15:42.999Z</time></trkpt><trkpt lat="43.22525410497093" lon="11.526157410089125"><ele>178.5</ele><time>2026-05-02T15:15:43.999Z</time></trkpt><trkpt lat="43.225370782411744" lon="11.526187387774966"><ele>179.25</ele><time>2026-05-02T15:15:44.999Z</time></trkpt><trkpt lat="43.22548621352667" lon="11.526221010635435"><ele>180.0</ele><time>2026-05-02T15:15:45.999Z</time></trkpt><trkpt lat="43.22559742320566" lon="11.526251223179697"><ele>179.0</ele><time>2026-05-02T15:15:46.999Z</time></trkpt><trkpt lat="43.2257033689592" lon="11.526313779688504"><ele>178.0</ele><time>2026-05-02T15:15:47.999Z</time></trkpt><trkpt lat="43.225805001925835" lon="11.526354101133341"><ele>177.0</ele><time>2026-05-02T15:15:48.999Z</time></trkpt><trkpt lat="43.22591075782508" lon="11.526396953671657"><ele>176.0</ele><time>2026-05-02T15:15:49.999Z</time></trkpt><trkpt lat="43.226010660526036" lon="11.526404282163806"><ele>175.0</ele><time>2026-05-02T15:15:50.999Z</time></trkpt><trkpt lat="43.226107018124495" lon="11.526410216190307"><ele>175.0</ele><time>2026-05-02T15:15:51.999Z</time></trkpt><trkpt lat="43.22619809157996" lon="11.526404273628836"><ele>175.0</ele><time>2026-05-02T15:15:52.999Z</time></trkpt><trkpt lat="43.22626107531779" lon="11.526390976348186"><ele>175.0</ele><time>2026-05-02T15:15:53.999Z</time></trkpt><trkpt lat="43.22632873894948" lon="11.526385863201007"><ele>175.0</ele><time>2026-05-02T15:15:54.999Z</time></trkpt><trkpt lat="43.226401566697135" lon="11.526397361852434"><ele>175.0</ele><time>2026-05-02T15:15:56.999Z</time></trkpt><trkpt lat="43.22648869010115" lon="11.526393699997792"><ele>175.0</ele><time>2026-05-02T15:15:58.999Z</time></trkpt><trkpt lat="43.2265952201294" lon="11.526372911862742"><ele>175.5</ele><time>2026-05-02T15:16:00.999Z</time></trkpt><trkpt lat="43.22673699523103" lon="11.526369661498569"><ele>176.0</ele><time>2026-05-02T15:16:02.999Z</time></trkpt><trkpt lat="43.22685639052489" lon="11.526369709155276"><ele>176.5</ele><time>2026-05-02T15:16:03.999Z</time></trkpt><trkpt lat="43.226961670008784" lon="11.526383550167848"><ele>177.0</ele><time>2026-05-02T15:16:04.999Z</time></trkpt><trkpt lat="43.227066290758295" lon="11.526378403895844"><ele>177.0</ele><time>2026-05-02T15:16:05.999Z</time></trkpt><trkpt lat="43.22716479187173" lon="11.526391058805551"><ele>177.0</ele><time>2026-05-02T15:16:06.999Z</time></trkpt><trkpt lat="43.22725873252614" lon="11.5264270226865"><ele>177.0</ele><time>2026-05-02T15:16:07.999Z</time></trkpt><trkpt lat="43.22734436327164" lon="11.526501807226754"><ele>177.0</ele><time>2026-05-02T15:16:08.999Z</time></trkpt><trkpt lat="43.227415443029656" lon="11.52661747595497"><ele>177.0</ele><time>2026-05-02T15:16:09.999Z</time></trkpt><trkpt lat="43.22751066344369" lon="11.526690346394618"><ele>176.0</ele><time>2026-05-02T15:16:10.999Z</time></trkpt><trkpt lat="43.227596068124896" lon="11.526793677817249"><ele>175.0</ele><time>2026-05-02T15:16:11.999Z</time></trkpt><trkpt lat="43.227688413853265" lon="11.52688346308851"><ele>174.0</ele><time>2026-05-02T15:16:12.999Z</time></trkpt><trkpt lat="43.227782689060966" lon="11.526973795442814"><ele>173.0</ele><time>2026-05-02T15:16:13.999Z</time></trkpt><trkpt lat="43.227873853891914" lon="11.5270606958144"><ele>172.75</ele><time>2026-05-02T15:16:14.999Z</time></trkpt><trkpt lat="43.22797080322609" lon="11.527144768335749"><ele>172.5</ele><time>2026-05-02T15:16:15.999Z</time></trkpt><trkpt lat="43.228074807637874" lon="11.527214604826195"><ele>172.25</ele><time>2026-05-02T15:16:16.999Z</time></trkpt><trkpt lat="43.22818400966018" lon="11.527277553808938"><ele>172.0</ele><time>2026-05-02T15:16:17.999Z</time></trkpt><trkpt lat="43.228312075993486" lon="11.52733365153234"><ele>171.0</ele><time>2026-05-02T15:16:18.999Z</time></trkpt><trkpt lat="43.22844456887438" lon="11.527391525993295"><ele>170.0</ele><time>2026-05-02T15:16:19.999Z</time></trkpt><trkpt lat="43.228563560103424" lon="11.527435196996375"><ele>169.0</ele><time>2026-05-02T15:16:20.999Z</time></trkpt><trkpt lat="43.22866259358145" lon="11.527486942289853"><ele>168.0</ele><time>2026-05-02T15:16:21.999Z</time></trkpt><trkpt lat="43.22874513755151" lon="11.527578514724858"><ele>168.0</ele><time>2026-05-02T15:16:22.999Z</time></trkpt><trkpt lat="43.228837752238945" lon="11.527681608565498"><ele>168.0</ele><time>2026-05-02T15:16:23.999Z</time></trkpt><trkpt lat="43.22894699256027" lon="11.52778046413605"><ele>168.0</ele><time>2026-05-02T15:16:24.999Z</time></trkpt><trkpt lat="43.2290471693934" lon="11.52790418374071"><ele>168.0</ele><time>2026-05-02T15:16:25.999Z</time></trkpt><trkpt lat="43.229160855245574" lon="11.528040614691099"><ele>169.5</ele><time>2026-05-02T15:16:26.999Z</time></trkpt><trkpt lat="43.229269795549314" lon="11.528169444768286"><ele>171.0</ele><time>2026-05-02T15:16:27.999Z</time></trkpt><trkpt lat="43.22936256716468" lon="11.528283480785172"><ele>172.5</ele><time>2026-05-02T15:16:28.999Z</time></trkpt><trkpt lat="43.22944228031808" lon="11.52838628111869"><ele>174.0</ele><time>2026-05-02T15:16:29.999Z</time></trkpt><trkpt lat="43.229521430705184" lon="11.528491649067108"><ele>174.0</ele><time>2026-05-02T15:16:30.999Z</time></trkpt><trkpt lat="43.22960454969682" lon="11.528581693545526"><ele>174.0</ele><time>2026-05-02T15:16:31.999Z</time></trkpt><trkpt lat="43.22967737213603" lon="11.528655508599622"><ele>174.0</ele><time>2026-05-02T15:16:32.999Z</time></trkpt><trkpt lat="43.22973901936325" lon="11.528706318022937"><ele>174.0</ele><time>2026-05-02T15:16:33.999Z</time></trkpt><trkpt lat="43.22982942663053" lon="11.528774469672884"><ele>174.0</ele><time>2026-05-02T15:16:35.999Z</time></trkpt><trkpt lat="43.22991486804874" lon="11.528819080667482"><ele>174.39999999999998</ele><time>2026-05-02T15:16:37.999Z</time></trkpt><trkpt lat="43.22997486241068" lon="11.52888007062642"><ele>174.8</ele><time>2026-05-02T15:16:38.999Z</time></trkpt><trkpt lat="43.23003227039074" lon="11.528986146716901"><ele>175.2</ele><time>2026-05-02T15:16:39.999Z</time></trkpt><trkpt lat="43.23010677486285" lon="11.529086726997686"><ele>175.60000000000002</ele><time>2026-05-02T15:16:40.999Z</time></trkpt><trkpt lat="43.230188169765064" lon="11.529195417242644"><ele>176.0</ele><time>2026-05-02T15:16:41.999Z</time></trkpt><trkpt lat="43.23028629491903" lon="11.529298018487609"><ele>176.0</ele><time>2026-05-02T15:16:42.999Z</time></trkpt><trkpt lat="43.230377059571666" lon="11.529420468535307"><ele>176.0</ele><time>2026-05-02T15:16:43.999Z</time></trkpt><trkpt lat="43.23046064156129" lon="11.529564775308383"><ele>176.0</ele><time>2026-05-02T15:16:44.999Z</time></trkpt><trkpt lat="43.230573145879575" lon="11.52968822717789"><ele>176.0</ele><time>2026-05-02T15:16:45.999Z</time></trkpt><trkpt lat="43.230674974276134" lon="11.529826894385"><ele>174.66666666666666</ele><time>2026-05-02T15:16:46.999Z</time></trkpt><trkpt lat="43.2307786229383" lon="11.529972996002664"><ele>173.33333333333334</ele><time>2026-05-02T15:16:47.999Z</time></trkpt><trkpt lat="43.23088455553851" lon="11.53012058610295"><ele>172.0</ele><time>2026-05-02T15:16:48.999Z</time></trkpt><trkpt lat="43.23098242490681" lon="11.530282092281224"><ele>171.0</ele><time>2026-05-02T15:16:49.999Z</time></trkpt><trkpt lat="43.23109260168364" lon="11.530432319386051"><ele>170.0</ele><time>2026-05-02T15:16:51Z</time></trkpt><trkpt lat="43.231193059020384" lon="11.53058814818163"><ele>169.0</ele><time>2026-05-02T15:16:52Z</time></trkpt><trkpt lat="43.231284958567635" lon="11.530758790170317"><ele>169.0</ele><time>2026-05-02T15:16:53Z</time></trkpt><trkpt lat="43.231354834547226" lon="11.530941646376798"><ele>169.0</ele><time>2026-05-02T15:16:54Z</time></trkpt><trkpt lat="43.231413778251785" lon="11.53114695887518"><ele>169.0</ele><time>2026-05-02T15:16:55Z</time></trkpt><trkpt lat="43.23145540253206" lon="11.531350214191406"><ele>169.33333333333334</ele><time>2026-05-02T15:16:56Z</time></trkpt><trkpt lat="43.23149723259282" lon="11.531560768747745"><ele>169.66666666666666</ele><time>2026-05-02T15:16:57Z</time></trkpt><trkpt lat="43.23153928119299" lon="11.531770800312994"><ele>170.0</ele><time>2026-05-02T15:16:58Z</time></trkpt><trkpt lat="43.23158199032645" lon="11.531983527737829"><ele>170.0</ele><time>2026-05-02T15:16:59Z</time></trkpt><trkpt lat="43.23162336855549" lon="11.53218929509105"><ele>170.0</ele><time>2026-05-02T15:17:00Z</time></trkpt><trkpt lat="43.23166416029125" lon="11.532392145557813"><ele>170.0</ele><time>2026-05-02T15:17:01Z</time></trkpt><trkpt lat="43.23170495065514" lon="11.532594989694658"><ele>170.0</ele><time>2026-05-02T15:17:02Z</time></trkpt><trkpt lat="43.23174585493676" lon="11.532798399699502"><ele>170.0</ele><time>2026-05-02T15:17:03Z</time></trkpt><trkpt lat="43.231786535468366" lon="11.532999665697455"><ele>170.0</ele><time>2026-05-02T15:17:04Z</time></trkpt><trkpt lat="43.23182809304109" lon="11.533202382074098"><ele>170.0</ele><time>2026-05-02T15:17:05Z</time></trkpt><trkpt lat="43.23186997186854" lon="11.533406665707979"><ele>170.0</ele><time>2026-05-02T15:17:06Z</time></trkpt><trkpt lat="43.231909789566245" lon="11.533603018983841"><ele>170.0</ele><time>2026-05-02T15:17:07Z</time></trkpt><trkpt lat="43.23195466461641" lon="11.533797680716722"><ele>169.33333333333331</ele><time>2026-05-02T15:17:08Z</time></trkpt><trkpt lat="43.23202587879508" lon="11.533976959831351"><ele>168.66666666666666</ele><time>2026-05-02T15:17:09Z</time></trkpt><trkpt lat="43.232109933073026" lon="11.534149504923143"><ele>168.0</ele><time>2026-05-02T15:17:10Z</time></trkpt><trkpt lat="43.23222372264258" lon="11.534303449009007"><ele>168.66666666666666</ele><time>2026-05-02T15:17:11Z</time></trkpt><trkpt lat="43.23235931267763" lon="11.534433170354527"><ele>169.33333333333331</ele><time>2026-05-02T15:17:12Z</time></trkpt><trkpt lat="43.232506223948405" lon="11.534540475487638"><ele>170.0</ele><time>2026-05-02T15:17:13Z</time></trkpt><trkpt lat="43.232654649847774" lon="11.534641804933997"><ele>170.0</ele><time>2026-05-02T15:17:14Z</time></trkpt><trkpt lat="43.23280286398536" lon="11.53475009256977"><ele>170.0</ele><time>2026-05-02T15:17:15Z</time></trkpt><trkpt lat="43.2329468535682" lon="11.534863652366658"><ele>170.0</ele><time>2026-05-02T15:17:16Z</time></trkpt><trkpt lat="43.233091189778314" lon="11.534981069489788"><ele>171.33333333333331</ele><time>2026-05-02T15:17:16.999Z</time></trkpt><trkpt lat="43.2332346689408" lon="11.535096936679299"><ele>172.66666666666666</ele><time>2026-05-02T15:17:17.999Z</time></trkpt><trkpt lat="43.23337764499652" lon="11.535206520219647"><ele>174.0</ele><time>2026-05-02T15:17:18.999Z</time></trkpt><trkpt lat="43.233505951442254" lon="11.535350460574692"><ele>172.33333333333334</ele><time>2026-05-02T15:17:19.999Z</time></trkpt><trkpt lat="43.233623475035145" lon="11.535501196685516"><ele>170.66666666666669</ele><time>2026-05-02T15:17:20.999Z</time></trkpt><trkpt lat="43.233718026120144" lon="11.535673418358511"><ele>169.0</ele><time>2026-05-02T15:17:21.999Z</time></trkpt><trkpt lat="43.233813593681326" lon="11.535850305025734"><ele>169.0</ele><time>2026-05-02T15:17:22.999Z</time></trkpt><trkpt lat="43.23390922142245" lon="11.536027493149938"><ele>169.0</ele><time>2026-05-02T15:17:23.999Z</time></trkpt><trkpt lat="43.234006675904354" lon="11.536208067046186"><ele>169.0</ele><time>2026-05-02T15:17:24.999Z</time></trkpt><trkpt lat="43.234116508380595" lon="11.536374060681773"><ele>170.0</ele><time>2026-05-02T15:17:25.999Z</time></trkpt><trkpt lat="43.23421354193546" lon="11.536558132448398"><ele>171.0</ele><time>2026-05-02T15:17:26.999Z</time></trkpt><trkpt lat="43.234296976529386" lon="11.536752413197673"><ele>172.0</ele><time>2026-05-02T15:17:27.999Z</time></trkpt><trkpt lat="43.23439261573484" lon="11.536931370413605"><ele>172.0</ele><time>2026-05-02T15:17:28.999Z</time></trkpt><trkpt lat="43.23448930132802" lon="11.537112285767076"><ele>172.0</ele><time>2026-05-02T15:17:29.999Z</time></trkpt><trkpt lat="43.234586966959824" lon="11.537295034777054"><ele>172.0</ele><time>2026-05-02T15:17:30.999Z</time></trkpt><trkpt lat="43.23468381583824" lon="11.537476255514848"><ele>172.0</ele><time>2026-05-02T15:17:31.999Z</time></trkpt><trkpt lat="43.23478186223796" lon="11.537658412843667"><ele>172.0</ele><time>2026-05-02T15:17:32.999Z</time></trkpt><trkpt lat="43.23488004739542" lon="11.537839471323384"><ele>172.0</ele><time>2026-05-02T15:17:33.999Z</time></trkpt><trkpt lat="43.23498116762642" lon="11.538026082335536"><ele>172.66666666666669</ele><time>2026-05-02T15:17:34.999Z</time></trkpt><trkpt lat="43.2350812375127" lon="11.538210754955488"><ele>173.33333333333334</ele><time>2026-05-02T15:17:35.999Z</time></trkpt><trkpt lat="43.235182696805985" lon="11.538397991322213"><ele>174.0</ele><time>2026-05-02T15:17:36.999Z</time></trkpt><trkpt lat="43.235285118980535" lon="11.538587004911953"><ele>173.66666666666666</ele><time>2026-05-02T15:17:37.999Z</time></trkpt><trkpt lat="43.23538711787198" lon="11.538775237314919"><ele>173.33333333333331</ele><time>2026-05-02T15:17:38.999Z</time></trkpt><trkpt lat="43.23548700586939" lon="11.538959574018426"><ele>173.0</ele><time>2026-05-02T15:17:39.999Z</time></trkpt><trkpt lat="43.23558720917697" lon="11.539144702003803"><ele>173.66666666666666</ele><time>2026-05-02T15:17:40.999Z</time></trkpt><trkpt lat="43.23568493519252" lon="11.539326160180087"><ele>174.33333333333334</ele><time>2026-05-02T15:17:41.999Z</time></trkpt><trkpt lat="43.235773109357226" lon="11.539498665177097"><ele>175.0</ele><time>2026-05-02T15:17:42.999Z</time></trkpt><trkpt lat="43.2358392986767" lon="11.539662248174846"><ele>175.0</ele><time>2026-05-02T15:17:43.999Z</time></trkpt><trkpt lat="43.235879159153335" lon="11.539827310490299"><ele>175.0</ele><time>2026-05-02T15:17:44.999Z</time></trkpt><trkpt lat="43.23587924836973" lon="11.539992653191623"><ele>175.0</ele><time>2026-05-02T15:17:45.999Z</time></trkpt><trkpt lat="43.23586988667891" lon="11.540168878143685"><ele>175.0</ele><time>2026-05-02T15:17:46.999Z</time></trkpt><trkpt lat="43.23586197856458" lon="11.540355469674846"><ele>175.0</ele><time>2026-05-02T15:17:47.999Z</time></trkpt><trkpt lat="43.23585372213726" lon="11.54055027895243"><ele>175.0</ele><time>2026-05-02T15:17:48.999Z</time></trkpt><trkpt lat="43.23584485756514" lon="11.540755366544953"><ele>175.0</ele><time>2026-05-02T15:17:49.999Z</time></trkpt><trkpt lat="43.23583469538053" lon="11.540961323895448"><ele>175.0</ele><time>2026-05-02T15:17:50.999Z</time></trkpt><trkpt lat="43.23582412630262" lon="11.541175532664203"><ele>176.33333333333334</ele><time>2026-05-02T15:17:51.999Z</time></trkpt><trkpt lat="43.23584074005736" lon="11.541387958510334"><ele>177.66666666666666</ele><time>2026-05-02T15:17:52.999Z</time></trkpt><trkpt lat="43.23583348805464" lon="11.541608684725288"><ele>179.0</ele><time>2026-05-02T15:17:53.999Z</time></trkpt><trkpt lat="43.235823466755136" lon="11.541828496203328"><ele>179.0</ele><time>2026-05-02T15:17:54.999Z</time></trkpt><trkpt lat="43.235814453384926" lon="11.542048444027966"><ele>179.0</ele><time>2026-05-02T15:17:55.999Z</time></trkpt><trkpt lat="43.23580619305898" lon="11.542262697542016"><ele>179.0</ele><time>2026-05-02T15:17:56.999Z</time></trkpt><trkpt lat="43.235770676398246" lon="11.542475922280675"><ele>179.0</ele><time>2026-05-02T15:17:57.999Z</time></trkpt><trkpt lat="43.23576210195704" lon="11.542688212809137"><ele>179.0</ele><time>2026-05-02T15:17:58.999Z</time></trkpt><trkpt lat="43.23575350596739" lon="11.54290098304025"><ele>179.0</ele><time>2026-05-02T15:17:59.999Z</time></trkpt><trkpt lat="43.235744995307215" lon="11.543111641272734"><ele>178.66666666666666</ele><time>2026-05-02T15:18:00.999Z</time></trkpt><trkpt lat="43.235736425904484" lon="11.543323753422978"><ele>178.33333333333334</ele><time>2026-05-02T15:18:01.999Z</time></trkpt><trkpt lat="43.23572746578855" lon="11.543545536666631"><ele>178.0</ele><time>2026-05-02T15:18:02.999Z</time></trkpt><trkpt lat="43.23571899055842" lon="11.543770663818828"><ele>177.66666666666669</ele><time>2026-05-02T15:18:03.999Z</time></trkpt><trkpt lat="43.23571055256108" lon="11.543998341845445"><ele>177.33333333333334</ele><time>2026-05-02T15:18:04.999Z</time></trkpt><trkpt lat="43.235702133589804" lon="11.544225506283551"><ele>177.0</ele><time>2026-05-02T15:18:05.999Z</time></trkpt><trkpt lat="43.23569351830694" lon="11.544457967798708"><ele>176.66666666666666</ele><time>2026-05-02T15:18:06.999Z</time></trkpt><trkpt lat="43.23568971806383" lon="11.544688737628194"><ele>176.33333333333331</ele><time>2026-05-02T15:18:07.999Z</time></trkpt><trkpt lat="43.235698680328255" lon="11.544911866972354"><ele>176.0</ele><time>2026-05-02T15:18:08.999Z</time></trkpt><trkpt lat="43.23573064251763" lon="11.545137549995179"><ele>176.0</ele><time>2026-05-02T15:18:09.999Z</time></trkpt><trkpt lat="43.235794506119625" lon="11.54535042341634"><ele>176.0</ele><time>2026-05-02T15:18:10.999Z</time></trkpt><trkpt lat="43.235862558424614" lon="11.54556160468632"><ele>176.0</ele><time>2026-05-02T15:18:11.999Z</time></trkpt><trkpt lat="43.23592055926309" lon="11.545783327597904"><ele>176.0</ele><time>2026-05-02T15:18:12.999Z</time></trkpt><trkpt lat="43.23599867192134" lon="11.545992198332067"><ele>176.0</ele><time>2026-05-02T15:18:13.999Z</time></trkpt><trkpt lat="43.23608887322026" lon="11.546194731504707"><ele>176.0</ele><time>2026-05-02T15:18:14.999Z</time></trkpt><trkpt lat="43.236203700428696" lon="11.546367508794493"><ele>176.66666666666666</ele><time>2026-05-02T15:18:15.999Z</time></trkpt><trkpt lat="43.23631637300294" lon="11.546539101891442"><ele>177.33333333333334</ele><time>2026-05-02T15:18:16.999Z</time></trkpt><trkpt lat="43.23641800513671" lon="11.546725346518656"><ele>178.0</ele><time>2026-05-02T15:18:17.999Z</time></trkpt><trkpt lat="43.23653225526372" lon="11.5468964568564"><ele>176.66666666666669</ele><time>2026-05-02T15:18:18.999Z</time></trkpt><trkpt lat="43.236651625622734" lon="11.5470686924106"><ele>175.33333333333334</ele><time>2026-05-02T15:18:19.999Z</time></trkpt><trkpt lat="43.236773585159916" lon="11.547229481673586"><ele>174.0</ele><time>2026-05-02T15:18:20.999Z</time></trkpt><trkpt lat="43.23690551496223" lon="11.547384050668787"><ele>174.0</ele><time>2026-05-02T15:18:21.999Z</time></trkpt><trkpt lat="43.23703756882181" lon="11.547534370088814"><ele>174.0</ele><time>2026-05-02T15:18:22.999Z</time></trkpt><trkpt lat="43.237168639621196" lon="11.547683695780437"><ele>174.0</ele><time>2026-05-02T15:18:23.999Z</time></trkpt><trkpt lat="43.23730182106813" lon="11.547833536324886"><ele>174.66666666666666</ele><time>2026-05-02T15:18:24.999Z</time></trkpt><trkpt lat="43.23743321548612" lon="11.547981034093933"><ele>175.33333333333331</ele><time>2026-05-02T15:18:25.999Z</time></trkpt><trkpt lat="43.237564716517234" lon="11.548128651482076"><ele>176.0</ele><time>2026-05-02T15:18:26.999Z</time></trkpt><trkpt lat="43.23769773098889" lon="11.548276236390896"><ele>176.0</ele><time>2026-05-02T15:18:27.999Z</time></trkpt><trkpt lat="43.23783382673734" lon="11.548419724676831"><ele>176.0</ele><time>2026-05-02T15:18:28.999Z</time></trkpt><trkpt lat="43.2379714054385" lon="11.54856079928341"><ele>176.0</ele><time>2026-05-02T15:18:29.999Z</time></trkpt><trkpt lat="43.23811122852076" lon="11.548698430999496"><ele>176.0</ele><time>2026-05-02T15:18:30.999Z</time></trkpt><trkpt lat="43.238252858709295" lon="11.548830871338494"><ele>176.0</ele><time>2026-05-02T15:18:31.999Z</time></trkpt><trkpt lat="43.23839759787886" lon="11.548957253616516"><ele>176.0</ele><time>2026-05-02T15:18:32.999Z</time></trkpt><trkpt lat="43.238551715015646" lon="11.549060739174395"><ele>176.0</ele><time>2026-05-02T15:18:33.999Z</time></trkpt><trkpt lat="43.23870127178215" lon="11.549172279757963"><ele>176.0</ele><time>2026-05-02T15:18:34.999Z</time></trkpt><trkpt lat="43.23885681686326" lon="11.549278579461832"><ele>176.0</ele><time>2026-05-02T15:18:35.999Z</time></trkpt><trkpt lat="43.23899969182202" lon="11.54940927304097"><ele>175.66666666666666</ele><time>2026-05-02T15:18:36.999Z</time></trkpt><trkpt lat="43.23914912532533" lon="11.549531358417912"><ele>175.33333333333334</ele><time>2026-05-02T15:18:37.999Z</time></trkpt><trkpt lat="43.23928508326372" lon="11.549668075980357"><ele>175.0</ele><time>2026-05-02T15:18:38.999Z</time></trkpt><trkpt lat="43.239415061027515" lon="11.549816060951546"><ele>175.0</ele><time>2026-05-02T15:18:39.999Z</time></trkpt><trkpt lat="43.23953641655814" lon="11.549968165706376"><ele>175.0</ele><time>2026-05-02T15:18:40.999Z</time></trkpt><trkpt lat="43.23966333377706" lon="11.550107573829287"><ele>175.0</ele><time>2026-05-02T15:18:41.999Z</time></trkpt><trkpt lat="43.239772789278966" lon="11.55026669966864"><ele>174.33333333333334</ele><time>2026-05-02T15:18:42.999Z</time></trkpt><trkpt lat="43.23988538942138" lon="11.550419949243084"><ele>173.66666666666666</ele><time>2026-05-02T15:18:43.999Z</time></trkpt><trkpt lat="43.24000029640544" lon="11.55057704044893"><ele>173.0</ele><time>2026-05-02T15:18:44.999Z</time></trkpt><trkpt lat="43.240113868491186" lon="11.550735834559402"><ele>173.0</ele><time>2026-05-02T15:18:45.999Z</time></trkpt><trkpt lat="43.240227246359964" lon="11.550894837624462"><ele>173.0</ele><time>2026-05-02T15:18:46.999Z</time></trkpt><trkpt lat="43.24034274616439" lon="11.551050461628096"><ele>173.0</ele><time>2026-05-02T15:18:47.999Z</time></trkpt><trkpt lat="43.24045589231195" lon="11.551201969981989"><ele>172.5</ele><time>2026-05-02T15:18:48.999Z</time></trkpt><trkpt lat="43.24055016465239" lon="11.551364053316002"><ele>172.0</ele><time>2026-05-02T15:18:49.998Z</time></trkpt><trkpt lat="43.24064601100175" lon="11.551496107206084"><ele>171.5</ele><time>2026-05-02T15:18:50.998Z</time></trkpt><trkpt lat="43.24072915451814" lon="11.551615239037467"><ele>171.0</ele><time>2026-05-02T15:18:51.998Z</time></trkpt><trkpt lat="43.24079588357266" lon="11.551730625146208"><ele>172.33333333333334</ele><time>2026-05-02T15:18:52.998Z</time></trkpt><trkpt lat="43.240833009763215" lon="11.551845389437284"><ele>173.66666666666666</ele><time>2026-05-02T15:18:53.998Z</time></trkpt><trkpt lat="43.24081767351243" lon="11.551955664163623"><ele>175.0</ele><time>2026-05-02T15:18:54.998Z</time></trkpt><trkpt lat="43.24077811435359" lon="11.552042641753976"><ele>176.33333333333331</ele><time>2026-05-02T15:18:55.998Z</time></trkpt><trkpt lat="43.240738062940665" lon="11.55212261067779"><ele>177.66666666666666</ele><time>2026-05-02T15:18:57Z</time></trkpt><trkpt lat="43.2406968356363" lon="11.552215043253124"><ele>179.0</ele><time>2026-05-02T15:18:58Z</time></trkpt><trkpt lat="43.24066645950776" lon="11.552313454813786"><ele>179.16666666666666</ele><time>2026-05-02T15:18:59Z</time></trkpt><trkpt lat="43.240648873115326" lon="11.552415399180315"><ele>179.33333333333331</ele><time>2026-05-02T15:19:00Z</time></trkpt><trkpt lat="43.24061058993875" lon="11.552505703264858"><ele>179.5</ele><time>2026-05-02T15:19:01Z</time></trkpt><trkpt lat="43.24056608154013" lon="11.552594926392374"><ele>179.66666666666666</ele><time>2026-05-02T15:19:02Z</time></trkpt><trkpt lat="43.24052261673688" lon="11.55268871859456"><ele>179.83333333333334</ele><time>2026-05-02T15:19:03Z</time></trkpt><trkpt lat="43.24047818253218" lon="11.552780855980833"><ele>180.0</ele><time>2026-05-02T15:19:04Z</time></trkpt><trkpt lat="43.240434359531065" lon="11.552865039514348"><ele>178.25</ele><time>2026-05-02T15:19:05Z</time></trkpt><trkpt lat="43.240374064884165" lon="11.552986344805207"><ele>176.5</ele><time>2026-05-02T15:19:07Z</time></trkpt><trkpt lat="43.24030077435318" lon="11.553030102646932"><ele>174.75</ele><time>2026-05-02T15:19:09Z</time></trkpt><trkpt lat="43.24047876274005" lon="11.55318237958822"><ele>173.0</ele><time>2026-05-02T15:19:11Z</time></trkpt><trkpt lat="43.24053842188143" lon="11.553245800314244"><ele>173.4</ele><time>2026-05-02T15:19:12Z</time></trkpt><trkpt lat="43.24065285739337" lon="11.553324997032203"><ele>173.8</ele><time>2026-05-02T15:19:14Z</time></trkpt><trkpt lat="43.24074333456472" lon="11.553347527802199"><ele>174.2</ele><time>2026-05-02T15:19:16Z</time></trkpt><trkpt lat="43.24081093803791" lon="11.55337374045966"><ele>174.6</ele><time>2026-05-02T15:19:18Z</time></trkpt><trkpt lat="43.240884268358045" lon="11.553443685576637"><ele>175.0</ele><time>2026-05-02T15:19:19.999Z</time></trkpt><trkpt lat="43.240956690130695" lon="11.553493584571154"><ele>175.0</ele><time>2026-05-02T15:19:21.999Z</time></trkpt><trkpt lat="43.241082304771936" lon="11.553676512487364"><ele>175.0</ele><time>2026-05-02T15:28:06Z</time></trkpt><trkpt lat="43.24116133855063" lon="11.55375604299181"><ele>175.0</ele><time>2026-05-02T15:28:07Z</time></trkpt><trkpt lat="43.241243869880954" lon="11.553832543046566"><ele>175.0</ele><time>2026-05-02T15:28:08Z</time></trkpt><trkpt lat="43.24134772570041" lon="11.553806851676237"><ele>174.6</ele><time>2026-05-02T15:28:09Z</time></trkpt><trkpt lat="43.241410362140094" lon="11.553919206371072"><ele>174.2</ele><time>2026-05-02T15:28:10Z</time></trkpt><trkpt lat="43.241485828264445" lon="11.553941015015024"><ele>173.8</ele><time>2026-05-02T15:28:11Z</time></trkpt><trkpt lat="43.241580826088175" lon="11.553953675622639"><ele>173.4</ele><time>2026-05-02T15:28:12Z</time></trkpt><trkpt lat="43.24168182557905" lon="11.553949472417857"><ele>173.0</ele><time>2026-05-02T15:28:13Z</time></trkpt><trkpt lat="43.24178007362719" lon="11.55393520779246"><ele>174.0</ele><time>2026-05-02T15:28:14Z</time></trkpt><trkpt lat="43.241877023070195" lon="11.553939571325735"><ele>175.0</ele><time>2026-05-02T15:28:15Z</time></trkpt><trkpt lat="43.24197030103493" lon="11.553960577693825"><ele>176.0</ele><time>2026-05-02T15:28:16Z</time></trkpt><trkpt lat="43.242064570566754" lon="11.554001229894112"><ele>177.0</ele><time>2026-05-02T15:28:17Z</time></trkpt><trkpt lat="43.24215644836247" lon="11.554065969329262"><ele>178.0</ele><time>2026-05-02T15:28:18Z</time></trkpt><trkpt lat="43.242244521685365" lon="11.554136228465612"><ele>181.2</ele><time>2026-05-02T15:28:19Z</time></trkpt><trkpt lat="43.24233156025458" lon="11.554205768280953"><ele>184.4</ele><time>2026-05-02T15:28:20Z</time></trkpt><trkpt lat="43.24241809856243" lon="11.554276156817906"><ele>187.6</ele><time>2026-05-02T15:28:21Z</time></trkpt><trkpt lat="43.24250052926645" lon="11.554347112009742"><ele>190.79999999999998</ele><time>2026-05-02T15:28:22Z</time></trkpt><trkpt lat="43.2425873015508" lon="11.554415531858403"><ele>194.0</ele><time>2026-05-02T15:28:23Z</time></trkpt><trkpt lat="43.24267622773179" lon="11.554484041821325"><ele>192.79999999999998</ele><time>2026-05-02T15:28:24Z</time></trkpt><trkpt lat="43.24276982776517" lon="11.554541408453037"><ele>191.6</ele><time>2026-05-02T15:28:25Z</time></trkpt><trkpt lat="43.24286734072904" lon="11.55458653124905"><ele>190.4</ele><time>2026-05-02T15:28:26Z</time></trkpt><trkpt lat="43.242979198614286" lon="11.554538436737012"><ele>189.2</ele><time>2026-05-02T15:28:27Z</time></trkpt><trkpt lat="43.24307409929458" lon="11.55455070213566"><ele>188.0</ele><time>2026-05-02T15:28:28Z</time></trkpt><trkpt lat="43.24316672675865" lon="11.554549517384634"><ele>188.0</ele><time>2026-05-02T15:28:29Z</time></trkpt><trkpt lat="43.24326352586517" lon="11.554543418591196"><ele>188.0</ele><time>2026-05-02T15:28:30Z</time></trkpt><trkpt lat="43.24337106517596" lon="11.55453522628156"><ele>188.0</ele><time>2026-05-02T15:28:31Z</time></trkpt><trkpt lat="43.24348121109786" lon="11.554524037631142"><ele>188.0</ele><time>2026-05-02T15:28:32Z</time></trkpt><trkpt lat="43.24360225793432" lon="11.554511601334372"><ele>188.0</ele><time>2026-05-02T15:28:33Z</time></trkpt><trkpt lat="43.24372807621439" lon="11.554495460021021"><ele>188.5</ele><time>2026-05-02T15:28:34Z</time></trkpt><trkpt lat="43.243857121314456" lon="11.554477327519082"><ele>189.0</ele><time>2026-05-02T15:28:35Z</time></trkpt><trkpt lat="43.243989950789675" lon="11.554456780405193"><ele>189.5</ele><time>2026-05-02T15:28:36Z</time></trkpt><trkpt lat="43.24412113057244" lon="11.55443648847262"><ele>190.0</ele><time>2026-05-02T15:28:37Z</time></trkpt><trkpt lat="43.24425252190021" lon="11.554419175162147"><ele>190.0</ele><time>2026-05-02T15:28:38Z</time></trkpt><trkpt lat="43.24438615837454" lon="11.554406950031208"><ele>190.0</ele><time>2026-05-02T15:28:39Z</time></trkpt><trkpt lat="43.24451822635271" lon="11.554395346218582"><ele>190.0</ele><time>2026-05-02T15:28:40Z</time></trkpt><trkpt lat="43.24464829035396" lon="11.554383587457217"><ele>190.0</ele><time>2026-05-02T15:28:41Z</time></trkpt><trkpt lat="43.24477644708352" lon="11.55437200112529"><ele>189.0</ele><time>2026-05-02T15:28:42Z</time></trkpt><trkpt lat="43.24490270141162" lon="11.554357525674652"><ele>188.0</ele><time>2026-05-02T15:28:43Z</time></trkpt><trkpt lat="43.24503215406814" lon="11.554338368820229"><ele>187.0</ele><time>2026-05-02T15:28:44Z</time></trkpt><trkpt lat="43.2451635047995" lon="11.55431749140165"><ele>186.0</ele><time>2026-05-02T15:28:44.999Z</time></trkpt><trkpt lat="43.245297127002274" lon="11.554295720342761"><ele>186.0</ele><time>2026-05-02T15:28:45.999Z</time></trkpt><trkpt lat="43.24543375297005" lon="11.554274412182115"><ele>186.0</ele><time>2026-05-02T15:28:46.999Z</time></trkpt><trkpt lat="43.245571580682544" lon="11.554254299819508"><ele>186.0</ele><time>2026-05-02T15:28:47.999Z</time></trkpt><trkpt lat="43.24571148946239" lon="11.554234072070066"><ele>186.0</ele><time>2026-05-02T15:28:48.999Z</time></trkpt><trkpt lat="43.24585181432558" lon="11.554214867973405"><ele>183.75</ele><time>2026-05-02T15:28:49.999Z</time></trkpt><trkpt lat="43.24599321811006" lon="11.554195516210918"><ele>181.5</ele><time>2026-05-02T15:28:50.999Z</time></trkpt><trkpt lat="43.246133866720044" lon="11.554178964451987"><ele>179.25</ele><time>2026-05-02T15:28:51.999Z</time></trkpt><trkpt lat="43.24627446366544" lon="11.554163685908168"><ele>177.0</ele><time>2026-05-02T15:28:52.999Z</time></trkpt><trkpt lat="43.246412065225435" lon="11.554153661949881"><ele>175.75</ele><time>2026-05-02T15:28:53.999Z</time></trkpt><trkpt lat="43.24654729151997" lon="11.554176181961138"><ele>174.5</ele><time>2026-05-02T15:28:54.999Z</time></trkpt><trkpt lat="43.24667440183372" lon="11.5541965860956"><ele>173.25</ele><time>2026-05-02T15:28:55.999Z</time></trkpt><trkpt lat="43.246793086967934" lon="11.55424158672866"><ele>172.0</ele><time>2026-05-02T15:28:56.999Z</time></trkpt><trkpt lat="43.24691244468949" lon="11.554312746324381"><ele>172.0</ele><time>2026-05-02T15:28:57.999Z</time></trkpt><trkpt lat="43.24703113421344" lon="11.554396342960617"><ele>172.0</ele><time>2026-05-02T15:28:58.999Z</time></trkpt><trkpt lat="43.247141375122084" lon="11.554482390086497"><ele>172.0</ele><time>2026-05-02T15:28:59.999Z</time></trkpt><trkpt lat="43.24725107266617" lon="11.55456404413441"><ele>172.0</ele><time>2026-05-02T15:29:00.999Z</time></trkpt><trkpt lat="43.24736017133796" lon="11.554641052824843"><ele>173.39999999999998</ele><time>2026-05-02T15:29:01.999Z</time></trkpt><trkpt lat="43.247466031889616" lon="11.554715747597987"><ele>174.79999999999998</ele><time>2026-05-02T15:29:02.999Z</time></trkpt><trkpt lat="43.247568524407825" lon="11.554785829971484"><ele>176.2</ele><time>2026-05-02T15:29:03.999Z</time></trkpt><trkpt lat="43.247666160405416" lon="11.55485399899521"><ele>177.6</ele><time>2026-05-02T15:29:04.999Z</time></trkpt><trkpt lat="43.247753990830645" lon="11.554925359334373"><ele>179.0</ele><time>2026-05-02T15:29:05.999Z</time></trkpt><trkpt lat="43.247831401751476" lon="11.555001943443274"><ele>179.0</ele><time>2026-05-02T15:29:06.999Z</time></trkpt><trkpt lat="43.24789136102443" lon="11.555095366628677"><ele>179.0</ele><time>2026-05-02T15:29:07.999Z</time></trkpt><trkpt lat="43.2479501338975" lon="11.555200070153775"><ele>179.0</ele><time>2026-05-02T15:29:08.999Z</time></trkpt><trkpt lat="43.24801250462603" lon="11.555310910706748"><ele>179.0</ele><time>2026-05-02T15:29:09.999Z</time></trkpt><trkpt lat="43.24807619614408" lon="11.555413308882132"><ele>179.0</ele><time>2026-05-02T15:29:10.999Z</time></trkpt><trkpt lat="43.2481449581215" lon="11.555510383336895"><ele>180.6</ele><time>2026-05-02T15:29:11.999Z</time></trkpt><trkpt lat="43.24822468158142" lon="11.555598969878478"><ele>182.2</ele><time>2026-05-02T15:29:12.999Z</time></trkpt><trkpt lat="43.24831092357268" lon="11.555680319164606"><ele>183.79999999999998</ele><time>2026-05-02T15:29:13.999Z</time></trkpt><trkpt lat="43.24840001889549" lon="11.555758344897539"><ele>185.39999999999998</ele><time>2026-05-02T15:29:14.999Z</time></trkpt><trkpt lat="43.24849034660848" lon="11.555833327320176"><ele>187.0</ele><time>2026-05-02T15:29:15.999Z</time></trkpt><trkpt lat="43.24858096015935" lon="11.55590895301481"><ele>187.0</ele><time>2026-05-02T15:29:16.999Z</time></trkpt><trkpt lat="43.24867405231493" lon="11.55598206849181"><ele>187.0</ele><time>2026-05-02T15:29:17.999Z</time></trkpt><trkpt lat="43.248769749764485" lon="11.556052160922494"><ele>187.0</ele><time>2026-05-02T15:29:18.999Z</time></trkpt><trkpt lat="43.24886785337185" lon="11.55610344078942"><ele>187.0</ele><time>2026-05-02T15:29:19.999Z</time></trkpt><trkpt lat="43.248964837078276" lon="11.556125131984594"><ele>187.0</ele><time>2026-05-02T15:29:20.999Z</time></trkpt><trkpt lat="43.249068314024925" lon="11.55613144687642"><ele>189.25</ele><time>2026-05-02T15:29:21.999Z</time></trkpt><trkpt lat="43.24917882052915" lon="11.556109078643166"><ele>191.5</ele><time>2026-05-02T15:29:22.999Z</time></trkpt><trkpt lat="43.2492929771873" lon="11.556079047536896"><ele>193.75</ele><time>2026-05-02T15:29:23.999Z</time></trkpt><trkpt lat="43.24940727267486" lon="11.556051889401145"><ele>196.0</ele><time>2026-05-02T15:29:25Z</time></trkpt><trkpt lat="43.249524034933614" lon="11.55603365361738"><ele>196.0</ele><time>2026-05-02T15:29:26Z</time></trkpt><trkpt lat="43.249644848414505" lon="11.556026009515953"><ele>196.0</ele><time>2026-05-02T15:29:27Z</time></trkpt><trkpt lat="43.249763584008925" lon="11.556027279684999"><ele>196.0</ele><time>2026-05-02T15:29:28Z</time></trkpt><trkpt lat="43.2498769483719" lon="11.556013093169797"><ele>196.0</ele><time>2026-05-02T15:29:29Z</time></trkpt><trkpt lat="43.24998266357006" lon="11.55599917638396"><ele>196.75</ele><time>2026-05-02T15:29:30Z</time></trkpt><trkpt lat="43.25009025146289" lon="11.555951645608875"><ele>197.5</ele><time>2026-05-02T15:29:31Z</time></trkpt><trkpt lat="43.25019396176566" lon="11.555880526904662"><ele>198.25</ele><time>2026-05-02T15:29:32Z</time></trkpt><trkpt lat="43.25029303160188" lon="11.555799450292922"><ele>199.0</ele><time>2026-05-02T15:29:33Z</time></trkpt><trkpt lat="43.25039120270474" lon="11.555706714892391"><ele>199.0</ele><time>2026-05-02T15:29:34Z</time></trkpt><trkpt lat="43.250489368553694" lon="11.555604994225256"><ele>199.0</ele><time>2026-05-02T15:29:35Z</time></trkpt><trkpt lat="43.250580749079454" lon="11.555497937905136"><ele>199.0</ele><time>2026-05-02T15:29:36Z</time></trkpt><trkpt lat="43.25067503886" lon="11.555391747870047"><ele>199.0</ele><time>2026-05-02T15:29:37Z</time></trkpt><trkpt lat="43.25076968456576" lon="11.555285531043976"><ele>203.0</ele><time>2026-05-02T15:29:38Z</time></trkpt><trkpt lat="43.250868293815564" lon="11.555182070346032"><ele>207.0</ele><time>2026-05-02T15:29:39Z</time></trkpt><trkpt lat="43.25097129719366" lon="11.555078039432404"><ele>211.0</ele><time>2026-05-02T15:29:40Z</time></trkpt><trkpt lat="43.2510888337567" lon="11.555012336543314"><ele>215.0</ele><time>2026-05-02T15:29:41Z</time></trkpt><trkpt lat="43.25120520144621" lon="11.554949837086363"><ele>215.0</ele><time>2026-05-02T15:29:42Z</time></trkpt><trkpt lat="43.25132829575353" lon="11.554892759217742"><ele>215.0</ele><time>2026-05-02T15:29:43Z</time></trkpt><trkpt lat="43.251451818525915" lon="11.554846735510313"><ele>215.0</ele><time>2026-05-02T15:29:44Z</time></trkpt><trkpt lat="43.25157421085056" lon="11.554802668756365"><ele>215.0</ele><time>2026-05-02T15:29:45Z</time></trkpt><trkpt lat="43.251694631240746" lon="11.55476290546035"><ele>214.6</ele><time>2026-05-02T15:29:46Z</time></trkpt><trkpt lat="43.2518121022802" lon="11.554718866885084"><ele>214.2</ele><time>2026-05-02T15:29:47Z</time></trkpt><trkpt lat="43.25192052362902" lon="11.554667181180907"><ele>213.8</ele><time>2026-05-02T15:29:48Z</time></trkpt><trkpt lat="43.252026339911794" lon="11.554668973306407"><ele>213.4</ele><time>2026-05-02T15:29:49Z</time></trkpt><trkpt lat="43.25212149357691" lon="11.554658700613476"><ele>213.0</ele><time>2026-05-02T15:29:50Z</time></trkpt><trkpt lat="43.2522098459184" lon="11.554655167468546"><ele>213.25</ele><time>2026-05-02T15:29:51Z</time></trkpt><trkpt lat="43.2523148204608" lon="11.554675711803212"><ele>213.5</ele><time>2026-05-02T15:29:52Z</time></trkpt><trkpt lat="43.252429498606574" lon="11.554718937250291"><ele>213.75</ele><time>2026-05-02T15:29:53Z</time></trkpt><trkpt lat="43.25254732678575" lon="11.554752840159892"><ele>214.0</ele><time>2026-05-02T15:29:54Z</time></trkpt><trkpt lat="43.252663781470325" lon="11.554772033151446"><ele>214.0</ele><time>2026-05-02T15:29:55Z</time></trkpt><trkpt lat="43.25277918527833" lon="11.5547687897017"><ele>214.0</ele><time>2026-05-02T15:29:56Z</time></trkpt><trkpt lat="43.25289713336069" lon="11.554749168484157"><ele>214.0</ele><time>2026-05-02T15:29:57Z</time></trkpt><trkpt lat="43.25301547369798" lon="11.554723687050538"><ele>214.0</ele><time>2026-05-02T15:29:58Z</time></trkpt><trkpt lat="43.25313269664713" lon="11.554689380115892"><ele>215.6</ele><time>2026-05-02T15:29:59Z</time></trkpt><trkpt lat="43.253248312782205" lon="11.554642904417737"><ele>217.2</ele><time>2026-05-02T15:30:00Z</time></trkpt><trkpt lat="43.253354010218075" lon="11.554585687860913"><ele>218.79999999999998</ele><time>2026-05-02T15:30:01Z</time></trkpt><trkpt lat="43.253450977031775" lon="11.554522372244094"><ele>220.39999999999998</ele><time>2026-05-02T15:30:02Z</time></trkpt><trkpt lat="43.253542601026446" lon="11.554459712845187"><ele>222.0</ele><time>2026-05-02T15:30:03Z</time></trkpt><trkpt lat="43.253625196283586" lon="11.554402115935133"><ele>224.0</ele><time>2026-05-02T15:30:04Z</time></trkpt><trkpt lat="43.25370906034447" lon="11.554330710296856"><ele>226.0</ele><time>2026-05-02T15:30:05Z</time></trkpt><trkpt lat="43.25379674812481" lon="11.554256812325635"><ele>228.0</ele><time>2026-05-02T15:30:06Z</time></trkpt><trkpt lat="43.25388078127783" lon="11.55417366354119"><ele>230.0</ele><time>2026-05-02T15:30:07Z</time></trkpt><trkpt lat="43.25395425081266" lon="11.554071908951187"><ele>232.0</ele><time>2026-05-02T15:30:08Z</time></trkpt><trkpt lat="43.254009536815076" lon="11.553955601209966"><ele>232.6</ele><time>2026-05-02T15:30:09Z</time></trkpt><trkpt lat="43.25404919473062" lon="11.553833824842405"><ele>233.2</ele><time>2026-05-02T15:30:10Z</time></trkpt><trkpt lat="43.25407080743514" lon="11.553703103001395"><ele>233.8</ele><time>2026-05-02T15:30:11Z</time></trkpt><trkpt lat="43.254083102643996" lon="11.55356422726247"><ele>234.4</ele><time>2026-05-02T15:30:12Z</time></trkpt><trkpt lat="43.25409520531545" lon="11.553421462027815"><ele>235.0</ele><time>2026-05-02T15:30:13Z</time></trkpt><trkpt lat="43.2541278582587" lon="11.553273738959673"><ele>237.0</ele><time>2026-05-02T15:30:14Z</time></trkpt><trkpt lat="43.254174199389325" lon="11.553150339276595"><ele>239.0</ele><time>2026-05-02T15:30:15Z</time></trkpt><trkpt lat="43.25423308219046" lon="11.553035223098254"><ele>241.0</ele><time>2026-05-02T15:30:16Z</time></trkpt><trkpt lat="43.25433691416494" lon="11.552993961297934"><ele>243.0</ele><time>2026-05-02T15:30:17Z</time></trkpt><trkpt lat="43.25443205481639" lon="11.552975703590736"><ele>245.0</ele><time>2026-05-02T15:30:18Z</time></trkpt><trkpt lat="43.25454056793757" lon="11.552977057336152"><ele>245.0</ele><time>2026-05-02T15:30:19Z</time></trkpt><trkpt lat="43.2546731669553" lon="11.552973576543836"><ele>245.0</ele><time>2026-05-02T15:30:20Z</time></trkpt><trkpt lat="43.25482761724801" lon="11.55296346609355"><ele>245.0</ele><time>2026-05-02T15:30:21Z</time></trkpt><trkpt lat="43.254991058287686" lon="11.55294828002042"><ele>245.75</ele><time>2026-05-02T15:30:22Z</time></trkpt><trkpt lat="43.255147874882304" lon="11.55293596215299"><ele>246.5</ele><time>2026-05-02T15:30:23Z</time></trkpt><trkpt lat="43.255279174831216" lon="11.552934386800535"><ele>247.25</ele><time>2026-05-02T15:30:24Z</time></trkpt><trkpt lat="43.255402492018185" lon="11.552941152496567"><ele>248.0</ele><time>2026-05-02T15:30:25Z</time></trkpt><trkpt lat="43.255515594662064" lon="11.552954944645052"><ele>249.0</ele><time>2026-05-02T15:30:26Z</time></trkpt><trkpt lat="43.25563370168983" lon="11.552983943601026"><ele>250.0</ele><time>2026-05-02T15:30:27Z</time></trkpt><trkpt lat="43.25575116095346" lon="11.553040264492322"><ele>251.0</ele><time>2026-05-02T15:30:28Z</time></trkpt><trkpt lat="43.25587139511218" lon="11.553110809659115"><ele>252.0</ele><time>2026-05-02T15:30:29Z</time></trkpt><trkpt lat="43.25599419184864" lon="11.553188899715606"><ele>252.0</ele><time>2026-05-02T15:30:30Z</time></trkpt><trkpt lat="43.25611943646788" lon="11.553269876901542"><ele>252.0</ele><time>2026-05-02T15:30:31Z</time></trkpt><trkpt lat="43.25624671833518" lon="11.55334942886487"><ele>252.0</ele><time>2026-05-02T15:30:32Z</time></trkpt><trkpt lat="43.256373474416186" lon="11.553433923261059"><ele>252.0</ele><time>2026-05-02T15:30:33Z</time></trkpt><trkpt lat="43.25649592328451" lon="11.553517756315502"><ele>251.75</ele><time>2026-05-02T15:30:34Z</time></trkpt><trkpt lat="43.25661263745365" lon="11.553602253015962"><ele>251.5</ele><time>2026-05-02T15:30:35Z</time></trkpt><trkpt lat="43.25672792308555" lon="11.553676704083296"><ele>251.25</ele><time>2026-05-02T15:30:36Z</time></trkpt><trkpt lat="43.25684382601666" lon="11.5537210675158"><ele>251.0</ele><time>2026-05-02T15:30:37Z</time></trkpt><trkpt lat="43.25696209464539" lon="11.553744273015836"><ele>251.25</ele><time>2026-05-02T15:30:38Z</time></trkpt><trkpt lat="43.25708476566037" lon="11.553739252550216"><ele>251.5</ele><time>2026-05-02T15:30:39Z</time></trkpt><trkpt lat="43.25720707988152" lon="11.553722242620008"><ele>251.75</ele><time>2026-05-02T15:30:40Z</time></trkpt><trkpt lat="43.25732465738282" lon="11.553688529796645"><ele>252.0</ele><time>2026-05-02T15:30:41Z</time></trkpt><trkpt lat="43.257439879165055" lon="11.553650593417558"><ele>252.0</ele><time>2026-05-02T15:30:42Z</time></trkpt><trkpt lat="43.25755354979367" lon="11.553610790039258"><ele>252.0</ele><time>2026-05-02T15:30:43Z</time></trkpt><trkpt lat="43.25766609947989" lon="11.55356398068558"><ele>252.0</ele><time>2026-05-02T15:30:44Z</time></trkpt><trkpt lat="43.25777533043661" lon="11.553507790354473"><ele>252.0</ele><time>2026-05-02T15:30:45Z</time></trkpt><trkpt lat="43.25788135414867" lon="11.553444800617662"><ele>252.0</ele><time>2026-05-02T15:30:46Z</time></trkpt><trkpt lat="43.257987774998654" lon="11.553390806366167"><ele>252.0</ele><time>2026-05-02T15:30:46.999Z</time></trkpt><trkpt lat="43.258096342534486" lon="11.553345362435353"><ele>252.0</ele><time>2026-05-02T15:30:47.999Z</time></trkpt><trkpt lat="43.258206747184" lon="11.553307975403648"><ele>252.0</ele><time>2026-05-02T15:30:48.999Z</time></trkpt><trkpt lat="43.25832416925444" lon="11.553279269032128"><ele>252.0</ele><time>2026-05-02T15:30:49.999Z</time></trkpt><trkpt lat="43.25844597064116" lon="11.5532488517447"><ele>252.0</ele><time>2026-05-02T15:30:50.999Z</time></trkpt><trkpt lat="43.25857070922877" lon="11.553219275160986"><ele>252.0</ele><time>2026-05-02T15:30:51.999Z</time></trkpt><trkpt lat="43.25869809307207" lon="11.55319065598663"><ele>252.0</ele><time>2026-05-02T15:30:52.999Z</time></trkpt><trkpt lat="43.25882468252179" lon="11.553155146343043"><ele>252.0</ele><time>2026-05-02T15:30:53.999Z</time></trkpt><trkpt lat="43.2589467121266" lon="11.553098764539085"><ele>252.0</ele><time>2026-05-02T15:30:54.999Z</time></trkpt><trkpt lat="43.25905586854909" lon="11.553013773193685"><ele>252.0</ele><time>2026-05-02T15:30:55.999Z</time></trkpt><trkpt lat="43.259160303853136" lon="11.55290607326708"><ele>252.0</ele><time>2026-05-02T15:30:56.999Z</time></trkpt><trkpt lat="43.259261923119865" lon="11.552785822138489"><ele>250.5</ele><time>2026-05-02T15:30:57.999Z</time></trkpt><trkpt lat="43.259358540139665" lon="11.552658353457764"><ele>249.0</ele><time>2026-05-02T15:30:58.999Z</time></trkpt><trkpt lat="43.25944060171284" lon="11.552517159236253"><ele>247.5</ele><time>2026-05-02T15:30:59.999Z</time></trkpt><trkpt lat="43.259504670438346" lon="11.552348567245462"><ele>246.0</ele><time>2026-05-02T15:31:00.999Z</time></trkpt><trkpt lat="43.25956113512547" lon="11.552166128938481"><ele>246.0</ele><time>2026-05-02T15:31:01.999Z</time></trkpt><trkpt lat="43.25960670929508" lon="11.551989506820524"><ele>246.0</ele><time>2026-05-02T15:31:02.999Z</time></trkpt><trkpt lat="43.25964871313519" lon="11.551825711020385"><ele>246.0</ele><time>2026-05-02T15:31:03.999Z</time></trkpt><trkpt lat="43.25968744739531" lon="11.55167348330221"><ele>246.0</ele><time>2026-05-02T15:31:04.999Z</time></trkpt><trkpt lat="43.259720889346546" lon="11.55154920005286"><ele>246.0</ele><time>2026-05-02T15:31:05.999Z</time></trkpt><trkpt lat="43.25974255835083" lon="11.551443761679678"><ele>246.00000000000003</ele><time>2026-05-02T15:31:06.999Z</time></trkpt><trkpt lat="43.25976603374759" lon="11.551328593917654"><ele>246.00000000000003</ele><time>2026-05-02T15:31:07.999Z</time></trkpt><trkpt lat="43.2598036720589" lon="11.551197271679357"><ele>246.0</ele><time>2026-05-02T15:31:08.999Z</time></trkpt><trkpt lat="43.25985216355918" lon="11.551066628117908"><ele>246.0</ele><time>2026-05-02T15:31:09.999Z</time></trkpt><trkpt lat="43.25990797084754" lon="11.550950957203284"><ele>246.4</ele><time>2026-05-02T15:31:10.999Z</time></trkpt><trkpt lat="43.25996773501391" lon="11.550838845630329"><ele>246.8</ele><time>2026-05-02T15:31:11.999Z</time></trkpt><trkpt lat="43.260028303241164" lon="11.550724510895463"><ele>247.20000000000002</ele><time>2026-05-02T15:31:12.999Z</time></trkpt><trkpt lat="43.260093435673" lon="11.550606755622166"><ele>247.60000000000002</ele><time>2026-05-02T15:31:13.999Z</time></trkpt><trkpt lat="43.260163860276045" lon="11.550485919414905"><ele>248.0</ele><time>2026-05-02T15:31:14.999Z</time></trkpt><trkpt lat="43.2602403909297" lon="11.550361936760734"><ele>246.25</ele><time>2026-05-02T15:31:15.999Z</time></trkpt><trkpt lat="43.260327407758915" lon="11.550245098018884"><ele>244.5</ele><time>2026-05-02T15:31:16.999Z</time></trkpt><trkpt lat="43.26042679256942" lon="11.550143123422934"><ele>242.75</ele><time>2026-05-02T15:31:17.999Z</time></trkpt><trkpt lat="43.26054536040044" lon="11.550062315744391"><ele>241.0</ele><time>2026-05-02T15:31:18.999Z</time></trkpt><trkpt lat="43.26067983051582" lon="11.550000691191626"><ele>239.0</ele><time>2026-05-02T15:31:19.999Z</time></trkpt><trkpt lat="43.26082458216981" lon="11.549959227051279"><ele>237.0</ele><time>2026-05-02T15:31:20.999Z</time></trkpt><trkpt lat="43.260961800190024" lon="11.549938534567474"><ele>235.0</ele><time>2026-05-02T15:31:21.999Z</time></trkpt><trkpt lat="43.26109502786999" lon="11.549976431764211"><ele>233.0</ele><time>2026-05-02T15:31:22.999Z</time></trkpt><trkpt lat="43.261228398562416" lon="11.549997238804142"><ele>233.0</ele><time>2026-05-02T15:31:23.999Z</time></trkpt><trkpt lat="43.261352364619185" lon="11.549983790159928"><ele>233.0</ele><time>2026-05-02T15:31:24.999Z</time></trkpt><trkpt lat="43.26145910407416" lon="11.549974678336978"><ele>233.0</ele><time>2026-05-02T15:31:25.999Z</time></trkpt><trkpt lat="43.26155465034585" lon="11.549958427791676"><ele>233.0</ele><time>2026-05-02T15:31:26.999Z</time></trkpt><trkpt lat="43.261649708999755" lon="11.549929043719956"><ele>233.0</ele><time>2026-05-02T15:31:27.999Z</time></trkpt><trkpt lat="43.261739710138826" lon="11.549888200020792"><ele>233.33333333333334</ele><time>2026-05-02T15:31:28.999Z</time></trkpt><trkpt lat="43.26182517491302" lon="11.549840550894768"><ele>233.66666666666669</ele><time>2026-05-02T15:31:29.999Z</time></trkpt><trkpt lat="43.261901237395456" lon="11.549781925570166"><ele>234.0</ele><time>2026-05-02T15:31:31Z</time></trkpt><trkpt lat="43.26196560280904" lon="11.549718865583415"><ele>234.33333333333331</ele><time>2026-05-02T15:31:32Z</time></trkpt><trkpt lat="43.262017542547866" lon="11.549664225107843"><ele>234.66666666666666</ele><time>2026-05-02T15:31:33Z</time></trkpt><trkpt lat="43.2621112098999" lon="11.549566527511512"><ele>235.0</ele><time>2026-05-02T15:31:35Z</time></trkpt><trkpt lat="43.262212905464835" lon="11.549465001486514"><ele>235.33333333333331</ele><time>2026-05-02T15:31:37Z</time></trkpt><trkpt lat="43.26226836955704" lon="11.549409994019843"><ele>235.66666666666666</ele><time>2026-05-02T15:31:38Z</time></trkpt><trkpt lat="43.26232489263468" lon="11.549348225219234"><ele>236.0</ele><time>2026-05-02T15:31:39Z</time></trkpt><trkpt lat="43.262380690080015" lon="11.549277706396609"><ele>236.33333333333331</ele><time>2026-05-02T15:31:40Z</time></trkpt><trkpt lat="43.262437531374246" lon="11.549206092280757"><ele>236.66666666666666</ele><time>2026-05-02T15:31:41Z</time></trkpt><trkpt lat="43.26249478836861" lon="11.549129174885586"><ele>237.0</ele><time>2026-05-02T15:31:42Z</time></trkpt><trkpt lat="43.26255213700277" lon="11.549040916049588"><ele>238.8</ele><time>2026-05-02T15:31:43Z</time></trkpt><trkpt lat="43.26261049531366" lon="11.548947148158401"><ele>240.6</ele><time>2026-05-02T15:31:44Z</time></trkpt><trkpt lat="43.262666564505714" lon="11.548848647190363"><ele>242.40000000000003</ele><time>2026-05-02T15:31:45Z</time></trkpt><trkpt lat="43.26271603596067" lon="11.548733879267546"><ele>244.20000000000002</ele><time>2026-05-02T15:31:46Z</time></trkpt><trkpt lat="43.262770089593445" lon="11.548620142455274"><ele>246.0</ele><time>2026-05-02T15:31:47Z</time></trkpt><trkpt lat="43.26283031589955" lon="11.548509001579482"><ele>247.60000000000002</ele><time>2026-05-02T15:31:48Z</time></trkpt><trkpt lat="43.26289508959061" lon="11.548407078489294"><ele>249.20000000000002</ele><time>2026-05-02T15:31:49Z</time></trkpt><trkpt lat="43.26295712205411" lon="11.54830984814426"><ele>250.79999999999998</ele><time>2026-05-02T15:31:50Z</time></trkpt><trkpt lat="43.263010491198834" lon="11.54820320392128"><ele>252.39999999999998</ele><time>2026-05-02T15:31:51Z</time></trkpt><trkpt lat="43.26305688999725" lon="11.548084496446537"><ele>254.0</ele><time>2026-05-02T15:31:52Z</time></trkpt><trkpt lat="43.26310243635493" lon="11.547961627595924"><ele>256.0</ele><time>2026-05-02T15:31:53Z</time></trkpt><trkpt lat="43.26314723229001" lon="11.547841620389244"><ele>258.0</ele><time>2026-05-02T15:31:54Z</time></trkpt><trkpt lat="43.26319407541058" lon="11.54771924114803"><ele>260.0</ele><time>2026-05-02T15:31:55Z</time></trkpt><trkpt lat="43.263250337066836" lon="11.547603635331589"><ele>262.0</ele><time>2026-05-02T15:31:56Z</time></trkpt><trkpt lat="43.26331115106279" lon="11.547494893922586"><ele>264.0</ele><time>2026-05-02T15:31:57Z</time></trkpt><trkpt lat="43.26338169681225" lon="11.547392947498754"><ele>264.0</ele><time>2026-05-02T15:31:58Z</time></trkpt><trkpt lat="43.263452980234575" lon="11.547310428644767"><ele>264.0</ele><time>2026-05-02T15:31:59Z</time></trkpt><trkpt lat="43.2635198400349" lon="11.547233961655639"><ele>264.0</ele><time>2026-05-02T15:32:00Z</time></trkpt><trkpt lat="43.26359354304842" lon="11.547158370336355"><ele>264.0</ele><time>2026-05-02T15:32:01Z</time></trkpt><trkpt lat="43.263676656462465" lon="11.547086165030098"><ele>264.0</ele><time>2026-05-02T15:32:02Z</time></trkpt><trkpt lat="43.263763669870634" lon="11.547008984513983"><ele>264.0</ele><time>2026-05-02T15:32:03Z</time></trkpt><trkpt lat="43.263852512871566" lon="11.54692430042575"><ele>264.0</ele><time>2026-05-02T15:32:04Z</time></trkpt><trkpt lat="43.263945793731324" lon="11.546835111327324"><ele>264.0</ele><time>2026-05-02T15:32:05Z</time></trkpt><trkpt lat="43.26404416502393" lon="11.546740674128776"><ele>264.0</ele><time>2026-05-02T15:32:06Z</time></trkpt><trkpt lat="43.264142587360155" lon="11.546641974825736"><ele>264.0</ele><time>2026-05-02T15:32:07Z</time></trkpt><trkpt lat="43.26423686383472" lon="11.546537523942678"><ele>264.0</ele><time>2026-05-02T15:32:08Z</time></trkpt><trkpt lat="43.264322452859" lon="11.546421008761847"><ele>264.0</ele><time>2026-05-02T15:32:09Z</time></trkpt><trkpt lat="43.26439579161439" lon="11.5462936525914"><ele>264.0</ele><time>2026-05-02T15:32:10Z</time></trkpt><trkpt lat="43.264451989531636" lon="11.546152842919188"><ele>267.0</ele><time>2026-05-02T15:32:11Z</time></trkpt><trkpt lat="43.26449874670419" lon="11.546001627339066"><ele>270.0</ele><time>2026-05-02T15:32:12Z</time></trkpt><trkpt lat="43.26453542337156" lon="11.545846824273706"><ele>273.0</ele><time>2026-05-02T15:32:13Z</time></trkpt><trkpt lat="43.26456483141484" lon="11.545695220381203"><ele>276.0</ele><time>2026-05-02T15:32:14Z</time></trkpt><trkpt lat="43.26458927464317" lon="11.545551547089179"><ele>276.0</ele><time>2026-05-02T15:32:15Z</time></trkpt><trkpt lat="43.26461210788714" lon="11.545409125004817"><ele>276.0</ele><time>2026-05-02T15:32:16Z</time></trkpt><trkpt lat="43.26463055040191" lon="11.545269439237615"><ele>276.0</ele><time>2026-05-02T15:32:17Z</time></trkpt><trkpt lat="43.26464854689259" lon="11.54513966554817"><ele>276.0</ele><time>2026-05-02T15:32:18Z</time></trkpt><trkpt lat="43.26466583943628" lon="11.54501532941984"><ele>276.0</ele><time>2026-05-02T15:32:19Z</time></trkpt><trkpt lat="43.26468621933247" lon="11.544893614709668"><ele>276.2</ele><time>2026-05-02T15:32:20Z</time></trkpt><trkpt lat="43.26470942954226" lon="11.544773416263608"><ele>276.40000000000003</ele><time>2026-05-02T15:32:21Z</time></trkpt><trkpt lat="43.26474186547947" lon="11.544656920476914"><ele>276.6</ele><time>2026-05-02T15:32:22Z</time></trkpt><trkpt lat="43.26478391882378" lon="11.544539806383424"><ele>276.8</ele><time>2026-05-02T15:32:23Z</time></trkpt><trkpt lat="43.264841944023466" lon="11.544430821420242"><ele>277.0</ele><time>2026-05-02T15:32:24Z</time></trkpt><trkpt lat="43.26491269173477" lon="11.544327834801914"><ele>272.2</ele><time>2026-05-02T15:32:25Z</time></trkpt><trkpt lat="43.26497844466976" lon="11.544218470607907"><ele>267.4</ele><time>2026-05-02T15:32:26Z</time></trkpt><trkpt lat="43.26503526951377" lon="11.544095019571278"><ele>262.6</ele><time>2026-05-02T15:32:27Z</time></trkpt><trkpt lat="43.26508663520383" lon="11.543962788135426"><ele>257.8</ele><time>2026-05-02T15:32:28Z</time></trkpt><trkpt lat="43.265133715886506" lon="11.54382258187831"><ele>253.0</ele><time>2026-05-02T15:32:29Z</time></trkpt><trkpt lat="43.26517972078187" lon="11.543678248836462"><ele>250.75</ele><time>2026-05-02T15:32:30Z</time></trkpt><trkpt lat="43.265216452918516" lon="11.543530923836997"><ele>248.5</ele><time>2026-05-02T15:32:31Z</time></trkpt><trkpt lat="43.26524119145349" lon="11.54335558685576"><ele>246.25</ele><time>2026-05-02T15:32:32Z</time></trkpt><trkpt lat="43.26524285535166" lon="11.543165692746147"><ele>244.0</ele><time>2026-05-02T15:32:33Z</time></trkpt><trkpt lat="43.265225165148976" lon="11.542964263584881"><ele>241.66666666666666</ele><time>2026-05-02T15:32:34Z</time></trkpt><trkpt lat="43.26521604161488" lon="11.542742287318008"><ele>239.33333333333331</ele><time>2026-05-02T15:32:35Z</time></trkpt><trkpt lat="43.26523628507837" lon="11.54252533026215"><ele>237.0</ele><time>2026-05-02T15:32:36Z</time></trkpt><trkpt lat="43.265288661858236" lon="11.542316276921627"><ele>237.0</ele><time>2026-05-02T15:32:37Z</time></trkpt><trkpt lat="43.26536272164244" lon="11.542110899318697"><ele>237.0</ele><time>2026-05-02T15:32:38Z</time></trkpt><trkpt lat="43.26543327328029" lon="11.541894926395864"><ele>237.0</ele><time>2026-05-02T15:32:39Z</time></trkpt><trkpt lat="43.26545469811009" lon="11.54176172757638"><ele>237.0</ele><time>2026-05-02T15:32:40Z</time></trkpt><trkpt lat="43.265502443565026" lon="11.541544191922682"><ele>237.33333333333331</ele><time>2026-05-02T15:32:41Z</time></trkpt><trkpt lat="43.26553117454876" lon="11.541318484962366"><ele>237.66666666666666</ele><time>2026-05-02T15:32:42Z</time></trkpt><trkpt lat="43.265552663049775" lon="11.541105117715606"><ele>238.0</ele><time>2026-05-02T15:32:43Z</time></trkpt><trkpt lat="43.265564938923085" lon="11.540910742369812"><ele>238.0</ele><time>2026-05-02T15:32:44Z</time></trkpt><trkpt lat="43.265587321484276" lon="11.540713314937404"><ele>238.0</ele><time>2026-05-02T15:32:45Z</time></trkpt><trkpt lat="43.2656311081533" lon="11.540567518385764"><ele>238.0</ele><time>2026-05-02T15:32:46Z</time></trkpt><trkpt lat="43.2656927108818" lon="11.540459242522365"><ele>238.0</ele><time>2026-05-02T15:32:46.999Z</time></trkpt><trkpt lat="43.26576100731795" lon="11.540355829483515"><ele>240.25</ele><time>2026-05-02T15:32:47.999Z</time></trkpt><trkpt lat="43.265850056713504" lon="11.54021493497538"><ele>242.5</ele><time>2026-05-02T15:32:48.999Z</time></trkpt><trkpt lat="43.26594412499169" lon="11.540085944400806"><ele>244.75</ele><time>2026-05-02T15:32:49.999Z</time></trkpt><trkpt lat="43.266023376170885" lon="11.539955564744874"><ele>247.0</ele><time>2026-05-02T15:32:50.999Z</time></trkpt><trkpt lat="43.26610058166616" lon="11.539839427070676"><ele>247.0</ele><time>2026-05-02T15:32:51.999Z</time></trkpt><trkpt lat="43.26618006230988" lon="11.539727659578856"><ele>247.0</ele><time>2026-05-02T15:32:52.999Z</time></trkpt><trkpt lat="43.2662586672711" lon="11.539615850530081"><ele>247.0</ele><time>2026-05-02T15:32:53.999Z</time></trkpt><trkpt lat="43.26632600399682" lon="11.539503830115788"><ele>247.0</ele><time>2026-05-02T15:32:54.999Z</time></trkpt><trkpt lat="43.26639484447489" lon="11.53939427825106"><ele>247.0</ele><time>2026-05-02T15:32:55.999Z</time></trkpt><trkpt lat="43.26645402417165" lon="11.53928457130312"><ele>245.2</ele><time>2026-05-02T15:32:56.999Z</time></trkpt><trkpt lat="43.26651694410912" lon="11.539174419452634"><ele>243.39999999999998</ele><time>2026-05-02T15:32:57.999Z</time></trkpt><trkpt lat="43.26658915336003" lon="11.539086808013966"><ele>241.60000000000002</ele><time>2026-05-02T15:32:58.999Z</time></trkpt><trkpt lat="43.26667478162322" lon="11.539010775038491"><ele>239.8</ele><time>2026-05-02T15:32:59.999Z</time></trkpt><trkpt lat="43.266772564798" lon="11.538985810157886"><ele>238.0</ele><time>2026-05-02T15:33:00.999Z</time></trkpt><trkpt lat="43.26686842926447" lon="11.538932564326347"><ele>238.0</ele><time>2026-05-02T15:33:01.999Z</time></trkpt><trkpt lat="43.26697408042629" lon="11.538887697489635"><ele>238.0</ele><time>2026-05-02T15:33:02.999Z</time></trkpt><trkpt lat="43.26708142179808" lon="11.53883848005362"><ele>238.0</ele><time>2026-05-02T15:33:03.999Z</time></trkpt><trkpt lat="43.267194925420554" lon="11.538777480186926"><ele>238.0</ele><time>2026-05-02T15:33:04.999Z</time></trkpt><trkpt lat="43.267310490455834" lon="11.538705177646952"><ele>237.0</ele><time>2026-05-02T15:33:05.999Z</time></trkpt><trkpt lat="43.26741349576021" lon="11.53861385211741"><ele>236.0</ele><time>2026-05-02T15:33:06.999Z</time></trkpt><trkpt lat="43.26752484515678" lon="11.538536835582702"><ele>235.0</ele><time>2026-05-02T15:33:07.999Z</time></trkpt><trkpt lat="43.26761829098403" lon="11.538472165176726"><ele>234.0</ele><time>2026-05-02T15:33:08.999Z</time></trkpt><trkpt lat="43.2676989025214" lon="11.53841637679931"><ele>233.0</ele><time>2026-05-02T15:33:09.999Z</time></trkpt><trkpt lat="43.26778018176123" lon="11.538360126488701"><ele>233.0</ele><time>2026-05-02T15:33:10.999Z</time></trkpt><trkpt lat="43.26787282827282" lon="11.538318346708834"><ele>233.0</ele><time>2026-05-02T15:33:11.999Z</time></trkpt><trkpt lat="43.26797861356272" lon="11.538185209543741"><ele>233.0</ele><time>2026-05-02T15:33:12.999Z</time></trkpt><trkpt lat="43.26807334152501" lon="11.538120981361585"><ele>233.0</ele><time>2026-05-02T15:33:13.999Z</time></trkpt><trkpt lat="43.26818143078641" lon="11.538047094239179"><ele>230.4</ele><time>2026-05-02T15:33:14.999Z</time></trkpt><trkpt lat="43.26828087115703" lon="11.537978326134875"><ele>227.8</ele><time>2026-05-02T15:33:15.999Z</time></trkpt><trkpt lat="43.26837632970713" lon="11.537909062815539"><ele>225.2</ele><time>2026-05-02T15:33:16.999Z</time></trkpt><trkpt lat="43.26847819696385" lon="11.537837412984835"><ele>222.6</ele><time>2026-05-02T15:33:17.999Z</time></trkpt><trkpt lat="43.26857958105006" lon="11.537771161605198"><ele>220.0</ele><time>2026-05-02T15:33:18.999Z</time></trkpt><trkpt lat="43.26867181543471" lon="11.537720088492089"><ele>219.4</ele><time>2026-05-02T15:33:19.999Z</time></trkpt><trkpt lat="43.26877792187353" lon="11.537694334630991"><ele>218.8</ele><time>2026-05-02T15:33:20.999Z</time></trkpt><trkpt lat="43.26888328361924" lon="11.537732668405058"><ele>218.2</ele><time>2026-05-02T15:33:21.999Z</time></trkpt><trkpt lat="43.26899174514315" lon="11.537761913434"><ele>217.6</ele><time>2026-05-02T15:33:22.999Z</time></trkpt><trkpt lat="43.26909072619797" lon="11.53781703301717"><ele>217.0</ele><time>2026-05-02T15:33:23.999Z</time></trkpt><trkpt lat="43.26919004115271" lon="11.53785136805128"><ele>214.2</ele><time>2026-05-02T15:33:24.999Z</time></trkpt><trkpt lat="43.26929380331758" lon="11.537867931294333"><ele>211.39999999999998</ele><time>2026-05-02T15:33:25.999Z</time></trkpt><trkpt lat="43.26938205080985" lon="11.537868162685633"><ele>208.60000000000002</ele><time>2026-05-02T15:33:26.999Z</time></trkpt><trkpt lat="43.26947355912104" lon="11.537851061824105"><ele>205.8</ele><time>2026-05-02T15:33:27.999Z</time></trkpt><trkpt lat="43.269569000224955" lon="11.537816390078248"><ele>203.0</ele><time>2026-05-02T15:33:28.999Z</time></trkpt><trkpt lat="43.269660664274504" lon="11.537774481020236"><ele>203.0</ele><time>2026-05-02T15:33:29.999Z</time></trkpt><trkpt lat="43.26974773628252" lon="11.537729391967188"><ele>203.0</ele><time>2026-05-02T15:33:30.999Z</time></trkpt><trkpt lat="43.269829772662085" lon="11.53768764168093"><ele>203.0</ele><time>2026-05-02T15:33:31.999Z</time></trkpt><trkpt lat="43.26992330566191" lon="11.53764180620163"><ele>203.0</ele><time>2026-05-02T15:33:32.999Z</time></trkpt><trkpt lat="43.27001502808394" lon="11.537593957824981"><ele>203.0</ele><time>2026-05-02T15:33:33.999Z</time></trkpt><trkpt lat="43.27011464966349" lon="11.537573340022961"><ele>200.4</ele><time>2026-05-02T15:33:34.999Z</time></trkpt><trkpt lat="43.27020244380049" lon="11.537572156861808"><ele>197.8</ele><time>2026-05-02T15:33:35.999Z</time></trkpt><trkpt lat="43.27027462210966" lon="11.537647534719008"><ele>195.2</ele><time>2026-05-02T15:33:37Z</time></trkpt><trkpt lat="43.270368825109465" lon="11.537682029225921"><ele>192.6</ele><time>2026-05-02T15:33:38Z</time></trkpt><trkpt lat="43.27046647398208" lon="11.537700960652918"><ele>190.0</ele><time>2026-05-02T15:33:39Z</time></trkpt><trkpt lat="43.27054617809793" lon="11.537704134599256"><ele>189.16666666666669</ele><time>2026-05-02T15:33:40Z</time></trkpt><trkpt lat="43.27061455295116" lon="11.537722229356072"><ele>188.33333333333334</ele><time>2026-05-02T15:33:41Z</time></trkpt><trkpt lat="43.270690559273795" lon="11.53774106028179"><ele>187.5</ele><time>2026-05-02T15:33:42Z</time></trkpt><trkpt lat="43.2707685550498" lon="11.537808258595186"><ele>186.66666666666666</ele><time>2026-05-02T15:33:43Z</time></trkpt><trkpt lat="43.270837033260186" lon="11.537852084584982"><ele>185.83333333333331</ele><time>2026-05-02T15:33:44Z</time></trkpt><trkpt lat="43.2709211822199" lon="11.537917808272109"><ele>185.0</ele><time>2026-05-02T15:33:45Z</time></trkpt><trkpt lat="43.27100258982596" lon="11.53799297205471"><ele>184.6</ele><time>2026-05-02T15:33:46Z</time></trkpt><trkpt lat="43.27106748233177" lon="11.538074610368364"><ele>184.2</ele><time>2026-05-02T15:33:47Z</time></trkpt><trkpt lat="43.271127805566664" lon="11.538166396886396"><ele>183.8</ele><time>2026-05-02T15:33:48Z</time></trkpt><trkpt lat="43.27118503310808" lon="11.538266733763473"><ele>183.4</ele><time>2026-05-02T15:33:49Z</time></trkpt><trkpt lat="43.27124229044976" lon="11.53838322010667"><ele>183.0</ele><time>2026-05-02T15:33:50Z</time></trkpt><trkpt lat="43.27129425527158" lon="11.538499430084485"><ele>183.0</ele><time>2026-05-02T15:33:51Z</time></trkpt><trkpt lat="43.27134726137215" lon="11.538621335936567"><ele>183.0</ele><time>2026-05-02T15:33:52Z</time></trkpt><trkpt lat="43.271400838482336" lon="11.538746145169378"><ele>183.0</ele><time>2026-05-02T15:33:53Z</time></trkpt><trkpt lat="43.27145544992792" lon="11.538875053671486"><ele>183.0</ele><time>2026-05-02T15:33:54Z</time></trkpt><trkpt lat="43.27150958681618" lon="11.53900284250593"><ele>183.0</ele><time>2026-05-02T15:33:55Z</time></trkpt><trkpt lat="43.271561603414575" lon="11.539127756819427"><ele>183.8</ele><time>2026-05-02T15:33:56Z</time></trkpt><trkpt lat="43.27161032859505" lon="11.539246927983022"><ele>184.60000000000002</ele><time>2026-05-02T15:33:57Z</time></trkpt><trkpt lat="43.27165735046238" lon="11.539361933140245"><ele>185.39999999999998</ele><time>2026-05-02T15:33:58Z</time></trkpt><trkpt lat="43.27170530287783" lon="11.539479214397275"><ele>186.2</ele><time>2026-05-02T15:33:59Z</time></trkpt><trkpt lat="43.27175338734282" lon="11.53959815053272"><ele>187.0</ele><time>2026-05-02T15:34:00Z</time></trkpt><trkpt lat="43.27180080721679" lon="11.539715973633967"><ele>187.39999999999998</ele><time>2026-05-02T15:34:01Z</time></trkpt><trkpt lat="43.27184900300775" lon="11.539835724764957"><ele>187.79999999999998</ele><time>2026-05-02T15:34:02Z</time></trkpt><trkpt lat="43.27189664758548" lon="11.539951842863042"><ele>188.2</ele><time>2026-05-02T15:34:03Z</time></trkpt><trkpt lat="43.27194401018163" lon="11.540070962465364"><ele>188.6</ele><time>2026-05-02T15:34:04Z</time></trkpt><trkpt lat="43.27199440475309" lon="11.540196608359013"><ele>189.0</ele><time>2026-05-02T15:34:05Z</time></trkpt><trkpt lat="43.27204643037535" lon="11.540325191036814"><ele>189.39999999999998</ele><time>2026-05-02T15:34:06Z</time></trkpt><trkpt lat="43.272098197878194" lon="11.540454203581364"><ele>189.8</ele><time>2026-05-02T15:34:07Z</time></trkpt><trkpt lat="43.27214944158356" lon="11.540582432281223"><ele>190.2</ele><time>2026-05-02T15:34:08Z</time></trkpt><trkpt lat="43.27220063654284" lon="11.540714130096301"><ele>190.60000000000002</ele><time>2026-05-02T15:34:09Z</time></trkpt><trkpt lat="43.27224994007378" lon="11.540845463338352"><ele>191.0</ele><time>2026-05-02T15:34:10Z</time></trkpt><trkpt lat="43.27229713165863" lon="11.540977503631183"><ele>192.0</ele><time>2026-05-02T15:34:11Z</time></trkpt><trkpt lat="43.27234422380475" lon="11.541116398211944"><ele>193.0</ele><time>2026-05-02T15:34:12Z</time></trkpt><trkpt lat="43.27238707227794" lon="11.541256603170693"><ele>194.0</ele><time>2026-05-02T15:34:13Z</time></trkpt><trkpt lat="43.272417042023854" lon="11.541394345335705"><ele>195.0</ele><time>2026-05-02T15:34:14Z</time></trkpt><trkpt lat="43.27244315295637" lon="11.541538522255273"><ele>196.0</ele><time>2026-05-02T15:34:15Z</time></trkpt><trkpt lat="43.272461722331336" lon="11.541684651043806"><ele>197.4</ele><time>2026-05-02T15:34:16Z</time></trkpt><trkpt lat="43.27247931443958" lon="11.541821061334907"><ele>198.8</ele><time>2026-05-02T15:34:17Z</time></trkpt><trkpt lat="43.27249306112275" lon="11.541962106812386"><ele>200.20000000000002</ele><time>2026-05-02T15:34:18Z</time></trkpt><trkpt lat="43.27250776499446" lon="11.54210985766302"><ele>201.60000000000002</ele><time>2026-05-02T15:34:19Z</time></trkpt><trkpt lat="43.27252403395942" lon="11.542260157259404"><ele>203.0</ele><time>2026-05-02T15:34:20Z</time></trkpt><trkpt lat="43.27254442450398" lon="11.542405753589023"><ele>204.60000000000002</ele><time>2026-05-02T15:34:21Z</time></trkpt><trkpt lat="43.27256392182531" lon="11.542545101879918"><ele>206.20000000000002</ele><time>2026-05-02T15:34:22Z</time></trkpt><trkpt lat="43.27259235664875" lon="11.542686914664936"><ele>207.8</ele><time>2026-05-02T15:34:23Z</time></trkpt><trkpt lat="43.27263545493868" lon="11.542815208860665"><ele>209.4</ele><time>2026-05-02T15:34:24Z</time></trkpt><trkpt lat="43.27268205814253" lon="11.542910072549057"><ele>211.0</ele><time>2026-05-02T15:34:25Z</time></trkpt><trkpt lat="43.272757118124666" lon="11.54295862842014"><ele>212.49999999999997</ele><time>2026-05-02T15:34:26Z</time></trkpt><trkpt lat="43.27283028501432" lon="11.5429982441441"><ele>214.0</ele><time>2026-05-02T15:34:27Z</time></trkpt><trkpt lat="43.27291258915362" lon="11.542958902317483"><ele>215.5</ele><time>2026-05-02T15:34:28Z</time></trkpt><trkpt lat="43.27298920266821" lon="11.542932280907749"><ele>217.0</ele><time>2026-05-02T15:34:29Z</time></trkpt><trkpt lat="43.273068960581675" lon="11.54291108587576"><ele>218.49999999999997</ele><time>2026-05-02T15:34:30Z</time></trkpt><trkpt lat="43.27314898969384" lon="11.542905830395881"><ele>220.0</ele><time>2026-05-02T15:34:31Z</time></trkpt><trkpt lat="43.273220944843715" lon="11.542970834230323"><ele>221.99999999999997</ele><time>2026-05-02T15:34:32Z</time></trkpt><trkpt lat="43.27329318685549" lon="11.54302530243862"><ele>224.0</ele><time>2026-05-02T15:34:33Z</time></trkpt><trkpt lat="43.27336812096413" lon="11.543089277939872"><ele>226.0</ele><time>2026-05-02T15:34:34Z</time></trkpt><trkpt lat="43.273442333702434" lon="11.543162006472492"><ele>228.0</ele><time>2026-05-02T15:34:35Z</time></trkpt><trkpt lat="43.273509542810366" lon="11.543233642058837"><ele>229.99999999999997</ele><time>2026-05-02T15:34:36Z</time></trkpt><trkpt lat="43.273564652404566" lon="11.54330655936052"><ele>232.0</ele><time>2026-05-02T15:34:37Z</time></trkpt><trkpt lat="43.27361012202521" lon="11.543388070709247"><ele>231.99999999999997</ele><time>2026-05-02T15:34:38Z</time></trkpt><trkpt lat="43.27363135604981" lon="11.543481822608559"><ele>232.0</ele><time>2026-05-02T15:34:39Z</time></trkpt><trkpt lat="43.27363070988598" lon="11.543577212653341"><ele>232.0</ele><time>2026-05-02T15:34:40Z</time></trkpt><trkpt lat="43.273612986842615" lon="11.543673477652499"><ele>232.0</ele><time>2026-05-02T15:34:41Z</time></trkpt><trkpt lat="43.273573699147384" lon="11.54375410961402"><ele>231.99999999999997</ele><time>2026-05-02T15:34:42Z</time></trkpt><trkpt lat="43.27352246504528" lon="11.543852977530404"><ele>232.0</ele><time>2026-05-02T15:34:43Z</time></trkpt><trkpt lat="43.273456177600686" lon="11.543954985658676"><ele>234.0</ele><time>2026-05-02T15:34:44Z</time></trkpt><trkpt lat="43.27337541897078" lon="11.544080789108316"><ele>236.0</ele><time>2026-05-02T15:34:45Z</time></trkpt><trkpt lat="43.27328905907363" lon="11.544203877215356"><ele>238.0</ele><time>2026-05-02T15:34:46Z</time></trkpt><trkpt lat="43.273218022749006" lon="11.544345914384776"><ele>240.0</ele><time>2026-05-02T15:34:47Z</time></trkpt><trkpt lat="43.27318406947448" lon="11.544482872676133"><ele>241.25</ele><time>2026-05-02T15:34:48Z</time></trkpt><trkpt lat="43.27317609186304" lon="11.544632955869883"><ele>242.5</ele><time>2026-05-02T15:34:49Z</time></trkpt><trkpt lat="43.27316686148758" lon="11.54480020259584"><ele>243.75</ele><time>2026-05-02T15:34:50Z</time></trkpt><trkpt lat="43.27315818720728" lon="11.544975543742835"><ele>245.0</ele><time>2026-05-02T15:34:50.999Z</time></trkpt><trkpt lat="43.27314833502367" lon="11.545154482060127"><ele>245.0</ele><time>2026-05-02T15:34:51.999Z</time></trkpt><trkpt lat="43.273135420202316" lon="11.545344545296823"><ele>245.0</ele><time>2026-05-02T15:34:52.999Z</time></trkpt><trkpt lat="43.2731321486933" lon="11.545540831114184"><ele>245.0</ele><time>2026-05-02T15:34:53.999Z</time></trkpt><trkpt lat="43.27314831479104" lon="11.545741296438486"><ele>245.0</ele><time>2026-05-02T15:34:54.999Z</time></trkpt><trkpt lat="43.273175422908274" lon="11.545933438078922"><ele>246.75</ele><time>2026-05-02T15:34:55.999Z</time></trkpt><trkpt lat="43.27320996882472" lon="11.546115737715834"><ele>248.5</ele><time>2026-05-02T15:34:56.999Z</time></trkpt><trkpt lat="43.2732522768242" lon="11.546289784415844"><ele>250.25</ele><time>2026-05-02T15:34:57.999Z</time></trkpt><trkpt lat="43.27329883608683" lon="11.546452620801496"><ele>252.0</ele><time>2026-05-02T15:34:58.999Z</time></trkpt><trkpt lat="43.27335784282087" lon="11.546616583620956"><ele>254.25</ele><time>2026-05-02T15:34:59.999Z</time></trkpt><trkpt lat="43.27342352994057" lon="11.546761217174623"><ele>256.5</ele><time>2026-05-02T15:35:00.999Z</time></trkpt><trkpt lat="43.27349849548013" lon="11.54688950479813"><ele>258.75</ele><time>2026-05-02T15:35:01.999Z</time></trkpt><trkpt lat="43.27358579874328" lon="11.54699576804489"><ele>261.0</ele><time>2026-05-02T15:35:02.999Z</time></trkpt><trkpt lat="43.27369254804042" lon="11.547068328034543"><ele>262.75</ele><time>2026-05-02T15:35:03.999Z</time></trkpt><trkpt lat="43.27380652292469" lon="11.547122880977552"><ele>264.5</ele><time>2026-05-02T15:35:04.999Z</time></trkpt><trkpt lat="43.273929200053864" lon="11.547141646102487"><ele>266.25</ele><time>2026-05-02T15:35:05.999Z</time></trkpt><trkpt lat="43.274055145518744" lon="11.547136758133226"><ele>268.0</ele><time>2026-05-02T15:35:06.999Z</time></trkpt><trkpt lat="43.27417950314559" lon="11.547130289506022"><ele>270.75</ele><time>2026-05-02T15:35:07.999Z</time></trkpt><trkpt lat="43.27430702962106" lon="11.547119602708067"><ele>273.5</ele><time>2026-05-02T15:35:08.999Z</time></trkpt><trkpt lat="43.274441568617995" lon="11.547098825882342"><ele>276.25</ele><time>2026-05-02T15:35:09.999Z</time></trkpt><trkpt lat="43.27457211845476" lon="11.547081568522428"><ele>279.0</ele><time>2026-05-02T15:35:10.999Z</time></trkpt><trkpt lat="43.27468483046535" lon="11.547136763835946"><ele>279.0</ele><time>2026-05-02T15:35:11.999Z</time></trkpt><trkpt lat="43.27476990895546" lon="11.547214202637498"><ele>279.0</ele><time>2026-05-02T15:35:12.999Z</time></trkpt><trkpt lat="43.27486449376029" lon="11.547288511975262"><ele>279.0</ele><time>2026-05-02T15:35:13.999Z</time></trkpt><trkpt lat="43.27496158871072" lon="11.547344625252343"><ele>279.0</ele><time>2026-05-02T15:35:14.999Z</time></trkpt><trkpt lat="43.27504159729137" lon="11.54741458636168"><ele>279.0</ele><time>2026-05-02T15:35:15.999Z</time></trkpt><trkpt lat="43.27512169374324" lon="11.547477984164994"><ele>280.1666666666667</ele><time>2026-05-02T15:35:16.999Z</time></trkpt><trkpt lat="43.27519265438" lon="11.547562004847451"><ele>281.3333333333333</ele><time>2026-05-02T15:35:17.999Z</time></trkpt><trkpt lat="43.275269093760855" lon="11.547627911797463"><ele>282.5</ele><time>2026-05-02T15:35:18.999Z</time></trkpt><trkpt lat="43.27534456657067" lon="11.547695155974619"><ele>283.66666666666663</ele><time>2026-05-02T15:35:19.999Z</time></trkpt><trkpt lat="43.275419436749694" lon="11.54776186325424"><ele>284.8333333333333</ele><time>2026-05-02T15:35:20.999Z</time></trkpt><trkpt lat="43.27548933351798" lon="11.547824139452366"><ele>286.0</ele><time>2026-05-02T15:35:21.999Z</time></trkpt><trkpt lat="43.27555721806728" lon="11.547884301456746"><ele>288.5</ele><time>2026-05-02T15:35:22.999Z</time></trkpt><trkpt lat="43.27562904979738" lon="11.547938386685606"><ele>291.0</ele><time>2026-05-02T15:35:23.999Z</time></trkpt><trkpt lat="43.27571188431997" lon="11.547968441080267"><ele>293.5</ele><time>2026-05-02T15:35:24.999Z</time></trkpt><trkpt lat="43.27578721717469" lon="11.548007128181693"><ele>296.0</ele><time>2026-05-02T15:35:25.999Z</time></trkpt><trkpt lat="43.275862461794276" lon="11.548040708540432"><ele>298.5</ele><time>2026-05-02T15:35:26.999Z</time></trkpt><trkpt lat="43.27593161308913" lon="11.548095140716113"><ele>301.0</ele><time>2026-05-02T15:35:27.999Z</time></trkpt><trkpt lat="43.2760114123413" lon="11.548124036458463"><ele>301.0</ele><time>2026-05-02T15:35:28.999Z</time></trkpt><trkpt lat="43.27609289280227" lon="11.54815153003307"><ele>301.0</ele><time>2026-05-02T15:35:29.999Z</time></trkpt><trkpt lat="43.276174840034585" lon="11.54817918107429"><ele>301.0</ele><time>2026-05-02T15:35:30.999Z</time></trkpt><trkpt lat="43.276247248089035" lon="11.548183758137027"><ele>301.0</ele><time>2026-05-02T15:35:31.999Z</time></trkpt><trkpt lat="43.27632057389247" lon="11.548231677495584"><ele>301.0</ele><time>2026-05-02T15:35:33.999Z</time></trkpt><trkpt lat="43.276410082321284" lon="11.54826063489767"><ele>301.0</ele><time>2026-05-02T15:35:36.999Z</time></trkpt><trkpt lat="43.27649979691965" lon="11.548306269922222"><ele>299.8333333333333</ele><time>2026-05-02T15:35:38.999Z</time></trkpt><trkpt lat="43.27660407871331" lon="11.548369468408575"><ele>298.66666666666663</ele><time>2026-05-02T15:35:40.999Z</time></trkpt><trkpt lat="43.27666161693497" lon="11.548408330793693"><ele>297.5</ele><time>2026-05-02T15:35:42Z</time></trkpt><trkpt lat="43.276725161456966" lon="11.548439734204498"><ele>296.3333333333333</ele><time>2026-05-02T15:35:43Z</time></trkpt><trkpt lat="43.27678506543903" lon="11.548483238929037"><ele>295.1666666666667</ele><time>2026-05-02T15:35:44Z</time></trkpt><trkpt lat="43.27684470102092" lon="11.548540634949173"><ele>294.0</ele><time>2026-05-02T15:35:45Z</time></trkpt><trkpt lat="43.276907344032" lon="11.548595074820472"><ele>294.0</ele><time>2026-05-02T15:35:46Z</time></trkpt><trkpt lat="43.276966501406775" lon="11.548655142242433"><ele>294.0</ele><time>2026-05-02T15:35:47Z</time></trkpt><trkpt lat="43.277027749913174" lon="11.548718896025564"><ele>294.0</ele><time>2026-05-02T15:35:48Z</time></trkpt><trkpt lat="43.27709170786652" lon="11.548781196905928"><ele>294.0</ele><time>2026-05-02T15:35:49Z</time></trkpt><trkpt lat="43.27715777246592" lon="11.54884276238097"><ele>294.0</ele><time>2026-05-02T15:35:50Z</time></trkpt><trkpt lat="43.27722472834978" lon="11.548904885585086"><ele>294.0</ele><time>2026-05-02T15:35:51Z</time></trkpt><trkpt lat="43.27729391187955" lon="11.548964277037195"><ele>293.1666666666667</ele><time>2026-05-02T15:35:52Z</time></trkpt><trkpt lat="43.277361334256774" lon="11.549022917066956"><ele>292.3333333333333</ele><time>2026-05-02T15:35:53Z</time></trkpt><trkpt lat="43.27743209855491" lon="11.549080522018935"><ele>291.5</ele><time>2026-05-02T15:35:54Z</time></trkpt><trkpt lat="43.2775024157207" lon="11.549142483000889"><ele>290.66666666666663</ele><time>2026-05-02T15:35:55Z</time></trkpt><trkpt lat="43.27757334508576" lon="11.549206343485256"><ele>289.8333333333333</ele><time>2026-05-02T15:35:56Z</time></trkpt><trkpt lat="43.277645906935426" lon="11.549272940286638"><ele>289.0</ele><time>2026-05-02T15:35:57Z</time></trkpt><trkpt lat="43.2777235163084" lon="11.549333465313309"><ele>289.0</ele><time>2026-05-02T15:35:58Z</time></trkpt><trkpt lat="43.27780892300952" lon="11.54938961449346"><ele>289.0</ele><time>2026-05-02T15:35:59Z</time></trkpt><trkpt lat="43.27790549077106" lon="11.54942898725053"><ele>289.0</ele><time>2026-05-02T15:36:00Z</time></trkpt><trkpt lat="43.278011277961745" lon="11.549447720374586"><ele>289.0</ele><time>2026-05-02T15:36:01Z</time></trkpt><trkpt lat="43.27812472007195" lon="11.549450309543849"><ele>289.0</ele><time>2026-05-02T15:36:02Z</time></trkpt><trkpt lat="43.27824900716515" lon="11.549446013630194"><ele>285.25</ele><time>2026-05-02T15:36:03Z</time></trkpt><trkpt lat="43.27838032440175" lon="11.549446254877369"><ele>281.5</ele><time>2026-05-02T15:36:04Z</time></trkpt><trkpt lat="43.27850808267461" lon="11.54945413901085"><ele>277.75</ele><time>2026-05-02T15:36:05Z</time></trkpt><trkpt lat="43.27863130821035" lon="11.549462603807578"><ele>274.0</ele><time>2026-05-02T15:36:06Z</time></trkpt><trkpt lat="43.278743060558554" lon="11.549472278130176"><ele>274.0</ele><time>2026-05-02T15:36:07Z</time></trkpt><trkpt lat="43.27884788744108" lon="11.549499718694848"><ele>274.0</ele><time>2026-05-02T15:36:08Z</time></trkpt><trkpt lat="43.278955122237775" lon="11.549545257144743"><ele>274.0</ele><time>2026-05-02T15:36:09Z</time></trkpt><trkpt lat="43.27905793966148" lon="11.549600559717383"><ele>274.0</ele><time>2026-05-02T15:36:10Z</time></trkpt><trkpt lat="43.27915809365172" lon="11.549674779175565"><ele>274.0</ele><time>2026-05-02T15:36:11Z</time></trkpt><trkpt lat="43.279249574826224" lon="11.549739384724395"><ele>273.59999999999997</ele><time>2026-05-02T15:36:12Z</time></trkpt><trkpt lat="43.2793475076308" lon="11.549804945186777"><ele>273.2</ele><time>2026-05-02T15:36:13Z</time></trkpt><trkpt lat="43.27944959231375" lon="11.549862168733886"><ele>272.79999999999995</ele><time>2026-05-02T15:36:14Z</time></trkpt><trkpt lat="43.27955338786867" lon="11.549903946284703"><ele>272.4</ele><time>2026-05-02T15:36:15Z</time></trkpt><trkpt lat="43.27965340028702" lon="11.549930789883797"><ele>272.0</ele><time>2026-05-02T15:36:16Z</time></trkpt><trkpt lat="43.279753819265544" lon="11.54994551400388"><ele>271.25</ele><time>2026-05-02T15:36:17Z</time></trkpt><trkpt lat="43.27985956258658" lon="11.54994397705187"><ele>270.5</ele><time>2026-05-02T15:36:18Z</time></trkpt><trkpt lat="43.27996548039782" lon="11.549927711673817"><ele>269.75</ele><time>2026-05-02T15:36:19Z</time></trkpt><trkpt lat="43.280079904849366" lon="11.549895133686814"><ele>269.0</ele><time>2026-05-02T15:36:20Z</time></trkpt><trkpt lat="43.28020356581526" lon="11.54983549419483"><ele>269.0</ele><time>2026-05-02T15:36:21Z</time></trkpt><trkpt lat="43.2803273750803" lon="11.5497584967934"><ele>269.0</ele><time>2026-05-02T15:36:22Z</time></trkpt><trkpt lat="43.28044418035072" lon="11.54968339385088"><ele>269.0</ele><time>2026-05-02T15:36:23Z</time></trkpt><trkpt lat="43.280557558469965" lon="11.549607262882889"><ele>269.0</ele><time>2026-05-02T15:36:24Z</time></trkpt><trkpt lat="43.280662211960426" lon="11.54951950240446"><ele>272.0</ele><time>2026-05-02T15:36:25Z</time></trkpt><trkpt lat="43.28075472472956" lon="11.549397185712614"><ele>275.0</ele><time>2026-05-02T15:36:26Z</time></trkpt><trkpt lat="43.280830479936775" lon="11.549258054132858"><ele>278.0</ele><time>2026-05-02T15:36:27Z</time></trkpt><trkpt lat="43.28090259141639" lon="11.549119470148732"><ele>281.0</ele><time>2026-05-02T15:36:28Z</time></trkpt><trkpt lat="43.2809753884501" lon="11.548996074478568"><ele>281.0</ele><time>2026-05-02T15:36:29Z</time></trkpt><trkpt lat="43.281055059613706" lon="11.548884248499318"><ele>281.0</ele><time>2026-05-02T15:36:30Z</time></trkpt><trkpt lat="43.28113617428815" lon="11.54877417445609"><ele>281.0</ele><time>2026-05-02T15:36:31Z</time></trkpt><trkpt lat="43.28122683727573" lon="11.548679116006356"><ele>281.0</ele><time>2026-05-02T15:36:32Z</time></trkpt><trkpt lat="43.28132109321202" lon="11.548584421605696"><ele>280.75</ele><time>2026-05-02T15:36:33Z</time></trkpt><trkpt lat="43.28141779612756" lon="11.548484757930947"><ele>280.5</ele><time>2026-05-02T15:36:34Z</time></trkpt><trkpt lat="43.28150883669996" lon="11.548384347580528"><ele>280.25</ele><time>2026-05-02T15:36:35Z</time></trkpt><trkpt lat="43.28160022813133" lon="11.54828876066605"><ele>280.0</ele><time>2026-05-02T15:36:36Z</time></trkpt><trkpt lat="43.281692449692116" lon="11.54820643661401"><ele>284.2</ele><time>2026-05-02T15:36:37Z</time></trkpt><trkpt lat="43.28178719631348" lon="11.548147546878088"><ele>288.4</ele><time>2026-05-02T15:36:38Z</time></trkpt><trkpt lat="43.28188003552551" lon="11.548121423084849"><ele>292.6</ele><time>2026-05-02T15:36:39Z</time></trkpt><trkpt lat="43.281959765994145" lon="11.548126973726912"><ele>296.8</ele><time>2026-05-02T15:36:40Z</time></trkpt><trkpt lat="43.28206776305724" lon="11.548178603309758"><ele>301.0</ele><time>2026-05-02T15:36:42Z</time></trkpt><trkpt lat="43.28215264005766" lon="11.548169401701966"><ele>302.40000000000003</ele><time>2026-05-02T15:36:44Z</time></trkpt><trkpt lat="43.2822878982538" lon="11.548157819300663"><ele>303.8</ele><time>2026-05-02T15:36:46Z</time></trkpt><trkpt lat="43.28239048652795" lon="11.548144313218375"><ele>305.20000000000005</ele><time>2026-05-02T15:36:47Z</time></trkpt><trkpt lat="43.2824704568483" lon="11.548160988314777"><ele>306.6</ele><time>2026-05-02T15:36:47.999Z</time></trkpt><trkpt lat="43.28257144151451" lon="11.54817550470704"><ele>308.0</ele><time>2026-05-02T15:40:57.999Z</time></trkpt><trkpt lat="43.282640315488756" lon="11.548191148521905"><ele>308.0</ele><time>2026-05-02T15:40:59.999Z</time></trkpt><trkpt lat="43.28272965398398" lon="11.54821670843393"><ele>308.0</ele><time>2026-05-02T15:41:01.999Z</time></trkpt><trkpt lat="43.28283520058306" lon="11.548251074147947"><ele>308.0</ele><time>2026-05-02T15:41:03.999Z</time></trkpt><trkpt lat="43.282940886999185" lon="11.548322644627389"><ele>308.0</ele><time>2026-05-02T15:41:05.999Z</time></trkpt><trkpt lat="43.28299631640519" lon="11.548373590676922"><ele>308.0</ele><time>2026-05-02T15:41:06.999Z</time></trkpt><trkpt lat="43.283061223999525" lon="11.548410002820605"><ele>309.14285714285717</ele><time>2026-05-02T15:41:07.999Z</time></trkpt><trkpt lat="43.28311960146287" lon="11.548454968407729"><ele>310.2857142857143</ele><time>2026-05-02T15:41:08.999Z</time></trkpt><trkpt lat="43.28317449245431" lon="11.548498192585908"><ele>311.42857142857144</ele><time>2026-05-02T15:41:09.999Z</time></trkpt><trkpt lat="43.28322801618454" lon="11.548554319936917"><ele>312.57142857142856</ele><time>2026-05-02T15:41:10.999Z</time></trkpt><trkpt lat="43.283291493989104" lon="11.548600160695296"><ele>313.7142857142857</ele><time>2026-05-02T15:41:11.999Z</time></trkpt><trkpt lat="43.28335315736237" lon="11.548652182218134"><ele>314.8571428571429</ele><time>2026-05-02T15:41:12.999Z</time></trkpt><trkpt lat="43.28341666025545" lon="11.54869902361882"><ele>316.0</ele><time>2026-05-02T15:41:13.999Z</time></trkpt><trkpt lat="43.283489861824776" lon="11.548737826063887"><ele>316.0</ele><time>2026-05-02T15:41:14.999Z</time></trkpt><trkpt lat="43.283562598296" lon="11.548776640436893"><ele>316.0</ele><time>2026-05-02T15:41:15.999Z</time></trkpt><trkpt lat="43.28361281112203" lon="11.548885280818611"><ele>316.0</ele><time>2026-05-02T15:41:16.999Z</time></trkpt><trkpt lat="43.283696726018086" lon="11.548911212513229"><ele>316.0</ele><time>2026-05-02T15:41:17.999Z</time></trkpt><trkpt lat="43.28378730665821" lon="11.548871357893784"><ele>316.0</ele><time>2026-05-02T15:41:18.999Z</time></trkpt><trkpt lat="43.28386592751528" lon="11.548874782285111"><ele>316.0</ele><time>2026-05-02T15:41:19.999Z</time></trkpt><trkpt lat="43.28394816415567" lon="11.548871454554263"><ele>312.8333333333333</ele><time>2026-05-02T15:41:20.999Z</time></trkpt><trkpt lat="43.28402113793095" lon="11.548866642345583"><ele>309.66666666666663</ele><time>2026-05-02T15:41:21.999Z</time></trkpt><trkpt lat="43.28408711667364" lon="11.548856450155919"><ele>306.5</ele><time>2026-05-02T15:41:22.999Z</time></trkpt><trkpt lat="43.28421550204539" lon="11.548803135760652"><ele>303.3333333333333</ele><time>2026-05-02T15:41:24.999Z</time></trkpt><trkpt lat="43.28428831244224" lon="11.548763197940806"><ele>300.1666666666667</ele><time>2026-05-02T15:41:25.999Z</time></trkpt><trkpt lat="43.2843397167237" lon="11.548675673010292"><ele>297.0</ele><time>2026-05-02T15:41:26.999Z</time></trkpt><trkpt lat="43.28438636181498" lon="11.548575955124317"><ele>296.6</ele><time>2026-05-02T15:41:27.999Z</time></trkpt><trkpt lat="43.28441881770625" lon="11.548467404643226"><ele>296.2</ele><time>2026-05-02T15:41:28.999Z</time></trkpt><trkpt lat="43.28445556964681" lon="11.548356491771967"><ele>295.8</ele><time>2026-05-02T15:41:29.999Z</time></trkpt><trkpt lat="43.28450054555462" lon="11.548244847762042"><ele>295.4</ele><time>2026-05-02T15:41:30.999Z</time></trkpt><trkpt lat="43.28454622161642" lon="11.548134489671309"><ele>295.0</ele><time>2026-05-02T15:41:31.999Z</time></trkpt><trkpt lat="43.28459159553961" lon="11.548020985283944"><ele>295.0</ele><time>2026-05-02T15:41:32.999Z</time></trkpt><trkpt lat="43.28463091861407" lon="11.547912618821416"><ele>295.0</ele><time>2026-05-02T15:41:33.999Z</time></trkpt><trkpt lat="43.28466662778881" lon="11.547794297124096"><ele>295.0</ele><time>2026-05-02T15:41:34.999Z</time></trkpt><trkpt lat="43.28469239430399" lon="11.547684947379786"><ele>295.0</ele><time>2026-05-02T15:41:35.999Z</time></trkpt><trkpt lat="43.2847247502685" lon="11.547581358001128"><ele>295.0</ele><time>2026-05-02T15:41:36.999Z</time></trkpt><trkpt lat="43.28473303265089" lon="11.54746829436579"><ele>295.0</ele><time>2026-05-02T15:41:37.999Z</time></trkpt><trkpt lat="43.284739782098384" lon="11.547367044803794"><ele>293.0</ele><time>2026-05-02T15:41:38.999Z</time></trkpt><trkpt lat="43.28474732650334" lon="11.547271853157374"><ele>291.0</ele><time>2026-05-02T15:41:39.999Z</time></trkpt><trkpt lat="43.28477373858628" lon="11.547127178917359"><ele>289.0</ele><time>2026-05-02T15:41:41.999Z</time></trkpt><trkpt lat="43.284815733116325" lon="11.546981357175216"><ele>287.0</ele><time>2026-05-02T15:41:43.999Z</time></trkpt><trkpt lat="43.28488035180295" lon="11.546837249440959"><ele>285.0</ele><time>2026-05-02T15:41:45.999Z</time></trkpt><trkpt lat="43.28493147837798" lon="11.546786589444558"><ele>289.1666666666667</ele><time>2026-05-02T15:41:46.999Z</time></trkpt><trkpt lat="43.28500382133887" lon="11.546732923055682"><ele>293.3333333333333</ele><time>2026-05-02T15:41:47.999Z</time></trkpt><trkpt lat="43.28505485942279" lon="11.54667336268178"><ele>297.5</ele><time>2026-05-02T15:41:48.999Z</time></trkpt><trkpt lat="43.28511439891418" lon="11.546629986102763"><ele>301.66666666666663</ele><time>2026-05-02T15:41:49.999Z</time></trkpt><trkpt lat="43.285172594342605" lon="11.546591997608944"><ele>305.8333333333333</ele><time>2026-05-02T15:41:50.999Z</time></trkpt><trkpt lat="43.28528620740079" lon="11.546546630837014"><ele>310.0</ele><time>2026-05-02T15:41:52.999Z</time></trkpt><trkpt lat="43.28534722505778" lon="11.546520029895806"><ele>310.0</ele><time>2026-05-02T15:41:53.999Z</time></trkpt><trkpt lat="43.285412281135294" lon="11.546471455812839"><ele>310.0</ele><time>2026-05-02T15:41:54.999Z</time></trkpt><trkpt lat="43.285538443355726" lon="11.546417811222936"><ele>310.0</ele><time>2026-05-02T15:41:56.999Z</time></trkpt><trkpt lat="43.28560294770985" lon="11.546389687338154"><ele>310.0</ele><time>2026-05-02T15:41:57.999Z</time></trkpt><trkpt lat="43.28566944998233" lon="11.546371813897055"><ele>310.0</ele><time>2026-05-02T15:41:58.999Z</time></trkpt><trkpt lat="43.285727372830266" lon="11.546335750102036"><ele>310.0</ele><time>2026-05-02T15:42:00Z</time></trkpt><trkpt lat="43.28578839424524" lon="11.546286378285933"><ele>309.7142857142857</ele><time>2026-05-02T15:42:01Z</time></trkpt><trkpt lat="43.285841679330645" lon="11.546233334857986"><ele>309.42857142857144</ele><time>2026-05-02T15:42:02Z</time></trkpt><trkpt lat="43.28589952740517" lon="11.546189310428774"><ele>309.1428571428571</ele><time>2026-05-02T15:42:03Z</time></trkpt><trkpt lat="43.28595474775788" lon="11.546136915931385"><ele>308.8571428571429</ele><time>2026-05-02T15:42:04Z</time></trkpt><trkpt lat="43.286009165922216" lon="11.546090644654385"><ele>308.57142857142856</ele><time>2026-05-02T15:42:05Z</time></trkpt><trkpt lat="43.28606491486104" lon="11.54604535194064"><ele>308.2857142857143</ele><time>2026-05-02T15:42:06Z</time></trkpt><trkpt lat="43.286124270851644" lon="11.546005807706612"><ele>308.0</ele><time>2026-05-02T15:42:07Z</time></trkpt><trkpt lat="43.28618185787463" lon="11.545945236540044"><ele>308.57142857142856</ele><time>2026-05-02T15:42:08Z</time></trkpt><trkpt lat="43.28624865103766" lon="11.545908407832302"><ele>309.1428571428571</ele><time>2026-05-02T15:42:09Z</time></trkpt><trkpt lat="43.286330222122544" lon="11.54588776916193"><ele>309.7142857142857</ele><time>2026-05-02T15:42:10Z</time></trkpt><trkpt lat="43.286399603620325" lon="11.54589512368404"><ele>310.2857142857143</ele><time>2026-05-02T15:42:11Z</time></trkpt><trkpt lat="43.28647204152114" lon="11.545940749415662"><ele>310.85714285714283</ele><time>2026-05-02T15:42:12Z</time></trkpt><trkpt lat="43.286536445940406" lon="11.54598412699131"><ele>311.42857142857144</ele><time>2026-05-02T15:42:13Z</time></trkpt><trkpt lat="43.28659620697072" lon="11.546033390938884"><ele>312.0</ele><time>2026-05-02T15:42:14Z</time></trkpt><trkpt lat="43.286653513403" lon="11.546080999932279"><ele>312.0</ele><time>2026-05-02T15:42:15Z</time></trkpt><trkpt lat="43.28671043049318" lon="11.546125530553734"><ele>312.0</ele><time>2026-05-02T15:42:16Z</time></trkpt><trkpt lat="43.28677163447897" lon="11.546165964705096"><ele>312.0</ele><time>2026-05-02T15:42:17Z</time></trkpt><trkpt lat="43.28688347904408" lon="11.546195969894963"><ele>312.0</ele><time>2026-05-02T15:42:19Z</time></trkpt><trkpt lat="43.28695911246151" lon="11.546191193710833"><ele>312.0</ele><time>2026-05-02T15:42:20Z</time></trkpt><trkpt lat="43.28703623902519" lon="11.546173773888684"><ele>312.0</ele><time>2026-05-02T15:42:21Z</time></trkpt><trkpt lat="43.28711068911365" lon="11.546155179239372"><ele>312.0</ele><time>2026-05-02T15:42:22Z</time></trkpt><trkpt lat="43.287167685610044" lon="11.54609377658107"><ele>312.0</ele><time>2026-05-02T15:42:23Z</time></trkpt><trkpt lat="43.287201394506816" lon="11.546018866647339"><ele>312.0</ele><time>2026-05-02T15:42:24Z</time></trkpt><trkpt lat="43.287240122523315" lon="11.545943305279442"><ele>312.0</ele><time>2026-05-02T15:42:25Z</time></trkpt><trkpt lat="43.287269425963146" lon="11.545844902599024"><ele>312.0</ele><time>2026-05-02T15:42:26Z</time></trkpt><trkpt lat="43.287295723037765" lon="11.545740536818311"><ele>312.0</ele><time>2026-05-02T15:42:27Z</time></trkpt><trkpt lat="43.28731628654723" lon="11.545635254050001"><ele>312.0</ele><time>2026-05-02T15:42:28Z</time></trkpt><trkpt lat="43.287333184262664" lon="11.5455292227386"><ele>310.1666666666667</ele><time>2026-05-02T15:42:29Z</time></trkpt><trkpt lat="43.28734925350923" lon="11.545420557280552"><ele>308.3333333333333</ele><time>2026-05-02T15:42:30Z</time></trkpt><trkpt lat="43.28736111553003" lon="11.54530987017386"><ele>306.5</ele><time>2026-05-02T15:42:31Z</time></trkpt><trkpt lat="43.28736928564108" lon="11.545200831117205"><ele>304.66666666666663</ele><time>2026-05-02T15:42:32Z</time></trkpt><trkpt lat="43.287376346133776" lon="11.54508438909785"><ele>302.8333333333333</ele><time>2026-05-02T15:42:33Z</time></trkpt><trkpt lat="43.287383006182175" lon="11.544967781749882"><ele>301.0</ele><time>2026-05-02T15:42:34Z</time></trkpt><trkpt lat="43.287387949768494" lon="11.544851730090398"><ele>301.0</ele><time>2026-05-02T15:42:35Z</time></trkpt><trkpt lat="43.28740135047554" lon="11.544747361862166"><ele>301.0</ele><time>2026-05-02T15:42:36Z</time></trkpt><trkpt lat="43.287408545379705" lon="11.544637293707167"><ele>301.0</ele><time>2026-05-02T15:42:37Z</time></trkpt><trkpt lat="43.2874333346073" lon="11.544537653730165"><ele>301.0</ele><time>2026-05-02T15:42:38Z</time></trkpt><trkpt lat="43.28746231800134" lon="11.544440592728385"><ele>301.0</ele><time>2026-05-02T15:42:39Z</time></trkpt><trkpt lat="43.287495252045666" lon="11.544345077047469"><ele>301.0</ele><time>2026-05-02T15:42:40Z</time></trkpt><trkpt lat="43.287531139295666" lon="11.544256190870232"><ele>300.66666666666663</ele><time>2026-05-02T15:42:41Z</time></trkpt><trkpt lat="43.287564438307534" lon="11.544164944374923"><ele>300.3333333333333</ele><time>2026-05-02T15:42:42Z</time></trkpt><trkpt lat="43.28759084576493" lon="11.54407200855067"><ele>300.0</ele><time>2026-05-02T15:42:43Z</time></trkpt><trkpt lat="43.28760547035336" lon="11.543969714785305"><ele>299.6666666666667</ele><time>2026-05-02T15:42:44Z</time></trkpt><trkpt lat="43.28763499335293" lon="11.543864698504994"><ele>299.33333333333337</ele><time>2026-05-02T15:42:45Z</time></trkpt><trkpt lat="43.28764344476488" lon="11.543745065267538"><ele>299.0</ele><time>2026-05-02T15:42:46Z</time></trkpt><trkpt lat="43.28763797180055" lon="11.54362091398474"><ele>298.1666666666667</ele><time>2026-05-02T15:42:47Z</time></trkpt><trkpt lat="43.28762980196226" lon="11.543507139316812"><ele>297.33333333333337</ele><time>2026-05-02T15:42:47.999Z</time></trkpt><trkpt lat="43.28762966454021" lon="11.543399004393134"><ele>296.5</ele><time>2026-05-02T15:42:48.999Z</time></trkpt><trkpt lat="43.28764283818709" lon="11.543282269584232"><ele>295.6666666666667</ele><time>2026-05-02T15:42:49.999Z</time></trkpt><trkpt lat="43.28766992064289" lon="11.54316308785558"><ele>294.8333333333333</ele><time>2026-05-02T15:42:50.999Z</time></trkpt><trkpt lat="43.28768200217991" lon="11.54304455488362"><ele>294.0</ele><time>2026-05-02T15:42:51.999Z</time></trkpt><trkpt lat="43.28771337132071" lon="11.542942554156944"><ele>292.0</ele><time>2026-05-02T15:42:52.999Z</time></trkpt><trkpt lat="43.28773506646391" lon="11.542848228523862"><ele>290.0</ele><time>2026-05-02T15:42:53.999Z</time></trkpt><trkpt lat="43.28775845882332" lon="11.542751479860232"><ele>288.0</ele><time>2026-05-02T15:42:54.999Z</time></trkpt><trkpt lat="43.28779687746374" lon="11.542655194958126"><ele>286.0</ele><time>2026-05-02T15:42:55.999Z</time></trkpt><trkpt lat="43.287844194699396" lon="11.542563238482234"><ele>284.0</ele><time>2026-05-02T15:42:56.999Z</time></trkpt><trkpt lat="43.28789583686072" lon="11.542471970725078"><ele>282.0</ele><time>2026-05-02T15:42:57.999Z</time></trkpt><trkpt lat="43.28795005020322" lon="11.542380429499111"><ele>282.0</ele><time>2026-05-02T15:42:58.999Z</time></trkpt><trkpt lat="43.28800618460534" lon="11.542293242702707"><ele>282.0</ele><time>2026-05-02T15:42:59.999Z</time></trkpt><trkpt lat="43.28805640903449" lon="11.542201887990666"><ele>282.0</ele><time>2026-05-02T15:43:00.999Z</time></trkpt><trkpt lat="43.28810412350138" lon="11.542109824214071"><ele>282.0</ele><time>2026-05-02T15:43:01.999Z</time></trkpt><trkpt lat="43.288146114056914" lon="11.542014395572838"><ele>282.0</ele><time>2026-05-02T15:43:02.999Z</time></trkpt><trkpt lat="43.288184560200186" lon="11.541915104064623"><ele>282.0</ele><time>2026-05-02T15:43:03.999Z</time></trkpt><trkpt lat="43.28822049170155" lon="11.541810110525192"><ele>285.3333333333333</ele><time>2026-05-02T15:43:04.999Z</time></trkpt><trkpt lat="43.2882538679091" lon="11.541701785237242"><ele>288.6666666666667</ele><time>2026-05-02T15:43:05.999Z</time></trkpt><trkpt lat="43.2882981397967" lon="11.541600778834834"><ele>292.0</ele><time>2026-05-02T15:43:06.999Z</time></trkpt><trkpt lat="43.28835708200872" lon="11.541517398709896"><ele>295.33333333333337</ele><time>2026-05-02T15:43:07.999Z</time></trkpt><trkpt lat="43.288424345343756" lon="11.541453081618263"><ele>298.6666666666667</ele><time>2026-05-02T15:43:08.999Z</time></trkpt><trkpt lat="43.28849799989868" lon="11.54139944978844"><ele>302.0</ele><time>2026-05-02T15:43:09.999Z</time></trkpt><trkpt lat="43.28857249038061" lon="11.541348812042678"><ele>302.0</ele><time>2026-05-02T15:43:10.999Z</time></trkpt><trkpt lat="43.28864894258698" lon="11.54131186909982"><ele>302.0</ele><time>2026-05-02T15:43:11.999Z</time></trkpt><trkpt lat="43.288729899868905" lon="11.541286279641453"><ele>302.0</ele><time>2026-05-02T15:43:12.999Z</time></trkpt><trkpt lat="43.288808938656715" lon="11.541260765189795"><ele>302.0</ele><time>2026-05-02T15:43:13.999Z</time></trkpt><trkpt lat="43.28888726237596" lon="11.541237104410296"><ele>302.0</ele><time>2026-05-02T15:43:14.999Z</time></trkpt><trkpt lat="43.28896402101234" lon="11.54121318362264"><ele>302.0</ele><time>2026-05-02T15:43:15.999Z</time></trkpt><trkpt lat="43.28903835935989" lon="11.541184938726895"><ele>302.00000000000006</ele><time>2026-05-02T15:43:16.999Z</time></trkpt><trkpt lat="43.289111974102326" lon="11.541157025424498"><ele>302.0</ele><time>2026-05-02T15:43:17.999Z</time></trkpt><trkpt lat="43.28918217165596" lon="11.541137170455656"><ele>302.0</ele><time>2026-05-02T15:43:18.999Z</time></trkpt><trkpt lat="43.28925373077719" lon="11.541122348056689"><ele>302.0</ele><time>2026-05-02T15:43:19.999Z</time></trkpt><trkpt lat="43.28932569408308" lon="11.541118891021334"><ele>302.0</ele><time>2026-05-02T15:43:20.999Z</time></trkpt><trkpt lat="43.28939658267591" lon="11.541133554905787"><ele>302.00000000000006</ele><time>2026-05-02T15:43:21.999Z</time></trkpt><trkpt lat="43.28946912134685" lon="11.54116232454518"><ele>302.0</ele><time>2026-05-02T15:43:22.999Z</time></trkpt><trkpt lat="43.289540186535106" lon="11.54119394762469"><ele>303.14285714285717</ele><time>2026-05-02T15:43:23.999Z</time></trkpt><trkpt lat="43.28961352745553" lon="11.54122140964394"><ele>304.2857142857143</ele><time>2026-05-02T15:43:24.999Z</time></trkpt><trkpt lat="43.28968218450259" lon="11.541239340435066"><ele>305.42857142857144</ele><time>2026-05-02T15:43:25.999Z</time></trkpt><trkpt lat="43.289748404687586" lon="11.541248836161337"><ele>306.57142857142856</ele><time>2026-05-02T15:43:26.999Z</time></trkpt><trkpt lat="43.28981352702802" lon="11.541245663846778"><ele>307.7142857142857</ele><time>2026-05-02T15:43:27.999Z</time></trkpt><trkpt lat="43.28987986478606" lon="11.541235835123345"><ele>308.8571428571429</ele><time>2026-05-02T15:43:28.999Z</time></trkpt><trkpt lat="43.289948089523776" lon="11.54122781689662"><ele>310.0</ele><time>2026-05-02T15:43:29.999Z</time></trkpt><trkpt lat="43.290015853123315" lon="11.541225533291152"><ele>310.7142857142857</ele><time>2026-05-02T15:43:30.999Z</time></trkpt><trkpt lat="43.29008380653944" lon="11.541224984665092"><ele>311.42857142857144</ele><time>2026-05-02T15:43:31.999Z</time></trkpt><trkpt lat="43.290157106663685" lon="11.541222090674442"><ele>312.1428571428571</ele><time>2026-05-02T15:43:32.999Z</time></trkpt><trkpt lat="43.29023206113623" lon="11.541219353612702"><ele>312.8571428571429</ele><time>2026-05-02T15:43:33.999Z</time></trkpt><trkpt lat="43.29030803404645" lon="11.541229058126545"><ele>313.57142857142856</ele><time>2026-05-02T15:43:34.999Z</time></trkpt><trkpt lat="43.2903831445192" lon="11.541246217538188"><ele>314.2857142857143</ele><time>2026-05-02T15:43:35.999Z</time></trkpt><trkpt lat="43.290459965613806" lon="11.541273642019823"><ele>315.0</ele><time>2026-05-02T15:43:36.999Z</time></trkpt><trkpt lat="43.29053328216648" lon="11.541306581560372"><ele>314.1666666666667</ele><time>2026-05-02T15:43:37.999Z</time></trkpt><trkpt lat="43.290611935945805" lon="11.541342663061666"><ele>313.3333333333333</ele><time>2026-05-02T15:43:38.999Z</time></trkpt><trkpt lat="43.290689302849444" lon="11.541373278673083"><ele>312.5</ele><time>2026-05-02T15:43:39.999Z</time></trkpt><trkpt lat="43.290763301008454" lon="11.541399053973159"><ele>311.66666666666663</ele><time>2026-05-02T15:43:40.999Z</time></trkpt><trkpt lat="43.290832742247886" lon="11.541412717433575"><ele>310.8333333333333</ele><time>2026-05-02T15:43:41.999Z</time></trkpt><trkpt lat="43.290903369876034" lon="11.541414590031277"><ele>310.0</ele><time>2026-05-02T15:43:42.999Z</time></trkpt><trkpt lat="43.290973790980594" lon="11.541398332337833"><ele>310.0</ele><time>2026-05-02T15:43:43.999Z</time></trkpt><trkpt lat="43.29104030683363" lon="11.541370572742961"><ele>310.0</ele><time>2026-05-02T15:43:44.999Z</time></trkpt><trkpt lat="43.29110155123121" lon="11.541327908689846"><ele>310.0</ele><time>2026-05-02T15:43:45.999Z</time></trkpt><trkpt lat="43.29116057198187" lon="11.5412783894842"><ele>310.0</ele><time>2026-05-02T15:43:46.999Z</time></trkpt><trkpt lat="43.291215460130665" lon="11.541212651709747"><ele>310.0</ele><time>2026-05-02T15:43:47.999Z</time></trkpt><trkpt lat="43.29126331933397" lon="11.541134159012316"><ele>310.0</ele><time>2026-05-02T15:43:48.999Z</time></trkpt><trkpt lat="43.29130710091982" lon="11.541046599903984"><ele>310.0</ele><time>2026-05-02T15:43:49.999Z</time></trkpt><trkpt lat="43.291334374159355" lon="11.540959566175161"><ele>309.0</ele><time>2026-05-02T15:43:50.999Z</time></trkpt><trkpt lat="43.29134535481728" lon="11.540855777756803"><ele>308.0</ele><time>2026-05-02T15:43:51.999Z</time></trkpt><trkpt lat="43.2913454770207" lon="11.540755353477273"><ele>307.0</ele><time>2026-05-02T15:43:52.999Z</time></trkpt><trkpt lat="43.291338565248985" lon="11.54065401474818"><ele>306.0</ele><time>2026-05-02T15:43:53.999Z</time></trkpt><trkpt lat="43.29132796528557" lon="11.540553697823874"><ele>305.0</ele><time>2026-05-02T15:43:54.999Z</time></trkpt><trkpt lat="43.29131424626909" lon="11.540447678480758"><ele>304.0</ele><time>2026-05-02T15:43:55.999Z</time></trkpt><trkpt lat="43.2913113231939" lon="11.540330715928718"><ele>303.59999999999997</ele><time>2026-05-02T15:43:56.999Z</time></trkpt><trkpt lat="43.29132112018092" lon="11.540212335530908"><ele>303.2</ele><time>2026-05-02T15:43:57.999Z</time></trkpt><trkpt lat="43.291344753415835" lon="11.540087358780859"><ele>302.79999999999995</ele><time>2026-05-02T15:43:58.999Z</time></trkpt><trkpt lat="43.2913751328974" lon="11.539969719229717"><ele>302.4</ele><time>2026-05-02T15:43:59.999Z</time></trkpt><trkpt lat="43.2914151490021" lon="11.539854833112013"><ele>302.0</ele><time>2026-05-02T15:44:00.999Z</time></trkpt><trkpt lat="43.29145817966732" lon="11.53974189879683"><ele>302.83333333333337</ele><time>2026-05-02T15:44:01.999Z</time></trkpt><trkpt lat="43.29149811555714" lon="11.539634837009116"><ele>303.6666666666667</ele><time>2026-05-02T15:44:02.999Z</time></trkpt><trkpt lat="43.29153372658505" lon="11.539526691285435"><ele>304.5</ele><time>2026-05-02T15:44:03.999Z</time></trkpt><trkpt lat="43.29157206454197" lon="11.539425118613428"><ele>305.3333333333333</ele><time>2026-05-02T15:44:05Z</time></trkpt><trkpt lat="43.29160809521895" lon="11.539335803393813"><ele>306.16666666666663</ele><time>2026-05-02T15:44:06Z</time></trkpt><trkpt lat="43.291645676758925" lon="11.539244629621177"><ele>307.0</ele><time>2026-05-02T15:44:07Z</time></trkpt><trkpt lat="43.29167865661707" lon="11.539146120363725"><ele>308.66666666666663</ele><time>2026-05-02T15:44:08Z</time></trkpt><trkpt lat="43.291715295482135" lon="11.539050795499094"><ele>310.3333333333333</ele><time>2026-05-02T15:44:09Z</time></trkpt><trkpt lat="43.291761766971725" lon="11.538964485648942"><ele>312.0</ele><time>2026-05-02T15:44:10Z</time></trkpt><trkpt lat="43.291818775532796" lon="11.538889813078919"><ele>313.6666666666667</ele><time>2026-05-02T15:44:11Z</time></trkpt><trkpt lat="43.29188962742282" lon="11.538839321771876"><ele>315.33333333333337</ele><time>2026-05-02T15:44:12Z</time></trkpt><trkpt lat="43.291967391060766" lon="11.538818272050792"><ele>317.0</ele><time>2026-05-02T15:44:13Z</time></trkpt><trkpt lat="43.29204595807094" lon="11.53881932061706"><ele>317.0</ele><time>2026-05-02T15:44:14Z</time></trkpt><trkpt lat="43.292127610030015" lon="11.538844404799933"><ele>317.0</ele><time>2026-05-02T15:44:15Z</time></trkpt><trkpt lat="43.29222149938538" lon="11.538879065870546"><ele>317.0</ele><time>2026-05-02T15:44:16Z</time></trkpt><trkpt lat="43.29232571124391" lon="11.5389159305256"><ele>317.0</ele><time>2026-05-02T15:44:17Z</time></trkpt><trkpt lat="43.29242878861735" lon="11.538936182372943"><ele>317.0</ele><time>2026-05-02T15:44:18Z</time></trkpt><trkpt lat="43.29252740872233" lon="11.538947498927904"><ele>317.0</ele><time>2026-05-02T15:44:19Z</time></trkpt><trkpt lat="43.29261877580287" lon="11.53894545122161"><ele>317.0</ele><time>2026-05-02T15:44:20Z</time></trkpt><trkpt lat="43.29270183414259" lon="11.53892082097478"><ele>317.0</ele><time>2026-05-02T15:44:21Z</time></trkpt><trkpt lat="43.29278076489202" lon="11.538870852049087"><ele>317.0</ele><time>2026-05-02T15:44:22Z</time></trkpt><trkpt lat="43.29285477685026" lon="11.538802173285521"><ele>317.0</ele><time>2026-05-02T15:44:23Z</time></trkpt><trkpt lat="43.292933566552655" lon="11.538723203542832"><ele>316.1666666666667</ele><time>2026-05-02T15:44:24Z</time></trkpt><trkpt lat="43.29301190134106" lon="11.538646590896862"><ele>315.33333333333337</ele><time>2026-05-02T15:44:25Z</time></trkpt><trkpt lat="43.29308680746667" lon="11.538576907885826"><ele>314.5</ele><time>2026-05-02T15:44:26Z</time></trkpt><trkpt lat="43.29315840087259" lon="11.538512782519724"><ele>313.6666666666667</ele><time>2026-05-02T15:44:27Z</time></trkpt><trkpt lat="43.293229007859686" lon="11.538452072003336"><ele>312.8333333333333</ele><time>2026-05-02T15:44:28Z</time></trkpt><trkpt lat="43.29329577677792" lon="11.538393079195341"><ele>312.0</ele><time>2026-05-02T15:44:29Z</time></trkpt><trkpt lat="43.2933613179622" lon="11.53833290104551"><ele>312.0</ele><time>2026-05-02T15:44:30Z</time></trkpt><trkpt lat="43.293431875121875" lon="11.538269889135947"><ele>312.0</ele><time>2026-05-02T15:44:31Z</time></trkpt><trkpt lat="43.293513023777294" lon="11.538199002049197"><ele>312.0</ele><time>2026-05-02T15:44:32Z</time></trkpt><trkpt lat="43.293600042207025" lon="11.538119030947774"><ele>312.0</ele><time>2026-05-02T15:44:33Z</time></trkpt><trkpt lat="43.29369212471747" lon="11.538032474636966"><ele>312.0</ele><time>2026-05-02T15:44:34Z</time></trkpt><trkpt lat="43.29378663461982" lon="11.537940480724583"><ele>312.25</ele><time>2026-05-02T15:44:35Z</time></trkpt><trkpt lat="43.29388340619957" lon="11.53784927783151"><ele>312.5</ele><time>2026-05-02T15:44:36Z</time></trkpt><trkpt lat="43.29398614513601" lon="11.537756983702328"><ele>312.75</ele><time>2026-05-02T15:44:37Z</time></trkpt><trkpt lat="43.294092473309014" lon="11.537647655570952"><ele>313.0</ele><time>2026-05-02T15:44:38Z</time></trkpt><trkpt lat="43.2941955556331" lon="11.537524749037589"><ele>313.0</ele><time>2026-05-02T15:44:39Z</time></trkpt><trkpt lat="43.29429209946128" lon="11.53740418380092"><ele>313.0</ele><time>2026-05-02T15:44:40Z</time></trkpt><trkpt lat="43.294381978507346" lon="11.537289645099486"><ele>313.0</ele><time>2026-05-02T15:44:41Z</time></trkpt><trkpt lat="43.29446927792243" lon="11.537187770765017"><ele>313.0</ele><time>2026-05-02T15:44:42Z</time></trkpt><trkpt lat="43.29455974012293" lon="11.53710801870072"><ele>311.8</ele><time>2026-05-02T15:44:43Z</time></trkpt><trkpt lat="43.294648100481155" lon="11.5370406517737"><ele>310.6</ele><time>2026-05-02T15:44:44Z</time></trkpt><trkpt lat="43.294736787702114" lon="11.536984847757015"><ele>309.4</ele><time>2026-05-02T15:44:45Z</time></trkpt><trkpt lat="43.294822518845905" lon="11.536930093877388"><ele>308.2</ele><time>2026-05-02T15:44:46Z</time></trkpt><trkpt lat="43.29491723643981" lon="11.536874269261984"><ele>307.0</ele><time>2026-05-02T15:44:47Z</time></trkpt><trkpt lat="43.29501434614372" lon="11.536831469717871"><ele>307.0</ele><time>2026-05-02T15:44:48Z</time></trkpt><trkpt lat="43.29511433958672" lon="11.536805524255527"><ele>307.0</ele><time>2026-05-02T15:44:49Z</time></trkpt><trkpt lat="43.29521058652584" lon="11.536788703424737"><ele>307.0</ele><time>2026-05-02T15:44:50Z</time></trkpt><trkpt lat="43.29530666537622" lon="11.536763871084815"><ele>307.0</ele><time>2026-05-02T15:44:50.999Z</time></trkpt><trkpt lat="43.295401075962346" lon="11.536707171672232"><ele>307.0</ele><time>2026-05-02T15:44:51.999Z</time></trkpt><trkpt lat="43.29547857093117" lon="11.536624278780588"><ele>307.0</ele><time>2026-05-02T15:44:52.999Z</time></trkpt><trkpt lat="43.29554091816375" lon="11.536519933994162"><ele>307.0</ele><time>2026-05-02T15:44:53.999Z</time></trkpt><trkpt lat="43.295591392573336" lon="11.536404411107595"><ele>307.0</ele><time>2026-05-02T15:44:54.999Z</time></trkpt><trkpt lat="43.29563833104512" lon="11.536271829773382"><ele>307.0</ele><time>2026-05-02T15:44:55.999Z</time></trkpt><trkpt lat="43.29568247904867" lon="11.536141605087359"><ele>307.0</ele><time>2026-05-02T15:44:56.999Z</time></trkpt><trkpt lat="43.29572519483193" lon="11.536013602025205"><ele>310.2</ele><time>2026-05-02T15:44:57.999Z</time></trkpt><trkpt lat="43.29576721204858" lon="11.535888346513172"><ele>313.4</ele><time>2026-05-02T15:44:58.999Z</time></trkpt><trkpt lat="43.29580210188868" lon="11.535761316290492"><ele>316.59999999999997</ele><time>2026-05-02T15:44:59.999Z</time></trkpt><trkpt lat="43.295823876185906" lon="11.535630218926562"><ele>319.79999999999995</ele><time>2026-05-02T15:45:00.999Z</time></trkpt><trkpt lat="43.295833005020896" lon="11.535491151081883"><ele>323.0</ele><time>2026-05-02T15:45:01.999Z</time></trkpt><trkpt lat="43.295841727439424" lon="11.535350704399555"><ele>323.6666666666667</ele><time>2026-05-02T15:45:02.999Z</time></trkpt><trkpt lat="43.29585394382837" lon="11.535217253616867"><ele>324.33333333333337</ele><time>2026-05-02T15:45:03.999Z</time></trkpt><trkpt lat="43.29586569424567" lon="11.535087966892837"><ele>325.0</ele><time>2026-05-02T15:45:04.999Z</time></trkpt><trkpt lat="43.295872425811616" lon="11.534972409895692"><ele>325.6666666666667</ele><time>2026-05-02T15:45:05.999Z</time></trkpt><trkpt lat="43.29586122383869" lon="11.53486721797755"><ele>326.3333333333333</ele><time>2026-05-02T15:45:06.999Z</time></trkpt><trkpt lat="43.29583417462973" lon="11.534772706827628"><ele>327.0</ele><time>2026-05-02T15:45:07.999Z</time></trkpt><trkpt lat="43.295789746988355" lon="11.534690706440632"><ele>327.0</ele><time>2026-05-02T15:45:08.999Z</time></trkpt><trkpt lat="43.29572902828542" lon="11.534623314079367"><ele>327.0</ele><time>2026-05-02T15:45:09.999Z</time></trkpt><trkpt lat="43.2956577790936" lon="11.53456703756294"><ele>327.0</ele><time>2026-05-02T15:45:10.999Z</time></trkpt><trkpt lat="43.295581035083885" lon="11.534511313409745"><ele>327.0</ele><time>2026-05-02T15:45:11.999Z</time></trkpt><trkpt lat="43.2955002615634" lon="11.534452944006247"><ele>327.0</ele><time>2026-05-02T15:45:12.999Z</time></trkpt><trkpt lat="43.29541819588005" lon="11.534388270090371"><ele>327.0</ele><time>2026-05-02T15:45:13.999Z</time></trkpt><trkpt lat="43.29534039538974" lon="11.534318795540505"><ele>327.6</ele><time>2026-05-02T15:45:14.999Z</time></trkpt><trkpt lat="43.29526816511169" lon="11.534230910964816"><ele>328.20000000000005</ele><time>2026-05-02T15:45:15.999Z</time></trkpt><trkpt lat="43.295205325937516" lon="11.53412831769641"><ele>328.8</ele><time>2026-05-02T15:45:16.999Z</time></trkpt><trkpt lat="43.29514642901084" lon="11.534032708397337"><ele>329.4</ele><time>2026-05-02T15:45:17.999Z</time></trkpt><trkpt lat="43.29507603023654" lon="11.533952287069477"><ele>330.0</ele><time>2026-05-02T15:45:18.999Z</time></trkpt><trkpt lat="43.29498722296085" lon="11.53388808643816"><ele>330.0</ele><time>2026-05-02T15:45:19.999Z</time></trkpt><trkpt lat="43.294890789615046" lon="11.533842907299377"><ele>330.0</ele><time>2026-05-02T15:45:20.999Z</time></trkpt><trkpt lat="43.2947938765504" lon="11.533803363527763"><ele>330.0</ele><time>2026-05-02T15:45:21.999Z</time></trkpt><trkpt lat="43.29470660421211" lon="11.533755216014814"><ele>330.0</ele><time>2026-05-02T15:45:22.999Z</time></trkpt><trkpt lat="43.294626286101526" lon="11.53369178806636"><ele>330.0</ele><time>2026-05-02T15:45:23.999Z</time></trkpt><trkpt lat="43.29456015108161" lon="11.533612433347276"><ele>328.6</ele><time>2026-05-02T15:45:24.999Z</time></trkpt><trkpt lat="43.29452132293772" lon="11.533510134470282"><ele>327.2</ele><time>2026-05-02T15:45:25.999Z</time></trkpt><trkpt lat="43.2945019609737" lon="11.533403816530777"><ele>325.79999999999995</ele><time>2026-05-02T15:45:26.999Z</time></trkpt><trkpt lat="43.294499305052994" lon="11.53327795541514"><ele>324.4</ele><time>2026-05-02T15:45:27.999Z</time></trkpt><trkpt lat="43.29449891285455" lon="11.533139436348772"><ele>323.0</ele><time>2026-05-02T15:45:28.999Z</time></trkpt><trkpt lat="43.29449622414299" lon="11.532986866306134"><ele>323.5</ele><time>2026-05-02T15:45:29.999Z</time></trkpt><trkpt lat="43.29449230195828" lon="11.532827297173622"><ele>324.0</ele><time>2026-05-02T15:45:30.999Z</time></trkpt><trkpt lat="43.29449721781066" lon="11.532666493216878"><ele>324.5</ele><time>2026-05-02T15:45:31.999Z</time></trkpt><trkpt lat="43.29451775579247" lon="11.53250912309102"><ele>325.0</ele><time>2026-05-02T15:45:32.999Z</time></trkpt><trkpt lat="43.29454624511988" lon="11.532354293760172"><ele>325.0</ele><time>2026-05-02T15:45:33.999Z</time></trkpt><trkpt lat="43.29458526285695" lon="11.532206120180838"><ele>325.0</ele><time>2026-05-02T15:45:34.999Z</time></trkpt><trkpt lat="43.29463184569083" lon="11.53206627576268"><ele>325.0</ele><time>2026-05-02T15:45:35.999Z</time></trkpt><trkpt lat="43.294680284497225" lon="11.53192640610194"><ele>325.0</ele><time>2026-05-02T15:45:36.999Z</time></trkpt><trkpt lat="43.294736533770454" lon="11.531795061245543"><ele>322.75</ele><time>2026-05-02T15:45:37.999Z</time></trkpt><trkpt lat="43.294803971707346" lon="11.531671620995194"><ele>320.5</ele><time>2026-05-02T15:45:38.999Z</time></trkpt><trkpt lat="43.294871429573895" lon="11.531548304678637"><ele>318.25</ele><time>2026-05-02T15:45:39.999Z</time></trkpt><trkpt lat="43.29493653119391" lon="11.53142165460682"><ele>316.0</ele><time>2026-05-02T15:45:40.999Z</time></trkpt><trkpt lat="43.29500289855666" lon="11.531295481540761"><ele>316.8</ele><time>2026-05-02T15:45:41.999Z</time></trkpt><trkpt lat="43.29507249512158" lon="11.531177348207562"><ele>317.6</ele><time>2026-05-02T15:45:42.999Z</time></trkpt><trkpt lat="43.29514853298575" lon="11.531073365740635"><ele>318.4</ele><time>2026-05-02T15:45:43.999Z</time></trkpt><trkpt lat="43.295228469336806" lon="11.5309845534176"><ele>319.2</ele><time>2026-05-02T15:45:44.999Z</time></trkpt><trkpt lat="43.29532060413097" lon="11.530903713438558"><ele>320.0</ele><time>2026-05-02T15:45:45.999Z</time></trkpt><trkpt lat="43.29542050435368" lon="11.530825508697466"><ele>320.0</ele><time>2026-05-02T15:45:46.999Z</time></trkpt><trkpt lat="43.29552470001228" lon="11.530751394049569"><ele>320.0</ele><time>2026-05-02T15:45:47.999Z</time></trkpt><trkpt lat="43.295630232299835" lon="11.530683500190442"><ele>320.0</ele><time>2026-05-02T15:45:48.999Z</time></trkpt><trkpt lat="43.295734651286004" lon="11.53062204544609"><ele>320.0</ele><time>2026-05-02T15:45:49.999Z</time></trkpt><trkpt lat="43.29583706776543" lon="11.530573414455777"><ele>317.6</ele><time>2026-05-02T15:45:50.999Z</time></trkpt><trkpt lat="43.295935704546984" lon="11.530533124894516"><ele>315.2</ele><time>2026-05-02T15:45:51.999Z</time></trkpt><trkpt lat="43.29603119229033" lon="11.530493120755413"><ele>312.8</ele><time>2026-05-02T15:45:52.999Z</time></trkpt><trkpt lat="43.29612532837296" lon="11.530455241467045"><ele>310.4</ele><time>2026-05-02T15:45:53.999Z</time></trkpt><trkpt lat="43.296220312685904" lon="11.530419793892674"><ele>308.0</ele><time>2026-05-02T15:45:54.999Z</time></trkpt><trkpt lat="43.296312332339646" lon="11.53038399150198"><ele>308.0</ele><time>2026-05-02T15:45:55.999Z</time></trkpt><trkpt lat="43.29639976287602" lon="11.530349793781006"><ele>308.0</ele><time>2026-05-02T15:45:56.999Z</time></trkpt><trkpt lat="43.296481011603625" lon="11.530316230409865"><ele>308.0</ele><time>2026-05-02T15:45:57.999Z</time></trkpt><trkpt lat="43.2965552712005" lon="11.530277510604648"><ele>308.0</ele><time>2026-05-02T15:45:58.999Z</time></trkpt><trkpt lat="43.29661404814891" lon="11.53022500020416"><ele>308.0</ele><time>2026-05-02T15:45:59.999Z</time></trkpt><trkpt lat="43.29667599769409" lon="11.530085458967942"><ele>308.0</ele><time>2026-05-02T15:46:01.999Z</time></trkpt><trkpt lat="43.29666001892776" lon="11.529930170799389"><ele>308.0</ele><time>2026-05-02T15:46:03.999Z</time></trkpt><trkpt lat="43.29656891610332" lon="11.529811933536601"><ele>308.0</ele><time>2026-05-02T15:46:05.999Z</time></trkpt><trkpt lat="43.296506168252044" lon="11.529770835670806"><ele>308.0</ele><time>2026-05-02T15:46:06.999Z</time></trkpt><trkpt lat="43.296433740945126" lon="11.5297297655202"><ele>308.0</ele><time>2026-05-02T15:46:07.999Z</time></trkpt><trkpt lat="43.296352369445465" lon="11.529690463131285"><ele>308.0</ele><time>2026-05-02T15:46:08.999Z</time></trkpt><trkpt lat="43.29626574801834" lon="11.52965553269447"><ele>308.0</ele><time>2026-05-02T15:46:10Z</time></trkpt><trkpt lat="43.29617672848706" lon="11.529601414064581"><ele>308.0</ele><time>2026-05-02T15:46:11Z</time></trkpt><trkpt lat="43.296077278722244" lon="11.529586630735754"><ele>308.0</ele><time>2026-05-02T15:46:12Z</time></trkpt><trkpt lat="43.29597506870511" lon="11.529585601484683"><ele>308.0</ele><time>2026-05-02T15:46:13Z</time></trkpt><trkpt lat="43.2958785324303" lon="11.529532586433186"><ele>308.0</ele><time>2026-05-02T15:46:14Z</time></trkpt><trkpt lat="43.295789569896556" lon="11.529453857987992"><ele>306.1666666666667</ele><time>2026-05-02T15:46:15Z</time></trkpt><trkpt lat="43.295697629210544" lon="11.529394877493408"><ele>304.33333333333337</ele><time>2026-05-02T15:46:16Z</time></trkpt><trkpt lat="43.29561760092887" lon="11.529323320457111"><ele>302.5</ele><time>2026-05-02T15:46:17Z</time></trkpt><trkpt lat="43.295530692809734" lon="11.529287786704861"><ele>300.6666666666667</ele><time>2026-05-02T15:46:18Z</time></trkpt><trkpt lat="43.2954510787948" lon="11.52927994081617"><ele>298.8333333333333</ele><time>2026-05-02T15:46:19Z</time></trkpt><trkpt lat="43.29539107212068" lon="11.529238899453723"><ele>297.0</ele><time>2026-05-02T15:46:20Z</time></trkpt><trkpt lat="43.29534874894964" lon="11.529174831634654"><ele>297.0</ele><time>2026-05-02T15:46:21Z</time></trkpt><trkpt lat="43.29533478626231" lon="11.529083548856804"><ele>297.0</ele><time>2026-05-02T15:46:22Z</time></trkpt><trkpt lat="43.29536282198231" lon="11.528984721003525"><ele>297.0</ele><time>2026-05-02T15:46:23Z</time></trkpt><trkpt lat="43.295416328720286" lon="11.528917589078015"><ele>297.0</ele><time>2026-05-02T15:46:24Z</time></trkpt><trkpt lat="43.29548742527221" lon="11.528861406023283"><ele>297.0</ele><time>2026-05-02T15:46:25Z</time></trkpt><trkpt lat="43.29556889224903" lon="11.528809929327872"><ele>297.0</ele><time>2026-05-02T15:46:26Z</time></trkpt><trkpt lat="43.29564989207662" lon="11.52874991309452"><ele>296.0</ele><time>2026-05-02T15:46:27Z</time></trkpt><trkpt lat="43.29572980158778" lon="11.528684715207424"><ele>295.0</ele><time>2026-05-02T15:46:28Z</time></trkpt><trkpt lat="43.295801113590215" lon="11.52861082997768"><ele>294.0</ele><time>2026-05-02T15:46:29Z</time></trkpt><trkpt lat="43.29586068581556" lon="11.52852358482033"><ele>293.0</ele><time>2026-05-02T15:46:30Z</time></trkpt><trkpt lat="43.29590778201579" lon="11.52842137119523"><ele>292.0</ele><time>2026-05-02T15:46:31Z</time></trkpt><trkpt lat="43.29593822801636" lon="11.528297195149424"><ele>292.0</ele><time>2026-05-02T15:46:32Z</time></trkpt><trkpt lat="43.295955295793014" lon="11.528157095297162"><ele>292.0</ele><time>2026-05-02T15:46:33Z</time></trkpt><trkpt lat="43.29596749264105" lon="11.528003677281854"><ele>292.0</ele><time>2026-05-02T15:46:34Z</time></trkpt><trkpt lat="43.2959822522189" lon="11.527841489061254"><ele>292.0</ele><time>2026-05-02T15:46:35Z</time></trkpt><trkpt lat="43.296003351779724" lon="11.527679062335842"><ele>292.0</ele><time>2026-05-02T15:46:36Z</time></trkpt><trkpt lat="43.29602642120064" lon="11.527521415829108"><ele>292.0</ele><time>2026-05-02T15:46:37Z</time></trkpt><trkpt lat="43.29604426950261" lon="11.527359886626549"><ele>292.0</ele><time>2026-05-02T15:46:38Z</time></trkpt><trkpt lat="43.296087580645604" lon="11.52720816017329"><ele>292.0</ele><time>2026-05-02T15:46:39Z</time></trkpt><trkpt lat="43.296136030137504" lon="11.527069715161357"><ele>290.0</ele><time>2026-05-02T15:46:40Z</time></trkpt><trkpt lat="43.29620114877505" lon="11.526937694296812"><ele>288.0</ele><time>2026-05-02T15:46:41Z</time></trkpt><trkpt lat="43.29627584022834" lon="11.526810654384942"><ele>286.0</ele><time>2026-05-02T15:46:42Z</time></trkpt><trkpt lat="43.29634587533654" lon="11.526688160932633"><ele>284.0</ele><time>2026-05-02T15:46:43Z</time></trkpt><trkpt lat="43.296415581497406" lon="11.526575693543268"><ele>285.0</ele><time>2026-05-02T15:46:44Z</time></trkpt><trkpt lat="43.29648176465551" lon="11.52646688238975"><ele>286.0</ele><time>2026-05-02T15:46:45Z</time></trkpt><trkpt lat="43.296552229649" lon="11.526362156487657"><ele>287.0</ele><time>2026-05-02T15:46:46Z</time></trkpt><trkpt lat="43.296630594782926" lon="11.526269050818533"><ele>288.0</ele><time>2026-05-02T15:46:47Z</time></trkpt><trkpt lat="43.29670747087998" lon="11.526195191566865"><ele>289.0</ele><time>2026-05-02T15:46:48Z</time></trkpt><trkpt lat="43.2967677595566" lon="11.526101647645547"><ele>289.0</ele><time>2026-05-02T15:46:49Z</time></trkpt><trkpt lat="43.29680384355322" lon="11.525986873649998"><ele>289.0</ele><time>2026-05-02T15:46:50Z</time></trkpt><trkpt lat="43.29680953337143" lon="11.525864799150783"><ele>289.0</ele><time>2026-05-02T15:46:51Z</time></trkpt><trkpt lat="43.296796058796474" lon="11.525742476853873"><ele>289.0</ele><time>2026-05-02T15:46:52Z</time></trkpt><trkpt lat="43.29677490209721" lon="11.52561712658503"><ele>289.0</ele><time>2026-05-02T15:46:52.999Z</time></trkpt><trkpt lat="43.29676865128526" lon="11.525486534257741"><ele>289.59999999999997</ele><time>2026-05-02T15:46:53.999Z</time></trkpt><trkpt lat="43.29677994849459" lon="11.525354770285606"><ele>290.2</ele><time>2026-05-02T15:46:54.999Z</time></trkpt><trkpt lat="43.296798154729856" lon="11.52522566856537"><ele>290.79999999999995</ele><time>2026-05-02T15:46:55.999Z</time></trkpt><trkpt lat="43.296804973250985" lon="11.525098554801433"><ele>291.4</ele><time>2026-05-02T15:46:56.999Z</time></trkpt><trkpt lat="43.29678415698901" lon="11.524972918181817"><ele>292.0</ele><time>2026-05-02T15:46:57.999Z</time></trkpt><trkpt lat="43.296742838743974" lon="11.52485158543585"><ele>292.0</ele><time>2026-05-02T15:46:58.999Z</time></trkpt><trkpt lat="43.296693173851104" lon="11.524738556757596"><ele>292.0</ele><time>2026-05-02T15:46:59.999Z</time></trkpt><trkpt lat="43.29664691603068" lon="11.524625107280436"><ele>292.0</ele><time>2026-05-02T15:47:00.999Z</time></trkpt><trkpt lat="43.29661771948756" lon="11.524501485695446"><ele>292.0</ele><time>2026-05-02T15:47:01.999Z</time></trkpt><trkpt lat="43.29659784399295" lon="11.524370191641554"><ele>292.0</ele><time>2026-05-02T15:47:02.999Z</time></trkpt><trkpt lat="43.296582896955385" lon="11.524236024074945"><ele>294.0</ele><time>2026-05-02T15:47:03.999Z</time></trkpt><trkpt lat="43.29656848590298" lon="11.52409959332684"><ele>296.0</ele><time>2026-05-02T15:47:04.999Z</time></trkpt><trkpt lat="43.296549244077376" lon="11.52396448803158"><ele>298.0</ele><time>2026-05-02T15:47:05.999Z</time></trkpt><trkpt lat="43.29652835504717" lon="11.523828851217356"><ele>300.0</ele><time>2026-05-02T15:47:06.999Z</time></trkpt><trkpt lat="43.296506736872914" lon="11.523691780794985"><ele>302.0</ele><time>2026-05-02T15:47:07.999Z</time></trkpt><trkpt lat="43.29648542463925" lon="11.523561168660944"><ele>302.8</ele><time>2026-05-02T15:47:08.999Z</time></trkpt><trkpt lat="43.296470411706714" lon="11.523430257272473"><ele>303.6</ele><time>2026-05-02T15:47:09.999Z</time></trkpt><trkpt lat="43.29646084558177" lon="11.523295225707052"><ele>304.40000000000003</ele><time>2026-05-02T15:47:10.999Z</time></trkpt><trkpt lat="43.296451463023544" lon="11.52315630095952"><ele>305.2</ele><time>2026-05-02T15:47:11.999Z</time></trkpt><trkpt lat="43.2964497396896" lon="11.523022408159655"><ele>306.0</ele><time>2026-05-02T15:47:12.999Z</time></trkpt><trkpt lat="43.29645340318008" lon="11.522889291530399"><ele>306.0</ele><time>2026-05-02T15:47:13.999Z</time></trkpt><trkpt lat="43.2964661915052" lon="11.522755172408642"><ele>306.0</ele><time>2026-05-02T15:47:14.999Z</time></trkpt><trkpt lat="43.2964950906845" lon="11.522627629453435"><ele>306.0</ele><time>2026-05-02T15:47:15.999Z</time></trkpt><trkpt lat="43.29654845304992" lon="11.522510594541593"><ele>306.0</ele><time>2026-05-02T15:47:16.999Z</time></trkpt><trkpt lat="43.296611874156284" lon="11.522401120106347"><ele>306.0</ele><time>2026-05-02T15:47:17.999Z</time></trkpt><trkpt lat="43.2966718406336" lon="11.5222860179758"><ele>306.0</ele><time>2026-05-02T15:47:18.999Z</time></trkpt><trkpt lat="43.29671148189149" lon="11.522157217765841"><ele>306.0</ele><time>2026-05-02T15:47:19.999Z</time></trkpt><trkpt lat="43.296731637048545" lon="11.522025174849494"><ele>306.0</ele><time>2026-05-02T15:47:20.999Z</time></trkpt><trkpt lat="43.296746994827885" lon="11.521893658581797"><ele>306.0</ele><time>2026-05-02T15:47:21.999Z</time></trkpt><trkpt lat="43.296767589587795" lon="11.521771876656288"><ele>306.0</ele><time>2026-05-02T15:47:22.999Z</time></trkpt><trkpt lat="43.29681147534086" lon="11.521674902159237"><ele>304.0</ele><time>2026-05-02T15:47:23.999Z</time></trkpt><trkpt lat="43.29686650848484" lon="11.521580226575379"><ele>302.0</ele><time>2026-05-02T15:47:24.999Z</time></trkpt><trkpt lat="43.296962244724284" lon="11.521538881726833"><ele>300.0</ele><time>2026-05-02T15:47:25.999Z</time></trkpt><trkpt lat="43.29704948929388" lon="11.521483930411758"><ele>298.0</ele><time>2026-05-02T15:47:26.999Z</time></trkpt><trkpt lat="43.29714060750862" lon="11.521439515458203"><ele>296.0</ele><time>2026-05-02T15:47:27.999Z</time></trkpt><trkpt lat="43.29723771728395" lon="11.52140302363927"><ele>297.6</ele><time>2026-05-02T15:47:28.999Z</time></trkpt><trkpt lat="43.297338911053544" lon="11.521379897601587"><ele>299.20000000000005</ele><time>2026-05-02T15:47:29.999Z</time></trkpt><trkpt lat="43.29743977777606" lon="11.521376583255364"><ele>300.79999999999995</ele><time>2026-05-02T15:47:30.999Z</time></trkpt><trkpt lat="43.29753186893733" lon="11.521399513040999"><ele>302.4</ele><time>2026-05-02T15:47:31.999Z</time></trkpt><trkpt lat="43.297614820415276" lon="11.521444306579331"><ele>304.0</ele><time>2026-05-02T15:47:32.999Z</time></trkpt><trkpt lat="43.29769297170018" lon="11.52150634833604"><ele>304.0</ele><time>2026-05-02T15:47:33.999Z</time></trkpt><trkpt lat="43.29776009131838" lon="11.521595650951424"><ele>304.0</ele><time>2026-05-02T15:47:34.999Z</time></trkpt><trkpt lat="43.29783637594244" lon="11.521678473550555"><ele>304.0</ele><time>2026-05-02T15:47:35.999Z</time></trkpt><trkpt lat="43.297912497312595" lon="11.5217690790747"><ele>304.0</ele><time>2026-05-02T15:47:36.999Z</time></trkpt><trkpt lat="43.29798106700226" lon="11.52186505817614"><ele>304.0</ele><time>2026-05-02T15:47:37.999Z</time></trkpt><trkpt lat="43.29803892064905" lon="11.521973043100203"><ele>304.2</ele><time>2026-05-02T15:47:38.999Z</time></trkpt><trkpt lat="43.29808944690067" lon="11.522094851493346"><ele>304.4</ele><time>2026-05-02T15:47:39.999Z</time></trkpt><trkpt lat="43.2981442344306" lon="11.52220109854436"><ele>304.6</ele><time>2026-05-02T15:47:40.999Z</time></trkpt><trkpt lat="43.2982123391884" lon="11.522286112077492"><ele>304.8</ele><time>2026-05-02T15:47:41.999Z</time></trkpt><trkpt lat="43.29829927895397" lon="11.522321042649423"><ele>305.0</ele><time>2026-05-02T15:47:42.999Z</time></trkpt><trkpt lat="43.29838446392715" lon="11.522344961753223"><ele>305.0</ele><time>2026-05-02T15:47:43.999Z</time></trkpt><trkpt lat="43.29847131288756" lon="11.522329228096496"><ele>305.0</ele><time>2026-05-02T15:47:44.999Z</time></trkpt><trkpt lat="43.29855331361699" lon="11.52229340097979"><ele>305.0</ele><time>2026-05-02T15:47:45.999Z</time></trkpt><trkpt lat="43.2986364723853" lon="11.522282176427419"><ele>305.0</ele><time>2026-05-02T15:47:46.999Z</time></trkpt><trkpt lat="43.29871733302981" lon="11.522309360574516"><ele>305.0</ele><time>2026-05-02T15:47:47.999Z</time></trkpt><trkpt lat="43.29879188749791" lon="11.522361903194513"><ele>305.0</ele><time>2026-05-02T15:47:48.999Z</time></trkpt><trkpt lat="43.29885506705029" lon="11.522460757759179"><ele>303.6</ele><time>2026-05-02T15:47:49.999Z</time></trkpt><trkpt lat="43.29895033732371" lon="11.522514820103458"><ele>302.2</ele><time>2026-05-02T15:47:50.999Z</time></trkpt><trkpt lat="43.299049735383186" lon="11.522552470743218"><ele>300.8</ele><time>2026-05-02T15:47:51.999Z</time></trkpt><trkpt lat="43.29915510969465" lon="11.522555763591996"><ele>299.4</ele><time>2026-05-02T15:47:52.999Z</time></trkpt><trkpt lat="43.29925932417939" lon="11.522539295592736"><ele>298.0</ele><time>2026-05-02T15:47:53.999Z</time></trkpt><trkpt lat="43.29935656577626" lon="11.522521530449337"><ele>298.0</ele><time>2026-05-02T15:47:54.999Z</time></trkpt><trkpt lat="43.29944794643993" lon="11.522489801232338"><ele>298.0</ele><time>2026-05-02T15:47:55.999Z</time></trkpt><trkpt lat="43.299533248530416" lon="11.522444564901225"><ele>298.0</ele><time>2026-05-02T15:47:56.999Z</time></trkpt><trkpt lat="43.299608433115175" lon="11.522387072376679"><ele>298.0</ele><time>2026-05-02T15:47:57.999Z</time></trkpt><trkpt lat="43.29967782319794" lon="11.52233356938153"><ele>298.0</ele><time>2026-05-02T15:47:58.999Z</time></trkpt><trkpt lat="43.29975863977099" lon="11.522289015114845"><ele>298.0</ele><time>2026-05-02T15:47:59.999Z</time></trkpt><trkpt lat="43.29985643163695" lon="11.522259916104993"><ele>298.25</ele><time>2026-05-02T15:48:00.999Z</time></trkpt><trkpt lat="43.29996850313506" lon="11.522247099686147"><ele>298.5</ele><time>2026-05-02T15:48:01.999Z</time></trkpt><trkpt lat="43.300089041210704" lon="11.522247001897098"><ele>298.75</ele><time>2026-05-02T15:48:02.999Z</time></trkpt><trkpt lat="43.30020355277601" lon="11.522283272044739"><ele>299.0</ele><time>2026-05-02T15:48:03.999Z</time></trkpt><trkpt lat="43.300307748736145" lon="11.52231911816726"><ele>299.0</ele><time>2026-05-02T15:48:04.999Z</time></trkpt><trkpt lat="43.30040530541017" lon="11.522349265407673"><ele>299.0</ele><time>2026-05-02T15:48:05.999Z</time></trkpt><trkpt lat="43.3005002632838" lon="11.522400287579517"><ele>299.0</ele><time>2026-05-02T15:48:06.999Z</time></trkpt><trkpt lat="43.30059652338382" lon="11.522449632418965"><ele>299.0</ele><time>2026-05-02T15:48:07.999Z</time></trkpt><trkpt lat="43.30069587747884" lon="11.5224874910145"><ele>299.0</ele><time>2026-05-02T15:48:08.999Z</time></trkpt><trkpt lat="43.30079912435093" lon="11.522515825568888"><ele>298.0</ele><time>2026-05-02T15:48:09.999Z</time></trkpt><trkpt lat="43.300902849865324" lon="11.522539443349187"><ele>297.0</ele><time>2026-05-02T15:48:10.999Z</time></trkpt><trkpt lat="43.301001234002804" lon="11.522572847441674"><ele>296.0</ele><time>2026-05-02T15:48:11.999Z</time></trkpt><trkpt lat="43.30109222518037" lon="11.522614188876352"><ele>295.0</ele><time>2026-05-02T15:48:12.999Z</time></trkpt><trkpt lat="43.30117948551735" lon="11.522654790286795"><ele>294.0</ele><time>2026-05-02T15:48:13.999Z</time></trkpt><trkpt lat="43.30126208144626" lon="11.522705023506001"><ele>294.0</ele><time>2026-05-02T15:48:15Z</time></trkpt><trkpt lat="43.30134114539559" lon="11.522756007621531"><ele>294.0</ele><time>2026-05-02T15:48:16Z</time></trkpt><trkpt lat="43.30141818006351" lon="11.522807119826743"><ele>294.0</ele><time>2026-05-02T15:48:17Z</time></trkpt><trkpt lat="43.30149818672209" lon="11.522866945213789"><ele>294.0</ele><time>2026-05-02T15:48:18Z</time></trkpt><trkpt lat="43.30159423361212" lon="11.522885533242663"><ele>294.0</ele><time>2026-05-02T15:48:19Z</time></trkpt><trkpt lat="43.301690658671525" lon="11.52290550250793"><ele>297.8</ele><time>2026-05-02T15:48:20Z</time></trkpt><trkpt lat="43.3017893899642" lon="11.522916924761256"><ele>301.59999999999997</ele><time>2026-05-02T15:48:21Z</time></trkpt><trkpt lat="43.301892028305836" lon="11.522930788575527"><ele>305.4</ele><time>2026-05-02T15:48:22Z</time></trkpt><trkpt lat="43.30199464973009" lon="11.522947888534485"><ele>309.2</ele><time>2026-05-02T15:48:23Z</time></trkpt><trkpt lat="43.30209599628903" lon="11.52295583474902"><ele>313.0</ele><time>2026-05-02T15:48:24Z</time></trkpt><trkpt lat="43.30219785058786" lon="11.522944452012169"><ele>313.2</ele><time>2026-05-02T15:48:25Z</time></trkpt><trkpt lat="43.30229865168136" lon="11.522912518735758"><ele>313.4</ele><time>2026-05-02T15:48:26Z</time></trkpt><trkpt lat="43.30240137908199" lon="11.522864872210999"><ele>313.59999999999997</ele><time>2026-05-02T15:48:27Z</time></trkpt><trkpt lat="43.30250603013786" lon="11.522817097174032"><ele>313.8</ele><time>2026-05-02T15:48:28Z</time></trkpt><trkpt lat="43.30260861232589" lon="11.522776482926156"><ele>314.0</ele><time>2026-05-02T15:48:29Z</time></trkpt><trkpt lat="43.30271535671041" lon="11.522741207260085"><ele>309.59999999999997</ele><time>2026-05-02T15:48:30Z</time></trkpt><trkpt lat="43.30281830337981" lon="11.522719364762557"><ele>305.2</ele><time>2026-05-02T15:48:31Z</time></trkpt><trkpt lat="43.30292211815632" lon="11.522704036887779"><ele>300.79999999999995</ele><time>2026-05-02T15:48:32Z</time></trkpt><trkpt lat="43.30302363103556" lon="11.522691192237566"><ele>296.4</ele><time>2026-05-02T15:48:33Z</time></trkpt><trkpt lat="43.30312135241451" lon="11.522693678822824"><ele>292.0</ele><time>2026-05-02T15:48:34Z</time></trkpt><trkpt lat="43.303213979790236" lon="11.522706678770655"><ele>291.5</ele><time>2026-05-02T15:48:35Z</time></trkpt><trkpt lat="43.30329699951976" lon="11.522740995633251"><ele>291.0</ele><time>2026-05-02T15:48:36Z</time></trkpt><trkpt lat="43.30337480504601" lon="11.522791457716158"><ele>290.5</ele><time>2026-05-02T15:48:37Z</time></trkpt><trkpt lat="43.303414508389004" lon="11.522886898116822"><ele>290.0</ele><time>2026-05-02T15:48:38Z</time></trkpt><trkpt lat="43.303466105934646" lon="11.522962166082818"><ele>289.5</ele><time>2026-05-02T15:48:39Z</time></trkpt><trkpt lat="43.30351533141151" lon="11.523041282715006"><ele>289.0</ele><time>2026-05-02T15:48:40Z</time></trkpt><trkpt lat="43.30356346182948" lon="11.523123392363658"><ele>292.16666666666663</ele><time>2026-05-02T15:48:41Z</time></trkpt><trkpt lat="43.30361210776762" lon="11.523208223269673"><ele>295.3333333333333</ele><time>2026-05-02T15:48:42Z</time></trkpt><trkpt lat="43.30365970904171" lon="11.523293037435295"><ele>298.5</ele><time>2026-05-02T15:48:43Z</time></trkpt><trkpt lat="43.303708374268524" lon="11.523380870870865"><ele>301.6666666666667</ele><time>2026-05-02T15:48:44Z</time></trkpt><trkpt lat="43.3037576141881" lon="11.523469741487085"><ele>304.83333333333337</ele><time>2026-05-02T15:48:45Z</time></trkpt><trkpt lat="43.30381682164751" lon="11.523551562989365"><ele>308.0</ele><time>2026-05-02T15:48:46Z</time></trkpt><trkpt lat="43.303856416159434" lon="11.523654515159475"><ele>305.6666666666667</ele><time>2026-05-02T15:48:47Z</time></trkpt><trkpt lat="43.30392496363947" lon="11.523723152537093"><ele>303.33333333333337</ele><time>2026-05-02T15:48:48Z</time></trkpt><trkpt lat="43.30399038505771" lon="11.523793362908648"><ele>301.0</ele><time>2026-05-02T15:48:49Z</time></trkpt><trkpt lat="43.30406723873222" lon="11.523850323715525"><ele>298.6666666666667</ele><time>2026-05-02T15:48:50Z</time></trkpt><trkpt lat="43.30414783112559" lon="11.523869189737391"><ele>296.3333333333333</ele><time>2026-05-02T15:48:51Z</time></trkpt><trkpt lat="43.304233265958835" lon="11.52386389230681"><ele>294.0</ele><time>2026-05-02T15:48:52Z</time></trkpt><trkpt lat="43.304314499165116" lon="11.523832905576231"><ele>294.0</ele><time>2026-05-02T15:48:53Z</time></trkpt><trkpt lat="43.30439132756356" lon="11.523776338097552"><ele>294.0</ele><time>2026-05-02T15:48:53.999Z</time></trkpt><trkpt lat="43.30445633889264" lon="11.523697275915"><ele>294.0</ele><time>2026-05-02T15:48:54.999Z</time></trkpt><trkpt lat="43.30451806706339" lon="11.523605557971175"><ele>294.0</ele><time>2026-05-02T15:48:55.999Z</time></trkpt><trkpt lat="43.30457587647532" lon="11.523504745102043"><ele>294.0</ele><time>2026-05-02T15:48:56.999Z</time></trkpt><trkpt lat="43.30463449627527" lon="11.523405513626077"><ele>294.0</ele><time>2026-05-02T15:48:57.999Z</time></trkpt><trkpt lat="43.304702246164155" lon="11.523312594296204"><ele>294.0</ele><time>2026-05-02T15:48:58.999Z</time></trkpt><trkpt lat="43.304777619494416" lon="11.523237297440534"><ele>294.0</ele><time>2026-05-02T15:48:59.999Z</time></trkpt><trkpt lat="43.304853407275196" lon="11.523177442340936"><ele>294.0</ele><time>2026-05-02T15:49:00.999Z</time></trkpt><trkpt lat="43.30492972310029" lon="11.523122655763427"><ele>294.0</ele><time>2026-05-02T15:49:01.999Z</time></trkpt><trkpt lat="43.30499798744605" lon="11.523080273201838"><ele>294.0</ele><time>2026-05-02T15:49:02.999Z</time></trkpt><trkpt lat="43.305060709530224" lon="11.523043093019696"><ele>295.3333333333333</ele><time>2026-05-02T15:49:03.999Z</time></trkpt><trkpt lat="43.305126910206994" lon="11.523010585087034"><ele>296.6666666666667</ele><time>2026-05-02T15:49:04.999Z</time></trkpt><trkpt lat="43.305190074039565" lon="11.522979044227204"><ele>298.0</ele><time>2026-05-02T15:49:05.999Z</time></trkpt><trkpt lat="43.30531373898354" lon="11.522922478872903"><ele>299.33333333333337</ele><time>2026-05-02T15:49:07.999Z</time></trkpt><trkpt lat="43.30538161743921" lon="11.52289932121443"><ele>300.6666666666667</ele><time>2026-05-02T15:49:08.999Z</time></trkpt><trkpt lat="43.30544840323173" lon="11.5228746772483"><ele>302.0</ele><time>2026-05-02T15:49:09.999Z</time></trkpt><trkpt lat="43.305517417544024" lon="11.52284678003689"><ele>304.0</ele><time>2026-05-02T15:49:10.999Z</time></trkpt><trkpt lat="43.3055948678547" lon="11.522819909193151"><ele>306.0</ele><time>2026-05-02T15:49:11.999Z</time></trkpt><trkpt lat="43.30567308780917" lon="11.52280601181121"><ele>308.0</ele><time>2026-05-02T15:49:12.999Z</time></trkpt><trkpt lat="43.30575312674585" lon="11.522819470867764"><ele>310.0</ele><time>2026-05-02T15:49:13.999Z</time></trkpt><trkpt lat="43.305840815845585" lon="11.522841472617682"><ele>312.0</ele><time>2026-05-02T15:49:14.999Z</time></trkpt><trkpt lat="43.30593134446922" lon="11.522875488210849"><ele>314.0</ele><time>2026-05-02T15:49:15.999Z</time></trkpt><trkpt lat="43.306027558485034" lon="11.522917530380877"><ele>315.0</ele><time>2026-05-02T15:49:16.999Z</time></trkpt><trkpt lat="43.30612285926594" lon="11.522963964818262"><ele>316.0</ele><time>2026-05-02T15:49:17.999Z</time></trkpt><trkpt lat="43.30622742234584" lon="11.523002692834169"><ele>317.0</ele><time>2026-05-02T15:49:18.999Z</time></trkpt><trkpt lat="43.30634254403564" lon="11.523032190526301"><ele>318.0</ele><time>2026-05-02T15:49:19.999Z</time></trkpt><trkpt lat="43.30646640046201" lon="11.523056983846509"><ele>319.75</ele><time>2026-05-02T15:49:20.999Z</time></trkpt><trkpt lat="43.30659116565203" lon="11.52307547006684"><ele>321.5</ele><time>2026-05-02T15:49:21.999Z</time></trkpt><trkpt lat="43.30671408958856" lon="11.52308978946112"><ele>323.25</ele><time>2026-05-02T15:49:22.999Z</time></trkpt><trkpt lat="43.30683795710304" lon="11.523102973365319"><ele>325.0</ele><time>2026-05-02T15:49:23.999Z</time></trkpt><trkpt lat="43.306959525351544" lon="11.523107954565809"><ele>325.0</ele><time>2026-05-02T15:49:24.999Z</time></trkpt><trkpt lat="43.30707805269464" lon="11.523110555910945"><ele>325.0</ele><time>2026-05-02T15:49:25.999Z</time></trkpt><trkpt lat="43.30719529699826" lon="11.523116651450108"><ele>325.0</ele><time>2026-05-02T15:49:26.999Z</time></trkpt><trkpt lat="43.3073053211379" lon="11.52313591060045"><ele>325.0</ele><time>2026-05-02T15:49:27.999Z</time></trkpt><trkpt lat="43.30740484513706" lon="11.523165581399882"><ele>325.0</ele><time>2026-05-02T15:49:28.999Z</time></trkpt><trkpt lat="43.307487256655314" lon="11.523209875406732"><ele>325.16666666666663</ele><time>2026-05-02T15:49:29.999Z</time></trkpt><trkpt lat="43.30755350732296" lon="11.523276648076985"><ele>325.3333333333333</ele><time>2026-05-02T15:49:30.999Z</time></trkpt><trkpt lat="43.30761185198113" lon="11.523352506728202"><ele>325.5</ele><time>2026-05-02T15:49:31.999Z</time></trkpt><trkpt lat="43.307674664188944" lon="11.523427553272002"><ele>325.6666666666667</ele><time>2026-05-02T15:49:32.999Z</time></trkpt><trkpt lat="43.30774995682573" lon="11.523489052405889"><ele>325.83333333333337</ele><time>2026-05-02T15:49:33.999Z</time></trkpt><trkpt lat="43.307835297176155" lon="11.523548328256883"><ele>326.0</ele><time>2026-05-02T15:49:34.999Z</time></trkpt><trkpt lat="43.30792133659762" lon="11.523617892356384"><ele>326.0</ele><time>2026-05-02T15:49:35.999Z</time></trkpt><trkpt lat="43.308009838294176" lon="11.523691926687203"><ele>326.0</ele><time>2026-05-02T15:49:36.999Z</time></trkpt><trkpt lat="43.30810168648761" lon="11.523764259107747"><ele>326.0</ele><time>2026-05-02T15:49:37.999Z</time></trkpt><trkpt lat="43.308194077711825" lon="11.523834278736349"><ele>326.0</ele><time>2026-05-02T15:49:38.999Z</time></trkpt><trkpt lat="43.30828022558138" lon="11.523897974348733"><ele>326.0</ele><time>2026-05-02T15:49:39.999Z</time></trkpt><trkpt lat="43.308352014200686" lon="11.523949025118656"><ele>326.0</ele><time>2026-05-02T15:49:40.999Z</time></trkpt><trkpt lat="43.3084149628517" lon="11.524002883824998"><ele>326.0</ele><time>2026-05-02T15:49:41.999Z</time></trkpt><trkpt lat="43.30847253354044" lon="11.524073155989031"><ele>326.0</ele><time>2026-05-02T15:49:42.999Z</time></trkpt><trkpt lat="43.30852493313572" lon="11.524152179190045"><ele>326.0</ele><time>2026-05-02T15:49:43.999Z</time></trkpt><trkpt lat="43.308571616268516" lon="11.52422976824991"><ele>326.0</ele><time>2026-05-02T15:49:44.999Z</time></trkpt><trkpt lat="43.3086138228453" lon="11.524298708486663"><ele>326.0</ele><time>2026-05-02T15:49:45.999Z</time></trkpt><trkpt lat="43.30869596570251" lon="11.524427091775037"><ele>326.0</ele><time>2026-05-02T15:49:47.999Z</time></trkpt><trkpt lat="43.30878583002978" lon="11.524486640629524"><ele>326.0</ele><time>2026-05-02T15:49:49.999Z</time></trkpt><trkpt lat="43.3088795876072" lon="11.524265690992896"><ele>326.0</ele><time>2026-05-02T15:49:51.999Z</time></trkpt><trkpt lat="43.30888977424928" lon="11.52414544000086"><ele>326.0</ele><time>2026-05-02T15:49:52.999Z</time></trkpt><trkpt lat="43.30890628667879" lon="11.52401645005369"><ele>326.20000000000005</ele><time>2026-05-02T15:49:53.999Z</time></trkpt><trkpt lat="43.308911086426" lon="11.523870470022727"><ele>326.40000000000003</ele><time>2026-05-02T15:49:54.999Z</time></trkpt><trkpt lat="43.308910723745036" lon="11.523720848525828"><ele>326.6</ele><time>2026-05-02T15:49:55.999Z</time></trkpt><trkpt lat="43.30888485036126" lon="11.523576812210454"><ele>326.8</ele><time>2026-05-02T15:49:56.999Z</time></trkpt><trkpt lat="43.30886649560571" lon="11.523453404511596"><ele>327.0</ele><time>2026-05-02T15:49:57.999Z</time></trkpt><trkpt lat="43.308853455188824" lon="11.523340899633451"><ele>327.0</ele><time>2026-05-02T15:49:58.999Z</time></trkpt><trkpt lat="43.308895036349334" lon="11.523223804749536"><ele>327.0</ele><time>2026-05-02T15:49:59.999Z</time></trkpt><trkpt lat="43.30896511025924" lon="11.523114876063206"><ele>327.0</ele><time>2026-05-02T15:50:00.999Z</time></trkpt><trkpt lat="43.309041844531585" lon="11.523014074920729"><ele>327.0</ele><time>2026-05-02T15:50:01.999Z</time></trkpt><trkpt lat="43.30913122250266" lon="11.522920010239794"><ele>327.0</ele><time>2026-05-02T15:50:02.999Z</time></trkpt><trkpt lat="43.309232673805724" lon="11.522834766659036"><ele>322.75</ele><time>2026-05-02T15:50:03.999Z</time></trkpt><trkpt lat="43.30934657219572" lon="11.522763332851508"><ele>318.5</ele><time>2026-05-02T15:50:04.999Z</time></trkpt><trkpt lat="43.309461186341714" lon="11.52269599283077"><ele>314.25</ele><time>2026-05-02T15:50:05.999Z</time></trkpt><trkpt lat="43.30957383303268" lon="11.522620841517723"><ele>310.0</ele><time>2026-05-02T15:50:06.999Z</time></trkpt><trkpt lat="43.309676467503046" lon="11.52252161028922"><ele>309.25</ele><time>2026-05-02T15:50:07.999Z</time></trkpt><trkpt lat="43.30975991888835" lon="11.522397031519443"><ele>308.5</ele><time>2026-05-02T15:50:08.999Z</time></trkpt><trkpt lat="43.30982926173269" lon="11.522250299163195"><ele>307.75</ele><time>2026-05-02T15:50:09.999Z</time></trkpt><trkpt lat="43.30986815342739" lon="11.522084393934724"><ele>307.0</ele><time>2026-05-02T15:50:10.999Z</time></trkpt><trkpt lat="43.309880721008" lon="11.521897283220428"><ele>306.5</ele><time>2026-05-02T15:50:11.999Z</time></trkpt><trkpt lat="43.30985668130745" lon="11.521710089145213"><ele>306.0</ele><time>2026-05-02T15:50:12.999Z</time></trkpt><trkpt lat="43.30980447383492" lon="11.521533091403883"><ele>305.5</ele><time>2026-05-02T15:50:13.999Z</time></trkpt><trkpt lat="43.3097526626004" lon="11.52135252837299"><ele>305.0</ele><time>2026-05-02T15:50:14.999Z</time></trkpt><trkpt lat="43.30971875897519" lon="11.521160634237253"><ele>302.75</ele><time>2026-05-02T15:50:15.999Z</time></trkpt><trkpt lat="43.30970184680343" lon="11.520958133884932"><ele>300.5</ele><time>2026-05-02T15:50:16.999Z</time></trkpt><trkpt lat="43.30969066005233" lon="11.520754814595055"><ele>298.25</ele><time>2026-05-02T15:50:17.999Z</time></trkpt><trkpt lat="43.30967779633154" lon="11.52055678363245"><ele>296.0</ele><time>2026-05-02T15:50:18.999Z</time></trkpt><trkpt lat="43.30966450789399" lon="11.520366599099626"><ele>296.0</ele><time>2026-05-02T15:50:20Z</time></trkpt><trkpt lat="43.30964919192426" lon="11.520189556641524"><ele>296.0</ele><time>2026-05-02T15:50:21Z</time></trkpt><trkpt lat="43.30964297607159" lon="11.520023197262157"><ele>296.0</ele><time>2026-05-02T15:50:22Z</time></trkpt><trkpt lat="43.309658853993376" lon="11.519857533567373"><ele>296.0</ele><time>2026-05-02T15:50:23Z</time></trkpt><trkpt lat="43.309696212878485" lon="11.519695152295546"><ele>296.0</ele><time>2026-05-02T15:50:24Z</time></trkpt><trkpt lat="43.30974849618485" lon="11.519536652648167"><ele>296.0</ele><time>2026-05-02T15:50:25Z</time></trkpt><trkpt lat="43.3098073500514" lon="11.519378855759419"><ele>296.0</ele><time>2026-05-02T15:50:26Z</time></trkpt><trkpt lat="43.309867238663855" lon="11.519222432321326"><ele>296.0</ele><time>2026-05-02T15:50:27Z</time></trkpt><trkpt lat="43.30991720488539" lon="11.51905928511152"><ele>296.0</ele><time>2026-05-02T15:50:28Z</time></trkpt><trkpt lat="43.30994620205492" lon="11.5188881313801"><ele>296.0</ele><time>2026-05-02T15:50:29Z</time></trkpt><trkpt lat="43.309952654936424" lon="11.518709001749484"><ele>296.0</ele><time>2026-05-02T15:50:30Z</time></trkpt><trkpt lat="43.309930339996825" lon="11.518525838510747"><ele>296.0</ele><time>2026-05-02T15:50:31Z</time></trkpt><trkpt lat="43.30988752430229" lon="11.518344262156319"><ele>295.75</ele><time>2026-05-02T15:50:32Z</time></trkpt><trkpt lat="43.30983230294881" lon="11.518169748992337"><ele>295.5</ele><time>2026-05-02T15:50:33Z</time></trkpt><trkpt lat="43.30976984082881" lon="11.518003995438963"><ele>295.25</ele><time>2026-05-02T15:50:34Z</time></trkpt><trkpt lat="43.309695267707625" lon="11.517844573850455"><ele>295.0</ele><time>2026-05-02T15:50:35Z</time></trkpt><trkpt lat="43.30960252501129" lon="11.517702384553097"><ele>293.75</ele><time>2026-05-02T15:50:36Z</time></trkpt><trkpt lat="43.30949782827017" lon="11.517575383093925"><ele>292.5</ele><time>2026-05-02T15:50:37Z</time></trkpt><trkpt lat="43.309402419417914" lon="11.517443643261286"><ele>291.25</ele><time>2026-05-02T15:50:38Z</time></trkpt><trkpt lat="43.30931208727695" lon="11.517330682942786"><ele>290.0</ele><time>2026-05-02T15:50:39Z</time></trkpt><trkpt lat="43.30923036087878" lon="11.517216970111647"><ele>290.0</ele><time>2026-05-02T15:50:40Z</time></trkpt><trkpt lat="43.309189057988775" lon="11.517078238611573"><ele>290.0</ele><time>2026-05-02T15:50:41Z</time></trkpt><trkpt lat="43.30916758364682" lon="11.516927862502387"><ele>290.0</ele><time>2026-05-02T15:50:42Z</time></trkpt><trkpt lat="43.30917645606496" lon="11.516770610094518"><ele>290.0</ele><time>2026-05-02T15:50:43Z</time></trkpt><trkpt lat="43.30922158893742" lon="11.516630820049581"><ele>290.0</ele><time>2026-05-02T15:50:44Z</time></trkpt><trkpt lat="43.30930615104467" lon="11.516518425399157"><ele>291.0</ele><time>2026-05-02T15:50:45Z</time></trkpt><trkpt lat="43.309403319651004" lon="11.516407941082734"><ele>292.0</ele><time>2026-05-02T15:50:46Z</time></trkpt><trkpt lat="43.30950081414164" lon="11.516281996559082"><ele>293.0</ele><time>2026-05-02T15:50:47Z</time></trkpt><trkpt lat="43.309601438960186" lon="11.51614885144358"><ele>294.0</ele><time>2026-05-02T15:50:48Z</time></trkpt><trkpt lat="43.3097076847155" lon="11.516015592757698"><ele>292.75</ele><time>2026-05-02T15:50:49Z</time></trkpt><trkpt lat="43.309812194446216" lon="11.515882662184605"><ele>291.5</ele><time>2026-05-02T15:50:50Z</time></trkpt><trkpt lat="43.30991552759488" lon="11.515751715280993"><ele>290.25</ele><time>2026-05-02T15:50:51Z</time></trkpt><trkpt lat="43.310021397375955" lon="11.515628071189784"><ele>289.0</ele><time>2026-05-02T15:50:52Z</time></trkpt><trkpt lat="43.31013628467225" lon="11.515518833077104"><ele>289.0</ele><time>2026-05-02T15:50:53Z</time></trkpt><trkpt lat="43.31026390426796" lon="11.515434675211667"><ele>289.0</ele><time>2026-05-02T15:50:54Z</time></trkpt><trkpt lat="43.310403207167454" lon="11.515372222332084"><ele>289.0</ele><time>2026-05-02T15:50:54.999Z</time></trkpt><trkpt lat="43.310552248551986" lon="11.515318652002396"><ele>289.0</ele><time>2026-05-02T15:50:55.999Z</time></trkpt><trkpt lat="43.310706171298484" lon="11.515268506095026"><ele>287.0</ele><time>2026-05-02T15:50:56.999Z</time></trkpt><trkpt lat="43.31086281232944" lon="11.515218013255494"><ele>285.0</ele><time>2026-05-02T15:50:57.999Z</time></trkpt><trkpt lat="43.31102245154195" lon="11.515182628735177"><ele>283.0</ele><time>2026-05-02T15:50:58.999Z</time></trkpt><trkpt lat="43.31118121444836" lon="11.515167471495976"><ele>283.0</ele><time>2026-05-02T15:50:59.999Z</time></trkpt><trkpt lat="43.31133844031258" lon="11.515163504789985"><ele>283.0</ele><time>2026-05-02T15:51:00.999Z</time></trkpt><trkpt lat="43.3114904052512" lon="11.515168010952214"><ele>283.0</ele><time>2026-05-02T15:51:01.999Z</time></trkpt><trkpt lat="43.311634088993486" lon="11.515173263444531"><ele>285.0</ele><time>2026-05-02T15:51:02.999Z</time></trkpt><trkpt lat="43.31176524375374" lon="11.515177926736623"><ele>287.0</ele><time>2026-05-02T15:51:03.999Z</time></trkpt><trkpt lat="43.31188712699169" lon="11.515148939917838"><ele>289.0</ele><time>2026-05-02T15:51:04.999Z</time></trkpt><trkpt lat="43.311998717792946" lon="11.515067896870413"><ele>291.0</ele><time>2026-05-02T15:51:05.999Z</time></trkpt><trkpt lat="43.31209184982029" lon="11.514947001831528"><ele>291.0</ele><time>2026-05-02T15:51:06.999Z</time></trkpt><trkpt lat="43.31216944883041" lon="11.514798936767844"><ele>291.0</ele><time>2026-05-02T15:51:07.999Z</time></trkpt><trkpt lat="43.312237191266476" lon="11.5146391057674"><ele>291.0</ele><time>2026-05-02T15:51:08.999Z</time></trkpt><trkpt lat="43.312307411578054" lon="11.514484994520554"><ele>291.0</ele><time>2026-05-02T15:51:09.999Z</time></trkpt><trkpt lat="43.31238659379194" lon="11.514343634165536"><ele>292.5</ele><time>2026-05-02T15:51:10.999Z</time></trkpt><trkpt lat="43.312482562196706" lon="11.51422483681729"><ele>294.0</ele><time>2026-05-02T15:51:11.999Z</time></trkpt><trkpt lat="43.31259193254948" lon="11.514115098822334"><ele>295.5</ele><time>2026-05-02T15:51:12.999Z</time></trkpt><trkpt lat="43.31271446539202" lon="11.514022825805831"><ele>297.0</ele><time>2026-05-02T15:51:13.999Z</time></trkpt><trkpt lat="43.312837769093136" lon="11.513937845402529"><ele>297.0</ele><time>2026-05-02T15:51:14.999Z</time></trkpt><trkpt lat="43.31295872054118" lon="11.51387343097375"><ele>297.0</ele><time>2026-05-02T15:51:15.999Z</time></trkpt><trkpt lat="43.31308487192371" lon="11.513848608586002"><ele>297.0</ele><time>2026-05-02T15:51:16.999Z</time></trkpt><trkpt lat="43.31321342315819" lon="11.513858158885556"><ele>297.0</ele><time>2026-05-02T15:51:17.999Z</time></trkpt><trkpt lat="43.31334030086098" lon="11.51389848862769"><ele>297.5</ele><time>2026-05-02T15:51:18.999Z</time></trkpt><trkpt lat="43.31346435280194" lon="11.513957494960861"><ele>298.0</ele><time>2026-05-02T15:51:19.999Z</time></trkpt><trkpt lat="43.313582695604474" lon="11.51403772707727"><ele>298.5</ele><time>2026-05-02T15:51:20.999Z</time></trkpt><trkpt lat="43.31369572786607" lon="11.514129551222235"><ele>299.0</ele><time>2026-05-02T15:51:21.999Z</time></trkpt><trkpt lat="43.31380245873318" lon="11.514235029839808"><ele>299.0</ele><time>2026-05-02T15:51:22.999Z</time></trkpt><trkpt lat="43.31390505318614" lon="11.51435352624649"><ele>299.0</ele><time>2026-05-02T15:51:23.999Z</time></trkpt><trkpt lat="43.3139958076448" lon="11.514473291008525"><ele>299.0</ele><time>2026-05-02T15:51:24.999Z</time></trkpt><trkpt lat="43.31407764440695" lon="11.514576202159512"><ele>299.0</ele><time>2026-05-02T15:51:25.999Z</time></trkpt><trkpt lat="43.314165782928235" lon="11.514649847703902"><ele>299.0</ele><time>2026-05-02T15:51:26.999Z</time></trkpt><trkpt lat="43.3142658774567" lon="11.514677717818715"><ele>299.0</ele><time>2026-05-02T15:51:27.999Z</time></trkpt><trkpt lat="43.31437405470788" lon="11.514652442060525"><ele>299.0</ele><time>2026-05-02T15:51:28.999Z</time></trkpt><trkpt lat="43.314473982418164" lon="11.514576139256308"><ele>299.0</ele><time>2026-05-02T15:51:29.999Z</time></trkpt><trkpt lat="43.31455731581427" lon="11.51446036919036"><ele>299.0</ele><time>2026-05-02T15:51:30.999Z</time></trkpt><trkpt lat="43.31462763002722" lon="11.514316479609965"><ele>299.25</ele><time>2026-05-02T15:51:31.999Z</time></trkpt><trkpt lat="43.31468914328367" lon="11.514161624472697"><ele>299.5</ele><time>2026-05-02T15:51:32.999Z</time></trkpt><trkpt lat="43.31476514681531" lon="11.514030907433117"><ele>299.75</ele><time>2026-05-02T15:51:33.999Z</time></trkpt><trkpt lat="43.314858213141655" lon="11.51394007440396"><ele>300.0</ele><time>2026-05-02T15:51:34.999Z</time></trkpt><trkpt lat="43.31496289641844" lon="11.513895690075351"><ele>300.8</ele><time>2026-05-02T15:51:35.999Z</time></trkpt><trkpt lat="43.31507230427021" lon="11.513885663950116"><ele>301.6</ele><time>2026-05-02T15:51:36.999Z</time></trkpt><trkpt lat="43.31517841235864" lon="11.513885066181615"><ele>302.4</ele><time>2026-05-02T15:51:37.999Z</time></trkpt><trkpt lat="43.315279667580704" lon="11.513885291116289"><ele>303.2</ele><time>2026-05-02T15:51:38.999Z</time></trkpt><trkpt lat="43.31537919906881" lon="11.51389056059617"><ele>304.0</ele><time>2026-05-02T15:51:39.999Z</time></trkpt><trkpt lat="43.31546997343541" lon="11.513935224525182"><ele>304.0</ele><time>2026-05-02T15:51:40.999Z</time></trkpt><trkpt lat="43.315533653932384" lon="11.514027012326842"><ele>304.0</ele><time>2026-05-02T15:51:41.999Z</time></trkpt><trkpt lat="43.31555863047865" lon="11.514165040859295"><ele>304.0</ele><time>2026-05-02T15:51:42.999Z</time></trkpt><trkpt lat="43.315567948495826" lon="11.514322888537759"><ele>304.0</ele><time>2026-05-02T15:51:43.999Z</time></trkpt><trkpt lat="43.315580268546924" lon="11.514486528309808"><ele>304.0</ele><time>2026-05-02T15:51:44.999Z</time></trkpt><trkpt lat="43.31560220263132" lon="11.514654302014275"><ele>302.75</ele><time>2026-05-02T15:51:45.999Z</time></trkpt><trkpt lat="43.31564017025051" lon="11.51481759648085"><ele>301.5</ele><time>2026-05-02T15:51:46.999Z</time></trkpt><trkpt lat="43.315704731219114" lon="11.514971612812104"><ele>300.25</ele><time>2026-05-02T15:51:47.999Z</time></trkpt><trkpt lat="43.31578912091253" lon="11.515108091780293"><ele>299.0</ele><time>2026-05-02T15:51:48.999Z</time></trkpt><trkpt lat="43.31589366377796" lon="11.515215613655013"><ele>299.0</ele><time>2026-05-02T15:51:49.999Z</time></trkpt><trkpt lat="43.3160174558778" lon="11.515281195213314"><ele>299.0</ele><time>2026-05-02T15:51:50.999Z</time></trkpt><trkpt lat="43.316152508215325" lon="11.515304626779603"><ele>299.0</ele><time>2026-05-02T15:51:51.999Z</time></trkpt><trkpt lat="43.31629642211448" lon="11.515280971434152"><ele>299.0</ele><time>2026-05-02T15:51:52.999Z</time></trkpt><trkpt lat="43.31644135325405" lon="11.51523677219073"><ele>299.33333333333337</ele><time>2026-05-02T15:51:53.999Z</time></trkpt><trkpt lat="43.31658940314237" lon="11.515177280948159"><ele>299.6666666666667</ele><time>2026-05-02T15:51:54.999Z</time></trkpt><trkpt lat="43.31674267643416" lon="11.515107981475028"><ele>300.0</ele><time>2026-05-02T15:51:55.999Z</time></trkpt><trkpt lat="43.31689828837457" lon="11.51503617168774"><ele>300.0</ele><time>2026-05-02T15:51:56.999Z</time></trkpt><trkpt lat="43.3170532236329" lon="11.514967555625752"><ele>300.0</ele><time>2026-05-02T15:51:57.999Z</time></trkpt><trkpt lat="43.31719574171058" lon="11.514907509548339"><ele>300.0</ele><time>2026-05-02T15:51:58.999Z</time></trkpt><trkpt lat="43.31732579841027" lon="11.514846322177368"><ele>300.0</ele><time>2026-05-02T15:51:59.999Z</time></trkpt><trkpt lat="43.31743394204639" lon="11.514761778143145"><ele>300.25</ele><time>2026-05-02T15:52:00.999Z</time></trkpt><trkpt lat="43.31751706580957" lon="11.514631869894657"><ele>300.5</ele><time>2026-05-02T15:52:01.999Z</time></trkpt><trkpt lat="43.31758593764044" lon="11.51447765485575"><ele>300.75</ele><time>2026-05-02T15:52:02.999Z</time></trkpt><trkpt lat="43.317637142779226" lon="11.514305881489316"><ele>301.0</ele><time>2026-05-02T15:52:03.999Z</time></trkpt><trkpt lat="43.31767446447654" lon="11.5141291716523"><ele>301.0</ele><time>2026-05-02T15:52:04.999Z</time></trkpt><trkpt lat="43.31771043986222" lon="11.513953226498803"><ele>301.0</ele><time>2026-05-02T15:52:05.999Z</time></trkpt><trkpt lat="43.3177482473388" lon="11.51378874242508"><ele>301.0</ele><time>2026-05-02T15:52:06.999Z</time></trkpt><trkpt lat="43.31780119503619" lon="11.513645053870265"><ele>301.0</ele><time>2026-05-02T15:52:07.999Z</time></trkpt><trkpt lat="43.31787911260276" lon="11.51352922465482"><ele>300.25</ele><time>2026-05-02T15:52:08.999Z</time></trkpt><trkpt lat="43.317978121370636" lon="11.513456716859531"><ele>299.5</ele><time>2026-05-02T15:52:09.999Z</time></trkpt><trkpt lat="43.31809114851094" lon="11.513410622951712"><ele>298.75</ele><time>2026-05-02T15:52:10.999Z</time></trkpt><trkpt lat="43.318213273827915" lon="11.513389376565172"><ele>298.0</ele><time>2026-05-02T15:52:11.999Z</time></trkpt><trkpt lat="43.318339032295064" lon="11.51338269137486"><ele>298.0</ele><time>2026-05-02T15:52:12.999Z</time></trkpt><trkpt lat="43.31845457434157" lon="11.513408194604592"><ele>298.0</ele><time>2026-05-02T15:52:13.999Z</time></trkpt><trkpt lat="43.31855629254204" lon="11.513463721237"><ele>298.0</ele><time>2026-05-02T15:52:14.999Z</time></trkpt><trkpt lat="43.31864279170788" lon="11.513554404586115"><ele>298.0</ele><time>2026-05-02T15:52:15.999Z</time></trkpt><trkpt lat="43.31870741113507" lon="11.513677971713967"><ele>298.0</ele><time>2026-05-02T15:52:16.999Z</time></trkpt><trkpt lat="43.3187457685553" lon="11.513824799344139"><ele>298.4</ele><time>2026-05-02T15:52:17.999Z</time></trkpt><trkpt lat="43.31875791048759" lon="11.513979144954018"><ele>298.8</ele><time>2026-05-02T15:52:18.999Z</time></trkpt><trkpt lat="43.318734480417305" lon="11.514129368181385"><ele>299.2</ele><time>2026-05-02T15:52:19.999Z</time></trkpt><trkpt lat="43.318692826135944" lon="11.514265886678688"><ele>299.6</ele><time>2026-05-02T15:52:20.999Z</time></trkpt><trkpt lat="43.318629441069774" lon="11.514381211839908"><ele>300.0</ele><time>2026-05-02T15:52:21.999Z</time></trkpt><trkpt lat="43.318547060160036" lon="11.514482100246315"><ele>299.6</ele><time>2026-05-02T15:52:22.999Z</time></trkpt><trkpt lat="43.3184586788266" lon="11.514576150543773"><ele>299.2</ele><time>2026-05-02T15:52:23.999Z</time></trkpt><trkpt lat="43.31838273649093" lon="11.514668219995785"><ele>298.8</ele><time>2026-05-02T15:52:25Z</time></trkpt><trkpt lat="43.31833591244468" lon="11.514774665243886"><ele>298.4</ele><time>2026-05-02T15:52:26Z</time></trkpt><trkpt lat="43.31832223057526" lon="11.514887230254084"><ele>298.0</ele><time>2026-05-02T15:52:27Z</time></trkpt><trkpt lat="43.318356134874996" lon="11.51498293357971"><ele>298.0</ele><time>2026-05-02T15:52:28Z</time></trkpt><trkpt lat="43.318409769056586" lon="11.515039643519025"><ele>298.0</ele><time>2026-05-02T15:52:29Z</time></trkpt><trkpt lat="43.31847862888854" lon="11.515039500079418"><ele>298.0</ele><time>2026-05-02T15:52:30Z</time></trkpt><trkpt lat="43.318541214142314" lon="11.514999179041373"><ele>298.0</ele><time>2026-05-02T15:52:31Z</time></trkpt><trkpt lat="43.318608525338654" lon="11.514892693124157"><ele>298.0</ele><time>2026-05-02T15:52:32Z</time></trkpt><trkpt lat="43.31868990433073" lon="11.51475983523986"><ele>298.0</ele><time>2026-05-02T15:52:33Z</time></trkpt><trkpt lat="43.31877665983607" lon="11.514613112473453"><ele>298.5</ele><time>2026-05-02T15:52:34Z</time></trkpt><trkpt lat="43.31886687005347" lon="11.51447030217509"><ele>299.0</ele><time>2026-05-02T15:52:35Z</time></trkpt><trkpt lat="43.31894318599263" lon="11.514332973098924"><ele>299.5</ele><time>2026-05-02T15:52:36Z</time></trkpt><trkpt lat="43.318993645834894" lon="11.51417090628213"><ele>300.0</ele><time>2026-05-02T15:52:37Z</time></trkpt><trkpt lat="43.319015662183574" lon="11.51399093926118"><ele>298.25</ele><time>2026-05-02T15:52:38Z</time></trkpt><trkpt lat="43.31900865247618" lon="11.513801517544273"><ele>296.5</ele><time>2026-05-02T15:52:39Z</time></trkpt><trkpt lat="43.318992095918304" lon="11.513614554707587"><ele>294.75</ele><time>2026-05-02T15:52:40Z</time></trkpt><trkpt lat="43.31899821226295" lon="11.513429070949368"><ele>293.0</ele><time>2026-05-02T15:52:41Z</time></trkpt><trkpt lat="43.31903995931422" lon="11.513256489543322"><ele>292.25</ele><time>2026-05-02T15:52:42Z</time></trkpt><trkpt lat="43.31910813890065" lon="11.513100161130719"><ele>291.5</ele><time>2026-05-02T15:52:43Z</time></trkpt><trkpt lat="43.319182750804195" lon="11.512947572289093"><ele>290.75</ele><time>2026-05-02T15:52:44Z</time></trkpt><trkpt lat="43.31924051468478" lon="11.512776255669747"><ele>290.0</ele><time>2026-05-02T15:52:45Z</time></trkpt><trkpt lat="43.31926275339004" lon="11.51257597709898"><ele>287.0</ele><time>2026-05-02T15:52:46Z</time></trkpt><trkpt lat="43.31926568460725" lon="11.512362283382549"><ele>284.0</ele><time>2026-05-02T15:52:47Z</time></trkpt><trkpt lat="43.31925822137029" lon="11.512140919883198"><ele>281.0</ele><time>2026-05-02T15:52:48Z</time></trkpt><trkpt lat="43.3192380462075" lon="11.51192924161801"><ele>279.0</ele><time>2026-05-02T15:52:49Z</time></trkpt><trkpt lat="43.31920765582084" lon="11.511726966191112"><ele>277.0</ele><time>2026-05-02T15:52:50Z</time></trkpt><trkpt lat="43.31917373496841" lon="11.511531343883325"><ele>275.0</ele><time>2026-05-02T15:52:51Z</time></trkpt><trkpt lat="43.31914196677581" lon="11.511333876850783"><ele>273.0</ele><time>2026-05-02T15:52:52Z</time></trkpt><trkpt lat="43.3191197251269" lon="11.511127583910211"><ele>270.0</ele><time>2026-05-02T15:52:53Z</time></trkpt><trkpt lat="43.31912361729974" lon="11.510919420741855"><ele>267.0</ele><time>2026-05-02T15:52:53.999Z</time></trkpt><trkpt lat="43.31915657966162" lon="11.510714188430816"><ele>264.0</ele><time>2026-05-02T15:52:54.999Z</time></trkpt><trkpt lat="43.31922570214237" lon="11.510526210845722"><ele>260.6666666666667</ele><time>2026-05-02T15:52:55.999Z</time></trkpt><trkpt lat="43.319319894299795" lon="11.510356190495717"><ele>257.33333333333337</ele><time>2026-05-02T15:52:56.999Z</time></trkpt><trkpt lat="43.319427470962395" lon="11.510193204874517"><ele>254.0</ele><time>2026-05-02T15:52:57.999Z</time></trkpt><trkpt lat="43.319532353211116" lon="11.510027268951719"><ele>254.0</ele><time>2026-05-02T15:52:58.999Z</time></trkpt><trkpt lat="43.31963199756903" lon="11.50985596740891"><ele>254.0</ele><time>2026-05-02T15:52:59.999Z</time></trkpt><trkpt lat="43.31971927711176" lon="11.509669886601547"><ele>254.0</ele><time>2026-05-02T15:53:00.999Z</time></trkpt><trkpt lat="43.31978475610396" lon="11.509472297716503"><ele>251.66666666666669</ele><time>2026-05-02T15:53:01.999Z</time></trkpt><trkpt lat="43.3198284245901" lon="11.50926315357749"><ele>249.33333333333331</ele><time>2026-05-02T15:53:02.999Z</time></trkpt><trkpt lat="43.319857842539975" lon="11.509050429698153"><ele>247.0</ele><time>2026-05-02T15:53:03.999Z</time></trkpt><trkpt lat="43.319871065404435" lon="11.508839905741"><ele>247.0</ele><time>2026-05-02T15:53:04.999Z</time></trkpt><trkpt lat="43.319873598892016" lon="11.50863612343675"><ele>247.0</ele><time>2026-05-02T15:53:05.999Z</time></trkpt><trkpt lat="43.31986453213482" lon="11.508455269875324"><ele>247.0</ele><time>2026-05-02T15:53:06.999Z</time></trkpt><trkpt lat="43.319849015268126" lon="11.508284344032045"><ele>247.0</ele><time>2026-05-02T15:53:07.999Z</time></trkpt><trkpt lat="43.31983057504878" lon="11.508103001482235"><ele>246.5</ele><time>2026-05-02T15:53:08.999Z</time></trkpt><trkpt lat="43.31981383993297" lon="11.507909448451255"><ele>246.0</ele><time>2026-05-02T15:53:09.999Z</time></trkpt><trkpt lat="43.31979569465516" lon="11.507707443968567"><ele>245.5</ele><time>2026-05-02T15:53:10.999Z</time></trkpt><trkpt lat="43.31977616502637" lon="11.507499141966235"><ele>245.0</ele><time>2026-05-02T15:53:11.999Z</time></trkpt><trkpt lat="43.31975248560381" lon="11.507284578898538"><ele>249.66666666666669</ele><time>2026-05-02T15:53:12.999Z</time></trkpt><trkpt lat="43.3197293352048" lon="11.507068009396528"><ele>254.33333333333331</ele><time>2026-05-02T15:53:13.999Z</time></trkpt><trkpt lat="43.31970718495274" lon="11.50684738799758"><ele>259.0</ele><time>2026-05-02T15:53:14.999Z</time></trkpt><trkpt lat="43.319687209254866" lon="11.5066464532377"><ele>259.0</ele><time>2026-05-02T15:53:15.999Z</time></trkpt><trkpt lat="43.319680907485825" lon="11.506471003203242"><ele>259.0</ele><time>2026-05-02T15:53:16.999Z</time></trkpt><trkpt lat="43.319708406716416" lon="11.506320599688381"><ele>259.0</ele><time>2026-05-02T15:53:17.999Z</time></trkpt><trkpt lat="43.31976992171345" lon="11.506191583500183"><ele>259.0</ele><time>2026-05-02T15:53:18.999Z</time></trkpt><trkpt lat="43.31986425840758" lon="11.506096875336631"><ele>255.25</ele><time>2026-05-02T15:53:19.999Z</time></trkpt><trkpt lat="43.31997516700544" lon="11.506029702413562"><ele>251.5</ele><time>2026-05-02T15:53:20.999Z</time></trkpt><trkpt lat="43.320091557096085" lon="11.505966012805036"><ele>247.75</ele><time>2026-05-02T15:53:21.999Z</time></trkpt><trkpt lat="43.320203201579986" lon="11.50594513183175"><ele>244.0</ele><time>2026-05-02T15:53:22.999Z</time></trkpt><trkpt lat="43.320344108950835" lon="11.50589283596054"><ele>244.0</ele><time>2026-05-02T15:53:23.999Z</time></trkpt><trkpt lat="43.320498942277176" lon="11.50583367075738"><ele>244.0</ele><time>2026-05-02T15:53:24.999Z</time></trkpt><trkpt lat="43.32065401296206" lon="11.505774639261357"><ele>244.0</ele><time>2026-05-02T15:53:25.999Z</time></trkpt><trkpt lat="43.32081196623352" lon="11.505700075161228"><ele>245.0</ele><time>2026-05-02T15:53:26.999Z</time></trkpt><trkpt lat="43.32096920303852" lon="11.505665257210618"><ele>246.0</ele><time>2026-05-02T15:53:27.999Z</time></trkpt><trkpt lat="43.321128256441774" lon="11.50565950012429"><ele>247.0</ele><time>2026-05-02T15:53:28.999Z</time></trkpt><trkpt lat="43.32127531904565" lon="11.505743521322104"><ele>249.0</ele><time>2026-05-02T15:53:29.999Z</time></trkpt><trkpt lat="43.32140312314377" lon="11.50583515504006"><ele>251.0</ele><time>2026-05-02T15:53:30.999Z</time></trkpt><trkpt lat="43.321507724304574" lon="11.505972940334043"><ele>253.0</ele><time>2026-05-02T15:53:31.999Z</time></trkpt><trkpt lat="43.32161912475249" lon="11.50612939570194"><ele>255.0</ele><time>2026-05-02T15:53:32.999Z</time></trkpt><trkpt lat="43.321742584190545" lon="11.50630737143408"><ele>255.0</ele><time>2026-05-02T15:53:33.999Z</time></trkpt><trkpt lat="43.3218644682601" lon="11.506483606066647"><ele>255.0</ele><time>2026-05-02T15:53:34.999Z</time></trkpt><trkpt lat="43.32198553713989" lon="11.506657930926488"><ele>255.0</ele><time>2026-05-02T15:53:35.999Z</time></trkpt><trkpt lat="43.32210210045841" lon="11.506825768153863"><ele>259.0</ele><time>2026-05-02T15:53:36.999Z</time></trkpt><trkpt lat="43.32223757707824" lon="11.506990045143931"><ele>263.0</ele><time>2026-05-02T15:53:37.999Z</time></trkpt><trkpt lat="43.32235438622457" lon="11.507166280084874"><ele>267.0</ele><time>2026-05-02T15:53:38.999Z</time></trkpt><trkpt lat="43.32245508848109" lon="11.50732409590833"><ele>267.5</ele><time>2026-05-02T15:53:39.999Z</time></trkpt><trkpt lat="43.32255168369848" lon="11.507475662444755"><ele>268.0</ele><time>2026-05-02T15:53:40.999Z</time></trkpt><trkpt lat="43.32265940282425" lon="11.50759612364237"><ele>268.5</ele><time>2026-05-02T15:53:41.999Z</time></trkpt><trkpt lat="43.322791164534294" lon="11.507674967252534"><ele>269.0</ele><time>2026-05-02T15:53:42.999Z</time></trkpt><trkpt lat="43.32294241400516" lon="11.507719852108433"><ele>271.0</ele><time>2026-05-02T15:53:43.999Z</time></trkpt><trkpt lat="43.32310418125864" lon="11.507736811661449"><ele>273.0</ele><time>2026-05-02T15:53:44.999Z</time></trkpt><trkpt lat="43.323266806693944" lon="11.50773403659821"><ele>275.0</ele><time>2026-05-02T15:53:45.999Z</time></trkpt><trkpt lat="43.32342596012385" lon="11.507723819818741"><ele>275.0</ele><time>2026-05-02T15:53:46.999Z</time></trkpt><trkpt lat="43.32357643801194" lon="11.507724425112661"><ele>275.0</ele><time>2026-05-02T15:53:47.999Z</time></trkpt><trkpt lat="43.32373472224925" lon="11.507760701484873"><ele>275.0</ele><time>2026-05-02T15:53:48.999Z</time></trkpt><trkpt lat="43.32387384950975" lon="11.507835880321542"><ele>277.25</ele><time>2026-05-02T15:53:49.999Z</time></trkpt><trkpt lat="43.32399953496754" lon="11.507947505534585"><ele>279.5</ele><time>2026-05-02T15:53:50.999Z</time></trkpt><trkpt lat="43.324079174195944" lon="11.508103910331274"><ele>281.75</ele><time>2026-05-02T15:53:51.999Z</time></trkpt><trkpt lat="43.32415846382129" lon="11.508286439773169"><ele>284.0</ele><time>2026-05-02T15:53:52.999Z</time></trkpt><trkpt lat="43.32424311711545" lon="11.508491699563987"><ele>284.0</ele><time>2026-05-02T15:53:53.999Z</time></trkpt><trkpt lat="43.324335667141725" lon="11.50870571588142"><ele>284.0</ele><time>2026-05-02T15:53:54.999Z</time></trkpt><trkpt lat="43.324419747012676" lon="11.508924373711983"><ele>284.0</ele><time>2026-05-02T15:53:55.999Z</time></trkpt><trkpt lat="43.3244959545554" lon="11.509138241739134"><ele>285.25</ele><time>2026-05-02T15:53:56.999Z</time></trkpt><trkpt lat="43.32457381444415" lon="11.509313674253994"><ele>286.5</ele><time>2026-05-02T15:53:57.999Z</time></trkpt><trkpt lat="43.3246793223583" lon="11.509464252209032"><ele>287.75</ele><time>2026-05-02T15:53:58.999Z</time></trkpt><trkpt lat="43.3248020711734" lon="11.509561148031196"><ele>289.0</ele><time>2026-05-02T15:53:59.999Z</time></trkpt><trkpt lat="43.324945453736056" lon="11.509605509713982"><ele>289.0</ele><time>2026-05-02T15:54:00.999Z</time></trkpt><trkpt lat="43.32510329947658" lon="11.509591920367974"><ele>289.0</ele><time>2026-05-02T15:54:01.999Z</time></trkpt><trkpt lat="43.32526776672354" lon="11.509536047523504"><ele>289.0</ele><time>2026-05-02T15:54:02.999Z</time></trkpt><trkpt lat="43.32542390902386" lon="11.509448389150394"><ele>289.3333333333333</ele><time>2026-05-02T15:54:03.999Z</time></trkpt><trkpt lat="43.325580865739276" lon="11.509361245868032"><ele>289.6666666666667</ele><time>2026-05-02T15:54:04.999Z</time></trkpt><trkpt lat="43.325745399946214" lon="11.509276381883286"><ele>290.0</ele><time>2026-05-02T15:54:05.999Z</time></trkpt><trkpt lat="43.32591612183856" lon="11.50920404398286"><ele>290.0</ele><time>2026-05-02T15:54:06.999Z</time></trkpt><trkpt lat="43.3260927538863" lon="11.509125932876751"><ele>290.0</ele><time>2026-05-02T15:54:07.999Z</time></trkpt><trkpt lat="43.32627032711104" lon="11.509040907934493"><ele>290.0</ele><time>2026-05-02T15:54:08.999Z</time></trkpt><trkpt lat="43.326447679475876" lon="11.50894801925449"><ele>291.0</ele><time>2026-05-02T15:54:09.999Z</time></trkpt><trkpt lat="43.32662477977385" lon="11.50884828132254"><ele>292.0</ele><time>2026-05-02T15:54:10.999Z</time></trkpt><trkpt lat="43.3268022553554" lon="11.50874623826799"><ele>293.0</ele><time>2026-05-02T15:54:11.999Z</time></trkpt><trkpt lat="43.32697952673142" lon="11.508640984899118"><ele>293.6666666666667</ele><time>2026-05-02T15:54:12.999Z</time></trkpt><trkpt lat="43.32715471977354" lon="11.50853266507812"><ele>294.3333333333333</ele><time>2026-05-02T15:54:13.999Z</time></trkpt><trkpt lat="43.327331066257784" lon="11.508423307723763"><ele>295.0</ele><time>2026-05-02T15:54:14.999Z</time></trkpt><trkpt lat="43.32750493071609" lon="11.508315061149053"><ele>296.3333333333333</ele><time>2026-05-02T15:54:15.999Z</time></trkpt><trkpt lat="43.327675466366166" lon="11.508206240547336"><ele>297.6666666666667</ele><time>2026-05-02T15:54:16.999Z</time></trkpt><trkpt lat="43.32784178738784" lon="11.508098633817717"><ele>299.0</ele><time>2026-05-02T15:54:17.999Z</time></trkpt><trkpt lat="43.32799182188877" lon="11.508003806810997"><ele>299.5</ele><time>2026-05-02T15:54:18.999Z</time></trkpt><trkpt lat="43.32812638992117" lon="11.507916127512114"><ele>300.0</ele><time>2026-05-02T15:54:19.999Z</time></trkpt><trkpt lat="43.328247957068804" lon="11.50783310104657"><ele>300.5</ele><time>2026-05-02T15:54:20.999Z</time></trkpt><trkpt lat="43.328355921083066" lon="11.507755678160771"><ele>301.0</ele><time>2026-05-02T15:54:21.999Z</time></trkpt><trkpt lat="43.32844230011237" lon="11.507689591281075"><ele>301.3333333333333</ele><time>2026-05-02T15:54:22.999Z</time></trkpt><trkpt lat="43.328516017450376" lon="11.507624395821928"><ele>301.66666666666663</ele><time>2026-05-02T15:54:23.998Z</time></trkpt><trkpt lat="43.32857070274437" lon="11.507553880757772"><ele>302.0</ele><time>2026-05-02T15:54:24.998Z</time></trkpt><trkpt lat="43.32860990584447" lon="11.50748409362464"><ele>302.3333333333333</ele><time>2026-05-02T15:54:25.998Z</time></trkpt><trkpt lat="43.3286482148879" lon="11.507359769278402"><ele>302.6666666666667</ele><time>2026-05-02T15:54:27.998Z</time></trkpt><trkpt lat="43.32872154264175" lon="11.507303981308032"><ele>303.0</ele><time>2026-05-02T15:59:37Z</time></trkpt><trkpt lat="43.32884741381276" lon="11.507302199598584"><ele>303.8</ele><time>2026-05-02T15:59:39Z</time></trkpt><trkpt lat="43.32891964155601" lon="11.50733910916356"><ele>304.6</ele><time>2026-05-02T15:59:42Z</time></trkpt><trkpt lat="43.3290522482794" lon="11.507326139878916"><ele>305.4</ele><time>2026-05-02T15:59:44Z</time></trkpt><trkpt lat="43.329133568663" lon="11.507289373000186"><ele>306.2</ele><time>2026-05-02T15:59:45Z</time></trkpt><trkpt lat="43.3292331898885" lon="11.507244257267017"><ele>307.0</ele><time>2026-05-02T15:59:46Z</time></trkpt><trkpt lat="43.32933772266641" lon="11.507203872199398"><ele>307.0</ele><time>2026-05-02T15:59:47Z</time></trkpt><trkpt lat="43.32945596194203" lon="11.507170488591871"><ele>307.0</ele><time>2026-05-02T15:59:48Z</time></trkpt><trkpt lat="43.32958734437499" lon="11.507144584061987"><ele>307.0</ele><time>2026-05-02T15:59:49Z</time></trkpt><trkpt lat="43.329727009021575" lon="11.507116769615202"><ele>307.0</ele><time>2026-05-02T15:59:50Z</time></trkpt><trkpt lat="43.329866258564614" lon="11.507094472727019"><ele>307.0</ele><time>2026-05-02T15:59:51Z</time></trkpt><trkpt lat="43.33001066781284" lon="11.507067093738687"><ele>307.0</ele><time>2026-05-02T15:59:52Z</time></trkpt><trkpt lat="43.33015918112911" lon="11.507040689992992"><ele>307.0</ele><time>2026-05-02T15:59:53Z</time></trkpt><trkpt lat="43.33031669290085" lon="11.507012318829736"><ele>307.0</ele><time>2026-05-02T15:59:54Z</time></trkpt><trkpt lat="43.3304804207888" lon="11.506980668911307"><ele>307.0</ele><time>2026-05-02T15:59:55Z</time></trkpt><trkpt lat="43.330647781137614" lon="11.5069489501104"><ele>307.0</ele><time>2026-05-02T15:59:56Z</time></trkpt><trkpt lat="43.330819075914306" lon="11.506916803549151"><ele>308.3333333333333</ele><time>2026-05-02T15:59:57Z</time></trkpt><trkpt lat="43.330991358176576" lon="11.506883046086724"><ele>309.6666666666667</ele><time>2026-05-02T15:59:58Z</time></trkpt><trkpt lat="43.33116304918475" lon="11.50684279789498"><ele>311.0</ele><time>2026-05-02T15:59:59Z</time></trkpt><trkpt lat="43.33133196155097" lon="11.506770422429051"><ele>312.0</ele><time>2026-05-02T16:00:00Z</time></trkpt><trkpt lat="43.331494427861514" lon="11.50668575540184"><ele>313.0</ele><time>2026-05-02T16:00:01Z</time></trkpt><trkpt lat="43.331654603722406" lon="11.506585176613271"><ele>314.0</ele><time>2026-05-02T16:00:02Z</time></trkpt><trkpt lat="43.33181426364081" lon="11.50648209851764"><ele>314.0</ele><time>2026-05-02T16:00:03Z</time></trkpt><trkpt lat="43.331971056604566" lon="11.506371372964574"><ele>314.0</ele><time>2026-05-02T16:00:04Z</time></trkpt><trkpt lat="43.332129490509324" lon="11.50626212965124"><ele>314.0</ele><time>2026-05-02T16:00:05Z</time></trkpt><trkpt lat="43.33228618583607" lon="11.506155909787143"><ele>314.6666666666667</ele><time>2026-05-02T16:00:06Z</time></trkpt><trkpt lat="43.332445845702786" lon="11.506056064597814"><ele>315.3333333333333</ele><time>2026-05-02T16:00:07Z</time></trkpt><trkpt lat="43.33260847283397" lon="11.505964376773607"><ele>316.0</ele><time>2026-05-02T16:00:08Z</time></trkpt><trkpt lat="43.33277769231608" lon="11.505894077300734"><ele>316.0</ele><time>2026-05-02T16:00:09Z</time></trkpt><trkpt lat="43.33295097520588" lon="11.505842405720726"><ele>316.0</ele><time>2026-05-02T16:00:10Z</time></trkpt><trkpt lat="43.33312753447914" lon="11.505804056193476"><ele>316.0</ele><time>2026-05-02T16:00:11Z</time></trkpt><trkpt lat="43.333307933539224" lon="11.505772049653094"><ele>316.0</ele><time>2026-05-02T16:00:12Z</time></trkpt><trkpt lat="43.3334909765542" lon="11.505741020094032"><ele>316.0</ele><time>2026-05-02T16:00:13Z</time></trkpt><trkpt lat="43.33367422001295" lon="11.505704236112587"><ele>316.0</ele><time>2026-05-02T16:00:14Z</time></trkpt><trkpt lat="43.333857891274505" lon="11.505667449409115"><ele>315.66666666666663</ele><time>2026-05-02T16:00:15Z</time></trkpt><trkpt lat="43.33404384329157" lon="11.505627777132242"><ele>315.3333333333333</ele><time>2026-05-02T16:00:16Z</time></trkpt><trkpt lat="43.334230969498755" lon="11.505588458241508"><ele>315.0</ele><time>2026-05-02T16:00:17Z</time></trkpt><trkpt lat="43.334421607076884" lon="11.505549577762194"><ele>315.0</ele><time>2026-05-02T16:00:18Z</time></trkpt><trkpt lat="43.3346161207609" lon="11.505510953630516"><ele>315.0</ele><time>2026-05-02T16:00:19Z</time></trkpt><trkpt lat="43.334813337730964" lon="11.505472845929802"><ele>315.0</ele><time>2026-05-02T16:00:20Z</time></trkpt><trkpt lat="43.33501424349467" lon="11.505433675913329"><ele>316.0</ele><time>2026-05-02T16:00:21Z</time></trkpt><trkpt lat="43.33521529299469" lon="11.505392690249202"><ele>317.0</ele><time>2026-05-02T16:00:22Z</time></trkpt><trkpt lat="43.33542043757436" lon="11.505348715769752"><ele>318.0</ele><time>2026-05-02T16:00:22.999Z</time></trkpt><trkpt lat="43.33562579720726" lon="11.505306050129452"><ele>318.0</ele><time>2026-05-02T16:00:23.999Z</time></trkpt><trkpt lat="43.335827793531585" lon="11.505264104288107"><ele>318.0</ele><time>2026-05-02T16:00:24.999Z</time></trkpt><trkpt lat="43.33602555238665" lon="11.505223197400229"><ele>318.0</ele><time>2026-05-02T16:00:25.999Z</time></trkpt><trkpt lat="43.336218582972556" lon="11.50518414128582"><ele>320.0</ele><time>2026-05-02T16:00:26.999Z</time></trkpt><trkpt lat="43.336409084101206" lon="11.505142618413391"><ele>322.0</ele><time>2026-05-02T16:00:27.999Z</time></trkpt><trkpt lat="43.33660045191922" lon="11.505104336086815"><ele>324.0</ele><time>2026-05-02T16:00:28.999Z</time></trkpt><trkpt lat="43.336790262863275" lon="11.5050862711363"><ele>324.0</ele><time>2026-05-02T16:00:29.999Z</time></trkpt><trkpt lat="43.33697752132776" lon="11.50510115155376"><ele>324.0</ele><time>2026-05-02T16:00:30.999Z</time></trkpt><trkpt lat="43.337162286564904" lon="11.505143385933504"><ele>324.0</ele><time>2026-05-02T16:00:31.999Z</time></trkpt><trkpt lat="43.33734303190369" lon="11.505212365337728"><ele>324.3333333333333</ele><time>2026-05-02T16:00:32.999Z</time></trkpt><trkpt lat="43.337518649992425" lon="11.505308006367153"><ele>324.66666666666663</ele><time>2026-05-02T16:00:33.999Z</time></trkpt><trkpt lat="43.33768990174214" lon="11.505425381012875"><ele>325.0</ele><time>2026-05-02T16:00:34.999Z</time></trkpt><trkpt lat="43.337861236731854" lon="11.50554652738517"><ele>326.3333333333333</ele><time>2026-05-02T16:00:35.999Z</time></trkpt><trkpt lat="43.33803161219448" lon="11.50566242477083"><ele>327.6666666666667</ele><time>2026-05-02T16:00:36.999Z</time></trkpt><trkpt lat="43.338203940240454" lon="11.505767386377189"><ele>329.0</ele><time>2026-05-02T16:00:37.999Z</time></trkpt><trkpt lat="43.338380455969045" lon="11.505848671699196"><ele>330.0</ele><time>2026-05-02T16:00:38.999Z</time></trkpt><trkpt lat="43.338559661086194" lon="11.505899339435123"><ele>331.0</ele><time>2026-05-02T16:00:39.999Z</time></trkpt><trkpt lat="43.3387422890748" lon="11.505916330817803"><ele>332.0</ele><time>2026-05-02T16:00:40.999Z</time></trkpt><trkpt lat="43.33892406625385" lon="11.505905264390817"><ele>333.6666666666667</ele><time>2026-05-02T16:00:41.999Z</time></trkpt><trkpt lat="43.339101431507665" lon="11.505862508512639"><ele>335.3333333333333</ele><time>2026-05-02T16:00:42.999Z</time></trkpt><trkpt lat="43.33927696681205" lon="11.505802057261082"><ele>337.0</ele><time>2026-05-02T16:00:43.999Z</time></trkpt><trkpt lat="43.33945143846331" lon="11.505737437835243"><ele>337.0</ele><time>2026-05-02T16:00:44.999Z</time></trkpt><trkpt lat="43.33962397844221" lon="11.505674841765842"><ele>337.0</ele><time>2026-05-02T16:00:45.999Z</time></trkpt><trkpt lat="43.33979408243891" lon="11.505613654512167"><ele>337.0</ele><time>2026-05-02T16:00:46.999Z</time></trkpt><trkpt lat="43.33996182642298" lon="11.50555344716809"><ele>336.66666666666663</ele><time>2026-05-02T16:00:48Z</time></trkpt><trkpt lat="43.34011965559074" lon="11.505494290514507"><ele>336.3333333333333</ele><time>2026-05-02T16:00:49Z</time></trkpt><trkpt lat="43.340269390933756" lon="11.505438587963262"><ele>336.0</ele><time>2026-05-02T16:00:50Z</time></trkpt><trkpt lat="43.34040863081899" lon="11.505391775585204"><ele>335.8333333333333</ele><time>2026-05-02T16:00:51Z</time></trkpt><trkpt lat="43.34051123528155" lon="11.505368762103842"><ele>335.6666666666667</ele><time>2026-05-02T16:00:52Z</time></trkpt><trkpt lat="43.34058773307718" lon="11.505366055582385"><ele>335.5</ele><time>2026-05-02T16:00:53Z</time></trkpt><trkpt lat="43.34065420700117" lon="11.50538945284226"><ele>335.33333333333337</ele><time>2026-05-02T16:00:54Z</time></trkpt><trkpt lat="43.34072190308557" lon="11.505414249942083"><ele>335.1666666666667</ele><time>2026-05-02T16:00:55Z</time></trkpt><trkpt lat="43.3408037157918" lon="11.505419369887742"><ele>335.0</ele><time>2026-05-02T16:00:56Z</time></trkpt><trkpt lat="43.34089672370797" lon="11.505321376136159"><ele>335.0</ele><time>2026-05-02T16:00:57Z</time></trkpt><trkpt lat="43.340995848177926" lon="11.505227352071568"><ele>335.0</ele><time>2026-05-02T16:00:58Z</time></trkpt><trkpt lat="43.341118490293404" lon="11.505160405907416"><ele>335.0</ele><time>2026-05-02T16:00:59Z</time></trkpt><trkpt lat="43.341247463061656" lon="11.50511651784197"><ele>335.0</ele><time>2026-05-02T16:01:00Z</time></trkpt><trkpt lat="43.341384358845964" lon="11.505079859022368"><ele>335.0</ele><time>2026-05-02T16:01:01Z</time></trkpt><trkpt lat="43.341522382103015" lon="11.50504313418458"><ele>335.0</ele><time>2026-05-02T16:01:02Z</time></trkpt><trkpt lat="43.34166145332519" lon="11.505012845915804"><ele>335.0</ele><time>2026-05-02T16:01:03Z</time></trkpt><trkpt lat="43.341801389236714" lon="11.504980962430388"><ele>335.0</ele><time>2026-05-02T16:01:04Z</time></trkpt><trkpt lat="43.34194556173862" lon="11.504951205532109"><ele>335.0</ele><time>2026-05-02T16:01:05Z</time></trkpt><trkpt lat="43.34209351772007" lon="11.504922078599856"><ele>335.0</ele><time>2026-05-02T16:01:06Z</time></trkpt><trkpt lat="43.342241703720894" lon="11.504893446426392"><ele>335.0</ele><time>2026-05-02T16:01:07Z</time></trkpt><trkpt lat="43.34239035189212" lon="11.50486517476158"><ele>335.0</ele><time>2026-05-02T16:01:08Z</time></trkpt><trkpt lat="43.342541012308615" lon="11.504837489589084"><ele>336.0</ele><time>2026-05-02T16:01:09Z</time></trkpt><trkpt lat="43.34269218515082" lon="11.504807095302676"><ele>337.0</ele><time>2026-05-02T16:01:10Z</time></trkpt><trkpt lat="43.342842675613625" lon="11.504776948731687"><ele>338.0</ele><time>2026-05-02T16:01:11Z</time></trkpt><trkpt lat="43.34299420665498" lon="11.504749779598336"><ele>338.0</ele><time>2026-05-02T16:01:12Z</time></trkpt><trkpt lat="43.34314559956208" lon="11.504721489476271"><ele>338.0</ele><time>2026-05-02T16:01:13Z</time></trkpt><trkpt lat="43.34329726705686" lon="11.504690317381389"><ele>338.0</ele><time>2026-05-02T16:01:14Z</time></trkpt><trkpt lat="43.34344975297986" lon="11.5046606118591"><ele>338.0</ele><time>2026-05-02T16:01:15Z</time></trkpt><trkpt lat="43.343596174433344" lon="11.50463085487923"><ele>338.0</ele><time>2026-05-02T16:01:16Z</time></trkpt><trkpt lat="43.343725646829775" lon="11.504626288817104"><ele>338.0</ele><time>2026-05-02T16:01:17Z</time></trkpt><trkpt lat="43.34384374056001" lon="11.504604150630955"><ele>338.0</ele><time>2026-05-02T16:01:18Z</time></trkpt><trkpt lat="43.34395535219433" lon="11.504583187846482"><ele>337.59999999999997</ele><time>2026-05-02T16:01:19Z</time></trkpt><trkpt lat="43.34405813677325" lon="11.504563882914228"><ele>337.2</ele><time>2026-05-02T16:01:20Z</time></trkpt><trkpt lat="43.344156610623244" lon="11.504529116401823"><ele>336.8</ele><time>2026-05-02T16:01:21Z</time></trkpt><trkpt lat="43.344268001911956" lon="11.50451169103241"><ele>336.4</ele><time>2026-05-02T16:01:22Z</time></trkpt><trkpt lat="43.34438289317865" lon="11.504488598550038"><ele>336.0</ele><time>2026-05-02T16:01:23Z</time></trkpt><trkpt lat="43.344502465542064" lon="11.504467129865903"><ele>336.0</ele><time>2026-05-02T16:01:24Z</time></trkpt><trkpt lat="43.34462628429597" lon="11.50445978640953"><ele>336.0</ele><time>2026-05-02T16:01:25Z</time></trkpt><trkpt lat="43.344752040523815" lon="11.504467436054155"><ele>336.0</ele><time>2026-05-02T16:01:26Z</time></trkpt><trkpt lat="43.34488231129111" lon="11.504511702493742"><ele>336.0</ele><time>2026-05-02T16:01:27Z</time></trkpt><trkpt lat="43.34501949517486" lon="11.504517477673447"><ele>337.75</ele><time>2026-05-02T16:01:28Z</time></trkpt><trkpt lat="43.345155772840464" lon="11.504557752109825"><ele>339.5</ele><time>2026-05-02T16:01:29Z</time></trkpt><trkpt lat="43.34528211527858" lon="11.504599530060068"><ele>341.25</ele><time>2026-05-02T16:01:30Z</time></trkpt><trkpt lat="43.34538664026273" lon="11.504644979644594"><ele>343.0</ele><time>2026-05-02T16:01:31Z</time></trkpt><trkpt lat="43.34547301116662" lon="11.504718536903816"><ele>345.25</ele><time>2026-05-02T16:01:32Z</time></trkpt><trkpt lat="43.34555296280207" lon="11.504825209731406"><ele>347.5</ele><time>2026-05-02T16:01:33Z</time></trkpt><trkpt lat="43.34563552573398" lon="11.504938802705958"><ele>349.75</ele><time>2026-05-02T16:01:34Z</time></trkpt><trkpt lat="43.34572321997856" lon="11.505057684186436"><ele>352.0</ele><time>2026-05-02T16:01:35Z</time></trkpt><trkpt lat="43.34581138574486" lon="11.505173021061893"><ele>352.0</ele><time>2026-05-02T16:01:36Z</time></trkpt><trkpt lat="43.34590069788258" lon="11.505282565933175"><ele>352.0</ele><time>2026-05-02T16:01:37Z</time></trkpt><trkpt lat="43.34599979377934" lon="11.505371407910042"><ele>352.0</ele><time>2026-05-02T16:01:38Z</time></trkpt><trkpt lat="43.34610546881926" lon="11.505446386102058"><ele>352.0</ele><time>2026-05-02T16:01:39Z</time></trkpt><trkpt lat="43.346337718719205" lon="11.505554603922441"><ele>350.25</ele><time>2026-05-02T16:01:41Z</time></trkpt><trkpt lat="43.34646138388327" lon="11.5055922859552"><ele>348.5</ele><time>2026-05-02T16:01:42Z</time></trkpt><trkpt lat="43.34659026553021" lon="11.50561014908896"><ele>346.75</ele><time>2026-05-02T16:01:43Z</time></trkpt><trkpt lat="43.34671626345066" lon="11.505616683108919"><ele>345.0</ele><time>2026-05-02T16:01:44Z</time></trkpt><trkpt lat="43.34683252910091" lon="11.505609290105514"><ele>345.0</ele><time>2026-05-02T16:01:45Z</time></trkpt><trkpt lat="43.34693542904944" lon="11.505598299586504"><ele>345.0</ele><time>2026-05-02T16:01:46Z</time></trkpt><trkpt lat="43.34702184977393" lon="11.505561315433438"><ele>345.0</ele><time>2026-05-02T16:01:47Z</time></trkpt><trkpt lat="43.347090488217056" lon="11.505493030289085"><ele>345.0</ele><time>2026-05-02T16:01:48Z</time></trkpt><trkpt lat="43.34713361190788" lon="11.505395334183714"><ele>345.0</ele><time>2026-05-02T16:01:49Z</time></trkpt><trkpt lat="43.34714983422569" lon="11.505268681759853"><ele>347.5</ele><time>2026-05-02T16:01:50Z</time></trkpt><trkpt lat="43.347133877261896" lon="11.50512837573499"><ele>350.0</ele><time>2026-05-02T16:01:51Z</time></trkpt><trkpt lat="43.3470940657505" lon="11.5049854260691"><ele>352.5</ele><time>2026-05-02T16:01:52Z</time></trkpt><trkpt lat="43.347043612730154" lon="11.504833391138854"><ele>355.0</ele><time>2026-05-02T16:01:53Z</time></trkpt><trkpt lat="43.347000175126105" lon="11.504676272968643"><ele>354.4</ele><time>2026-05-02T16:01:54Z</time></trkpt><trkpt lat="43.346955584443656" lon="11.504525025008508"><ele>353.8</ele><time>2026-05-02T16:01:55Z</time></trkpt><trkpt lat="43.3469181011248" lon="11.504379383878515"><ele>353.20000000000005</ele><time>2026-05-02T16:01:56Z</time></trkpt><trkpt lat="43.34691662675899" lon="11.504237525241031"><ele>352.6</ele><time>2026-05-02T16:01:57Z</time></trkpt><trkpt lat="43.346941546936094" lon="11.504113478202965"><ele>352.0</ele><time>2026-05-02T16:01:58Z</time></trkpt><trkpt lat="43.346978003122274" lon="11.504008915405363"><ele>352.0</ele><time>2026-05-02T16:01:59Z</time></trkpt><trkpt lat="43.34701290282818" lon="11.503933330720391"><ele>352.0</ele><time>2026-05-02T16:02:00Z</time></trkpt><trkpt lat="43.34707937334683" lon="11.50383561536503"><ele>352.0</ele><time>2026-05-02T16:02:02Z</time></trkpt><trkpt lat="43.347017936079816" lon="11.50390667757719"><ele>352.0</ele><time>2026-05-02T16:02:06Z</time></trkpt><trkpt lat="43.346936310706774" lon="11.503858429689835"><ele>352.0</ele><time>2026-05-02T16:02:07Z</time></trkpt><trkpt lat="43.34701196889078" lon="11.503878392382425"><ele>352.0</ele><time>2026-05-02T16:02:12Z</time></trkpt><trkpt lat="43.34712826256095" lon="11.503803058508389"><ele>352.0</ele><time>2026-05-02T16:02:14Z</time></trkpt><trkpt lat="43.347194104884885" lon="11.503757242462042"><ele>352.0</ele><time>2026-05-02T16:02:15Z</time></trkpt><trkpt lat="43.34726834909185" lon="11.503713183889355"><ele>352.0</ele><time>2026-05-02T16:02:16Z</time></trkpt><trkpt lat="43.347349535295045" lon="11.503672229251194"><ele>352.0</ele><time>2026-05-02T16:02:17Z</time></trkpt><trkpt lat="43.34743236341957" lon="11.503627444262388"><ele>352.0</ele><time>2026-05-02T16:02:18Z</time></trkpt><trkpt lat="43.347517362658934" lon="11.503584786471567"><ele>352.0</ele><time>2026-05-02T16:02:19Z</time></trkpt><trkpt lat="43.34760781947969" lon="11.50355391414529"><ele>349.6</ele><time>2026-05-02T16:02:20Z</time></trkpt><trkpt lat="43.347706382827106" lon="11.503556760586207"><ele>347.20000000000005</ele><time>2026-05-02T16:02:20.999Z</time></trkpt><trkpt lat="43.347802112091955" lon="11.503588113313775"><ele>344.8</ele><time>2026-05-02T16:02:21.999Z</time></trkpt><trkpt lat="43.34789215296711" lon="11.503655967453247"><ele>342.4</ele><time>2026-05-02T16:02:22.999Z</time></trkpt><trkpt lat="43.34798010526332" lon="11.503727928077897"><ele>340.0</ele><time>2026-05-02T16:02:23.999Z</time></trkpt><trkpt lat="43.3480696145617" lon="11.503798240570992"><ele>340.0</ele><time>2026-05-02T16:02:24.999Z</time></trkpt><trkpt lat="43.348159865197445" lon="11.503873212518304"><ele>340.0</ele><time>2026-05-02T16:02:25.999Z</time></trkpt><trkpt lat="43.34825188914246" lon="11.50394578272028"><ele>340.0</ele><time>2026-05-02T16:02:26.999Z</time></trkpt><trkpt lat="43.348345403834884" lon="11.504020793073062"><ele>340.0</ele><time>2026-05-02T16:02:27.999Z</time></trkpt><trkpt lat="43.34844233548739" lon="11.504093487842038"><ele>340.0</ele><time>2026-05-02T16:02:28.999Z</time></trkpt><trkpt lat="43.34853737822359" lon="11.504166634561141"><ele>340.0</ele><time>2026-05-02T16:02:29.999Z</time></trkpt><trkpt lat="43.3486308006379" lon="11.504241234172294"><ele>340.0</ele><time>2026-05-02T16:02:30.999Z</time></trkpt><trkpt lat="43.34872666011005" lon="11.504316697983455"><ele>340.0</ele><time>2026-05-02T16:02:31.999Z</time></trkpt><trkpt lat="43.348820747489995" lon="11.504394827871916"><ele>340.0</ele><time>2026-05-02T16:02:32.999Z</time></trkpt><trkpt lat="43.34891485933322" lon="11.504466811351474"><ele>340.0</ele><time>2026-05-02T16:02:33.999Z</time></trkpt><trkpt lat="43.34900183364219" lon="11.504536922538875"><ele>338.8</ele><time>2026-05-02T16:02:34.999Z</time></trkpt><trkpt lat="43.34907848755358" lon="11.504623165330432"><ele>337.6</ele><time>2026-05-02T16:02:35.999Z</time></trkpt><trkpt lat="43.34916704373031" lon="11.504672630283437"><ele>336.4</ele><time>2026-05-02T16:02:36.999Z</time></trkpt><trkpt lat="43.34924792929307" lon="11.504746918685854"><ele>335.2</ele><time>2026-05-02T16:02:37.999Z</time></trkpt><trkpt lat="43.34933082139848" lon="11.504815165682384"><ele>334.0</ele><time>2026-05-02T16:02:38.999Z</time></trkpt><trkpt lat="43.349405460220915" lon="11.504906288282582"><ele>334.0</ele><time>2026-05-02T16:02:39.999Z</time></trkpt><trkpt lat="43.34949761873245" lon="11.504962111197546"><ele>334.0</ele><time>2026-05-02T16:02:40.999Z</time></trkpt><trkpt lat="43.349584346324605" lon="11.505031241075706"><ele>334.0</ele><time>2026-05-02T16:02:41.999Z</time></trkpt><trkpt lat="43.34967185907035" lon="11.505090475471961"><ele>334.0</ele><time>2026-05-02T16:02:42.999Z</time></trkpt><trkpt lat="43.34975642062988" lon="11.505140005656786"><ele>334.0</ele><time>2026-05-02T16:02:43.999Z</time></trkpt><trkpt lat="43.34983182884541" lon="11.50519160045436"><ele>334.4</ele><time>2026-05-02T16:02:44.999Z</time></trkpt><trkpt lat="43.34989799943616" lon="11.505240267529127"><ele>334.79999999999995</ele><time>2026-05-02T16:02:45.999Z</time></trkpt><trkpt lat="43.34996326177455" lon="11.505244480303086"><ele>335.20000000000005</ele><time>2026-05-02T16:02:46.999Z</time></trkpt><trkpt lat="43.350021758731046" lon="11.505119166587699"><ele>335.6</ele><time>2026-05-02T16:02:48.999Z</time></trkpt><trkpt lat="43.349925998731834" lon="11.505025507772006"><ele>336.0</ele><time>2026-05-02T16:02:50.999Z</time></trkpt><trkpt lat="43.34984039628088" lon="11.505050255366218"><ele>336.0</ele><time>2026-05-02T16:02:51.999Z</time></trkpt><trkpt lat="43.34975685263079" lon="11.505069181738326"><ele>336.0</ele><time>2026-05-02T16:02:52.999Z</time></trkpt><trkpt lat="43.349663230840996" lon="11.505049810185422"><ele>336.0</ele><time>2026-05-02T16:02:54Z</time></trkpt><trkpt lat="43.34958159243369" lon="11.504997327874523"><ele>336.0</ele><time>2026-05-02T16:02:55Z</time></trkpt><trkpt lat="43.34950002688567" lon="11.504937663871262"><ele>336.0</ele><time>2026-05-02T16:02:56Z</time></trkpt><trkpt lat="43.34941498046527" lon="11.504882538987554"><ele>335.8</ele><time>2026-05-02T16:02:57Z</time></trkpt><trkpt lat="43.34933612609004" lon="11.504814667812626"><ele>335.6</ele><time>2026-05-02T16:02:58Z</time></trkpt><trkpt lat="43.34925122159529" lon="11.504741447429861"><ele>335.4</ele><time>2026-05-02T16:02:59Z</time></trkpt><trkpt lat="43.349160401069476" lon="11.504659608482259"><ele>335.2</ele><time>2026-05-02T16:03:00Z</time></trkpt><trkpt lat="43.349065206328575" lon="11.504574871449057"><ele>335.0</ele><time>2026-05-02T16:03:01Z</time></trkpt><trkpt lat="43.34896691031386" lon="11.504485481824346"><ele>336.25</ele><time>2026-05-02T16:03:02Z</time></trkpt><trkpt lat="43.3488648726873" lon="11.50439611866542"><ele>337.5</ele><time>2026-05-02T16:03:03Z</time></trkpt><trkpt lat="43.34875852981185" lon="11.504311486424196"><ele>338.75</ele><time>2026-05-02T16:03:04Z</time></trkpt><trkpt lat="43.348650787078846" lon="11.504227894798694"><ele>340.0</ele><time>2026-05-02T16:03:05Z</time></trkpt><trkpt lat="43.348543795012795" lon="11.504145753823494"><ele>340.0</ele><time>2026-05-02T16:03:06Z</time></trkpt><trkpt lat="43.348441835042" lon="11.504065863463339"><ele>340.0</ele><time>2026-05-02T16:03:07Z</time></trkpt><trkpt lat="43.3483424347121" lon="11.503985248313267"><ele>340.0</ele><time>2026-05-02T16:03:08Z</time></trkpt><trkpt lat="43.34824259317164" lon="11.503905153019563"><ele>340.0</ele><time>2026-05-02T16:03:09Z</time></trkpt><trkpt lat="43.348143723962224" lon="11.503819205516374"><ele>339.6</ele><time>2026-05-02T16:03:10Z</time></trkpt><trkpt lat="43.3480454547284" lon="11.503737549447127"><ele>339.2</ele><time>2026-05-02T16:03:11Z</time></trkpt><trkpt lat="43.347950444216465" lon="11.50366679180101"><ele>338.79999999999995</ele><time>2026-05-02T16:03:12Z</time></trkpt><trkpt lat="43.34785657979191" lon="11.503606131917008"><ele>338.4</ele><time>2026-05-02T16:03:13Z</time></trkpt><trkpt lat="43.34775891501588" lon="11.503557443857394"><ele>338.0</ele><time>2026-05-02T16:03:14Z</time></trkpt><trkpt lat="43.347655143187545" lon="11.503533403184148"><ele>338.0</ele><time>2026-05-02T16:03:15Z</time></trkpt><trkpt lat="43.34754813809843" lon="11.503541003274256"><ele>338.0</ele><time>2026-05-02T16:03:16Z</time></trkpt><trkpt lat="43.34744386539207" lon="11.503582819258515"><ele>338.0</ele><time>2026-05-02T16:03:17Z</time></trkpt><trkpt lat="43.34734921938497" lon="11.503646736318034"><ele>338.0</ele><time>2026-05-02T16:03:18Z</time></trkpt><trkpt lat="43.34724819049127" lon="11.503699892640563"><ele>338.0</ele><time>2026-05-02T16:03:19Z</time></trkpt><trkpt lat="43.347151635001744" lon="11.503752716857235"><ele>340.79999999999995</ele><time>2026-05-02T16:03:20Z</time></trkpt><trkpt lat="43.34706318376966" lon="11.50381831149977"><ele>343.6</ele><time>2026-05-02T16:03:21Z</time></trkpt><trkpt lat="43.34698478116904" lon="11.503919050260176"><ele>346.4</ele><time>2026-05-02T16:03:22Z</time></trkpt><trkpt lat="43.34692004171687" lon="11.50404948966242"><ele>349.20000000000005</ele><time>2026-05-02T16:03:23Z</time></trkpt><trkpt lat="43.346881213250214" lon="11.504200293889088"><ele>352.0</ele><time>2026-05-02T16:03:24Z</time></trkpt><trkpt lat="43.346882090374415" lon="11.504357465570923"><ele>352.0</ele><time>2026-05-02T16:03:25Z</time></trkpt><trkpt lat="43.34691537022137" lon="11.504513738406933"><ele>352.0</ele><time>2026-05-02T16:03:26Z</time></trkpt><trkpt lat="43.34696475661181" lon="11.504675666853366"><ele>352.0</ele><time>2026-05-02T16:03:27Z</time></trkpt><trkpt lat="43.34701710806767" lon="11.50484551060615"><ele>352.0</ele><time>2026-05-02T16:03:28Z</time></trkpt><trkpt lat="43.34706142940092" lon="11.5049963212836"><ele>352.6</ele><time>2026-05-02T16:03:29Z</time></trkpt><trkpt lat="43.34708807510211" lon="11.505129611705811"><ele>353.20000000000005</ele><time>2026-05-02T16:03:30Z</time></trkpt><trkpt lat="43.34712165957605" lon="11.505239954635398"><ele>353.8</ele><time>2026-05-02T16:03:31Z</time></trkpt><trkpt lat="43.347118747006235" lon="11.505363701658025"><ele>354.4</ele><time>2026-05-02T16:03:32Z</time></trkpt><trkpt lat="43.347075030058484" lon="11.505477323448222"><ele>355.0</ele><time>2026-05-02T16:03:33Z</time></trkpt><trkpt lat="43.346995781422095" lon="11.505548986557312"><ele>352.5</ele><time>2026-05-02T16:03:34Z</time></trkpt><trkpt lat="43.3469043757528" lon="11.505582617345487"><ele>350.0</ele><time>2026-05-02T16:03:35Z</time></trkpt><trkpt lat="43.346794670532724" lon="11.505593550438924"><ele>347.5</ele><time>2026-05-02T16:03:36Z</time></trkpt><trkpt lat="43.34666619969874" lon="11.505587675585254"><ele>345.0</ele><time>2026-05-02T16:03:37Z</time></trkpt><trkpt lat="43.346525048373074" lon="11.505570146171078"><ele>345.0</ele><time>2026-05-02T16:03:38Z</time></trkpt><trkpt lat="43.34638284699946" lon="11.505539990488918"><ele>345.0</ele><time>2026-05-02T16:03:39Z</time></trkpt><trkpt lat="43.34624464538341" lon="11.50548743868611"><ele>345.0</ele><time>2026-05-02T16:03:40Z</time></trkpt><trkpt lat="43.34611412861347" lon="11.505416225029226"><ele>345.0</ele><time>2026-05-02T16:03:41Z</time></trkpt><trkpt lat="43.345992738080874" lon="11.50532885840279"><ele>346.75</ele><time>2026-05-02T16:03:42Z</time></trkpt><trkpt lat="43.3458824047912" lon="11.505219797800013"><ele>348.5</ele><time>2026-05-02T16:03:43Z</time></trkpt><trkpt lat="43.34578368418239" lon="11.505091379672555"><ele>350.25</ele><time>2026-05-02T16:03:44Z</time></trkpt><trkpt lat="43.3456883600539" lon="11.504955121469747"><ele>352.0</ele><time>2026-05-02T16:03:45Z</time></trkpt><trkpt lat="43.34559222017071" lon="11.504819907040773"><ele>350.0</ele><time>2026-05-02T16:03:46Z</time></trkpt><trkpt lat="43.34550380795105" lon="11.50470627875592"><ele>348.0</ele><time>2026-05-02T16:03:47Z</time></trkpt><trkpt lat="43.345410887443684" lon="11.50461842630315"><ele>346.0</ele><time>2026-05-02T16:03:48Z</time></trkpt><trkpt lat="43.345308306477655" lon="11.504565586740725"><ele>344.0</ele><time>2026-05-02T16:03:49Z</time></trkpt><trkpt lat="43.345204508435984" lon="11.50452691437236"><ele>343.83333333333337</ele><time>2026-05-02T16:03:50Z</time></trkpt><trkpt lat="43.345103490997815" lon="11.504491058953963"><ele>343.6666666666667</ele><time>2026-05-02T16:03:51Z</time></trkpt><trkpt lat="43.34500659966534" lon="11.504468344222868"><ele>343.5</ele><time>2026-05-02T16:03:52Z</time></trkpt><trkpt lat="43.34491824351393" lon="11.504450028646705"><ele>343.3333333333333</ele><time>2026-05-02T16:03:53Z</time></trkpt><trkpt lat="43.344846625129115" lon="11.504428026845428"><ele>343.16666666666663</ele><time>2026-05-02T16:03:54Z</time></trkpt><trkpt lat="43.34477808260754" lon="11.50437891592862"><ele>343.0</ele><time>2026-05-02T16:03:56Z</time></trkpt><trkpt lat="43.344846430839084" lon="11.504222458647568"><ele>343.0</ele><time>2026-05-02T16:03:57Z</time></trkpt><trkpt lat="43.34489739183808" lon="11.504111601648216"><ele>343.0</ele><time>2026-05-02T16:03:58Z</time></trkpt><trkpt lat="43.34493961978796" lon="11.503977158909832"><ele>343.0</ele><time>2026-05-02T16:03:59Z</time></trkpt><trkpt lat="43.34499274540946" lon="11.503854054421804"><ele>343.0</ele><time>2026-05-02T16:04:00Z</time></trkpt><trkpt lat="43.34503160947559" lon="11.503736212275985"><ele>343.0</ele><time>2026-05-02T16:04:01Z</time></trkpt><trkpt lat="43.34507740183894" lon="11.503620458910262"><ele>343.0</ele><time>2026-05-02T16:04:02Z</time></trkpt><trkpt lat="43.34509810109219" lon="11.503477330465005"><ele>343.0</ele><time>2026-05-02T16:04:03Z</time></trkpt><trkpt lat="43.34496524582012" lon="11.503323321998165"><ele>343.0</ele><time>2026-05-02T16:04:04Z</time></trkpt><trkpt lat="43.344906039671976" lon="11.503194757590762"><ele>343.0</ele><time>2026-05-02T16:04:05Z</time></trkpt><trkpt lat="43.34487333099762" lon="11.503059343586568"><ele>343.0</ele><time>2026-05-02T16:04:06Z</time></trkpt><trkpt lat="43.34488249375862" lon="11.502915196201451"><ele>343.0</ele><time>2026-05-02T16:04:07Z</time></trkpt><trkpt lat="43.344902834801864" lon="11.502771073218574"><ele>343.0</ele><time>2026-05-02T16:04:08Z</time></trkpt><trkpt lat="43.34493815562346" lon="11.50262128006063"><ele>343.0</ele><time>2026-05-02T16:04:09Z</time></trkpt><trkpt lat="43.34498853382302" lon="11.502474727654464"><ele>343.0</ele><time>2026-05-02T16:04:10Z</time></trkpt><trkpt lat="43.34505298167938" lon="11.502319276803387"><ele>343.25</ele><time>2026-05-02T16:04:11Z</time></trkpt><trkpt lat="43.34511645114996" lon="11.502156698902688"><ele>343.5</ele><time>2026-05-02T16:04:12Z</time></trkpt><trkpt lat="43.345167448560844" lon="11.501998533690934"><ele>343.75</ele><time>2026-05-02T16:04:13Z</time></trkpt><trkpt lat="43.34521543219165" lon="11.501852170698253"><ele>344.0</ele><time>2026-05-02T16:04:14Z</time></trkpt><trkpt lat="43.34524057016872" lon="11.501711318383245"><ele>342.0</ele><time>2026-05-02T16:04:15Z</time></trkpt><trkpt lat="43.3452327237232" lon="11.501568334645212"><ele>340.0</ele><time>2026-05-02T16:04:16Z</time></trkpt><trkpt lat="43.345199514427634" lon="11.501423529636694"><ele>338.0</ele><time>2026-05-02T16:04:17Z</time></trkpt><trkpt lat="43.345149511617166" lon="11.501273925600579"><ele>336.0</ele><time>2026-05-02T16:04:18Z</time></trkpt><trkpt lat="43.34509133207811" lon="11.501130216839972"><ele>335.8</ele><time>2026-05-02T16:04:19Z</time></trkpt><trkpt lat="43.345024930590945" lon="11.501004834460392"><ele>335.6</ele><time>2026-05-02T16:04:20Z</time></trkpt><trkpt lat="43.344963210856925" lon="11.500896120591621"><ele>335.4</ele><time>2026-05-02T16:04:21Z</time></trkpt><trkpt lat="43.344917335851385" lon="11.500794777082634"><ele>335.2</ele><time>2026-05-02T16:04:22Z</time></trkpt><trkpt lat="43.34494533839525" lon="11.500642716578502"><ele>335.0</ele><time>2026-05-02T16:04:24Z</time></trkpt><trkpt lat="43.34500853954363" lon="11.500618300105858"><ele>335.0</ele><time>2026-05-02T16:04:25Z</time></trkpt><trkpt lat="43.34506557916178" lon="11.50056478183112"><ele>335.0</ele><time>2026-05-02T16:04:30.999Z</time></trkpt><trkpt lat="43.34499824991117" lon="11.500348759607899"><ele>335.0</ele><time>2026-05-02T16:04:32.999Z</time></trkpt><trkpt lat="43.344950303982635" lon="11.500247428525242"><ele>335.0</ele><time>2026-05-02T16:04:33.999Z</time></trkpt><trkpt lat="43.344903958129066" lon="11.500126302360567"><ele>335.0</ele><time>2026-05-02T16:04:34.999Z</time></trkpt><trkpt lat="43.344866643288036" lon="11.499983440533438"><ele>335.0</ele><time>2026-05-02T16:04:35.999Z</time></trkpt><trkpt lat="43.34481120297205" lon="11.49982880096623"><ele>335.0</ele><time>2026-05-02T16:04:36.999Z</time></trkpt><trkpt lat="43.34474794571547" lon="11.499676461940027"><ele>335.0</ele><time>2026-05-02T16:04:37.999Z</time></trkpt><trkpt lat="43.3446858387751" lon="11.499512043954905"><ele>335.0</ele><time>2026-05-02T16:04:38.999Z</time></trkpt><trkpt lat="43.34462226118443" lon="11.499340247790444"><ele>335.25</ele><time>2026-05-02T16:04:39.999Z</time></trkpt><trkpt lat="43.344556742137776" lon="11.49916139378455"><ele>335.5</ele><time>2026-05-02T16:04:40.999Z</time></trkpt><trkpt lat="43.344492932481685" lon="11.498979199846882"><ele>335.75</ele><time>2026-05-02T16:04:41.999Z</time></trkpt><trkpt lat="43.3444289037914" lon="11.498790355458219"><ele>336.0</ele><time>2026-05-02T16:04:42.999Z</time></trkpt><trkpt lat="43.34436857161292" lon="11.498598636104633"><ele>335.3333333333333</ele><time>2026-05-02T16:04:43.999Z</time></trkpt><trkpt lat="43.34430918092752" lon="11.498408504635591"><ele>334.66666666666663</ele><time>2026-05-02T16:04:44.999Z</time></trkpt><trkpt lat="43.34424794898222" lon="11.498219828238952"><ele>334.0</ele><time>2026-05-02T16:04:45.999Z</time></trkpt><trkpt lat="43.344178522247255" lon="11.498032372575283"><ele>334.75</ele><time>2026-05-02T16:04:46.999Z</time></trkpt><trkpt lat="43.34411165233204" lon="11.497849377057861"><ele>335.5</ele><time>2026-05-02T16:04:47.999Z</time></trkpt><trkpt lat="43.34404222819563" lon="11.497667261830856"><ele>336.25</ele><time>2026-05-02T16:04:48.999Z</time></trkpt><trkpt lat="43.34397734781097" lon="11.497491308400251"><ele>337.0</ele><time>2026-05-02T16:04:49.999Z</time></trkpt><trkpt lat="43.3439139828744" lon="11.497326584240447"><ele>336.40000000000003</ele><time>2026-05-02T16:04:50.999Z</time></trkpt><trkpt lat="43.34386157717495" lon="11.49719770758337"><ele>335.8</ele><time>2026-05-02T16:04:51.999Z</time></trkpt><trkpt lat="43.3438014958346" lon="11.497084918636824"><ele>335.2</ele><time>2026-05-02T16:04:52.999Z</time></trkpt><trkpt lat="43.34373355066027" lon="11.496970606239845"><ele>334.6</ele><time>2026-05-02T16:04:53.999Z</time></trkpt><trkpt lat="43.343648767697864" lon="11.496863389143929"><ele>334.0</ele><time>2026-05-02T16:04:54.999Z</time></trkpt><trkpt lat="43.343560499297745" lon="11.49675561565292"><ele>334.0</ele><time>2026-05-02T16:04:55.999Z</time></trkpt><trkpt lat="43.3434756922244" lon="11.49664858973683"><ele>334.0</ele><time>2026-05-02T16:04:56.999Z</time></trkpt><trkpt lat="43.34339338499446" lon="11.496537151281428"><ele>334.0</ele><time>2026-05-02T16:04:57.999Z</time></trkpt><trkpt lat="43.34330919540418" lon="11.496434311802188"><ele>334.0</ele><time>2026-05-02T16:04:58.999Z</time></trkpt><trkpt lat="43.343231573945104" lon="11.496332198563598"><ele>333.25</ele><time>2026-05-02T16:05:00Z</time></trkpt><trkpt lat="43.343154410784415" lon="11.496239716232681"><ele>332.5</ele><time>2026-05-02T16:05:01Z</time></trkpt><trkpt lat="43.343066553760806" lon="11.496137631022776"><ele>331.75</ele><time>2026-05-02T16:05:02Z</time></trkpt><trkpt lat="43.342976347735195" lon="11.49603457126855"><ele>331.0</ele><time>2026-05-02T16:05:03Z</time></trkpt><trkpt lat="43.34288261436606" lon="11.495925927144274"><ele>331.0</ele><time>2026-05-02T16:05:04Z</time></trkpt><trkpt lat="43.34278657259598" lon="11.495806426736412"><ele>331.0</ele><time>2026-05-02T16:05:05Z</time></trkpt><trkpt lat="43.3426852141098" lon="11.495679570885683"><ele>331.0</ele><time>2026-05-02T16:05:06Z</time></trkpt><trkpt lat="43.342576366112446" lon="11.495549544454358"><ele>331.0</ele><time>2026-05-02T16:05:07Z</time></trkpt><trkpt lat="43.342466106855206" lon="11.495411044932812"><ele>328.3333333333333</ele><time>2026-05-02T16:05:08Z</time></trkpt><trkpt lat="43.342348802629274" lon="11.495271609023709"><ele>325.6666666666667</ele><time>2026-05-02T16:05:09Z</time></trkpt><trkpt lat="43.342227111476475" lon="11.495130321717543"><ele>323.0</ele><time>2026-05-02T16:05:10Z</time></trkpt><trkpt lat="43.342102367841846" lon="11.494991078518757"><ele>320.6666666666667</ele><time>2026-05-02T16:05:11Z</time></trkpt><trkpt lat="43.341978207631826" lon="11.494841626153189"><ele>318.3333333333333</ele><time>2026-05-02T16:05:12Z</time></trkpt><trkpt lat="43.341849186370034" lon="11.49469255249078"><ele>316.0</ele><time>2026-05-02T16:05:13Z</time></trkpt><trkpt lat="43.341720332204424" lon="11.494540039906152"><ele>315.0</ele><time>2026-05-02T16:05:14Z</time></trkpt><trkpt lat="43.3415914960827" lon="11.494386019939169"><ele>314.0</ele><time>2026-05-02T16:05:15Z</time></trkpt><trkpt lat="43.34145968828257" lon="11.49423026490069"><ele>313.0</ele><time>2026-05-02T16:05:16Z</time></trkpt><trkpt lat="43.34132702339224" lon="11.494074592273858"><ele>312.0</ele><time>2026-05-02T16:05:17Z</time></trkpt><trkpt lat="43.34119363357837" lon="11.493917891606412"><ele>311.0</ele><time>2026-05-02T16:05:18Z</time></trkpt><trkpt lat="43.34105794980144" lon="11.49375839637015"><ele>310.0</ele><time>2026-05-02T16:05:19Z</time></trkpt><trkpt lat="43.34092141395572" lon="11.493599400586335"><ele>310.0</ele><time>2026-05-02T16:05:20Z</time></trkpt><trkpt lat="43.34078519584673" lon="11.493437817826653"><ele>310.0</ele><time>2026-05-02T16:05:21Z</time></trkpt><trkpt lat="43.340648744670084" lon="11.493275465364777"><ele>310.0</ele><time>2026-05-02T16:05:22Z</time></trkpt><trkpt lat="43.34051369115458" lon="11.493111572663608"><ele>310.0</ele><time>2026-05-02T16:05:23Z</time></trkpt><trkpt lat="43.34037814062066" lon="11.492939948669541"><ele>310.0</ele><time>2026-05-02T16:05:24Z</time></trkpt><trkpt lat="43.34024285352579" lon="11.492761360615734"><ele>310.0</ele><time>2026-05-02T16:05:25Z</time></trkpt><trkpt lat="43.34010998041239" lon="11.492577926419761"><ele>310.3333333333333</ele><time>2026-05-02T16:05:26Z</time></trkpt><trkpt lat="43.33997846107929" lon="11.492389028928272"><ele>310.6666666666667</ele><time>2026-05-02T16:05:27Z</time></trkpt><trkpt lat="43.339847913340556" lon="11.49219243319037"><ele>311.0</ele><time>2026-05-02T16:05:28Z</time></trkpt><trkpt lat="43.339717561193815" lon="11.491991897231806"><ele>309.6666666666667</ele><time>2026-05-02T16:05:29Z</time></trkpt><trkpt lat="43.339587216458966" lon="11.491790551402865"><ele>308.3333333333333</ele><time>2026-05-02T16:05:30Z</time></trkpt><trkpt lat="43.33945923293617" lon="11.491593961668817"><ele>307.0</ele><time>2026-05-02T16:05:31Z</time></trkpt><trkpt lat="43.33933064052699" lon="11.491397725275288"><ele>306.66666666666663</ele><time>2026-05-02T16:05:32Z</time></trkpt><trkpt lat="43.33920099975787" lon="11.49120549241456"><ele>306.3333333333333</ele><time>2026-05-02T16:05:33Z</time></trkpt><trkpt lat="43.33906351025098" lon="11.491023949963349"><ele>306.0</ele><time>2026-05-02T16:05:34Z</time></trkpt><trkpt lat="43.338915345869616" lon="11.490851626520215"><ele>305.0</ele><time>2026-05-02T16:05:35Z</time></trkpt><trkpt lat="43.33876166122952" lon="11.49068460393208"><ele>304.0</ele><time>2026-05-02T16:05:36Z</time></trkpt><trkpt lat="43.33861135712864" lon="11.490526833236393"><ele>303.0</ele><time>2026-05-02T16:05:37Z</time></trkpt><trkpt lat="43.33846336497865" lon="11.490373441257695"><ele>303.0</ele><time>2026-05-02T16:05:38Z</time></trkpt><trkpt lat="43.338318598540276" lon="11.490223241912268"><ele>303.0</ele><time>2026-05-02T16:05:39Z</time></trkpt><trkpt lat="43.33817531079208" lon="11.490075195568735"><ele>303.0</ele><time>2026-05-02T16:05:40Z</time></trkpt><trkpt lat="43.33803056586513" lon="11.489922973891462"><ele>301.3333333333333</ele><time>2026-05-02T16:05:41Z</time></trkpt><trkpt lat="43.3378847785458" lon="11.48977066593614"><ele>299.66666666666663</ele><time>2026-05-02T16:05:42Z</time></trkpt><trkpt lat="43.33773688017383" lon="11.48961778888195"><ele>298.0</ele><time>2026-05-02T16:05:43Z</time></trkpt><trkpt lat="43.33758967162496" lon="11.48946605142609"><ele>297.66666666666663</ele><time>2026-05-02T16:05:44Z</time></trkpt><trkpt lat="43.33744531888745" lon="11.489315357650902"><ele>297.3333333333333</ele><time>2026-05-02T16:05:45Z</time></trkpt><trkpt lat="43.337303096565286" lon="11.489169499008703"><ele>297.0</ele><time>2026-05-02T16:05:46Z</time></trkpt><trkpt lat="43.33715810095914" lon="11.489033547346494"><ele>297.6666666666667</ele><time>2026-05-02T16:05:47Z</time></trkpt><trkpt lat="43.337007643567766" lon="11.488917773551005"><ele>298.33333333333337</ele><time>2026-05-02T16:05:48Z</time></trkpt><trkpt lat="43.336846345859904" lon="11.488822928259248"><ele>299.0</ele><time>2026-05-02T16:05:49Z</time></trkpt><trkpt lat="43.336682807928675" lon="11.488731516710825"><ele>299.0</ele><time>2026-05-02T16:05:50Z</time></trkpt><trkpt lat="43.336526221014324" lon="11.488613782982355"><ele>299.0</ele><time>2026-05-02T16:05:51Z</time></trkpt><trkpt lat="43.33639121454923" lon="11.488452705747648"><ele>299.0</ele><time>2026-05-02T16:05:52Z</time></trkpt><trkpt lat="43.33628277869435" lon="11.48825773722852"><ele>299.0</ele><time>2026-05-02T16:05:53Z</time></trkpt><trkpt lat="43.336173758762506" lon="11.488058178029581"><ele>299.0</ele><time>2026-05-02T16:05:54Z</time></trkpt><trkpt lat="43.336043244058466" lon="11.487877070515626"><ele>299.0</ele><time>2026-05-02T16:05:55Z</time></trkpt><trkpt lat="43.33590173495014" lon="11.487717922986244"><ele>298.33333333333337</ele><time>2026-05-02T16:05:56Z</time></trkpt><trkpt lat="43.33576086954591" lon="11.487554905121879"><ele>297.6666666666667</ele><time>2026-05-02T16:05:57Z</time></trkpt><trkpt lat="43.33563405080457" lon="11.487371569236567"><ele>297.0</ele><time>2026-05-02T16:05:58Z</time></trkpt><trkpt lat="43.33552533285698" lon="11.4871632986986"><ele>296.0</ele><time>2026-05-02T16:05:59Z</time></trkpt><trkpt lat="43.335425628365364" lon="11.486942258740534"><ele>295.0</ele><time>2026-05-02T16:06:00Z</time></trkpt><trkpt lat="43.33533264886459" lon="11.48671662708632"><ele>294.0</ele><time>2026-05-02T16:06:01Z</time></trkpt><trkpt lat="43.33524081445634" lon="11.486489168782194"><ele>294.0</ele><time>2026-05-02T16:06:02Z</time></trkpt><trkpt lat="43.3351470235641" lon="11.48626231088206"><ele>294.0</ele><time>2026-05-02T16:06:03Z</time></trkpt><trkpt lat="43.33505762752933" lon="11.486031432522127"><ele>294.0</ele><time>2026-05-02T16:06:04Z</time></trkpt><trkpt lat="43.334983687081554" lon="11.485786927238614"><ele>291.0</ele><time>2026-05-02T16:06:05Z</time></trkpt><trkpt lat="43.334929697981394" lon="11.485530101388967"><ele>288.0</ele><time>2026-05-02T16:06:06Z</time></trkpt><trkpt lat="43.33489196938331" lon="11.485267123088773"><ele>285.0</ele><time>2026-05-02T16:06:07Z</time></trkpt><trkpt lat="43.33485966702217" lon="11.485005318612288"><ele>283.0</ele><time>2026-05-02T16:06:08Z</time></trkpt><trkpt lat="43.334826787247366" lon="11.48474965907663"><ele>281.0</ele><time>2026-05-02T16:06:09Z</time></trkpt><trkpt lat="43.33479846431776" lon="11.484504746680699"><ele>279.0</ele><time>2026-05-02T16:06:10Z</time></trkpt><trkpt lat="43.334775392277514" lon="11.484268377985115"><ele>277.6666666666667</ele><time>2026-05-02T16:06:11Z</time></trkpt><trkpt lat="43.33475310879875" lon="11.484041335645319"><ele>276.33333333333337</ele><time>2026-05-02T16:06:12Z</time></trkpt><trkpt lat="43.334733131504784" lon="11.483818092717634"><ele>275.0</ele><time>2026-05-02T16:06:13Z</time></trkpt><trkpt lat="43.33471748814739" lon="11.483592775267505"><ele>278.0</ele><time>2026-05-02T16:06:14Z</time></trkpt><trkpt lat="43.33469804456415" lon="11.483369408449246"><ele>281.0</ele><time>2026-05-02T16:06:15Z</time></trkpt><trkpt lat="43.334676476193465" lon="11.483148428630079"><ele>284.0</ele><time>2026-05-02T16:06:16Z</time></trkpt><trkpt lat="43.33465200982341" lon="11.482939794741272"><ele>283.25</ele><time>2026-05-02T16:06:17Z</time></trkpt><trkpt lat="43.33462534257274" lon="11.482738043125888"><ele>282.5</ele><time>2026-05-02T16:06:18Z</time></trkpt><trkpt lat="43.33459938487362" lon="11.482549192598377"><ele>281.75</ele><time>2026-05-02T16:06:19Z</time></trkpt><trkpt lat="43.33457592964211" lon="11.482372718791769"><ele>281.0</ele><time>2026-05-02T16:06:20Z</time></trkpt><trkpt lat="43.33457615329338" lon="11.482194618645504"><ele>279.25</ele><time>2026-05-02T16:06:21Z</time></trkpt><trkpt lat="43.33460700182927" lon="11.48202551631088"><ele>277.5</ele><time>2026-05-02T16:06:22Z</time></trkpt><trkpt lat="43.33466465370201" lon="11.481859983934028"><ele>275.75</ele><time>2026-05-02T16:06:23Z</time></trkpt><trkpt lat="43.334741786562944" lon="11.4817032452722"><ele>274.0</ele><time>2026-05-02T16:06:24Z</time></trkpt><trkpt lat="43.33483346751611" lon="11.481546786367034"><ele>273.5</ele><time>2026-05-02T16:06:25Z</time></trkpt><trkpt lat="43.334925987681" lon="11.481388394037689"><ele>273.0</ele><time>2026-05-02T16:06:26Z</time></trkpt><trkpt lat="43.3350175034519" lon="11.481228584771936"><ele>272.5</ele><time>2026-05-02T16:06:27Z</time></trkpt><trkpt lat="43.33511015810053" lon="11.481074407316395"><ele>272.0</ele><time>2026-05-02T16:06:28Z</time></trkpt><trkpt lat="43.33519954118847" lon="11.480932190050748"><ele>273.4</ele><time>2026-05-02T16:06:29Z</time></trkpt><trkpt lat="43.33527725919237" lon="11.480805473280611"><ele>274.79999999999995</ele><time>2026-05-02T16:06:29.999Z</time></trkpt><trkpt lat="43.335344958876966" lon="11.480686074937543"><ele>276.2</ele><time>2026-05-02T16:06:30.999Z</time></trkpt><trkpt lat="43.33542159187686" lon="11.480599394281311"><ele>277.59999999999997</ele><time>2026-05-02T16:06:31.999Z</time></trkpt><trkpt lat="43.33548663631171" lon="11.4805110716473"><ele>279.0</ele><time>2026-05-02T16:06:32.999Z</time></trkpt><trkpt lat="43.33544947677551" lon="11.48028044098125"><ele>279.2</ele><time>2026-05-02T16:06:33.999Z</time></trkpt><trkpt lat="43.3354794099797" lon="11.480131862968934"><ele>279.4</ele><time>2026-05-02T16:06:34.999Z</time></trkpt><trkpt lat="43.335507825400725" lon="11.479998034077886"><ele>279.6</ele><time>2026-05-02T16:06:35.999Z</time></trkpt><trkpt lat="43.33554339270272" lon="11.479871591731001"><ele>279.8</ele><time>2026-05-02T16:06:36.999Z</time></trkpt><trkpt lat="43.3355789523113" lon="11.479739210423425"><ele>280.0</ele><time>2026-05-02T16:06:37.999Z</time></trkpt><trkpt lat="43.33562021838864" lon="11.479603980029502"><ele>279.5</ele><time>2026-05-02T16:06:38.999Z</time></trkpt><trkpt lat="43.33568512037315" lon="11.479481723526181"><ele>279.0</ele><time>2026-05-02T16:06:39.999Z</time></trkpt><trkpt lat="43.33572179669176" lon="11.479338033663527"><ele>278.5</ele><time>2026-05-02T16:06:40.999Z</time></trkpt><trkpt lat="43.33577107274035" lon="11.479194972779519"><ele>278.0</ele><time>2026-05-02T16:06:41.999Z</time></trkpt><trkpt lat="43.33581591273967" lon="11.479040502226967"><ele>278.0</ele><time>2026-05-02T16:06:42.999Z</time></trkpt><trkpt lat="43.335856355598466" lon="11.478874629178192"><ele>278.0</ele><time>2026-05-02T16:06:43.999Z</time></trkpt><trkpt lat="43.335916589824826" lon="11.478717107640955"><ele>278.0</ele><time>2026-05-02T16:06:44.999Z</time></trkpt><trkpt lat="43.33596687142084" lon="11.478559620477034"><ele>278.0</ele><time>2026-05-02T16:06:45.999Z</time></trkpt><trkpt lat="43.33601173809358" lon="11.478405641084091"><ele>277.2</ele><time>2026-05-02T16:06:46.999Z</time></trkpt><trkpt lat="43.33602635877809" lon="11.478249232680982"><ele>276.4</ele><time>2026-05-02T16:06:47.999Z</time></trkpt><trkpt lat="43.336059910303234" lon="11.478108608991015"><ele>275.59999999999997</ele><time>2026-05-02T16:06:48.999Z</time></trkpt><trkpt lat="43.33605736126139" lon="11.477962011829518"><ele>274.8</ele><time>2026-05-02T16:06:49.999Z</time></trkpt><trkpt lat="43.336039353184994" lon="11.477814120708338"><ele>274.0</ele><time>2026-05-02T16:06:50.999Z</time></trkpt><trkpt lat="43.33600805107899" lon="11.47766841040861"><ele>274.0</ele><time>2026-05-02T16:06:51.999Z</time></trkpt><trkpt lat="43.33597142437507" lon="11.477525344733754"><ele>274.0</ele><time>2026-05-02T16:06:52.999Z</time></trkpt><trkpt lat="43.33593139894944" lon="11.477383310705253"><ele>274.0</ele><time>2026-05-02T16:06:53.999Z</time></trkpt><trkpt lat="43.33588499181999" lon="11.477238249922431"><ele>274.0</ele><time>2026-05-02T16:06:54.999Z</time></trkpt><trkpt lat="43.33583273392851" lon="11.477089963766122"><ele>274.75</ele><time>2026-05-02T16:06:55.999Z</time></trkpt><trkpt lat="43.33576373177332" lon="11.47695099187825"><ele>275.5</ele><time>2026-05-02T16:06:56.999Z</time></trkpt><trkpt lat="43.335715279972085" lon="11.476796401989489"><ele>276.25</ele><time>2026-05-02T16:06:57.999Z</time></trkpt><trkpt lat="43.335662638402525" lon="11.476643318250725"><ele>277.0</ele><time>2026-05-02T16:06:58.999Z</time></trkpt><trkpt lat="43.335608776272935" lon="11.476495597228503"><ele>276.5</ele><time>2026-05-02T16:06:59.999Z</time></trkpt><trkpt lat="43.335548885714616" lon="11.47635446403905"><ele>276.0</ele><time>2026-05-02T16:07:00.999Z</time></trkpt><trkpt lat="43.33548631955764" lon="11.476207879087484"><ele>275.5</ele><time>2026-05-02T16:07:01.999Z</time></trkpt><trkpt lat="43.33542230425023" lon="11.476047340773786"><ele>275.0</ele><time>2026-05-02T16:07:02.999Z</time></trkpt><trkpt lat="43.33535246827058" lon="11.475881580153622"><ele>275.0</ele><time>2026-05-02T16:07:03.999Z</time></trkpt><trkpt lat="43.33528138967746" lon="11.475711123599089"><ele>275.0</ele><time>2026-05-02T16:07:04.999Z</time></trkpt><trkpt lat="43.335209302352325" lon="11.475533321352177"><ele>275.0</ele><time>2026-05-02T16:07:06Z</time></trkpt><trkpt lat="43.33513951448106" lon="11.47534799605135"><ele>275.0</ele><time>2026-05-02T16:07:07Z</time></trkpt><trkpt lat="43.33507769328491" lon="11.475156434799093"><ele>274.33333333333337</ele><time>2026-05-02T16:07:08Z</time></trkpt><trkpt lat="43.335023723077015" lon="11.474958155942169"><ele>273.6666666666667</ele><time>2026-05-02T16:07:09Z</time></trkpt><trkpt lat="43.33500235255115" lon="11.474748023594744"><ele>273.0</ele><time>2026-05-02T16:07:10Z</time></trkpt><trkpt lat="43.33497504946037" lon="11.474537314110355"><ele>272.6666666666667</ele><time>2026-05-02T16:07:11Z</time></trkpt><trkpt lat="43.33493540464387" lon="11.474326402455894"><ele>272.33333333333337</ele><time>2026-05-02T16:07:12Z</time></trkpt><trkpt lat="43.3349119189217" lon="11.474106728051444"><ele>272.0</ele><time>2026-05-02T16:07:13Z</time></trkpt><trkpt lat="43.33489126313702" lon="11.47388510271824"><ele>271.33333333333337</ele><time>2026-05-02T16:07:14Z</time></trkpt><trkpt lat="43.3348704166912" lon="11.473667424277995"><ele>270.6666666666667</ele><time>2026-05-02T16:07:15Z</time></trkpt><trkpt lat="43.33485105206956" lon="11.473457349778675"><ele>270.0</ele><time>2026-05-02T16:07:16Z</time></trkpt><trkpt lat="43.33483639144194" lon="11.473258920622987"><ele>270.0</ele><time>2026-05-02T16:07:17Z</time></trkpt><trkpt lat="43.33484279231029" lon="11.473064299949364"><ele>270.0</ele><time>2026-05-02T16:07:18Z</time></trkpt><trkpt lat="43.33487322766616" lon="11.47286540744037"><ele>270.0</ele><time>2026-05-02T16:07:19Z</time></trkpt><trkpt lat="43.334921282787676" lon="11.472670082048097"><ele>270.0</ele><time>2026-05-02T16:07:20Z</time></trkpt><trkpt lat="43.334972977767954" lon="11.472475279606238"><ele>270.3333333333333</ele><time>2026-05-02T16:07:21Z</time></trkpt><trkpt lat="43.33502822035132" lon="11.472280542695598"><ele>270.66666666666663</ele><time>2026-05-02T16:07:22Z</time></trkpt><trkpt lat="43.335091525131006" lon="11.472088823092681"><ele>271.0</ele><time>2026-05-02T16:07:23Z</time></trkpt><trkpt lat="43.335153650534764" lon="11.471901555891561"><ele>270.0</ele><time>2026-05-02T16:07:24Z</time></trkpt><trkpt lat="43.33523635473882" lon="11.471739209940813"><ele>269.0</ele><time>2026-05-02T16:07:25Z</time></trkpt><trkpt lat="43.33530925502273" lon="11.471566578933238"><ele>268.0</ele><time>2026-05-02T16:07:26Z</time></trkpt><trkpt lat="43.335371877866876" lon="11.471383478286265"><ele>267.0</ele><time>2026-05-02T16:07:27Z</time></trkpt><trkpt lat="43.3354533774785" lon="11.471214407345917"><ele>265.75</ele><time>2026-05-02T16:07:28Z</time></trkpt><trkpt lat="43.33554358567475" lon="11.471053330747608"><ele>264.5</ele><time>2026-05-02T16:07:29Z</time></trkpt><trkpt lat="43.335614357613004" lon="11.470884848684406"><ele>263.25</ele><time>2026-05-02T16:07:30Z</time></trkpt><trkpt lat="43.33567510335017" lon="11.470722314087467"><ele>262.0</ele><time>2026-05-02T16:07:31Z</time></trkpt><trkpt lat="43.335728698546575" lon="11.470559864222071"><ele>261.0</ele><time>2026-05-02T16:07:32Z</time></trkpt><trkpt lat="43.33575659740634" lon="11.470381829619186"><ele>260.0</ele><time>2026-05-02T16:07:33Z</time></trkpt><trkpt lat="43.33577991266039" lon="11.470209925068223"><ele>259.0</ele><time>2026-05-02T16:07:34Z</time></trkpt><trkpt lat="43.33577565217727" lon="11.470036894558238"><ele>258.0</ele><time>2026-05-02T16:07:35Z</time></trkpt><trkpt lat="43.33577680589281" lon="11.469862092498618"><ele>258.0</ele><time>2026-05-02T16:07:36Z</time></trkpt><trkpt lat="43.33574602556595" lon="11.469690155391593"><ele>258.0</ele><time>2026-05-02T16:07:37Z</time></trkpt><trkpt lat="43.335704649525994" lon="11.469526253570791"><ele>258.0</ele><time>2026-05-02T16:07:38Z</time></trkpt><trkpt lat="43.33565539723609" lon="11.46936197714885"><ele>258.0</ele><time>2026-05-02T16:07:39Z</time></trkpt><trkpt lat="43.33559883985827" lon="11.469201353374446"><ele>257.5</ele><time>2026-05-02T16:07:40Z</time></trkpt><trkpt lat="43.33553468983879" lon="11.469053539536317"><ele>257.0</ele><time>2026-05-02T16:07:41Z</time></trkpt><trkpt lat="43.335457711929415" lon="11.468922052781929"><ele>256.5</ele><time>2026-05-02T16:07:42Z</time></trkpt><trkpt lat="43.33537097811892" lon="11.46879752804239"><ele>256.0</ele><time>2026-05-02T16:07:43Z</time></trkpt><trkpt lat="43.33528321566207" lon="11.468668400644548"><ele>256.0</ele><time>2026-05-02T16:07:44Z</time></trkpt><trkpt lat="43.335192488348184" lon="11.468534202383044"><ele>256.0</ele><time>2026-05-02T16:07:45Z</time></trkpt><trkpt lat="43.3351050909607" lon="11.468397983363298"><ele>256.0</ele><time>2026-05-02T16:07:46Z</time></trkpt><trkpt lat="43.33502618860661" lon="11.468257698770358"><ele>256.0</ele><time>2026-05-02T16:07:47Z</time></trkpt><trkpt lat="43.334941491811435" lon="11.468126437572975"><ele>256.0</ele><time>2026-05-02T16:07:48Z</time></trkpt><trkpt lat="43.3348859651386" lon="11.467975383943052"><ele>256.0</ele><time>2026-05-02T16:07:49Z</time></trkpt><trkpt lat="43.33484499309098" lon="11.467842973121792"><ele>256.0</ele><time>2026-05-02T16:07:50Z</time></trkpt><trkpt lat="43.33482633950911" lon="11.467701650243326"><ele>256.0</ele><time>2026-05-02T16:07:51Z</time></trkpt><trkpt lat="43.33480678949982" lon="11.467561811722158"><ele>256.0</ele><time>2026-05-02T16:07:52Z</time></trkpt><trkpt lat="43.3347874927538" lon="11.467408892940908"><ele>256.25</ele><time>2026-05-02T16:07:53Z</time></trkpt><trkpt lat="43.33476735980698" lon="11.467243269481928"><ele>256.5</ele><time>2026-05-02T16:07:54Z</time></trkpt><trkpt lat="43.33474604002858" lon="11.467068977322121"><ele>256.75</ele><time>2026-05-02T16:07:55Z</time></trkpt><trkpt lat="43.33472958498924" lon="11.46689017257418"><ele>257.0</ele><time>2026-05-02T16:07:56Z</time></trkpt><trkpt lat="43.33472401111345" lon="11.46671145010092"><ele>255.0</ele><time>2026-05-02T16:07:57Z</time></trkpt><trkpt lat="43.33473090810136" lon="11.46653346024395"><ele>253.0</ele><time>2026-05-02T16:07:58Z</time></trkpt><trkpt lat="43.334749357711345" lon="11.466355668709927"><ele>251.0</ele><time>2026-05-02T16:07:59Z</time></trkpt><trkpt lat="43.334781076735936" lon="11.46618845885971"><ele>249.0</ele><time>2026-05-02T16:08:00Z</time></trkpt><trkpt lat="43.33482290538521" lon="11.466019132394809"><ele>248.25</ele><time>2026-05-02T16:08:01Z</time></trkpt><trkpt lat="43.334871537185194" lon="11.465847930733489"><ele>247.5</ele><time>2026-05-02T16:08:02Z</time></trkpt><trkpt lat="43.3349204170212" lon="11.465666172355666"><ele>246.75</ele><time>2026-05-02T16:08:03Z</time></trkpt><trkpt lat="43.33497099522925" lon="11.465477930455151"><ele>246.0</ele><time>2026-05-02T16:08:04Z</time></trkpt><trkpt lat="43.33501962346261" lon="11.465283025243437"><ele>245.66666666666669</ele><time>2026-05-02T16:08:05Z</time></trkpt><trkpt lat="43.3350681010067" lon="11.46508949880377"><ele>245.33333333333334</ele><time>2026-05-02T16:08:06Z</time></trkpt><trkpt lat="43.335115553066046" lon="11.464892966014895"><ele>245.0</ele><time>2026-05-02T16:08:07Z</time></trkpt><trkpt lat="43.335163640241326" lon="11.464696902014806"><ele>243.33333333333334</ele><time>2026-05-02T16:08:08Z</time></trkpt><trkpt lat="43.335215498052385" lon="11.46448919764248"><ele>241.66666666666669</ele><time>2026-05-02T16:08:09Z</time></trkpt><trkpt lat="43.335274709831076" lon="11.464274106991846"><ele>240.0</ele><time>2026-05-02T16:08:10Z</time></trkpt><trkpt lat="43.33533440666888" lon="11.464054805071827"><ele>240.0</ele><time>2026-05-02T16:08:11Z</time></trkpt><trkpt lat="43.335396054677595" lon="11.4638346643412"><ele>240.0</ele><time>2026-05-02T16:08:12Z</time></trkpt><trkpt lat="43.335463738594065" lon="11.463622869775145"><ele>240.0</ele><time>2026-05-02T16:08:13Z</time></trkpt><trkpt lat="43.335539835775926" lon="11.463422227645164"><ele>238.66666666666669</ele><time>2026-05-02T16:08:14Z</time></trkpt><trkpt lat="43.33561884899407" lon="11.463228152387247"><ele>237.33333333333334</ele><time>2026-05-02T16:08:15Z</time></trkpt><trkpt lat="43.335694090719294" lon="11.463035309526875"><ele>236.0</ele><time>2026-05-02T16:08:16Z</time></trkpt><trkpt lat="43.33576355840796" lon="11.462842430204358"><ele>238.75</ele><time>2026-05-02T16:08:17Z</time></trkpt><trkpt lat="43.335823014838944" lon="11.462650769897245"><ele>241.5</ele><time>2026-05-02T16:08:18Z</time></trkpt><trkpt lat="43.33588201012211" lon="11.462472674094178"><ele>244.25</ele><time>2026-05-02T16:08:19Z</time></trkpt><trkpt lat="43.3359135357769" lon="11.462280517941357"><ele>247.0</ele><time>2026-05-02T16:08:20Z</time></trkpt><trkpt lat="43.33592981550987" lon="11.462126998721908"><ele>247.66666666666666</ele><time>2026-05-02T16:08:21Z</time></trkpt><trkpt lat="43.33594471293772" lon="11.461931698758653"><ele>248.33333333333331</ele><time>2026-05-02T16:08:22Z</time></trkpt><trkpt lat="43.33594079085811" lon="11.46172321112291"><ele>249.0</ele><time>2026-05-02T16:08:23Z</time></trkpt><trkpt lat="43.335943270328876" lon="11.461493673441879"><ele>247.66666666666669</ele><time>2026-05-02T16:08:24Z</time></trkpt><trkpt lat="43.33594978054852" lon="11.461256321584473"><ele>246.33333333333334</ele><time>2026-05-02T16:08:25Z</time></trkpt><trkpt lat="43.33596116059626" lon="11.461028966545417"><ele>245.0</ele><time>2026-05-02T16:08:26Z</time></trkpt><trkpt lat="43.33599613833209" lon="11.460804734680977"><ele>245.0</ele><time>2026-05-02T16:08:27Z</time></trkpt><trkpt lat="43.33602278233437" lon="11.460574284184753"><ele>245.0</ele><time>2026-05-02T16:08:28Z</time></trkpt><trkpt lat="43.33604104423299" lon="11.460341423587995"><ele>245.0</ele><time>2026-05-02T16:08:29Z</time></trkpt><trkpt lat="43.336072564323686" lon="11.460112293365793"><ele>244.0</ele><time>2026-05-02T16:08:30Z</time></trkpt><trkpt lat="43.33610775235862" lon="11.459883923308043"><ele>243.0</ele><time>2026-05-02T16:08:31Z</time></trkpt><trkpt lat="43.33611571674345" lon="11.459659175717983"><ele>242.0</ele><time>2026-05-02T16:08:32Z</time></trkpt><trkpt lat="43.33610313231379" lon="11.459444497697094"><ele>242.0</ele><time>2026-05-02T16:08:33Z</time></trkpt><trkpt lat="43.33607500780576" lon="11.459251454080931"><ele>242.0</ele><time>2026-05-02T16:08:34Z</time></trkpt><trkpt lat="43.336045943746136" lon="11.45907118212402"><ele>242.0</ele><time>2026-05-02T16:08:35Z</time></trkpt><trkpt lat="43.33602072510868" lon="11.458897762195704"><ele>242.0</ele><time>2026-05-02T16:08:35.999Z</time></trkpt><trkpt lat="43.33603576703761" lon="11.458732756844906"><ele>242.0</ele><time>2026-05-02T16:08:36.999Z</time></trkpt><trkpt lat="43.336092642242946" lon="11.458581707521123"><ele>242.0</ele><time>2026-05-02T16:08:37.999Z</time></trkpt><trkpt lat="43.33614084344066" lon="11.458418097286597"><ele>242.0</ele><time>2026-05-02T16:08:38.999Z</time></trkpt><trkpt lat="43.33618717241994" lon="11.458257785460859"><ele>242.0</ele><time>2026-05-02T16:08:39.999Z</time></trkpt><trkpt lat="43.33622676280608" lon="11.458084995998364"><ele>242.0</ele><time>2026-05-02T16:08:40.999Z</time></trkpt><trkpt lat="43.3362593168928" lon="11.457904481959133"><ele>242.0</ele><time>2026-05-02T16:08:41.999Z</time></trkpt><trkpt lat="43.33629285732932" lon="11.457715867320832"><ele>242.0</ele><time>2026-05-02T16:08:42.999Z</time></trkpt><trkpt lat="43.336335296723846" lon="11.457530342768774"><ele>242.0</ele><time>2026-05-02T16:08:43.999Z</time></trkpt><trkpt lat="43.336366834612086" lon="11.457349007724144"><ele>242.0</ele><time>2026-05-02T16:08:44.999Z</time></trkpt><trkpt lat="43.336384996211166" lon="11.457174751563281"><ele>242.0</ele><time>2026-05-02T16:08:45.999Z</time></trkpt><trkpt lat="43.33638785113444" lon="11.456996797400642"><ele>242.0</ele><time>2026-05-02T16:08:46.999Z</time></trkpt><trkpt lat="43.33636803773427" lon="11.456813054708492"><ele>242.0</ele><time>2026-05-02T16:08:47.999Z</time></trkpt><trkpt lat="43.336348961706825" lon="11.456632956849095"><ele>240.5</ele><time>2026-05-02T16:08:48.999Z</time></trkpt><trkpt lat="43.33633404922987" lon="11.456457102300746"><ele>239.0</ele><time>2026-05-02T16:08:49.999Z</time></trkpt><trkpt lat="43.336329351137" lon="11.456291938474122"><ele>237.5</ele><time>2026-05-02T16:08:50.999Z</time></trkpt><trkpt lat="43.3363417077983" lon="11.456138880300403"><ele>236.0</ele><time>2026-05-02T16:08:51.999Z</time></trkpt><trkpt lat="43.33638310158793" lon="11.455980754893746"><ele>235.25</ele><time>2026-05-02T16:08:52.999Z</time></trkpt><trkpt lat="43.33645534684811" lon="11.45582455798682"><ele>234.5</ele><time>2026-05-02T16:08:53.999Z</time></trkpt><trkpt lat="43.33651675626795" lon="11.455647993246943"><ele>233.75</ele><time>2026-05-02T16:08:54.999Z</time></trkpt><trkpt lat="43.33657779915095" lon="11.455465652115546"><ele>233.0</ele><time>2026-05-02T16:08:55.999Z</time></trkpt><trkpt lat="43.336639626177245" lon="11.455280968518585"><ele>232.5</ele><time>2026-05-02T16:08:56.999Z</time></trkpt><trkpt lat="43.33668383017278" lon="11.455092363779995"><ele>232.0</ele><time>2026-05-02T16:08:57.999Z</time></trkpt><trkpt lat="43.3367442534368" lon="11.454926756683813"><ele>231.5</ele><time>2026-05-02T16:08:58.999Z</time></trkpt><trkpt lat="43.336791354338956" lon="11.454757207273376"><ele>231.0</ele><time>2026-05-02T16:08:59.999Z</time></trkpt><trkpt lat="43.336835405289996" lon="11.454590693053868"><ele>230.75</ele><time>2026-05-02T16:09:00.999Z</time></trkpt><trkpt lat="43.33684312047634" lon="11.454418133480582"><ele>230.5</ele><time>2026-05-02T16:09:01.999Z</time></trkpt><trkpt lat="43.33684606852517" lon="11.454247868489878"><ele>230.25</ele><time>2026-05-02T16:09:02.999Z</time></trkpt><trkpt lat="43.336855218497774" lon="11.45407835279289"><ele>230.0</ele><time>2026-05-02T16:09:03.999Z</time></trkpt><trkpt lat="43.33686570285589" lon="11.453901283575597"><ele>230.25</ele><time>2026-05-02T16:09:04.999Z</time></trkpt><trkpt lat="43.33687631048761" lon="11.453723308170703"><ele>230.5</ele><time>2026-05-02T16:09:05.999Z</time></trkpt><trkpt lat="43.33687575717637" lon="11.453550999551275"><ele>230.75</ele><time>2026-05-02T16:09:06.999Z</time></trkpt><trkpt lat="43.33683062666373" lon="11.45338667703037"><ele>231.0</ele><time>2026-05-02T16:09:07.999Z</time></trkpt><trkpt lat="43.33680065640589" lon="11.453212509921933"><ele>231.0</ele><time>2026-05-02T16:09:08.999Z</time></trkpt><trkpt lat="43.33673750067467" lon="11.45304383008279"><ele>231.0</ele><time>2026-05-02T16:09:09.999Z</time></trkpt><trkpt lat="43.33667427335984" lon="11.452876095678187"><ele>231.0</ele><time>2026-05-02T16:09:10.999Z</time></trkpt><trkpt lat="43.33660743177652" lon="11.452700758588927"><ele>231.0</ele><time>2026-05-02T16:09:12Z</time></trkpt><trkpt lat="43.33653712419896" lon="11.452521952226826"><ele>230.5</ele><time>2026-05-02T16:09:13Z</time></trkpt><trkpt lat="43.33646471474033" lon="11.452342410502093"><ele>230.0</ele><time>2026-05-02T16:09:14Z</time></trkpt><trkpt lat="43.33639325264605" lon="11.452163273624663"><ele>229.5</ele><time>2026-05-02T16:09:15Z</time></trkpt><trkpt lat="43.33632418926665" lon="11.451983766141007"><ele>229.0</ele><time>2026-05-02T16:09:16Z</time></trkpt><trkpt lat="43.336256795747865" lon="11.451805649942479"><ele>227.0</ele><time>2026-05-02T16:09:17Z</time></trkpt><trkpt lat="43.33618839578139" lon="11.451631094486691"><ele>225.0</ele><time>2026-05-02T16:09:18Z</time></trkpt><trkpt lat="43.33611622217953" lon="11.451465019874624"><ele>223.0</ele><time>2026-05-02T16:09:19Z</time></trkpt><trkpt lat="43.336034056759615" lon="11.451310040450595"><ele>221.0</ele><time>2026-05-02T16:09:20Z</time></trkpt><trkpt lat="43.3359259493643" lon="11.451186173539044"><ele>220.75</ele><time>2026-05-02T16:09:21Z</time></trkpt><trkpt lat="43.33580273426611" lon="11.451125736214019"><ele>220.5</ele><time>2026-05-02T16:09:22Z</time></trkpt><trkpt lat="43.3356956325036" lon="11.451058460643905"><ele>220.25</ele><time>2026-05-02T16:09:23Z</time></trkpt><trkpt lat="43.3355967976842" lon="11.450998768243014"><ele>220.0</ele><time>2026-05-02T16:09:24Z</time></trkpt><trkpt lat="43.335520563414676" lon="11.450913858026407"><ele>218.4</ele><time>2026-05-02T16:09:25Z</time></trkpt><trkpt lat="43.335447670722104" lon="11.450843033129809"><ele>216.8</ele><time>2026-05-02T16:09:26Z</time></trkpt><trkpt lat="43.335414028320685" lon="11.450726442721724"><ele>215.2</ele><time>2026-05-02T16:09:27Z</time></trkpt><trkpt lat="43.33542678331745" lon="11.450600382719216"><ele>213.6</ele><time>2026-05-02T16:09:28Z</time></trkpt><trkpt lat="43.33549789246535" lon="11.450495673932942"><ele>212.0</ele><time>2026-05-02T16:09:29Z</time></trkpt><trkpt lat="43.33555707468461" lon="11.450367536445516"><ele>212.0</ele><time>2026-05-02T16:09:30Z</time></trkpt><trkpt lat="43.335635425400405" lon="11.450255762256035"><ele>212.0</ele><time>2026-05-02T16:09:31Z</time></trkpt><trkpt lat="43.335709847505726" lon="11.450145057102837"><ele>212.0</ele><time>2026-05-02T16:09:32Z</time></trkpt><trkpt lat="43.335782644375065" lon="11.450049796122734"><ele>212.0</ele><time>2026-05-02T16:09:33Z</time></trkpt><trkpt lat="43.335865382837916" lon="11.44999712673942"><ele>212.0</ele><time>2026-05-02T16:09:34Z</time></trkpt><trkpt lat="43.33593042203903" lon="11.449924876605161"><ele>212.0</ele><time>2026-05-02T16:09:35Z</time></trkpt><trkpt lat="43.336005614869535" lon="11.449902102645254"><ele>212.0</ele><time>2026-05-02T16:09:36Z</time></trkpt><trkpt lat="43.33608338211879" lon="11.449927463704144"><ele>212.0</ele><time>2026-05-02T16:09:37Z</time></trkpt><trkpt lat="43.33615632548095" lon="11.44992270887208"><ele>212.0</ele><time>2026-05-02T16:09:38Z</time></trkpt><trkpt lat="43.336225330389375" lon="11.449929144292106"><ele>212.0</ele><time>2026-05-02T16:09:39Z</time></trkpt><trkpt lat="43.33629408644802" lon="11.449932827143847"><ele>212.0</ele><time>2026-05-02T16:09:40Z</time></trkpt><trkpt lat="43.336359207277575" lon="11.449887390981067"><ele>212.0</ele><time>2026-05-02T16:09:41Z</time></trkpt><trkpt lat="43.33638824566857" lon="11.44977167729193"><ele>211.66666666666669</ele><time>2026-05-02T16:09:42Z</time></trkpt><trkpt lat="43.33641422922078" lon="11.449674096146842"><ele>211.33333333333334</ele><time>2026-05-02T16:09:43Z</time></trkpt><trkpt lat="43.33644931022497" lon="11.449570869338508"><ele>211.0</ele><time>2026-05-02T16:09:44Z</time></trkpt><trkpt lat="43.33646823235764" lon="11.44945508555766"><ele>210.66666666666669</ele><time>2026-05-02T16:09:45Z</time></trkpt><trkpt lat="43.336486134279674" lon="11.44933092723998"><ele>210.33333333333334</ele><time>2026-05-02T16:09:46Z</time></trkpt><trkpt lat="43.336500816848506" lon="11.449201425359837"><ele>210.0</ele><time>2026-05-02T16:09:47Z</time></trkpt><trkpt lat="43.336507714007496" lon="11.44907676735182"><ele>210.0</ele><time>2026-05-02T16:09:48Z</time></trkpt><trkpt lat="43.33650063531015" lon="11.448944591561999"><ele>210.0</ele><time>2026-05-02T16:09:49Z</time></trkpt><trkpt lat="43.33647395726399" lon="11.448811080382182"><ele>210.0</ele><time>2026-05-02T16:09:50Z</time></trkpt><trkpt lat="43.33643243165688" lon="11.448688290098838"><ele>210.0</ele><time>2026-05-02T16:09:51Z</time></trkpt><trkpt lat="43.336380555081945" lon="11.4485686438777"><ele>210.0</ele><time>2026-05-02T16:09:52Z</time></trkpt><trkpt lat="43.336321768616145" lon="11.44845170074074"><ele>209.5</ele><time>2026-05-02T16:09:53Z</time></trkpt><trkpt lat="43.336261695697246" lon="11.448340494506901"><ele>209.0</ele><time>2026-05-02T16:09:54Z</time></trkpt><trkpt lat="43.336213162639126" lon="11.448237023614773"><ele>208.5</ele><time>2026-05-02T16:09:55Z</time></trkpt><trkpt lat="43.33617117092724" lon="11.44814459000516"><ele>208.0</ele><time>2026-05-02T16:09:56Z</time></trkpt><trkpt lat="43.33614548363421" lon="11.448053336876923"><ele>207.5</ele><time>2026-05-02T16:09:57Z</time></trkpt><trkpt lat="43.33614709512242" lon="11.447956041700984"><ele>207.0</ele><time>2026-05-02T16:09:58Z</time></trkpt><trkpt lat="43.33617974327801" lon="11.447849975256739"><ele>207.0</ele><time>2026-05-02T16:09:59Z</time></trkpt><trkpt lat="43.33621718204852" lon="11.447723885524356"><ele>207.0</ele><time>2026-05-02T16:10:00Z</time></trkpt><trkpt lat="43.336275872730496" lon="11.447601386976574"><ele>207.0</ele><time>2026-05-02T16:10:01Z</time></trkpt><trkpt lat="43.336350798301496" lon="11.447484559533748"><ele>207.0</ele><time>2026-05-02T16:10:02Z</time></trkpt><trkpt lat="43.33639113470757" lon="11.447331405020263"><ele>207.0</ele><time>2026-05-02T16:10:03Z</time></trkpt><trkpt lat="43.33643567647487" lon="11.447180990365286"><ele>207.5</ele><time>2026-05-02T16:10:04Z</time></trkpt><trkpt lat="43.33646082766166" lon="11.447023852872114"><ele>208.0</ele><time>2026-05-02T16:10:05Z</time></trkpt><trkpt lat="43.33646636532766" lon="11.44686548240896"><ele>208.5</ele><time>2026-05-02T16:10:06Z</time></trkpt><trkpt lat="43.336451014735225" lon="11.44671090120184"><ele>209.0</ele><time>2026-05-02T16:10:07Z</time></trkpt><trkpt lat="43.336442436065376" lon="11.446560920297468"><ele>209.0</ele><time>2026-05-02T16:10:08Z</time></trkpt><trkpt lat="43.336409192464764" lon="11.446414370236221"><ele>209.0</ele><time>2026-05-02T16:10:09Z</time></trkpt><trkpt lat="43.336372875401445" lon="11.446271760432639"><ele>209.0</ele><time>2026-05-02T16:10:10Z</time></trkpt><trkpt lat="43.336336190249085" lon="11.446127705002931"><ele>209.0</ele><time>2026-05-02T16:10:11Z</time></trkpt><trkpt lat="43.336300075564374" lon="11.445975142462377"><ele>209.0</ele><time>2026-05-02T16:10:12Z</time></trkpt><trkpt lat="43.33626439480444" lon="11.44582116422915"><ele>210.25</ele><time>2026-05-02T16:10:13Z</time></trkpt><trkpt lat="43.336223954896596" lon="11.445662262013215"><ele>211.5</ele><time>2026-05-02T16:10:14Z</time></trkpt><trkpt lat="43.33615829027807" lon="11.445514371505821"><ele>212.75</ele><time>2026-05-02T16:10:15Z</time></trkpt><trkpt lat="43.33609556508397" lon="11.445370821515404"><ele>214.0</ele><time>2026-05-02T16:10:16Z</time></trkpt><trkpt lat="43.336027518332436" lon="11.445229292353234"><ele>215.75</ele><time>2026-05-02T16:10:17Z</time></trkpt><trkpt lat="43.33596589781867" lon="11.445084193089947"><ele>217.5</ele><time>2026-05-02T16:10:18Z</time></trkpt><trkpt lat="43.33590406554096" lon="11.444938229937783"><ele>219.25</ele><time>2026-05-02T16:10:19Z</time></trkpt><trkpt lat="43.33582487968837" lon="11.444804776203412"><ele>221.0</ele><time>2026-05-02T16:10:20Z</time></trkpt><trkpt lat="43.33575960050603" lon="11.444658929185309"><ele>221.25</ele><time>2026-05-02T16:10:21Z</time></trkpt><trkpt lat="43.33569082567763" lon="11.444516467663178"><ele>221.5</ele><time>2026-05-02T16:10:22Z</time></trkpt><trkpt lat="43.335621375731336" lon="11.444378143515268"><ele>221.75</ele><time>2026-05-02T16:10:23Z</time></trkpt><trkpt lat="43.33555170937396" lon="11.444247287600753"><ele>222.0</ele><time>2026-05-02T16:10:24Z</time></trkpt><trkpt lat="43.335498952289804" lon="11.444116454765124"><ele>222.0</ele><time>2026-05-02T16:10:25Z</time></trkpt><trkpt lat="43.335418847874294" lon="11.44400608897794"><ele>222.0</ele><time>2026-05-02T16:10:26Z</time></trkpt><trkpt lat="43.33536387430262" lon="11.443869133357925"><ele>222.0</ele><time>2026-05-02T16:10:27Z</time></trkpt><trkpt lat="43.33529789676817" lon="11.443749238721605"><ele>222.0</ele><time>2026-05-02T16:10:28Z</time></trkpt><trkpt lat="43.33522645226324" lon="11.443649430554245"><ele>222.0</ele><time>2026-05-02T16:10:29Z</time></trkpt><trkpt lat="43.33518562100056" lon="11.443535273745852"><ele>221.8</ele><time>2026-05-02T16:10:30Z</time></trkpt><trkpt lat="43.33515108567375" lon="11.443416969942406"><ele>221.6</ele><time>2026-05-02T16:10:31Z</time></trkpt><trkpt lat="43.335123135878035" lon="11.443281654294514"><ele>221.40000000000003</ele><time>2026-05-02T16:10:32Z</time></trkpt><trkpt lat="43.33511242109844" lon="11.44313202676525"><ele>221.20000000000002</ele><time>2026-05-02T16:10:33Z</time></trkpt><trkpt lat="43.33512392562239" lon="11.442973671490368"><ele>221.0</ele><time>2026-05-02T16:10:34Z</time></trkpt><trkpt lat="43.3351551081725" lon="11.442811056226297"><ele>218.75</ele><time>2026-05-02T16:10:35Z</time></trkpt><trkpt lat="43.335198187539646" lon="11.442642620495187"><ele>216.5</ele><time>2026-05-02T16:10:35.999Z</time></trkpt><trkpt lat="43.33523998484402" lon="11.442472212061439"><ele>214.25</ele><time>2026-05-02T16:10:36.999Z</time></trkpt><trkpt lat="43.33529223638406" lon="11.442311022282878"><ele>212.0</ele><time>2026-05-02T16:10:37.999Z</time></trkpt><trkpt lat="43.33531854790453" lon="11.44214324785781"><ele>212.0</ele><time>2026-05-02T16:10:38.999Z</time></trkpt><trkpt lat="43.335327281026956" lon="11.441985939116272"><ele>212.0</ele><time>2026-05-02T16:10:39.999Z</time></trkpt><trkpt lat="43.33531103799086" lon="11.441835147325108"><ele>212.0</ele><time>2026-05-02T16:10:40.999Z</time></trkpt><trkpt lat="43.33526783489558" lon="11.441694458274393"><ele>212.0</ele><time>2026-05-02T16:10:41.999Z</time></trkpt><trkpt lat="43.33521189508107" lon="11.441559442125616"><ele>212.0</ele><time>2026-05-02T16:10:42.999Z</time></trkpt><trkpt lat="43.33516433462523" lon="11.441416439788307"><ele>212.0</ele><time>2026-05-02T16:10:43.999Z</time></trkpt><trkpt lat="43.335131457962234" lon="11.44126402382386"><ele>212.0</ele><time>2026-05-02T16:10:44.999Z</time></trkpt><trkpt lat="43.335133110327924" lon="11.441107362378197"><ele>212.0</ele><time>2026-05-02T16:10:45.999Z</time></trkpt><trkpt lat="43.335128480412465" lon="11.44095416264289"><ele>213.39999999999998</ele><time>2026-05-02T16:10:46.999Z</time></trkpt><trkpt lat="43.33513551381789" lon="11.44080312644855"><ele>214.79999999999998</ele><time>2026-05-02T16:10:47.999Z</time></trkpt><trkpt lat="43.33514526169184" lon="11.440655259090168"><ele>216.2</ele><time>2026-05-02T16:10:48.999Z</time></trkpt><trkpt lat="43.335132426182525" lon="11.44051591607298"><ele>217.6</ele><time>2026-05-02T16:10:49.999Z</time></trkpt><trkpt lat="43.33511266668162" lon="11.440378710033261"><ele>219.0</ele><time>2026-05-02T16:10:50.999Z</time></trkpt><trkpt lat="43.335078442011195" lon="11.440244107490123"><ele>220.0</ele><time>2026-05-02T16:10:51.999Z</time></trkpt><trkpt lat="43.33504036174272" lon="11.440116879180506"><ele>220.99999999999997</ele><time>2026-05-02T16:10:52.999Z</time></trkpt><trkpt lat="43.3350020744684" lon="11.43999461890669"><ele>221.99999999999997</ele><time>2026-05-02T16:10:53.999Z</time></trkpt><trkpt lat="43.33495944839357" lon="11.43986678930648"><ele>223.0</ele><time>2026-05-02T16:10:54.999Z</time></trkpt><trkpt lat="43.33491298758144" lon="11.439740973597752"><ele>224.0</ele><time>2026-05-02T16:10:55.999Z</time></trkpt><trkpt lat="43.33486047760481" lon="11.439617189035735"><ele>224.0</ele><time>2026-05-02T16:10:56.999Z</time></trkpt><trkpt lat="43.334791155845174" lon="11.439508063174037"><ele>223.99999999999997</ele><time>2026-05-02T16:10:57.999Z</time></trkpt><trkpt lat="43.33473059314824" lon="11.43938040120003"><ele>223.99999999999997</ele><time>2026-05-02T16:10:58.999Z</time></trkpt><trkpt lat="43.33467316554304" lon="11.439252706634562"><ele>224.0</ele><time>2026-05-02T16:10:59.999Z</time></trkpt><trkpt lat="43.33460714842027" lon="11.439124948284183"><ele>224.0</ele><time>2026-05-02T16:11:00.999Z</time></trkpt><trkpt lat="43.33454490934392" lon="11.439005629002255"><ele>225.6</ele><time>2026-05-02T16:11:01.999Z</time></trkpt><trkpt lat="43.33448771454936" lon="11.43889568616869"><ele>227.2</ele><time>2026-05-02T16:11:02.999Z</time></trkpt><trkpt lat="43.334425032861674" lon="11.438808301424821"><ele>228.79999999999998</ele><time>2026-05-02T16:11:03.999Z</time></trkpt><trkpt lat="43.33434814586274" lon="11.43875033858771"><ele>230.39999999999998</ele><time>2026-05-02T16:11:04.999Z</time></trkpt><trkpt lat="43.33425445172716" lon="11.43871213579419"><ele>232.0</ele><time>2026-05-02T16:11:05.999Z</time></trkpt><trkpt lat="43.33415409541333" lon="11.438681138122565"><ele>232.0</ele><time>2026-05-02T16:11:06.999Z</time></trkpt><trkpt lat="43.33405335862907" lon="11.438636723828381"><ele>232.0</ele><time>2026-05-02T16:11:07.999Z</time></trkpt><trkpt lat="43.333963336186734" lon="11.43857159320603"><ele>232.0</ele><time>2026-05-02T16:11:08.999Z</time></trkpt><trkpt lat="43.33388021814344" lon="11.43848909409845"><ele>232.0</ele><time>2026-05-02T16:11:09.999Z</time></trkpt><trkpt lat="43.333807054439056" lon="11.438390084396342"><ele>232.0</ele><time>2026-05-02T16:11:10.999Z</time></trkpt><trkpt lat="43.333745444568336" lon="11.438272582456726"><ele>232.8</ele><time>2026-05-02T16:11:11.999Z</time></trkpt><trkpt lat="43.33370159167032" lon="11.438136502985063"><ele>233.6</ele><time>2026-05-02T16:11:12.999Z</time></trkpt><trkpt lat="43.33367711653956" lon="11.437989878115308"><ele>234.40000000000003</ele><time>2026-05-02T16:11:13.999Z</time></trkpt><trkpt lat="43.333666957244645" lon="11.437844044563708"><ele>235.20000000000002</ele><time>2026-05-02T16:11:14.999Z</time></trkpt><trkpt lat="43.333661241148164" lon="11.437711212633804"><ele>236.0</ele><time>2026-05-02T16:11:15.999Z</time></trkpt><trkpt lat="43.33365476661215" lon="11.437585461086071"><ele>236.66666666666669</ele><time>2026-05-02T16:11:16.999Z</time></trkpt><trkpt lat="43.33365210897111" lon="11.43746683381888"><ele>237.33333333333334</ele><time>2026-05-02T16:11:18Z</time></trkpt><trkpt lat="43.333651795532674" lon="11.43735674575937"><ele>238.0</ele><time>2026-05-02T16:11:19Z</time></trkpt><trkpt lat="43.33364704974162" lon="11.437249184929453"><ele>238.66666666666669</ele><time>2026-05-02T16:11:20Z</time></trkpt><trkpt lat="43.333636328771014" lon="11.437147406712512"><ele>239.33333333333334</ele><time>2026-05-02T16:11:21Z</time></trkpt><trkpt lat="43.333636577204416" lon="11.43702777775689"><ele>240.0</ele><time>2026-05-02T16:11:22Z</time></trkpt><trkpt lat="43.33362064850613" lon="11.43690408254903"><ele>240.4</ele><time>2026-05-02T16:11:23Z</time></trkpt><trkpt lat="43.33360229650507" lon="11.43677678232988"><ele>240.8</ele><time>2026-05-02T16:11:24Z</time></trkpt><trkpt lat="43.33358197489005" lon="11.43664666955453"><ele>241.2</ele><time>2026-05-02T16:11:25Z</time></trkpt><trkpt lat="43.333561377027785" lon="11.436509855552046"><ele>241.6</ele><time>2026-05-02T16:11:26Z</time></trkpt><trkpt lat="43.333532598685345" lon="11.436378982357624"><ele>242.0</ele><time>2026-05-02T16:11:27Z</time></trkpt><trkpt lat="43.33353606156972" lon="11.43624177745374"><ele>242.0</ele><time>2026-05-02T16:11:28Z</time></trkpt><trkpt lat="43.333524645738166" lon="11.436096887832608"><ele>242.0</ele><time>2026-05-02T16:11:29Z</time></trkpt><trkpt lat="43.33351378558507" lon="11.43594179048892"><ele>242.0</ele><time>2026-05-02T16:11:30Z</time></trkpt><trkpt lat="43.333508229964934" lon="11.435793532706215"><ele>242.0</ele><time>2026-05-02T16:11:31Z</time></trkpt><trkpt lat="43.333513831606645" lon="11.43566394162389"><ele>242.0</ele><time>2026-05-02T16:11:32Z</time></trkpt><trkpt lat="43.33353494409577" lon="11.435546148295462"><ele>241.39999999999998</ele><time>2026-05-02T16:11:33Z</time></trkpt><trkpt lat="43.333573804857394" lon="11.435424295165875"><ele>240.79999999999998</ele><time>2026-05-02T16:11:34Z</time></trkpt><trkpt lat="43.333623317456265" lon="11.43529652665083"><ele>240.2</ele><time>2026-05-02T16:11:35Z</time></trkpt><trkpt lat="43.333682766563314" lon="11.435167386845736"><ele>239.6</ele><time>2026-05-02T16:11:36Z</time></trkpt><trkpt lat="43.33373578695701" lon="11.435019399378323"><ele>239.0</ele><time>2026-05-02T16:11:37Z</time></trkpt><trkpt lat="43.3337762420117" lon="11.434860019971138"><ele>239.0</ele><time>2026-05-02T16:11:38Z</time></trkpt><trkpt lat="43.3338028073788" lon="11.434701442094129"><ele>238.99999999999997</ele><time>2026-05-02T16:11:39Z</time></trkpt><trkpt lat="43.33384165238057" lon="11.434553464875682"><ele>238.99999999999997</ele><time>2026-05-02T16:11:40Z</time></trkpt><trkpt lat="43.333873565938156" lon="11.434415307578746"><ele>239.0</ele><time>2026-05-02T16:11:41Z</time></trkpt><trkpt lat="43.33388903319742" lon="11.434291635772341"><ele>239.0</ele><time>2026-05-02T16:11:42Z</time></trkpt><trkpt lat="43.33388566377597" lon="11.434170511927453"><ele>239.79999999999998</ele><time>2026-05-02T16:11:43Z</time></trkpt><trkpt lat="43.3338621586949" lon="11.434045864131294"><ele>240.59999999999997</ele><time>2026-05-02T16:11:44Z</time></trkpt><trkpt lat="43.3338229647838" lon="11.43392824603997"><ele>241.4</ele><time>2026-05-02T16:11:45Z</time></trkpt><trkpt lat="43.33377338247406" lon="11.433822550699722"><ele>242.2</ele><time>2026-05-02T16:11:46Z</time></trkpt><trkpt lat="43.333718104096135" lon="11.43371837849664"><ele>243.0</ele><time>2026-05-02T16:11:47Z</time></trkpt><trkpt lat="43.33366771356216" lon="11.4336139020824"><ele>244.4</ele><time>2026-05-02T16:11:48Z</time></trkpt><trkpt lat="43.33362112897336" lon="11.433515632692515"><ele>245.8</ele><time>2026-05-02T16:11:49Z</time></trkpt><trkpt lat="43.33356083290106" lon="11.433382952661203"><ele>247.2</ele><time>2026-05-02T16:11:51Z</time></trkpt><trkpt lat="43.33353215066026" lon="11.43328389034915"><ele>248.6</ele><time>2026-05-02T16:11:53Z</time></trkpt><trkpt lat="43.33367264645906" lon="11.433214247252575"><ele>250.0</ele><time>2026-05-02T16:11:55Z</time></trkpt><trkpt lat="43.33376787193249" lon="11.433143212316155"><ele>250.0</ele><time>2026-05-02T16:11:56Z</time></trkpt><trkpt lat="43.33387627885721" lon="11.433090185675766"><ele>250.0</ele><time>2026-05-02T16:11:57Z</time></trkpt><trkpt lat="43.333999633640914" lon="11.433024016641923"><ele>250.0</ele><time>2026-05-02T16:11:58Z</time></trkpt><trkpt lat="43.33413452353015" lon="11.432950948434327"><ele>250.0</ele><time>2026-05-02T16:11:59Z</time></trkpt><trkpt lat="43.33427323589645" lon="11.432874890429593"><ele>250.33333333333331</ele><time>2026-05-02T16:12:00Z</time></trkpt><trkpt lat="43.3344186174452" lon="11.432794594310685"><ele>250.66666666666669</ele><time>2026-05-02T16:12:01Z</time></trkpt><trkpt lat="43.33457143143843" lon="11.432711909906246"><ele>251.0</ele><time>2026-05-02T16:12:02Z</time></trkpt><trkpt lat="43.33472821736557" lon="11.432626935355202"><ele>251.33333333333334</ele><time>2026-05-02T16:12:03Z</time></trkpt><trkpt lat="43.33488844299545" lon="11.432541234894451"><ele>251.66666666666669</ele><time>2026-05-02T16:12:04Z</time></trkpt><trkpt lat="43.33505086561957" lon="11.432452414959476"><ele>252.0</ele><time>2026-05-02T16:12:05Z</time></trkpt><trkpt lat="43.33521047412894" lon="11.432363502938887"><ele>252.0</ele><time>2026-05-02T16:12:06Z</time></trkpt><trkpt lat="43.33536758362506" lon="11.432271937891102"><ele>252.0</ele><time>2026-05-02T16:12:07Z</time></trkpt><trkpt lat="43.33552469925495" lon="11.432179233997605"><ele>252.0</ele><time>2026-05-02T16:12:08Z</time></trkpt><trkpt lat="43.33568187705706" lon="11.432087570915542"><ele>253.33333333333331</ele><time>2026-05-02T16:12:09Z</time></trkpt><trkpt lat="43.335840233711195" lon="11.431997117799199"><ele>254.66666666666666</ele><time>2026-05-02T16:12:10Z</time></trkpt><trkpt lat="43.33600068092544" lon="11.431906956923616"><ele>256.0</ele><time>2026-05-02T16:12:11Z</time></trkpt><trkpt lat="43.33616366330763" lon="11.431815288446252"><ele>256.0</ele><time>2026-05-02T16:12:12Z</time></trkpt><trkpt lat="43.336329107827495" lon="11.431722879044639"><ele>256.0</ele><time>2026-05-02T16:12:13Z</time></trkpt><trkpt lat="43.33649855659443" lon="11.431630927921324"><ele>256.0</ele><time>2026-05-02T16:12:14Z</time></trkpt><trkpt lat="43.336671552014586" lon="11.431541221184839"><ele>254.66666666666666</ele><time>2026-05-02T16:12:15Z</time></trkpt><trkpt lat="43.3368468674192" lon="11.431459674696939"><ele>253.33333333333331</ele><time>2026-05-02T16:12:16Z</time></trkpt><trkpt lat="43.33702830149588" lon="11.431405058479166"><ele>252.0</ele><time>2026-05-02T16:12:17Z</time></trkpt><trkpt lat="43.337215475090936" lon="11.431387384688476"><ele>250.66666666666669</ele><time>2026-05-02T16:12:18Z</time></trkpt><trkpt lat="43.33740263967282" lon="11.431397413703325"><ele>249.33333333333334</ele><time>2026-05-02T16:12:19Z</time></trkpt><trkpt lat="43.33759093052007" lon="11.431404461257397"><ele>248.0</ele><time>2026-05-02T16:12:20Z</time></trkpt><trkpt lat="43.33778070022067" lon="11.431399853319846"><ele>248.0</ele><time>2026-05-02T16:12:21Z</time></trkpt><trkpt lat="43.337971977685754" lon="11.431402734942619"><ele>248.0</ele><time>2026-05-02T16:12:22Z</time></trkpt><trkpt lat="43.33816218980791" lon="11.431421247033413"><ele>248.0</ele><time>2026-05-02T16:12:23Z</time></trkpt><trkpt lat="43.33834267867806" lon="11.431479145873217"><ele>248.66666666666669</ele><time>2026-05-02T16:12:24Z</time></trkpt><trkpt lat="43.33850565353663" lon="11.431600564096836"><ele>249.33333333333331</ele><time>2026-05-02T16:12:25Z</time></trkpt><trkpt lat="43.33866046414046" lon="11.431762480504114"><ele>250.0</ele><time>2026-05-02T16:12:26Z</time></trkpt><trkpt lat="43.33881887256942" lon="11.431943539978777"><ele>250.0</ele><time>2026-05-02T16:12:27Z</time></trkpt><trkpt lat="43.3389788585026" lon="11.432127730158792"><ele>250.0</ele><time>2026-05-02T16:12:28Z</time></trkpt><trkpt lat="43.339136040147174" lon="11.432313785743085"><ele>250.0</ele><time>2026-05-02T16:12:29Z</time></trkpt><trkpt lat="43.33928198112851" lon="11.432508919711198"><ele>250.0</ele><time>2026-05-02T16:12:30Z</time></trkpt><trkpt lat="43.33940709670304" lon="11.432723048219847"><ele>250.0</ele><time>2026-05-02T16:12:31Z</time></trkpt><trkpt lat="43.339518245540795" lon="11.432956221245908"><ele>250.0</ele><time>2026-05-02T16:12:32Z</time></trkpt><trkpt lat="43.33961844067931" lon="11.433193811324522"><ele>249.66666666666666</ele><time>2026-05-02T16:12:33Z</time></trkpt><trkpt lat="43.339713277287004" lon="11.433426876501631"><ele>249.33333333333331</ele><time>2026-05-02T16:12:34Z</time></trkpt><trkpt lat="43.339807341595524" lon="11.43365503847474"><ele>249.0</ele><time>2026-05-02T16:12:35Z</time></trkpt><trkpt lat="43.33990270891111" lon="11.433874321633237"><ele>249.0</ele><time>2026-05-02T16:12:35.999Z</time></trkpt><trkpt lat="43.33999415996295" lon="11.434084479332842"><ele>249.0</ele><time>2026-05-02T16:12:36.999Z</time></trkpt><trkpt lat="43.340085007298086" lon="11.434274824018702"><ele>249.0</ele><time>2026-05-02T16:12:37.999Z</time></trkpt><trkpt lat="43.34018542090236" lon="11.434435159361895"><ele>249.0</ele><time>2026-05-02T16:12:38.999Z</time></trkpt><trkpt lat="43.34030168599312" lon="11.434555296611416"><ele>249.0</ele><time>2026-05-02T16:12:39.999Z</time></trkpt><trkpt lat="43.340437716345654" lon="11.434622912403812"><ele>249.0</ele><time>2026-05-02T16:12:40.999Z</time></trkpt><trkpt lat="43.3405893240147" lon="11.43464930088713"><ele>249.0</ele><time>2026-05-02T16:12:41.999Z</time></trkpt><trkpt lat="43.340751902788135" lon="11.434622637980953"><ele>247.66666666666669</ele><time>2026-05-02T16:12:42.999Z</time></trkpt><trkpt lat="43.340920457634155" lon="11.434563326902055"><ele>246.33333333333334</ele><time>2026-05-02T16:12:43.999Z</time></trkpt><trkpt lat="43.34109314764782" lon="11.43450096510437"><ele>245.0</ele><time>2026-05-02T16:12:44.999Z</time></trkpt><trkpt lat="43.34127324928091" lon="11.434438214531996"><ele>245.33333333333334</ele><time>2026-05-02T16:12:45.999Z</time></trkpt><trkpt lat="43.34145663787418" lon="11.434371743363442"><ele>245.66666666666669</ele><time>2026-05-02T16:12:46.999Z</time></trkpt><trkpt lat="43.34164490539867" lon="11.434308710338463"><ele>246.0</ele><time>2026-05-02T16:12:47.999Z</time></trkpt><trkpt lat="43.341837240337796" lon="11.434247102336373"><ele>246.0</ele><time>2026-05-02T16:12:48.999Z</time></trkpt><trkpt lat="43.34203321747231" lon="11.434183857837798"><ele>246.0</ele><time>2026-05-02T16:12:49.999Z</time></trkpt><trkpt lat="43.34223009472316" lon="11.434115367495568"><ele>246.0</ele><time>2026-05-02T16:12:50.999Z</time></trkpt><trkpt lat="43.3424276031475" lon="11.434049473794307"><ele>246.33333333333331</ele><time>2026-05-02T16:12:51.999Z</time></trkpt><trkpt lat="43.342614381420816" lon="11.433985402715805"><ele>246.66666666666666</ele><time>2026-05-02T16:12:52.999Z</time></trkpt><trkpt lat="43.34278710427623" lon="11.433924577099214"><ele>247.0</ele><time>2026-05-02T16:12:53.999Z</time></trkpt><trkpt lat="43.34294820395281" lon="11.433881593934725"><ele>248.25</ele><time>2026-05-02T16:12:54.999Z</time></trkpt><trkpt lat="43.34310010246111" lon="11.433874589497332"><ele>249.5</ele><time>2026-05-02T16:12:55.999Z</time></trkpt><trkpt lat="43.34324173318367" lon="11.433911506849443"><ele>250.75</ele><time>2026-05-02T16:12:56.999Z</time></trkpt><trkpt lat="43.343368471676015" lon="11.43400375399781"><ele>252.0</ele><time>2026-05-02T16:12:57.999Z</time></trkpt><trkpt lat="43.343480051018965" lon="11.434144145712699"><ele>252.0</ele><time>2026-05-02T16:12:58.999Z</time></trkpt><trkpt lat="43.34358626625277" lon="11.434300711016645"><ele>252.0</ele><time>2026-05-02T16:12:59.999Z</time></trkpt><trkpt lat="43.34369262011545" lon="11.434461321804113"><ele>252.0</ele><time>2026-05-02T16:13:00.999Z</time></trkpt><trkpt lat="43.34379790304999" lon="11.434626068759579"><ele>254.0</ele><time>2026-05-02T16:13:01.999Z</time></trkpt><trkpt lat="43.34390775711248" lon="11.434788379930048"><ele>256.0</ele><time>2026-05-02T16:13:02.999Z</time></trkpt><trkpt lat="43.344024385683035" lon="11.434945851850172"><ele>258.0</ele><time>2026-05-02T16:13:03.999Z</time></trkpt><trkpt lat="43.344150123865" lon="11.43509731568074"><ele>258.0</ele><time>2026-05-02T16:13:04.999Z</time></trkpt><trkpt lat="43.34427930816462" lon="11.43524340494513"><ele>258.0</ele><time>2026-05-02T16:13:05.999Z</time></trkpt><trkpt lat="43.344412377508256" lon="11.435382317937592"><ele>258.0</ele><time>2026-05-02T16:13:06.999Z</time></trkpt><trkpt lat="43.34455125407155" lon="11.435504275864504"><ele>258.6666666666667</ele><time>2026-05-02T16:13:07.999Z</time></trkpt><trkpt lat="43.34469464412889" lon="11.435587915407298"><ele>259.33333333333337</ele><time>2026-05-02T16:13:08.999Z</time></trkpt><trkpt lat="43.34484594154444" lon="11.435621320345264"><ele>260.0</ele><time>2026-05-02T16:13:09.999Z</time></trkpt><trkpt lat="43.345007401128846" lon="11.435627771606274"><ele>260.33333333333337</ele><time>2026-05-02T16:13:10.999Z</time></trkpt><trkpt lat="43.34517373439795" lon="11.435626356658943"><ele>260.6666666666667</ele><time>2026-05-02T16:13:11.999Z</time></trkpt><trkpt lat="43.34533872865977" lon="11.435628966782668"><ele>261.0</ele><time>2026-05-02T16:13:12.999Z</time></trkpt><trkpt lat="43.34550261383188" lon="11.435628379786333"><ele>262.25</ele><time>2026-05-02T16:13:13.999Z</time></trkpt><trkpt lat="43.34565559750938" lon="11.435629869559074"><ele>263.5</ele><time>2026-05-02T16:13:14.999Z</time></trkpt><trkpt lat="43.34579604199824" lon="11.435667023296341"><ele>264.75</ele><time>2026-05-02T16:13:15.999Z</time></trkpt><trkpt lat="43.345909970803305" lon="11.435769590851804"><ele>266.0</ele><time>2026-05-02T16:13:16.999Z</time></trkpt><trkpt lat="43.34603966604787" lon="11.435865606588921"><ele>266.0</ele><time>2026-05-02T16:13:17.999Z</time></trkpt><trkpt lat="43.34615974198101" lon="11.435985605569153"><ele>266.0</ele><time>2026-05-02T16:13:18.999Z</time></trkpt><trkpt lat="43.346286986863454" lon="11.436092375688798"><ele>266.0</ele><time>2026-05-02T16:13:19.999Z</time></trkpt><trkpt lat="43.34641534120613" lon="11.436195089442181"><ele>266.0</ele><time>2026-05-02T16:13:20.999Z</time></trkpt><trkpt lat="43.34653663979564" lon="11.436309117533492"><ele>265.33333333333337</ele><time>2026-05-02T16:13:21.999Z</time></trkpt><trkpt lat="43.34664929908176" lon="11.436442396125521"><ele>264.6666666666667</ele><time>2026-05-02T16:13:22.999Z</time></trkpt><trkpt lat="43.34675534391762" lon="11.436595450446212"><ele>264.0</ele><time>2026-05-02T16:13:24Z</time></trkpt><trkpt lat="43.34685674462391" lon="11.436759693671679"><ele>264.0</ele><time>2026-05-02T16:13:25Z</time></trkpt><trkpt lat="43.346943825681485" lon="11.436946031118676"><ele>264.0</ele><time>2026-05-02T16:13:26Z</time></trkpt><trkpt lat="43.34704271367837" lon="11.437119801107514"><ele>264.0</ele><time>2026-05-02T16:13:27Z</time></trkpt><trkpt lat="43.34714500127295" lon="11.437293878188813"><ele>262.3333333333333</ele><time>2026-05-02T16:13:28Z</time></trkpt><trkpt lat="43.34724614752184" lon="11.43746726350208"><ele>260.66666666666663</ele><time>2026-05-02T16:13:29Z</time></trkpt><trkpt lat="43.34734467307413" lon="11.4376414017426"><ele>259.0</ele><time>2026-05-02T16:13:30Z</time></trkpt><trkpt lat="43.34744343496566" lon="11.437812313101405"><ele>259.0</ele><time>2026-05-02T16:13:31Z</time></trkpt><trkpt lat="43.347541929218224" lon="11.437981623987108"><ele>259.0</ele><time>2026-05-02T16:13:32Z</time></trkpt><trkpt lat="43.3476499772885" lon="11.438129956806506"><ele>259.0</ele><time>2026-05-02T16:13:33Z</time></trkpt><trkpt lat="43.34774730227999" lon="11.438293995532774"><ele>259.0</ele><time>2026-05-02T16:13:34Z</time></trkpt><trkpt lat="43.347894039137586" lon="11.438384395646828"><ele>259.0</ele><time>2026-05-02T16:13:35Z</time></trkpt><trkpt lat="43.34804498206097" lon="11.438445071328548"><ele>259.0</ele><time>2026-05-02T16:13:36Z</time></trkpt><trkpt lat="43.348201705971434" lon="11.438480707885223"><ele>257.66666666666663</ele><time>2026-05-02T16:13:37Z</time></trkpt><trkpt lat="43.348361933180826" lon="11.43850163467373"><ele>256.3333333333333</ele><time>2026-05-02T16:13:38Z</time></trkpt><trkpt lat="43.34852278829911" lon="11.438520929957525"><ele>255.0</ele><time>2026-05-02T16:13:39Z</time></trkpt><trkpt lat="43.34868274341416" lon="11.438543024590725"><ele>255.0</ele><time>2026-05-02T16:13:40Z</time></trkpt><trkpt lat="43.348842623294544" lon="11.438567516717258"><ele>255.0</ele><time>2026-05-02T16:13:41Z</time></trkpt><trkpt lat="43.348998822744406" lon="11.43859618515715"><ele>255.0</ele><time>2026-05-02T16:13:42Z</time></trkpt><trkpt lat="43.34914928968886" lon="11.438628585863347"><ele>255.0</ele><time>2026-05-02T16:13:43Z</time></trkpt><trkpt lat="43.349286446313556" lon="11.438681394990622"><ele>255.0</ele><time>2026-05-02T16:13:44Z</time></trkpt><trkpt lat="43.34941117143813" lon="11.438763456681011"><ele>255.0</ele><time>2026-05-02T16:13:45Z</time></trkpt><trkpt lat="43.349522736775654" lon="11.438890547351539"><ele>255.0</ele><time>2026-05-02T16:13:46Z</time></trkpt><trkpt lat="43.349615621987844" lon="11.439057428336547"><ele>253.66666666666669</ele><time>2026-05-02T16:13:47Z</time></trkpt><trkpt lat="43.349700838444264" lon="11.439242065535632"><ele>252.33333333333334</ele><time>2026-05-02T16:13:48Z</time></trkpt><trkpt lat="43.34979085634806" lon="11.439432029045582"><ele>251.0</ele><time>2026-05-02T16:13:49Z</time></trkpt><trkpt lat="43.349893862178774" lon="11.43961145404535"><ele>249.66666666666669</ele><time>2026-05-02T16:13:50Z</time></trkpt><trkpt lat="43.35001321862911" lon="11.43977077972494"><ele>248.33333333333331</ele><time>2026-05-02T16:13:51Z</time></trkpt><trkpt lat="43.350149815571044" lon="11.439903564371157"><ele>247.0</ele><time>2026-05-02T16:13:52Z</time></trkpt><trkpt lat="43.35029023967233" lon="11.440010906860605"><ele>247.0</ele><time>2026-05-02T16:13:53Z</time></trkpt><trkpt lat="43.35043538788024" lon="11.44008119339595"><ele>247.0</ele><time>2026-05-02T16:13:54Z</time></trkpt><trkpt lat="43.3505862035575" lon="11.44012849016043"><ele>247.0</ele><time>2026-05-02T16:13:55Z</time></trkpt><trkpt lat="43.35074161404796" lon="11.440138032282096"><ele>247.33333333333331</ele><time>2026-05-02T16:13:56Z</time></trkpt><trkpt lat="43.35089694717841" lon="11.440110419712937"><ele>247.66666666666669</ele><time>2026-05-02T16:13:57Z</time></trkpt><trkpt lat="43.35104926732859" lon="11.440055073025658"><ele>248.0</ele><time>2026-05-02T16:13:58Z</time></trkpt><trkpt lat="43.35119520785089" lon="11.439963709832465"><ele>248.0</ele><time>2026-05-02T16:13:59Z</time></trkpt><trkpt lat="43.351335486989456" lon="11.439847634078223"><ele>248.0</ele><time>2026-05-02T16:14:00Z</time></trkpt><trkpt lat="43.35147656040148" lon="11.439727477887212"><ele>248.0</ele><time>2026-05-02T16:14:01Z</time></trkpt><trkpt lat="43.351620733471435" lon="11.439612894579284"><ele>249.0</ele><time>2026-05-02T16:14:02Z</time></trkpt><trkpt lat="43.351768575211196" lon="11.43950963436149"><ele>250.0</ele><time>2026-05-02T16:14:03Z</time></trkpt><trkpt lat="43.3519210389912" lon="11.439428763320532"><ele>251.0</ele><time>2026-05-02T16:14:04Z</time></trkpt><trkpt lat="43.352079014286744" lon="11.439384616006596"><ele>252.75</ele><time>2026-05-02T16:14:05Z</time></trkpt><trkpt lat="43.352228054894795" lon="11.439354992387429"><ele>254.5</ele><time>2026-05-02T16:14:06Z</time></trkpt><trkpt lat="43.352353091537516" lon="11.439296723668884"><ele>256.25</ele><time>2026-05-02T16:14:07Z</time></trkpt><trkpt lat="43.352462879448254" lon="11.439175144829838"><ele>258.0</ele><time>2026-05-02T16:14:08Z</time></trkpt><trkpt lat="43.35256786941796" lon="11.439023801047263"><ele>258.0</ele><time>2026-05-02T16:14:09Z</time></trkpt><trkpt lat="43.35268371536563" lon="11.438886281735726"><ele>258.0</ele><time>2026-05-02T16:14:10Z</time></trkpt><trkpt lat="43.35280699833418" lon="11.438762590879405"><ele>258.0</ele><time>2026-05-02T16:14:11Z</time></trkpt><trkpt lat="43.352933127832806" lon="11.43864846210246"><ele>260.3333333333333</ele><time>2026-05-02T16:14:12Z</time></trkpt><trkpt lat="43.35306713195083" lon="11.438548115058481"><ele>262.66666666666663</ele><time>2026-05-02T16:14:13Z</time></trkpt><trkpt lat="43.35320333521017" lon="11.438462027510122"><ele>265.0</ele><time>2026-05-02T16:14:14Z</time></trkpt><trkpt lat="43.35334370913601" lon="11.438395678795194"><ele>265.0</ele><time>2026-05-02T16:14:15Z</time></trkpt><trkpt lat="43.35349093911444" lon="11.438355274005463"><ele>265.0</ele><time>2026-05-02T16:14:16Z</time></trkpt><trkpt lat="43.35364090506761" lon="11.438320544137703"><ele>265.0</ele><time>2026-05-02T16:14:17Z</time></trkpt><trkpt lat="43.35379509396199" lon="11.438283316246029"><ele>265.3333333333333</ele><time>2026-05-02T16:14:18Z</time></trkpt><trkpt lat="43.35394793842" lon="11.438242219729412"><ele>265.6666666666667</ele><time>2026-05-02T16:14:19Z</time></trkpt><trkpt lat="43.35409760759186" lon="11.438201261323854"><ele>266.0</ele><time>2026-05-02T16:14:20Z</time></trkpt><trkpt lat="43.35424331849014" lon="11.438163109226993"><ele>266.0</ele><time>2026-05-02T16:14:21Z</time></trkpt><trkpt lat="43.35438890620352" lon="11.43813843782278"><ele>266.0</ele><time>2026-05-02T16:14:22Z</time></trkpt><trkpt lat="43.35453967032251" lon="11.438131751560231"><ele>266.0</ele><time>2026-05-02T16:14:23Z</time></trkpt><trkpt lat="43.35469087864673" lon="11.438134864129445"><ele>266.0</ele><time>2026-05-02T16:14:24Z</time></trkpt><trkpt lat="43.35483633808112" lon="11.438148946046997"><ele>266.5</ele><time>2026-05-02T16:14:25Z</time></trkpt><trkpt lat="43.35497786459583" lon="11.438174170113157"><ele>267.0</ele><time>2026-05-02T16:14:26Z</time></trkpt><trkpt lat="43.35511820372939" lon="11.438205624234513"><ele>267.5</ele><time>2026-05-02T16:14:27Z</time></trkpt><trkpt lat="43.3552590152007" lon="11.438236003294948"><ele>268.0</ele><time>2026-05-02T16:14:28Z</time></trkpt><trkpt lat="43.35540030595959" lon="11.43826849672507"><ele>267.5</ele><time>2026-05-02T16:14:29Z</time></trkpt><trkpt lat="43.35554166742648" lon="11.438298400494848"><ele>267.0</ele><time>2026-05-02T16:14:30Z</time></trkpt><trkpt lat="43.35568252301668" lon="11.438329101879148"><ele>266.5</ele><time>2026-05-02T16:14:31Z</time></trkpt><trkpt lat="43.35582057555699" lon="11.438360100457789"><ele>266.0</ele><time>2026-05-02T16:14:32Z</time></trkpt><trkpt lat="43.355957236254724" lon="11.438388373277085"><ele>266.0</ele><time>2026-05-02T16:14:33Z</time></trkpt><trkpt lat="43.356094449740404" lon="11.438416096995557"><ele>266.0</ele><time>2026-05-02T16:14:34Z</time></trkpt><trkpt lat="43.3562347215431" lon="11.438464396114513"><ele>266.0</ele><time>2026-05-02T16:14:35Z</time></trkpt><trkpt lat="43.3563817980113" lon="11.438496427366326"><ele>266.0</ele><time>2026-05-02T16:14:36Z</time></trkpt><trkpt lat="43.35653473636859" lon="11.438531276494011"><ele>265.6666666666667</ele><time>2026-05-02T16:14:36.999Z</time></trkpt><trkpt lat="43.35669070019344" lon="11.438566961285353"><ele>265.3333333333333</ele><time>2026-05-02T16:14:37.999Z</time></trkpt><trkpt lat="43.35684256419978" lon="11.438599989438329"><ele>265.0</ele><time>2026-05-02T16:14:38.999Z</time></trkpt><trkpt lat="43.35699093051696" lon="11.438599765462737"><ele>265.0</ele><time>2026-05-02T16:14:39.999Z</time></trkpt><trkpt lat="43.35713618284127" lon="11.43860218828916"><ele>265.0</ele><time>2026-05-02T16:14:40.999Z</time></trkpt><trkpt lat="43.35728425368128" lon="11.438576079002363"><ele>265.0</ele><time>2026-05-02T16:14:41.999Z</time></trkpt><trkpt lat="43.35742913858176" lon="11.438528958340408"><ele>265.0</ele><time>2026-05-02T16:14:42.999Z</time></trkpt><trkpt lat="43.35757457023614" lon="11.438480959147956"><ele>265.0</ele><time>2026-05-02T16:14:43.999Z</time></trkpt><trkpt lat="43.35772373196113" lon="11.43843157915824"><ele>265.0</ele><time>2026-05-02T16:14:44.999Z</time></trkpt><trkpt lat="43.35787081067214" lon="11.438379692321826"><ele>265.0</ele><time>2026-05-02T16:14:45.999Z</time></trkpt><trkpt lat="43.358014467993485" lon="11.438324629499208"><ele>265.5</ele><time>2026-05-02T16:14:46.999Z</time></trkpt><trkpt lat="43.358148067431685" lon="11.438244683880443"><ele>266.0</ele><time>2026-05-02T16:14:47.999Z</time></trkpt><trkpt lat="43.35825367498868" lon="11.43811829064884"><ele>266.5</ele><time>2026-05-02T16:14:48.999Z</time></trkpt><trkpt lat="43.35833244865892" lon="11.437956098680647"><ele>267.0</ele><time>2026-05-02T16:14:49.999Z</time></trkpt><trkpt lat="43.358387521040946" lon="11.437774087438518"><ele>267.5</ele><time>2026-05-02T16:14:50.999Z</time></trkpt><trkpt lat="43.35841256357304" lon="11.437578369106363"><ele>268.0</ele><time>2026-05-02T16:14:51.999Z</time></trkpt><trkpt lat="43.35841222179836" lon="11.437386920751837"><ele>268.5</ele><time>2026-05-02T16:14:52.999Z</time></trkpt><trkpt lat="43.35839318148682" lon="11.437203438150744"><ele>269.0</ele><time>2026-05-02T16:14:53.999Z</time></trkpt><trkpt lat="43.358368514953966" lon="11.437026567854991"><ele>269.0</ele><time>2026-05-02T16:14:54.999Z</time></trkpt><trkpt lat="43.358352579787095" lon="11.4368508299522"><ele>269.0</ele><time>2026-05-02T16:14:55.999Z</time></trkpt><trkpt lat="43.35835859580039" lon="11.436673267829885"><ele>269.0</ele><time>2026-05-02T16:14:56.999Z</time></trkpt><trkpt lat="43.35838411771346" lon="11.436493535011815"><ele>269.0</ele><time>2026-05-02T16:14:57.999Z</time></trkpt><trkpt lat="43.35841099080429" lon="11.4363166800259"><ele>269.0</ele><time>2026-05-02T16:14:58.999Z</time></trkpt><trkpt lat="43.358443686323746" lon="11.436145903515275"><ele>269.0</ele><time>2026-05-02T16:14:59.999Z</time></trkpt><trkpt lat="43.35847515582305" lon="11.43597840232651"><ele>269.0</ele><time>2026-05-02T16:15:00.999Z</time></trkpt><trkpt lat="43.3585036801186" lon="11.43580745240337"><ele>269.0</ele><time>2026-05-02T16:15:01.999Z</time></trkpt><trkpt lat="43.358541318641805" lon="11.435636435515901"><ele>269.5</ele><time>2026-05-02T16:15:02.999Z</time></trkpt><trkpt lat="43.3585946323263" lon="11.435467838347646"><ele>270.0</ele><time>2026-05-02T16:15:03.999Z</time></trkpt><trkpt lat="43.358657974356454" lon="11.435304764700582"><ele>270.5</ele><time>2026-05-02T16:15:04.999Z</time></trkpt><trkpt lat="43.35872656538565" lon="11.43514278878279"><ele>271.0</ele><time>2026-05-02T16:15:05.999Z</time></trkpt><trkpt lat="43.358794068509994" lon="11.434979602974769"><ele>271.0</ele><time>2026-05-02T16:15:06.999Z</time></trkpt><trkpt lat="43.35885770522058" lon="11.434811920437042"><ele>271.0</ele><time>2026-05-02T16:15:07.999Z</time></trkpt><trkpt lat="43.35891226532682" lon="11.434637269871548"><ele>271.0</ele><time>2026-05-02T16:15:08.999Z</time></trkpt><trkpt lat="43.358948413593666" lon="11.434452568356875"><ele>271.0</ele><time>2026-05-02T16:15:09.999Z</time></trkpt><trkpt lat="43.35896683843788" lon="11.43426235389391"><ele>269.0</ele><time>2026-05-02T16:15:10.999Z</time></trkpt><trkpt lat="43.35897336964329" lon="11.434068782553549"><ele>267.0</ele><time>2026-05-02T16:15:11.999Z</time></trkpt><trkpt lat="43.358966744767514" lon="11.433870704010028"><ele>265.0</ele><time>2026-05-02T16:15:12.999Z</time></trkpt><trkpt lat="43.35894617256591" lon="11.433672157810646"><ele>263.0</ele><time>2026-05-02T16:15:13.999Z</time></trkpt><trkpt lat="43.35891236276882" lon="11.433472933056107"><ele>263.0</ele><time>2026-05-02T16:15:14.999Z</time></trkpt><trkpt lat="43.35887961617574" lon="11.43326898037949"><ele>263.0</ele><time>2026-05-02T16:15:15.999Z</time></trkpt><trkpt lat="43.35885636820406" lon="11.433063241030183"><ele>263.0</ele><time>2026-05-02T16:15:16.999Z</time></trkpt><trkpt lat="43.35884385078092" lon="11.432854637160041"><ele>263.0</ele><time>2026-05-02T16:15:17.999Z</time></trkpt><trkpt lat="43.35883973184624" lon="11.432645663695995"><ele>263.0</ele><time>2026-05-02T16:15:18.999Z</time></trkpt><trkpt lat="43.358842658142045" lon="11.43243608689432"><ele>263.0</ele><time>2026-05-02T16:15:19.999Z</time></trkpt><trkpt lat="43.358859870851084" lon="11.43222702966996"><ele>262.33333333333337</ele><time>2026-05-02T16:15:20.999Z</time></trkpt><trkpt lat="43.35889565509248" lon="11.43202292127695"><ele>261.6666666666667</ele><time>2026-05-02T16:15:21.999Z</time></trkpt><trkpt lat="43.358941954281626" lon="11.431824076012441"><ele>261.0</ele><time>2026-05-02T16:15:22.999Z</time></trkpt><trkpt lat="43.358988280922254" lon="11.431624001222046"><ele>261.0</ele><time>2026-05-02T16:15:23.999Z</time></trkpt><trkpt lat="43.35902935917451" lon="11.431423930109814"><ele>261.0</ele><time>2026-05-02T16:15:24.999Z</time></trkpt><trkpt lat="43.35907006979874" lon="11.431222047867367"><ele>261.0</ele><time>2026-05-02T16:15:25.999Z</time></trkpt><trkpt lat="43.35911076270186" lon="11.431022216312156"><ele>261.75</ele><time>2026-05-02T16:15:26.999Z</time></trkpt><trkpt lat="43.35914874271808" lon="11.430820510310774"><ele>262.5</ele><time>2026-05-02T16:15:27.999Z</time></trkpt><trkpt lat="43.35917931211128" lon="11.430623496030885"><ele>263.25</ele><time>2026-05-02T16:15:28.999Z</time></trkpt><trkpt lat="43.35920013060295" lon="11.430425727700039"><ele>264.0</ele><time>2026-05-02T16:15:30Z</time></trkpt><trkpt lat="43.359207191241204" lon="11.430220568639388"><ele>264.3333333333333</ele><time>2026-05-02T16:15:31Z</time></trkpt><trkpt lat="43.35919980147133" lon="11.430014704880353"><ele>264.66666666666663</ele><time>2026-05-02T16:15:32Z</time></trkpt><trkpt lat="43.35918102389138" lon="11.429808656018967"><ele>265.0</ele><time>2026-05-02T16:15:33Z</time></trkpt><trkpt lat="43.3591555766504" lon="11.429605459504579"><ele>263.0</ele><time>2026-05-02T16:15:34Z</time></trkpt><trkpt lat="43.35911965169665" lon="11.429402112986622"><ele>261.0</ele><time>2026-05-02T16:15:35Z</time></trkpt><trkpt lat="43.359075144441334" lon="11.429196025508896"><ele>259.0</ele><time>2026-05-02T16:15:36Z</time></trkpt><trkpt lat="43.359010154816296" lon="11.428997414447476"><ele>259.0</ele><time>2026-05-02T16:15:37Z</time></trkpt><trkpt lat="43.35892181639809" lon="11.42881129731973"><ele>259.0</ele><time>2026-05-02T16:15:38Z</time></trkpt><trkpt lat="43.358816824715035" lon="11.428634671141452"><ele>259.0</ele><time>2026-05-02T16:15:39Z</time></trkpt><trkpt lat="43.358701636871096" lon="11.42847109014974"><ele>258.0</ele><time>2026-05-02T16:15:40Z</time></trkpt><trkpt lat="43.35858302736647" lon="11.4283078445991"><ele>257.0</ele><time>2026-05-02T16:15:41Z</time></trkpt><trkpt lat="43.358469002997126" lon="11.428136788892553"><ele>256.0</ele><time>2026-05-02T16:15:42Z</time></trkpt><trkpt lat="43.358359524540866" lon="11.427960945760937"><ele>256.0</ele><time>2026-05-02T16:15:43Z</time></trkpt><trkpt lat="43.35825628147226" lon="11.42778021766804"><ele>256.0</ele><time>2026-05-02T16:15:44Z</time></trkpt><trkpt lat="43.35815533911893" lon="11.427601980390286"><ele>256.0</ele><time>2026-05-02T16:15:45Z</time></trkpt><trkpt lat="43.35805208510255" lon="11.427431501475299"><ele>255.0</ele><time>2026-05-02T16:15:46Z</time></trkpt><trkpt lat="43.35793836626694" lon="11.427278286990571"><ele>254.0</ele><time>2026-05-02T16:15:47Z</time></trkpt><trkpt lat="43.35781293951294" lon="11.427155001339193"><ele>253.0</ele><time>2026-05-02T16:15:48Z</time></trkpt><trkpt lat="43.357671902965706" lon="11.42705497252131"><ele>253.0</ele><time>2026-05-02T16:15:49Z</time></trkpt><trkpt lat="43.357526110977915" lon="11.426962884303762"><ele>253.0</ele><time>2026-05-02T16:15:50Z</time></trkpt><trkpt lat="43.35737421055564" lon="11.42686979581329"><ele>253.0</ele><time>2026-05-02T16:15:51Z</time></trkpt><trkpt lat="43.35722217354696" lon="11.4267717886396"><ele>254.0</ele><time>2026-05-02T16:15:52Z</time></trkpt><trkpt lat="43.357069975259265" lon="11.426675925823373"><ele>255.0</ele><time>2026-05-02T16:15:53Z</time></trkpt><trkpt lat="43.35692099624272" lon="11.426575027087534"><ele>256.0</ele><time>2026-05-02T16:15:54Z</time></trkpt><trkpt lat="43.35677293225116" lon="11.42647195961829"><ele>256.0</ele><time>2026-05-02T16:15:55Z</time></trkpt><trkpt lat="43.356629366333486" lon="11.426351612930953"><ele>256.0</ele><time>2026-05-02T16:15:56Z</time></trkpt><trkpt lat="43.35649479852329" lon="11.426210907548164"><ele>256.0</ele><time>2026-05-02T16:15:57Z</time></trkpt><trkpt lat="43.356366118222006" lon="11.42605695143541"><ele>252.66666666666666</ele><time>2026-05-02T16:15:58Z</time></trkpt><trkpt lat="43.35624140246185" lon="11.425892026047995"><ele>249.33333333333331</ele><time>2026-05-02T16:15:59Z</time></trkpt><trkpt lat="43.35611422585163" lon="11.42572240676998"><ele>246.0</ele><time>2026-05-02T16:16:00Z</time></trkpt><trkpt lat="43.35598435971624" lon="11.42555086624618"><ele>244.0</ele><time>2026-05-02T16:16:01Z</time></trkpt><trkpt lat="43.355854127975675" lon="11.42537433824336"><ele>242.0</ele><time>2026-05-02T16:16:02Z</time></trkpt><trkpt lat="43.35572308034686" lon="11.42520055508184"><ele>240.0</ele><time>2026-05-02T16:16:03Z</time></trkpt><trkpt lat="43.35559470547073" lon="11.42502524634958"><ele>240.0</ele><time>2026-05-02T16:16:04Z</time></trkpt><trkpt lat="43.35546677989563" lon="11.424855518794056"><ele>240.0</ele><time>2026-05-02T16:16:05Z</time></trkpt><trkpt lat="43.35534177042437" lon="11.424691197109187"><ele>240.0</ele><time>2026-05-02T16:16:06Z</time></trkpt><trkpt lat="43.35522318903385" lon="11.42453273609904"><ele>239.0</ele><time>2026-05-02T16:16:07Z</time></trkpt><trkpt lat="43.35511329834522" lon="11.424385858095464"><ele>238.0</ele><time>2026-05-02T16:16:08Z</time></trkpt><trkpt lat="43.3550280657569" lon="11.424245509547582"><ele>237.0</ele><time>2026-05-02T16:16:09Z</time></trkpt><trkpt lat="43.354972167675704" lon="11.424098970134345"><ele>236.0</ele><time>2026-05-02T16:16:10Z</time></trkpt><trkpt lat="43.35495295493346" lon="11.423935423607281"><ele>235.0</ele><time>2026-05-02T16:16:11Z</time></trkpt><trkpt lat="43.35497052918648" lon="11.42375863997583"><ele>234.0</ele><time>2026-05-02T16:16:12Z</time></trkpt><trkpt lat="43.35501333192143" lon="11.42357184527066"><ele>233.0</ele><time>2026-05-02T16:16:13Z</time></trkpt><trkpt lat="43.35506949018215" lon="11.423383047751868"><ele>232.0</ele><time>2026-05-02T16:16:14Z</time></trkpt><trkpt lat="43.35512358493695" lon="11.423187995735985"><ele>232.0</ele><time>2026-05-02T16:16:15Z</time></trkpt><trkpt lat="43.355175836205476" lon="11.422984937873784"><ele>232.0</ele><time>2026-05-02T16:16:16Z</time></trkpt><trkpt lat="43.355219119200946" lon="11.422774640274199"><ele>232.0</ele><time>2026-05-02T16:16:17Z</time></trkpt><trkpt lat="43.35525422094088" lon="11.4225608532241"><ele>229.66666666666666</ele><time>2026-05-02T16:16:18Z</time></trkpt><trkpt lat="43.355281807517684" lon="11.422343332753284"><ele>227.33333333333331</ele><time>2026-05-02T16:16:19Z</time></trkpt><trkpt lat="43.35530577857889" lon="11.422125251724724"><ele>225.0</ele><time>2026-05-02T16:16:20Z</time></trkpt><trkpt lat="43.35532704048719" lon="11.421907003043557"><ele>222.66666666666669</ele><time>2026-05-02T16:16:21Z</time></trkpt><trkpt lat="43.35534911616277" lon="11.421687035270573"><ele>220.33333333333334</ele><time>2026-05-02T16:16:22Z</time></trkpt><trkpt lat="43.35537139277659" lon="11.421469669781095"><ele>218.0</ele><time>2026-05-02T16:16:23Z</time></trkpt><trkpt lat="43.35539675088659" lon="11.421253884086713"><ele>217.0</ele><time>2026-05-02T16:16:24Z</time></trkpt><trkpt lat="43.35542567235226" lon="11.42104181839094"><ele>216.0</ele><time>2026-05-02T16:16:25Z</time></trkpt><trkpt lat="43.35546172154958" lon="11.420830472699667"><ele>215.0</ele><time>2026-05-02T16:16:26Z</time></trkpt><trkpt lat="43.35550050180671" lon="11.420621999617287"><ele>215.66666666666669</ele><time>2026-05-02T16:16:27Z</time></trkpt><trkpt lat="43.355539396508696" lon="11.42041549108696"><ele>216.33333333333331</ele><time>2026-05-02T16:16:28Z</time></trkpt><trkpt lat="43.35557818626198" lon="11.420213209889404"><ele>217.0</ele><time>2026-05-02T16:16:29Z</time></trkpt><trkpt lat="43.355617878551804" lon="11.420011594230449"><ele>217.0</ele><time>2026-05-02T16:16:30Z</time></trkpt><trkpt lat="43.35566411732427" lon="11.419814651574224"><ele>217.0</ele><time>2026-05-02T16:16:31Z</time></trkpt><trkpt lat="43.3557250477323" lon="11.419621847622492"><ele>217.0</ele><time>2026-05-02T16:16:32Z</time></trkpt><trkpt lat="43.35579608010099" lon="11.4194340692605"><ele>216.66666666666666</ele><time>2026-05-02T16:16:33Z</time></trkpt><trkpt lat="43.35587656243032" lon="11.419252809964455"><ele>216.33333333333331</ele><time>2026-05-02T16:16:34Z</time></trkpt><trkpt lat="43.355960372748996" lon="11.41907665073231"><ele>216.0</ele><time>2026-05-02T16:16:35Z</time></trkpt><trkpt lat="43.35604319928698" lon="11.418901051205536"><ele>216.5</ele><time>2026-05-02T16:16:36Z</time></trkpt><trkpt lat="43.356125604258615" lon="11.418725166891011"><ele>217.0</ele><time>2026-05-02T16:16:37Z</time></trkpt><trkpt lat="43.35620656493622" lon="11.418551490601622"><ele>217.5</ele><time>2026-05-02T16:16:37.999Z</time></trkpt><trkpt lat="43.356288035406585" lon="11.418383649007227"><ele>218.0</ele><time>2026-05-02T16:16:38.999Z</time></trkpt><trkpt lat="43.35636912217053" lon="11.418217283910476"><ele>217.75</ele><time>2026-05-02T16:16:39.999Z</time></trkpt><trkpt lat="43.356446200486104" lon="11.418051896407775"><ele>217.5</ele><time>2026-05-02T16:16:40.999Z</time></trkpt><trkpt lat="43.356522158405895" lon="11.41788814867389"><ele>217.25</ele><time>2026-05-02T16:16:41.999Z</time></trkpt><trkpt lat="43.35659657869213" lon="11.417732337863429"><ele>217.0</ele><time>2026-05-02T16:16:42.999Z</time></trkpt><trkpt lat="43.35666712896649" lon="11.41758844072587"><ele>217.39999999999998</ele><time>2026-05-02T16:16:43.999Z</time></trkpt><trkpt lat="43.35673052584448" lon="11.41745543232304"><ele>217.79999999999998</ele><time>2026-05-02T16:16:44.999Z</time></trkpt><trkpt lat="43.35678235891705" lon="11.417328201314406"><ele>218.2</ele><time>2026-05-02T16:16:45.999Z</time></trkpt><trkpt lat="43.356822885258275" lon="11.417210637613257"><ele>218.6</ele><time>2026-05-02T16:16:46.999Z</time></trkpt><trkpt lat="43.35684733388585" lon="11.417098687651185"><ele>219.0</ele><time>2026-05-02T16:16:47.999Z</time></trkpt><trkpt lat="43.35685987864563" lon="11.417001071170418"><ele>219.0</ele><time>2026-05-02T16:16:48.999Z</time></trkpt><trkpt lat="43.35687451458091" lon="11.41685660180917"><ele>218.99999999999997</ele><time>2026-05-02T16:16:50.999Z</time></trkpt><trkpt lat="43.35689384255772" lon="11.416731097835616"><ele>218.99999999999997</ele><time>2026-05-02T16:16:56.999Z</time></trkpt><trkpt lat="43.356868737463756" lon="11.416604597450247"><ele>219.0</ele><time>2026-05-02T16:16:59.999Z</time></trkpt><trkpt lat="43.35679998753179" lon="11.416638451182846"><ele>219.0</ele><time>2026-05-02T16:18:21Z</time></trkpt><trkpt lat="43.35688945939138" lon="11.416768329885516"><ele>219.0</ele><time>2026-05-02T16:18:23Z</time></trkpt><trkpt lat="43.35694282358197" lon="11.41682422597405"><ele>218.99999999999997</ele><time>2026-05-02T16:18:24Z</time></trkpt><trkpt lat="43.35699857226551" lon="11.416895064551161"><ele>218.99999999999997</ele><time>2026-05-02T16:18:25Z</time></trkpt><trkpt lat="43.3570635527654" lon="11.416983823831128"><ele>219.0</ele><time>2026-05-02T16:18:26Z</time></trkpt><trkpt lat="43.35713508778436" lon="11.417090013976422"><ele>219.0</ele><time>2026-05-02T16:18:27Z</time></trkpt><trkpt lat="43.35720918839884" lon="11.417201391317326"><ele>219.25</ele><time>2026-05-02T16:18:28Z</time></trkpt><trkpt lat="43.3572864232602" lon="11.417320922940553"><ele>219.5</ele><time>2026-05-02T16:18:29Z</time></trkpt><trkpt lat="43.35736456889746" lon="11.417444670097002"><ele>219.75</ele><time>2026-05-02T16:18:30Z</time></trkpt><trkpt lat="43.35744805866359" lon="11.417570367430555"><ele>220.0</ele><time>2026-05-02T16:18:31Z</time></trkpt><trkpt lat="43.3575311139332" lon="11.41770344606894"><ele>220.0</ele><time>2026-05-02T16:18:32Z</time></trkpt><trkpt lat="43.357626439987676" lon="11.417843152892647"><ele>220.0</ele><time>2026-05-02T16:18:33Z</time></trkpt><trkpt lat="43.357726065486005" lon="11.417990325597916"><ele>220.0</ele><time>2026-05-02T16:18:34Z</time></trkpt><trkpt lat="43.357829149413774" lon="11.418148293374541"><ele>220.0</ele><time>2026-05-02T16:18:35Z</time></trkpt><trkpt lat="43.35793370897" lon="11.418311860465167"><ele>220.33333333333331</ele><time>2026-05-02T16:18:36Z</time></trkpt><trkpt lat="43.35803881487452" lon="11.418475983258997"><ele>220.66666666666669</ele><time>2026-05-02T16:18:37Z</time></trkpt><trkpt lat="43.35814601702747" lon="11.418639877679759"><ele>221.0</ele><time>2026-05-02T16:18:38Z</time></trkpt><trkpt lat="43.35825252271269" lon="11.418802867760482"><ele>221.33333333333334</ele><time>2026-05-02T16:18:38.999Z</time></trkpt><trkpt lat="43.358356663967385" lon="11.418965421273619"><ele>221.66666666666669</ele><time>2026-05-02T16:18:39.999Z</time></trkpt><trkpt lat="43.358461080473255" lon="11.419126333478731"><ele>222.0</ele><time>2026-05-02T16:18:40.999Z</time></trkpt><trkpt lat="43.358564624353185" lon="11.41928330620354"><ele>222.0</ele><time>2026-05-02T16:18:41.999Z</time></trkpt><trkpt lat="43.35866639092592" lon="11.41944048159461"><ele>222.0</ele><time>2026-05-02T16:18:42.999Z</time></trkpt><trkpt lat="43.358761395321885" lon="11.419591791975988"><ele>222.0</ele><time>2026-05-02T16:18:43.999Z</time></trkpt><trkpt lat="43.358849094101224" lon="11.419735219585341"><ele>222.0</ele><time>2026-05-02T16:18:44.999Z</time></trkpt><trkpt lat="43.35893495893372" lon="11.419861083953084"><ele>223.5</ele><time>2026-05-02T16:18:45.999Z</time></trkpt><trkpt lat="43.35903023425899" lon="11.419941561826834"><ele>225.0</ele><time>2026-05-02T16:18:46.999Z</time></trkpt><trkpt lat="43.35914531196779" lon="11.419989935390172"><ele>226.5</ele><time>2026-05-02T16:18:47.999Z</time></trkpt><trkpt lat="43.35927399587135" lon="11.419987065825039"><ele>228.0</ele><time>2026-05-02T16:18:48.999Z</time></trkpt><trkpt lat="43.35940672784939" lon="11.419946993543894"><ele>228.0</ele><time>2026-05-02T16:18:49.999Z</time></trkpt><trkpt lat="43.35954783308805" lon="11.41988157832312"><ele>228.0</ele><time>2026-05-02T16:18:50.999Z</time></trkpt><trkpt lat="43.35969920715307" lon="11.419810818304684"><ele>228.0</ele><time>2026-05-02T16:18:51.999Z</time></trkpt><trkpt lat="43.35986936050686" lon="11.41974807773729"><ele>228.66666666666669</ele><time>2026-05-02T16:18:52.999Z</time></trkpt><trkpt lat="43.36005218091228" lon="11.419684425348546"><ele>229.33333333333334</ele><time>2026-05-02T16:18:53.999Z</time></trkpt><trkpt lat="43.360239667844716" lon="11.41961599380934"><ele>230.0</ele><time>2026-05-02T16:18:54.999Z</time></trkpt><trkpt lat="43.36042857464793" lon="11.419547696484491"><ele>230.66666666666669</ele><time>2026-05-02T16:18:55.999Z</time></trkpt><trkpt lat="43.36061681569378" lon="11.419481114526967"><ele>231.33333333333331</ele><time>2026-05-02T16:18:56.999Z</time></trkpt><trkpt lat="43.360801007822246" lon="11.419416925544306"><ele>232.0</ele><time>2026-05-02T16:18:57.999Z</time></trkpt><trkpt lat="43.360981105176926" lon="11.419353830160698"><ele>232.0</ele><time>2026-05-02T16:18:58.999Z</time></trkpt><trkpt lat="43.361144111300945" lon="11.419296358844274"><ele>232.0</ele><time>2026-05-02T16:18:59.999Z</time></trkpt><trkpt lat="43.361294968559065" lon="11.419245670873472"><ele>232.0</ele><time>2026-05-02T16:19:00.999Z</time></trkpt><trkpt lat="43.36143605995895" lon="11.41919763935834"><ele>231.75</ele><time>2026-05-02T16:19:01.999Z</time></trkpt><trkpt lat="43.361562702353446" lon="11.419141192348897"><ele>231.5</ele><time>2026-05-02T16:19:02.999Z</time></trkpt><trkpt lat="43.36167806344479" lon="11.419052579964676"><ele>231.25</ele><time>2026-05-02T16:19:03.999Z</time></trkpt><trkpt lat="43.361772902926624" lon="11.418910559283956"><ele>231.0</ele><time>2026-05-02T16:19:04.999Z</time></trkpt><trkpt lat="43.36185431049531" lon="11.418751962506638"><ele>231.0</ele><time>2026-05-02T16:19:05.999Z</time></trkpt><trkpt lat="43.36193986663673" lon="11.41859778739356"><ele>231.0</ele><time>2026-05-02T16:19:06.999Z</time></trkpt><trkpt lat="43.36203485352861" lon="11.418465795065577"><ele>231.0</ele><time>2026-05-02T16:19:07.999Z</time></trkpt><trkpt lat="43.36213981874077" lon="11.418354784302272"><ele>231.0</ele><time>2026-05-02T16:19:08.999Z</time></trkpt><trkpt lat="43.36225865303305" lon="11.418280168271817"><ele>232.5</ele><time>2026-05-02T16:19:09.999Z</time></trkpt><trkpt lat="43.362390323060524" lon="11.418255561856592"><ele>234.0</ele><time>2026-05-02T16:19:10.999Z</time></trkpt><trkpt lat="43.36252104659407" lon="11.418284998221926"><ele>235.5</ele><time>2026-05-02T16:19:11.999Z</time></trkpt><trkpt lat="43.36265274033652" lon="11.418343476318034"><ele>237.0</ele><time>2026-05-02T16:19:12.999Z</time></trkpt><trkpt lat="43.36278907735031" lon="11.41839256233886"><ele>237.0</ele><time>2026-05-02T16:19:13.999Z</time></trkpt><trkpt lat="43.36293264293574" lon="11.418435535803058"><ele>237.0</ele><time>2026-05-02T16:19:14.999Z</time></trkpt><trkpt lat="43.36308097992861" lon="11.418460804636357"><ele>237.0</ele><time>2026-05-02T16:19:15.999Z</time></trkpt><trkpt lat="43.363228991867366" lon="11.418473224064456"><ele>237.0</ele><time>2026-05-02T16:19:16.999Z</time></trkpt><trkpt lat="43.36337646532627" lon="11.418476672306078"><ele>237.75</ele><time>2026-05-02T16:19:17.999Z</time></trkpt><trkpt lat="43.36352447051729" lon="11.418476474176458"><ele>238.5</ele><time>2026-05-02T16:19:18.999Z</time></trkpt><trkpt lat="43.363672527566365" lon="11.418477209805921"><ele>239.25</ele><time>2026-05-02T16:19:19.999Z</time></trkpt><trkpt lat="43.363820483621176" lon="11.418481300118714"><ele>240.0</ele><time>2026-05-02T16:19:20.999Z</time></trkpt><trkpt lat="43.36396895747254" lon="11.418492883293993"><ele>241.33333333333331</ele><time>2026-05-02T16:19:21.999Z</time></trkpt><trkpt lat="43.364116730574885" lon="11.41853611103232"><ele>242.66666666666666</ele><time>2026-05-02T16:19:22.999Z</time></trkpt><trkpt lat="43.364256326608384" lon="11.41861908936002"><ele>244.0</ele><time>2026-05-02T16:19:23.999Z</time></trkpt><trkpt lat="43.36438374778158" lon="11.418737532196497"><ele>243.66666666666666</ele><time>2026-05-02T16:19:24.999Z</time></trkpt><trkpt lat="43.36449981800203" lon="11.418881759762835"><ele>243.33333333333331</ele><time>2026-05-02T16:19:25.999Z</time></trkpt><trkpt lat="43.364608219754885" lon="11.419043033024444"><ele>243.0</ele><time>2026-05-02T16:19:26.999Z</time></trkpt><trkpt lat="43.36471163370459" lon="11.419213362943461"><ele>243.0</ele><time>2026-05-02T16:19:27.999Z</time></trkpt><trkpt lat="43.36481880851125" lon="11.419379529852495"><ele>243.0</ele><time>2026-05-02T16:19:28.999Z</time></trkpt><trkpt lat="43.36492477606182" lon="11.419528300868883"><ele>243.0</ele><time>2026-05-02T16:19:29.999Z</time></trkpt><trkpt lat="43.365043032956834" lon="11.419639634161369"><ele>245.33333333333331</ele><time>2026-05-02T16:19:30.999Z</time></trkpt><trkpt lat="43.36518563651928" lon="11.41970614458075"><ele>247.66666666666666</ele><time>2026-05-02T16:19:31.999Z</time></trkpt><trkpt lat="43.36534372273597" lon="11.419730280404444"><ele>250.0</ele><time>2026-05-02T16:19:32.999Z</time></trkpt><trkpt lat="43.365504389655065" lon="11.419720615139399"><ele>248.0</ele><time>2026-05-02T16:19:33.999Z</time></trkpt><trkpt lat="43.36566271330892" lon="11.419681878799699"><ele>246.0</ele><time>2026-05-02T16:19:34.999Z</time></trkpt><trkpt lat="43.365818801429974" lon="11.419611376533556"><ele>244.0</ele><time>2026-05-02T16:19:35.999Z</time></trkpt><trkpt lat="43.36597499146366" lon="11.41951576238377"><ele>241.66666666666666</ele><time>2026-05-02T16:19:36.999Z</time></trkpt><trkpt lat="43.366135812383924" lon="11.41941432803065"><ele>239.33333333333331</ele><time>2026-05-02T16:19:37.999Z</time></trkpt><trkpt lat="43.36629727055391" lon="11.419316172944937"><ele>237.0</ele><time>2026-05-02T16:19:38.999Z</time></trkpt><trkpt lat="43.36645756497052" lon="11.419214989923013"><ele>237.0</ele><time>2026-05-02T16:19:39.999Z</time></trkpt><trkpt lat="43.366623976032166" lon="11.419113610642261"><ele>237.0</ele><time>2026-05-02T16:19:40.999Z</time></trkpt><trkpt lat="43.36679165791956" lon="11.419008551816628"><ele>237.0</ele><time>2026-05-02T16:19:42Z</time></trkpt><trkpt lat="43.36696038097707" lon="11.418898259499482"><ele>236.66666666666669</ele><time>2026-05-02T16:19:43Z</time></trkpt><trkpt lat="43.36713115213026" lon="11.41879015958262"><ele>236.33333333333334</ele><time>2026-05-02T16:19:44Z</time></trkpt><trkpt lat="43.36730490053797" lon="11.418685412550303"><ele>236.0</ele><time>2026-05-02T16:19:45Z</time></trkpt><trkpt lat="43.367478719902934" lon="11.418580934942122"><ele>236.0</ele><time>2026-05-02T16:19:46Z</time></trkpt><trkpt lat="43.36765290030739" lon="11.418472018113322"><ele>236.0</ele><time>2026-05-02T16:19:47Z</time></trkpt><trkpt lat="43.3678263640229" lon="11.41836645430286"><ele>236.0</ele><time>2026-05-02T16:19:48Z</time></trkpt><trkpt lat="43.368001197437906" lon="11.418260051136535"><ele>235.0</ele><time>2026-05-02T16:19:49Z</time></trkpt><trkpt lat="43.368174764521406" lon="11.418152572104113"><ele>234.0</ele><time>2026-05-02T16:19:50Z</time></trkpt><trkpt lat="43.368347397326104" lon="11.418043626558566"><ele>233.0</ele><time>2026-05-02T16:19:51Z</time></trkpt><trkpt lat="43.36852063269218" lon="11.41793524785921"><ele>233.0</ele><time>2026-05-02T16:19:52Z</time></trkpt><trkpt lat="43.36869375542658" lon="11.417830988505264"><ele>233.0</ele><time>2026-05-02T16:19:53Z</time></trkpt><trkpt lat="43.36886672805521" lon="11.41772984627383"><ele>233.0</ele><time>2026-05-02T16:19:54Z</time></trkpt><trkpt lat="43.36903445256888" lon="11.417624070565076"><ele>234.33333333333334</ele><time>2026-05-02T16:19:55Z</time></trkpt><trkpt lat="43.36919959237481" lon="11.4175180680053"><ele>235.66666666666669</ele><time>2026-05-02T16:19:56Z</time></trkpt><trkpt lat="43.369365669053416" lon="11.41741541715115"><ele>237.0</ele><time>2026-05-02T16:19:57Z</time></trkpt><trkpt lat="43.36952977715341" lon="11.41731925767012"><ele>238.66666666666669</ele><time>2026-05-02T16:19:58Z</time></trkpt><trkpt lat="43.369695524870224" lon="11.417241193281383"><ele>240.33333333333334</ele><time>2026-05-02T16:19:59Z</time></trkpt><trkpt lat="43.369866343169555" lon="11.417195150390324"><ele>242.0</ele><time>2026-05-02T16:20:00Z</time></trkpt><trkpt lat="43.37004174698323" lon="11.417168728665994"><ele>242.0</ele><time>2026-05-02T16:20:01Z</time></trkpt><trkpt lat="43.37021966555291" lon="11.417159696024557"><ele>242.0</ele><time>2026-05-02T16:20:02Z</time></trkpt><trkpt lat="43.370400311018145" lon="11.417159263486267"><ele>242.0</ele><time>2026-05-02T16:20:03Z</time></trkpt><trkpt lat="43.37058093352489" lon="11.417154884468642"><ele>238.66666666666669</ele><time>2026-05-02T16:20:04Z</time></trkpt><trkpt lat="43.37075606649046" lon="11.417129474308796"><ele>235.33333333333331</ele><time>2026-05-02T16:20:05Z</time></trkpt><trkpt lat="43.370922004626806" lon="11.41706650579541"><ele>232.0</ele><time>2026-05-02T16:20:06Z</time></trkpt><trkpt lat="43.371065770000655" lon="11.41696257527129"><ele>232.0</ele><time>2026-05-02T16:20:07Z</time></trkpt><trkpt lat="43.37119614580078" lon="11.416819483851494"><ele>232.0</ele><time>2026-05-02T16:20:08Z</time></trkpt><trkpt lat="43.37131725878378" lon="11.416646894508705"><ele>232.0</ele><time>2026-05-02T16:20:09Z</time></trkpt><trkpt lat="43.37143730583956" lon="11.416463766823096"><ele>233.0</ele><time>2026-05-02T16:20:10Z</time></trkpt><trkpt lat="43.371561976640145" lon="11.416281648546695"><ele>234.0</ele><time>2026-05-02T16:20:11Z</time></trkpt><trkpt lat="43.37168721831462" lon="11.416097816793744"><ele>235.0</ele><time>2026-05-02T16:20:12Z</time></trkpt><trkpt lat="43.371818347479845" lon="11.415922327303615"><ele>235.0</ele><time>2026-05-02T16:20:13Z</time></trkpt><trkpt lat="43.37196339990786" lon="11.415779302111302"><ele>235.0</ele><time>2026-05-02T16:20:14Z</time></trkpt><trkpt lat="43.37212471527113" lon="11.415670255487376"><ele>235.0</ele><time>2026-05-02T16:20:15Z</time></trkpt><trkpt lat="43.37228718656735" lon="11.415592830050999"><ele>235.66666666666666</ele><time>2026-05-02T16:20:16Z</time></trkpt><trkpt lat="43.3724443404727" lon="11.415513681066866"><ele>236.33333333333331</ele><time>2026-05-02T16:20:17Z</time></trkpt><trkpt lat="43.37258821078432" lon="11.415406431589755"><ele>237.0</ele><time>2026-05-02T16:20:18Z</time></trkpt><trkpt lat="43.37271647932068" lon="11.415262151584582"><ele>237.0</ele><time>2026-05-02T16:20:19Z</time></trkpt><trkpt lat="43.37283602274731" lon="11.415098013366077"><ele>237.0</ele><time>2026-05-02T16:20:20Z</time></trkpt><trkpt lat="43.372967301806035" lon="11.414940234089116"><ele>237.0</ele><time>2026-05-02T16:20:21Z</time></trkpt><trkpt lat="43.3730951988701" lon="11.414761692230297"><ele>237.0</ele><time>2026-05-02T16:20:22Z</time></trkpt><trkpt lat="43.373229316476625" lon="11.414579899367979"><ele>237.0</ele><time>2026-05-02T16:20:23Z</time></trkpt><trkpt lat="43.373384777058924" lon="11.414422529444913"><ele>237.0</ele><time>2026-05-02T16:20:24Z</time></trkpt><trkpt lat="43.37355025695242" lon="11.414289744470896"><ele>237.0</ele><time>2026-05-02T16:20:25Z</time></trkpt><trkpt lat="43.37369405167692" lon="11.414123531897054"><ele>237.0</ele><time>2026-05-02T16:20:26Z</time></trkpt><trkpt lat="43.373847925438525" lon="11.413980356018625"><ele>237.0</ele><time>2026-05-02T16:20:27Z</time></trkpt><trkpt lat="43.37399659524427" lon="11.413838213033637"><ele>237.33333333333331</ele><time>2026-05-02T16:20:28Z</time></trkpt><trkpt lat="43.37414954025781" lon="11.413721284584996"><ele>237.66666666666666</ele><time>2026-05-02T16:20:29Z</time></trkpt><trkpt lat="43.37431649253883" lon="11.413636287008554"><ele>238.0</ele><time>2026-05-02T16:20:30Z</time></trkpt><trkpt lat="43.37449308550335" lon="11.413589603782434"><ele>238.0</ele><time>2026-05-02T16:20:31Z</time></trkpt><trkpt lat="43.37467617835147" lon="11.413600667225852"><ele>238.0</ele><time>2026-05-02T16:20:32Z</time></trkpt><trkpt lat="43.374864854750086" lon="11.413581006298525"><ele>238.0</ele><time>2026-05-02T16:20:33Z</time></trkpt><trkpt lat="43.37505680121495" lon="11.413580475585634"><ele>238.66666666666666</ele><time>2026-05-02T16:20:34Z</time></trkpt><trkpt lat="43.375249147073696" lon="11.413572988642283"><ele>239.33333333333331</ele><time>2026-05-02T16:20:35Z</time></trkpt><trkpt lat="43.37544113269743" lon="11.413564886415536"><ele>240.0</ele><time>2026-05-02T16:20:36Z</time></trkpt><trkpt lat="43.375631687593675" lon="11.413582122087089"><ele>241.33333333333331</ele><time>2026-05-02T16:20:37Z</time></trkpt><trkpt lat="43.375821317037904" lon="11.413578674751179"><ele>242.66666666666666</ele><time>2026-05-02T16:20:37.999Z</time></trkpt><trkpt lat="43.376007850315396" lon="11.413553662347853"><ele>244.0</ele><time>2026-05-02T16:20:38.999Z</time></trkpt><trkpt lat="43.376187597301325" lon="11.413551669628632"><ele>245.33333333333331</ele><time>2026-05-02T16:20:39.999Z</time></trkpt><trkpt lat="43.37635965239742" lon="11.413547291798048"><ele>246.66666666666669</ele><time>2026-05-02T16:20:40.999Z</time></trkpt><trkpt lat="43.376525641343044" lon="11.413563382831"><ele>248.0</ele><time>2026-05-02T16:20:41.999Z</time></trkpt><trkpt lat="43.37667184463294" lon="11.413556169091628"><ele>248.0</ele><time>2026-05-02T16:20:42.999Z</time></trkpt><trkpt lat="43.37678433819944" lon="11.413544338906025"><ele>248.0</ele><time>2026-05-02T16:20:43.999Z</time></trkpt><trkpt lat="43.37686281231462" lon="11.413531591946798"><ele>248.0</ele><time>2026-05-02T16:20:44.999Z</time></trkpt><trkpt lat="43.376947422247866" lon="11.413492679706392"><ele>248.0</ele><time>2026-05-02T16:20:46.999Z</time></trkpt><trkpt lat="43.37708740455744" lon="11.413476762248058"><ele>248.0</ele><time>2026-05-02T16:20:57.999Z</time></trkpt><trkpt lat="43.37717790060006" lon="11.41344840908834"><ele>248.8</ele><time>2026-05-02T16:20:58.999Z</time></trkpt><trkpt lat="43.37727894266664" lon="11.413418979772237"><ele>249.60000000000002</ele><time>2026-05-02T16:20:59.999Z</time></trkpt><trkpt lat="43.37738272885766" lon="11.413390222189879"><ele>250.39999999999998</ele><time>2026-05-02T16:21:00.999Z</time></trkpt><trkpt lat="43.37749317113116" lon="11.413361837686418"><ele>251.2</ele><time>2026-05-02T16:21:01.999Z</time></trkpt><trkpt lat="43.37760826229075" lon="11.413337451606202"><ele>252.0</ele><time>2026-05-02T16:21:02.999Z</time></trkpt><trkpt lat="43.377728849198654" lon="11.413316989668393"><ele>252.0</ele><time>2026-05-02T16:21:03.999Z</time></trkpt><trkpt lat="43.37785446244318" lon="11.41330509172348"><ele>252.0</ele><time>2026-05-02T16:21:04.999Z</time></trkpt><trkpt lat="43.37798558137338" lon="11.413299983022869"><ele>252.0</ele><time>2026-05-02T16:21:05.999Z</time></trkpt><trkpt lat="43.37812234852461" lon="11.413300021452347"><ele>252.0</ele><time>2026-05-02T16:21:06.999Z</time></trkpt><trkpt lat="43.37826170513995" lon="11.413312555220566"><ele>252.33333333333331</ele><time>2026-05-02T16:21:07.999Z</time></trkpt><trkpt lat="43.37840783786885" lon="11.413343087259827"><ele>252.66666666666666</ele><time>2026-05-02T16:21:08.999Z</time></trkpt><trkpt lat="43.37856142771697" lon="11.413392603628578"><ele>253.0</ele><time>2026-05-02T16:21:09.999Z</time></trkpt><trkpt lat="43.37872578252418" lon="11.413483623096619"><ele>254.0</ele><time>2026-05-02T16:21:10.999Z</time></trkpt><trkpt lat="43.378897704810775" lon="11.41360124689668"><ele>255.0</ele><time>2026-05-02T16:21:11.999Z</time></trkpt><trkpt lat="43.37907034383142" lon="11.41370822198813"><ele>256.0</ele><time>2026-05-02T16:21:12.999Z</time></trkpt><trkpt lat="43.379241692164044" lon="11.413807558252154"><ele>257.66666666666663</ele><time>2026-05-02T16:21:13.999Z</time></trkpt><trkpt lat="43.37940883937546" lon="11.413908047152782"><ele>259.3333333333333</ele><time>2026-05-02T16:21:14.999Z</time></trkpt><trkpt lat="43.3795693473789" lon="11.414001620463855"><ele>261.0</ele><time>2026-05-02T16:21:15.999Z</time></trkpt><trkpt lat="43.37972928928924" lon="11.414096003914322"><ele>261.0</ele><time>2026-05-02T16:21:16.999Z</time></trkpt><trkpt lat="43.37988807718418" lon="11.414174463965459"><ele>261.0</ele><time>2026-05-02T16:21:17.999Z</time></trkpt><trkpt lat="43.38004942702396" lon="11.414232516987347"><ele>261.0</ele><time>2026-05-02T16:21:18.999Z</time></trkpt><trkpt lat="43.380216369918045" lon="11.414248963600928"><ele>261.0</ele><time>2026-05-02T16:21:19.999Z</time></trkpt><trkpt lat="43.38037325250833" lon="11.414209178368058"><ele>261.0</ele><time>2026-05-02T16:21:20.999Z</time></trkpt><trkpt lat="43.38052211556725" lon="11.414121849621617"><ele>261.0</ele><time>2026-05-02T16:21:21.999Z</time></trkpt><trkpt lat="43.380665140913145" lon="11.413988903098131"><ele>261.6666666666667</ele><time>2026-05-02T16:21:22.999Z</time></trkpt><trkpt lat="43.38079845369475" lon="11.41383762702213"><ele>262.33333333333337</ele><time>2026-05-02T16:21:23.999Z</time></trkpt><trkpt lat="43.38092551584712" lon="11.413668858385426"><ele>263.0</ele><time>2026-05-02T16:21:24.999Z</time></trkpt><trkpt lat="43.381050584463146" lon="11.413498547114962"><ele>263.33333333333337</ele><time>2026-05-02T16:21:25.999Z</time></trkpt><trkpt lat="43.381171722076566" lon="11.413334736258667"><ele>263.6666666666667</ele><time>2026-05-02T16:21:26.999Z</time></trkpt><trkpt lat="43.38128716047854" lon="11.413189748215588"><ele>264.0</ele><time>2026-05-02T16:21:27.999Z</time></trkpt><trkpt lat="43.3814180485842" lon="11.41307459207384"><ele>264.0</ele><time>2026-05-02T16:21:28.999Z</time></trkpt><trkpt lat="43.38157006576418" lon="11.413008748023094"><ele>264.0</ele><time>2026-05-02T16:21:29.999Z</time></trkpt><trkpt lat="43.381730845250765" lon="11.41298936540303"><ele>264.0</ele><time>2026-05-02T16:21:30.999Z</time></trkpt><trkpt lat="43.3818913334882" lon="11.412981152210467"><ele>264.0</ele><time>2026-05-02T16:21:31.999Z</time></trkpt><trkpt lat="43.38205256120674" lon="11.412996619066906"><ele>264.0</ele><time>2026-05-02T16:21:32.999Z</time></trkpt><trkpt lat="43.382207165249476" lon="11.413059505650523"><ele>264.0</ele><time>2026-05-02T16:21:33.999Z</time></trkpt><trkpt lat="43.38235691976889" lon="11.413162159866273"><ele>262.6666666666667</ele><time>2026-05-02T16:21:34.999Z</time></trkpt><trkpt lat="43.38250940726404" lon="11.413272940558022"><ele>261.33333333333337</ele><time>2026-05-02T16:21:35.999Z</time></trkpt><trkpt lat="43.38266436522215" lon="11.41337994765846"><ele>260.0</ele><time>2026-05-02T16:21:36.999Z</time></trkpt><trkpt lat="43.382821672148" lon="11.413484328660067"><ele>260.0</ele><time>2026-05-02T16:21:37.999Z</time></trkpt><trkpt lat="43.382981217785165" lon="11.413588424975263"><ele>260.0</ele><time>2026-05-02T16:21:38.999Z</time></trkpt><trkpt lat="43.383140545568246" lon="11.413690851288775"><ele>260.0</ele><time>2026-05-02T16:21:39.999Z</time></trkpt><trkpt lat="43.3833033008809" lon="11.413779115928456"><ele>263.0</ele><time>2026-05-02T16:21:40.999Z</time></trkpt><trkpt lat="43.383477728403264" lon="11.41382407605865"><ele>266.0</ele><time>2026-05-02T16:21:41.999Z</time></trkpt><trkpt lat="43.38365297955044" lon="11.413842044909954"><ele>269.0</ele><time>2026-05-02T16:21:42.999Z</time></trkpt><trkpt lat="43.383826231842164" lon="11.413848392519704"><ele>269.0</ele><time>2026-05-02T16:21:43.999Z</time></trkpt><trkpt lat="43.38399654105366" lon="11.413844709095573"><ele>269.0</ele><time>2026-05-02T16:21:44.999Z</time></trkpt><trkpt lat="43.38416572482811" lon="11.413814814197725"><ele>269.0</ele><time>2026-05-02T16:21:45.999Z</time></trkpt><trkpt lat="43.38432851766652" lon="11.413758069630266"><ele>266.0</ele><time>2026-05-02T16:21:46.999Z</time></trkpt><trkpt lat="43.38449017438761" lon="11.41368589995036"><ele>263.0</ele><time>2026-05-02T16:21:48Z</time></trkpt><trkpt lat="43.384649156502455" lon="11.413612454169941"><ele>260.0</ele><time>2026-05-02T16:21:49Z</time></trkpt><trkpt lat="43.38480168422719" lon="11.413534182471102"><ele>260.0</ele><time>2026-05-02T16:21:50Z</time></trkpt><trkpt lat="43.38495238658293" lon="11.413447587638164"><ele>260.0</ele><time>2026-05-02T16:21:51Z</time></trkpt><trkpt lat="43.38510670980003" lon="11.41335496762776"><ele>260.0</ele><time>2026-05-02T16:21:52Z</time></trkpt><trkpt lat="43.38526002773696" lon="11.413262275030025"><ele>260.0</ele><time>2026-05-02T16:21:53Z</time></trkpt><trkpt lat="43.385412639418874" lon="11.41317966993612"><ele>260.0</ele><time>2026-05-02T16:21:54Z</time></trkpt><trkpt lat="43.38556548395684" lon="11.41310999273003"><ele>260.0</ele><time>2026-05-02T16:21:55Z</time></trkpt><trkpt lat="43.38570328474226" lon="11.413092903075173"><ele>259.75</ele><time>2026-05-02T16:21:56Z</time></trkpt><trkpt lat="43.38581659717874" lon="11.413141816338587"><ele>259.5</ele><time>2026-05-02T16:21:57Z</time></trkpt><trkpt lat="43.38592736744347" lon="11.413248107371546"><ele>259.25</ele><time>2026-05-02T16:21:58Z</time></trkpt><trkpt lat="43.38602135110516" lon="11.41336738324606"><ele>259.0</ele><time>2026-05-02T16:21:59Z</time></trkpt><trkpt lat="43.38611280455706" lon="11.413489917607555"><ele>259.0</ele><time>2026-05-02T16:22:00Z</time></trkpt><trkpt lat="43.386213937864305" lon="11.413619181800165"><ele>259.0</ele><time>2026-05-02T16:22:01Z</time></trkpt><trkpt lat="43.38632034861513" lon="11.413744661594528"><ele>259.0</ele><time>2026-05-02T16:22:02Z</time></trkpt><trkpt lat="43.38644518104903" lon="11.413837603094963"><ele>259.0</ele><time>2026-05-02T16:22:03Z</time></trkpt><trkpt lat="43.38659116704318" lon="11.413879334257633"><ele>257.66666666666663</ele><time>2026-05-02T16:22:04Z</time></trkpt><trkpt lat="43.386745634015014" lon="11.413859071305819"><ele>256.3333333333333</ele><time>2026-05-02T16:22:05Z</time></trkpt><trkpt lat="43.386896983879424" lon="11.413799137292273"><ele>255.0</ele><time>2026-05-02T16:22:06Z</time></trkpt><trkpt lat="43.38704108091885" lon="11.413704308014566"><ele>254.33333333333331</ele><time>2026-05-02T16:22:07Z</time></trkpt><trkpt lat="43.38718935277921" lon="11.413618213600905"><ele>253.66666666666666</ele><time>2026-05-02T16:22:08Z</time></trkpt><trkpt lat="43.38733845331646" lon="11.413545937080338"><ele>253.0</ele><time>2026-05-02T16:22:09Z</time></trkpt><trkpt lat="43.38749065180737" lon="11.413506489020715"><ele>253.0</ele><time>2026-05-02T16:22:10Z</time></trkpt><trkpt lat="43.38764774459678" lon="11.413505702514843"><ele>253.0</ele><time>2026-05-02T16:22:11Z</time></trkpt><trkpt lat="43.38779791053246" lon="11.41350243706868"><ele>253.0</ele><time>2026-05-02T16:22:12Z</time></trkpt><trkpt lat="43.38795012120515" lon="11.413506687811417"><ele>253.33333333333331</ele><time>2026-05-02T16:22:13Z</time></trkpt><trkpt lat="43.38810484446368" lon="11.413528299526874"><ele>253.66666666666669</ele><time>2026-05-02T16:22:14Z</time></trkpt><trkpt lat="43.3882597959789" lon="11.413565164726435"><ele>254.0</ele><time>2026-05-02T16:22:15Z</time></trkpt><trkpt lat="43.388416600912606" lon="11.413609943385572"><ele>254.0</ele><time>2026-05-02T16:22:16Z</time></trkpt><trkpt lat="43.38857573201701" lon="11.413651756970863"><ele>254.0</ele><time>2026-05-02T16:22:17Z</time></trkpt><trkpt lat="43.38873643915792" lon="11.413692076486155"><ele>254.0</ele><time>2026-05-02T16:22:18Z</time></trkpt><trkpt lat="43.38889837499816" lon="11.413737538947839"><ele>253.33333333333334</ele><time>2026-05-02T16:22:19Z</time></trkpt><trkpt lat="43.38906244610147" lon="11.413785571142943"><ele>252.66666666666669</ele><time>2026-05-02T16:22:20Z</time></trkpt><trkpt lat="43.38923101565053" lon="11.41383289347766"><ele>252.0</ele><time>2026-05-02T16:22:21Z</time></trkpt><trkpt lat="43.38939935241579" lon="11.413881316859896"><ele>253.66666666666669</ele><time>2026-05-02T16:22:22Z</time></trkpt><trkpt lat="43.38956281272057" lon="11.413931364271829"><ele>255.33333333333334</ele><time>2026-05-02T16:22:23Z</time></trkpt><trkpt lat="43.38971364892645" lon="11.413978039687304"><ele>257.0</ele><time>2026-05-02T16:22:24Z</time></trkpt><trkpt lat="43.38985670611751" lon="11.414021933451195"><ele>257.0</ele><time>2026-05-02T16:22:25Z</time></trkpt><trkpt lat="43.3899907065412" lon="11.414060228031998"><ele>257.0</ele><time>2026-05-02T16:22:26Z</time></trkpt><trkpt lat="43.39011641896607" lon="11.414093344118806"><ele>257.0</ele><time>2026-05-02T16:22:27Z</time></trkpt><trkpt lat="43.39023318854829" lon="11.414125224414748"><ele>257.0</ele><time>2026-05-02T16:22:28Z</time></trkpt><trkpt lat="43.39034132281727" lon="11.414149419803321"><ele>257.0</ele><time>2026-05-02T16:22:29Z</time></trkpt><trkpt lat="43.390441252485076" lon="11.414162181798055"><ele>257.0</ele><time>2026-05-02T16:22:30Z</time></trkpt><trkpt lat="43.39052257715149" lon="11.414183022875575"><ele>257.0</ele><time>2026-05-02T16:22:31Z</time></trkpt><trkpt lat="43.39058737967149" lon="11.414188229228442"><ele>257.0</ele><time>2026-05-02T16:22:32Z</time></trkpt><trkpt lat="43.39067233812854" lon="11.414195054993673"><ele>257.0</ele><time>2026-05-02T16:22:34Z</time></trkpt><trkpt lat="43.39072961748076" lon="11.41407549138237"><ele>257.0</ele><time>2026-05-02T16:22:57.999Z</time></trkpt><trkpt lat="43.39083823451605" lon="11.414140252029155"><ele>257.0</ele><time>2026-05-02T16:28:45.999Z</time></trkpt><trkpt lat="43.39092566895136" lon="11.414166430957218"><ele>257.0</ele><time>2026-05-02T16:28:46.999Z</time></trkpt><trkpt lat="43.39103497172003" lon="11.414173257080932"><ele>257.0</ele><time>2026-05-02T16:28:47.999Z</time></trkpt><trkpt lat="43.39115633485285" lon="11.414152012910902"><ele>257.0</ele><time>2026-05-02T16:28:48.999Z</time></trkpt><trkpt lat="43.39128121148008" lon="11.414103679954785"><ele>256.75</ele><time>2026-05-02T16:28:49.999Z</time></trkpt><trkpt lat="43.39141285639559" lon="11.41404092009583"><ele>256.5</ele><time>2026-05-02T16:28:50.999Z</time></trkpt><trkpt lat="43.391546339201994" lon="11.413964896581746"><ele>256.25</ele><time>2026-05-02T16:28:51.999Z</time></trkpt><trkpt lat="43.39167789022735" lon="11.413877317092876"><ele>256.0</ele><time>2026-05-02T16:28:52.999Z</time></trkpt><trkpt lat="43.39180722669418" lon="11.41378101059598"><ele>256.0</ele><time>2026-05-02T16:28:53.999Z</time></trkpt><trkpt lat="43.39193559740211" lon="11.413676143724267"><ele>256.0</ele><time>2026-05-02T16:28:54.999Z</time></trkpt><trkpt lat="43.39205849670995" lon="11.413557149585321"><ele>256.0</ele><time>2026-05-02T16:28:55.999Z</time></trkpt><trkpt lat="43.39217114071928" lon="11.413429662679361"><ele>256.0</ele><time>2026-05-02T16:28:56.999Z</time></trkpt><trkpt lat="43.392273597178146" lon="11.413291965114938"><ele>255.75</ele><time>2026-05-02T16:28:57.999Z</time></trkpt><trkpt lat="43.392363698784344" lon="11.41314107636929"><ele>255.5</ele><time>2026-05-02T16:28:58.999Z</time></trkpt><trkpt lat="43.39244433007564" lon="11.41298074138529"><ele>255.25</ele><time>2026-05-02T16:28:59.999Z</time></trkpt><trkpt lat="43.39251775910621" lon="11.412810271903718"><ele>255.0</ele><time>2026-05-02T16:29:00.999Z</time></trkpt><trkpt lat="43.39259077262602" lon="11.412637723690032"><ele>254.33333333333331</ele><time>2026-05-02T16:29:01.999Z</time></trkpt><trkpt lat="43.39266836272908" lon="11.412463867129391"><ele>253.66666666666666</ele><time>2026-05-02T16:29:02.999Z</time></trkpt><trkpt lat="43.392745330466965" lon="11.412289336394977"><ele>253.0</ele><time>2026-05-02T16:29:03.999Z</time></trkpt><trkpt lat="43.39282414806969" lon="11.412105409152208"><ele>252.0</ele><time>2026-05-02T16:29:04.999Z</time></trkpt><trkpt lat="43.39290622027623" lon="11.411920753910978"><ele>251.0</ele><time>2026-05-02T16:29:05.999Z</time></trkpt><trkpt lat="43.3929915301516" lon="11.4117348854335"><ele>250.0</ele><time>2026-05-02T16:29:06.999Z</time></trkpt><trkpt lat="43.39308163963365" lon="11.41154471652859"><ele>251.66666666666666</ele><time>2026-05-02T16:29:07.999Z</time></trkpt><trkpt lat="43.393180288778034" lon="11.41135112004929"><ele>253.33333333333331</ele><time>2026-05-02T16:29:08.999Z</time></trkpt><trkpt lat="43.393282790844154" lon="11.411157904956477"><ele>255.0</ele><time>2026-05-02T16:29:09.999Z</time></trkpt><trkpt lat="43.39338370896972" lon="11.41096589053355"><ele>255.0</ele><time>2026-05-02T16:29:10.999Z</time></trkpt><trkpt lat="43.39347708033515" lon="11.410767242976668"><ele>255.0</ele><time>2026-05-02T16:29:11.999Z</time></trkpt><trkpt lat="43.3935600123836" lon="11.410566211202909"><ele>255.0</ele><time>2026-05-02T16:29:12.999Z</time></trkpt><trkpt lat="43.393628731488946" lon="11.410356292455587"><ele>253.66666666666669</ele><time>2026-05-02T16:29:13.999Z</time></trkpt><trkpt lat="43.393684572656895" lon="11.410141000702673"><ele>252.33333333333334</ele><time>2026-05-02T16:29:14.999Z</time></trkpt><trkpt lat="43.39373265763516" lon="11.409923922789737"><ele>251.0</ele><time>2026-05-02T16:29:15.999Z</time></trkpt><trkpt lat="43.39378500309632" lon="11.40970776572415"><ele>254.66666666666669</ele><time>2026-05-02T16:29:16.999Z</time></trkpt><trkpt lat="43.393845487620176" lon="11.409497811879968"><ele>258.3333333333333</ele><time>2026-05-02T16:29:17.999Z</time></trkpt><trkpt lat="43.39391194881518" lon="11.409291711808406"><ele>262.0</ele><time>2026-05-02T16:29:18.999Z</time></trkpt><trkpt lat="43.39398180679442" lon="11.409085393494397"><ele>262.0</ele><time>2026-05-02T16:29:19.999Z</time></trkpt><trkpt lat="43.39406523361129" lon="11.408881584332146"><ele>262.0</ele><time>2026-05-02T16:29:20.999Z</time></trkpt><trkpt lat="43.39415752967618" lon="11.408680608580928"><ele>262.0</ele><time>2026-05-02T16:29:21.999Z</time></trkpt><trkpt lat="43.3942489070208" lon="11.408479554896932"><ele>259.66666666666663</ele><time>2026-05-02T16:29:22.999Z</time></trkpt><trkpt lat="43.39433941838789" lon="11.408278575999297"><ele>257.3333333333333</ele><time>2026-05-02T16:29:23.999Z</time></trkpt><trkpt lat="43.39443095113792" lon="11.4080698081519"><ele>255.0</ele><time>2026-05-02T16:29:24.999Z</time></trkpt><trkpt lat="43.39452705277603" lon="11.407852810687332"><ele>253.66666666666669</ele><time>2026-05-02T16:29:25.999Z</time></trkpt><trkpt lat="43.39462228529114" lon="11.407635432713972"><ele>252.33333333333334</ele><time>2026-05-02T16:29:26.999Z</time></trkpt><trkpt lat="43.39473056841506" lon="11.407428455299359"><ele>251.0</ele><time>2026-05-02T16:29:27.999Z</time></trkpt><trkpt lat="43.39482704815801" lon="11.407217110543348"><ele>253.0</ele><time>2026-05-02T16:29:28.999Z</time></trkpt><trkpt lat="43.39493855892163" lon="11.40702129801832"><ele>255.0</ele><time>2026-05-02T16:29:29.999Z</time></trkpt><trkpt lat="43.39504892018088" lon="11.406817231727699"><ele>257.0</ele><time>2026-05-02T16:29:30.999Z</time></trkpt><trkpt lat="43.39517605796824" lon="11.406634214747497"><ele>257.0</ele><time>2026-05-02T16:29:31.999Z</time></trkpt><trkpt lat="43.39531506137464" lon="11.406469040905568"><ele>257.0</ele><time>2026-05-02T16:29:32.999Z</time></trkpt><trkpt lat="43.39544989907036" lon="11.406296104138796"><ele>257.0</ele><time>2026-05-02T16:29:33.999Z</time></trkpt><trkpt lat="43.39559000271336" lon="11.406129134352959"><ele>258.0</ele><time>2026-05-02T16:29:34.999Z</time></trkpt><trkpt lat="43.395739442251845" lon="11.405973508692535"><ele>259.0</ele><time>2026-05-02T16:29:35.999Z</time></trkpt><trkpt lat="43.395889122723126" lon="11.405807533994606"><ele>260.0</ele><time>2026-05-02T16:29:36.999Z</time></trkpt><trkpt lat="43.396043534226166" lon="11.405633011814828"><ele>261.6666666666667</ele><time>2026-05-02T16:29:37.999Z</time></trkpt><trkpt lat="43.39620396530564" lon="11.405451141097725"><ele>263.3333333333333</ele><time>2026-05-02T16:29:38.999Z</time></trkpt><trkpt lat="43.39635741346753" lon="11.405248178196027"><ele>265.0</ele><time>2026-05-02T16:29:39.999Z</time></trkpt><trkpt lat="43.396531056914995" lon="11.405080349514044"><ele>265.0</ele><time>2026-05-02T16:29:40.999Z</time></trkpt><trkpt lat="43.396691618942484" lon="11.404895552104515"><ele>265.0</ele><time>2026-05-02T16:29:41.999Z</time></trkpt><trkpt lat="43.396843893795584" lon="11.404701909214573"><ele>265.0</ele><time>2026-05-02T16:29:42.999Z</time></trkpt><trkpt lat="43.396989945662" lon="11.404505968873343"><ele>264.66666666666663</ele><time>2026-05-02T16:29:43.999Z</time></trkpt><trkpt lat="43.39713310043408" lon="11.404308771952813"><ele>264.3333333333333</ele><time>2026-05-02T16:29:44.999Z</time></trkpt><trkpt lat="43.39726602127914" lon="11.404104843826047"><ele>264.0</ele><time>2026-05-02T16:29:45.999Z</time></trkpt><trkpt lat="43.39741128476591" lon="11.403927526918478"><ele>261.6666666666667</ele><time>2026-05-02T16:29:46.999Z</time></trkpt><trkpt lat="43.39755680879959" lon="11.4037557129479"><ele>259.33333333333337</ele><time>2026-05-02T16:29:47.999Z</time></trkpt><trkpt lat="43.39770426745735" lon="11.403613751951703"><ele>257.0</ele><time>2026-05-02T16:29:48.999Z</time></trkpt><trkpt lat="43.397836082656134" lon="11.403462346114091"><ele>257.0</ele><time>2026-05-02T16:29:49.999Z</time></trkpt><trkpt lat="43.39795652420246" lon="11.403326523508857"><ele>257.0</ele><time>2026-05-02T16:29:50.999Z</time></trkpt><trkpt lat="43.39807943200536" lon="11.40321576529475"><ele>257.0</ele><time>2026-05-02T16:29:51.999Z</time></trkpt><trkpt lat="43.39820249055619" lon="11.403128645485744"><ele>257.0</ele><time>2026-05-02T16:29:52.999Z</time></trkpt><trkpt lat="43.398343200969094" lon="11.403129844793531"><ele>259.33333333333337</ele><time>2026-05-02T16:29:53.999Z</time></trkpt><trkpt lat="43.39849180105401" lon="11.403131890555054"><ele>261.6666666666667</ele><time>2026-05-02T16:29:54.999Z</time></trkpt><trkpt lat="43.39864728202493" lon="11.403187569229525"><ele>264.0</ele><time>2026-05-02T16:29:55.999Z</time></trkpt><trkpt lat="43.3988130192064" lon="11.403258787246003"><ele>264.0</ele><time>2026-05-02T16:29:56.999Z</time></trkpt><trkpt lat="43.3989782416448" lon="11.403327778506634"><ele>264.0</ele><time>2026-05-02T16:29:57.999Z</time></trkpt><trkpt lat="43.39914040705116" lon="11.40340689494694"><ele>264.0</ele><time>2026-05-02T16:29:58.999Z</time></trkpt><trkpt lat="43.39929110189595" lon="11.40350974751185"><ele>264.0</ele><time>2026-05-02T16:29:59.999Z</time></trkpt><trkpt lat="43.39942900328472" lon="11.403638034195895"><ele>264.0</ele><time>2026-05-02T16:30:00.999Z</time></trkpt><trkpt lat="43.39955525400941" lon="11.40378377957295"><ele>264.0</ele><time>2026-05-02T16:30:01.999Z</time></trkpt><trkpt lat="43.39966542646583" lon="11.40395294499709"><ele>263.6666666666667</ele><time>2026-05-02T16:30:02.999Z</time></trkpt><trkpt lat="43.399753483532976" lon="11.404144408607698"><ele>263.33333333333337</ele><time>2026-05-02T16:30:03.999Z</time></trkpt><trkpt lat="43.39984269562495" lon="11.404345999969301"><ele>263.0</ele><time>2026-05-02T16:30:04.999Z</time></trkpt><trkpt lat="43.399946235862046" lon="11.404537485778343"><ele>267.6666666666667</ele><time>2026-05-02T16:30:05.999Z</time></trkpt><trkpt lat="43.40006249992261" lon="11.404709852483343"><ele>272.3333333333333</ele><time>2026-05-02T16:30:06.999Z</time></trkpt><trkpt lat="43.40019418727956" lon="11.404864456059338"><ele>277.0</ele><time>2026-05-02T16:30:07.999Z</time></trkpt><trkpt lat="43.400340335989334" lon="11.404996226189512"><ele>277.0</ele><time>2026-05-02T16:30:08.999Z</time></trkpt><trkpt lat="43.40049895433393" lon="11.40511021977876"><ele>277.0</ele><time>2026-05-02T16:30:09.999Z</time></trkpt><trkpt lat="43.40066624866225" lon="11.405226042461265"><ele>277.0</ele><time>2026-05-02T16:30:11Z</time></trkpt><trkpt lat="43.40082541455318" lon="11.405368594451597"><ele>274.0</ele><time>2026-05-02T16:30:12Z</time></trkpt><trkpt lat="43.40099336600557" lon="11.405496053664244"><ele>271.0</ele><time>2026-05-02T16:30:13Z</time></trkpt><trkpt lat="43.40116519958965" lon="11.405626459038023"><ele>268.0</ele><time>2026-05-02T16:30:14Z</time></trkpt><trkpt lat="43.401341218044756" lon="11.405740564823596"><ele>265.66666666666663</ele><time>2026-05-02T16:30:15Z</time></trkpt><trkpt lat="43.401501979109874" lon="11.405874138538342"><ele>263.3333333333333</ele><time>2026-05-02T16:30:16Z</time></trkpt><trkpt lat="43.40165445922269" lon="11.405997924101065"><ele>261.0</ele><time>2026-05-02T16:30:17Z</time></trkpt><trkpt lat="43.40179960262933" lon="11.406108357921688"><ele>261.0</ele><time>2026-05-02T16:30:18Z</time></trkpt><trkpt lat="43.40194146273132" lon="11.40619758836124"><ele>261.0</ele><time>2026-05-02T16:30:19Z</time></trkpt><trkpt lat="43.4020819837575" lon="11.406258097274097"><ele>261.0</ele><time>2026-05-02T16:30:20Z</time></trkpt><trkpt lat="43.402225519613005" lon="11.406265169714292"><ele>261.0</ele><time>2026-05-02T16:30:21Z</time></trkpt><trkpt lat="43.40237391708479" lon="11.406217003689141"><ele>262.0</ele><time>2026-05-02T16:30:22Z</time></trkpt><trkpt lat="43.40251797536403" lon="11.406116582107796"><ele>263.0</ele><time>2026-05-02T16:30:23Z</time></trkpt><trkpt lat="43.40265516759395" lon="11.405976498414924"><ele>264.0</ele><time>2026-05-02T16:30:24Z</time></trkpt><trkpt lat="43.402809129497086" lon="11.405839112108707"><ele>264.0</ele><time>2026-05-02T16:30:25Z</time></trkpt><trkpt lat="43.402994415276254" lon="11.405763243825884"><ele>264.0</ele><time>2026-05-02T16:30:26Z</time></trkpt><trkpt lat="43.40318967789456" lon="11.40566461782629"><ele>264.0</ele><time>2026-05-02T16:30:27Z</time></trkpt><trkpt lat="43.403402424907604" lon="11.405582810674714"><ele>264.6666666666667</ele><time>2026-05-02T16:30:28Z</time></trkpt><trkpt lat="43.403617326704385" lon="11.405501152184186"><ele>265.33333333333337</ele><time>2026-05-02T16:30:29Z</time></trkpt><trkpt lat="43.403820154752324" lon="11.4054325809815"><ele>266.0</ele><time>2026-05-02T16:30:30Z</time></trkpt><trkpt lat="43.40401810492599" lon="11.405343352621227"><ele>266.0</ele><time>2026-05-02T16:30:31Z</time></trkpt><trkpt lat="43.404210938406436" lon="11.405222568844167"><ele>266.0</ele><time>2026-05-02T16:30:32Z</time></trkpt><trkpt lat="43.40438893102388" lon="11.405084727250587"><ele>266.0</ele><time>2026-05-02T16:30:33Z</time></trkpt><trkpt lat="43.4045515755323" lon="11.404953416930397"><ele>267.6666666666667</ele><time>2026-05-02T16:30:34Z</time></trkpt><trkpt lat="43.404707910044166" lon="11.404863129315805"><ele>269.3333333333333</ele><time>2026-05-02T16:30:35Z</time></trkpt><trkpt lat="43.40486768530722" lon="11.404830323781484"><ele>271.0</ele><time>2026-05-02T16:30:36Z</time></trkpt><trkpt lat="43.40504038885876" lon="11.404844338984063"><ele>271.0</ele><time>2026-05-02T16:30:37Z</time></trkpt><trkpt lat="43.4052199881954" lon="11.4048785376723"><ele>271.0</ele><time>2026-05-02T16:30:38Z</time></trkpt><trkpt lat="43.40540220047265" lon="11.404880532089093"><ele>271.0</ele><time>2026-05-02T16:30:39Z</time></trkpt><trkpt lat="43.40557736828449" lon="11.404922660496142"><ele>272.0</ele><time>2026-05-02T16:30:40Z</time></trkpt><trkpt lat="43.40574773150207" lon="11.40483707488902"><ele>273.0</ele><time>2026-05-02T16:30:41Z</time></trkpt><trkpt lat="43.4059051292733" lon="11.404799783446101"><ele>274.0</ele><time>2026-05-02T16:30:42Z</time></trkpt><trkpt lat="43.406055600097254" lon="11.404757052231815"><ele>274.0</ele><time>2026-05-02T16:30:43Z</time></trkpt><trkpt lat="43.406198348088544" lon="11.404702663715515"><ele>274.0</ele><time>2026-05-02T16:30:44Z</time></trkpt><trkpt lat="43.406340787730066" lon="11.404639810218354"><ele>274.0</ele><time>2026-05-02T16:30:44.999Z</time></trkpt><trkpt lat="43.406480795619174" lon="11.404571541903216"><ele>274.0</ele><time>2026-05-02T16:30:45.999Z</time></trkpt><trkpt lat="43.40661321051973" lon="11.404498380126343"><ele>272.5</ele><time>2026-05-02T16:30:46.999Z</time></trkpt><trkpt lat="43.406742666602874" lon="11.404428584755975"><ele>271.0</ele><time>2026-05-02T16:30:47.999Z</time></trkpt><trkpt lat="43.40687149444521" lon="11.404355881125086"><ele>269.5</ele><time>2026-05-02T16:30:48.999Z</time></trkpt><trkpt lat="43.407002267048604" lon="11.404284164772395"><ele>268.0</ele><time>2026-05-02T16:30:49.999Z</time></trkpt><trkpt lat="43.407136048992534" lon="11.40422422801776"><ele>270.75</ele><time>2026-05-02T16:30:50.999Z</time></trkpt><trkpt lat="43.407270346855334" lon="11.404164055220674"><ele>273.5</ele><time>2026-05-02T16:30:51.999Z</time></trkpt><trkpt lat="43.407408408073906" lon="11.404105710001698"><ele>276.25</ele><time>2026-05-02T16:30:52.999Z</time></trkpt><trkpt lat="43.40754757976908" lon="11.40404976881043"><ele>279.0</ele><time>2026-05-02T16:30:53.999Z</time></trkpt><trkpt lat="43.407689181779915" lon="11.403996759578908"><ele>279.0</ele><time>2026-05-02T16:30:54.999Z</time></trkpt><trkpt lat="43.40783166821171" lon="11.403948021002384"><ele>279.0</ele><time>2026-05-02T16:30:55.999Z</time></trkpt><trkpt lat="43.40797639335229" lon="11.403907107558542"><ele>279.0</ele><time>2026-05-02T16:30:56.999Z</time></trkpt><trkpt lat="43.40812070269681" lon="11.403877012302626"><ele>279.0</ele><time>2026-05-02T16:30:57.999Z</time></trkpt><trkpt lat="43.40826120620272" lon="11.403859400223759"><ele>280.0</ele><time>2026-05-02T16:30:58.999Z</time></trkpt><trkpt lat="43.408391435626896" lon="11.403850297062405"><ele>281.0</ele><time>2026-05-02T16:30:59.999Z</time></trkpt><trkpt lat="43.408517771265664" lon="11.40383445654955"><ele>282.0</ele><time>2026-05-02T16:31:00.999Z</time></trkpt><trkpt lat="43.408640345245836" lon="11.40378436458187"><ele>283.0</ele><time>2026-05-02T16:31:01.999Z</time></trkpt><trkpt lat="43.40875287282788" lon="11.403680062420888"><ele>281.66666666666663</ele><time>2026-05-02T16:31:02.999Z</time></trkpt><trkpt lat="43.40885527285257" lon="11.40353231838863"><ele>280.3333333333333</ele><time>2026-05-02T16:31:03.999Z</time></trkpt><trkpt lat="43.4089568332255" lon="11.403363079189466"><ele>279.0</ele><time>2026-05-02T16:31:04.999Z</time></trkpt><trkpt lat="43.409064712709416" lon="11.403170731885401"><ele>274.6666666666667</ele><time>2026-05-02T16:31:05.999Z</time></trkpt><trkpt lat="43.40919065301148" lon="11.402977168326437"><ele>270.33333333333337</ele><time>2026-05-02T16:31:06.999Z</time></trkpt><trkpt lat="43.40933522529463" lon="11.402767831025708"><ele>266.0</ele><time>2026-05-02T16:31:07.999Z</time></trkpt><trkpt lat="43.40948925555931" lon="11.402551164127336"><ele>266.0</ele><time>2026-05-02T16:31:08.999Z</time></trkpt><trkpt lat="43.409648033310035" lon="11.402341136396837"><ele>266.0</ele><time>2026-05-02T16:31:09.999Z</time></trkpt><trkpt lat="43.40980619667678" lon="11.402136419398568"><ele>266.0</ele><time>2026-05-02T16:31:10.999Z</time></trkpt><trkpt lat="43.409961891594214" lon="11.401922364735617"><ele>266.33333333333337</ele><time>2026-05-02T16:31:11.999Z</time></trkpt><trkpt lat="43.41011469779826" lon="11.401707437109776"><ele>266.6666666666667</ele><time>2026-05-02T16:31:12.999Z</time></trkpt><trkpt lat="43.410269555124245" lon="11.401497082148786"><ele>267.0</ele><time>2026-05-02T16:31:13.999Z</time></trkpt><trkpt lat="43.4104188275181" lon="11.401283250404857"><ele>269.3333333333333</ele><time>2026-05-02T16:31:14.999Z</time></trkpt><trkpt lat="43.41056960031447" lon="11.401071051811916"><ele>271.66666666666663</ele><time>2026-05-02T16:31:15.999Z</time></trkpt><trkpt lat="43.4107182499048" lon="11.400858803783459"><ele>274.0</ele><time>2026-05-02T16:31:16.999Z</time></trkpt><trkpt lat="43.41086664808604" lon="11.400650865531263"><ele>271.3333333333333</ele><time>2026-05-02T16:31:17.999Z</time></trkpt><trkpt lat="43.4110176602598" lon="11.400438820908466"><ele>268.6666666666667</ele><time>2026-05-02T16:31:18.999Z</time></trkpt><trkpt lat="43.41116625156253" lon="11.400226371165948"><ele>266.0</ele><time>2026-05-02T16:31:19.999Z</time></trkpt><trkpt lat="43.411315779370554" lon="11.400015887480784"><ele>266.33333333333337</ele><time>2026-05-02T16:31:20.999Z</time></trkpt><trkpt lat="43.411463133732276" lon="11.399806215731184"><ele>266.6666666666667</ele><time>2026-05-02T16:31:21.999Z</time></trkpt><trkpt lat="43.41160482875464" lon="11.399600654903116"><ele>267.0</ele><time>2026-05-02T16:31:22.999Z</time></trkpt><trkpt lat="43.41173690729732" lon="11.399417006068708"><ele>267.0</ele><time>2026-05-02T16:31:23.999Z</time></trkpt><trkpt lat="43.41186940925601" lon="11.399259573294506"><ele>267.0</ele><time>2026-05-02T16:31:24.999Z</time></trkpt><trkpt lat="43.41201292354779" lon="11.399137555046044"><ele>267.0</ele><time>2026-05-02T16:31:25.999Z</time></trkpt><trkpt lat="43.412168908039504" lon="11.39905476376248"><ele>267.0</ele><time>2026-05-02T16:31:26.999Z</time></trkpt><trkpt lat="43.41233051019847" lon="11.398988422340807"><ele>267.0</ele><time>2026-05-02T16:31:27.999Z</time></trkpt><trkpt lat="43.412497643310914" lon="11.398950142527045"><ele>267.0</ele><time>2026-05-02T16:31:28.999Z</time></trkpt><trkpt lat="43.41267084202331" lon="11.398947919376624"><ele>267.0</ele><time>2026-05-02T16:31:29.999Z</time></trkpt><trkpt lat="43.41284959575603" lon="11.398965387514139"><ele>267.0</ele><time>2026-05-02T16:31:30.999Z</time></trkpt><trkpt lat="43.41303274169712" lon="11.398992980736804"><ele>267.0</ele><time>2026-05-02T16:31:31.999Z</time></trkpt><trkpt lat="43.41322205466113" lon="11.399021841965828"><ele>267.3333333333333</ele><time>2026-05-02T16:31:32.999Z</time></trkpt><trkpt lat="43.41341632342232" lon="11.399047799612996"><ele>267.66666666666663</ele><time>2026-05-02T16:31:33.999Z</time></trkpt><trkpt lat="43.41361412224102" lon="11.399072001084265"><ele>268.0</ele><time>2026-05-02T16:31:34.999Z</time></trkpt><trkpt lat="43.413815609533415" lon="11.399096948613002"><ele>268.66666666666663</ele><time>2026-05-02T16:31:35.999Z</time></trkpt><trkpt lat="43.414018097820374" lon="11.399121427298535"><ele>269.3333333333333</ele><time>2026-05-02T16:31:36.999Z</time></trkpt><trkpt lat="43.41422280047154" lon="11.399147885369157"><ele>270.0</ele><time>2026-05-02T16:31:37.999Z</time></trkpt><trkpt lat="43.41442859146276" lon="11.399177261436476"><ele>270.0</ele><time>2026-05-02T16:31:38.999Z</time></trkpt><trkpt lat="43.41463286303647" lon="11.399201353512842"><ele>270.0</ele><time>2026-05-02T16:31:39.999Z</time></trkpt><trkpt lat="43.414838755527974" lon="11.399208970139707"><ele>270.0</ele><time>2026-05-02T16:31:40.999Z</time></trkpt><trkpt lat="43.41504555483626" lon="11.399186377289796"><ele>271.3333333333333</ele><time>2026-05-02T16:31:41.999Z</time></trkpt><trkpt lat="43.41525334626333" lon="11.399120577814156"><ele>272.66666666666663</ele><time>2026-05-02T16:31:42.999Z</time></trkpt><trkpt lat="43.415462914693144" lon="11.399020022279629"><ele>274.0</ele><time>2026-05-02T16:31:43.999Z</time></trkpt><trkpt lat="43.41567918611299" lon="11.39890287626079"><ele>284.5</ele><time>2026-05-02T16:31:44.999Z</time></trkpt><trkpt lat="43.41589726382195" lon="11.398786623047336"><ele>295.0</ele><time>2026-05-02T16:31:45.999Z</time></trkpt><trkpt lat="43.416115265803185" lon="11.398680552995947"><ele>292.66666666666663</ele><time>2026-05-02T16:31:46.999Z</time></trkpt><trkpt lat="43.416333509334414" lon="11.398585317393266"><ele>290.3333333333333</ele><time>2026-05-02T16:31:47.999Z</time></trkpt><trkpt lat="43.41654478675109" lon="11.398503558455348"><ele>288.0</ele><time>2026-05-02T16:31:48.999Z</time></trkpt><trkpt lat="43.41673966391141" lon="11.398439657249096"><ele>288.0</ele><time>2026-05-02T16:31:49.999Z</time></trkpt><trkpt lat="43.41691875255746" lon="11.398397289744047"><ele>288.0</ele><time>2026-05-02T16:31:50.999Z</time></trkpt><trkpt lat="43.41708625890641" lon="11.398395495530142"><ele>288.0</ele><time>2026-05-02T16:31:51.999Z</time></trkpt><trkpt lat="43.41725104634829" lon="11.398444247107419"><ele>290.3333333333333</ele><time>2026-05-02T16:31:52.999Z</time></trkpt><trkpt lat="43.41741758872529" lon="11.398524679070697"><ele>292.66666666666663</ele><time>2026-05-02T16:31:53.999Z</time></trkpt><trkpt lat="43.41757571385085" lon="11.398633836750253"><ele>295.0</ele><time>2026-05-02T16:31:54.999Z</time></trkpt><trkpt lat="43.41772301891458" lon="11.39874521157498"><ele>293.3333333333333</ele><time>2026-05-02T16:31:55.999Z</time></trkpt><trkpt lat="43.41785237883164" lon="11.3988894321454"><ele>291.6666666666667</ele><time>2026-05-02T16:31:56.999Z</time></trkpt><trkpt lat="43.41796421549454" lon="11.399071814878782"><ele>290.0</ele><time>2026-05-02T16:31:57.999Z</time></trkpt><trkpt lat="43.41806928309125" lon="11.399277714804281"><ele>290.0</ele><time>2026-05-02T16:31:58.999Z</time></trkpt><trkpt lat="43.41819618624116" lon="11.399471386823636"><ele>290.0</ele><time>2026-05-02T16:31:59.999Z</time></trkpt><trkpt lat="43.41834251462213" lon="11.399654600213744"><ele>290.0</ele><time>2026-05-02T16:32:00.999Z</time></trkpt><trkpt lat="43.41849298470055" lon="11.399834300736323"><ele>288.6666666666667</ele><time>2026-05-02T16:32:01.999Z</time></trkpt><trkpt lat="43.418646725802446" lon="11.400017898795483"><ele>287.3333333333333</ele><time>2026-05-02T16:32:02.999Z</time></trkpt><trkpt lat="43.41879940916037" lon="11.400200169593381"><ele>286.0</ele><time>2026-05-02T16:32:03.999Z</time></trkpt><trkpt lat="43.41894548397949" lon="11.400392786384069"><ele>282.66666666666663</ele><time>2026-05-02T16:32:04.999Z</time></trkpt><trkpt lat="43.419072187923646" lon="11.400604326297485"><ele>279.3333333333333</ele><time>2026-05-02T16:32:05.999Z</time></trkpt><trkpt lat="43.41918667464511" lon="11.400830711014716"><ele>276.0</ele><time>2026-05-02T16:32:06.999Z</time></trkpt><trkpt lat="43.41928720196797" lon="11.401066522310348"><ele>276.0</ele><time>2026-05-02T16:32:07.999Z</time></trkpt><trkpt lat="43.41937592164584" lon="11.40130930262535"><ele>276.0</ele><time>2026-05-02T16:32:08.999Z</time></trkpt><trkpt lat="43.419456705032175" lon="11.401558631222649"><ele>276.0</ele><time>2026-05-02T16:32:09.999Z</time></trkpt><trkpt lat="43.41953625907518" lon="11.401810209552915"><ele>276.0</ele><time>2026-05-02T16:32:10.999Z</time></trkpt><trkpt lat="43.41962748159503" lon="11.402046663675472"><ele>276.0</ele><time>2026-05-02T16:32:11.999Z</time></trkpt><trkpt lat="43.41974043268569" lon="11.402253023285274"><ele>276.0</ele><time>2026-05-02T16:32:12.999Z</time></trkpt><trkpt lat="43.41987960877576" lon="11.402422407371214"><ele>278.3333333333333</ele><time>2026-05-02T16:32:13.999Z</time></trkpt><trkpt lat="43.42004197890639" lon="11.402559976154876"><ele>280.66666666666663</ele><time>2026-05-02T16:32:14.999Z</time></trkpt><trkpt lat="43.420220825272466" lon="11.402674945075715"><ele>283.0</ele><time>2026-05-02T16:32:15.999Z</time></trkpt><trkpt lat="43.42040799799003" lon="11.402779750296803"><ele>284.0</ele><time>2026-05-02T16:32:17Z</time></trkpt><trkpt lat="43.42059255982545" lon="11.402894890035103"><ele>285.0</ele><time>2026-05-02T16:32:18Z</time></trkpt><trkpt lat="43.42076676641684" lon="11.403037790192386"><ele>286.0</ele><time>2026-05-02T16:32:19Z</time></trkpt><trkpt lat="43.420925153215734" lon="11.403215051469513"><ele>286.0</ele><time>2026-05-02T16:32:20Z</time></trkpt><trkpt lat="43.421084157129386" lon="11.403394564722976"><ele>286.0</ele><time>2026-05-02T16:32:21Z</time></trkpt><trkpt lat="43.421248206040815" lon="11.403574849731736"><ele>286.0</ele><time>2026-05-02T16:32:22Z</time></trkpt><trkpt lat="43.42140645596759" lon="11.40375744273996"><ele>286.66666666666663</ele><time>2026-05-02T16:32:23Z</time></trkpt><trkpt lat="43.42156464183487" lon="11.403937643339454"><ele>287.3333333333333</ele><time>2026-05-02T16:32:24Z</time></trkpt><trkpt lat="43.42171222336047" lon="11.404122709506847"><ele>288.0</ele><time>2026-05-02T16:32:25Z</time></trkpt><trkpt lat="43.42183797159274" lon="11.40432042401623"><ele>288.0</ele><time>2026-05-02T16:32:26Z</time></trkpt><trkpt lat="43.42194842857205" lon="11.404509837998782"><ele>288.0</ele><time>2026-05-02T16:32:27Z</time></trkpt><trkpt lat="43.422057581647096" lon="11.404678747083894"><ele>288.0</ele><time>2026-05-02T16:32:28Z</time></trkpt><trkpt lat="43.4221787460217" lon="11.404811998798824"><ele>287.3333333333333</ele><time>2026-05-02T16:32:29Z</time></trkpt><trkpt lat="43.42232400383279" lon="11.40491665109344"><ele>286.66666666666663</ele><time>2026-05-02T16:32:30Z</time></trkpt><trkpt lat="43.42248006858122" lon="11.404994691435308"><ele>286.0</ele><time>2026-05-02T16:32:31Z</time></trkpt><trkpt lat="43.42263665772642" lon="11.40504441953272"><ele>286.0</ele><time>2026-05-02T16:32:32Z</time></trkpt><trkpt lat="43.42278177199834" lon="11.405062626273118"><ele>286.0</ele><time>2026-05-02T16:32:33Z</time></trkpt><trkpt lat="43.422898777745836" lon="11.405030710936469"><ele>286.0</ele><time>2026-05-02T16:32:34Z</time></trkpt><trkpt lat="43.42298731149232" lon="11.404923014717864"><ele>286.0</ele><time>2026-05-02T16:32:35Z</time></trkpt><trkpt lat="43.423064095957116" lon="11.40476467412941"><ele>287.3333333333333</ele><time>2026-05-02T16:32:36Z</time></trkpt><trkpt lat="43.4231397216713" lon="11.404568068249022"><ele>288.6666666666667</ele><time>2026-05-02T16:32:37Z</time></trkpt><trkpt lat="43.4232398356001" lon="11.404408377373183"><ele>290.0</ele><time>2026-05-02T16:32:38Z</time></trkpt><trkpt lat="43.42335789017408" lon="11.404294169769189"><ele>290.0</ele><time>2026-05-02T16:32:39Z</time></trkpt><trkpt lat="43.423485482368086" lon="11.404214400783806"><ele>290.0</ele><time>2026-05-02T16:32:40Z</time></trkpt><trkpt lat="43.423618961485765" lon="11.404166316976754"><ele>290.0</ele><time>2026-05-02T16:32:41Z</time></trkpt><trkpt lat="43.423747517720216" lon="11.404123087935128"><ele>290.0</ele><time>2026-05-02T16:32:42Z</time></trkpt><trkpt lat="43.42387997656336" lon="11.404105229783703"><ele>288.0</ele><time>2026-05-02T16:32:43Z</time></trkpt><trkpt lat="43.424024476259376" lon="11.404137996287842"><ele>286.0</ele><time>2026-05-02T16:32:44Z</time></trkpt><trkpt lat="43.42417800584561" lon="11.404173883974476"><ele>284.0</ele><time>2026-05-02T16:32:45Z</time></trkpt><trkpt lat="43.424344917945504" lon="11.404168508592868"><ele>284.0</ele><time>2026-05-02T16:32:46Z</time></trkpt><trkpt lat="43.42451916784301" lon="11.404134740732205"><ele>284.0</ele><time>2026-05-02T16:32:46.999Z</time></trkpt><trkpt lat="43.424695985240135" lon="11.404104660257012"><ele>284.0</ele><time>2026-05-02T16:32:47.999Z</time></trkpt><trkpt lat="43.42485780455892" lon="11.404085084294188"><ele>284.6666666666667</ele><time>2026-05-02T16:32:48.999Z</time></trkpt><trkpt lat="43.4250038615256" lon="11.404091185034014"><ele>285.3333333333333</ele><time>2026-05-02T16:32:49.999Z</time></trkpt><trkpt lat="43.4251455431743" lon="11.404148178761876"><ele>286.0</ele><time>2026-05-02T16:32:50.999Z</time></trkpt><trkpt lat="43.4252834725827" lon="11.404249728958224"><ele>286.0</ele><time>2026-05-02T16:32:51.999Z</time></trkpt><trkpt lat="43.42542381886279" lon="11.404362885895557"><ele>286.0</ele><time>2026-05-02T16:32:52.999Z</time></trkpt><trkpt lat="43.42558565218424" lon="11.404453802120717"><ele>286.0</ele><time>2026-05-02T16:32:53.999Z</time></trkpt><trkpt lat="43.4257586887911" lon="11.404529710794737"><ele>286.0</ele><time>2026-05-02T16:32:54.999Z</time></trkpt><trkpt lat="43.42592978707134" lon="11.404605767411404"><ele>286.0</ele><time>2026-05-02T16:32:55.999Z</time></trkpt><trkpt lat="43.426102768606" lon="11.404671982509479"><ele>286.0</ele><time>2026-05-02T16:32:56.999Z</time></trkpt><trkpt lat="43.426263667541875" lon="11.404742184977644"><ele>290.3333333333333</ele><time>2026-05-02T16:32:57.999Z</time></trkpt><trkpt lat="43.4263876030347" lon="11.404856104696924"><ele>294.6666666666667</ele><time>2026-05-02T16:32:58.999Z</time></trkpt><trkpt lat="43.42648740121255" lon="11.40502395349978"><ele>299.0</ele><time>2026-05-02T16:32:59.999Z</time></trkpt><trkpt lat="43.426578486912724" lon="11.405213252572775"><ele>299.0</ele><time>2026-05-02T16:33:00.999Z</time></trkpt><trkpt lat="43.42666165166847" lon="11.40539706822735"><ele>299.0</ele><time>2026-05-02T16:33:01.999Z</time></trkpt><trkpt lat="43.426720390734744" lon="11.405575277686468"><ele>299.0</ele><time>2026-05-02T16:33:02.999Z</time></trkpt><trkpt lat="43.42674242360003" lon="11.405774307854962"><ele>299.0</ele><time>2026-05-02T16:33:03.999Z</time></trkpt><trkpt lat="43.426747036877934" lon="11.405988850456685"><ele>295.6666666666667</ele><time>2026-05-02T16:33:04.999Z</time></trkpt><trkpt lat="43.4267359378987" lon="11.40620907308346"><ele>292.3333333333333</ele><time>2026-05-02T16:33:05.999Z</time></trkpt><trkpt lat="43.426713623084595" lon="11.406435942146706"><ele>289.0</ele><time>2026-05-02T16:33:06.999Z</time></trkpt><trkpt lat="43.42669037141632" lon="11.406652632537632"><ele>288.5</ele><time>2026-05-02T16:33:07.999Z</time></trkpt><trkpt lat="43.42667175118944" lon="11.406852380030791"><ele>288.0</ele><time>2026-05-02T16:33:08.999Z</time></trkpt><trkpt lat="43.42666495165541" lon="11.407026115881795"><ele>287.5</ele><time>2026-05-02T16:33:09.999Z</time></trkpt><trkpt lat="43.42668867671282" lon="11.40718549661536"><ele>287.0</ele><time>2026-05-02T16:33:10.999Z</time></trkpt><trkpt lat="43.42676309360795" lon="11.407317616429909"><ele>287.0</ele><time>2026-05-02T16:33:11.999Z</time></trkpt><trkpt lat="43.42687998873692" lon="11.40742589586076"><ele>287.0</ele><time>2026-05-02T16:33:12.999Z</time></trkpt><trkpt lat="43.42701432370848" lon="11.40752786919025"><ele>287.0</ele><time>2026-05-02T16:33:13.999Z</time></trkpt><trkpt lat="43.427160423449074" lon="11.407646015327733"><ele>287.6666666666667</ele><time>2026-05-02T16:33:14.999Z</time></trkpt><trkpt lat="43.42729762854615" lon="11.407791307982574"><ele>288.3333333333333</ele><time>2026-05-02T16:33:15.999Z</time></trkpt><trkpt lat="43.42742391700639" lon="11.407961190838634"><ele>289.0</ele><time>2026-05-02T16:33:16.999Z</time></trkpt><trkpt lat="43.42754493806929" lon="11.408125085469539"><ele>289.0</ele><time>2026-05-02T16:33:17.999Z</time></trkpt><trkpt lat="43.42768135894334" lon="11.40825575887276"><ele>289.0</ele><time>2026-05-02T16:33:18.999Z</time></trkpt><trkpt lat="43.42784144070559" lon="11.408338780976186"><ele>289.0</ele><time>2026-05-02T16:33:19.999Z</time></trkpt><trkpt lat="43.42801111625713" lon="11.408388873940286"><ele>291.66666666666663</ele><time>2026-05-02T16:33:20.999Z</time></trkpt><trkpt lat="43.428184345307564" lon="11.408406902697399"><ele>294.3333333333333</ele><time>2026-05-02T16:33:21.999Z</time></trkpt><trkpt lat="43.42834990453676" lon="11.408397981576632"><ele>297.0</ele><time>2026-05-02T16:33:22.999Z</time></trkpt><trkpt lat="43.4285048054873" lon="11.40838194510887"><ele>297.0</ele><time>2026-05-02T16:33:23.999Z</time></trkpt><trkpt lat="43.42864907193636" lon="11.40842334034083"><ele>297.0</ele><time>2026-05-02T16:33:24.999Z</time></trkpt><trkpt lat="43.42877184240752" lon="11.408516520480264"><ele>297.0</ele><time>2026-05-02T16:33:25.999Z</time></trkpt><trkpt lat="43.42887988192179" lon="11.408665396251294"><ele>297.0</ele><time>2026-05-02T16:33:26.999Z</time></trkpt><trkpt lat="43.428984171146425" lon="11.408848379471"><ele>297.3333333333333</ele><time>2026-05-02T16:33:27.999Z</time></trkpt><trkpt lat="43.429082984454794" lon="11.409061888544356"><ele>297.66666666666663</ele><time>2026-05-02T16:33:28.999Z</time></trkpt><trkpt lat="43.429182140099975" lon="11.409278770568974"><ele>298.0</ele><time>2026-05-02T16:33:29.999Z</time></trkpt><trkpt lat="43.429283248881745" lon="11.409478635016587"><ele>298.66666666666663</ele><time>2026-05-02T16:33:30.999Z</time></trkpt><trkpt lat="43.42939477108915" lon="11.4096592979351"><ele>299.3333333333333</ele><time>2026-05-02T16:33:31.999Z</time></trkpt><trkpt lat="43.42953688003206" lon="11.409806112062975"><ele>300.0</ele><time>2026-05-02T16:33:32.999Z</time></trkpt><trkpt lat="43.429693442305336" lon="11.409934717918317"><ele>300.0</ele><time>2026-05-02T16:33:33.999Z</time></trkpt><trkpt lat="43.42986194937354" lon="11.410037247072752"><ele>300.0</ele><time>2026-05-02T16:33:34.999Z</time></trkpt><trkpt lat="43.43003516543199" lon="11.410115000353992"><ele>300.0</ele><time>2026-05-02T16:33:35.999Z</time></trkpt><trkpt lat="43.43019913363977" lon="11.410210237839967"><ele>300.0</ele><time>2026-05-02T16:33:36.999Z</time></trkpt><trkpt lat="43.43034213031988" lon="11.410344078741648"><ele>300.0</ele><time>2026-05-02T16:33:37.999Z</time></trkpt><trkpt lat="43.43046770572523" lon="11.410516936251698"><ele>300.0</ele><time>2026-05-02T16:33:38.999Z</time></trkpt><trkpt lat="43.430579275889635" lon="11.410703988293905"><ele>298.3333333333333</ele><time>2026-05-02T16:33:39.999Z</time></trkpt><trkpt lat="43.430669897185595" lon="11.410910583832665"><ele>296.66666666666663</ele><time>2026-05-02T16:33:40.999Z</time></trkpt><trkpt lat="43.43074665586477" lon="11.411122816606314"><ele>295.0</ele><time>2026-05-02T16:33:41.999Z</time></trkpt><trkpt lat="43.430810770137114" lon="11.41133230872099"><ele>295.0</ele><time>2026-05-02T16:33:42.999Z</time></trkpt><trkpt lat="43.43085474433754" lon="11.411530697503729"><ele>295.0</ele><time>2026-05-02T16:33:43.999Z</time></trkpt><trkpt lat="43.43090025373664" lon="11.41170874982412"><ele>295.0</ele><time>2026-05-02T16:33:44.999Z</time></trkpt><trkpt lat="43.43097832481213" lon="11.41186155761491"><ele>295.0</ele><time>2026-05-02T16:33:45.999Z</time></trkpt><trkpt lat="43.43108436086308" lon="11.412005465724363"><ele>295.0</ele><time>2026-05-02T16:33:46.999Z</time></trkpt><trkpt lat="43.431187910174415" lon="11.41214686958462"><ele>295.0</ele><time>2026-05-02T16:33:47.999Z</time></trkpt><trkpt lat="43.43129052569316" lon="11.412290507713337"><ele>295.0</ele><time>2026-05-02T16:33:48.999Z</time></trkpt><trkpt lat="43.43138538730195" lon="11.412437934585915"><ele>295.0</ele><time>2026-05-02T16:33:49.999Z</time></trkpt><trkpt lat="43.43147217934586" lon="11.412566934159202"><ele>297.25</ele><time>2026-05-02T16:33:50.999Z</time></trkpt><trkpt lat="43.43157383335214" lon="11.412640228461203"><ele>299.5</ele><time>2026-05-02T16:33:51.999Z</time></trkpt><trkpt lat="43.43168098241484" lon="11.41269669766407"><ele>301.75</ele><time>2026-05-02T16:33:52.999Z</time></trkpt><trkpt lat="43.43177540049476" lon="11.412792117572643"><ele>304.0</ele><time>2026-05-02T16:33:53.999Z</time></trkpt><trkpt lat="43.431838913054285" lon="11.41292857906444"><ele>303.5</ele><time>2026-05-02T16:33:54.999Z</time></trkpt><trkpt lat="43.431868313742115" lon="11.413093558588175"><ele>303.0</ele><time>2026-05-02T16:33:55.999Z</time></trkpt><trkpt lat="43.43186589649329" lon="11.41327137536344"><ele>302.5</ele><time>2026-05-02T16:33:56.999Z</time></trkpt><trkpt lat="43.43182863995832" lon="11.413455568055289"><ele>302.0</ele><time>2026-05-02T16:33:57.999Z</time></trkpt><trkpt lat="43.43176606505233" lon="11.413633468637576"><ele>302.0</ele><time>2026-05-02T16:33:58.999Z</time></trkpt><trkpt lat="43.43168741899793" lon="11.41380181787581"><ele>302.0</ele><time>2026-05-02T16:33:59.999Z</time></trkpt><trkpt lat="43.43159496212315" lon="11.413948497467903"><ele>302.0</ele><time>2026-05-02T16:34:00.999Z</time></trkpt><trkpt lat="43.43148170359935" lon="11.414063895738005"><ele>302.0</ele><time>2026-05-02T16:34:01.999Z</time></trkpt><trkpt lat="43.43134442502606" lon="11.414129583058292"><ele>302.33333333333337</ele><time>2026-05-02T16:34:02.999Z</time></trkpt><trkpt lat="43.43119505350315" lon="11.414174450035606"><ele>302.6666666666667</ele><time>2026-05-02T16:34:03.999Z</time></trkpt><trkpt lat="43.431044651784696" lon="11.414216776013072"><ele>303.0</ele><time>2026-05-02T16:34:04.999Z</time></trkpt><trkpt lat="43.430902382408796" lon="11.414271082647701"><ele>303.0</ele><time>2026-05-02T16:34:05.999Z</time></trkpt><trkpt lat="43.43076763557387" lon="11.41433705379906"><ele>303.0</ele><time>2026-05-02T16:34:06.999Z</time></trkpt><trkpt lat="43.43064671438398" lon="11.414436971839285"><ele>303.0</ele><time>2026-05-02T16:34:07.999Z</time></trkpt><trkpt lat="43.43054312877099" lon="11.414583332134189"><ele>303.0</ele><time>2026-05-02T16:34:08.999Z</time></trkpt><trkpt lat="43.43044555589323" lon="11.414752126981973"><ele>302.3333333333333</ele><time>2026-05-02T16:34:09.999Z</time></trkpt><trkpt lat="43.430340723003575" lon="11.414912321879825"><ele>301.66666666666663</ele><time>2026-05-02T16:34:10.999Z</time></trkpt><trkpt lat="43.43022019487625" lon="11.41505570962849"><ele>301.0</ele><time>2026-05-02T16:34:11.999Z</time></trkpt><trkpt lat="43.43009048152661" lon="11.415188245953445"><ele>301.0</ele><time>2026-05-02T16:34:12.999Z</time></trkpt><trkpt lat="43.429956089814404" lon="11.415297871675959"><ele>301.0</ele><time>2026-05-02T16:34:13.999Z</time></trkpt><trkpt lat="43.4298270552504" lon="11.415405856405533"><ele>301.0</ele><time>2026-05-02T16:34:14.999Z</time></trkpt><trkpt lat="43.42971013505582" lon="11.415512024801538"><ele>301.0</ele><time>2026-05-02T16:34:15.999Z</time></trkpt><trkpt lat="43.429604377632" lon="11.415625510765526"><ele>300.25</ele><time>2026-05-02T16:34:16.999Z</time></trkpt><trkpt lat="43.429524719187064" lon="11.415757069076895"><ele>299.5</ele><time>2026-05-02T16:34:17.999Z</time></trkpt><trkpt lat="43.42948342563009" lon="11.415918457650278"><ele>298.75</ele><time>2026-05-02T16:34:18.999Z</time></trkpt><trkpt lat="43.429492896917495" lon="11.416095810665304"><ele>298.0</ele><time>2026-05-02T16:34:19.999Z</time></trkpt><trkpt lat="43.429536122546864" lon="11.41627028968531"><ele>298.25</ele><time>2026-05-02T16:34:20.999Z</time></trkpt><trkpt lat="43.42960888642109" lon="11.41643249552156"><ele>298.5</ele><time>2026-05-02T16:34:21.999Z</time></trkpt><trkpt lat="43.42969813067469" lon="11.416588086421404"><ele>298.75</ele><time>2026-05-02T16:34:23Z</time></trkpt><trkpt lat="43.42979643664617" lon="11.416723853388776"><ele>299.0</ele><time>2026-05-02T16:34:24Z</time></trkpt><trkpt lat="43.42991541384965" lon="11.416806843648665"><ele>302.6666666666667</ele><time>2026-05-02T16:34:25Z</time></trkpt><trkpt lat="43.430057246821754" lon="11.41683552277646"><ele>306.3333333333333</ele><time>2026-05-02T16:34:26Z</time></trkpt><trkpt lat="43.43020959379433" lon="11.416829654235928"><ele>310.0</ele><time>2026-05-02T16:34:27Z</time></trkpt><trkpt lat="43.43036768756187" lon="11.416830944092588"><ele>311.66666666666663</ele><time>2026-05-02T16:34:28Z</time></trkpt><trkpt lat="43.430526617843476" lon="11.41687016418349"><ele>313.3333333333333</ele><time>2026-05-02T16:34:29Z</time></trkpt><trkpt lat="43.43068474561832" lon="11.416937467829321"><ele>315.0</ele><time>2026-05-02T16:34:30Z</time></trkpt><trkpt lat="43.43084157125577" lon="11.417011704974618"><ele>315.0</ele><time>2026-05-02T16:34:31Z</time></trkpt><trkpt lat="43.43098773913825" lon="11.417115110217724"><ele>315.0</ele><time>2026-05-02T16:34:32Z</time></trkpt><trkpt lat="43.43112000609386" lon="11.41725056686713"><ele>315.0</ele><time>2026-05-02T16:34:33Z</time></trkpt><trkpt lat="43.431237321324815" lon="11.417423420079187"><ele>313.3333333333333</ele><time>2026-05-02T16:34:34Z</time></trkpt><trkpt lat="43.43135401878808" lon="11.417605861552316"><ele>311.66666666666663</ele><time>2026-05-02T16:34:35Z</time></trkpt><trkpt lat="43.431476781555624" lon="11.417791712705622"><ele>310.0</ele><time>2026-05-02T16:34:36Z</time></trkpt><trkpt lat="43.431600410853996" lon="11.41797473728864"><ele>306.3333333333333</ele><time>2026-05-02T16:34:37Z</time></trkpt><trkpt lat="43.43172288830692" lon="11.41815766173996"><ele>302.6666666666667</ele><time>2026-05-02T16:34:38Z</time></trkpt><trkpt lat="43.43184445862538" lon="11.41834296053657"><ele>299.0</ele><time>2026-05-02T16:34:39Z</time></trkpt><trkpt lat="43.43196438684725" lon="11.418523000292193"><ele>299.0</ele><time>2026-05-02T16:34:40Z</time></trkpt><trkpt lat="43.432082856409316" lon="11.418697814576753"><ele>299.0</ele><time>2026-05-02T16:34:41Z</time></trkpt><trkpt lat="43.432196708692516" lon="11.418864768227042"><ele>299.0</ele><time>2026-05-02T16:34:42Z</time></trkpt><trkpt lat="43.43230525195836" lon="11.419029037468256"><ele>300.25</ele><time>2026-05-02T16:34:43Z</time></trkpt><trkpt lat="43.432410889623924" lon="11.419188582191799"><ele>301.5</ele><time>2026-05-02T16:34:44Z</time></trkpt><trkpt lat="43.432509261264705" lon="11.419341216660287"><ele>302.75</ele><time>2026-05-02T16:34:45Z</time></trkpt><trkpt lat="43.43260098999548" lon="11.419482940145366"><ele>304.0</ele><time>2026-05-02T16:34:46Z</time></trkpt><trkpt lat="43.43268746752841" lon="11.419615814018076"><ele>303.25</ele><time>2026-05-02T16:34:47Z</time></trkpt><trkpt lat="43.43275931959704" lon="11.41974860377258"><ele>302.5</ele><time>2026-05-02T16:34:48Z</time></trkpt><trkpt lat="43.43281692375281" lon="11.41987911523929"><ele>301.75</ele><time>2026-05-02T16:34:49Z</time></trkpt><trkpt lat="43.43287236133664" lon="11.420017650868578"><ele>301.0</ele><time>2026-05-02T16:34:50Z</time></trkpt><trkpt lat="43.43292677791204" lon="11.420154720950135"><ele>301.40000000000003</ele><time>2026-05-02T16:34:50.999Z</time></trkpt><trkpt lat="43.43297896934119" lon="11.420284954160081"><ele>301.8</ele><time>2026-05-02T16:34:51.999Z</time></trkpt><trkpt lat="43.4330252914081" lon="11.4204001049028"><ele>302.20000000000005</ele><time>2026-05-02T16:34:52.999Z</time></trkpt><trkpt lat="43.433067695409015" lon="11.420508093617864"><ele>302.6</ele><time>2026-05-02T16:34:53.999Z</time></trkpt><trkpt lat="43.433113187694374" lon="11.420617002692063"><ele>303.0</ele><time>2026-05-02T16:34:54.999Z</time></trkpt><trkpt lat="43.433170628121374" lon="11.42072353873597"><ele>303.0</ele><time>2026-05-02T16:34:55.999Z</time></trkpt><trkpt lat="43.43324066113933" lon="11.420812589549774"><ele>303.0</ele><time>2026-05-02T16:34:56.999Z</time></trkpt><trkpt lat="43.433326557180564" lon="11.420877363253448"><ele>303.0</ele><time>2026-05-02T16:34:57.999Z</time></trkpt><trkpt lat="43.43341957712479" lon="11.420910664843186"><ele>303.0</ele><time>2026-05-02T16:34:58.999Z</time></trkpt><trkpt lat="43.43351646210128" lon="11.420903183519805"><ele>303.0</ele><time>2026-05-02T16:34:59.999Z</time></trkpt><trkpt lat="43.4336081169721" lon="11.420856153797336"><ele>303.0</ele><time>2026-05-02T16:35:00.999Z</time></trkpt><trkpt lat="43.43369282654836" lon="11.420764655460404"><ele>303.0</ele><time>2026-05-02T16:35:01.999Z</time></trkpt><trkpt lat="43.43377892013346" lon="11.42064414576916"><ele>303.0</ele><time>2026-05-02T16:35:02.999Z</time></trkpt><trkpt lat="43.43386649475187" lon="11.420521364798542"><ele>303.0</ele><time>2026-05-02T16:35:03.999Z</time></trkpt><trkpt lat="43.433960176305085" lon="11.420393598337549"><ele>306.25</ele><time>2026-05-02T16:35:04.999Z</time></trkpt><trkpt lat="43.43405966285689" lon="11.420254708114317"><ele>309.5</ele><time>2026-05-02T16:35:05.999Z</time></trkpt><trkpt lat="43.43416862916454" lon="11.420116263194664"><ele>312.75</ele><time>2026-05-02T16:35:06.999Z</time></trkpt><trkpt lat="43.434284383123604" lon="11.419983812537382"><ele>316.0</ele><time>2026-05-02T16:35:07.999Z</time></trkpt><trkpt lat="43.434399948995384" lon="11.419856225807997"><ele>316.0</ele><time>2026-05-02T16:35:08.999Z</time></trkpt><trkpt lat="43.43450885124856" lon="11.41973483690382"><ele>316.0</ele><time>2026-05-02T16:35:09.999Z</time></trkpt><trkpt lat="43.434607045002046" lon="11.419630984446364"><ele>316.0</ele><time>2026-05-02T16:35:10.999Z</time></trkpt><trkpt lat="43.43469264793157" lon="11.41955497942956"><ele>316.0</ele><time>2026-05-02T16:35:11.999Z</time></trkpt><trkpt lat="43.43475764574687" lon="11.419488138032547"><ele>316.0</ele><time>2026-05-02T16:35:12.999Z</time></trkpt><trkpt lat="43.43481706148168" lon="11.419430269166266"><ele>316.5</ele><time>2026-05-02T16:35:13.999Z</time></trkpt><trkpt lat="43.43487944214688" lon="11.419382105233653"><ele>317.0</ele><time>2026-05-02T16:35:14.999Z</time></trkpt><trkpt lat="43.43494756928443" lon="11.419334306081044"><ele>317.5</ele><time>2026-05-02T16:35:15.999Z</time></trkpt><trkpt lat="43.435018037763555" lon="11.419283075212524"><ele>318.0</ele><time>2026-05-02T16:35:16.999Z</time></trkpt><trkpt lat="43.435092227001114" lon="11.419234685695677"><ele>318.5</ele><time>2026-05-02T16:35:17.999Z</time></trkpt><trkpt lat="43.43516942694985" lon="11.419184897997505"><ele>319.0</ele><time>2026-05-02T16:35:18.999Z</time></trkpt><trkpt lat="43.435252131398386" lon="11.419140397172336"><ele>319.0</ele><time>2026-05-02T16:35:19.999Z</time></trkpt><trkpt lat="43.43534802399317" lon="11.419111190884303"><ele>319.0</ele><time>2026-05-02T16:35:20.999Z</time></trkpt><trkpt lat="43.43545568026179" lon="11.41910782927955"><ele>319.0</ele><time>2026-05-02T16:35:21.999Z</time></trkpt><trkpt lat="43.43557311936419" lon="11.41911582885168"><ele>319.0</ele><time>2026-05-02T16:35:22.999Z</time></trkpt><trkpt lat="43.435700524788714" lon="11.419135388371268"><ele>318.0</ele><time>2026-05-02T16:35:23.999Z</time></trkpt><trkpt lat="43.43583871115223" lon="11.419161258793253"><ele>317.0</ele><time>2026-05-02T16:35:24.999Z</time></trkpt><trkpt lat="43.43598798403816" lon="11.41918535520183"><ele>316.0</ele><time>2026-05-02T16:35:25.999Z</time></trkpt><trkpt lat="43.43615312442987" lon="11.41920800231116"><ele>317.3333333333333</ele><time>2026-05-02T16:35:26.999Z</time></trkpt><trkpt lat="43.43633761653248" lon="11.41923557333519"><ele>318.6666666666667</ele><time>2026-05-02T16:35:27.999Z</time></trkpt><trkpt lat="43.436548811725125" lon="11.419273385362354"><ele>320.0</ele><time>2026-05-02T16:35:28.999Z</time></trkpt><trkpt lat="43.436768402078904" lon="11.419322608417039"><ele>320.0</ele><time>2026-05-02T16:35:29.999Z</time></trkpt><trkpt lat="43.43699283500504" lon="11.419378150100801"><ele>320.0</ele><time>2026-05-02T16:35:30.999Z</time></trkpt><trkpt lat="43.43722346382097" lon="11.419429936407129"><ele>321.5</ele><time>2026-05-02T16:35:31.999Z</time></trkpt><trkpt lat="43.437452674557285" lon="11.419476342916147"><ele>323.0</ele><time>2026-05-02T16:35:32.999Z</time></trkpt><trkpt lat="43.43768036693531" lon="11.419519996997506"><ele>323.0</ele><time>2026-05-02T16:35:33.999Z</time></trkpt><trkpt lat="43.437901923375854" lon="11.419558285702005"><ele>323.0</ele><time>2026-05-02T16:35:34.999Z</time></trkpt><trkpt lat="43.43812052502872" lon="11.419588151008462"><ele>323.0</ele><time>2026-05-02T16:35:35.999Z</time></trkpt><trkpt lat="43.43833288514736" lon="11.419612614372646"><ele>324.6666666666667</ele><time>2026-05-02T16:35:36.999Z</time></trkpt><trkpt lat="43.43853745160416" lon="11.419633712541605"><ele>326.3333333333333</ele><time>2026-05-02T16:35:37.999Z</time></trkpt><trkpt lat="43.43873530292374" lon="11.419655528687855"><ele>328.0</ele><time>2026-05-02T16:35:38.999Z</time></trkpt><trkpt lat="43.438930139650154" lon="11.419707711112418"><ele>324.66666666666663</ele><time>2026-05-02T16:35:39.999Z</time></trkpt><trkpt lat="43.439122736597156" lon="11.41978217873464"><ele>321.3333333333333</ele><time>2026-05-02T16:35:40.999Z</time></trkpt><trkpt lat="43.439319255244456" lon="11.419876713344717"><ele>318.0</ele><time>2026-05-02T16:35:41.999Z</time></trkpt><trkpt lat="43.43951004802309" lon="11.420007015694535"><ele>317.6666666666667</ele><time>2026-05-02T16:35:42.999Z</time></trkpt><trkpt lat="43.43969948287178" lon="11.42016005146143"><ele>317.33333333333337</ele><time>2026-05-02T16:35:43.999Z</time></trkpt><trkpt lat="43.439885154289385" lon="11.420323020711312"><ele>317.0</ele><time>2026-05-02T16:35:44.999Z</time></trkpt><trkpt lat="43.44007050210975" lon="11.420485974305294"><ele>317.0</ele><time>2026-05-02T16:35:45.999Z</time></trkpt><trkpt lat="43.44025474344202" lon="11.42064347378318"><ele>317.0</ele><time>2026-05-02T16:35:46.999Z</time></trkpt><trkpt lat="43.44043858945736" lon="11.42079987963246"><ele>317.0</ele><time>2026-05-02T16:35:47.999Z</time></trkpt><trkpt lat="43.44061966843028" lon="11.4209566213979"><ele>317.33333333333337</ele><time>2026-05-02T16:35:48.999Z</time></trkpt><trkpt lat="43.440801354710395" lon="11.421111845532467"><ele>317.6666666666667</ele><time>2026-05-02T16:35:49.999Z</time></trkpt><trkpt lat="43.4409815759917" lon="11.421250596931197"><ele>318.0</ele><time>2026-05-02T16:35:50.999Z</time></trkpt><trkpt lat="43.44117506002532" lon="11.42135342247055"><ele>319.6666666666667</ele><time>2026-05-02T16:35:51.999Z</time></trkpt><trkpt lat="43.441378245514194" lon="11.421423941527772"><ele>321.33333333333337</ele><time>2026-05-02T16:35:52.999Z</time></trkpt><trkpt lat="43.44159161730265" lon="11.421457961781952"><ele>323.0</ele><time>2026-05-02T16:35:53.999Z</time></trkpt><trkpt lat="43.44181163175863" lon="11.421486782858189"><ele>323.0</ele><time>2026-05-02T16:35:54.999Z</time></trkpt><trkpt lat="43.44203871996235" lon="11.421518516858661"><ele>323.0</ele><time>2026-05-02T16:35:55.999Z</time></trkpt><trkpt lat="43.44226344046881" lon="11.421550329931568"><ele>324.6666666666667</ele><time>2026-05-02T16:35:56.999Z</time></trkpt><trkpt lat="43.442484620473785" lon="11.42157891256829"><ele>326.3333333333333</ele><time>2026-05-02T16:35:57.999Z</time></trkpt><trkpt lat="43.44270196778097" lon="11.421594657185018"><ele>328.0</ele><time>2026-05-02T16:35:58.999Z</time></trkpt><trkpt lat="43.442906031289354" lon="11.421599934131198"><ele>328.0</ele><time>2026-05-02T16:35:59.999Z</time></trkpt><trkpt lat="43.44309590491563" lon="11.421593758525585"><ele>328.0</ele><time>2026-05-02T16:36:00.999Z</time></trkpt><trkpt lat="43.443279192450376" lon="11.421546981987161"><ele>328.0</ele><time>2026-05-02T16:36:01.999Z</time></trkpt><trkpt lat="43.44346176309044" lon="11.421444034388376"><ele>331.0</ele><time>2026-05-02T16:36:02.999Z</time></trkpt><trkpt lat="43.4436416852985" lon="11.421311513243035"><ele>334.0</ele><time>2026-05-02T16:36:03.999Z</time></trkpt><trkpt lat="43.443821028668" lon="11.421173689339398"><ele>337.0</ele><time>2026-05-02T16:36:04.999Z</time></trkpt><trkpt lat="43.44400326298134" lon="11.42104682225788"><ele>337.0</ele><time>2026-05-02T16:36:05.999Z</time></trkpt><trkpt lat="43.44417964350226" lon="11.420916243630682"><ele>337.0</ele><time>2026-05-02T16:36:06.999Z</time></trkpt><trkpt lat="43.44432646569085" lon="11.420739575340518"><ele>337.0</ele><time>2026-05-02T16:36:07.999Z</time></trkpt><trkpt lat="43.444454423658534" lon="11.420533150071448"><ele>337.66666666666663</ele><time>2026-05-02T16:36:08.999Z</time></trkpt><trkpt lat="43.44458533981159" lon="11.420333761007694"><ele>338.3333333333333</ele><time>2026-05-02T16:36:09.999Z</time></trkpt><trkpt lat="43.44473943283212" lon="11.420177543657795"><ele>339.0</ele><time>2026-05-02T16:36:10.999Z</time></trkpt><trkpt lat="43.44492359462171" lon="11.420069829608607"><ele>339.0</ele><time>2026-05-02T16:36:11.999Z</time></trkpt><trkpt lat="43.44510781894255" lon="11.419972088437788"><ele>339.0</ele><time>2026-05-02T16:36:12.999Z</time></trkpt><trkpt lat="43.445274874396496" lon="11.419882228757219"><ele>339.0</ele><time>2026-05-02T16:36:13.999Z</time></trkpt><trkpt lat="43.445418006386205" lon="11.419801590514611"><ele>337.75</ele><time>2026-05-02T16:36:14.999Z</time></trkpt><trkpt lat="43.445529917250056" lon="11.4197171475765"><ele>336.5</ele><time>2026-05-02T16:36:15.999Z</time></trkpt><trkpt lat="43.44561587789822" lon="11.419605663998606"><ele>335.25</ele><time>2026-05-02T16:36:16.999Z</time></trkpt><trkpt lat="43.445657356088844" lon="11.419450821522625"><ele>334.0</ele><time>2026-05-02T16:36:17.999Z</time></trkpt><trkpt lat="43.445664915251136" lon="11.419270751696065"><ele>334.0</ele><time>2026-05-02T16:36:18.999Z</time></trkpt><trkpt lat="43.44565685899125" lon="11.419072207430235"><ele>334.0</ele><time>2026-05-02T16:36:19.999Z</time></trkpt><trkpt lat="43.44565408824275" lon="11.418865032423605"><ele>334.0</ele><time>2026-05-02T16:36:20.999Z</time></trkpt><trkpt lat="43.44566415335052" lon="11.418660900430398"><ele>334.0</ele><time>2026-05-02T16:36:21.999Z</time></trkpt><trkpt lat="43.44569087284344" lon="11.418461664570955"><ele>336.0</ele><time>2026-05-02T16:36:22.999Z</time></trkpt><trkpt lat="43.445734658057646" lon="11.418270289444436"><ele>338.0</ele><time>2026-05-02T16:36:23.999Z</time></trkpt><trkpt lat="43.445786847488534" lon="11.41808295269154"><ele>340.0</ele><time>2026-05-02T16:36:24.999Z</time></trkpt><trkpt lat="43.44584887521335" lon="11.417902568005227"><ele>342.0</ele><time>2026-05-02T16:36:25.999Z</time></trkpt><trkpt lat="43.44591925530914" lon="11.417729825088323"><ele>341.5</ele><time>2026-05-02T16:36:26.999Z</time></trkpt><trkpt lat="43.44601202418673" lon="11.417591712113785"><ele>341.0</ele><time>2026-05-02T16:36:27.999Z</time></trkpt><trkpt lat="43.44613380532316" lon="11.417509581917994"><ele>340.5</ele><time>2026-05-02T16:36:29Z</time></trkpt><trkpt lat="43.44628514473033" lon="11.41750577908536"><ele>340.0</ele><time>2026-05-02T16:36:30Z</time></trkpt><trkpt lat="43.446451932987664" lon="11.41753713628801"><ele>340.0</ele><time>2026-05-02T16:36:31Z</time></trkpt><trkpt lat="43.446641883573946" lon="11.41756251173763"><ele>340.0</ele><time>2026-05-02T16:36:32Z</time></trkpt><trkpt lat="43.44683797919902" lon="11.417624667360059"><ele>340.0</ele><time>2026-05-02T16:36:33Z</time></trkpt><trkpt lat="43.447039144431834" lon="11.417679709131072"><ele>339.3333333333333</ele><time>2026-05-02T16:36:34Z</time></trkpt><trkpt lat="43.44724825409687" lon="11.417728793259156"><ele>338.6666666666667</ele><time>2026-05-02T16:36:35Z</time></trkpt><trkpt lat="43.44745060506849" lon="11.417771930069922"><ele>338.0</ele><time>2026-05-02T16:36:36Z</time></trkpt><trkpt lat="43.447644132560306" lon="11.417851622325646"><ele>335.6666666666667</ele><time>2026-05-02T16:36:37Z</time></trkpt><trkpt lat="43.447817124171124" lon="11.41800764254859"><ele>333.3333333333333</ele><time>2026-05-02T16:36:38Z</time></trkpt><trkpt lat="43.44799199334092" lon="11.41818665173398"><ele>331.0</ele><time>2026-05-02T16:36:39Z</time></trkpt><trkpt lat="43.44816005869782" lon="11.418345134009474"><ele>331.0</ele><time>2026-05-02T16:36:40Z</time></trkpt><trkpt lat="43.44832562983512" lon="11.418476021598543"><ele>331.0</ele><time>2026-05-02T16:36:41Z</time></trkpt><trkpt lat="43.44850553258914" lon="11.418558066563678"><ele>331.0</ele><time>2026-05-02T16:36:42Z</time></trkpt><trkpt lat="43.44870553846514" lon="11.418577606590242"><ele>331.0</ele><time>2026-05-02T16:36:43Z</time></trkpt><trkpt lat="43.448909545205915" lon="11.418580916086157"><ele>331.0</ele><time>2026-05-02T16:36:44Z</time></trkpt><trkpt lat="43.449115097351566" lon="11.418585245514128"><ele>331.0</ele><time>2026-05-02T16:36:45Z</time></trkpt><trkpt lat="43.44930735024148" lon="11.418644307185662"><ele>331.0</ele><time>2026-05-02T16:36:46Z</time></trkpt><trkpt lat="43.44948430100662" lon="11.418682520159782"><ele>331.0</ele><time>2026-05-02T16:36:47Z</time></trkpt><trkpt lat="43.44964855081483" lon="11.41875957125399"><ele>331.0</ele><time>2026-05-02T16:36:48Z</time></trkpt><trkpt lat="43.44981613438278" lon="11.418836763404059"><ele>328.66666666666663</ele><time>2026-05-02T16:36:48.999Z</time></trkpt><trkpt lat="43.44998737570863" lon="11.418910125417522"><ele>326.3333333333333</ele><time>2026-05-02T16:36:49.999Z</time></trkpt><trkpt lat="43.450165409623516" lon="11.418974273791672"><ele>324.0</ele><time>2026-05-02T16:36:50.999Z</time></trkpt><trkpt lat="43.45035252584579" lon="11.419014102011545"><ele>324.6666666666667</ele><time>2026-05-02T16:36:51.999Z</time></trkpt><trkpt lat="43.45054976864042" lon="11.419043118155347"><ele>325.33333333333337</ele><time>2026-05-02T16:36:52.999Z</time></trkpt><trkpt lat="43.450744968945244" lon="11.419090518814553"><ele>326.0</ele><time>2026-05-02T16:36:53.999Z</time></trkpt><trkpt lat="43.450922273737696" lon="11.419147785496682"><ele>326.0</ele><time>2026-05-02T16:36:54.999Z</time></trkpt><trkpt lat="43.451068993026325" lon="11.419223331454559"><ele>326.0</ele><time>2026-05-02T16:36:55.999Z</time></trkpt><trkpt lat="43.45120924380148" lon="11.419333220862706"><ele>326.0</ele><time>2026-05-02T16:36:56.999Z</time></trkpt><trkpt lat="43.45135137581347" lon="11.419467110406424"><ele>327.6666666666667</ele><time>2026-05-02T16:36:57.999Z</time></trkpt><trkpt lat="43.45149852249066" lon="11.419612049123238"><ele>329.3333333333333</ele><time>2026-05-02T16:36:58.999Z</time></trkpt><trkpt lat="43.451634463053885" lon="11.419778317556023"><ele>331.0</ele><time>2026-05-02T16:36:59.999Z</time></trkpt><trkpt lat="43.451745298902175" lon="11.419988453474318"><ele>331.0</ele><time>2026-05-02T16:37:00.999Z</time></trkpt><trkpt lat="43.45187218906966" lon="11.420198809117544"><ele>331.0</ele><time>2026-05-02T16:37:01.999Z</time></trkpt><trkpt lat="43.45201719268692" lon="11.42039772443618"><ele>331.0</ele><time>2026-05-02T16:37:02.999Z</time></trkpt><trkpt lat="43.452152343919465" lon="11.420612786683652"><ele>332.3333333333333</ele><time>2026-05-02T16:37:03.999Z</time></trkpt><trkpt lat="43.45229159807612" lon="11.420822751463152"><ele>333.6666666666667</ele><time>2026-05-02T16:37:04.999Z</time></trkpt><trkpt lat="43.45243625941289" lon="11.421020958342291"><ele>335.0</ele><time>2026-05-02T16:37:05.999Z</time></trkpt><trkpt lat="43.452584043834605" lon="11.421217159872452"><ele>334.0</ele><time>2026-05-02T16:37:06.999Z</time></trkpt><trkpt lat="43.45276460451214" lon="11.421346862630879"><ele>333.0</ele><time>2026-05-02T16:37:07.999Z</time></trkpt><trkpt lat="43.45294449001242" lon="11.421480528459895"><ele>332.0</ele><time>2026-05-02T16:37:08.999Z</time></trkpt><trkpt lat="43.45310363316635" lon="11.421644735209274"><ele>332.0</ele><time>2026-05-02T16:37:09.999Z</time></trkpt><trkpt lat="43.453232799145226" lon="11.421862820670954"><ele>332.0</ele><time>2026-05-02T16:37:10.999Z</time></trkpt><trkpt lat="43.45338129942085" lon="11.422060272156973"><ele>332.0</ele><time>2026-05-02T16:37:11.999Z</time></trkpt><trkpt lat="43.45351637697226" lon="11.422268977339261"><ele>333.0</ele><time>2026-05-02T16:37:12.999Z</time></trkpt><trkpt lat="43.45365037533671" lon="11.422476943988578"><ele>334.0</ele><time>2026-05-02T16:37:13.999Z</time></trkpt><trkpt lat="43.453771161459564" lon="11.422699747445849"><ele>335.0</ele><time>2026-05-02T16:37:14.999Z</time></trkpt><trkpt lat="43.45390095964999" lon="11.422902049739596"><ele>333.6666666666667</ele><time>2026-05-02T16:37:15.999Z</time></trkpt><trkpt lat="43.45403055312654" lon="11.423072404312451"><ele>332.3333333333333</ele><time>2026-05-02T16:37:16.999Z</time></trkpt><trkpt lat="43.454137918871254" lon="11.423246095495852"><ele>331.0</ele><time>2026-05-02T16:37:17.999Z</time></trkpt><trkpt lat="43.45423731287642" lon="11.42339943314923"><ele>331.0</ele><time>2026-05-02T16:37:18.999Z</time></trkpt><trkpt lat="43.45433206472623" lon="11.42353738605469"><ele>331.0</ele><time>2026-05-02T16:37:19.999Z</time></trkpt><trkpt lat="43.454426209601024" lon="11.423646046007955"><ele>331.0</ele><time>2026-05-02T16:37:20.999Z</time></trkpt><trkpt lat="43.45451326768163" lon="11.423737340798946"><ele>331.0</ele><time>2026-05-02T16:37:21.999Z</time></trkpt><trkpt lat="43.45458785689683" lon="11.423813420337833"><ele>331.0</ele><time>2026-05-02T16:37:22.999Z</time></trkpt><trkpt lat="43.45464812559966" lon="11.423877233149852"><ele>331.0</ele><time>2026-05-02T16:37:23.999Z</time></trkpt><trkpt lat="43.454680839992726" lon="11.424003775525415"><ele>331.0</ele><time>2026-05-02T16:37:25.999Z</time></trkpt><trkpt lat="43.45454690655417" lon="11.42421730781173"><ele>331.0</ele><time>2026-05-02T16:37:27.999Z</time></trkpt><trkpt lat="43.454458648441246" lon="11.424365039363602"><ele>331.0</ele><time>2026-05-02T16:37:28.999Z</time></trkpt><trkpt lat="43.45436564899076" lon="11.424530455372048"><ele>331.0</ele><time>2026-05-02T16:37:29.999Z</time></trkpt><trkpt lat="43.45426388504703" lon="11.424717039668081"><ele>331.0</ele><time>2026-05-02T16:37:30.999Z</time></trkpt><trkpt lat="43.45415110186008" lon="11.424905418889544"><ele>331.3333333333333</ele><time>2026-05-02T16:37:31.999Z</time></trkpt><trkpt lat="43.45402004704471" lon="11.42510091706833"><ele>331.6666666666667</ele><time>2026-05-02T16:37:32.999Z</time></trkpt><trkpt lat="43.45387143269899" lon="11.4253101036423"><ele>332.0</ele><time>2026-05-02T16:37:33.999Z</time></trkpt><trkpt lat="43.4537100284412" lon="11.425539056702"><ele>335.5</ele><time>2026-05-02T16:37:34.999Z</time></trkpt><trkpt lat="43.45353690523173" lon="11.425789320936302"><ele>339.0</ele><time>2026-05-02T16:37:35.999Z</time></trkpt><trkpt lat="43.45335161333153" lon="11.426057612908673"><ele>338.0</ele><time>2026-05-02T16:37:36.999Z</time></trkpt><trkpt lat="43.453156864698364" lon="11.42632868686823"><ele>337.0</ele><time>2026-05-02T16:37:37.999Z</time></trkpt><trkpt lat="43.452973010431954" lon="11.426592231674999"><ele>342.0</ele><time>2026-05-02T16:37:38.999Z</time></trkpt><trkpt lat="43.4527961736422" lon="11.426847197786708"><ele>347.0</ele><time>2026-05-02T16:37:39.999Z</time></trkpt><trkpt lat="43.45264393766659" lon="11.427074971028311"><ele>346.6666666666667</ele><time>2026-05-02T16:37:40.999Z</time></trkpt><trkpt lat="43.452506138760484" lon="11.427276091055736"><ele>346.3333333333333</ele><time>2026-05-02T16:37:41.999Z</time></trkpt><trkpt lat="43.45236753713385" lon="11.427424383218913"><ele>346.0</ele><time>2026-05-02T16:37:42.999Z</time></trkpt><trkpt lat="43.45220907615255" lon="11.427522761676594"><ele>349.66666666666663</ele><time>2026-05-02T16:37:43.999Z</time></trkpt><trkpt lat="43.45202560171055" lon="11.427614371024847"><ele>353.3333333333333</ele><time>2026-05-02T16:37:44.999Z</time></trkpt><trkpt lat="43.45183292474584" lon="11.427714047108566"><ele>357.0</ele><time>2026-05-02T16:37:45.999Z</time></trkpt><trkpt lat="43.45164540247699" lon="11.427812177476868"><ele>357.0</ele><time>2026-05-02T16:37:46.999Z</time></trkpt><trkpt lat="43.45146575932326" lon="11.42790158765536"><ele>357.0</ele><time>2026-05-02T16:37:47.999Z</time></trkpt><trkpt lat="43.45130511647225" lon="11.427989053240955"><ele>357.0</ele><time>2026-05-02T16:37:48.999Z</time></trkpt><trkpt lat="43.45115617679962" lon="11.428096437076615"><ele>360.0</ele><time>2026-05-02T16:37:49.999Z</time></trkpt><trkpt lat="43.451034464603" lon="11.42824489042009"><ele>363.0</ele><time>2026-05-02T16:37:50.999Z</time></trkpt><trkpt lat="43.45096116109488" lon="11.42841019191232"><ele>366.0</ele><time>2026-05-02T16:37:52Z</time></trkpt><trkpt lat="43.450930524943715" lon="11.42858232810753"><ele>369.0</ele><time>2026-05-02T16:37:53Z</time></trkpt><trkpt lat="43.450939997165364" lon="11.428764744010024"><ele>369.25</ele><time>2026-05-02T16:37:54Z</time></trkpt><trkpt lat="43.45097421259924" lon="11.428947474130338"><ele>369.5</ele><time>2026-05-02T16:37:55Z</time></trkpt><trkpt lat="43.451012186506695" lon="11.429137239557015"><ele>369.75</ele><time>2026-05-02T16:37:56Z</time></trkpt><trkpt lat="43.4510387567296" lon="11.429325707319808"><ele>370.0</ele><time>2026-05-02T16:37:57Z</time></trkpt><trkpt lat="43.45103961444275" lon="11.429504847606927"><ele>370.25</ele><time>2026-05-02T16:37:58Z</time></trkpt><trkpt lat="43.45096808397779" lon="11.429652667586035"><ele>370.5</ele><time>2026-05-02T16:37:59Z</time></trkpt><trkpt lat="43.45088592207767" lon="11.429803671311987"><ele>370.75</ele><time>2026-05-02T16:38:00Z</time></trkpt><trkpt lat="43.450801056312464" lon="11.42997252218891"><ele>371.0</ele><time>2026-05-02T16:38:01Z</time></trkpt><trkpt lat="43.45074490345868" lon="11.43015811687713"><ele>371.0</ele><time>2026-05-02T16:38:02Z</time></trkpt><trkpt lat="43.45072478724118" lon="11.430369209015911"><ele>371.0</ele><time>2026-05-02T16:38:03Z</time></trkpt><trkpt lat="43.45073961693316" lon="11.43058742829118"><ele>371.0</ele><time>2026-05-02T16:38:04Z</time></trkpt><trkpt lat="43.4507842391895" lon="11.430814744324229"><ele>371.75</ele><time>2026-05-02T16:38:05Z</time></trkpt><trkpt lat="43.45081293490669" lon="11.43103376162215"><ele>372.5</ele><time>2026-05-02T16:38:06Z</time></trkpt><trkpt lat="43.45080735604363" lon="11.431233348894342"><ele>373.25</ele><time>2026-05-02T16:38:07Z</time></trkpt><trkpt lat="43.45075875235806" lon="11.431414615816006"><ele>374.0</ele><time>2026-05-02T16:38:08Z</time></trkpt><trkpt lat="43.45068211550872" lon="11.4315821686419"><ele>374.25</ele><time>2026-05-02T16:38:09Z</time></trkpt><trkpt lat="43.45058897553708" lon="11.43173489761455"><ele>374.5</ele><time>2026-05-02T16:38:10Z</time></trkpt><trkpt lat="43.45049223251112" lon="11.431887284391529"><ele>374.75</ele><time>2026-05-02T16:38:11Z</time></trkpt><trkpt lat="43.450415084917964" lon="11.432064488688052"><ele>375.0</ele><time>2026-05-02T16:38:12Z</time></trkpt><trkpt lat="43.45037382740835" lon="11.432281752090374"><ele>381.66666666666663</ele><time>2026-05-02T16:38:13Z</time></trkpt><trkpt lat="43.450361107290135" lon="11.432530942831246"><ele>388.3333333333333</ele><time>2026-05-02T16:38:14Z</time></trkpt><trkpt lat="43.4503301844501" lon="11.432783269514063"><ele>395.0</ele><time>2026-05-02T16:38:15Z</time></trkpt><trkpt lat="43.45033106409411" lon="11.433031080296399"><ele>396.0</ele><time>2026-05-02T16:38:16Z</time></trkpt><trkpt lat="43.45031283135994" lon="11.433264452261174"><ele>397.0</ele><time>2026-05-02T16:38:17Z</time></trkpt><trkpt lat="43.450306894997325" lon="11.433480305475069"><ele>398.0</ele><time>2026-05-02T16:38:18Z</time></trkpt><trkpt lat="43.45033079347614" lon="11.433684572726984"><ele>398.25</ele><time>2026-05-02T16:38:19Z</time></trkpt><trkpt lat="43.45038333270202" lon="11.433874859505336"><ele>398.5</ele><time>2026-05-02T16:38:20Z</time></trkpt><trkpt lat="43.45044698287805" lon="11.434047607903"><ele>398.75</ele><time>2026-05-02T16:38:21Z</time></trkpt><trkpt lat="43.45050125694209" lon="11.434199615726435"><ele>399.0</ele><time>2026-05-02T16:38:22Z</time></trkpt><trkpt lat="43.45054203152247" lon="11.434336714494433"><ele>398.0</ele><time>2026-05-02T16:38:23Z</time></trkpt><trkpt lat="43.45054417946548" lon="11.43446955533508"><ele>397.0</ele><time>2026-05-02T16:38:24Z</time></trkpt><trkpt lat="43.45049736420865" lon="11.434585762378315"><ele>396.0</ele><time>2026-05-02T16:38:24.999Z</time></trkpt><trkpt lat="43.45040642069161" lon="11.434682453764394"><ele>395.0</ele><time>2026-05-02T16:38:25.999Z</time></trkpt><trkpt lat="43.45027942385324" lon="11.434793771504664"><ele>395.0</ele><time>2026-05-02T16:38:26.999Z</time></trkpt><trkpt lat="43.450142791574024" lon="11.434931595043722"><ele>395.0</ele><time>2026-05-02T16:38:27.999Z</time></trkpt><trkpt lat="43.450012508728626" lon="11.435091753793094"><ele>395.0</ele><time>2026-05-02T16:38:28.999Z</time></trkpt><trkpt lat="43.44989659973851" lon="11.43526995744905"><ele>395.0</ele><time>2026-05-02T16:38:29.999Z</time></trkpt><trkpt lat="43.44979439527844" lon="11.435450892108456"><ele>395.0</ele><time>2026-05-02T16:38:30.999Z</time></trkpt><trkpt lat="43.449701745094146" lon="11.435617086831806"><ele>395.0</ele><time>2026-05-02T16:38:31.999Z</time></trkpt><trkpt lat="43.44961715559206" lon="11.435767033904805"><ele>396.5</ele><time>2026-05-02T16:38:32.999Z</time></trkpt><trkpt lat="43.44952816603343" lon="11.435881592934017"><ele>398.0</ele><time>2026-05-02T16:38:33.999Z</time></trkpt><trkpt lat="43.44943012026821" lon="11.435963846646402"><ele>399.5</ele><time>2026-05-02T16:38:35.001Z</time></trkpt><trkpt lat="43.44931498484625" lon="11.43600432344472"><ele>401.0</ele><time>2026-05-02T16:38:36.001Z</time></trkpt><trkpt lat="43.449189388703225" lon="11.435971280413066"><ele>401.0</ele><time>2026-05-02T16:38:37.001Z</time></trkpt><trkpt lat="43.44905336598328" lon="11.435975540730473"><ele>401.0</ele><time>2026-05-02T16:38:38.001Z</time></trkpt><trkpt lat="43.44891029137637" lon="11.435945126502471"><ele>401.0</ele><time>2026-05-02T16:38:39.001Z</time></trkpt><trkpt lat="43.448763220799144" lon="11.435924338171"><ele>401.0</ele><time>2026-05-02T16:38:40.001Z</time></trkpt><trkpt lat="43.4486291278772" lon="11.435908858657843"><ele>402.8</ele><time>2026-05-02T16:38:41.001Z</time></trkpt><trkpt lat="43.44852455592582" lon="11.435876077858609"><ele>404.6</ele><time>2026-05-02T16:38:42.001Z</time></trkpt><trkpt lat="43.44844878629811" lon="11.435802422377218"><ele>406.4</ele><time>2026-05-02T16:38:43.001Z</time></trkpt><trkpt lat="43.44841800142034" lon="11.435691504496138"><ele>408.2</ele><time>2026-05-02T16:38:44.001Z</time></trkpt><trkpt lat="43.44843713156112" lon="11.435569266863087"><ele>410.0</ele><time>2026-05-02T16:38:45.001Z</time></trkpt><trkpt lat="43.44850757217295" lon="11.435457419020914"><ele>409.5</ele><time>2026-05-02T16:38:46.001Z</time></trkpt><trkpt lat="43.44861165344342" lon="11.435342585022056"><ele>409.0</ele><time>2026-05-02T16:38:47.001Z</time></trkpt><trkpt lat="43.448728330485714" lon="11.435200578822771"><ele>408.5</ele><time>2026-05-02T16:38:48.001Z</time></trkpt><trkpt lat="43.44883850308113" lon="11.43504566301316"><ele>408.0</ele><time>2026-05-02T16:38:49.001Z</time></trkpt><trkpt lat="43.448941448181394" lon="11.434877837831037"><ele>408.0</ele><time>2026-05-02T16:38:50.001Z</time></trkpt><trkpt lat="43.44901487777698" lon="11.434683197433587"><ele>408.0</ele><time>2026-05-02T16:38:51Z</time></trkpt><trkpt lat="43.44909554815542" lon="11.434519053768662"><ele>408.0</ele><time>2026-05-02T16:38:52Z</time></trkpt><trkpt lat="43.44913772228788" lon="11.434363781380688"><ele>408.0</ele><time>2026-05-02T16:38:53Z</time></trkpt><trkpt lat="43.44915962274541" lon="11.434219074420811"><ele>409.0</ele><time>2026-05-02T16:38:54Z</time></trkpt><trkpt lat="43.449142038693914" lon="11.434065803514873"><ele>410.0</ele><time>2026-05-02T16:38:55Z</time></trkpt><trkpt lat="43.449069891584685" lon="11.433936284768546"><ele>411.0</ele><time>2026-05-02T16:38:56Z</time></trkpt><trkpt lat="43.44896919263334" lon="11.433849926923324"><ele>412.0</ele><time>2026-05-02T16:38:57Z</time></trkpt><trkpt lat="43.448846992077584" lon="11.433819070091017"><ele>415.25</ele><time>2026-05-02T16:38:58Z</time></trkpt><trkpt lat="43.44872193596169" lon="11.433853628701742"><ele>418.5</ele><time>2026-05-02T16:38:59Z</time></trkpt><trkpt lat="43.448613009658516" lon="11.43396374997569"><ele>421.75</ele><time>2026-05-02T16:39:00Z</time></trkpt><trkpt lat="43.44852257182248" lon="11.43410828377506"><ele>425.0</ele><time>2026-05-02T16:39:01Z</time></trkpt><trkpt lat="43.44842221881342" lon="11.434246706239422"><ele>425.0</ele><time>2026-05-02T16:39:02Z</time></trkpt><trkpt lat="43.4482942299125" lon="11.434342741009086"><ele>425.0</ele><time>2026-05-02T16:39:03Z</time></trkpt><trkpt lat="43.44814766147884" lon="11.434409464854541"><ele>425.0</ele><time>2026-05-02T16:39:04Z</time></trkpt><trkpt lat="43.44798339878292" lon="11.434453577520904"><ele>428.0</ele><time>2026-05-02T16:39:05Z</time></trkpt><trkpt lat="43.44781549897235" lon="11.434504060037604"><ele>431.0</ele><time>2026-05-02T16:39:06Z</time></trkpt><trkpt lat="43.447655707194556" lon="11.434558812971009"><ele>434.0</ele><time>2026-05-02T16:39:07Z</time></trkpt><trkpt lat="43.44749305941397" lon="11.434612838760286"><ele>435.3333333333333</ele><time>2026-05-02T16:39:08Z</time></trkpt><trkpt lat="43.447330732789986" lon="11.43465863006105"><ele>436.66666666666663</ele><time>2026-05-02T16:39:09Z</time></trkpt><trkpt lat="43.44716843130506" lon="11.434704962776134"><ele>438.0</ele><time>2026-05-02T16:39:10Z</time></trkpt><trkpt lat="43.447012901808684" lon="11.434762778097097"><ele>438.0</ele><time>2026-05-02T16:39:11Z</time></trkpt><trkpt lat="43.44686689802744" lon="11.43485388761008"><ele>438.0</ele><time>2026-05-02T16:39:12Z</time></trkpt><trkpt lat="43.44673999626907" lon="11.434993889164495"><ele>438.0</ele><time>2026-05-02T16:39:13Z</time></trkpt><trkpt lat="43.44663086291826" lon="11.435169600584388"><ele>438.0</ele><time>2026-05-02T16:39:14Z</time></trkpt><trkpt lat="43.44652614760755" lon="11.43536070736608"><ele>438.0</ele><time>2026-05-02T16:39:15Z</time></trkpt><trkpt lat="43.44641770766614" lon="11.435548062616697"><ele>438.0</ele><time>2026-05-02T16:39:16Z</time></trkpt><trkpt lat="43.44631054470732" lon="11.43573682650733"><ele>440.66666666666663</ele><time>2026-05-02T16:39:17Z</time></trkpt><trkpt lat="43.446200960462555" lon="11.435924569724571"><ele>443.3333333333333</ele><time>2026-05-02T16:39:18Z</time></trkpt><trkpt lat="43.446092021409775" lon="11.436109480300331"><ele>446.0</ele><time>2026-05-02T16:39:19Z</time></trkpt><trkpt lat="43.44598326694148" lon="11.436292356143147"><ele>446.3333333333333</ele><time>2026-05-02T16:39:20Z</time></trkpt><trkpt lat="43.44587639845787" lon="11.436477056025184"><ele>446.66666666666663</ele><time>2026-05-02T16:39:21Z</time></trkpt><trkpt lat="43.445772008358006" lon="11.436658869180247"><ele>447.0</ele><time>2026-05-02T16:39:22Z</time></trkpt><trkpt lat="43.44566863659607" lon="11.43683682360053"><ele>447.0</ele><time>2026-05-02T16:39:23Z</time></trkpt><trkpt lat="43.44556479952264" lon="11.437016809470236"><ele>447.0</ele><time>2026-05-02T16:39:24Z</time></trkpt><trkpt lat="43.44545505798238" lon="11.437198872670137"><ele>447.0</ele><time>2026-05-02T16:39:25Z</time></trkpt><trkpt lat="43.44533290799107" lon="11.437368093389406"><ele>446.0</ele><time>2026-05-02T16:39:26Z</time></trkpt><trkpt lat="43.44519683537675" lon="11.437518910202373"><ele>445.0</ele><time>2026-05-02T16:39:27Z</time></trkpt><trkpt lat="43.44505507516387" lon="11.437655451769247"><ele>444.0</ele><time>2026-05-02T16:39:28Z</time></trkpt><trkpt lat="43.44491238366434" lon="11.437768417213801"><ele>444.0</ele><time>2026-05-02T16:39:29Z</time></trkpt><trkpt lat="43.44475678078229" lon="11.437855835774547"><ele>444.0</ele><time>2026-05-02T16:39:30Z</time></trkpt><trkpt lat="43.444593800287905" lon="11.437926766472728"><ele>444.0</ele><time>2026-05-02T16:39:31Z</time></trkpt><trkpt lat="43.44442726349777" lon="11.437993123583489"><ele>448.0</ele><time>2026-05-02T16:39:32Z</time></trkpt><trkpt lat="43.44426087997237" lon="11.43806264521587"><ele>452.0</ele><time>2026-05-02T16:39:33Z</time></trkpt><trkpt lat="43.44410013025305" lon="11.438125878925945"><ele>456.0</ele><time>2026-05-02T16:39:34Z</time></trkpt><trkpt lat="43.44395409898795" lon="11.438177984506314"><ele>456.0</ele><time>2026-05-02T16:39:35Z</time></trkpt><trkpt lat="43.44382442704968" lon="11.438216650834661"><ele>456.0</ele><time>2026-05-02T16:39:36Z</time></trkpt><trkpt lat="43.44371122812438" lon="11.438281471606187"><ele>456.0</ele><time>2026-05-02T16:39:37Z</time></trkpt><trkpt lat="43.44361706976022" lon="11.43840196911936"><ele>456.0</ele><time>2026-05-02T16:39:38Z</time></trkpt><trkpt lat="43.44353627005876" lon="11.438537634607009"><ele>456.20000000000005</ele><time>2026-05-02T16:39:39Z</time></trkpt><trkpt lat="43.44345487689446" lon="11.438626034805349"><ele>456.40000000000003</ele><time>2026-05-02T16:39:40Z</time></trkpt><trkpt lat="43.44340891825652" lon="11.438735577303586"><ele>456.6</ele><time>2026-05-02T16:39:41Z</time></trkpt><trkpt lat="43.44337386147731" lon="11.438841261857766"><ele>456.8</ele><time>2026-05-02T16:39:42Z</time></trkpt><trkpt lat="43.443376574844876" lon="11.438970970458733"><ele>457.0</ele><time>2026-05-02T16:39:43Z</time></trkpt><trkpt lat="43.443416715567714" lon="11.439107697600212"><ele>457.0</ele><time>2026-05-02T16:39:44Z</time></trkpt><trkpt lat="43.44347822167477" lon="11.439255815900353"><ele>457.0</ele><time>2026-05-02T16:39:45Z</time></trkpt><trkpt lat="43.44355044812964" lon="11.43942170254058"><ele>457.0</ele><time>2026-05-02T16:39:46Z</time></trkpt><trkpt lat="43.44360358274731" lon="11.439579871368846"><ele>457.0</ele><time>2026-05-02T16:39:47Z</time></trkpt><trkpt lat="43.443630570483435" lon="11.439740662940393"><ele>456.0</ele><time>2026-05-02T16:39:48Z</time></trkpt><trkpt lat="43.44363190276001" lon="11.43990367629508"><ele>455.0</ele><time>2026-05-02T16:39:49Z</time></trkpt><trkpt lat="43.443609776458565" lon="11.440073222806678"><ele>454.0</ele><time>2026-05-02T16:39:50Z</time></trkpt><trkpt lat="43.443565182214805" lon="11.440243682752659"><ele>453.0</ele><time>2026-05-02T16:39:51Z</time></trkpt><trkpt lat="43.443495825775805" lon="11.440404619768266"><ele>454.25</ele><time>2026-05-02T16:39:52Z</time></trkpt><trkpt lat="43.4434050911975" lon="11.440553924166231"><ele>455.5</ele><time>2026-05-02T16:39:53Z</time></trkpt><trkpt lat="43.443290361635846" lon="11.440672316379542"><ele>456.75</ele><time>2026-05-02T16:39:54Z</time></trkpt><trkpt lat="43.44318558441761" lon="11.440801303928767"><ele>458.0</ele><time>2026-05-02T16:39:55Z</time></trkpt><trkpt lat="43.443093829917714" lon="11.44094619405388"><ele>458.0</ele><time>2026-05-02T16:39:56Z</time></trkpt><trkpt lat="43.44298838840082" lon="11.441076727756569"><ele>458.0</ele><time>2026-05-02T16:39:57Z</time></trkpt><trkpt lat="43.44289356750577" lon="11.441213352659009"><ele>458.0</ele><time>2026-05-02T16:39:58Z</time></trkpt><trkpt lat="43.44281541195447" lon="11.441360150399369"><ele>458.0</ele><time>2026-05-02T16:39:59Z</time></trkpt><trkpt lat="43.4427543358224" lon="11.44150823510618"><ele>455.75</ele><time>2026-05-02T16:40:00Z</time></trkpt><trkpt lat="43.44272109907075" lon="11.441674660808319"><ele>453.5</ele><time>2026-05-02T16:40:01Z</time></trkpt><trkpt lat="43.44271290613106" lon="11.441853228105664"><ele>451.25</ele><time>2026-05-02T16:40:02Z</time></trkpt><trkpt lat="43.44272815797334" lon="11.442033297842325"><ele>449.0</ele><time>2026-05-02T16:40:03Z</time></trkpt><trkpt lat="43.44276250432312" lon="11.442212124079612"><ele>449.0</ele><time>2026-05-02T16:40:04Z</time></trkpt><trkpt lat="43.44279653029436" lon="11.442398385456963"><ele>449.0</ele><time>2026-05-02T16:40:05Z</time></trkpt><trkpt lat="43.4428203562483" lon="11.442591926730604"><ele>449.0</ele><time>2026-05-02T16:40:06Z</time></trkpt><trkpt lat="43.442843686411365" lon="11.442786488992901"><ele>449.0</ele><time>2026-05-02T16:40:07Z</time></trkpt><trkpt lat="43.44284483168795" lon="11.442986062332599"><ele>448.3333333333333</ele><time>2026-05-02T16:40:08Z</time></trkpt><trkpt lat="43.44281273412428" lon="11.443187823647762"><ele>447.66666666666663</ele><time>2026-05-02T16:40:09Z</time></trkpt><trkpt lat="43.44276071679551" lon="11.443386063257396"><ele>447.0</ele><time>2026-05-02T16:40:10Z</time></trkpt><trkpt lat="43.44270584553886" lon="11.443584853021136"><ele>447.0</ele><time>2026-05-02T16:40:11Z</time></trkpt><trkpt lat="43.44265601091495" lon="11.443783265038133"><ele>447.0</ele><time>2026-05-02T16:40:12Z</time></trkpt><trkpt lat="43.442573965416116" lon="11.443945054585688"><ele>447.0</ele><time>2026-05-02T16:40:13Z</time></trkpt><trkpt lat="43.4424825170492" lon="11.444093595026896"><ele>447.0</ele><time>2026-05-02T16:40:14Z</time></trkpt><trkpt lat="43.44237629739907" lon="11.444238931011999"><ele>447.66666666666663</ele><time>2026-05-02T16:40:15Z</time></trkpt><trkpt lat="43.44227482737927" lon="11.444395278522796"><ele>448.3333333333333</ele><time>2026-05-02T16:40:16Z</time></trkpt><trkpt lat="43.44216205590325" lon="11.444537426181446"><ele>449.0</ele><time>2026-05-02T16:40:17Z</time></trkpt><trkpt lat="43.442050412421445" lon="11.444679972241879"><ele>450.5</ele><time>2026-05-02T16:40:18Z</time></trkpt><trkpt lat="43.44194200745832" lon="11.444820308586271"><ele>452.0</ele><time>2026-05-02T16:40:19Z</time></trkpt><trkpt lat="43.44183755755495" lon="11.444957321879311"><ele>453.5</ele><time>2026-05-02T16:40:20Z</time></trkpt><trkpt lat="43.441750488659906" lon="11.445109005396807"><ele>455.0</ele><time>2026-05-02T16:40:21Z</time></trkpt><trkpt lat="43.44168586900088" lon="11.445280984707537"><ele>456.0</ele><time>2026-05-02T16:40:22Z</time></trkpt><trkpt lat="43.44165571820296" lon="11.445470091217425"><ele>457.0</ele><time>2026-05-02T16:40:23Z</time></trkpt><trkpt lat="43.44165363081774" lon="11.445669236947882"><ele>458.0</ele><time>2026-05-02T16:40:24Z</time></trkpt><trkpt lat="43.4416720790079" lon="11.44586443828981"><ele>459.0</ele><time>2026-05-02T16:40:25Z</time></trkpt><trkpt lat="43.4417238611318" lon="11.446050723295393"><ele>459.0</ele><time>2026-05-02T16:40:25.999Z</time></trkpt><trkpt lat="43.441786177915084" lon="11.446226959354973"><ele>459.0</ele><time>2026-05-02T16:40:26.999Z</time></trkpt><trkpt lat="43.44187142167174" lon="11.446382965964544"><ele>459.0</ele><time>2026-05-02T16:40:27.999Z</time></trkpt><trkpt lat="43.441980524700185" lon="11.446519932472157"><ele>459.0</ele><time>2026-05-02T16:40:28.999Z</time></trkpt><trkpt lat="43.44210344482009" lon="11.446651973250102"><ele>460.66666666666663</ele><time>2026-05-02T16:40:29.999Z</time></trkpt><trkpt lat="43.44223692309443" lon="11.446786584785182"><ele>462.3333333333333</ele><time>2026-05-02T16:40:30.999Z</time></trkpt><trkpt lat="43.44236204600154" lon="11.446921438785447"><ele>464.0</ele><time>2026-05-02T16:40:31.999Z</time></trkpt><trkpt lat="43.442477672750584" lon="11.447056426834921"><ele>466.5</ele><time>2026-05-02T16:40:32.999Z</time></trkpt><trkpt lat="43.44257185912272" lon="11.44718935282694"><ele>469.0</ele><time>2026-05-02T16:40:33.999Z</time></trkpt><trkpt lat="43.44264399655811" lon="11.447341827655727"><ele>471.5</ele><time>2026-05-02T16:40:34.999Z</time></trkpt><trkpt lat="43.442681189205416" lon="11.447520841556035"><ele>474.0</ele><time>2026-05-02T16:40:35.999Z</time></trkpt><trkpt lat="43.44267344210937" lon="11.447700298474391"><ele>474.0</ele><time>2026-05-02T16:40:36.999Z</time></trkpt><trkpt lat="43.442602988032995" lon="11.447852813913036"><ele>474.0</ele><time>2026-05-02T16:40:37.999Z</time></trkpt><trkpt lat="43.44252970316886" lon="11.44801242321787"><ele>474.0</ele><time>2026-05-02T16:40:38.999Z</time></trkpt><trkpt lat="43.44245671556744" lon="11.44819743534782"><ele>474.0</ele><time>2026-05-02T16:40:39.999Z</time></trkpt><trkpt lat="43.4423644471772" lon="11.448366853996495"><ele>475.25</ele><time>2026-05-02T16:40:41.001Z</time></trkpt><trkpt lat="43.44227857681062" lon="11.448541530009114"><ele>476.5</ele><time>2026-05-02T16:40:42.001Z</time></trkpt><trkpt lat="43.4422002774886" lon="11.448703959192697"><ele>477.75</ele><time>2026-05-02T16:40:43.001Z</time></trkpt><trkpt lat="43.44214087190694" lon="11.448863897990758"><ele>479.0</ele><time>2026-05-02T16:40:44.001Z</time></trkpt><trkpt lat="43.44211701473608" lon="11.449021417398454"><ele>479.0</ele><time>2026-05-02T16:40:45.001Z</time></trkpt><trkpt lat="43.4421265583097" lon="11.449170954083774"><ele>479.0</ele><time>2026-05-02T16:40:46.001Z</time></trkpt><trkpt lat="43.44217324120967" lon="11.449321064655816"><ele>479.0</ele><time>2026-05-02T16:40:47.001Z</time></trkpt><trkpt lat="43.44223171837804" lon="11.44947931072262"><ele>479.0</ele><time>2026-05-02T16:40:48.001Z</time></trkpt><trkpt lat="43.44229023856977" lon="11.449636351420695"><ele>479.0</ele><time>2026-05-02T16:40:49.001Z</time></trkpt><trkpt lat="43.442350075874856" lon="11.449792312911864"><ele>479.0</ele><time>2026-05-02T16:40:50.001Z</time></trkpt><trkpt lat="43.44240926760966" lon="11.449951923484694"><ele>479.0</ele><time>2026-05-02T16:40:51.001Z</time></trkpt><trkpt lat="43.442467680804995" lon="11.450111741564191"><ele>479.0</ele><time>2026-05-02T16:40:52.001Z</time></trkpt><trkpt lat="43.44252627556451" lon="11.450266095889447"><ele>479.0</ele><time>2026-05-02T16:40:53.001Z</time></trkpt><trkpt lat="43.44258397582342" lon="11.450417807650629"><ele>479.0</ele><time>2026-05-02T16:40:54.001Z</time></trkpt><trkpt lat="43.442640301593045" lon="11.450567929351699"><ele>479.0</ele><time>2026-05-02T16:40:55.001Z</time></trkpt><trkpt lat="43.44269719202046" lon="11.450715635753427"><ele>479.0</ele><time>2026-05-02T16:40:56Z</time></trkpt><trkpt lat="43.44275138341839" lon="11.450862002503666"><ele>479.5</ele><time>2026-05-02T16:40:57Z</time></trkpt><trkpt lat="43.44279846333346" lon="11.451012902107523"><ele>480.0</ele><time>2026-05-02T16:40:58Z</time></trkpt><trkpt lat="43.442827683818564" lon="11.451166571956026"><ele>480.5</ele><time>2026-05-02T16:40:59Z</time></trkpt><trkpt lat="43.442831613743216" lon="11.451332644963273"><ele>481.0</ele><time>2026-05-02T16:41:00Z</time></trkpt><trkpt lat="43.44277706405337" lon="11.451486278911204"><ele>483.0</ele><time>2026-05-02T16:41:01Z</time></trkpt><trkpt lat="43.442708702549744" lon="11.451631658469326"><ele>485.0</ele><time>2026-05-02T16:41:02Z</time></trkpt><trkpt lat="43.442638391506954" lon="11.45178789175114"><ele>487.0</ele><time>2026-05-02T16:41:03Z</time></trkpt><trkpt lat="43.442552946991654" lon="11.451932796209139"><ele>489.0</ele><time>2026-05-02T16:41:04Z</time></trkpt><trkpt lat="43.442474186197124" lon="11.45207397122424"><ele>491.5</ele><time>2026-05-02T16:41:05Z</time></trkpt><trkpt lat="43.44238648757336" lon="11.452204207656823"><ele>494.0</ele><time>2026-05-02T16:41:06Z</time></trkpt><trkpt lat="43.44233329580782" lon="11.452358253435653"><ele>496.5</ele><time>2026-05-02T16:41:07Z</time></trkpt><trkpt lat="43.442283229717276" lon="11.452500330195988"><ele>499.0</ele><time>2026-05-02T16:41:08Z</time></trkpt><trkpt lat="43.44226107704011" lon="11.452658751753239"><ele>499.0</ele><time>2026-05-02T16:41:09Z</time></trkpt><trkpt lat="43.44226586028317" lon="11.452829178463212"><ele>499.0</ele><time>2026-05-02T16:41:10Z</time></trkpt><trkpt lat="43.442283226554466" lon="11.453010042985863"><ele>499.0</ele><time>2026-05-02T16:41:11Z</time></trkpt><trkpt lat="43.442304423404764" lon="11.453192731578342"><ele>499.0</ele><time>2026-05-02T16:41:12Z</time></trkpt><trkpt lat="43.442328582660394" lon="11.453373035117034"><ele>499.5</ele><time>2026-05-02T16:41:13Z</time></trkpt><trkpt lat="43.44234236434047" lon="11.453541486602601"><ele>500.0</ele><time>2026-05-02T16:41:14Z</time></trkpt><trkpt lat="43.442329097357884" lon="11.453715740729837"><ele>500.5</ele><time>2026-05-02T16:41:15Z</time></trkpt><trkpt lat="43.44227640644344" lon="11.453888653037685"><ele>501.0</ele><time>2026-05-02T16:41:16Z</time></trkpt><trkpt lat="43.44226085943756" lon="11.454080968805275"><ele>500.75</ele><time>2026-05-02T16:41:17Z</time></trkpt><trkpt lat="43.442247315049244" lon="11.454278045750144"><ele>500.5</ele><time>2026-05-02T16:41:18Z</time></trkpt><trkpt lat="43.44224454142064" lon="11.45448034386528"><ele>500.25</ele><time>2026-05-02T16:41:19Z</time></trkpt><trkpt lat="43.442229361841356" lon="11.45468648004876"><ele>500.0</ele><time>2026-05-02T16:41:20Z</time></trkpt><trkpt lat="43.44222775200232" lon="11.454891235547429"><ele>500.0</ele><time>2026-05-02T16:41:21Z</time></trkpt><trkpt lat="43.442240641558655" lon="11.455093582200892"><ele>500.0</ele><time>2026-05-02T16:41:22Z</time></trkpt><trkpt lat="43.4422364096422" lon="11.45529220121117"><ele>500.0</ele><time>2026-05-02T16:41:23Z</time></trkpt><trkpt lat="43.44222320405621" lon="11.455486107079007"><ele>500.0</ele><time>2026-05-02T16:41:24Z</time></trkpt><trkpt lat="43.44219411006016" lon="11.455679614609544"><ele>500.25</ele><time>2026-05-02T16:41:25Z</time></trkpt><trkpt lat="43.44216434058592" lon="11.455876665897463"><ele>500.5</ele><time>2026-05-02T16:41:26Z</time></trkpt><trkpt lat="43.44214083855882" lon="11.456080274660673"><ele>500.75</ele><time>2026-05-02T16:41:27Z</time></trkpt><trkpt lat="43.44210859611152" lon="11.456284779547689"><ele>501.0</ele><time>2026-05-02T16:41:28Z</time></trkpt><trkpt lat="43.44211343232691" lon="11.456496471796878"><ele>503.0</ele><time>2026-05-02T16:41:29Z</time></trkpt><trkpt lat="43.44210188354805" lon="11.456701064221468"><ele>505.0</ele><time>2026-05-02T16:41:30Z</time></trkpt><trkpt lat="43.4420678099631" lon="11.456889132696425"><ele>507.0</ele><time>2026-05-02T16:41:31Z</time></trkpt><trkpt lat="43.442050614669284" lon="11.457068507541942"><ele>509.0</ele><time>2026-05-02T16:41:32Z</time></trkpt><trkpt lat="43.442032380036146" lon="11.457246289781944"><ele>509.5</ele><time>2026-05-02T16:41:33Z</time></trkpt><trkpt lat="43.4420145625486" lon="11.457418664950621"><ele>510.0</ele><time>2026-05-02T16:41:34Z</time></trkpt><trkpt lat="43.44198568352875" lon="11.457576974649202"><ele>510.5</ele><time>2026-05-02T16:41:35Z</time></trkpt><trkpt lat="43.44195480077864" lon="11.457723858754626"><ele>511.0</ele><time>2026-05-02T16:41:36Z</time></trkpt><trkpt lat="43.44189606204882" lon="11.45784077404397"><ele>511.00000000000006</ele><time>2026-05-02T16:41:37Z</time></trkpt><trkpt lat="43.441837147013146" lon="11.457928854189012"><ele>511.0</ele><time>2026-05-02T16:41:38Z</time></trkpt><trkpt lat="43.44176400608098" lon="11.45798112259503"><ele>511.0</ele><time>2026-05-02T16:41:39Z</time></trkpt><trkpt lat="43.44171083700498" lon="11.458047800961287"><ele>511.0</ele><time>2026-05-02T16:41:40Z</time></trkpt><trkpt lat="43.44164659553398" lon="11.45808983537474"><ele>511.00000000000006</ele><time>2026-05-02T16:41:41Z</time></trkpt><trkpt lat="43.4415784978308" lon="11.458134384676802"><ele>511.0</ele><time>2026-05-02T16:41:42Z</time></trkpt><trkpt lat="43.4415019522021" lon="11.4581875111878"><ele>511.8</ele><time>2026-05-02T16:41:43Z</time></trkpt><trkpt lat="43.4414168218459" lon="11.458252752487702"><ele>512.6</ele><time>2026-05-02T16:41:44Z</time></trkpt><trkpt lat="43.44133408636563" lon="11.458335034999962"><ele>513.4</ele><time>2026-05-02T16:41:45Z</time></trkpt><trkpt lat="43.441268352096" lon="11.458437347591694"><ele>514.2</ele><time>2026-05-02T16:41:46Z</time></trkpt><trkpt lat="43.4412283999235" lon="11.458558808716202"><ele>515.0</ele><time>2026-05-02T16:41:47Z</time></trkpt><trkpt lat="43.44121897196054" lon="11.458692783698227"><ele>513.6</ele><time>2026-05-02T16:41:48Z</time></trkpt><trkpt lat="43.44124193302885" lon="11.458826032652311"><ele>512.2</ele><time>2026-05-02T16:41:49Z</time></trkpt><trkpt lat="43.44129535887053" lon="11.45894969495657"><ele>510.79999999999995</ele><time>2026-05-02T16:41:50Z</time></trkpt><trkpt lat="43.44137125866243" lon="11.459062305370603"><ele>509.4</ele><time>2026-05-02T16:41:51Z</time></trkpt><trkpt lat="43.4414615160836" lon="11.459166100893569"><ele>508.0</ele><time>2026-05-02T16:41:52Z</time></trkpt><trkpt lat="43.441558415096324" lon="11.459262988373649"><ele>507.75</ele><time>2026-05-02T16:41:53Z</time></trkpt><trkpt lat="43.44165495930969" lon="11.459343727960322"><ele>507.5</ele><time>2026-05-02T16:41:54Z</time></trkpt><trkpt lat="43.44176197862702" lon="11.459392381604815"><ele>507.25</ele><time>2026-05-02T16:41:55Z</time></trkpt><trkpt lat="43.44187782693535" lon="11.459399695220169"><ele>507.0</ele><time>2026-05-02T16:41:56Z</time></trkpt><trkpt lat="43.44199801899673" lon="11.459367744643172"><ele>507.0</ele><time>2026-05-02T16:41:57Z</time></trkpt><trkpt lat="43.44212608767327" lon="11.459317957694962"><ele>507.0</ele><time>2026-05-02T16:41:58Z</time></trkpt><trkpt lat="43.44225842719619" lon="11.459291441468022"><ele>507.0</ele><time>2026-05-02T16:41:59Z</time></trkpt><trkpt lat="43.44238926755786" lon="11.459307066179191"><ele>507.0</ele><time>2026-05-02T16:42:00Z</time></trkpt><trkpt lat="43.44251143279865" lon="11.459373380977455"><ele>504.75</ele><time>2026-05-02T16:42:01Z</time></trkpt><trkpt lat="43.44261920986257" lon="11.459500925809039"><ele>502.5</ele><time>2026-05-02T16:42:02Z</time></trkpt><trkpt lat="43.44270741331141" lon="11.459672371466187"><ele>500.25</ele><time>2026-05-02T16:42:03Z</time></trkpt><trkpt lat="43.44277729335524" lon="11.459861485264378"><ele>498.0</ele><time>2026-05-02T16:42:04Z</time></trkpt><trkpt lat="43.44283305041423" lon="11.460051427724949"><ele>497.5</ele><time>2026-05-02T16:42:05Z</time></trkpt><trkpt lat="43.44288361209897" lon="11.460220650556273"><ele>497.0</ele><time>2026-05-02T16:42:06Z</time></trkpt><trkpt lat="43.44295062098896" lon="11.46034875669285"><ele>496.5</ele><time>2026-05-02T16:42:07Z</time></trkpt><trkpt lat="43.44303501319948" lon="11.460435062109081"><ele>496.0</ele><time>2026-05-02T16:42:08Z</time></trkpt><trkpt lat="43.44313288184429" lon="11.460500617926296"><ele>496.0</ele><time>2026-05-02T16:42:09Z</time></trkpt><trkpt lat="43.44325296712637" lon="11.460481243077938"><ele>496.0</ele><time>2026-05-02T16:42:10Z</time></trkpt><trkpt lat="43.443368477670745" lon="11.460395533617822"><ele>496.0</ele><time>2026-05-02T16:42:11Z</time></trkpt><trkpt lat="43.44348184631025" lon="11.46032659268732"><ele>496.0</ele><time>2026-05-02T16:42:12Z</time></trkpt><trkpt lat="43.4435981968739" lon="11.460287417901728"><ele>496.0</ele><time>2026-05-02T16:42:13Z</time></trkpt><trkpt lat="43.44371664110909" lon="11.460306256079313"><ele>496.0</ele><time>2026-05-02T16:42:14Z</time></trkpt><trkpt lat="43.44382733084769" lon="11.460388692219963"><ele>496.0</ele><time>2026-05-02T16:42:15Z</time></trkpt><trkpt lat="43.443907333756194" lon="11.460495670550095"><ele>496.0</ele><time>2026-05-02T16:42:16Z</time></trkpt><trkpt lat="43.443959110403014" lon="11.46062224405116"><ele>494.0</ele><time>2026-05-02T16:42:17Z</time></trkpt><trkpt lat="43.443992455281034" lon="11.460772275743587"><ele>492.0</ele><time>2026-05-02T16:42:18Z</time></trkpt><trkpt lat="43.44398878701953" lon="11.46093612211795"><ele>490.0</ele><time>2026-05-02T16:42:19Z</time></trkpt><trkpt lat="43.443932332891265" lon="11.461083259597356"><ele>488.0</ele><time>2026-05-02T16:42:20Z</time></trkpt><trkpt lat="43.44390123576761" lon="11.461249710516547"><ele>489.75</ele><time>2026-05-02T16:42:21Z</time></trkpt><trkpt lat="43.443852013149794" lon="11.461413950362727"><ele>491.5</ele><time>2026-05-02T16:42:22Z</time></trkpt><trkpt lat="43.443809925240686" lon="11.461579343116801"><ele>493.25</ele><time>2026-05-02T16:42:23Z</time></trkpt><trkpt lat="43.44379468177344" lon="11.461751954613515"><ele>495.0</ele><time>2026-05-02T16:42:24Z</time></trkpt><trkpt lat="43.443807700312284" lon="11.461940787463616"><ele>493.25</ele><time>2026-05-02T16:42:25Z</time></trkpt><trkpt lat="43.44381656589216" lon="11.462127458989544"><ele>491.5</ele><time>2026-05-02T16:42:26Z</time></trkpt><trkpt lat="43.44383373987785" lon="11.462297981835913"><ele>489.75</ele><time>2026-05-02T16:42:26.999Z</time></trkpt><trkpt lat="43.44382201492157" lon="11.462456711137017"><ele>488.0</ele><time>2026-05-02T16:42:27.999Z</time></trkpt><trkpt lat="43.44377188370719" lon="11.462599066477841"><ele>488.0</ele><time>2026-05-02T16:42:28.999Z</time></trkpt><trkpt lat="43.443733175808475" lon="11.462758419586107"><ele>487.99999999999994</ele><time>2026-05-02T16:42:29.999Z</time></trkpt><trkpt lat="43.443708861099736" lon="11.46288814650492"><ele>487.99999999999994</ele><time>2026-05-02T16:42:30.999Z</time></trkpt><trkpt lat="43.443750307721416" lon="11.463022393425472"><ele>488.0</ele><time>2026-05-02T16:42:31.999Z</time></trkpt><trkpt lat="43.44383752293783" lon="11.463125710686604"><ele>488.0</ele><time>2026-05-02T16:42:32.999Z</time></trkpt><trkpt lat="43.443952671916136" lon="11.46318514691474"><ele>492.25</ele><time>2026-05-02T16:42:33.999Z</time></trkpt><trkpt lat="43.44407346534778" lon="11.463222755390529"><ele>496.5</ele><time>2026-05-02T16:42:34.999Z</time></trkpt><trkpt lat="43.44418591837889" lon="11.463284417601056"><ele>500.75</ele><time>2026-05-02T16:42:35.999Z</time></trkpt><trkpt lat="43.444295241205886" lon="11.463356996694422"><ele>505.0</ele><time>2026-05-02T16:42:36.999Z</time></trkpt><trkpt lat="43.44437455133422" lon="11.463457252828924"><ele>505.0</ele><time>2026-05-02T16:42:37.999Z</time></trkpt><trkpt lat="43.44439916187609" lon="11.463596584990242"><ele>505.0</ele><time>2026-05-02T16:42:38.999Z</time></trkpt><trkpt lat="43.44438294987092" lon="11.463744093489742"><ele>505.0</ele><time>2026-05-02T16:42:39.999Z</time></trkpt><trkpt lat="43.44431393890182" lon="11.463855148726681"><ele>505.0</ele><time>2026-05-02T16:42:40.999Z</time></trkpt><trkpt lat="43.444224041938625" lon="11.46395664824205"><ele>505.0</ele><time>2026-05-02T16:42:41.999Z</time></trkpt><trkpt lat="43.44412982832808" lon="11.464088445522512"><ele>506.5</ele><time>2026-05-02T16:42:42.999Z</time></trkpt><trkpt lat="43.444053818589765" lon="11.46420716357719"><ele>508.0</ele><time>2026-05-02T16:42:43.999Z</time></trkpt><trkpt lat="43.44404096240277" lon="11.464358375388436"><ele>509.5</ele><time>2026-05-02T16:42:44.999Z</time></trkpt><trkpt lat="43.44406948348209" lon="11.464524200160458"><ele>511.0</ele><time>2026-05-02T16:42:45.999Z</time></trkpt><trkpt lat="43.444112246919836" lon="11.464730172377338"><ele>512.25</ele><time>2026-05-02T16:42:47Z</time></trkpt><trkpt lat="43.444115377167584" lon="11.464962825512696"><ele>513.5</ele><time>2026-05-02T16:42:48Z</time></trkpt><trkpt lat="43.44413679924226" lon="11.465157320406048"><ele>514.75</ele><time>2026-05-02T16:42:49Z</time></trkpt><trkpt lat="43.444192784809744" lon="11.465319445491406"><ele>516.0</ele><time>2026-05-02T16:42:50Z</time></trkpt><trkpt lat="43.444277149547034" lon="11.465463144694448"><ele>517.8</ele><time>2026-05-02T16:42:51Z</time></trkpt><trkpt lat="43.44432985793182" lon="11.465602597573838"><ele>519.6</ele><time>2026-05-02T16:42:52Z</time></trkpt><trkpt lat="43.444333850890764" lon="11.46571363869105"><ele>521.4</ele><time>2026-05-02T16:42:53Z</time></trkpt><trkpt lat="43.444308175354855" lon="11.465836712209509"><ele>523.2</ele><time>2026-05-02T16:42:54Z</time></trkpt><trkpt lat="43.444225685044344" lon="11.465927695966778"><ele>525.0</ele><time>2026-05-02T16:42:55Z</time></trkpt><trkpt lat="43.444118749903765" lon="11.465955633252003"><ele>525.0</ele><time>2026-05-02T16:42:56Z</time></trkpt><trkpt lat="43.444007000112144" lon="11.465899473303425"><ele>525.0</ele><time>2026-05-02T16:42:57Z</time></trkpt><trkpt lat="43.443865487752056" lon="11.465848433489441"><ele>525.0</ele><time>2026-05-02T16:42:58Z</time></trkpt><trkpt lat="43.443735757209524" lon="11.465778937502911"><ele>525.0</ele><time>2026-05-02T16:42:59Z</time></trkpt><trkpt lat="43.443584928366526" lon="11.465776960420326"><ele>525.5</ele><time>2026-05-02T16:43:00Z</time></trkpt><trkpt lat="43.44342723003572" lon="11.465824940208254"><ele>526.0</ele><time>2026-05-02T16:43:01Z</time></trkpt><trkpt lat="43.443285735482505" lon="11.465860503314577"><ele>526.5</ele><time>2026-05-02T16:43:02Z</time></trkpt><trkpt lat="43.44315533711988" lon="11.465902294012661"><ele>527.0</ele><time>2026-05-02T16:43:03Z</time></trkpt><trkpt lat="43.44305768714509" lon="11.465995706952034"><ele>527.0</ele><time>2026-05-02T16:43:04Z</time></trkpt><trkpt lat="43.44297460673122" lon="11.46616251194252"><ele>527.0</ele><time>2026-05-02T16:43:05Z</time></trkpt><trkpt lat="43.442868647428135" lon="11.466322445901193"><ele>527.0</ele><time>2026-05-02T16:43:06Z</time></trkpt><trkpt lat="43.44272900415708" lon="11.466400424698183"><ele>527.8000000000001</ele><time>2026-05-02T16:43:07Z</time></trkpt><trkpt lat="43.44260248795488" lon="11.466473025567392"><ele>528.6</ele><time>2026-05-02T16:43:08Z</time></trkpt><trkpt lat="43.44250509525537" lon="11.466529620919895"><ele>529.4000000000001</ele><time>2026-05-02T16:43:09Z</time></trkpt><trkpt lat="43.442486659708145" lon="11.466627918171964"><ele>530.2</ele><time>2026-05-02T16:43:10Z</time></trkpt><trkpt lat="43.44249956351401" lon="11.466744423194871"><ele>531.0</ele><time>2026-05-02T16:43:11Z</time></trkpt><trkpt lat="43.44252867478561" lon="11.466868402652956"><ele>531.0</ele><time>2026-05-02T16:43:12Z</time></trkpt><trkpt lat="43.442589785786005" lon="11.46697135191261"><ele>531.0</ele><time>2026-05-02T16:43:13Z</time></trkpt><trkpt lat="43.44268002576357" lon="11.467069545598138"><ele>531.0</ele><time>2026-05-02T16:43:14Z</time></trkpt><trkpt lat="43.442807188267274" lon="11.467170194471777"><ele>531.0</ele><time>2026-05-02T16:43:15Z</time></trkpt><trkpt lat="43.442918685488685" lon="11.467301336197998"><ele>535.75</ele><time>2026-05-02T16:43:16Z</time></trkpt><trkpt lat="43.44303691278687" lon="11.467420703495028"><ele>540.5</ele><time>2026-05-02T16:43:17Z</time></trkpt><trkpt lat="43.44313660146982" lon="11.467558404720757"><ele>545.25</ele><time>2026-05-02T16:43:18Z</time></trkpt><trkpt lat="43.443217704756805" lon="11.467720357811135"><ele>550.0</ele><time>2026-05-02T16:43:19Z</time></trkpt><trkpt lat="43.44331103768056" lon="11.46789651873787"><ele>549.75</ele><time>2026-05-02T16:43:20Z</time></trkpt><trkpt lat="43.443396275027396" lon="11.468053332250797"><ele>549.5</ele><time>2026-05-02T16:43:21Z</time></trkpt><trkpt lat="43.44346557231128" lon="11.468209536923293"><ele>549.25</ele><time>2026-05-02T16:43:22Z</time></trkpt><trkpt lat="43.44348550342961" lon="11.468375851140198"><ele>549.0</ele><time>2026-05-02T16:43:23Z</time></trkpt><trkpt lat="43.44346430287246" lon="11.468552153925621"><ele>549.0</ele><time>2026-05-02T16:43:24Z</time></trkpt><trkpt lat="43.443450864457716" lon="11.46873999198918"><ele>549.0</ele><time>2026-05-02T16:43:25Z</time></trkpt><trkpt lat="43.44344905403101" lon="11.468895344545125"><ele>549.0</ele><time>2026-05-02T16:43:26Z</time></trkpt><trkpt lat="43.44350470719956" lon="11.46904562647485"><ele>549.0</ele><time>2026-05-02T16:43:27Z</time></trkpt><trkpt lat="43.44357272198958" lon="11.46919185210659"><ele>550.2</ele><time>2026-05-02T16:43:28Z</time></trkpt><trkpt lat="43.44358044230407" lon="11.469311960027856"><ele>551.4</ele><time>2026-05-02T16:43:29Z</time></trkpt><trkpt lat="43.44352485148413" lon="11.469431975001475"><ele>552.6</ele><time>2026-05-02T16:43:30Z</time></trkpt><trkpt lat="43.443408345258256" lon="11.469489216380255"><ele>553.8</ele><time>2026-05-02T16:43:31Z</time></trkpt><trkpt lat="43.443298911435924" lon="11.469561380110049"><ele>555.0</ele><time>2026-05-02T16:43:32Z</time></trkpt><trkpt lat="43.44320447621013" lon="11.469661478134057"><ele>557.5</ele><time>2026-05-02T16:43:33Z</time></trkpt><trkpt lat="43.443140445112704" lon="11.469809940260506"><ele>560.0</ele><time>2026-05-02T16:43:34Z</time></trkpt><trkpt lat="43.44310032657541" lon="11.469992290650634"><ele>562.5</ele><time>2026-05-02T16:43:35Z</time></trkpt><trkpt lat="43.44302948077308" lon="11.470136908396272"><ele>565.0</ele><time>2026-05-02T16:43:36Z</time></trkpt><trkpt lat="43.44292294800995" lon="11.470210537763064"><ele>565.0</ele><time>2026-05-02T16:43:37Z</time></trkpt><trkpt lat="43.44280789270694" lon="11.470210642868107"><ele>565.0</ele><time>2026-05-02T16:43:38Z</time></trkpt><trkpt lat="43.442700032345364" lon="11.470141727293068"><ele>565.0</ele><time>2026-05-02T16:43:39Z</time></trkpt><trkpt lat="43.44260564141069" lon="11.470030995525805"><ele>565.0</ele><time>2026-05-02T16:43:40Z</time></trkpt><trkpt lat="43.4425178805155" lon="11.469925280524459"><ele>565.0</ele><time>2026-05-02T16:43:41Z</time></trkpt><trkpt lat="43.44241534146776" lon="11.469898231871031"><ele>565.0</ele><time>2026-05-02T16:43:42Z</time></trkpt><trkpt lat="43.44231949525095" lon="11.46994315557517"><ele>565.0</ele><time>2026-05-02T16:43:43Z</time></trkpt><trkpt lat="43.44224435994647" lon="11.470045686231856"><ele>565.0</ele><time>2026-05-02T16:43:44Z</time></trkpt><trkpt lat="43.44218233590709" lon="11.4702153335489"><ele>565.0</ele><time>2026-05-02T16:43:45Z</time></trkpt><trkpt lat="43.4421233949511" lon="11.470408860335096"><ele>563.0</ele><time>2026-05-02T16:43:46Z</time></trkpt><trkpt lat="43.44206929613614" lon="11.470611892512599"><ele>561.0</ele><time>2026-05-02T16:43:47Z</time></trkpt><trkpt lat="43.44204192861217" lon="11.470828235183223"><ele>559.0</ele><time>2026-05-02T16:43:48Z</time></trkpt><trkpt lat="43.44203382663997" lon="11.47105835262057"><ele>562.3333333333334</ele><time>2026-05-02T16:43:49Z</time></trkpt><trkpt lat="43.44202758976544" lon="11.471289200508238"><ele>565.6666666666666</ele><time>2026-05-02T16:43:50Z</time></trkpt><trkpt lat="43.44201690314082" lon="11.471509933994275"><ele>569.0</ele><time>2026-05-02T16:43:51Z</time></trkpt><trkpt lat="43.44200336878555" lon="11.471720417898448"><ele>569.0</ele><time>2026-05-02T16:43:52Z</time></trkpt><trkpt lat="43.442011968256466" lon="11.471931071154367"><ele>569.0</ele><time>2026-05-02T16:43:53Z</time></trkpt><trkpt lat="43.44203111809351" lon="11.472123149244062"><ele>569.0</ele><time>2026-05-02T16:43:54Z</time></trkpt><trkpt lat="43.44204800822918" lon="11.472296294391624"><ele>569.0</ele><time>2026-05-02T16:43:55Z</time></trkpt><trkpt lat="43.442046781317046" lon="11.472437306802659"><ele>571.4</ele><time>2026-05-02T16:43:56Z</time></trkpt><trkpt lat="43.44202837335294" lon="11.472560308921311"><ele>573.8</ele><time>2026-05-02T16:43:57Z</time></trkpt><trkpt lat="43.44196570866335" lon="11.472634123357535"><ele>576.2</ele><time>2026-05-02T16:43:58Z</time></trkpt><trkpt lat="43.44187638465828" lon="11.472687027220877"><ele>578.6</ele><time>2026-05-02T16:43:59Z</time></trkpt><trkpt lat="43.44176318607902" lon="11.472643372074542"><ele>581.0</ele><time>2026-05-02T16:44:00Z</time></trkpt><trkpt lat="43.44165334913421" lon="11.472655527661829"><ele>581.0</ele><time>2026-05-02T16:44:01Z</time></trkpt><trkpt lat="43.44154164301072" lon="11.472673929037565"><ele>581.0</ele><time>2026-05-02T16:44:02Z</time></trkpt><trkpt lat="43.441488492373786" lon="11.472836675159053"><ele>581.0</ele><time>2026-05-02T16:44:03Z</time></trkpt><trkpt lat="43.44146947626964" lon="11.473007315948529"><ele>581.0</ele><time>2026-05-02T16:44:04Z</time></trkpt><trkpt lat="43.44145589804514" lon="11.473198759145115"><ele>583.25</ele><time>2026-05-02T16:44:05Z</time></trkpt><trkpt lat="43.441463487162835" lon="11.473384452561374"><ele>585.5</ele><time>2026-05-02T16:44:06Z</time></trkpt><trkpt lat="43.44148746521881" lon="11.473576632407523"><ele>587.75</ele><time>2026-05-02T16:44:07Z</time></trkpt><trkpt lat="43.441507318184385" lon="11.47376082611352"><ele>590.0</ele><time>2026-05-02T16:44:08Z</time></trkpt><trkpt lat="43.44155106381263" lon="11.473933888630341"><ele>590.5</ele><time>2026-05-02T16:44:09Z</time></trkpt><trkpt lat="43.44163039035508" lon="11.474081870783678"><ele>591.0</ele><time>2026-05-02T16:44:10Z</time></trkpt><trkpt lat="43.44173884131953" lon="11.474203044312619"><ele>591.5</ele><time>2026-05-02T16:44:11Z</time></trkpt><trkpt lat="43.44185531297973" lon="11.474324770423914"><ele>592.0</ele><time>2026-05-02T16:44:12Z</time></trkpt><trkpt lat="43.44194431917762" lon="11.474474620587058"><ele>590.75</ele><time>2026-05-02T16:44:13Z</time></trkpt><trkpt lat="43.441956323058015" lon="11.474671112228185"><ele>589.5</ele><time>2026-05-02T16:44:14Z</time></trkpt><trkpt lat="43.44193540755099" lon="11.474843650576194"><ele>588.25</ele><time>2026-05-02T16:44:15Z</time></trkpt><trkpt lat="43.44190626615245" lon="11.475027417568876"><ele>587.0</ele><time>2026-05-02T16:44:16Z</time></trkpt><trkpt lat="43.44189551553984" lon="11.475217367075727"><ele>587.0</ele><time>2026-05-02T16:44:17Z</time></trkpt><trkpt lat="43.44192757549842" lon="11.475395742012111"><ele>587.0</ele><time>2026-05-02T16:44:18Z</time></trkpt><trkpt lat="43.44199423587783" lon="11.47555122604645"><ele>587.0</ele><time>2026-05-02T16:44:19Z</time></trkpt><trkpt lat="43.44211473473069" lon="11.475706526377813"><ele>587.0</ele><time>2026-05-02T16:44:20Z</time></trkpt><trkpt lat="43.44224324046944" lon="11.475863975722309"><ele>593.3333333333333</ele><time>2026-05-02T16:44:21Z</time></trkpt><trkpt lat="43.44235890507111" lon="11.47604286589854"><ele>599.6666666666666</ele><time>2026-05-02T16:44:22Z</time></trkpt><trkpt lat="43.44247569351326" lon="11.47621276675902"><ele>606.0</ele><time>2026-05-02T16:44:23Z</time></trkpt><trkpt lat="43.44255671427915" lon="11.476378485522146"><ele>606.0</ele><time>2026-05-02T16:44:24Z</time></trkpt><trkpt lat="43.4425940928009" lon="11.476568461398347"><ele>606.0</ele><time>2026-05-02T16:44:25Z</time></trkpt><trkpt lat="43.44260210546588" lon="11.476760092729005"><ele>606.0</ele><time>2026-05-02T16:44:26Z</time></trkpt><trkpt lat="43.442649509226385" lon="11.476937251987147"><ele>606.0</ele><time>2026-05-02T16:44:27Z</time></trkpt><trkpt lat="43.44272634825532" lon="11.477088338257262"><ele>603.25</ele><time>2026-05-02T16:44:28Z</time></trkpt><trkpt lat="43.44284294280776" lon="11.477203072289997"><ele>600.5</ele><time>2026-05-02T16:44:28.999Z</time></trkpt><trkpt lat="43.44298305793503" lon="11.477279738064938"><ele>597.75</ele><time>2026-05-02T16:44:29.999Z</time></trkpt><trkpt lat="43.44312563797754" lon="11.477342526928378"><ele>595.0</ele><time>2026-05-02T16:44:30.999Z</time></trkpt><trkpt lat="43.4432389354251" lon="11.477437091004182"><ele>601.5</ele><time>2026-05-02T16:44:31.999Z</time></trkpt><trkpt lat="43.443307683093494" lon="11.477568654267705"><ele>608.0</ele><time>2026-05-02T16:44:32.999Z</time></trkpt><trkpt lat="43.44337242104396" lon="11.477733999675932"><ele>614.5</ele><time>2026-05-02T16:44:33.999Z</time></trkpt><trkpt lat="43.44342366219527" lon="11.477878938556524"><ele>621.0</ele><time>2026-05-02T16:44:34.999Z</time></trkpt><trkpt lat="43.44347472688064" lon="11.477973043563019"><ele>621.0</ele><time>2026-05-02T16:44:35.999Z</time></trkpt><trkpt lat="43.44356044989137" lon="11.478007113952156"><ele>621.0</ele><time>2026-05-02T16:44:36.999Z</time></trkpt><trkpt lat="43.44365623405539" lon="11.477963548011967"><ele>621.0</ele><time>2026-05-02T16:44:37.999Z</time></trkpt><trkpt lat="43.443728881347205" lon="11.477858342954077"><ele>621.0</ele><time>2026-05-02T16:44:38.999Z</time></trkpt><trkpt lat="43.4437439474021" lon="11.477718926712349"><ele>621.0</ele><time>2026-05-02T16:44:39.999Z</time></trkpt><trkpt lat="43.44369601510738" lon="11.477580744860326"><ele>621.0</ele><time>2026-05-02T16:44:40.999Z</time></trkpt><trkpt lat="43.44360767808971" lon="11.477480325968575"><ele>621.0</ele><time>2026-05-02T16:44:41.999Z</time></trkpt><trkpt lat="43.44349041783432" lon="11.477402186852684"><ele>621.0</ele><time>2026-05-02T16:44:42.999Z</time></trkpt><trkpt lat="43.443412160467204" lon="11.477302498699851"><ele>621.0</ele><time>2026-05-02T16:44:43.999Z</time></trkpt><trkpt lat="43.44337709287242" lon="11.477167948785631"><ele>621.0</ele><time>2026-05-02T16:44:44.999Z</time></trkpt><trkpt lat="43.443408334581996" lon="11.477040655036207"><ele>621.0</ele><time>2026-05-02T16:44:45.999Z</time></trkpt><trkpt lat="43.44349399928111" lon="11.476955052483644"><ele>621.0</ele><time>2026-05-02T16:44:46.999Z</time></trkpt><trkpt lat="43.44360002276524" lon="11.476960612045675"><ele>621.0</ele><time>2026-05-02T16:44:47.999Z</time></trkpt><trkpt lat="43.44368655584927" lon="11.477050975102834"><ele>621.0</ele><time>2026-05-02T16:44:48.999Z</time></trkpt><trkpt lat="43.44370548436672" lon="11.477216223564119"><ele>621.0</ele><time>2026-05-02T16:44:49.999Z</time></trkpt><trkpt lat="43.44376411978016" lon="11.477346090988126"><ele>621.0</ele><time>2026-05-02T16:44:50.999Z</time></trkpt><trkpt lat="43.44383280800157" lon="11.477438876497153"><ele>621.0</ele><time>2026-05-02T16:44:51.999Z</time></trkpt><trkpt lat="43.4439470065629" lon="11.47747666734921"><ele>621.0</ele><time>2026-05-02T16:44:53Z</time></trkpt><trkpt lat="43.44408203488433" lon="11.477465824025245"><ele>626.0</ele><time>2026-05-02T16:44:54Z</time></trkpt><trkpt lat="43.44423617620466" lon="11.47741740913443"><ele>631.0</ele><time>2026-05-02T16:44:55Z</time></trkpt><trkpt lat="43.44434477521258" lon="11.477467996744583"><ele>636.0</ele><time>2026-05-02T16:44:56Z</time></trkpt><trkpt lat="43.44440148709152" lon="11.477569525674479"><ele>641.0</ele><time>2026-05-02T16:44:57Z</time></trkpt><trkpt lat="43.444417436691154" lon="11.477728767146258"><ele>641.0</ele><time>2026-05-02T16:44:58Z</time></trkpt><trkpt lat="43.44439369975468" lon="11.477859006534844"><ele>641.0</ele><time>2026-05-02T16:44:59Z</time></trkpt><trkpt lat="43.444333207781376" lon="11.477969822116899"><ele>641.0</ele><time>2026-05-02T16:45:00Z</time></trkpt><trkpt lat="43.44423502255401" lon="11.478020469971485"><ele>641.0</ele><time>2026-05-02T16:45:01Z</time></trkpt><trkpt lat="43.444119559798125" lon="11.478067362430927"><ele>641.0</ele><time>2026-05-02T16:45:02Z</time></trkpt><trkpt lat="43.44401212330732" lon="11.478153993574944"><ele>639.5</ele><time>2026-05-02T16:45:03Z</time></trkpt><trkpt lat="43.44390708469357" lon="11.478252502081071"><ele>638.0</ele><time>2026-05-02T16:45:04Z</time></trkpt><trkpt lat="43.443840225985156" lon="11.47841426225987"><ele>636.5</ele><time>2026-05-02T16:45:05Z</time></trkpt><trkpt lat="43.44379866846864" lon="11.47860439865499"><ele>635.0</ele><time>2026-05-02T16:45:06Z</time></trkpt><trkpt lat="43.4437288521193" lon="11.478798790127353"><ele>635.0</ele><time>2026-05-02T16:45:07Z</time></trkpt><trkpt lat="43.4436711591972" lon="11.478998516412611"><ele>635.0</ele><time>2026-05-02T16:45:08Z</time></trkpt><trkpt lat="43.44361662952308" lon="11.479191091720933"><ele>635.0</ele><time>2026-05-02T16:45:09Z</time></trkpt><trkpt lat="43.44356588831227" lon="11.479379360120621"><ele>635.0</ele><time>2026-05-02T16:45:10Z</time></trkpt><trkpt lat="43.44353768468829" lon="11.479573942555911"><ele>635.0</ele><time>2026-05-02T16:45:11Z</time></trkpt><trkpt lat="43.44352033514879" lon="11.479765811558497"><ele>635.0</ele><time>2026-05-02T16:45:12Z</time></trkpt><trkpt lat="43.443539009989" lon="11.479960785250885"><ele>635.0</ele><time>2026-05-02T16:45:13Z</time></trkpt><trkpt lat="43.443610512205034" lon="11.48015206826992"><ele>635.3333333333333</ele><time>2026-05-02T16:45:14Z</time></trkpt><trkpt lat="43.443702751918956" lon="11.480321052259681"><ele>635.6666666666666</ele><time>2026-05-02T16:45:15Z</time></trkpt><trkpt lat="43.44382025717928" lon="11.480448928703922"><ele>636.0</ele><time>2026-05-02T16:45:16Z</time></trkpt><trkpt lat="43.44395781283369" lon="11.480533778897456"><ele>639.3333333333334</ele><time>2026-05-02T16:45:17Z</time></trkpt><trkpt lat="43.444110573473004" lon="11.480589415548467"><ele>642.6666666666667</ele><time>2026-05-02T16:45:18Z</time></trkpt><trkpt lat="43.44426414390174" lon="11.480654201063961"><ele>646.0</ele><time>2026-05-02T16:45:19Z</time></trkpt><trkpt lat="43.44441315841537" lon="11.480729922682706"><ele>646.0</ele><time>2026-05-02T16:45:20Z</time></trkpt><trkpt lat="43.44456595709499" lon="11.480807456899763"><ele>646.0</ele><time>2026-05-02T16:45:21Z</time></trkpt><trkpt lat="43.44471674176994" lon="11.480888653247876"><ele>646.0</ele><time>2026-05-02T16:45:22Z</time></trkpt><trkpt lat="43.44485761790244" lon="11.480966451824516"><ele>646.25</ele><time>2026-05-02T16:45:23Z</time></trkpt><trkpt lat="43.44500206728175" lon="11.481029778051303"><ele>646.5</ele><time>2026-05-02T16:45:24Z</time></trkpt><trkpt lat="43.44513065988788" lon="11.48109273810617"><ele>646.75</ele><time>2026-05-02T16:45:25Z</time></trkpt><trkpt lat="43.44524055078033" lon="11.4811666517012"><ele>647.0</ele><time>2026-05-02T16:45:26Z</time></trkpt><trkpt lat="43.445308696598616" lon="11.481302307428592"><ele>647.0</ele><time>2026-05-02T16:45:27Z</time></trkpt><trkpt lat="43.44536000403102" lon="11.481459758095703"><ele>647.0</ele><time>2026-05-02T16:45:28Z</time></trkpt><trkpt lat="43.44541877590115" lon="11.481627290306546"><ele>647.0</ele><time>2026-05-02T16:45:29Z</time></trkpt><trkpt lat="43.44549327740525" lon="11.48179639218836"><ele>647.0</ele><time>2026-05-02T16:45:30Z</time></trkpt><trkpt lat="43.44554634954047" lon="11.48199363719139"><ele>650.0</ele><time>2026-05-02T16:45:31Z</time></trkpt><trkpt lat="43.44561346580016" lon="11.482186571379412"><ele>653.0</ele><time>2026-05-02T16:45:32Z</time></trkpt><trkpt lat="43.44568134535525" lon="11.48238571606381"><ele>656.0</ele><time>2026-05-02T16:45:33Z</time></trkpt><trkpt lat="43.44574830757639" lon="11.482588768600214"><ele>656.0</ele><time>2026-05-02T16:45:34Z</time></trkpt><trkpt lat="43.44581280983743" lon="11.4827855176265"><ele>656.0</ele><time>2026-05-02T16:45:35Z</time></trkpt><trkpt lat="43.445876838312934" lon="11.482980821283121"><ele>656.0</ele><time>2026-05-02T16:45:36Z</time></trkpt><trkpt lat="43.445941913825166" lon="11.483179318698944"><ele>657.6666666666666</ele><time>2026-05-02T16:45:37Z</time></trkpt><trkpt lat="43.44600824745463" lon="11.483381653685862"><ele>659.3333333333334</ele><time>2026-05-02T16:45:38Z</time></trkpt><trkpt lat="43.44607474945426" lon="11.483587276333214"><ele>661.0</ele><time>2026-05-02T16:45:39Z</time></trkpt><trkpt lat="43.44614238454813" lon="11.483796694729127"><ele>660.3333333333334</ele><time>2026-05-02T16:45:40Z</time></trkpt><trkpt lat="43.446208497436096" lon="11.484006344936537"><ele>659.6666666666666</ele><time>2026-05-02T16:45:41Z</time></trkpt><trkpt lat="43.44626386347261" lon="11.484214991380313"><ele>659.0</ele><time>2026-05-02T16:45:42Z</time></trkpt><trkpt lat="43.446296582284624" lon="11.484419896076226"><ele>661.25</ele><time>2026-05-02T16:45:43Z</time></trkpt><trkpt lat="43.44629581143151" lon="11.484619233174506"><ele>663.5</ele><time>2026-05-02T16:45:44Z</time></trkpt><trkpt lat="43.446281564548514" lon="11.484815611476"><ele>665.75</ele><time>2026-05-02T16:45:45Z</time></trkpt><trkpt lat="43.446271582063254" lon="11.48499125748132"><ele>668.0</ele><time>2026-05-02T16:45:46Z</time></trkpt><trkpt lat="43.44628742939028" lon="11.485160931343385"><ele>668.0</ele><time>2026-05-02T16:45:47Z</time></trkpt><trkpt lat="43.44630253680382" lon="11.485338944467625"><ele>668.0</ele><time>2026-05-02T16:45:48Z</time></trkpt><trkpt lat="43.446342608877764" lon="11.485518936413662"><ele>668.0</ele><time>2026-05-02T16:45:49Z</time></trkpt><trkpt lat="43.44639906620604" lon="11.485702080895429"><ele>668.0</ele><time>2026-05-02T16:45:50Z</time></trkpt><trkpt lat="43.44646858037865" lon="11.485888462310717"><ele>670.3333333333333</ele><time>2026-05-02T16:45:51Z</time></trkpt><trkpt lat="43.44655409669994" lon="11.486086491925436"><ele>672.6666666666666</ele><time>2026-05-02T16:45:52Z</time></trkpt><trkpt lat="43.446646254385094" lon="11.48628624876889"><ele>675.0</ele><time>2026-05-02T16:45:53Z</time></trkpt><trkpt lat="43.44673720719122" lon="11.48648698233102"><ele>677.6666666666666</ele><time>2026-05-02T16:45:54Z</time></trkpt><trkpt lat="43.446823141546496" lon="11.486685269882907"><ele>680.3333333333333</ele><time>2026-05-02T16:45:55Z</time></trkpt><trkpt lat="43.446905973283776" lon="11.486861339002733"><ele>683.0</ele><time>2026-05-02T16:45:56Z</time></trkpt><trkpt lat="43.44699735387425" lon="11.487017664977584"><ele>686.0</ele><time>2026-05-02T16:45:57Z</time></trkpt><trkpt lat="43.447102408490686" lon="11.487128252573333"><ele>689.0</ele><time>2026-05-02T16:45:58Z</time></trkpt><trkpt lat="43.44722355606453" lon="11.487209905403862"><ele>692.0</ele><time>2026-05-02T16:45:59Z</time></trkpt><trkpt lat="43.44735827984561" lon="11.487245983083639"><ele>695.0</ele><time>2026-05-02T16:46:00Z</time></trkpt><trkpt lat="43.447494522077974" lon="11.487234778948382"><ele>695.0</ele><time>2026-05-02T16:46:01Z</time></trkpt><trkpt lat="43.44762947914338" lon="11.48722192793828"><ele>695.0</ele><time>2026-05-02T16:46:02Z</time></trkpt><trkpt lat="43.447759482510484" lon="11.487279282703394"><ele>695.0</ele><time>2026-05-02T16:46:03Z</time></trkpt><trkpt lat="43.447861676039125" lon="11.487411530208632"><ele>695.0</ele><time>2026-05-02T16:46:04Z</time></trkpt><trkpt lat="43.447980057444354" lon="11.487521184347644"><ele>695.5</ele><time>2026-05-02T16:46:05Z</time></trkpt><trkpt lat="43.448077059625085" lon="11.487672181112213"><ele>696.0</ele><time>2026-05-02T16:46:06Z</time></trkpt><trkpt lat="43.44815728286338" lon="11.487838917603508"><ele>696.5</ele><time>2026-05-02T16:46:07Z</time></trkpt><trkpt lat="43.44820455298027" lon="11.488027559177274"><ele>697.0</ele><time>2026-05-02T16:46:08Z</time></trkpt><trkpt lat="43.448263791660736" lon="11.488202430238355"><ele>697.0</ele><time>2026-05-02T16:46:09Z</time></trkpt><trkpt lat="43.448330926698205" lon="11.488373206369829"><ele>697.0</ele><time>2026-05-02T16:46:10Z</time></trkpt><trkpt lat="43.44841044087753" lon="11.488533009936154"><ele>697.0</ele><time>2026-05-02T16:46:11Z</time></trkpt><trkpt lat="43.44849332628084" lon="11.488675644952743"><ele>697.0</ele><time>2026-05-02T16:46:12Z</time></trkpt><trkpt lat="43.448515109951245" lon="11.48885245464054"><ele>696.0</ele><time>2026-05-02T16:46:13Z</time></trkpt><trkpt lat="43.44852536425155" lon="11.489042037325946"><ele>695.0</ele><time>2026-05-02T16:46:14Z</time></trkpt><trkpt lat="43.448542239458554" lon="11.48924866767195"><ele>694.0</ele><time>2026-05-02T16:46:15Z</time></trkpt><trkpt lat="43.44854294679892" lon="11.4894639754492"><ele>693.0</ele><time>2026-05-02T16:46:16Z</time></trkpt><trkpt lat="43.44854783965674" lon="11.48968261054249"><ele>691.0</ele><time>2026-05-02T16:46:17Z</time></trkpt><trkpt lat="43.448539257845724" lon="11.489907846254335"><ele>689.0</ele><time>2026-05-02T16:46:18Z</time></trkpt><trkpt lat="43.44854643996343" lon="11.490136147244337"><ele>687.0</ele><time>2026-05-02T16:46:19Z</time></trkpt><trkpt lat="43.44857044534059" lon="11.490366283894794"><ele>686.3333333333334</ele><time>2026-05-02T16:46:20Z</time></trkpt><trkpt lat="43.44857631962173" lon="11.490601382656784"><ele>685.6666666666667</ele><time>2026-05-02T16:46:21Z</time></trkpt><trkpt lat="43.44857577920299" lon="11.490838665137096"><ele>685.0</ele><time>2026-05-02T16:46:22Z</time></trkpt><trkpt lat="43.44855050592259" lon="11.491070531451717"><ele>686.0</ele><time>2026-05-02T16:46:23Z</time></trkpt><trkpt lat="43.44850883364273" lon="11.491284513138233"><ele>687.0</ele><time>2026-05-02T16:46:24Z</time></trkpt><trkpt lat="43.4484780855935" lon="11.491482459478245"><ele>688.0</ele><time>2026-05-02T16:46:25Z</time></trkpt><trkpt lat="43.44847821162934" lon="11.491678657461083"><ele>688.0</ele><time>2026-05-02T16:46:26Z</time></trkpt><trkpt lat="43.44851543805598" lon="11.49188591112115"><ele>688.0</ele><time>2026-05-02T16:46:27Z</time></trkpt><trkpt lat="43.44856593184769" lon="11.492098881292492"><ele>688.0</ele><time>2026-05-02T16:46:28Z</time></trkpt><trkpt lat="43.44861182591758" lon="11.492319206038605"><ele>691.0</ele><time>2026-05-02T16:46:29Z</time></trkpt><trkpt lat="43.448662351100374" lon="11.492541251234632"><ele>694.0</ele><time>2026-05-02T16:46:29.999Z</time></trkpt><trkpt lat="43.4487401461701" lon="11.492755377773642"><ele>697.0</ele><time>2026-05-02T16:46:30.999Z</time></trkpt><trkpt lat="43.44884644087583" lon="11.492951774575802"><ele>697.0</ele><time>2026-05-02T16:46:31.999Z</time></trkpt><trkpt lat="43.44893180833799" lon="11.49314765111165"><ele>697.0</ele><time>2026-05-02T16:46:32.999Z</time></trkpt><trkpt lat="43.44901435349438" lon="11.493309262865523"><ele>697.0</ele><time>2026-05-02T16:46:33.999Z</time></trkpt><trkpt lat="43.44906730851783" lon="11.493473479028198"><ele>697.0</ele><time>2026-05-02T16:46:34.999Z</time></trkpt><trkpt lat="43.4490837565268" lon="11.493635412955348"><ele>697.0</ele><time>2026-05-02T16:46:35.999Z</time></trkpt><trkpt lat="43.44906338484172" lon="11.493806372547267"><ele>697.0</ele><time>2026-05-02T16:46:36.999Z</time></trkpt><trkpt lat="43.4490223152146" lon="11.493988788552256"><ele>697.0</ele><time>2026-05-02T16:46:37.999Z</time></trkpt><trkpt lat="43.449017158573156" lon="11.494193197634994"><ele>697.0</ele><time>2026-05-02T16:46:38.999Z</time></trkpt><trkpt lat="43.44900379516327" lon="11.49440838965013"><ele>697.3333333333334</ele><time>2026-05-02T16:46:39.999Z</time></trkpt><trkpt lat="43.448991896262235" lon="11.494630163840887"><ele>697.6666666666666</ele><time>2026-05-02T16:46:40.999Z</time></trkpt><trkpt lat="43.448962544539484" lon="11.494854604403418"><ele>698.0</ele><time>2026-05-02T16:46:41.999Z</time></trkpt><trkpt lat="43.448963625973676" lon="11.495088109686952"><ele>698.0</ele><time>2026-05-02T16:46:42.999Z</time></trkpt><trkpt lat="43.44894904465246" lon="11.495314893314289"><ele>698.0</ele><time>2026-05-02T16:46:43.999Z</time></trkpt><trkpt lat="43.4489399793768" lon="11.495541035179405"><ele>698.0</ele><time>2026-05-02T16:46:44.999Z</time></trkpt><trkpt lat="43.44894170817565" lon="11.495774093354685"><ele>700.0</ele><time>2026-05-02T16:46:45.999Z</time></trkpt><trkpt lat="43.449008174386975" lon="11.495999692990003"><ele>702.0</ele><time>2026-05-02T16:46:46.999Z</time></trkpt><trkpt lat="43.44905601074968" lon="11.496225703879343"><ele>704.0</ele><time>2026-05-02T16:46:47.999Z</time></trkpt><trkpt lat="43.44912648846585" lon="11.496439070631904"><ele>705.3333333333333</ele><time>2026-05-02T16:46:48.999Z</time></trkpt><trkpt lat="43.44918879573488" lon="11.496648675790697"><ele>706.6666666666666</ele><time>2026-05-02T16:46:49.999Z</time></trkpt><trkpt lat="43.44924280427013" lon="11.496856641989615"><ele>708.0</ele><time>2026-05-02T16:46:50.999Z</time></trkpt><trkpt lat="43.44930188822412" lon="11.497063682537627"><ele>707.3333333333334</ele><time>2026-05-02T16:46:51.999Z</time></trkpt><trkpt lat="43.449346530752464" lon="11.497274168104383"><ele>706.6666666666667</ele><time>2026-05-02T16:46:52.999Z</time></trkpt><trkpt lat="43.449393474760015" lon="11.49747418360216"><ele>706.0</ele><time>2026-05-02T16:46:53.999Z</time></trkpt><trkpt lat="43.44944610741389" lon="11.497652998901575"><ele>706.0</ele><time>2026-05-02T16:46:54.999Z</time></trkpt><trkpt lat="43.44952934462343" lon="11.497799121713978"><ele>706.0</ele><time>2026-05-02T16:46:55.999Z</time></trkpt><trkpt lat="43.449643353639246" lon="11.497912236641481"><ele>706.0</ele><time>2026-05-02T16:46:56.999Z</time></trkpt><trkpt lat="43.44975083521669" lon="11.498025437384381"><ele>706.0</ele><time>2026-05-02T16:46:57.999Z</time></trkpt><trkpt lat="43.449822247157826" lon="11.498156672470117"><ele>713.5</ele><time>2026-05-02T16:46:59Z</time></trkpt><trkpt lat="43.44981763578716" lon="11.498320186448904"><ele>721.0</ele><time>2026-05-02T16:47:00Z</time></trkpt><trkpt lat="43.44979302758444" lon="11.498484720376505"><ele>728.5</ele><time>2026-05-02T16:47:01Z</time></trkpt><trkpt lat="43.449745632344246" lon="11.498680603740189"><ele>736.0</ele><time>2026-05-02T16:47:02Z</time></trkpt><trkpt lat="43.4496939250631" lon="11.498871328393069"><ele>739.0</ele><time>2026-05-02T16:47:03Z</time></trkpt><trkpt lat="43.44967127668682" lon="11.499082544199968"><ele>742.0</ele><time>2026-05-02T16:47:04Z</time></trkpt><trkpt lat="43.449676157277715" lon="11.499309820557974"><ele>745.0</ele><time>2026-05-02T16:47:05Z</time></trkpt><trkpt lat="43.44968542581832" lon="11.499527698330729"><ele>744.5</ele><time>2026-05-02T16:47:06Z</time></trkpt><trkpt lat="43.44969925337248" lon="11.499729081561128"><ele>744.0</ele><time>2026-05-02T16:47:07Z</time></trkpt><trkpt lat="43.449729310080734" lon="11.499896497944254"><ele>743.5</ele><time>2026-05-02T16:47:08Z</time></trkpt><trkpt lat="43.44979867240853" lon="11.500059977628652"><ele>743.0</ele><time>2026-05-02T16:47:09Z</time></trkpt><trkpt lat="43.44989825708561" lon="11.500210152206908"><ele>743.0</ele><time>2026-05-02T16:47:10Z</time></trkpt><trkpt lat="43.45001567009921" lon="11.500352847828044"><ele>743.0</ele><time>2026-05-02T16:47:11Z</time></trkpt><trkpt lat="43.45011459047857" lon="11.50050408662635"><ele>743.0</ele><time>2026-05-02T16:47:12Z</time></trkpt><trkpt lat="43.45017936837829" lon="11.50063621969676"><ele>743.0</ele><time>2026-05-02T16:47:13Z</time></trkpt><trkpt lat="43.4501761027117" lon="11.500755997465065"><ele>741.8</ele><time>2026-05-02T16:47:14Z</time></trkpt><trkpt lat="43.45013454966894" lon="11.500857225944001"><ele>740.5999999999999</ele><time>2026-05-02T16:47:15Z</time></trkpt><trkpt lat="43.45009454033902" lon="11.501001680783808"><ele>739.4000000000001</ele><time>2026-05-02T16:47:16Z</time></trkpt><trkpt lat="43.450037742322635" lon="11.501155934222203"><ele>738.2</ele><time>2026-05-02T16:47:17Z</time></trkpt><trkpt lat="43.450011107289114" lon="11.501325765674629"><ele>737.0</ele><time>2026-05-02T16:47:18Z</time></trkpt><trkpt lat="43.45001932161046" lon="11.501499202461051"><ele>739.6</ele><time>2026-05-02T16:47:19Z</time></trkpt><trkpt lat="43.45005484581715" lon="11.501664494726365"><ele>742.2</ele><time>2026-05-02T16:47:20Z</time></trkpt><trkpt lat="43.45007777556765" lon="11.501829603372363"><ele>744.8</ele><time>2026-05-02T16:47:21Z</time></trkpt><trkpt lat="43.45007555050255" lon="11.501969661978514"><ele>747.4</ele><time>2026-05-02T16:47:22Z</time></trkpt><trkpt lat="43.450010025653356" lon="11.502070923598767"><ele>750.0</ele><time>2026-05-02T16:47:23Z</time></trkpt><trkpt lat="43.44990552922859" lon="11.50211468877878"><ele>751.0</ele><time>2026-05-02T16:47:24Z</time></trkpt><trkpt lat="43.449781324900464" lon="11.502190132994425"><ele>752.0</ele><time>2026-05-02T16:47:25Z</time></trkpt><trkpt lat="43.44965298403115" lon="11.502280948685728"><ele>753.0</ele><time>2026-05-02T16:47:26Z</time></trkpt><trkpt lat="43.44951341672036" lon="11.50235852719115"><ele>754.0</ele><time>2026-05-02T16:47:27Z</time></trkpt><trkpt lat="43.449373371161464" lon="11.502443889766743"><ele>754.0</ele><time>2026-05-02T16:47:28Z</time></trkpt><trkpt lat="43.44923195068225" lon="11.502533651574065"><ele>754.0</ele><time>2026-05-02T16:47:29Z</time></trkpt><trkpt lat="43.4490906305589" lon="11.502620288512398"><ele>754.0</ele><time>2026-05-02T16:47:30Z</time></trkpt><trkpt lat="43.448949805268455" lon="11.50269714181759"><ele>754.0</ele><time>2026-05-02T16:47:31Z</time></trkpt><trkpt lat="43.448818657998956" lon="11.502778987345614"><ele>754.0</ele><time>2026-05-02T16:47:32Z</time></trkpt><trkpt lat="43.44869595398963" lon="11.502880843116344"><ele>754.0</ele><time>2026-05-02T16:47:33Z</time></trkpt><trkpt lat="43.448600113891956" lon="11.503014906568447"><ele>754.0</ele><time>2026-05-02T16:47:34Z</time></trkpt><trkpt lat="43.44852246921595" lon="11.50316694317744"><ele>759.25</ele><time>2026-05-02T16:47:35Z</time></trkpt><trkpt lat="43.44844974837411" lon="11.503304039976365"><ele>764.5</ele><time>2026-05-02T16:47:36Z</time></trkpt><trkpt lat="43.44834715310222" lon="11.503375855555861"><ele>769.75</ele><time>2026-05-02T16:47:37Z</time></trkpt><trkpt lat="43.448225225650894" lon="11.503365548483574"><ele>775.0</ele><time>2026-05-02T16:47:38Z</time></trkpt><trkpt lat="43.44809702720314" lon="11.503372364881278"><ele>775.0</ele><time>2026-05-02T16:47:39Z</time></trkpt><trkpt lat="43.4479633877666" lon="11.503341099792173"><ele>775.0</ele><time>2026-05-02T16:47:40Z</time></trkpt><trkpt lat="43.447823406989556" lon="11.50329138341527"><ele>775.0</ele><time>2026-05-02T16:47:41Z</time></trkpt><trkpt lat="43.44768310274952" lon="11.503224762322704"><ele>775.0</ele><time>2026-05-02T16:47:42Z</time></trkpt><trkpt lat="43.44755428789906" lon="11.503153372177705"><ele>775.25</ele><time>2026-05-02T16:47:43Z</time></trkpt><trkpt lat="43.44743250903969" lon="11.503080171937825"><ele>775.5</ele><time>2026-05-02T16:47:44Z</time></trkpt><trkpt lat="43.447308289615876" lon="11.503022558740156"><ele>775.75</ele><time>2026-05-02T16:47:45Z</time></trkpt><trkpt lat="43.44717906615277" lon="11.50299242456601"><ele>776.0</ele><time>2026-05-02T16:47:46Z</time></trkpt><trkpt lat="43.4470527391482" lon="11.502994367402035"><ele>776.0</ele><time>2026-05-02T16:47:47Z</time></trkpt><trkpt lat="43.44693319160921" lon="11.503042655760277"><ele>776.0</ele><time>2026-05-02T16:47:48Z</time></trkpt><trkpt lat="43.44682468755044" lon="11.503145732225002"><ele>776.0</ele><time>2026-05-02T16:47:49Z</time></trkpt><trkpt lat="43.446730996240795" lon="11.503277826893122"><ele>776.0</ele><time>2026-05-02T16:47:50Z</time></trkpt><trkpt lat="43.44665978318565" lon="11.50343766391026"><ele>776.0</ele><time>2026-05-02T16:47:51Z</time></trkpt><trkpt lat="43.44659374634463" lon="11.50361242627235"><ele>776.0</ele><time>2026-05-02T16:47:52Z</time></trkpt><trkpt lat="43.44650036670642" lon="11.503763608294582"><ele>776.0</ele><time>2026-05-02T16:47:53Z</time></trkpt><trkpt lat="43.44641005473957" lon="11.503901137458794"><ele>776.0</ele><time>2026-05-02T16:47:54Z</time></trkpt><trkpt lat="43.4463130588889" lon="11.504018740572386"><ele>776.25</ele><time>2026-05-02T16:47:55Z</time></trkpt><trkpt lat="43.4462019989161" lon="11.504092227726748"><ele>776.5</ele><time>2026-05-02T16:47:56Z</time></trkpt><trkpt lat="43.4461098148502" lon="11.50419238787403"><ele>776.75</ele><time>2026-05-02T16:47:57Z</time></trkpt><trkpt lat="43.44604335470237" lon="11.504341977194073"><ele>777.0</ele><time>2026-05-02T16:47:58Z</time></trkpt><trkpt lat="43.44597975564773" lon="11.504504503853113"><ele>781.0</ele><time>2026-05-02T16:47:59Z</time></trkpt><trkpt lat="43.44593714542806" lon="11.504676280046297"><ele>785.0</ele><time>2026-05-02T16:48:00Z</time></trkpt><trkpt lat="43.445908859585934" lon="11.504845241475323"><ele>789.0</ele><time>2026-05-02T16:48:01Z</time></trkpt><trkpt lat="43.445843873932766" lon="11.50498553786955"><ele>793.0</ele><time>2026-05-02T16:48:02Z</time></trkpt><trkpt lat="43.4457465789346" lon="11.505064081123772"><ele>793.0</ele><time>2026-05-02T16:48:03Z</time></trkpt><trkpt lat="43.445633173330904" lon="11.505079018566095"><ele>793.0</ele><time>2026-05-02T16:48:04Z</time></trkpt><trkpt lat="43.44551100526206" lon="11.505043323797663"><ele>793.0</ele><time>2026-05-02T16:48:05Z</time></trkpt><trkpt lat="43.445385133186996" lon="11.505004256056576"><ele>793.0</ele><time>2026-05-02T16:48:06Z</time></trkpt><trkpt lat="43.445247989112914" lon="11.50499812298289"><ele>788.5</ele><time>2026-05-02T16:48:07Z</time></trkpt><trkpt lat="43.44511946910147" lon="11.50503529511065"><ele>784.0</ele><time>2026-05-02T16:48:08Z</time></trkpt><trkpt lat="43.44500850571454" lon="11.505090293823796"><ele>779.5</ele><time>2026-05-02T16:48:09Z</time></trkpt><trkpt lat="43.44491793351727" lon="11.505171650510439"><ele>775.0</ele><time>2026-05-02T16:48:10Z</time></trkpt><trkpt lat="43.44484117923188" lon="11.505293587975995"><ele>776.25</ele><time>2026-05-02T16:48:11Z</time></trkpt><trkpt lat="43.44477078292269" lon="11.50544224515223"><ele>777.5</ele><time>2026-05-02T16:48:12Z</time></trkpt><trkpt lat="43.44469897226584" lon="11.50560352839779"><ele>778.75</ele><time>2026-05-02T16:48:13Z</time></trkpt><trkpt lat="43.44462326969223" lon="11.50576612235014"><ele>780.0</ele><time>2026-05-02T16:48:14Z</time></trkpt><trkpt lat="43.44453714430331" lon="11.50590840282304"><ele>780.0</ele><time>2026-05-02T16:48:15Z</time></trkpt><trkpt lat="43.44442933201822" lon="11.506002705491106"><ele>780.0</ele><time>2026-05-02T16:48:16Z</time></trkpt><trkpt lat="43.444305802639754" lon="11.506024177942948"><ele>780.0</ele><time>2026-05-02T16:48:17Z</time></trkpt><trkpt lat="43.44418746980362" lon="11.505979888755787"><ele>780.0</ele><time>2026-05-02T16:48:18Z</time></trkpt><trkpt lat="43.444069958404846" lon="11.505896346066788"><ele>780.0</ele><time>2026-05-02T16:48:19Z</time></trkpt><trkpt lat="43.44394512304527" lon="11.505823388918298"><ele>780.0</ele><time>2026-05-02T16:48:20Z</time></trkpt><trkpt lat="43.44382074237124" lon="11.505764141389134"><ele>780.0</ele><time>2026-05-02T16:48:21Z</time></trkpt><trkpt lat="43.443702254335534" lon="11.505742014186051"><ele>780.0</ele><time>2026-05-02T16:48:22Z</time></trkpt><trkpt lat="43.443593759271" lon="11.505774446301803"><ele>780.75</ele><time>2026-05-02T16:48:23Z</time></trkpt><trkpt lat="43.4434947650137" lon="11.50585014423263"><ele>781.5</ele><time>2026-05-02T16:48:24Z</time></trkpt><trkpt lat="43.44339878121218" lon="11.505945455552215"><ele>782.25</ele><time>2026-05-02T16:48:24.999Z</time></trkpt><trkpt lat="43.44329983167592" lon="11.506035830159115"><ele>783.0</ele><time>2026-05-02T16:48:25.999Z</time></trkpt><trkpt lat="43.443194356018864" lon="11.506101863748052"><ele>783.0</ele><time>2026-05-02T16:48:26.999Z</time></trkpt><trkpt lat="43.44309115932121" lon="11.506164696416747"><ele>783.0</ele><time>2026-05-02T16:48:27.999Z</time></trkpt><trkpt lat="43.442992002052854" lon="11.506244508216573"><ele>783.0</ele><time>2026-05-02T16:48:28.999Z</time></trkpt><trkpt lat="43.44289432134011" lon="11.506319261225375"><ele>783.0</ele><time>2026-05-02T16:48:29.999Z</time></trkpt><trkpt lat="43.44283764191433" lon="11.506453483342348"><ele>785.5999999999999</ele><time>2026-05-02T16:48:30.999Z</time></trkpt><trkpt lat="43.44278704977353" lon="11.50656594971068"><ele>788.1999999999999</ele><time>2026-05-02T16:48:31.999Z</time></trkpt><trkpt lat="43.442770991843624" lon="11.506694976340917"><ele>790.8</ele><time>2026-05-02T16:48:32.999Z</time></trkpt><trkpt lat="43.4427692505897" lon="11.50681934713466"><ele>793.4</ele><time>2026-05-02T16:48:33.999Z</time></trkpt><trkpt lat="43.442776137170505" lon="11.506946445244658"><ele>796.0</ele><time>2026-05-02T16:48:34.999Z</time></trkpt><trkpt lat="43.4427889227805" lon="11.507066384795323"><ele>794.8333333333333</ele><time>2026-05-02T16:48:35.999Z</time></trkpt><trkpt lat="43.442804255558755" lon="11.507179125252636"><ele>793.6666666666666</ele><time>2026-05-02T16:48:36.999Z</time></trkpt><trkpt lat="43.44281962745755" lon="11.50727041455619"><ele>792.5</ele><time>2026-05-02T16:48:37.999Z</time></trkpt><trkpt lat="43.4428395970094" lon="11.507357528669745"><ele>791.3333333333333</ele><time>2026-05-02T16:48:38.999Z</time></trkpt><trkpt lat="43.44286239313713" lon="11.507451438919016"><ele>790.1666666666666</ele><time>2026-05-02T16:48:39.999Z</time></trkpt><trkpt lat="43.44291124905152" lon="11.507548679788902"><ele>789.0</ele><time>2026-05-02T16:48:40.999Z</time></trkpt><trkpt lat="43.442941986104856" lon="11.507662618098843"><ele>790.0</ele><time>2026-05-02T16:48:41.999Z</time></trkpt><trkpt lat="43.44297567051053" lon="11.507781593154913"><ele>791.0</ele><time>2026-05-02T16:48:42.999Z</time></trkpt><trkpt lat="43.44301875420757" lon="11.50790735755325"><ele>792.0</ele><time>2026-05-02T16:48:43.999Z</time></trkpt><trkpt lat="43.443078339513576" lon="11.508028202676014"><ele>793.0</ele><time>2026-05-02T16:48:44.999Z</time></trkpt><trkpt lat="43.44317745793801" lon="11.508094740499809"><ele>794.0</ele><time>2026-05-02T16:48:45.999Z</time></trkpt><trkpt lat="43.443286761761556" lon="11.50814258643799"><ele>788.75</ele><time>2026-05-02T16:48:46.999Z</time></trkpt><trkpt lat="43.44341157265703" lon="11.508186914056735"><ele>783.5</ele><time>2026-05-02T16:48:47.999Z</time></trkpt><trkpt lat="43.44353936749513" lon="11.508205768486501"><ele>778.25</ele><time>2026-05-02T16:48:48.999Z</time></trkpt><trkpt lat="43.44366672818781" lon="11.50824917495239"><ele>773.0</ele><time>2026-05-02T16:48:49.999Z</time></trkpt><trkpt lat="43.44377495198522" lon="11.508339280211294"><ele>775.5</ele><time>2026-05-02T16:48:50.999Z</time></trkpt><trkpt lat="43.44386190236962" lon="11.508460194161659"><ele>778.0</ele><time>2026-05-02T16:48:51.999Z</time></trkpt><trkpt lat="43.443953030595715" lon="11.508552010643625"><ele>780.5</ele><time>2026-05-02T16:48:52.999Z</time></trkpt><trkpt lat="43.44405837210831" lon="11.50858379992517"><ele>783.0</ele><time>2026-05-02T16:48:53.999Z</time></trkpt><trkpt lat="43.44417665060722" lon="11.508552248491215"><ele>783.0</ele><time>2026-05-02T16:48:54.999Z</time></trkpt><trkpt lat="43.44430325629277" lon="11.508514568176544"><ele>783.0</ele><time>2026-05-02T16:48:55.999Z</time></trkpt><trkpt lat="43.44443463505365" lon="11.508506969795176"><ele>783.0</ele><time>2026-05-02T16:48:56.999Z</time></trkpt><trkpt lat="43.444566770177936" lon="11.508515049478692"><ele>783.0</ele><time>2026-05-02T16:48:57.999Z</time></trkpt><trkpt lat="43.44468865079367" lon="11.50853618640225"><ele>785.5</ele><time>2026-05-02T16:48:58.999Z</time></trkpt><trkpt lat="43.44479986823427" lon="11.508582271896996"><ele>788.0</ele><time>2026-05-02T16:48:59.999Z</time></trkpt><trkpt lat="43.444871112371665" lon="11.508697523213913"><ele>790.5</ele><time>2026-05-02T16:49:00.999Z</time></trkpt><trkpt lat="43.44493611260711" lon="11.508830429056752"><ele>793.0</ele><time>2026-05-02T16:49:01.999Z</time></trkpt><trkpt lat="43.445010720739894" lon="11.508984823333753"><ele>783.75</ele><time>2026-05-02T16:49:02.999Z</time></trkpt><trkpt lat="43.44508230307974" lon="11.509153246383615"><ele>774.5</ele><time>2026-05-02T16:49:03.999Z</time></trkpt><trkpt lat="43.44516354967353" lon="11.509319574869947"><ele>765.25</ele><time>2026-05-02T16:49:05Z</time></trkpt><trkpt lat="43.44524485996615" lon="11.50947808861043"><ele>756.0</ele><time>2026-05-02T16:49:06Z</time></trkpt><trkpt lat="43.44531246976465" lon="11.509647560365066"><ele>750.0</ele><time>2026-05-02T16:49:07Z</time></trkpt><trkpt lat="43.44535769073834" lon="11.50983167598389"><ele>744.0</ele><time>2026-05-02T16:49:08Z</time></trkpt><trkpt lat="43.44538847505305" lon="11.510018710869291"><ele>738.0</ele><time>2026-05-02T16:49:09Z</time></trkpt><trkpt lat="43.44541489681774" lon="11.510205151073556"><ele>732.0</ele><time>2026-05-02T16:49:10Z</time></trkpt><trkpt lat="43.4454517209115" lon="11.5103893617617"><ele>731.75</ele><time>2026-05-02T16:49:11Z</time></trkpt><trkpt lat="43.44549243915777" lon="11.510569744527716"><ele>731.5</ele><time>2026-05-02T16:49:12Z</time></trkpt><trkpt lat="43.4455372299598" lon="11.51075059508514"><ele>731.25</ele><time>2026-05-02T16:49:13Z</time></trkpt><trkpt lat="43.44554677532649" lon="11.51094413193275"><ele>731.0</ele><time>2026-05-02T16:49:14Z</time></trkpt><trkpt lat="43.44555114446254" lon="11.51113759235858"><ele>727.75</ele><time>2026-05-02T16:49:15Z</time></trkpt><trkpt lat="43.44556237010781" lon="11.511333379270802"><ele>724.5</ele><time>2026-05-02T16:49:16Z</time></trkpt><trkpt lat="43.44555478307531" lon="11.51152839987745"><ele>721.25</ele><time>2026-05-02T16:49:17Z</time></trkpt><trkpt lat="43.44554703415121" lon="11.511724782730374"><ele>718.0</ele><time>2026-05-02T16:49:18Z</time></trkpt><trkpt lat="43.44553834330032" lon="11.511915646735382"><ele>716.0</ele><time>2026-05-02T16:49:19Z</time></trkpt><trkpt lat="43.44552928386338" lon="11.512104232463683"><ele>714.0</ele><time>2026-05-02T16:49:20Z</time></trkpt><trkpt lat="43.44552704745026" lon="11.512284139981327"><ele>712.0</ele><time>2026-05-02T16:49:21Z</time></trkpt><trkpt lat="43.44555569387145" lon="11.512449616834589"><ele>710.0</ele><time>2026-05-02T16:49:22Z</time></trkpt><trkpt lat="43.44562236240779" lon="11.512591116473644"><ele>710.0</ele><time>2026-05-02T16:49:23Z</time></trkpt><trkpt lat="43.44570305425726" lon="11.512716022790961"><ele>710.0</ele><time>2026-05-02T16:49:24Z</time></trkpt><trkpt lat="43.44577592368291" lon="11.512845021522894"><ele>710.0</ele><time>2026-05-02T16:49:25Z</time></trkpt><trkpt lat="43.44581628640566" lon="11.512986611587142"><ele>710.0</ele><time>2026-05-02T16:49:26Z</time></trkpt><trkpt lat="43.445781391136535" lon="11.513133648352055"><ele>710.25</ele><time>2026-05-02T16:49:27Z</time></trkpt><trkpt lat="43.44574538054073" lon="11.51328945285293"><ele>710.5</ele><time>2026-05-02T16:49:28Z</time></trkpt><trkpt lat="43.44572749831151" lon="11.51346234707957"><ele>710.75</ele><time>2026-05-02T16:49:29Z</time></trkpt><trkpt lat="43.44569276773855" lon="11.51363235049847"><ele>711.0</ele><time>2026-05-02T16:49:30Z</time></trkpt><trkpt lat="43.44566491033175" lon="11.513790674960028"><ele>712.0</ele><time>2026-05-02T16:49:31Z</time></trkpt><trkpt lat="43.4456516314527" lon="11.513936599053666"><ele>713.0</ele><time>2026-05-02T16:49:32Z</time></trkpt><trkpt lat="43.44566646143886" lon="11.514075218936034"><ele>714.0</ele><time>2026-05-02T16:49:33Z</time></trkpt><trkpt lat="43.44570777577283" lon="11.514203365847337"><ele>715.0</ele><time>2026-05-02T16:49:34Z</time></trkpt><trkpt lat="43.445757036652374" lon="11.514343947261796"><ele>716.0</ele><time>2026-05-02T16:49:35Z</time></trkpt><trkpt lat="43.44587055356752" lon="11.514429008243818"><ele>716.0</ele><time>2026-05-02T16:49:36Z</time></trkpt><trkpt lat="43.445963801804666" lon="11.514533569843714"><ele>716.0</ele><time>2026-05-02T16:49:37Z</time></trkpt><trkpt lat="43.44602422364198" lon="11.514673900794213"><ele>716.0</ele><time>2026-05-02T16:49:38Z</time></trkpt><trkpt lat="43.446075163026805" lon="11.514811275027817"><ele>716.0</ele><time>2026-05-02T16:49:39Z</time></trkpt><trkpt lat="43.446105379346015" lon="11.514951223732142"><ele>714.0</ele><time>2026-05-02T16:49:40Z</time></trkpt><trkpt lat="43.446133979257084" lon="11.515091998173322"><ele>712.0</ele><time>2026-05-02T16:49:41Z</time></trkpt><trkpt lat="43.44616031947461" lon="11.515232314668076"><ele>710.0</ele><time>2026-05-02T16:49:42Z</time></trkpt><trkpt lat="43.44618351116521" lon="11.515382116497479"><ele>708.0</ele><time>2026-05-02T16:49:43Z</time></trkpt><trkpt lat="43.446241842734615" lon="11.515509731580133"><ele>706.0</ele><time>2026-05-02T16:49:44Z</time></trkpt><trkpt lat="43.446339458096226" lon="11.515584457559227"><ele>706.0</ele><time>2026-05-02T16:49:45Z</time></trkpt><trkpt lat="43.44642749513786" lon="11.51563921119856"><ele>706.0</ele><time>2026-05-02T16:49:46Z</time></trkpt><trkpt lat="43.44650743625151" lon="11.51571846850983"><ele>706.0</ele><time>2026-05-02T16:49:47Z</time></trkpt><trkpt lat="43.44658939019785" lon="11.515786396704629"><ele>706.0</ele><time>2026-05-02T16:49:48Z</time></trkpt><trkpt lat="43.44667263464143" lon="11.515854000292668"><ele>706.0</ele><time>2026-05-02T16:49:49Z</time></trkpt><trkpt lat="43.44675072956114" lon="11.515927415093893"><ele>706.0</ele><time>2026-05-02T16:49:50Z</time></trkpt><trkpt lat="43.44682578689579" lon="11.516001929819545"><ele>706.0</ele><time>2026-05-02T16:49:51Z</time></trkpt><trkpt lat="43.446898031066276" lon="11.516076453670296"><ele>706.0</ele><time>2026-05-02T16:49:52Z</time></trkpt><trkpt lat="43.44696614051826" lon="11.51615425451521"><ele>706.0</ele><time>2026-05-02T16:49:53Z</time></trkpt><trkpt lat="43.44702939448058" lon="11.51623354999445"><ele>706.0</ele><time>2026-05-02T16:49:54Z</time></trkpt><trkpt lat="43.4470911620175" lon="11.516313200397011"><ele>706.0</ele><time>2026-05-02T16:49:55Z</time></trkpt><trkpt lat="43.4471473605071" lon="11.516399336889803"><ele>700.6666666666667</ele><time>2026-05-02T16:49:56Z</time></trkpt><trkpt lat="43.44719098706682" lon="11.516497670505258"><ele>695.3333333333334</ele><time>2026-05-02T16:49:57Z</time></trkpt><trkpt lat="43.44721009563096" lon="11.51660507987905"><ele>690.0</ele><time>2026-05-02T16:49:58Z</time></trkpt><trkpt lat="43.4472146083307" lon="11.516715269403779"><ele>684.6666666666666</ele><time>2026-05-02T16:49:59Z</time></trkpt><trkpt lat="43.4472049149354" lon="11.516844468549243"><ele>679.3333333333333</ele><time>2026-05-02T16:50:00Z</time></trkpt><trkpt lat="43.44718585816412" lon="11.516981316505868"><ele>674.0</ele><time>2026-05-02T16:50:01Z</time></trkpt><trkpt lat="43.447166875224916" lon="11.517125479949069"><ele>673.6</ele><time>2026-05-02T16:50:02Z</time></trkpt><trkpt lat="43.447157250713644" lon="11.517273969114083"><ele>673.2</ele><time>2026-05-02T16:50:03Z</time></trkpt><trkpt lat="43.44716254547545" lon="11.517420404607224"><ele>672.8000000000001</ele><time>2026-05-02T16:50:04Z</time></trkpt><trkpt lat="43.44717666378927" lon="11.517566103688809"><ele>672.4000000000001</ele><time>2026-05-02T16:50:05Z</time></trkpt><trkpt lat="43.447198684224574" lon="11.51770859600612"><ele>672.0</ele><time>2026-05-02T16:50:06Z</time></trkpt><trkpt lat="43.4472365876588" lon="11.517848031874834"><ele>672.25</ele><time>2026-05-02T16:50:07Z</time></trkpt><trkpt lat="43.447291229759465" lon="11.517982723485144"><ele>672.5</ele><time>2026-05-02T16:50:08Z</time></trkpt><trkpt lat="43.44735381439711" lon="11.518115963082328"><ele>672.75</ele><time>2026-05-02T16:50:09Z</time></trkpt><trkpt lat="43.447418406942866" lon="11.518252914990498"><ele>673.0</ele><time>2026-05-02T16:50:10Z</time></trkpt><trkpt lat="43.44747829223381" lon="11.51839633377919"><ele>673.0</ele><time>2026-05-02T16:50:11Z</time></trkpt><trkpt lat="43.44753477250269" lon="11.51854402183667"><ele>673.0</ele><time>2026-05-02T16:50:12Z</time></trkpt><trkpt lat="43.447591485339316" lon="11.518692121216764"><ele>673.0</ele><time>2026-05-02T16:50:13Z</time></trkpt><trkpt lat="43.44764881105957" lon="11.518840954671052"><ele>673.0</ele><time>2026-05-02T16:50:14Z</time></trkpt><trkpt lat="43.447698475905405" lon="11.518991334746522"><ele>672.75</ele><time>2026-05-02T16:50:15Z</time></trkpt><trkpt lat="43.44773374524152" lon="11.519147743151011"><ele>672.5</ele><time>2026-05-02T16:50:16Z</time></trkpt><trkpt lat="43.447745310124624" lon="11.519308676262972"><ele>672.25</ele><time>2026-05-02T16:50:17Z</time></trkpt><trkpt lat="43.447736747438846" lon="11.519465334724888"><ele>672.0</ele><time>2026-05-02T16:50:18Z</time></trkpt><trkpt lat="43.4477095366166" lon="11.519616066479593"><ele>669.25</ele><time>2026-05-02T16:50:19Z</time></trkpt><trkpt lat="43.44767221287377" lon="11.519760868275574"><ele>666.5</ele><time>2026-05-02T16:50:20Z</time></trkpt><trkpt lat="43.44763079185014" lon="11.519904447398119"><ele>663.75</ele><time>2026-05-02T16:50:21Z</time></trkpt><trkpt lat="43.447590451047596" lon="11.520054879362352"><ele>661.0</ele><time>2026-05-02T16:50:22Z</time></trkpt><trkpt lat="43.44755177058302" lon="11.520207832718407"><ele>661.0</ele><time>2026-05-02T16:50:23Z</time></trkpt><trkpt lat="43.447514113576986" lon="11.520364402833629"><ele>661.0</ele><time>2026-05-02T16:50:24Z</time></trkpt><trkpt lat="43.447479427161134" lon="11.520522182880145"><ele>661.0</ele><time>2026-05-02T16:50:24.999Z</time></trkpt><trkpt lat="43.4474462221178" lon="11.520681529882145"><ele>661.0</ele><time>2026-05-02T16:50:25.999Z</time></trkpt><trkpt lat="43.44742063821645" lon="11.520843227360562"><ele>659.75</ele><time>2026-05-02T16:50:26.999Z</time></trkpt><trkpt lat="43.44740318386103" lon="11.521008526490327"><ele>658.5</ele><time>2026-05-02T16:50:27.999Z</time></trkpt><trkpt lat="43.44739812819566" lon="11.521172322827896"><ele>657.25</ele><time>2026-05-02T16:50:28.999Z</time></trkpt><trkpt lat="43.447408976102146" lon="11.521332188182697"><ele>656.0</ele><time>2026-05-02T16:50:29.999Z</time></trkpt><trkpt lat="43.44744006924841" lon="11.521485840294638"><ele>654.0</ele><time>2026-05-02T16:50:30.999Z</time></trkpt><trkpt lat="43.44748879553469" lon="11.521629570685011"><ele>652.0</ele><time>2026-05-02T16:50:31.999Z</time></trkpt><trkpt lat="43.44755291596" lon="11.52176707189016"><ele>650.0</ele><time>2026-05-02T16:50:32.999Z</time></trkpt><trkpt lat="43.447619409148736" lon="11.521906219183457"><ele>648.0</ele><time>2026-05-02T16:50:33.999Z</time></trkpt><trkpt lat="43.44768055417861" lon="11.522053701298733"><ele>643.75</ele><time>2026-05-02T16:50:34.999Z</time></trkpt><trkpt lat="43.44773059558757" lon="11.522212752787384"><ele>639.5</ele><time>2026-05-02T16:50:35.999Z</time></trkpt><trkpt lat="43.447774312514674" lon="11.522371187372448"><ele>635.25</ele><time>2026-05-02T16:50:36.999Z</time></trkpt><trkpt lat="43.447808454466625" lon="11.522531511565125"><ele>631.0</ele><time>2026-05-02T16:50:37.999Z</time></trkpt><trkpt lat="43.44782870683783" lon="11.52269518933934"><ele>631.0</ele><time>2026-05-02T16:50:38.999Z</time></trkpt><trkpt lat="43.447832528806735" lon="11.522860087565222"><ele>631.0</ele><time>2026-05-02T16:50:39.999Z</time></trkpt><trkpt lat="43.447826714622046" lon="11.523021683380273"><ele>631.0</ele><time>2026-05-02T16:50:40.999Z</time></trkpt><trkpt lat="43.44782302638318" lon="11.5231830323011"><ele>631.0</ele><time>2026-05-02T16:50:41.999Z</time></trkpt><trkpt lat="43.44783436235762" lon="11.523343539589579"><ele>628.75</ele><time>2026-05-02T16:50:42.999Z</time></trkpt><trkpt lat="43.447860138660864" lon="11.523506536008341"><ele>626.5</ele><time>2026-05-02T16:50:43.999Z</time></trkpt><trkpt lat="43.44788968534992" lon="11.523667519321068"><ele>624.25</ele><time>2026-05-02T16:50:44.999Z</time></trkpt><trkpt lat="43.447907836303166" lon="11.523830086923564"><ele>622.0</ele><time>2026-05-02T16:50:45.999Z</time></trkpt><trkpt lat="43.447886731462674" lon="11.523993087698614"><ele>620.0</ele><time>2026-05-02T16:50:46.999Z</time></trkpt><trkpt lat="43.447869785430434" lon="11.524159320010309"><ele>618.0</ele><time>2026-05-02T16:50:47.999Z</time></trkpt><trkpt lat="43.447819500299616" lon="11.52431305117801"><ele>616.0</ele><time>2026-05-02T16:50:48.999Z</time></trkpt><trkpt lat="43.447767285759305" lon="11.524458387357631"><ele>614.0</ele><time>2026-05-02T16:50:49.999Z</time></trkpt><trkpt lat="43.447716662631834" lon="11.52460609292897"><ele>613.6</ele><time>2026-05-02T16:50:50.999Z</time></trkpt><trkpt lat="43.44767253029456" lon="11.524746525194452"><ele>613.2</ele><time>2026-05-02T16:50:51.999Z</time></trkpt><trkpt lat="43.44765286195059" lon="11.524886215348094"><ele>612.8000000000001</ele><time>2026-05-02T16:50:52.999Z</time></trkpt><trkpt lat="43.44766789590947" lon="11.52503003993009"><ele>612.4</ele><time>2026-05-02T16:50:53.999Z</time></trkpt><trkpt lat="43.447709703147886" lon="11.525163674448919"><ele>612.0</ele><time>2026-05-02T16:50:54.999Z</time></trkpt><trkpt lat="43.44776453502948" lon="11.52528815778831"><ele>611.6</ele><time>2026-05-02T16:50:55.999Z</time></trkpt><trkpt lat="43.44781609285867" lon="11.525417952535959"><ele>611.2</ele><time>2026-05-02T16:50:56.999Z</time></trkpt><trkpt lat="43.447810730166246" lon="11.525563390038574"><ele>610.8</ele><time>2026-05-02T16:50:57.999Z</time></trkpt><trkpt lat="43.447812171281356" lon="11.525705709834934"><ele>610.4</ele><time>2026-05-02T16:50:58.999Z</time></trkpt><trkpt lat="43.44774053333324" lon="11.52580773900304"><ele>610.0</ele><time>2026-05-02T16:50:59.999Z</time></trkpt><trkpt lat="43.447675878197515" lon="11.525901576374713"><ele>610.0</ele><time>2026-05-02T16:51:00.999Z</time></trkpt><trkpt lat="43.44758480091622" lon="11.525930492991698"><ele>610.0</ele><time>2026-05-02T16:51:01.999Z</time></trkpt><trkpt lat="43.447499278560905" lon="11.525888913339694"><ele>610.0</ele><time>2026-05-02T16:51:02.999Z</time></trkpt><trkpt lat="43.44741023501027" lon="11.525882544844055"><ele>610.0</ele><time>2026-05-02T16:51:03.999Z</time></trkpt><trkpt lat="43.4473254371538" lon="11.52584109903059"><ele>610.0</ele><time>2026-05-02T16:51:04.999Z</time></trkpt><trkpt lat="43.44723720420664" lon="11.525825524102814"><ele>610.0</ele><time>2026-05-02T16:51:05.999Z</time></trkpt><trkpt lat="43.447151816983805" lon="11.525855774257895"><ele>610.0</ele><time>2026-05-02T16:51:06.999Z</time></trkpt><trkpt lat="43.44706485588406" lon="11.525898934621166"><ele>610.0</ele><time>2026-05-02T16:51:07.999Z</time></trkpt><trkpt lat="43.44702277682961" lon="11.52602462051542"><ele>610.0</ele><time>2026-05-02T16:51:08.999Z</time></trkpt><trkpt lat="43.44699467207875" lon="11.526143273033417"><ele>610.0</ele><time>2026-05-02T16:51:10Z</time></trkpt><trkpt lat="43.44699985900158" lon="11.526272087120343"><ele>607.2</ele><time>2026-05-02T16:51:11Z</time></trkpt><trkpt lat="43.44703459889062" lon="11.52639285225145"><ele>604.4</ele><time>2026-05-02T16:51:12Z</time></trkpt><trkpt lat="43.447098950811764" lon="11.52649431164836"><ele>601.6</ele><time>2026-05-02T16:51:13Z</time></trkpt><trkpt lat="43.44718380564206" lon="11.526569853063316"><ele>598.8</ele><time>2026-05-02T16:51:14Z</time></trkpt><trkpt lat="43.44727390876119" lon="11.526634051322095"><ele>596.0</ele><time>2026-05-02T16:51:15Z</time></trkpt><trkpt lat="43.44736486674985" lon="11.52669460839588"><ele>596.0</ele><time>2026-05-02T16:51:16Z</time></trkpt><trkpt lat="43.4474599753432" lon="11.526728510622313"><ele>596.0</ele><time>2026-05-02T16:51:17Z</time></trkpt><trkpt lat="43.44755507351372" lon="11.526722771877376"><ele>596.0</ele><time>2026-05-02T16:51:18Z</time></trkpt><trkpt lat="43.44764787764036" lon="11.52668609181449"><ele>596.0</ele><time>2026-05-02T16:51:19Z</time></trkpt><trkpt lat="43.447739713598715" lon="11.526646111759518"><ele>596.0</ele><time>2026-05-02T16:51:20Z</time></trkpt><trkpt lat="43.44783599993397" lon="11.526624885826095"><ele>596.0</ele><time>2026-05-02T16:51:21Z</time></trkpt><trkpt lat="43.44793599886827" lon="11.526638108081888"><ele>596.0</ele><time>2026-05-02T16:51:22Z</time></trkpt><trkpt lat="43.44803067979038" lon="11.526687167018283"><ele>596.0</ele><time>2026-05-02T16:51:23Z</time></trkpt><trkpt lat="43.44811754544683" lon="11.52676113740444"><ele>596.0</ele><time>2026-05-02T16:51:24Z</time></trkpt><trkpt lat="43.448182505849374" lon="11.5268716952051"><ele>596.0</ele><time>2026-05-02T16:51:25Z</time></trkpt><trkpt lat="43.44826080222937" lon="11.526966513812766"><ele>592.6</ele><time>2026-05-02T16:51:26Z</time></trkpt><trkpt lat="43.44832269298652" lon="11.527084604772995"><ele>589.2</ele><time>2026-05-02T16:51:27Z</time></trkpt><trkpt lat="43.448389533553026" lon="11.527202892725752"><ele>585.8</ele><time>2026-05-02T16:51:28Z</time></trkpt><trkpt lat="43.44846326067729" lon="11.5273198126837"><ele>582.4</ele><time>2026-05-02T16:51:29Z</time></trkpt><trkpt lat="43.448544536800085" lon="11.527432633959297"><ele>579.0</ele><time>2026-05-02T16:51:30Z</time></trkpt><trkpt lat="43.44863285004865" lon="11.527540511759845"><ele>579.0</ele><time>2026-05-02T16:51:31Z</time></trkpt><trkpt lat="43.44872646647055" lon="11.52764094493936"><ele>579.0</ele><time>2026-05-02T16:51:32Z</time></trkpt><trkpt lat="43.44882444914028" lon="11.527739987823143"><ele>579.0</ele><time>2026-05-02T16:51:33Z</time></trkpt><trkpt lat="43.44892418885818" lon="11.527838871235334"><ele>579.0</ele><time>2026-05-02T16:51:34Z</time></trkpt><trkpt lat="43.449022647673154" lon="11.52794015519379"><ele>576.0</ele><time>2026-05-02T16:51:35Z</time></trkpt><trkpt lat="43.44911464231762" lon="11.528048638229606"><ele>573.0</ele><time>2026-05-02T16:51:36Z</time></trkpt><trkpt lat="43.44919958165586" lon="11.528168197692587"><ele>570.0</ele><time>2026-05-02T16:51:37Z</time></trkpt><trkpt lat="43.449277092314325" lon="11.528292836548815"><ele>567.0</ele><time>2026-05-02T16:51:38Z</time></trkpt><trkpt lat="43.44934887558858" lon="11.52842301579735"><ele>567.0</ele><time>2026-05-02T16:51:39Z</time></trkpt><trkpt lat="43.449418535992194" lon="11.528553633571235"><ele>567.0</ele><time>2026-05-02T16:51:40Z</time></trkpt><trkpt lat="43.44949340479572" lon="11.5286820384882"><ele>567.0</ele><time>2026-05-02T16:51:41Z</time></trkpt><trkpt lat="43.449566635030216" lon="11.528811947641428"><ele>567.0</ele><time>2026-05-02T16:51:42Z</time></trkpt><trkpt lat="43.44963828207465" lon="11.5289443741723"><ele>564.25</ele><time>2026-05-02T16:51:43Z</time></trkpt><trkpt lat="43.44971153993266" lon="11.529078286559567"><ele>561.5</ele><time>2026-05-02T16:51:44Z</time></trkpt><trkpt lat="43.449781462082925" lon="11.529218289801024"><ele>558.75</ele><time>2026-05-02T16:51:45Z</time></trkpt><trkpt lat="43.449822954051356" lon="11.529375719193242"><ele>556.0</ele><time>2026-05-02T16:51:46Z</time></trkpt><trkpt lat="43.44985437069635" lon="11.529533448765575"><ele>555.25</ele><time>2026-05-02T16:51:47Z</time></trkpt><trkpt lat="43.44988473271005" lon="11.52969479764193"><ele>554.5</ele><time>2026-05-02T16:51:48Z</time></trkpt><trkpt lat="43.44992281385037" lon="11.529852491353969"><ele>553.75</ele><time>2026-05-02T16:51:49Z</time></trkpt><trkpt lat="43.44994550468676" lon="11.530015029963161"><ele>553.0</ele><time>2026-05-02T16:51:50Z</time></trkpt><trkpt lat="43.4499684328238" lon="11.530175481869696"><ele>553.0</ele><time>2026-05-02T16:51:51Z</time></trkpt><trkpt lat="43.44997294986388" lon="11.530337445179857"><ele>553.0</ele><time>2026-05-02T16:51:52Z</time></trkpt><trkpt lat="43.449989549569175" lon="11.530495147202462"><ele>553.0</ele><time>2026-05-02T16:51:53Z</time></trkpt><trkpt lat="43.45000135619891" lon="11.530650282119291"><ele>553.0</ele><time>2026-05-02T16:51:54Z</time></trkpt><trkpt lat="43.4500085559203" lon="11.530802577763229"><ele>553.1999999999999</ele><time>2026-05-02T16:51:55Z</time></trkpt><trkpt lat="43.4500281458841" lon="11.53094774779665"><ele>553.4</ele><time>2026-05-02T16:51:56Z</time></trkpt><trkpt lat="43.45002721779598" lon="11.531089072462395"><ele>553.5999999999999</ele><time>2026-05-02T16:51:57Z</time></trkpt><trkpt lat="43.45003110179076" lon="11.531221973921722"><ele>553.8</ele><time>2026-05-02T16:51:58Z</time></trkpt><trkpt lat="43.45005384762045" lon="11.531337979445311"><ele>554.0</ele><time>2026-05-02T16:51:59Z</time></trkpt><trkpt lat="43.450072030857925" lon="11.531448518391015"><ele>554.5</ele><time>2026-05-02T16:52:00Z</time></trkpt><trkpt lat="43.45016296133219" lon="11.531496314027224"><ele>555.0</ele><time>2026-05-02T16:52:01Z</time></trkpt><trkpt lat="43.45023924669703" lon="11.531532408403812"><ele>555.5</ele><time>2026-05-02T16:52:02Z</time></trkpt><trkpt lat="43.45031389726359" lon="11.531567273239784"><ele>556.0</ele><time>2026-05-02T16:52:03Z</time></trkpt><trkpt lat="43.45038503913063" lon="11.531605822259198"><ele>556.5</ele><time>2026-05-02T16:52:04Z</time></trkpt><trkpt lat="43.450453882032654" lon="11.531639060938563"><ele>557.0</ele><time>2026-05-02T16:52:05Z</time></trkpt><trkpt lat="43.45052474452275" lon="11.531674612314356"><ele>557.5</ele><time>2026-05-02T16:52:06Z</time></trkpt><trkpt lat="43.45059543763901" lon="11.531712755327804"><ele>558.0</ele><time>2026-05-02T16:52:07Z</time></trkpt><trkpt lat="43.45066622048077" lon="11.531753518578046"><ele>558.5</ele><time>2026-05-02T16:52:08Z</time></trkpt><trkpt lat="43.45073719994518" lon="11.531802430139667"><ele>559.0</ele><time>2026-05-02T16:52:09Z</time></trkpt><trkpt lat="43.45080383646661" lon="11.5318576528374"><ele>559.5</ele><time>2026-05-02T16:52:10Z</time></trkpt><trkpt lat="43.4508641021183" lon="11.531920678705792"><ele>560.0</ele><time>2026-05-02T16:52:11Z</time></trkpt><trkpt lat="43.450923059559095" lon="11.531986443634473"><ele>560.0</ele><time>2026-05-02T16:52:12Z</time></trkpt><trkpt lat="43.45098328531465" lon="11.532053112975321"><ele>560.0</ele><time>2026-05-02T16:52:13Z</time></trkpt><trkpt lat="43.451044142824266" lon="11.532120645972075"><ele>560.0</ele><time>2026-05-02T16:52:14Z</time></trkpt><trkpt lat="43.45110771477829" lon="11.532189165750452"><ele>560.0</ele><time>2026-05-02T16:52:15Z</time></trkpt><trkpt lat="43.45116984077049" lon="11.53226144195051"><ele>560.0</ele><time>2026-05-02T16:52:16Z</time></trkpt><trkpt lat="43.45122964649516" lon="11.532340694436407"><ele>560.0</ele><time>2026-05-02T16:52:17Z</time></trkpt><trkpt lat="43.4512824624993" lon="11.532432738396583"><ele>560.0</ele><time>2026-05-02T16:52:18Z</time></trkpt><trkpt lat="43.451330586181754" lon="11.532526375082197"><ele>560.0</ele><time>2026-05-02T16:52:19Z</time></trkpt><trkpt lat="43.45137135357221" lon="11.532627036652919"><ele>560.0</ele><time>2026-05-02T16:52:20Z</time></trkpt><trkpt lat="43.451414778258965" lon="11.532724530439836"><ele>560.0</ele><time>2026-05-02T16:52:21Z</time></trkpt><trkpt lat="43.45145755825985" lon="11.532825547134568"><ele>560.0</ele><time>2026-05-02T16:52:22Z</time></trkpt><trkpt lat="43.451500986444664" lon="11.532928165166119"><ele>560.0</ele><time>2026-05-02T16:52:23Z</time></trkpt><trkpt lat="43.45155078191787" lon="11.53302809650321"><ele>561.3333333333333</ele><time>2026-05-02T16:52:23.999Z</time></trkpt><trkpt lat="43.45160851395411" lon="11.533119887510889"><ele>562.6666666666666</ele><time>2026-05-02T16:52:24.999Z</time></trkpt><trkpt lat="43.45167471573532" lon="11.533200404883102"><ele>564.0</ele><time>2026-05-02T16:52:25.999Z</time></trkpt><trkpt lat="43.451745602495734" lon="11.533273975334469"><ele>565.3333333333334</ele><time>2026-05-02T16:52:26.999Z</time></trkpt><trkpt lat="43.451817358067075" lon="11.53334246136269"><ele>566.6666666666667</ele><time>2026-05-02T16:52:27.999Z</time></trkpt><trkpt lat="43.45188786916314" lon="11.533408817418671"><ele>568.0</ele><time>2026-05-02T16:52:28.999Z</time></trkpt><trkpt lat="43.45195520289736" lon="11.533485081050408"><ele>568.0</ele><time>2026-05-02T16:52:29.999Z</time></trkpt><trkpt lat="43.4520188528465" lon="11.53357110775632"><ele>568.0</ele><time>2026-05-02T16:52:30.999Z</time></trkpt><trkpt lat="43.45208022525846" lon="11.533663198381664"><ele>568.0</ele><time>2026-05-02T16:52:31.999Z</time></trkpt><trkpt lat="43.4521440622991" lon="11.53375860885243"><ele>568.0</ele><time>2026-05-02T16:52:32.999Z</time></trkpt><trkpt lat="43.452205977701524" lon="11.533854537181208"><ele>568.0</ele><time>2026-05-02T16:52:33.999Z</time></trkpt><trkpt lat="43.45226324451503" lon="11.53394954944038"><ele>567.3333333333334</ele><time>2026-05-02T16:52:34.999Z</time></trkpt><trkpt lat="43.45229949746865" lon="11.534061069880494"><ele>566.6666666666667</ele><time>2026-05-02T16:52:35.999Z</time></trkpt><trkpt lat="43.45231632190311" lon="11.534178610613774"><ele>566.0</ele><time>2026-05-02T16:52:36.999Z</time></trkpt><trkpt lat="43.45230797108195" lon="11.534295539151596"><ele>565.3333333333334</ele><time>2026-05-02T16:52:37.999Z</time></trkpt><trkpt lat="43.452283033822354" lon="11.534403429938973"><ele>564.6666666666666</ele><time>2026-05-02T16:52:38.999Z</time></trkpt><trkpt lat="43.45223291910973" lon="11.534494146011781"><ele>564.0</ele><time>2026-05-02T16:52:39.999Z</time></trkpt><trkpt lat="43.45216947013025" lon="11.534564972362892"><ele>565.8</ele><time>2026-05-02T16:52:40.999Z</time></trkpt><trkpt lat="43.452086413577696" lon="11.534619275126966"><ele>567.5999999999999</ele><time>2026-05-02T16:52:41.999Z</time></trkpt><trkpt lat="43.45200743601144" lon="11.534664646214551"><ele>569.4</ele><time>2026-05-02T16:52:42.999Z</time></trkpt><trkpt lat="43.45192711461017" lon="11.534710843428346"><ele>571.1999999999999</ele><time>2026-05-02T16:52:43.999Z</time></trkpt><trkpt lat="43.4518571580015" lon="11.534772267304742"><ele>573.0</ele><time>2026-05-02T16:52:44.999Z</time></trkpt><trkpt lat="43.45177882377784" lon="11.534864008514832"><ele>573.0</ele><time>2026-05-02T16:52:45.999Z</time></trkpt><trkpt lat="43.45176819851532" lon="11.535007439803607"><ele>573.0</ele><time>2026-05-02T16:52:46.999Z</time></trkpt><trkpt lat="43.45176793780004" lon="11.53514585472681"><ele>573.0</ele><time>2026-05-02T16:52:47.999Z</time></trkpt><trkpt lat="43.451796021085904" lon="11.535281895460738"><ele>573.0</ele><time>2026-05-02T16:52:48.999Z</time></trkpt><trkpt lat="43.45184405716577" lon="11.535407034327854"><ele>573.0</ele><time>2026-05-02T16:52:49.999Z</time></trkpt><trkpt lat="43.45188411702589" lon="11.535543680197556"><ele>572.8</ele><time>2026-05-02T16:52:50.999Z</time></trkpt><trkpt lat="43.45194962344773" lon="11.535664516268268"><ele>572.5999999999999</ele><time>2026-05-02T16:52:51.999Z</time></trkpt><trkpt lat="43.45199591054541" lon="11.5357974880994"><ele>572.4000000000001</ele><time>2026-05-02T16:52:52.999Z</time></trkpt><trkpt lat="43.45204700269357" lon="11.535927872846653"><ele>572.2</ele><time>2026-05-02T16:52:53.999Z</time></trkpt><trkpt lat="43.45210176301351" lon="11.536046828841394"><ele>572.0</ele><time>2026-05-02T16:52:54.999Z</time></trkpt><trkpt lat="43.45216384264746" lon="11.536159709074623"><ele>569.4</ele><time>2026-05-02T16:52:55.999Z</time></trkpt><trkpt lat="43.4522260653813" lon="11.536275791309455"><ele>566.8000000000001</ele><time>2026-05-02T16:52:56.999Z</time></trkpt><trkpt lat="43.45228162693532" lon="11.536401386610496"><ele>564.2</ele><time>2026-05-02T16:52:57.999Z</time></trkpt><trkpt lat="43.452329794954984" lon="11.536537934734824"><ele>561.6</ele><time>2026-05-02T16:52:58.999Z</time></trkpt><trkpt lat="43.452364648547096" lon="11.536678752422526"><ele>559.0</ele><time>2026-05-02T16:52:59.999Z</time></trkpt><trkpt lat="43.452387157470625" lon="11.536825706319775"><ele>559.0</ele><time>2026-05-02T16:53:00.999Z</time></trkpt><trkpt lat="43.452412459877785" lon="11.536966462756713"><ele>559.0</ele><time>2026-05-02T16:53:01.999Z</time></trkpt><trkpt lat="43.45244793698418" lon="11.537099679899091"><ele>559.0</ele><time>2026-05-02T16:53:02.999Z</time></trkpt><trkpt lat="43.45248402049229" lon="11.537231038194317"><ele>559.0</ele><time>2026-05-02T16:53:03.999Z</time></trkpt><trkpt lat="43.452499624178785" lon="11.537359015303972"><ele>559.0</ele><time>2026-05-02T16:53:04.999Z</time></trkpt><trkpt lat="43.452488051400614" lon="11.537482616589092"><ele>558.8</ele><time>2026-05-02T16:53:05.999Z</time></trkpt><trkpt lat="43.452438370491855" lon="11.537593000379081"><ele>558.5999999999999</ele><time>2026-05-02T16:53:06.999Z</time></trkpt><trkpt lat="43.452392825218084" lon="11.537706878799154"><ele>558.4</ele><time>2026-05-02T16:53:07.999Z</time></trkpt><trkpt lat="43.452389968784296" lon="11.537854695716621"><ele>558.1999999999999</ele><time>2026-05-02T16:53:08.999Z</time></trkpt><trkpt lat="43.45244236430829" lon="11.538003821291706"><ele>558.0</ele><time>2026-05-02T16:53:09.999Z</time></trkpt><trkpt lat="43.45252706473947" lon="11.53812514882866"><ele>557.8</ele><time>2026-05-02T16:53:10.999Z</time></trkpt><trkpt lat="43.45262097165278" lon="11.53821567143626"><ele>557.5999999999999</ele><time>2026-05-02T16:53:11.999Z</time></trkpt><trkpt lat="43.45271738366749" lon="11.538296299532405"><ele>557.4000000000001</ele><time>2026-05-02T16:53:12.999Z</time></trkpt><trkpt lat="43.45279195264582" lon="11.53840445116297"><ele>557.2</ele><time>2026-05-02T16:53:13.999Z</time></trkpt><trkpt lat="43.45283987819307" lon="11.5385410268025"><ele>557.0</ele><time>2026-05-02T16:53:14.999Z</time></trkpt><trkpt lat="43.452857972860286" lon="11.538689681580637"><ele>556.2</ele><time>2026-05-02T16:53:16Z</time></trkpt><trkpt lat="43.45288783248555" lon="11.538837010666184"><ele>555.4000000000001</ele><time>2026-05-02T16:53:17Z</time></trkpt><trkpt lat="43.45293292168776" lon="11.538982088620646"><ele>554.5999999999999</ele><time>2026-05-02T16:53:18Z</time></trkpt><trkpt lat="43.452935800447484" lon="11.53913574283948"><ele>553.8</ele><time>2026-05-02T16:53:19Z</time></trkpt><trkpt lat="43.4529192416687" lon="11.539279654237264"><ele>553.0</ele><time>2026-05-02T16:53:20Z</time></trkpt><trkpt lat="43.45289703087718" lon="11.53942395487651"><ele>551.4</ele><time>2026-05-02T16:53:21Z</time></trkpt><trkpt lat="43.45286823109552" lon="11.539568391242941"><ele>549.8</ele><time>2026-05-02T16:53:22Z</time></trkpt><trkpt lat="43.45283388220834" lon="11.53970807281261"><ele>548.2</ele><time>2026-05-02T16:53:23Z</time></trkpt><trkpt lat="43.452793758680976" lon="11.539842958050736"><ele>546.6</ele><time>2026-05-02T16:53:24Z</time></trkpt><trkpt lat="43.45275970647443" lon="11.539978937516533"><ele>545.0</ele><time>2026-05-02T16:53:25Z</time></trkpt><trkpt lat="43.45271408582651" lon="11.540094995564552"><ele>545.0</ele><time>2026-05-02T16:53:26Z</time></trkpt><trkpt lat="43.452711784666185" lon="11.540213862489855"><ele>545.0</ele><time>2026-05-02T16:53:27Z</time></trkpt><trkpt lat="43.45276628844759" lon="11.54034031480585"><ele>545.0</ele><time>2026-05-02T16:53:28Z</time></trkpt><trkpt lat="43.45285525657954" lon="11.540441944240927"><ele>545.0</ele><time>2026-05-02T16:53:29Z</time></trkpt><trkpt lat="43.452943125143065" lon="11.540566874880858"><ele>545.0</ele><time>2026-05-02T16:53:30Z</time></trkpt><trkpt lat="43.45299022401401" lon="11.540719557835422"><ele>537.0</ele><time>2026-05-02T16:53:31Z</time></trkpt><trkpt lat="43.453042537882666" lon="11.54086709710709"><ele>529.0</ele><time>2026-05-02T16:53:32Z</time></trkpt><trkpt lat="43.453117222513896" lon="11.54099439053658"><ele>521.0</ele><time>2026-05-02T16:53:33Z</time></trkpt><trkpt lat="43.45320175499513" lon="11.541103078561957"><ele>513.0</ele><time>2026-05-02T16:53:34Z</time></trkpt><trkpt lat="43.45327531824046" lon="11.541203301977978"><ele>511.79999999999995</ele><time>2026-05-02T16:53:35Z</time></trkpt><trkpt lat="43.45334303586658" lon="11.54129231769229"><ele>510.59999999999997</ele><time>2026-05-02T16:53:36Z</time></trkpt><trkpt lat="43.45339857030549" lon="11.541361672471252"><ele>509.40000000000003</ele><time>2026-05-02T16:53:37Z</time></trkpt><trkpt lat="43.45342221159237" lon="11.541486030040907"><ele>508.20000000000005</ele><time>2026-05-02T16:53:39Z</time></trkpt><trkpt lat="43.453323023979074" lon="11.541599305056112"><ele>507.0</ele><time>2026-05-02T16:53:41Z</time></trkpt><trkpt lat="43.45323348569228" lon="11.541585832329316"><ele>507.0</ele><time>2026-05-02T16:53:42Z</time></trkpt><trkpt lat="43.45314257927112" lon="11.541558159688844"><ele>507.00000000000006</ele><time>2026-05-02T16:53:43Z</time></trkpt><trkpt lat="43.453050509416116" lon="11.541523133421567"><ele>507.00000000000006</ele><time>2026-05-02T16:53:44Z</time></trkpt><trkpt lat="43.4529676489063" lon="11.54147701728153"><ele>507.0</ele><time>2026-05-02T16:53:45Z</time></trkpt><trkpt lat="43.452875955183806" lon="11.541446414738392"><ele>507.0</ele><time>2026-05-02T16:53:46Z</time></trkpt><trkpt lat="43.45279222716651" lon="11.54139480855277"><ele>507.6</ele><time>2026-05-02T16:53:47Z</time></trkpt><trkpt lat="43.45271225092456" lon="11.54135964188823"><ele>508.20000000000005</ele><time>2026-05-02T16:53:48Z</time></trkpt><trkpt lat="43.452634587799125" lon="11.541356721538376"><ele>508.8</ele><time>2026-05-02T16:53:49Z</time></trkpt><trkpt lat="43.45255779632478" lon="11.541389590739573"><ele>509.4</ele><time>2026-05-02T16:53:50Z</time></trkpt><trkpt lat="43.45248661371569" lon="11.541484824814276"><ele>510.0</ele><time>2026-05-02T16:53:51Z</time></trkpt><trkpt lat="43.4524266365734" lon="11.541613835671935"><ele>510.0</ele><time>2026-05-02T16:53:52Z</time></trkpt><trkpt lat="43.45235494789102" lon="11.54171224228172"><ele>510.0</ele><time>2026-05-02T16:53:53Z</time></trkpt><trkpt lat="43.45233013256729" lon="11.541839463521084"><ele>510.0</ele><time>2026-05-02T16:53:54Z</time></trkpt><trkpt lat="43.45229549905789" lon="11.541957192320332"><ele>510.0</ele><time>2026-05-02T16:53:55Z</time></trkpt><trkpt lat="43.452258535029536" lon="11.542108315291749"><ele>510.0</ele><time>2026-05-02T16:53:56Z</time></trkpt><trkpt lat="43.45223424595226" lon="11.542253449937839"><ele>511.0</ele><time>2026-05-02T16:53:57Z</time></trkpt><trkpt lat="43.45217216512209" lon="11.542371951858138"><ele>512.0</ele><time>2026-05-02T16:53:58Z</time></trkpt><trkpt lat="43.452112978581155" lon="11.542485230200965"><ele>513.0</ele><time>2026-05-02T16:53:59Z</time></trkpt><trkpt lat="43.45204606127918" lon="11.542585955062108"><ele>514.0</ele><time>2026-05-02T16:54:00Z</time></trkpt><trkpt lat="43.45198298067562" lon="11.542675658169014"><ele>515.0</ele><time>2026-05-02T16:54:01Z</time></trkpt><trkpt lat="43.451933419816605" lon="11.542775681179739"><ele>513.2</ele><time>2026-05-02T16:54:02Z</time></trkpt><trkpt lat="43.4519153782266" lon="11.542903116564743"><ele>511.4</ele><time>2026-05-02T16:54:03Z</time></trkpt><trkpt lat="43.45192406781432" lon="11.543026630664507"><ele>509.6</ele><time>2026-05-02T16:54:04Z</time></trkpt><trkpt lat="43.45194485909769" lon="11.543143744162034"><ele>507.8</ele><time>2026-05-02T16:54:05Z</time></trkpt><trkpt lat="43.45197648784713" lon="11.54326735616096"><ele>506.0</ele><time>2026-05-02T16:54:06Z</time></trkpt><trkpt lat="43.45202913489235" lon="11.543383482500635"><ele>506.0</ele><time>2026-05-02T16:54:07Z</time></trkpt><trkpt lat="43.4520589653203" lon="11.543516794833808"><ele>506.0</ele><time>2026-05-02T16:54:08Z</time></trkpt><trkpt lat="43.45209802098399" lon="11.543639764446008"><ele>506.0</ele><time>2026-05-02T16:54:09Z</time></trkpt><trkpt lat="43.45211324924812" lon="11.543766014647856"><ele>506.0</ele><time>2026-05-02T16:54:10Z</time></trkpt><trkpt lat="43.45212060121309" lon="11.5438984742649"><ele>506.0</ele><time>2026-05-02T16:54:11Z</time></trkpt><trkpt lat="43.45213944747163" lon="11.54402470973899"><ele>503.3333333333333</ele><time>2026-05-02T16:54:12Z</time></trkpt><trkpt lat="43.452129831071844" lon="11.544142685626026"><ele>500.66666666666663</ele><time>2026-05-02T16:54:13Z</time></trkpt><trkpt lat="43.452086946582966" lon="11.544231458671247"><ele>498.0</ele><time>2026-05-02T16:54:14Z</time></trkpt><trkpt lat="43.452044416092505" lon="11.544327409607423"><ele>495.33333333333337</ele><time>2026-05-02T16:54:15Z</time></trkpt><trkpt lat="43.45196504178017" lon="11.544369570413952"><ele>492.6666666666667</ele><time>2026-05-02T16:54:16Z</time></trkpt><trkpt lat="43.45189118291549" lon="11.544422475163858"><ele>490.0</ele><time>2026-05-02T16:54:17Z</time></trkpt><trkpt lat="43.45181590324563" lon="11.544479537240127"><ele>490.00000000000006</ele><time>2026-05-02T16:54:18Z</time></trkpt><trkpt lat="43.45173816367005" lon="11.544536968828114"><ele>490.0</ele><time>2026-05-02T16:54:19Z</time></trkpt><trkpt lat="43.451658659663686" lon="11.54459559253753"><ele>490.0</ele><time>2026-05-02T16:54:20Z</time></trkpt><trkpt lat="43.451580228543875" lon="11.544663095372766"><ele>490.0</ele><time>2026-05-02T16:54:21Z</time></trkpt><trkpt lat="43.451523839023935" lon="11.544749268022818"><ele>490.00000000000006</ele><time>2026-05-02T16:54:22Z</time></trkpt><trkpt lat="43.4515007374015" lon="11.54485160190005"><ele>490.0</ele><time>2026-05-02T16:54:23Z</time></trkpt><trkpt lat="43.4515359441828" lon="11.544951520369949"><ele>485.83333333333337</ele><time>2026-05-02T16:54:24Z</time></trkpt><trkpt lat="43.45158730337639" lon="11.545024954929543"><ele>481.6666666666667</ele><time>2026-05-02T16:54:25Z</time></trkpt><trkpt lat="43.451664171454546" lon="11.545060949268098"><ele>477.5</ele><time>2026-05-02T16:54:26Z</time></trkpt><trkpt lat="43.451750682949246" lon="11.5450649241926"><ele>473.33333333333337</ele><time>2026-05-02T16:54:26.999Z</time></trkpt><trkpt lat="43.45183540269592" lon="11.545029900820401"><ele>469.1666666666667</ele><time>2026-05-02T16:54:27.999Z</time></trkpt><trkpt lat="43.45191604191065" lon="11.544967591165221"><ele>465.0</ele><time>2026-05-02T16:54:28.999Z</time></trkpt><trkpt lat="43.45198680822754" lon="11.544892035289568"><ele>465.0</ele><time>2026-05-02T16:54:29.999Z</time></trkpt><trkpt lat="43.45206513999325" lon="11.544838157663213"><ele>465.0</ele><time>2026-05-02T16:54:30.999Z</time></trkpt><trkpt lat="43.452150776354415" lon="11.544825749283207"><ele>465.0</ele><time>2026-05-02T16:54:31.999Z</time></trkpt><trkpt lat="43.45223409319528" lon="11.544830635264805"><ele>465.0</ele><time>2026-05-02T16:54:32.999Z</time></trkpt><trkpt lat="43.452311852765106" lon="11.5448257754069"><ele>465.0</ele><time>2026-05-02T16:54:33.999Z</time></trkpt><trkpt lat="43.452380988713024" lon="11.544819590663428"><ele>465.0</ele><time>2026-05-02T16:54:34.999Z</time></trkpt><trkpt lat="43.45247520754062" lon="11.544903553148897"><ele>465.0</ele><time>2026-05-02T16:54:36.999Z</time></trkpt><trkpt lat="43.4524222009238" lon="11.545026475679107"><ele>465.0</ele><time>2026-05-02T16:54:38.999Z</time></trkpt><trkpt lat="43.45230030589621" lon="11.545028357364533"><ele>465.0</ele><time>2026-05-02T16:54:40.999Z</time></trkpt><trkpt lat="43.45223294574325" lon="11.545038457619054"><ele>465.0</ele><time>2026-05-02T16:54:41.999Z</time></trkpt><trkpt lat="43.45216341787441" lon="11.545059112715077"><ele>465.0</ele><time>2026-05-02T16:54:42.999Z</time></trkpt><trkpt lat="43.45209234166171" lon="11.545113839942095"><ele>465.0</ele><time>2026-05-02T16:54:43.999Z</time></trkpt><trkpt lat="43.45204257750022" lon="11.545206810089628"><ele>465.0</ele><time>2026-05-02T16:54:44.999Z</time></trkpt><trkpt lat="43.45200487533629" lon="11.54531178059004"><ele>465.0</ele><time>2026-05-02T16:54:45.999Z</time></trkpt><trkpt lat="43.45196879808484" lon="11.545405684940288"><ele>465.0</ele><time>2026-05-02T16:54:46.999Z</time></trkpt><trkpt lat="43.451915576805526" lon="11.54547912453344"><ele>465.0</ele><time>2026-05-02T16:54:47.999Z</time></trkpt><trkpt lat="43.451853184570254" lon="11.545547842889762"><ele>465.0</ele><time>2026-05-02T16:54:48.999Z</time></trkpt><trkpt lat="43.45179423949113" lon="11.545621473556674"><ele>465.0</ele><time>2026-05-02T16:54:49.999Z</time></trkpt><trkpt lat="43.45171053329837" lon="11.545629311889929"><ele>460.2</ele><time>2026-05-02T16:54:50.999Z</time></trkpt><trkpt lat="43.45164038899506" lon="11.54557831630126"><ele>455.4</ele><time>2026-05-02T16:54:51.999Z</time></trkpt><trkpt lat="43.451530729745606" lon="11.545609040579881"><ele>450.6</ele><time>2026-05-02T16:54:53.999Z</time></trkpt><trkpt lat="43.451481761372044" lon="11.54573638591892"><ele>445.8</ele><time>2026-05-02T16:54:55.999Z</time></trkpt><trkpt lat="43.45156881604856" lon="11.54586899994532"><ele>441.0</ele><time>2026-05-02T16:54:57.999Z</time></trkpt><trkpt lat="43.45164998334885" lon="11.545903451910492"><ele>441.0</ele><time>2026-05-02T16:54:58.999Z</time></trkpt><trkpt lat="43.45173587957539" lon="11.54593201020397"><ele>441.0</ele><time>2026-05-02T16:54:59.999Z</time></trkpt><trkpt lat="43.45182158821738" lon="11.545947542176169"><ele>441.0</ele><time>2026-05-02T16:55:00.999Z</time></trkpt><trkpt lat="43.45190581265077" lon="11.545945697735549"><ele>441.0</ele><time>2026-05-02T16:55:01.999Z</time></trkpt><trkpt lat="43.451987597518155" lon="11.545914544430396"><ele>441.0</ele><time>2026-05-02T16:55:02.999Z</time></trkpt><trkpt lat="43.4520645500247" lon="11.545853752180765"><ele>441.0</ele><time>2026-05-02T16:55:03.999Z</time></trkpt><trkpt lat="43.45214164592609" lon="11.545779424219976"><ele>439.20000000000005</ele><time>2026-05-02T16:55:04.999Z</time></trkpt><trkpt lat="43.45222995981592" lon="11.545724172307056"><ele>437.40000000000003</ele><time>2026-05-02T16:55:05.999Z</time></trkpt><trkpt lat="43.45232861371238" lon="11.545712157276542"><ele>435.6</ele><time>2026-05-02T16:55:06.999Z</time></trkpt><trkpt lat="43.45242529749616" lon="11.545750941882044"><ele>433.8</ele><time>2026-05-02T16:55:07.999Z</time></trkpt><trkpt lat="43.452513328089914" lon="11.545813308255562"><ele>432.0</ele><time>2026-05-02T16:55:08.999Z</time></trkpt><trkpt lat="43.45260326690125" lon="11.545855151408738"><ele>432.0</ele><time>2026-05-02T16:55:09.999Z</time></trkpt><trkpt lat="43.45269911569022" lon="11.545854571967316"><ele>432.0</ele><time>2026-05-02T16:55:10.999Z</time></trkpt><trkpt lat="43.45279047669591" lon="11.545819400400198"><ele>432.0</ele><time>2026-05-02T16:55:11.999Z</time></trkpt><trkpt lat="43.452866256838576" lon="11.545770860657097"><ele>432.0</ele><time>2026-05-02T16:55:12.999Z</time></trkpt><trkpt lat="43.45292025489943" lon="11.54569274810664"><ele>432.0</ele><time>2026-05-02T16:55:13.999Z</time></trkpt><trkpt lat="43.45295918277945" lon="11.545594180658298"><ele>432.0</ele><time>2026-05-02T16:55:14.999Z</time></trkpt><trkpt lat="43.45298256539719" lon="11.545484967567443"><ele>430.20000000000005</ele><time>2026-05-02T16:55:15.999Z</time></trkpt><trkpt lat="43.453006765327956" lon="11.545370370474984"><ele>428.40000000000003</ele><time>2026-05-02T16:55:16.999Z</time></trkpt><trkpt lat="43.453023110413874" lon="11.545241154890691"><ele>426.6</ele><time>2026-05-02T16:55:17.999Z</time></trkpt><trkpt lat="43.45304679054979" lon="11.5451146144604"><ele>424.79999999999995</ele><time>2026-05-02T16:55:18.999Z</time></trkpt><trkpt lat="43.45307307306147" lon="11.544980572197518"><ele>423.0</ele><time>2026-05-02T16:55:19.999Z</time></trkpt><trkpt lat="43.45309300886156" lon="11.544843489664892"><ele>423.0</ele><time>2026-05-02T16:55:20.999Z</time></trkpt><trkpt lat="43.453112621741546" lon="11.544717243171887"><ele>423.0</ele><time>2026-05-02T16:55:22Z</time></trkpt><trkpt lat="43.453137625993634" lon="11.544622823273542"><ele>423.0</ele><time>2026-05-02T16:55:23Z</time></trkpt><trkpt lat="43.45318155914568" lon="11.544544890215095"><ele>423.0</ele><time>2026-05-02T16:55:24Z</time></trkpt><trkpt lat="43.45324802250012" lon="11.544500517725158"><ele>423.0</ele><time>2026-05-02T16:55:25Z</time></trkpt><trkpt lat="43.4533193995545" lon="11.544508242535464"><ele>423.0</ele><time>2026-05-02T16:55:26Z</time></trkpt><trkpt lat="43.45337309660643" lon="11.544590138885765"><ele>423.0</ele><time>2026-05-02T16:55:27Z</time></trkpt><trkpt lat="43.45340346946228" lon="11.544693181000756"><ele>423.0</ele><time>2026-05-02T16:55:28Z</time></trkpt><trkpt lat="43.453451787937595" lon="11.544795130163754"><ele>423.0</ele><time>2026-05-02T16:55:29Z</time></trkpt><trkpt lat="43.453482409928654" lon="11.544911992975365"><ele>423.0</ele><time>2026-05-02T16:55:30Z</time></trkpt><trkpt lat="43.45352656333383" lon="11.545027823588457"><ele>423.0</ele><time>2026-05-02T16:55:31Z</time></trkpt><trkpt lat="43.45357891115052" lon="11.545153167632735"><ele>423.0</ele><time>2026-05-02T16:55:32Z</time></trkpt><trkpt lat="43.453633201949195" lon="11.54528406069698"><ele>423.0</ele><time>2026-05-02T16:55:33Z</time></trkpt><trkpt lat="43.4536927394506" lon="11.545414603457003"><ele>423.0</ele><time>2026-05-02T16:55:34Z</time></trkpt><trkpt lat="43.45375346667313" lon="11.545548885685456"><ele>423.0</ele><time>2026-05-02T16:55:35Z</time></trkpt><trkpt lat="43.45380558809425" lon="11.545686523097872"><ele>423.0</ele><time>2026-05-02T16:55:36Z</time></trkpt><trkpt lat="43.45386421345368" lon="11.54582289923224"><ele>419.5</ele><time>2026-05-02T16:55:37Z</time></trkpt><trkpt lat="43.45392587871667" lon="11.5459581697223"><ele>416.0</ele><time>2026-05-02T16:55:38Z</time></trkpt><trkpt lat="43.45398732394691" lon="11.546087373885927"><ele>412.5</ele><time>2026-05-02T16:55:39Z</time></trkpt><trkpt lat="43.45405547229528" lon="11.546212679212955"><ele>409.0</ele><time>2026-05-02T16:55:40Z</time></trkpt><trkpt lat="43.45413489171869" lon="11.54631959311922"><ele>404.79999999999995</ele><time>2026-05-02T16:55:41Z</time></trkpt><trkpt lat="43.45423140032734" lon="11.546387017519285"><ele>400.59999999999997</ele><time>2026-05-02T16:55:42Z</time></trkpt><trkpt lat="43.454326469070715" lon="11.546436535321142"><ele>396.4</ele><time>2026-05-02T16:55:43Z</time></trkpt><trkpt lat="43.45439890261566" lon="11.546524023498174"><ele>392.2</ele><time>2026-05-02T16:55:44Z</time></trkpt><trkpt lat="43.45443326836671" lon="11.54665366415185"><ele>388.0</ele><time>2026-05-02T16:55:45Z</time></trkpt><trkpt lat="43.45444254374591" lon="11.546783951387908"><ele>388.0</ele><time>2026-05-02T16:55:46Z</time></trkpt><trkpt lat="43.454454341745816" lon="11.546907677904457"><ele>388.0</ele><time>2026-05-02T16:55:47Z</time></trkpt><trkpt lat="43.45449629037359" lon="11.547018076418146"><ele>388.0</ele><time>2026-05-02T16:55:48Z</time></trkpt><trkpt lat="43.45456619931114" lon="11.547111396351298"><ele>388.0</ele><time>2026-05-02T16:55:49Z</time></trkpt><trkpt lat="43.45465117630651" lon="11.547175788537025"><ele>388.0</ele><time>2026-05-02T16:55:50Z</time></trkpt><trkpt lat="43.45474206319379" lon="11.54721747301975"><ele>386.59999999999997</ele><time>2026-05-02T16:55:51Z</time></trkpt><trkpt lat="43.45482788947443" lon="11.547274106864323"><ele>385.2</ele><time>2026-05-02T16:55:52Z</time></trkpt><trkpt lat="43.45489145934222" lon="11.54737283015657"><ele>383.8</ele><time>2026-05-02T16:55:53Z</time></trkpt><trkpt lat="43.454928096989896" lon="11.547485295382407"><ele>382.4</ele><time>2026-05-02T16:55:54Z</time></trkpt><trkpt lat="43.45497123337222" lon="11.547586042339926"><ele>381.0</ele><time>2026-05-02T16:55:55Z</time></trkpt><trkpt lat="43.455034314232115" lon="11.547669140016929"><ele>381.0</ele><time>2026-05-02T16:55:56Z</time></trkpt><trkpt lat="43.4551136983037" lon="11.54774818327784"><ele>381.0</ele><time>2026-05-02T16:55:57Z</time></trkpt><trkpt lat="43.455198747554086" lon="11.54782727154047"><ele>381.0</ele><time>2026-05-02T16:55:58Z</time></trkpt><trkpt lat="43.45529258925863" lon="11.547911886528965"><ele>381.0</ele><time>2026-05-02T16:55:59Z</time></trkpt><trkpt lat="43.45538186505961" lon="11.5479906596953"><ele>381.0</ele><time>2026-05-02T16:56:00Z</time></trkpt><trkpt lat="43.45546778086477" lon="11.548071203092512"><ele>379.20000000000005</ele><time>2026-05-02T16:56:01Z</time></trkpt><trkpt lat="43.45555719198406" lon="11.5481597029109"><ele>377.40000000000003</ele><time>2026-05-02T16:56:02Z</time></trkpt><trkpt lat="43.45563720837709" lon="11.548259550811112"><ele>375.6</ele><time>2026-05-02T16:56:03Z</time></trkpt><trkpt lat="43.45571240853145" lon="11.548360835405468"><ele>373.8</ele><time>2026-05-02T16:56:04Z</time></trkpt><trkpt lat="43.45578686284643" lon="11.548459843972278"><ele>372.0</ele><time>2026-05-02T16:56:05Z</time></trkpt><trkpt lat="43.45585884473717" lon="11.548560309113698"><ele>372.0</ele><time>2026-05-02T16:56:06Z</time></trkpt><trkpt lat="43.455925787271916" lon="11.548663784825829"><ele>372.0</ele><time>2026-05-02T16:56:07Z</time></trkpt><trkpt lat="43.45598781026937" lon="11.548767945766272"><ele>372.0</ele><time>2026-05-02T16:56:08Z</time></trkpt><trkpt lat="43.45605086606638" lon="11.548872782082906"><ele>372.0</ele><time>2026-05-02T16:56:09Z</time></trkpt><trkpt lat="43.45611285277471" lon="11.548977156423602"><ele>372.0</ele><time>2026-05-02T16:56:10Z</time></trkpt><trkpt lat="43.45618415093105" lon="11.549068527904128"><ele>370.40000000000003</ele><time>2026-05-02T16:56:11Z</time></trkpt><trkpt lat="43.456260705301005" lon="11.549159935068545"><ele>368.8</ele><time>2026-05-02T16:56:12Z</time></trkpt><trkpt lat="43.45635218233581" lon="11.549238222684414"><ele>367.2</ele><time>2026-05-02T16:56:13Z</time></trkpt><trkpt lat="43.456449198652905" lon="11.549312607752462"><ele>365.6</ele><time>2026-05-02T16:56:14Z</time></trkpt><trkpt lat="43.456547547410175" lon="11.549385086038415"><ele>364.0</ele><time>2026-05-02T16:56:15Z</time></trkpt><trkpt lat="43.45664230258908" lon="11.549461780136427"><ele>359.0</ele><time>2026-05-02T16:56:16Z</time></trkpt><trkpt lat="43.456734520464664" lon="11.54954415547111"><ele>354.0</ele><time>2026-05-02T16:56:17Z</time></trkpt><trkpt lat="43.45682458684363" lon="11.549631904719497"><ele>349.0</ele><time>2026-05-02T16:56:18Z</time></trkpt><trkpt lat="43.45691548098196" lon="11.549716392356027"><ele>344.0</ele><time>2026-05-02T16:56:19Z</time></trkpt><trkpt lat="43.45701078397875" lon="11.549791068888341"><ele>339.0</ele><time>2026-05-02T16:56:20Z</time></trkpt><trkpt lat="43.45710827812245" lon="11.549861429413175"><ele>338.2</ele><time>2026-05-02T16:56:21Z</time></trkpt><trkpt lat="43.45720390656748" lon="11.549932237722977"><ele>337.4</ele><time>2026-05-02T16:56:22Z</time></trkpt><trkpt lat="43.45728802394492" lon="11.550019063178276"><ele>336.6</ele><time>2026-05-02T16:56:23Z</time></trkpt><trkpt lat="43.457350221963814" lon="11.55013384362725"><ele>335.8</ele><time>2026-05-02T16:56:24Z</time></trkpt><trkpt lat="43.457350534429615" lon="11.550284386553388"><ele>335.0</ele><time>2026-05-02T16:56:25Z</time></trkpt><trkpt lat="43.45738346107912" lon="11.550406170122503"><ele>335.0</ele><time>2026-05-02T16:56:26Z</time></trkpt><trkpt lat="43.45745258642636" lon="11.550494174581932"><ele>335.0</ele><time>2026-05-02T16:56:27Z</time></trkpt><trkpt lat="43.457509254332635" lon="11.550591782268159"><ele>335.0</ele><time>2026-05-02T16:56:27.999Z</time></trkpt><trkpt lat="43.45758155100652" lon="11.550656598548603"><ele>335.0</ele><time>2026-05-02T16:56:28.999Z</time></trkpt><trkpt lat="43.45764193809744" lon="11.550734203483678"><ele>335.0</ele><time>2026-05-02T16:56:29.999Z</time></trkpt><trkpt lat="43.45771631649997" lon="11.550784915301257"><ele>335.0</ele><time>2026-05-02T16:56:30.999Z</time></trkpt><trkpt lat="43.45779851886366" lon="11.550813858759813"><ele>335.0</ele><time>2026-05-02T16:56:31.999Z</time></trkpt><trkpt lat="43.45788249336966" lon="11.550837410650306"><ele>335.0</ele><time>2026-05-02T16:56:32.999Z</time></trkpt><trkpt lat="43.45796659293156" lon="11.550867983933287"><ele>335.0</ele><time>2026-05-02T16:56:33.999Z</time></trkpt><trkpt lat="43.45805239197534" lon="11.550907433698294"><ele>335.0</ele><time>2026-05-02T16:56:34.999Z</time></trkpt><trkpt lat="43.45814216352774" lon="11.550953000762975"><ele>335.0</ele><time>2026-05-02T16:56:35.999Z</time></trkpt><trkpt lat="43.4582367869925" lon="11.55100507745587"><ele>334.6</ele><time>2026-05-02T16:56:36.999Z</time></trkpt><trkpt lat="43.458334373951416" lon="11.55106206230554"><ele>334.2</ele><time>2026-05-02T16:56:37.999Z</time></trkpt><trkpt lat="43.458433329030974" lon="11.551112834909446"><ele>333.79999999999995</ele><time>2026-05-02T16:56:38.999Z</time></trkpt><trkpt lat="43.45853672751411" lon="11.551148544557382"><ele>333.4</ele><time>2026-05-02T16:56:39.999Z</time></trkpt><trkpt lat="43.458642584649525" lon="11.551168897918652"><ele>333.0</ele><time>2026-05-02T16:56:40.999Z</time></trkpt><trkpt lat="43.458751342012356" lon="11.551167728639113"><ele>330.4</ele><time>2026-05-02T16:56:41.999Z</time></trkpt><trkpt lat="43.4588590522906" lon="11.551156986565822"><ele>327.79999999999995</ele><time>2026-05-02T16:56:42.999Z</time></trkpt><trkpt lat="43.45896149201486" lon="11.551151344388424"><ele>325.2</ele><time>2026-05-02T16:56:43.999Z</time></trkpt><trkpt lat="43.45905725871914" lon="11.551154035196348"><ele>322.6</ele><time>2026-05-02T16:56:44.999Z</time></trkpt><trkpt lat="43.45914634825592" lon="11.5511811041678"><ele>320.0</ele><time>2026-05-02T16:56:45.999Z</time></trkpt><trkpt lat="43.45923405222303" lon="11.55124519399642"><ele>319.8</ele><time>2026-05-02T16:56:46.999Z</time></trkpt><trkpt lat="43.45930779522625" lon="11.551341840757372"><ele>319.6</ele><time>2026-05-02T16:56:47.999Z</time></trkpt><trkpt lat="43.45937102149856" lon="11.551451257966601"><ele>319.4</ele><time>2026-05-02T16:56:48.999Z</time></trkpt><trkpt lat="43.459430822174575" lon="11.551550994437402"><ele>319.2</ele><time>2026-05-02T16:56:49.999Z</time></trkpt><trkpt lat="43.45949229185044" lon="11.551639387491955"><ele>319.0</ele><time>2026-05-02T16:56:50.999Z</time></trkpt><trkpt lat="43.45955273190311" lon="11.551721709305147"><ele>319.0</ele><time>2026-05-02T16:56:51.999Z</time></trkpt><trkpt lat="43.45961677964885" lon="11.551792599132257"><ele>319.0</ele><time>2026-05-02T16:56:52.999Z</time></trkpt><trkpt lat="43.459688606437616" lon="11.551848906794577"><ele>319.0</ele><time>2026-05-02T16:56:53.999Z</time></trkpt><trkpt lat="43.459767496087665" lon="11.55189643624533"><ele>319.0</ele><time>2026-05-02T16:56:54.999Z</time></trkpt><trkpt lat="43.45985773705136" lon="11.551940085234715"><ele>319.0</ele><time>2026-05-02T16:56:55.999Z</time></trkpt><trkpt lat="43.459952258201035" lon="11.55199271759739"><ele>319.0</ele><time>2026-05-02T16:56:56.999Z</time></trkpt><trkpt lat="43.4600473965874" lon="11.552068426309821"><ele>318.5</ele><time>2026-05-02T16:56:57.999Z</time></trkpt><trkpt lat="43.46014070151119" lon="11.552165764875621"><ele>318.0</ele><time>2026-05-02T16:56:58.999Z</time></trkpt><trkpt lat="43.460211213265445" lon="11.552301077313993"><ele>317.5</ele><time>2026-05-02T16:56:59.999Z</time></trkpt><trkpt lat="43.46031246623863" lon="11.552404760557993"><ele>317.0</ele><time>2026-05-02T16:57:00.999Z</time></trkpt><trkpt lat="43.46041951848403" lon="11.55250947130505"><ele>318.0</ele><time>2026-05-02T16:57:01.999Z</time></trkpt><trkpt lat="43.460521237839274" lon="11.552615442617407"><ele>319.0</ele><time>2026-05-02T16:57:02.999Z</time></trkpt><trkpt lat="43.46059773073242" lon="11.5527491964222"><ele>320.0</ele><time>2026-05-02T16:57:03.999Z</time></trkpt><trkpt lat="43.46063281952502" lon="11.552921444816263"><ele>321.0</ele><time>2026-05-02T16:57:04.999Z</time></trkpt><trkpt lat="43.46065546253267" lon="11.553096734285063"><ele>321.0</ele><time>2026-05-02T16:57:05.999Z</time></trkpt><trkpt lat="43.46067731616022" lon="11.553267104471152"><ele>321.0</ele><time>2026-05-02T16:57:06.999Z</time></trkpt><trkpt lat="43.46068269453838" lon="11.553424346539607"><ele>321.0</ele><time>2026-05-02T16:57:07.999Z</time></trkpt><trkpt lat="43.46070657177691" lon="11.553567740508479"><ele>321.0</ele><time>2026-05-02T16:57:08.999Z</time></trkpt><trkpt lat="43.46074887087612" lon="11.553710043983754"><ele>319.0</ele><time>2026-05-02T16:57:09.999Z</time></trkpt><trkpt lat="43.46081813922201" lon="11.55384490033812"><ele>317.0</ele><time>2026-05-02T16:57:10.999Z</time></trkpt><trkpt lat="43.46090567424944" lon="11.553965187869025"><ele>315.0</ele><time>2026-05-02T16:57:11.999Z</time></trkpt><trkpt lat="43.46100547916534" lon="11.554081549588044"><ele>313.0</ele><time>2026-05-02T16:57:12.999Z</time></trkpt><trkpt lat="43.46110549360367" lon="11.554230724026352"><ele>313.0</ele><time>2026-05-02T16:57:13.999Z</time></trkpt><trkpt lat="43.46123040674403" lon="11.554394936279582"><ele>313.0</ele><time>2026-05-02T16:57:14.999Z</time></trkpt><trkpt lat="43.461360785999375" lon="11.554571398848903"><ele>313.0</ele><time>2026-05-02T16:57:15.999Z</time></trkpt><trkpt lat="43.46151680562495" lon="11.554722511556422"><ele>311.66666666666663</ele><time>2026-05-02T16:57:16.999Z</time></trkpt><trkpt lat="43.4616819992128" lon="11.554849096927564"><ele>310.3333333333333</ele><time>2026-05-02T16:57:17.999Z</time></trkpt><trkpt lat="43.46180699665487" lon="11.555034663625614"><ele>309.0</ele><time>2026-05-02T16:57:18.999Z</time></trkpt><trkpt lat="43.46193627600779" lon="11.555188946646703"><ele>309.0</ele><time>2026-05-02T16:57:19.999Z</time></trkpt><trkpt lat="43.46205100898355" lon="11.555336826291116"><ele>309.0</ele><time>2026-05-02T16:57:20.999Z</time></trkpt><trkpt lat="43.46218429581275" lon="11.5554563827218"><ele>309.0</ele><time>2026-05-02T16:57:21.999Z</time></trkpt><trkpt lat="43.46232438119881" lon="11.55556282631572"><ele>306.6666666666667</ele><time>2026-05-02T16:57:22.999Z</time></trkpt><trkpt lat="43.46247063326381" lon="11.555651341480964"><ele>304.33333333333337</ele><time>2026-05-02T16:57:23.999Z</time></trkpt><trkpt lat="43.462621390281505" lon="11.55571634964088"><ele>302.0</ele><time>2026-05-02T16:57:24.999Z</time></trkpt><trkpt lat="43.46277697387148" lon="11.555727162329191"><ele>302.0</ele><time>2026-05-02T16:57:25.999Z</time></trkpt><trkpt lat="43.462939198500294" lon="11.555721401874148"><ele>302.0</ele><time>2026-05-02T16:57:26.999Z</time></trkpt><trkpt lat="43.46310255241805" lon="11.555697980080588"><ele>302.0</ele><time>2026-05-02T16:57:28Z</time></trkpt><trkpt lat="43.46326949869516" lon="11.555729706929482"><ele>301.0</ele><time>2026-05-02T16:57:29Z</time></trkpt><trkpt lat="43.46343704236973" lon="11.555770725048314"><ele>300.0</ele><time>2026-05-02T16:57:30Z</time></trkpt><trkpt lat="43.46360313813922" lon="11.555811397297695"><ele>299.0</ele><time>2026-05-02T16:57:31Z</time></trkpt><trkpt lat="43.46376660245928" lon="11.55585148734978"><ele>297.6666666666667</ele><time>2026-05-02T16:57:32Z</time></trkpt><trkpt lat="43.46392709519239" lon="11.555893592002514"><ele>296.3333333333333</ele><time>2026-05-02T16:57:33Z</time></trkpt><trkpt lat="43.46408484890061" lon="11.555922730765264"><ele>295.0</ele><time>2026-05-02T16:57:34Z</time></trkpt><trkpt lat="43.46424333089599" lon="11.55592140309204"><ele>295.0</ele><time>2026-05-02T16:57:35Z</time></trkpt><trkpt lat="43.46440070706446" lon="11.555887474107159"><ele>295.0</ele><time>2026-05-02T16:57:36Z</time></trkpt><trkpt lat="43.464557721668875" lon="11.555824097321407"><ele>295.0</ele><time>2026-05-02T16:57:37Z</time></trkpt><trkpt lat="43.46471397112412" lon="11.555760801969127"><ele>295.66666666666663</ele><time>2026-05-02T16:57:38Z</time></trkpt><trkpt lat="43.46487201944234" lon="11.555748227372899"><ele>296.3333333333333</ele><time>2026-05-02T16:57:39Z</time></trkpt><trkpt lat="43.465019300690514" lon="11.555753572412444"><ele>297.0</ele><time>2026-05-02T16:57:40Z</time></trkpt><trkpt lat="43.46516452250769" lon="11.555808731396512"><ele>297.0</ele><time>2026-05-02T16:57:41Z</time></trkpt><trkpt lat="43.46532207073308" lon="11.555860237729886"><ele>297.0</ele><time>2026-05-02T16:57:42Z</time></trkpt><trkpt lat="43.46547435207522" lon="11.55594506527371"><ele>297.0</ele><time>2026-05-02T16:57:43Z</time></trkpt><trkpt lat="43.46562845853282" lon="11.556033835295068"><ele>298.6666666666667</ele><time>2026-05-02T16:57:44Z</time></trkpt><trkpt lat="43.465779330932556" lon="11.556129639597863"><ele>300.33333333333337</ele><time>2026-05-02T16:57:45Z</time></trkpt><trkpt lat="43.46592702657078" lon="11.556229257699204"><ele>302.0</ele><time>2026-05-02T16:57:46Z</time></trkpt><trkpt lat="43.466072600656766" lon="11.556328631588903"><ele>298.25</ele><time>2026-05-02T16:57:47Z</time></trkpt><trkpt lat="43.4662094408463" lon="11.556423927172332"><ele>294.5</ele><time>2026-05-02T16:57:48Z</time></trkpt><trkpt lat="43.46634167297826" lon="11.556502969931932"><ele>290.75</ele><time>2026-05-02T16:57:49Z</time></trkpt><trkpt lat="43.46648393324784" lon="11.556556978395069"><ele>287.0</ele><time>2026-05-02T16:57:50Z</time></trkpt><trkpt lat="43.46663457669384" lon="11.556594575530909"><ele>286.33333333333337</ele><time>2026-05-02T16:57:51Z</time></trkpt><trkpt lat="43.46678791448474" lon="11.556620590506133"><ele>285.6666666666667</ele><time>2026-05-02T16:57:52Z</time></trkpt><trkpt lat="43.46694348657111" lon="11.55660873389698"><ele>285.0</ele><time>2026-05-02T16:57:53Z</time></trkpt><trkpt lat="43.467103597010436" lon="11.556559663337787"><ele>284.6666666666667</ele><time>2026-05-02T16:57:54Z</time></trkpt><trkpt lat="43.46727149645084" lon="11.556494274974458"><ele>284.33333333333337</ele><time>2026-05-02T16:57:55Z</time></trkpt><trkpt lat="43.46744631486322" lon="11.55643264889995"><ele>284.0</ele><time>2026-05-02T16:57:56Z</time></trkpt><trkpt lat="43.467626629115706" lon="11.556372954379736"><ele>284.0</ele><time>2026-05-02T16:57:57Z</time></trkpt><trkpt lat="43.467806872562456" lon="11.55631719515647"><ele>284.0</ele><time>2026-05-02T16:57:58Z</time></trkpt><trkpt lat="43.467993851564984" lon="11.55625774076421"><ele>284.0</ele><time>2026-05-02T16:57:59Z</time></trkpt><trkpt lat="43.46818982800531" lon="11.55619786474407"><ele>284.6666666666667</ele><time>2026-05-02T16:58:00Z</time></trkpt><trkpt lat="43.46839134082083" lon="11.556132602761332"><ele>285.3333333333333</ele><time>2026-05-02T16:58:01Z</time></trkpt><trkpt lat="43.46859321564057" lon="11.556064363918052"><ele>286.0</ele><time>2026-05-02T16:58:02Z</time></trkpt><trkpt lat="43.46879488579867" lon="11.556021743660795"><ele>286.0</ele><time>2026-05-02T16:58:03Z</time></trkpt><trkpt lat="43.468989700965196" lon="11.555958889985105"><ele>286.0</ele><time>2026-05-02T16:58:04Z</time></trkpt><trkpt lat="43.469180458241915" lon="11.555899806771205"><ele>286.0</ele><time>2026-05-02T16:58:05Z</time></trkpt><trkpt lat="43.46937148289644" lon="11.555827740794996"><ele>286.0</ele><time>2026-05-02T16:58:06Z</time></trkpt><trkpt lat="43.4695708064573" lon="11.555797328052648"><ele>286.0</ele><time>2026-05-02T16:58:07Z</time></trkpt><trkpt lat="43.46977340864882" lon="11.555766475714401"><ele>286.0</ele><time>2026-05-02T16:58:08Z</time></trkpt><trkpt lat="43.4699760395328" lon="11.555757362315385"><ele>284.3333333333333</ele><time>2026-05-02T16:58:09Z</time></trkpt><trkpt lat="43.470167355935985" lon="11.555726273119646"><ele>282.6666666666667</ele><time>2026-05-02T16:58:10Z</time></trkpt><trkpt lat="43.47034483015484" lon="11.555681856621417"><ele>281.0</ele><time>2026-05-02T16:58:11Z</time></trkpt><trkpt lat="43.47051389675945" lon="11.555687786456476"><ele>279.0</ele><time>2026-05-02T16:58:12Z</time></trkpt><trkpt lat="43.47068238958091" lon="11.555728133695988"><ele>277.0</ele><time>2026-05-02T16:58:13Z</time></trkpt><trkpt lat="43.4708472663623" lon="11.555804261755165"><ele>275.0</ele><time>2026-05-02T16:58:14Z</time></trkpt><trkpt lat="43.47099536331575" lon="11.555936525589356"><ele>275.0</ele><time>2026-05-02T16:58:15Z</time></trkpt><trkpt lat="43.47115791531273" lon="11.556071263162446"><ele>275.0</ele><time>2026-05-02T16:58:16Z</time></trkpt><trkpt lat="43.47132163310849" lon="11.556249878732878"><ele>275.0</ele><time>2026-05-02T16:58:17Z</time></trkpt><trkpt lat="43.47148564758315" lon="11.556431631812735"><ele>275.0</ele><time>2026-05-02T16:58:18Z</time></trkpt><trkpt lat="43.47165204435894" lon="11.556614624446869"><ele>275.0</ele><time>2026-05-02T16:58:19Z</time></trkpt><trkpt lat="43.47181850506543" lon="11.556794726419074"><ele>275.0</ele><time>2026-05-02T16:58:20Z</time></trkpt><trkpt lat="43.47198100929788" lon="11.556969098904155"><ele>273.6666666666667</ele><time>2026-05-02T16:58:21Z</time></trkpt><trkpt lat="43.472132877350994" lon="11.557134420657942"><ele>272.3333333333333</ele><time>2026-05-02T16:58:22Z</time></trkpt><trkpt lat="43.47227883199527" lon="11.557291352096149"><ele>271.0</ele><time>2026-05-02T16:58:23Z</time></trkpt><trkpt lat="43.47243752454176" lon="11.557438826438927"><ele>271.0</ele><time>2026-05-02T16:58:23.999Z</time></trkpt><trkpt lat="43.47260618810316" lon="11.557568137657354"><ele>271.0</ele><time>2026-05-02T16:58:24.999Z</time></trkpt><trkpt lat="43.47277915465618" lon="11.557686719267382"><ele>271.0</ele><time>2026-05-02T16:58:25.999Z</time></trkpt><trkpt lat="43.472942912463104" lon="11.557795063698219"><ele>271.0</ele><time>2026-05-02T16:58:26.999Z</time></trkpt><trkpt lat="43.473088741078314" lon="11.557890891280989"><ele>271.0</ele><time>2026-05-02T16:58:27.999Z</time></trkpt><trkpt lat="43.473237057708694" lon="11.557964177477768"><ele>271.0</ele><time>2026-05-02T16:58:28.999Z</time></trkpt><trkpt lat="43.47339723080698" lon="11.557982781564498"><ele>271.0</ele><time>2026-05-02T16:58:29.999Z</time></trkpt><trkpt lat="43.4735687124795" lon="11.557975751869133"><ele>271.0</ele><time>2026-05-02T16:58:30.999Z</time></trkpt><trkpt lat="43.47374807779992" lon="11.557969682972626"><ele>271.0</ele><time>2026-05-02T16:58:31.999Z</time></trkpt><trkpt lat="43.47392685804302" lon="11.557978771889134"><ele>271.3333333333333</ele><time>2026-05-02T16:58:32.999Z</time></trkpt><trkpt lat="43.474101946811146" lon="11.557981704796592"><ele>271.6666666666667</ele><time>2026-05-02T16:58:33.999Z</time></trkpt><trkpt lat="43.47426908633062" lon="11.557980531518286"><ele>272.0</ele><time>2026-05-02T16:58:34.999Z</time></trkpt><trkpt lat="43.474438105655764" lon="11.558000861247498"><ele>272.0</ele><time>2026-05-02T16:58:35.999Z</time></trkpt><trkpt lat="43.47460375152365" lon="11.558066279114083"><ele>272.0</ele><time>2026-05-02T16:58:36.999Z</time></trkpt><trkpt lat="43.474761594048196" lon="11.558182371293007"><ele>272.0</ele><time>2026-05-02T16:58:37.999Z</time></trkpt><trkpt lat="43.4749275994108" lon="11.558307307976435"><ele>270.6666666666667</ele><time>2026-05-02T16:58:38.999Z</time></trkpt><trkpt lat="43.47510492763773" lon="11.558434375238662"><ele>269.3333333333333</ele><time>2026-05-02T16:58:39.999Z</time></trkpt><trkpt lat="43.47528586004973" lon="11.558563410096689"><ele>268.0</ele><time>2026-05-02T16:58:40.999Z</time></trkpt><trkpt lat="43.475467637458976" lon="11.558690837938462"><ele>266.3333333333333</ele><time>2026-05-02T16:58:41.999Z</time></trkpt><trkpt lat="43.47564653861546" lon="11.558814571770903"><ele>264.6666666666667</ele><time>2026-05-02T16:58:42.999Z</time></trkpt><trkpt lat="43.47581893194552" lon="11.55893443110344"><ele>263.0</ele><time>2026-05-02T16:58:43.999Z</time></trkpt><trkpt lat="43.4759924322257" lon="11.55905223252618"><ele>263.0</ele><time>2026-05-02T16:58:44.999Z</time></trkpt><trkpt lat="43.47616589113924" lon="11.559171446570145"><ele>263.0</ele><time>2026-05-02T16:58:45.999Z</time></trkpt><trkpt lat="43.476333055300444" lon="11.559291014267613"><ele>263.0</ele><time>2026-05-02T16:58:46.999Z</time></trkpt><trkpt lat="43.47649090451879" lon="11.559409061736877"><ele>262.6666666666667</ele><time>2026-05-02T16:58:47.999Z</time></trkpt><trkpt lat="43.476632583321994" lon="11.55953655360352"><ele>262.3333333333333</ele><time>2026-05-02T16:58:48.999Z</time></trkpt><trkpt lat="43.47675793917305" lon="11.559676689927494"><ele>262.0</ele><time>2026-05-02T16:58:49.999Z</time></trkpt><trkpt lat="43.47686800598447" lon="11.55982382016153"><ele>262.0</ele><time>2026-05-02T16:58:50.999Z</time></trkpt><trkpt lat="43.47696771160867" lon="11.55997263947749"><ele>262.0</ele><time>2026-05-02T16:58:51.999Z</time></trkpt><trkpt lat="43.47704233068105" lon="11.560136303184011"><ele>262.0</ele><time>2026-05-02T16:58:52.999Z</time></trkpt><trkpt lat="43.47713720306725" lon="11.560259754368376"><ele>262.0</ele><time>2026-05-02T16:58:53.999Z</time></trkpt><trkpt lat="43.47721311688644" lon="11.560383744714569"><ele>262.0</ele><time>2026-05-02T16:58:54.999Z</time></trkpt><trkpt lat="43.477281212194136" lon="11.560487155333487"><ele>262.0</ele><time>2026-05-02T16:58:55.999Z</time></trkpt><trkpt lat="43.47733774290384" lon="11.560591598397421"><ele>262.0</ele><time>2026-05-02T16:58:56.999Z</time></trkpt><trkpt lat="43.47736813668797" lon="11.56071149791477"><ele>262.0</ele><time>2026-05-02T16:58:57.999Z</time></trkpt><trkpt lat="43.477375301252145" lon="11.560844686749295"><ele>262.0</ele><time>2026-05-02T16:58:58.999Z</time></trkpt><trkpt lat="43.47732637495332" lon="11.56097036384625"><ele>262.0</ele><time>2026-05-02T16:58:59.999Z</time></trkpt><trkpt lat="43.477284767333686" lon="11.561121679749014"><ele>262.0</ele><time>2026-05-02T16:59:00.999Z</time></trkpt><trkpt lat="43.47724196139393" lon="11.561290638576288"><ele>262.0</ele><time>2026-05-02T16:59:01.999Z</time></trkpt><trkpt lat="43.47720417023976" lon="11.56147997534949"><ele>262.0</ele><time>2026-05-02T16:59:02.999Z</time></trkpt><trkpt lat="43.477175727385905" lon="11.561679315658951"><ele>262.0</ele><time>2026-05-02T16:59:03.999Z</time></trkpt><trkpt lat="43.47715013277942" lon="11.561889384255922"><ele>262.0</ele><time>2026-05-02T16:59:04.999Z</time></trkpt><trkpt lat="43.47714606509532" lon="11.562115698618436"><ele>262.0</ele><time>2026-05-02T16:59:05.999Z</time></trkpt><trkpt lat="43.477171754159734" lon="11.562352492201626"><ele>262.0</ele><time>2026-05-02T16:59:06.999Z</time></trkpt><trkpt lat="43.47718111185839" lon="11.562601359939714"><ele>262.0</ele><time>2026-05-02T16:59:07.999Z</time></trkpt><trkpt lat="43.47723299460096" lon="11.562841970444522"><ele>262.0</ele><time>2026-05-02T16:59:08.999Z</time></trkpt><trkpt lat="43.47731561593842" lon="11.563063510095452"><ele>262.66666666666663</ele><time>2026-05-02T16:59:09.999Z</time></trkpt><trkpt lat="43.47737224513742" lon="11.563306429464365"><ele>263.3333333333333</ele><time>2026-05-02T16:59:10.999Z</time></trkpt><trkpt lat="43.47744639598566" lon="11.563545562891616"><ele>264.0</ele><time>2026-05-02T16:59:11.999Z</time></trkpt><trkpt lat="43.47753556287825" lon="11.56377647758588"><ele>266.0</ele><time>2026-05-02T16:59:12.999Z</time></trkpt><trkpt lat="43.477610581019135" lon="11.56401810290885"><ele>268.0</ele><time>2026-05-02T16:59:13.999Z</time></trkpt><trkpt lat="43.47768776904636" lon="11.564258021980727"><ele>270.0</ele><time>2026-05-02T16:59:14.999Z</time></trkpt><trkpt lat="43.47776627547809" lon="11.564492768697182"><ele>271.3333333333333</ele><time>2026-05-02T16:59:15.999Z</time></trkpt><trkpt lat="43.47782998496342" lon="11.56472812832605"><ele>272.66666666666663</ele><time>2026-05-02T16:59:16.999Z</time></trkpt><trkpt lat="43.47790849831566" lon="11.564947545126635"><ele>274.0</ele><time>2026-05-02T16:59:17.999Z</time></trkpt><trkpt lat="43.47800287245191" lon="11.565143866101854"><ele>272.66666666666663</ele><time>2026-05-02T16:59:18.999Z</time></trkpt><trkpt lat="43.478081408820984" lon="11.565342629322071"><ele>271.3333333333333</ele><time>2026-05-02T16:59:19.999Z</time></trkpt><trkpt lat="43.47815754346254" lon="11.56553638693852"><ele>270.0</ele><time>2026-05-02T16:59:20.999Z</time></trkpt><trkpt lat="43.478227241763264" lon="11.565725911647737"><ele>270.0</ele><time>2026-05-02T16:59:21.999Z</time></trkpt><trkpt lat="43.478298467925754" lon="11.56591162050264"><ele>270.0</ele><time>2026-05-02T16:59:22.999Z</time></trkpt><trkpt lat="43.4783720213882" lon="11.56609453511195"><ele>270.0</ele><time>2026-05-02T16:59:23.999Z</time></trkpt><trkpt lat="43.47843944256629" lon="11.566278948295642"><ele>270.75</ele><time>2026-05-02T16:59:24.999Z</time></trkpt><trkpt lat="43.47850132896577" lon="11.56646474773337"><ele>271.5</ele><time>2026-05-02T16:59:25.999Z</time></trkpt><trkpt lat="43.478559173079255" lon="11.566655811065957"><ele>272.25</ele><time>2026-05-02T16:59:26.999Z</time></trkpt><trkpt lat="43.47860796587211" lon="11.566852638968678"><ele>273.0</ele><time>2026-05-02T16:59:27.999Z</time></trkpt><trkpt lat="43.47862930439595" lon="11.567061119498193"><ele>273.6666666666667</ele><time>2026-05-02T16:59:28.999Z</time></trkpt><trkpt lat="43.47865828480515" lon="11.567266095519647"><ele>274.33333333333337</ele><time>2026-05-02T16:59:29.999Z</time></trkpt><trkpt lat="43.478679045205695" lon="11.567469807503429"><ele>275.0</ele><time>2026-05-02T16:59:30.999Z</time></trkpt><trkpt lat="43.478706359760785" lon="11.567680838867366"><ele>274.6666666666667</ele><time>2026-05-02T16:59:31.999Z</time></trkpt><trkpt lat="43.47868966366297" lon="11.567899643102413"><ele>274.3333333333333</ele><time>2026-05-02T16:59:32.999Z</time></trkpt><trkpt lat="43.478683267713016" lon="11.568115332580206"><ele>274.0</ele><time>2026-05-02T16:59:34Z</time></trkpt><trkpt lat="43.47867451962124" lon="11.56833189409928"><ele>274.0</ele><time>2026-05-02T16:59:35Z</time></trkpt><trkpt lat="43.47866440509032" lon="11.568554992526106"><ele>274.0</ele><time>2026-05-02T16:59:36Z</time></trkpt><trkpt lat="43.478652862120654" lon="11.5687850948454"><ele>274.0</ele><time>2026-05-02T16:59:37Z</time></trkpt><trkpt lat="43.47864049610007" lon="11.569025376885774"><ele>273.3333333333333</ele><time>2026-05-02T16:59:38Z</time></trkpt><trkpt lat="43.478627742183484" lon="11.569273196049755"><ele>272.6666666666667</ele><time>2026-05-02T16:59:39Z</time></trkpt><trkpt lat="43.478614809105" lon="11.569524496499712"><ele>272.0</ele><time>2026-05-02T16:59:40Z</time></trkpt><trkpt lat="43.47860214241538" lon="11.56977882864938"><ele>271.33333333333337</ele><time>2026-05-02T16:59:41Z</time></trkpt><trkpt lat="43.47859001971302" lon="11.570037508060691"><ele>270.6666666666667</ele><time>2026-05-02T16:59:42Z</time></trkpt><trkpt lat="43.47857121796927" lon="11.570295199265429"><ele>270.0</ele><time>2026-05-02T16:59:43Z</time></trkpt><trkpt lat="43.478539621096346" lon="11.570549980858884"><ele>270.0</ele><time>2026-05-02T16:59:44Z</time></trkpt><trkpt lat="43.4784960048053" lon="11.57080743141124"><ele>270.0</ele><time>2026-05-02T16:59:45Z</time></trkpt><trkpt lat="43.478440310845876" lon="11.57106310983175"><ele>270.0</ele><time>2026-05-02T16:59:46Z</time></trkpt><trkpt lat="43.47838545323859" lon="11.571324608694603"><ele>268.6666666666667</ele><time>2026-05-02T16:59:47Z</time></trkpt><trkpt lat="43.478305062187665" lon="11.571576664454197"><ele>267.33333333333337</ele><time>2026-05-02T16:59:48Z</time></trkpt><trkpt lat="43.478203637262006" lon="11.571817583932102"><ele>266.0</ele><time>2026-05-02T16:59:49Z</time></trkpt><trkpt lat="43.478111237383196" lon="11.57206738603144"><ele>266.0</ele><time>2026-05-02T16:59:50Z</time></trkpt><trkpt lat="43.478021288297086" lon="11.572318748623564"><ele>266.0</ele><time>2026-05-02T16:59:51Z</time></trkpt><trkpt lat="43.477932056994185" lon="11.57256810540334"><ele>266.0</ele><time>2026-05-02T16:59:52Z</time></trkpt><trkpt lat="43.477842766085686" lon="11.572817628602646"><ele>266.0</ele><time>2026-05-02T16:59:53Z</time></trkpt><trkpt lat="43.477755082936454" lon="11.573064020506555"><ele>266.0</ele><time>2026-05-02T16:59:54Z</time></trkpt><trkpt lat="43.477668936016066" lon="11.573307919121095"><ele>266.0</ele><time>2026-05-02T16:59:55Z</time></trkpt><trkpt lat="43.477584362943524" lon="11.573551101047112"><ele>266.0</ele><time>2026-05-02T16:59:56Z</time></trkpt><trkpt lat="43.4775075467516" lon="11.573799103118839"><ele>266.0</ele><time>2026-05-02T16:59:57Z</time></trkpt><trkpt lat="43.47745462342775" lon="11.574055946925148"><ele>266.0</ele><time>2026-05-02T16:59:58Z</time></trkpt><trkpt lat="43.477421751050386" lon="11.574319656960006"><ele>266.0</ele><time>2026-05-02T16:59:59Z</time></trkpt><trkpt lat="43.477426350707006" lon="11.574584864051126"><ele>266.0</ele><time>2026-05-02T17:00:00Z</time></trkpt><trkpt lat="43.47742982891292" lon="11.574851112334677"><ele>266.0</ele><time>2026-05-02T17:00:01Z</time></trkpt><trkpt lat="43.47741996907674" lon="11.575118459379235"><ele>267.0</ele><time>2026-05-02T17:00:02Z</time></trkpt><trkpt lat="43.477427374375374" lon="11.575383431087504"><ele>268.0</ele><time>2026-05-02T17:00:03Z</time></trkpt><trkpt lat="43.47743536658856" lon="11.575644510076415"><ele>269.0</ele><time>2026-05-02T17:00:04Z</time></trkpt><trkpt lat="43.477443300386604" lon="11.575906012850938"><ele>269.0</ele><time>2026-05-02T17:00:05Z</time></trkpt><trkpt lat="43.47746444391498" lon="11.576160494061758"><ele>269.0</ele><time>2026-05-02T17:00:06Z</time></trkpt><trkpt lat="43.47745850487889" lon="11.57641384752407"><ele>269.0</ele><time>2026-05-02T17:00:07Z</time></trkpt><trkpt lat="43.47744289115032" lon="11.576665911366554"><ele>269.33333333333337</ele><time>2026-05-02T17:00:08Z</time></trkpt><trkpt lat="43.47741134959388" lon="11.576915974417783"><ele>269.6666666666667</ele><time>2026-05-02T17:00:09Z</time></trkpt><trkpt lat="43.47736566029991" lon="11.577167118452726"><ele>270.0</ele><time>2026-05-02T17:00:10Z</time></trkpt><trkpt lat="43.477310702105946" lon="11.577415481404115"><ele>270.0</ele><time>2026-05-02T17:00:11Z</time></trkpt><trkpt lat="43.47724603444464" lon="11.577666371549237"><ele>270.0</ele><time>2026-05-02T17:00:12Z</time></trkpt><trkpt lat="43.47715271059334" lon="11.577902206938374"><ele>270.0</ele><time>2026-05-02T17:00:13Z</time></trkpt><trkpt lat="43.47706063209328" lon="11.578140119383864"><ele>270.0</ele><time>2026-05-02T17:00:14Z</time></trkpt><trkpt lat="43.47695807181879" lon="11.578365876808807"><ele>270.0</ele><time>2026-05-02T17:00:15Z</time></trkpt><trkpt lat="43.47685552988013" lon="11.578590818147994"><ele>270.0</ele><time>2026-05-02T17:00:16Z</time></trkpt><trkpt lat="43.476753286794995" lon="11.578813557251141"><ele>269.3333333333333</ele><time>2026-05-02T17:00:17Z</time></trkpt><trkpt lat="43.47665099451475" lon="11.579035038506925"><ele>268.66666666666663</ele><time>2026-05-02T17:00:18Z</time></trkpt><trkpt lat="43.47655188206445" lon="11.579249961491131"><ele>268.0</ele><time>2026-05-02T17:00:19Z</time></trkpt><trkpt lat="43.47645677768174" lon="11.579461229681346"><ele>268.3333333333333</ele><time>2026-05-02T17:00:20Z</time></trkpt><trkpt lat="43.47636005475837" lon="11.579673029740297"><ele>268.6666666666667</ele><time>2026-05-02T17:00:21Z</time></trkpt><trkpt lat="43.47626173027819" lon="11.5798821851154"><ele>269.0</ele><time>2026-05-02T17:00:22Z</time></trkpt><trkpt lat="43.476165301521405" lon="11.58008731051612"><ele>269.0</ele><time>2026-05-02T17:00:23Z</time></trkpt><trkpt lat="43.476071919826055" lon="11.580289614432417"><ele>269.0</ele><time>2026-05-02T17:00:23.999Z</time></trkpt><trkpt lat="43.47598105068417" lon="11.58048881233919"><ele>269.0</ele><time>2026-05-02T17:00:24.999Z</time></trkpt><trkpt lat="43.475904084892136" lon="11.580701073708447"><ele>269.0</ele><time>2026-05-02T17:00:25.999Z</time></trkpt><trkpt lat="43.47581387205553" lon="11.580897306811316"><ele>269.0</ele><time>2026-05-02T17:00:26.999Z</time></trkpt><trkpt lat="43.475726828063735" lon="11.58108950028515"><ele>269.0</ele><time>2026-05-02T17:00:27.999Z</time></trkpt><trkpt lat="43.47564172630724" lon="11.581277943792776"><ele>268.33333333333337</ele><time>2026-05-02T17:00:28.999Z</time></trkpt><trkpt lat="43.475541727490196" lon="11.581450799793194"><ele>267.6666666666667</ele><time>2026-05-02T17:00:29.999Z</time></trkpt><trkpt lat="43.475458423252576" lon="11.581632590509477"><ele>267.0</ele><time>2026-05-02T17:00:30.999Z</time></trkpt><trkpt lat="43.47537560089571" lon="11.58181332960586"><ele>268.3333333333333</ele><time>2026-05-02T17:00:31.999Z</time></trkpt><trkpt lat="43.475292552337585" lon="11.581994562364137"><ele>269.66666666666663</ele><time>2026-05-02T17:00:32.999Z</time></trkpt><trkpt lat="43.475209472478916" lon="11.58217588331345"><ele>271.0</ele><time>2026-05-02T17:00:33.999Z</time></trkpt><trkpt lat="43.47512745887947" lon="11.582355378942447"><ele>271.0</ele><time>2026-05-02T17:00:34.999Z</time></trkpt><trkpt lat="43.475046488841656" lon="11.582532590578385"><ele>271.0</ele><time>2026-05-02T17:00:35.999Z</time></trkpt><trkpt lat="43.47496539525504" lon="11.58271007267075"><ele>271.0</ele><time>2026-05-02T17:00:36.999Z</time></trkpt><trkpt lat="43.47488477931093" lon="11.582886509355793"><ele>270.0</ele><time>2026-05-02T17:00:37.999Z</time></trkpt><trkpt lat="43.474804269564665" lon="11.583062713622624"><ele>269.0</ele><time>2026-05-02T17:00:38.999Z</time></trkpt><trkpt lat="43.47472388297093" lon="11.5832386483698"><ele>268.0</ele><time>2026-05-02T17:00:39.999Z</time></trkpt><trkpt lat="43.4746447049253" lon="11.583411938062953"><ele>268.25</ele><time>2026-05-02T17:00:40.999Z</time></trkpt><trkpt lat="43.474566865801506" lon="11.58358229738364"><ele>268.5</ele><time>2026-05-02T17:00:41.999Z</time></trkpt><trkpt lat="43.474503472254064" lon="11.583760358903925"><ele>268.75</ele><time>2026-05-02T17:00:42.999Z</time></trkpt><trkpt lat="43.47442822644546" lon="11.583923010890375"><ele>269.0</ele><time>2026-05-02T17:00:43.999Z</time></trkpt><trkpt lat="43.47435150513959" lon="11.584086621804621"><ele>269.0</ele><time>2026-05-02T17:00:44.999Z</time></trkpt><trkpt lat="43.474272560965396" lon="11.584237876014639"><ele>269.0</ele><time>2026-05-02T17:00:45.999Z</time></trkpt><trkpt lat="43.47420527790383" lon="11.584403994766173"><ele>269.0</ele><time>2026-05-02T17:00:46.999Z</time></trkpt><trkpt lat="43.47414043902318" lon="11.58457386178233"><ele>269.0</ele><time>2026-05-02T17:00:47.999Z</time></trkpt><trkpt lat="43.47407765377203" lon="11.584747398785106"><ele>268.75</ele><time>2026-05-02T17:00:48.999Z</time></trkpt><trkpt lat="43.47401659560044" lon="11.584922761273353"><ele>268.5</ele><time>2026-05-02T17:00:49.999Z</time></trkpt><trkpt lat="43.4739566133183" lon="11.585097107904101"><ele>268.25</ele><time>2026-05-02T17:00:50.999Z</time></trkpt><trkpt lat="43.47389818291967" lon="11.585271006877946"><ele>268.0</ele><time>2026-05-02T17:00:51.999Z</time></trkpt><trkpt lat="43.47383966754933" lon="11.585445158739006"><ele>268.5</ele><time>2026-05-02T17:00:52.999Z</time></trkpt><trkpt lat="43.47378218873865" lon="11.585618845909785"><ele>269.0</ele><time>2026-05-02T17:00:53.999Z</time></trkpt><trkpt lat="43.473725487465" lon="11.585790620309421"><ele>269.5</ele><time>2026-05-02T17:00:54.999Z</time></trkpt><trkpt lat="43.47367003057432" lon="11.585963158989593"><ele>270.0</ele><time>2026-05-02T17:00:55.999Z</time></trkpt><trkpt lat="43.47361484287631" lon="11.586135427134245"><ele>270.25</ele><time>2026-05-02T17:00:56.999Z</time></trkpt><trkpt lat="43.4735728874096" lon="11.58631614419625"><ele>270.5</ele><time>2026-05-02T17:00:57.999Z</time></trkpt><trkpt lat="43.473500386410365" lon="11.586478536208713"><ele>270.75</ele><time>2026-05-02T17:00:58.999Z</time></trkpt><trkpt lat="43.47344235736289" lon="11.586650636598327"><ele>271.0</ele><time>2026-05-02T17:00:59.999Z</time></trkpt><trkpt lat="43.473384447467275" lon="11.586823936954788"><ele>271.0</ele><time>2026-05-02T17:01:00.999Z</time></trkpt><trkpt lat="43.47332643011661" lon="11.586998715266503"><ele>271.0</ele><time>2026-05-02T17:01:01.999Z</time></trkpt><trkpt lat="43.47326825390403" lon="11.587173972197657"><ele>271.0</ele><time>2026-05-02T17:01:02.999Z</time></trkpt><trkpt lat="43.47321010079725" lon="11.587349159510401"><ele>271.0</ele><time>2026-05-02T17:01:03.999Z</time></trkpt><trkpt lat="43.47315203964811" lon="11.587524069784553"><ele>270.5</ele><time>2026-05-02T17:01:04.999Z</time></trkpt><trkpt lat="43.47311127231885" lon="11.587709576207281"><ele>270.0</ele><time>2026-05-02T17:01:05.999Z</time></trkpt><trkpt lat="43.47304309131112" lon="11.587879373615863"><ele>269.5</ele><time>2026-05-02T17:01:06.999Z</time></trkpt><trkpt lat="43.472997738350806" lon="11.588062972922248"><ele>269.0</ele><time>2026-05-02T17:01:07.999Z</time></trkpt><trkpt lat="43.47296311701204" lon="11.588249240104515"><ele>268.75</ele><time>2026-05-02T17:01:08.999Z</time></trkpt><trkpt lat="43.47293753652674" lon="11.588438383028947"><ele>268.5</ele><time>2026-05-02T17:01:09.999Z</time></trkpt><trkpt lat="43.47291855852983" lon="11.588628879926391"><ele>268.25</ele><time>2026-05-02T17:01:10.999Z</time></trkpt><trkpt lat="43.47292364405853" lon="11.588823176081254"><ele>268.0</ele><time>2026-05-02T17:01:11.999Z</time></trkpt><trkpt lat="43.47292282458281" lon="11.58901673962618"><ele>267.75</ele><time>2026-05-02T17:01:12.999Z</time></trkpt><trkpt lat="43.472915135348" lon="11.589213726665351"><ele>267.5</ele><time>2026-05-02T17:01:13.999Z</time></trkpt><trkpt lat="43.47293066049005" lon="11.58940944485418"><ele>267.25</ele><time>2026-05-02T17:01:14.999Z</time></trkpt><trkpt lat="43.472947890401585" lon="11.589603652769865"><ele>267.0</ele><time>2026-05-02T17:01:15.999Z</time></trkpt><trkpt lat="43.47296515061725" lon="11.589798202394128"><ele>267.0</ele><time>2026-05-02T17:01:16.999Z</time></trkpt><trkpt lat="43.47298292039626" lon="11.589993054944035"><ele>267.0</ele><time>2026-05-02T17:01:17.999Z</time></trkpt><trkpt lat="43.473000904931" lon="11.590185514512493"><ele>267.0</ele><time>2026-05-02T17:01:18.999Z</time></trkpt><trkpt lat="43.4730187409769" lon="11.590376385113936"><ele>267.0</ele><time>2026-05-02T17:01:19.999Z</time></trkpt><trkpt lat="43.47303641923934" lon="11.59056556722335"><ele>266.5</ele><time>2026-05-02T17:01:20.999Z</time></trkpt><trkpt lat="43.473055088359565" lon="11.590755772574129"><ele>266.0</ele><time>2026-05-02T17:01:21.999Z</time></trkpt><trkpt lat="43.47308854681822" lon="11.590941190844243"><ele>265.5</ele><time>2026-05-02T17:01:22.999Z</time></trkpt><trkpt lat="43.473105946259004" lon="11.591129350785776"><ele>265.0</ele><time>2026-05-02T17:01:23.999Z</time></trkpt><trkpt lat="43.4731063819761" lon="11.591320292753664"><ele>264.25</ele><time>2026-05-02T17:01:24.999Z</time></trkpt><trkpt lat="43.47312327456014" lon="11.59151052036012"><ele>263.5</ele><time>2026-05-02T17:01:25.999Z</time></trkpt><trkpt lat="43.47314022856665" lon="11.591701439749503"><ele>262.75</ele><time>2026-05-02T17:01:26.999Z</time></trkpt><trkpt lat="43.47315728710178" lon="11.591893534906236"><ele>262.0</ele><time>2026-05-02T17:01:27.999Z</time></trkpt><trkpt lat="43.47317541904347" lon="11.59208560424689"><ele>261.25</ele><time>2026-05-02T17:01:28.999Z</time></trkpt><trkpt lat="43.47319361787191" lon="11.592279538825755"><ele>260.5</ele><time>2026-05-02T17:01:29.999Z</time></trkpt><trkpt lat="43.473211980806525" lon="11.592475222261887"><ele>259.75</ele><time>2026-05-02T17:01:30.999Z</time></trkpt><trkpt lat="43.473230238124444" lon="11.592669780211361"><ele>259.0</ele><time>2026-05-02T17:01:31.999Z</time></trkpt><trkpt lat="43.47324808222828" lon="11.592861668645854"><ele>258.8</ele><time>2026-05-02T17:01:32.999Z</time></trkpt><trkpt lat="43.47326325664703" lon="11.59302666303179"><ele>258.59999999999997</ele><time>2026-05-02T17:01:33.999Z</time></trkpt><trkpt lat="43.47327628034592" lon="11.593168272246931"><ele>258.4</ele><time>2026-05-02T17:01:34.999Z</time></trkpt><trkpt lat="43.473286337791244" lon="11.593277628824344"><ele>258.2</ele><time>2026-05-02T17:01:35.999Z</time></trkpt><trkpt lat="43.4732993738585" lon="11.593419372293871"><ele>258.0</ele><time>2026-05-02T17:01:37.999Z</time></trkpt><trkpt lat="43.47342150799371" lon="11.593444525881104"><ele>258.0</ele><time>2026-05-02T17:01:40Z</time></trkpt><trkpt lat="43.473487669318644" lon="11.593422917765006"><ele>258.0</ele><time>2026-05-02T17:01:41Z</time></trkpt><trkpt lat="43.47355065485845" lon="11.593400354617131"><ele>258.0</ele><time>2026-05-02T17:01:42Z</time></trkpt><trkpt lat="43.473681806446834" lon="11.593351133220494"><ele>258.0</ele><time>2026-05-02T17:01:44Z</time></trkpt><trkpt lat="43.473748368258974" lon="11.593325232153408"><ele>258.0</ele><time>2026-05-02T17:01:45Z</time></trkpt><trkpt lat="43.473860776076606" lon="11.593276431250512"><ele>258.0</ele><time>2026-05-02T17:01:47Z</time></trkpt><trkpt lat="43.473951950944716" lon="11.593242621527201"><ele>258.0</ele><time>2026-05-02T17:01:49Z</time></trkpt><trkpt lat="43.474011498018555" lon="11.593140156755995"><ele>258.0</ele><time>2026-05-02T17:01:51Z</time></trkpt><trkpt lat="43.47403890457936" lon="11.593011165689074"><ele>258.0</ele><time>2026-05-02T17:01:53Z</time></trkpt><trkpt lat="43.47410535793652" lon="11.592886843718214"><ele>258.0</ele><time>2026-05-02T17:01:55Z</time></trkpt><trkpt lat="43.47417302836392" lon="11.592787269596213"><ele>258.4</ele><time>2026-05-02T17:01:57Z</time></trkpt><trkpt lat="43.47417606402234" lon="11.592628736325329"><ele>258.8</ele><time>2026-05-02T17:01:59Z</time></trkpt><trkpt lat="43.47417741890054" lon="11.592491321507724"><ele>259.2</ele><time>2026-05-02T17:02:01Z</time></trkpt><trkpt lat="43.474241863590606" lon="11.592431160052362"><ele>259.6</ele><time>2026-05-02T17:02:03Z</time></trkpt><trkpt lat="43.474341380566194" lon="11.592426644529233"><ele>260.0</ele><time>2026-05-02T17:02:05Z</time></trkpt><trkpt lat="43.47445120922689" lon="11.592411668836286"><ele>260.0</ele><time>2026-05-02T17:02:07Z</time></trkpt><trkpt lat="43.47455229889518" lon="11.59239323866497"><ele>260.0</ele><time>2026-05-02T17:02:09Z</time></trkpt><trkpt lat="43.47462039182501" lon="11.592374877874226"><ele>260.0</ele><time>2026-05-02T17:02:11Z</time></trkpt><trkpt lat="43.47468928342666" lon="11.592351883168147"><ele>260.0</ele><time>2026-05-02T17:02:47.999Z</time></trkpt><trkpt lat="43.47478705670072" lon="11.592295216483976"><ele>260.0</ele><time>2026-05-02T17:02:49.999Z</time></trkpt><trkpt lat="43.47484683782495" lon="11.592249040441706"><ele>260.0</ele><time>2026-05-02T17:02:50.999Z</time></trkpt><trkpt lat="43.474908676821755" lon="11.592151629304626"><ele>261.0</ele><time>2026-05-02T17:02:52.999Z</time></trkpt><trkpt lat="43.474964438321365" lon="11.592089437298533"><ele>261.0</ele><time>2026-05-02T17:02:54.999Z</time></trkpt><trkpt lat="43.475043334595505" lon="11.592017306352378"><ele>261.0</ele><time>2026-05-02T17:02:57.999Z</time></trkpt><trkpt lat="43.47503855777534" lon="11.59185760766063"><ele>262.0</ele><time>2026-05-02T17:03:00.999Z</time></trkpt><trkpt lat="43.47504361251626" lon="11.591769836895013"><ele>262.0</ele><time>2026-05-02T17:03:02.999Z</time></trkpt><trkpt lat="43.47498330607204" lon="11.591799369298275"><ele>262.0</ele><time>2026-05-02T17:07:10.999Z</time></trkpt></trkseg></trk></gpx>